<?xml version="1.0" encoding="utf-8"?>
<gpx xmlns:xsi="http://www.w3.org/2001/XMLSchema-instance" xmlns:xsd="http://www.w3.org/2001/XMLSchema" version="1.1" creator="Shapelink.com" xmlns="http://www.topografix.com/GPX/1/1" xmlns:gpxtpx="http://www.garmin.com/xmlschemas/TrackPointExtension/v1">
  <metadata>
    <name>Sykling 44.04 km, 2013-04-20</name>
    <desc></desc>
    <author><name>Mikael Blom</name></author> 
    <time>2013-04-20T18:21:33Z</time>
  </metadata>
  <trk>
    <name>Sykling 44.04 km, 2013-04-20</name>
    <trkseg>
      <trkpt lat="59.9775583" lon="17.7389766">
        <ele>50.6066</ele>
        <time>2013-04-20T18:21:33Z</time>
      </trkpt>
      <trkpt lat="59.9775064" lon="17.7389943">
        <ele>49.6453</ele>
        <time>2013-04-20T18:21:34Z</time>
      </trkpt>
      <trkpt lat="59.9774432" lon="17.7390238">
        <ele>48.684</ele>
        <time>2013-04-20T18:21:35Z</time>
      </trkpt>
      <trkpt lat="59.9773715" lon="17.7390602">
        <ele>46.7612</ele>
        <time>2013-04-20T18:21:36Z</time>
      </trkpt>
      <trkpt lat="59.977308" lon="17.7390948">
        <ele>46.2806</ele>
        <time>2013-04-20T18:21:37Z</time>
      </trkpt>
      <trkpt lat="59.9772473" lon="17.739129">
        <ele>46.7612</ele>
        <time>2013-04-20T18:21:38Z</time>
      </trkpt>
      <trkpt lat="59.9771667" lon="17.7391777">
        <ele>45.7999</ele>
        <time>2013-04-20T18:21:39Z</time>
      </trkpt>
      <trkpt lat="59.9770972" lon="17.7392112">
        <ele>45.7999</ele>
        <time>2013-04-20T18:21:40Z</time>
      </trkpt>
      <trkpt lat="59.9770303" lon="17.7392439">
        <ele>46.2806</ele>
        <time>2013-04-20T18:21:41Z</time>
      </trkpt>
      <trkpt lat="59.9769474" lon="17.7392844">
        <ele>45.7999</ele>
        <time>2013-04-20T18:21:42Z</time>
      </trkpt>
      <trkpt lat="59.9768542" lon="17.7393266">
        <ele>44.358</ele>
        <time>2013-04-20T18:21:43Z</time>
      </trkpt>
      <trkpt lat="59.9767682" lon="17.7393667">
        <ele>43.8773</ele>
        <time>2013-04-20T18:21:44Z</time>
      </trkpt>
      <trkpt lat="59.9766821" lon="17.7394118">
        <ele>43.3966</ele>
        <time>2013-04-20T18:21:45Z</time>
      </trkpt>
      <trkpt lat="59.9765911" lon="17.7394759">
        <ele>42.4354</ele>
        <time>2013-04-20T18:21:46Z</time>
      </trkpt>
      <trkpt lat="59.9765113" lon="17.7395575">
        <ele>42.4354</ele>
        <time>2013-04-20T18:21:47Z</time>
      </trkpt>
      <trkpt lat="59.9764359" lon="17.7396641">
        <ele>41.9547</ele>
        <time>2013-04-20T18:21:48Z</time>
      </trkpt>
      <trkpt lat="59.9763679" lon="17.739791">
        <ele>41.9547</ele>
        <time>2013-04-20T18:21:49Z</time>
      </trkpt>
      <trkpt lat="59.9763056" lon="17.7399366">
        <ele>41.474</ele>
        <time>2013-04-20T18:21:50Z</time>
      </trkpt>
      <trkpt lat="59.9762471" lon="17.7400977">
        <ele>40.5128</ele>
        <time>2013-04-20T18:21:51Z</time>
      </trkpt>
      <trkpt lat="59.9761982" lon="17.7402571">
        <ele>40.9934</ele>
        <time>2013-04-20T18:21:52Z</time>
      </trkpt>
      <trkpt lat="59.9761498" lon="17.7404135">
        <ele>40.9934</ele>
        <time>2013-04-20T18:21:53Z</time>
      </trkpt>
      <trkpt lat="59.9761026" lon="17.7405686">
        <ele>40.9934</ele>
        <time>2013-04-20T18:21:54Z</time>
      </trkpt>
      <trkpt lat="59.976055" lon="17.7407245">
        <ele>41.474</ele>
        <time>2013-04-20T18:21:55Z</time>
      </trkpt>
      <trkpt lat="59.9760088" lon="17.7408794">
        <ele>41.474</ele>
        <time>2013-04-20T18:21:56Z</time>
      </trkpt>
      <trkpt lat="59.9759651" lon="17.741034">
        <ele>41.474</ele>
        <time>2013-04-20T18:21:57Z</time>
      </trkpt>
      <trkpt lat="59.9759243" lon="17.7411881">
        <ele>41.9547</ele>
        <time>2013-04-20T18:21:58Z</time>
      </trkpt>
      <trkpt lat="59.9758846" lon="17.7413419">
        <ele>42.4354</ele>
        <time>2013-04-20T18:21:59Z</time>
      </trkpt>
      <trkpt lat="59.9758467" lon="17.7414942">
        <ele>42.4354</ele>
        <time>2013-04-20T18:22:00Z</time>
      </trkpt>
      <trkpt lat="59.9758099" lon="17.7416443">
        <ele>42.4354</ele>
        <time>2013-04-20T18:22:01Z</time>
      </trkpt>
      <trkpt lat="59.9757739" lon="17.7417924">
        <ele>42.916</ele>
        <time>2013-04-20T18:22:02Z</time>
      </trkpt>
      <trkpt lat="59.9757379" lon="17.7419374">
        <ele>42.916</ele>
        <time>2013-04-20T18:22:03Z</time>
      </trkpt>
      <trkpt lat="59.9757014" lon="17.742078">
        <ele>43.3966</ele>
        <time>2013-04-20T18:22:04Z</time>
      </trkpt>
      <trkpt lat="59.9756654" lon="17.7422168">
        <ele>43.3966</ele>
        <time>2013-04-20T18:22:05Z</time>
      </trkpt>
      <trkpt lat="59.9756291" lon="17.74235">
        <ele>43.3966</ele>
        <time>2013-04-20T18:22:06Z</time>
      </trkpt>
      <trkpt lat="59.9755942" lon="17.7424811">
        <ele>43.8773</ele>
        <time>2013-04-20T18:22:07Z</time>
      </trkpt>
      <trkpt lat="59.9755586" lon="17.7426121">
        <ele>43.8773</ele>
        <time>2013-04-20T18:22:08Z</time>
      </trkpt>
      <trkpt lat="59.9755224" lon="17.7427406">
        <ele>43.3966</ele>
        <time>2013-04-20T18:22:09Z</time>
      </trkpt>
      <trkpt lat="59.9754877" lon="17.7428731">
        <ele>43.8773</ele>
        <time>2013-04-20T18:22:10Z</time>
      </trkpt>
      <trkpt lat="59.9754519" lon="17.7430016">
        <ele>43.8773</ele>
        <time>2013-04-20T18:22:11Z</time>
      </trkpt>
      <trkpt lat="59.9754178" lon="17.7431306">
        <ele>43.8773</ele>
        <time>2013-04-20T18:22:12Z</time>
      </trkpt>
      <trkpt lat="59.9753875" lon="17.7432642">
        <ele>43.8773</ele>
        <time>2013-04-20T18:22:13Z</time>
      </trkpt>
      <trkpt lat="59.9753585" lon="17.7434021">
        <ele>43.8773</ele>
        <time>2013-04-20T18:22:14Z</time>
      </trkpt>
      <trkpt lat="59.9753316" lon="17.7435425">
        <ele>43.8773</ele>
        <time>2013-04-20T18:22:15Z</time>
      </trkpt>
      <trkpt lat="59.9753074" lon="17.7436874">
        <ele>44.358</ele>
        <time>2013-04-20T18:22:16Z</time>
      </trkpt>
      <trkpt lat="59.975282" lon="17.7438331">
        <ele>44.358</ele>
        <time>2013-04-20T18:22:17Z</time>
      </trkpt>
      <trkpt lat="59.9752557" lon="17.7439776">
        <ele>44.358</ele>
        <time>2013-04-20T18:22:18Z</time>
      </trkpt>
      <trkpt lat="59.9752292" lon="17.744124">
        <ele>43.8773</ele>
        <time>2013-04-20T18:22:19Z</time>
      </trkpt>
      <trkpt lat="59.9752006" lon="17.74427">
        <ele>43.8773</ele>
        <time>2013-04-20T18:22:20Z</time>
      </trkpt>
      <trkpt lat="59.9751707" lon="17.7444177">
        <ele>43.8773</ele>
        <time>2013-04-20T18:22:21Z</time>
      </trkpt>
      <trkpt lat="59.9751359" lon="17.7445645">
        <ele>43.8773</ele>
        <time>2013-04-20T18:22:22Z</time>
      </trkpt>
      <trkpt lat="59.9750975" lon="17.7447086">
        <ele>43.8773</ele>
        <time>2013-04-20T18:22:23Z</time>
      </trkpt>
      <trkpt lat="59.9750561" lon="17.7448494">
        <ele>43.8773</ele>
        <time>2013-04-20T18:22:24Z</time>
      </trkpt>
      <trkpt lat="59.9750106" lon="17.744986">
        <ele>44.358</ele>
        <time>2013-04-20T18:22:25Z</time>
      </trkpt>
      <trkpt lat="59.9749633" lon="17.745119">
        <ele>44.358</ele>
        <time>2013-04-20T18:22:26Z</time>
      </trkpt>
      <trkpt lat="59.9749085" lon="17.7452559">
        <ele>44.358</ele>
        <time>2013-04-20T18:22:27Z</time>
      </trkpt>
      <trkpt lat="59.9748536" lon="17.7453933">
        <ele>43.8773</ele>
        <time>2013-04-20T18:22:28Z</time>
      </trkpt>
      <trkpt lat="59.9747981" lon="17.7455283">
        <ele>43.8773</ele>
        <time>2013-04-20T18:22:29Z</time>
      </trkpt>
      <trkpt lat="59.9747401" lon="17.7456555">
        <ele>43.8773</ele>
        <time>2013-04-20T18:22:30Z</time>
      </trkpt>
      <trkpt lat="59.9746806" lon="17.7457719">
        <ele>43.8773</ele>
        <time>2013-04-20T18:22:31Z</time>
      </trkpt>
      <trkpt lat="59.9746265" lon="17.7458753">
        <ele>44.358</ele>
        <time>2013-04-20T18:22:32Z</time>
      </trkpt>
      <trkpt lat="59.9745661" lon="17.7459776">
        <ele>44.358</ele>
        <time>2013-04-20T18:22:33Z</time>
      </trkpt>
      <trkpt lat="59.974508" lon="17.746074">
        <ele>44.358</ele>
        <time>2013-04-20T18:22:34Z</time>
      </trkpt>
      <trkpt lat="59.9744454" lon="17.7461714">
        <ele>44.358</ele>
        <time>2013-04-20T18:22:35Z</time>
      </trkpt>
      <trkpt lat="59.9743839" lon="17.7462672">
        <ele>44.358</ele>
        <time>2013-04-20T18:22:36Z</time>
      </trkpt>
      <trkpt lat="59.9743241" lon="17.7463572">
        <ele>44.8386</ele>
        <time>2013-04-20T18:22:37Z</time>
      </trkpt>
      <trkpt lat="59.9742585" lon="17.7464483">
        <ele>44.8386</ele>
        <time>2013-04-20T18:22:38Z</time>
      </trkpt>
      <trkpt lat="59.9741895" lon="17.7465422">
        <ele>44.8386</ele>
        <time>2013-04-20T18:22:39Z</time>
      </trkpt>
      <trkpt lat="59.9741186" lon="17.7466374">
        <ele>44.358</ele>
        <time>2013-04-20T18:22:40Z</time>
      </trkpt>
      <trkpt lat="59.9740445" lon="17.7467334">
        <ele>43.3966</ele>
        <time>2013-04-20T18:22:41Z</time>
      </trkpt>
      <trkpt lat="59.9739697" lon="17.7468302">
        <ele>42.916</ele>
        <time>2013-04-20T18:22:42Z</time>
      </trkpt>
      <trkpt lat="59.973897" lon="17.746925">
        <ele>42.4354</ele>
        <time>2013-04-20T18:22:43Z</time>
      </trkpt>
      <trkpt lat="59.9738293" lon="17.747014">
        <ele>41.9547</ele>
        <time>2013-04-20T18:22:44Z</time>
      </trkpt>
      <trkpt lat="59.9737589" lon="17.7470989">
        <ele>41.474</ele>
        <time>2013-04-20T18:22:45Z</time>
      </trkpt>
      <trkpt lat="59.9736798" lon="17.7471856">
        <ele>40.5128</ele>
        <time>2013-04-20T18:22:46Z</time>
      </trkpt>
      <trkpt lat="59.9736088" lon="17.7472633">
        <ele>40.5128</ele>
        <time>2013-04-20T18:22:47Z</time>
      </trkpt>
      <trkpt lat="59.9735349" lon="17.7473394">
        <ele>40.5128</ele>
        <time>2013-04-20T18:22:48Z</time>
      </trkpt>
      <trkpt lat="59.9734596" lon="17.747414">
        <ele>40.0321</ele>
        <time>2013-04-20T18:22:49Z</time>
      </trkpt>
      <trkpt lat="59.9733704" lon="17.7474999">
        <ele>38.5901</ele>
        <time>2013-04-20T18:22:50Z</time>
      </trkpt>
      <trkpt lat="59.9732892" lon="17.7475853">
        <ele>37.6287</ele>
        <time>2013-04-20T18:22:51Z</time>
      </trkpt>
      <trkpt lat="59.9732202" lon="17.7476656">
        <ele>37.6287</ele>
        <time>2013-04-20T18:22:52Z</time>
      </trkpt>
      <trkpt lat="59.9731462" lon="17.7477502">
        <ele>37.6287</ele>
        <time>2013-04-20T18:22:53Z</time>
      </trkpt>
      <trkpt lat="59.9730748" lon="17.7478332">
        <ele>37.6287</ele>
        <time>2013-04-20T18:22:54Z</time>
      </trkpt>
      <trkpt lat="59.9730044" lon="17.7479185">
        <ele>37.1481</ele>
        <time>2013-04-20T18:22:55Z</time>
      </trkpt>
      <trkpt lat="59.9729389" lon="17.7480107">
        <ele>37.1481</ele>
        <time>2013-04-20T18:22:56Z</time>
      </trkpt>
      <trkpt lat="59.9728774" lon="17.7481097">
        <ele>37.1481</ele>
        <time>2013-04-20T18:22:57Z</time>
      </trkpt>
      <trkpt lat="59.9728206" lon="17.7482162">
        <ele>37.1481</ele>
        <time>2013-04-20T18:22:58Z</time>
      </trkpt>
      <trkpt lat="59.9727681" lon="17.7483288">
        <ele>37.6287</ele>
        <time>2013-04-20T18:22:59Z</time>
      </trkpt>
      <trkpt lat="59.9727179" lon="17.7484438">
        <ele>37.6287</ele>
        <time>2013-04-20T18:23:00Z</time>
      </trkpt>
      <trkpt lat="59.9726724" lon="17.7485521">
        <ele>37.6287</ele>
        <time>2013-04-20T18:23:01Z</time>
      </trkpt>
      <trkpt lat="59.9726267" lon="17.748655">
        <ele>37.6287</ele>
        <time>2013-04-20T18:23:02Z</time>
      </trkpt>
      <trkpt lat="59.9725774" lon="17.7487594">
        <ele>37.1481</ele>
        <time>2013-04-20T18:23:03Z</time>
      </trkpt>
      <trkpt lat="59.9725327" lon="17.7488596">
        <ele>37.1481</ele>
        <time>2013-04-20T18:23:04Z</time>
      </trkpt>
      <trkpt lat="59.9724827" lon="17.7489663">
        <ele>37.6287</ele>
        <time>2013-04-20T18:23:05Z</time>
      </trkpt>
      <trkpt lat="59.9724317" lon="17.7490758">
        <ele>38.1094</ele>
        <time>2013-04-20T18:23:06Z</time>
      </trkpt>
      <trkpt lat="59.9723822" lon="17.7491854">
        <ele>37.6287</ele>
        <time>2013-04-20T18:23:07Z</time>
      </trkpt>
      <trkpt lat="59.9723343" lon="17.7492908">
        <ele>38.1094</ele>
        <time>2013-04-20T18:23:08Z</time>
      </trkpt>
      <trkpt lat="59.9722962" lon="17.7493918">
        <ele>39.0707</ele>
        <time>2013-04-20T18:23:09Z</time>
      </trkpt>
      <trkpt lat="59.9722563" lon="17.7494948">
        <ele>39.5513</ele>
        <time>2013-04-20T18:23:10Z</time>
      </trkpt>
      <trkpt lat="59.9722298" lon="17.749599">
        <ele>40.0321</ele>
        <time>2013-04-20T18:23:11Z</time>
      </trkpt>
      <trkpt lat="59.9721896" lon="17.7497154">
        <ele>40.0321</ele>
        <time>2013-04-20T18:23:12Z</time>
      </trkpt>
      <trkpt lat="59.9721328" lon="17.7498325">
        <ele>39.5513</ele>
        <time>2013-04-20T18:23:13Z</time>
      </trkpt>
      <trkpt lat="59.9720812" lon="17.7499415">
        <ele>40.0321</ele>
        <time>2013-04-20T18:23:14Z</time>
      </trkpt>
      <trkpt lat="59.97203" lon="17.7500523">
        <ele>40.5128</ele>
        <time>2013-04-20T18:23:15Z</time>
      </trkpt>
      <trkpt lat="59.9719661" lon="17.7501741">
        <ele>40.5128</ele>
        <time>2013-04-20T18:23:16Z</time>
      </trkpt>
      <trkpt lat="59.9719051" lon="17.7502998">
        <ele>40.0321</ele>
        <time>2013-04-20T18:23:17Z</time>
      </trkpt>
      <trkpt lat="59.9718369" lon="17.7504222">
        <ele>40.0321</ele>
        <time>2013-04-20T18:23:18Z</time>
      </trkpt>
      <trkpt lat="59.9717621" lon="17.7505452">
        <ele>39.5513</ele>
        <time>2013-04-20T18:23:19Z</time>
      </trkpt>
      <trkpt lat="59.9716818" lon="17.7506706">
        <ele>39.0707</ele>
        <time>2013-04-20T18:23:20Z</time>
      </trkpt>
      <trkpt lat="59.9716001" lon="17.7507868">
        <ele>38.1094</ele>
        <time>2013-04-20T18:23:21Z</time>
      </trkpt>
      <trkpt lat="59.9715244" lon="17.7508924">
        <ele>37.6287</ele>
        <time>2013-04-20T18:23:22Z</time>
      </trkpt>
      <trkpt lat="59.9714488" lon="17.7509883">
        <ele>37.6287</ele>
        <time>2013-04-20T18:23:23Z</time>
      </trkpt>
      <trkpt lat="59.9713755" lon="17.7510848">
        <ele>37.6287</ele>
        <time>2013-04-20T18:23:24Z</time>
      </trkpt>
      <trkpt lat="59.9712968" lon="17.7511839">
        <ele>37.1481</ele>
        <time>2013-04-20T18:23:25Z</time>
      </trkpt>
      <trkpt lat="59.9712053" lon="17.7512761">
        <ele>36.1868</ele>
        <time>2013-04-20T18:23:26Z</time>
      </trkpt>
      <trkpt lat="59.971116" lon="17.7513782">
        <ele>35.2255</ele>
        <time>2013-04-20T18:23:27Z</time>
      </trkpt>
      <trkpt lat="59.9710355" lon="17.7514699">
        <ele>35.2255</ele>
        <time>2013-04-20T18:23:28Z</time>
      </trkpt>
      <trkpt lat="59.9709601" lon="17.7515627">
        <ele>35.2255</ele>
        <time>2013-04-20T18:23:29Z</time>
      </trkpt>
      <trkpt lat="59.9708882" lon="17.7516595">
        <ele>35.7061</ele>
        <time>2013-04-20T18:23:30Z</time>
      </trkpt>
      <trkpt lat="59.9708124" lon="17.7517713">
        <ele>35.2255</ele>
        <time>2013-04-20T18:23:31Z</time>
      </trkpt>
      <trkpt lat="59.97075" lon="17.7518832">
        <ele>35.2255</ele>
        <time>2013-04-20T18:23:32Z</time>
      </trkpt>
      <trkpt lat="59.9706807" lon="17.7519996">
        <ele>35.7061</ele>
        <time>2013-04-20T18:23:33Z</time>
      </trkpt>
      <trkpt lat="59.9706151" lon="17.7521291">
        <ele>35.2255</ele>
        <time>2013-04-20T18:23:34Z</time>
      </trkpt>
      <trkpt lat="59.9705561" lon="17.7522636">
        <ele>35.2255</ele>
        <time>2013-04-20T18:23:35Z</time>
      </trkpt>
      <trkpt lat="59.9704978" lon="17.752405">
        <ele>35.2255</ele>
        <time>2013-04-20T18:23:36Z</time>
      </trkpt>
      <trkpt lat="59.970441" lon="17.7525496">
        <ele>35.2255</ele>
        <time>2013-04-20T18:23:37Z</time>
      </trkpt>
      <trkpt lat="59.9703852" lon="17.7526971">
        <ele>35.2255</ele>
        <time>2013-04-20T18:23:38Z</time>
      </trkpt>
      <trkpt lat="59.9703322" lon="17.7528491">
        <ele>35.7061</ele>
        <time>2013-04-20T18:23:39Z</time>
      </trkpt>
      <trkpt lat="59.9702785" lon="17.7530033">
        <ele>35.7061</ele>
        <time>2013-04-20T18:23:40Z</time>
      </trkpt>
      <trkpt lat="59.9702297" lon="17.7531584">
        <ele>36.1868</ele>
        <time>2013-04-20T18:23:41Z</time>
      </trkpt>
      <trkpt lat="59.9701823" lon="17.7533182">
        <ele>36.1868</ele>
        <time>2013-04-20T18:23:42Z</time>
      </trkpt>
      <trkpt lat="59.9701318" lon="17.7534748">
        <ele>36.1868</ele>
        <time>2013-04-20T18:23:43Z</time>
      </trkpt>
      <trkpt lat="59.9700824" lon="17.753628">
        <ele>36.1868</ele>
        <time>2013-04-20T18:23:44Z</time>
      </trkpt>
      <trkpt lat="59.9700314" lon="17.7537782">
        <ele>36.6675</ele>
        <time>2013-04-20T18:23:45Z</time>
      </trkpt>
      <trkpt lat="59.9699759" lon="17.7539223">
        <ele>36.6675</ele>
        <time>2013-04-20T18:23:46Z</time>
      </trkpt>
      <trkpt lat="59.9699113" lon="17.7540555">
        <ele>36.1868</ele>
        <time>2013-04-20T18:23:47Z</time>
      </trkpt>
      <trkpt lat="59.9698448" lon="17.7541834">
        <ele>36.1868</ele>
        <time>2013-04-20T18:23:48Z</time>
      </trkpt>
      <trkpt lat="59.9697783" lon="17.7543044">
        <ele>35.7061</ele>
        <time>2013-04-20T18:23:49Z</time>
      </trkpt>
      <trkpt lat="59.9697128" lon="17.7544228">
        <ele>35.7061</ele>
        <time>2013-04-20T18:23:50Z</time>
      </trkpt>
      <trkpt lat="59.9696508" lon="17.7545437">
        <ele>35.7061</ele>
        <time>2013-04-20T18:23:51Z</time>
      </trkpt>
      <trkpt lat="59.9695916" lon="17.7546668">
        <ele>35.7061</ele>
        <time>2013-04-20T18:23:52Z</time>
      </trkpt>
      <trkpt lat="59.9695332" lon="17.75479">
        <ele>35.7061</ele>
        <time>2013-04-20T18:23:53Z</time>
      </trkpt>
      <trkpt lat="59.9694754" lon="17.7549113">
        <ele>35.7061</ele>
        <time>2013-04-20T18:23:54Z</time>
      </trkpt>
      <trkpt lat="59.9694181" lon="17.7550323">
        <ele>35.7061</ele>
        <time>2013-04-20T18:23:55Z</time>
      </trkpt>
      <trkpt lat="59.969361" lon="17.7551534">
        <ele>35.2255</ele>
        <time>2013-04-20T18:23:56Z</time>
      </trkpt>
      <trkpt lat="59.9693036" lon="17.7552741">
        <ele>35.2255</ele>
        <time>2013-04-20T18:23:57Z</time>
      </trkpt>
      <trkpt lat="59.9692467" lon="17.7553949">
        <ele>35.2255</ele>
        <time>2013-04-20T18:23:58Z</time>
      </trkpt>
      <trkpt lat="59.9691897" lon="17.7555158">
        <ele>35.2255</ele>
        <time>2013-04-20T18:23:59Z</time>
      </trkpt>
      <trkpt lat="59.969133" lon="17.7556355">
        <ele>35.2255</ele>
        <time>2013-04-20T18:24:00Z</time>
      </trkpt>
      <trkpt lat="59.9690758" lon="17.7557533">
        <ele>35.7061</ele>
        <time>2013-04-20T18:24:01Z</time>
      </trkpt>
      <trkpt lat="59.9690144" lon="17.7558716">
        <ele>35.2255</ele>
        <time>2013-04-20T18:24:02Z</time>
      </trkpt>
      <trkpt lat="59.968954" lon="17.7559898">
        <ele>35.2255</ele>
        <time>2013-04-20T18:24:03Z</time>
      </trkpt>
      <trkpt lat="59.9688946" lon="17.7561081">
        <ele>34.7449</ele>
        <time>2013-04-20T18:24:04Z</time>
      </trkpt>
      <trkpt lat="59.9688369" lon="17.7562224">
        <ele>34.7449</ele>
        <time>2013-04-20T18:24:05Z</time>
      </trkpt>
      <trkpt lat="59.9687801" lon="17.7563316">
        <ele>35.2255</ele>
        <time>2013-04-20T18:24:06Z</time>
      </trkpt>
      <trkpt lat="59.9687225" lon="17.756437">
        <ele>34.7449</ele>
        <time>2013-04-20T18:24:07Z</time>
      </trkpt>
      <trkpt lat="59.9686638" lon="17.7565391">
        <ele>34.7449</ele>
        <time>2013-04-20T18:24:08Z</time>
      </trkpt>
      <trkpt lat="59.9686043" lon="17.7566388">
        <ele>34.2642</ele>
        <time>2013-04-20T18:24:09Z</time>
      </trkpt>
      <trkpt lat="59.9685422" lon="17.7567364">
        <ele>34.2642</ele>
        <time>2013-04-20T18:24:10Z</time>
      </trkpt>
      <trkpt lat="59.9684779" lon="17.756832">
        <ele>34.2642</ele>
        <time>2013-04-20T18:24:11Z</time>
      </trkpt>
      <trkpt lat="59.9684122" lon="17.7569266">
        <ele>34.2642</ele>
        <time>2013-04-20T18:24:12Z</time>
      </trkpt>
      <trkpt lat="59.9683472" lon="17.7570209">
        <ele>34.2642</ele>
        <time>2013-04-20T18:24:13Z</time>
      </trkpt>
      <trkpt lat="59.9682821" lon="17.7571157">
        <ele>33.7834</ele>
        <time>2013-04-20T18:24:14Z</time>
      </trkpt>
      <trkpt lat="59.9682164" lon="17.7572091">
        <ele>33.7834</ele>
        <time>2013-04-20T18:24:15Z</time>
      </trkpt>
      <trkpt lat="59.9681464" lon="17.7573021">
        <ele>33.3029</ele>
        <time>2013-04-20T18:24:16Z</time>
      </trkpt>
      <trkpt lat="59.9680724" lon="17.757395">
        <ele>32.8223</ele>
        <time>2013-04-20T18:24:17Z</time>
      </trkpt>
      <trkpt lat="59.967996" lon="17.7574887">
        <ele>32.3416</ele>
        <time>2013-04-20T18:24:18Z</time>
      </trkpt>
      <trkpt lat="59.9679173" lon="17.7575832">
        <ele>31.8607</ele>
        <time>2013-04-20T18:24:19Z</time>
      </trkpt>
      <trkpt lat="59.9678363" lon="17.757677">
        <ele>31.3801</ele>
        <time>2013-04-20T18:24:20Z</time>
      </trkpt>
      <trkpt lat="59.9677529" lon="17.7577723">
        <ele>30.8995</ele>
        <time>2013-04-20T18:24:21Z</time>
      </trkpt>
      <trkpt lat="59.9676683" lon="17.7578685">
        <ele>30.8995</ele>
        <time>2013-04-20T18:24:22Z</time>
      </trkpt>
      <trkpt lat="59.9675813" lon="17.7579623">
        <ele>30.4188</ele>
        <time>2013-04-20T18:24:23Z</time>
      </trkpt>
      <trkpt lat="59.9674937" lon="17.7580558">
        <ele>29.9381</ele>
        <time>2013-04-20T18:24:24Z</time>
      </trkpt>
      <trkpt lat="59.9674062" lon="17.7581472">
        <ele>29.9381</ele>
        <time>2013-04-20T18:24:25Z</time>
      </trkpt>
      <trkpt lat="59.96732" lon="17.7582384">
        <ele>29.4575</ele>
        <time>2013-04-20T18:24:26Z</time>
      </trkpt>
      <trkpt lat="59.9672346" lon="17.7583219">
        <ele>29.4575</ele>
        <time>2013-04-20T18:24:27Z</time>
      </trkpt>
      <trkpt lat="59.9671493" lon="17.7584006">
        <ele>29.4575</ele>
        <time>2013-04-20T18:24:28Z</time>
      </trkpt>
      <trkpt lat="59.9670642" lon="17.7584746">
        <ele>29.4575</ele>
        <time>2013-04-20T18:24:29Z</time>
      </trkpt>
      <trkpt lat="59.9669752" lon="17.75855">
        <ele>28.9769</ele>
        <time>2013-04-20T18:24:30Z</time>
      </trkpt>
      <trkpt lat="59.9668908" lon="17.7586254">
        <ele>28.9769</ele>
        <time>2013-04-20T18:24:31Z</time>
      </trkpt>
      <trkpt lat="59.9668094" lon="17.7587009">
        <ele>28.9769</ele>
        <time>2013-04-20T18:24:32Z</time>
      </trkpt>
      <trkpt lat="59.9667255" lon="17.7587774">
        <ele>28.9769</ele>
        <time>2013-04-20T18:24:33Z</time>
      </trkpt>
      <trkpt lat="59.9666411" lon="17.7588595">
        <ele>28.4962</ele>
        <time>2013-04-20T18:24:34Z</time>
      </trkpt>
      <trkpt lat="59.9665568" lon="17.7589432">
        <ele>28.4962</ele>
        <time>2013-04-20T18:24:35Z</time>
      </trkpt>
      <trkpt lat="59.9664786" lon="17.7590382">
        <ele>28.0155</ele>
        <time>2013-04-20T18:24:36Z</time>
      </trkpt>
      <trkpt lat="59.9664019" lon="17.7591424">
        <ele>28.0155</ele>
        <time>2013-04-20T18:24:37Z</time>
      </trkpt>
      <trkpt lat="59.9663287" lon="17.7592551">
        <ele>27.5349</ele>
        <time>2013-04-20T18:24:38Z</time>
      </trkpt>
      <trkpt lat="59.9662521" lon="17.7593733">
        <ele>27.0543</ele>
        <time>2013-04-20T18:24:39Z</time>
      </trkpt>
      <trkpt lat="59.9661783" lon="17.75949">
        <ele>27.0543</ele>
        <time>2013-04-20T18:24:40Z</time>
      </trkpt>
      <trkpt lat="59.9661069" lon="17.7596112">
        <ele>27.0543</ele>
        <time>2013-04-20T18:24:41Z</time>
      </trkpt>
      <trkpt lat="59.9660345" lon="17.7597344">
        <ele>27.0543</ele>
        <time>2013-04-20T18:24:42Z</time>
      </trkpt>
      <trkpt lat="59.9659672" lon="17.759859">
        <ele>27.0543</ele>
        <time>2013-04-20T18:24:43Z</time>
      </trkpt>
      <trkpt lat="59.9658983" lon="17.7599826">
        <ele>26.5736</ele>
        <time>2013-04-20T18:24:44Z</time>
      </trkpt>
      <trkpt lat="59.9658264" lon="17.7601025">
        <ele>26.5736</ele>
        <time>2013-04-20T18:24:45Z</time>
      </trkpt>
      <trkpt lat="59.9657564" lon="17.7602193">
        <ele>26.0929</ele>
        <time>2013-04-20T18:24:46Z</time>
      </trkpt>
      <trkpt lat="59.9656843" lon="17.7603317">
        <ele>26.5736</ele>
        <time>2013-04-20T18:24:47Z</time>
      </trkpt>
      <trkpt lat="59.9656135" lon="17.7604407">
        <ele>26.5736</ele>
        <time>2013-04-20T18:24:48Z</time>
      </trkpt>
      <trkpt lat="59.965545" lon="17.7605465">
        <ele>26.5736</ele>
        <time>2013-04-20T18:24:49Z</time>
      </trkpt>
      <trkpt lat="59.965477" lon="17.7606542">
        <ele>26.5736</ele>
        <time>2013-04-20T18:24:50Z</time>
      </trkpt>
      <trkpt lat="59.9654133" lon="17.7607682">
        <ele>26.0929</ele>
        <time>2013-04-20T18:24:51Z</time>
      </trkpt>
      <trkpt lat="59.9653553" lon="17.760889">
        <ele>26.0929</ele>
        <time>2013-04-20T18:24:52Z</time>
      </trkpt>
      <trkpt lat="59.9653014" lon="17.761017">
        <ele>26.0929</ele>
        <time>2013-04-20T18:24:53Z</time>
      </trkpt>
      <trkpt lat="59.9652502" lon="17.7611501">
        <ele>26.0929</ele>
        <time>2013-04-20T18:24:54Z</time>
      </trkpt>
      <trkpt lat="59.9652026" lon="17.7612864">
        <ele>26.0929</ele>
        <time>2013-04-20T18:24:55Z</time>
      </trkpt>
      <trkpt lat="59.9651559" lon="17.7614206">
        <ele>26.5736</ele>
        <time>2013-04-20T18:24:56Z</time>
      </trkpt>
      <trkpt lat="59.9651062" lon="17.7615543">
        <ele>26.5736</ele>
        <time>2013-04-20T18:24:57Z</time>
      </trkpt>
      <trkpt lat="59.9650604" lon="17.7616873">
        <ele>26.5736</ele>
        <time>2013-04-20T18:24:58Z</time>
      </trkpt>
      <trkpt lat="59.9650116" lon="17.7618214">
        <ele>26.5736</ele>
        <time>2013-04-20T18:24:59Z</time>
      </trkpt>
      <trkpt lat="59.9649598" lon="17.7619551">
        <ele>26.0929</ele>
        <time>2013-04-20T18:25:00Z</time>
      </trkpt>
      <trkpt lat="59.964908" lon="17.7620877">
        <ele>26.0929</ele>
        <time>2013-04-20T18:25:01Z</time>
      </trkpt>
      <trkpt lat="59.9648577" lon="17.7622217">
        <ele>26.0929</ele>
        <time>2013-04-20T18:25:02Z</time>
      </trkpt>
      <trkpt lat="59.9648082" lon="17.7623575">
        <ele>26.0929</ele>
        <time>2013-04-20T18:25:03Z</time>
      </trkpt>
      <trkpt lat="59.964759" lon="17.7624901">
        <ele>26.5736</ele>
        <time>2013-04-20T18:25:04Z</time>
      </trkpt>
      <trkpt lat="59.9647063" lon="17.7626221">
        <ele>27.0543</ele>
        <time>2013-04-20T18:25:05Z</time>
      </trkpt>
      <trkpt lat="59.9646587" lon="17.7627662">
        <ele>27.0543</ele>
        <time>2013-04-20T18:25:06Z</time>
      </trkpt>
      <trkpt lat="59.9646187" lon="17.7629135">
        <ele>27.0543</ele>
        <time>2013-04-20T18:25:07Z</time>
      </trkpt>
      <trkpt lat="59.9645861" lon="17.763058">
        <ele>28.0155</ele>
        <time>2013-04-20T18:25:08Z</time>
      </trkpt>
      <trkpt lat="59.9645541" lon="17.763204">
        <ele>28.0155</ele>
        <time>2013-04-20T18:25:09Z</time>
      </trkpt>
      <trkpt lat="59.9645234" lon="17.7633522">
        <ele>28.0155</ele>
        <time>2013-04-20T18:25:10Z</time>
      </trkpt>
      <trkpt lat="59.9644913" lon="17.7635009">
        <ele>28.4962</ele>
        <time>2013-04-20T18:25:11Z</time>
      </trkpt>
      <trkpt lat="59.9644544" lon="17.7636458">
        <ele>28.9769</ele>
        <time>2013-04-20T18:25:12Z</time>
      </trkpt>
      <trkpt lat="59.9644194" lon="17.7637894">
        <ele>28.9769</ele>
        <time>2013-04-20T18:25:13Z</time>
      </trkpt>
      <trkpt lat="59.9643835" lon="17.7639327">
        <ele>29.4575</ele>
        <time>2013-04-20T18:25:14Z</time>
      </trkpt>
      <trkpt lat="59.9643459" lon="17.7640757">
        <ele>29.4575</ele>
        <time>2013-04-20T18:25:15Z</time>
      </trkpt>
      <trkpt lat="59.9643094" lon="17.7642222">
        <ele>29.4575</ele>
        <time>2013-04-20T18:25:16Z</time>
      </trkpt>
      <trkpt lat="59.9642727" lon="17.7643705">
        <ele>29.9381</ele>
        <time>2013-04-20T18:25:17Z</time>
      </trkpt>
      <trkpt lat="59.9642353" lon="17.7645135">
        <ele>30.4188</ele>
        <time>2013-04-20T18:25:18Z</time>
      </trkpt>
      <trkpt lat="59.9642004" lon="17.764662">
        <ele>30.4188</ele>
        <time>2013-04-20T18:25:19Z</time>
      </trkpt>
      <trkpt lat="59.9641671" lon="17.7648128">
        <ele>30.8995</ele>
        <time>2013-04-20T18:25:20Z</time>
      </trkpt>
      <trkpt lat="59.9641375" lon="17.7649624">
        <ele>30.8995</ele>
        <time>2013-04-20T18:25:21Z</time>
      </trkpt>
      <trkpt lat="59.9641168" lon="17.7651114">
        <ele>30.8995</ele>
        <time>2013-04-20T18:25:22Z</time>
      </trkpt>
      <trkpt lat="59.9640987" lon="17.7652584">
        <ele>30.8995</ele>
        <time>2013-04-20T18:25:23Z</time>
      </trkpt>
      <trkpt lat="59.964085" lon="17.7653941">
        <ele>30.8995</ele>
        <time>2013-04-20T18:25:24Z</time>
      </trkpt>
      <trkpt lat="59.9640686" lon="17.7655261">
        <ele>31.3801</ele>
        <time>2013-04-20T18:25:25Z</time>
      </trkpt>
      <trkpt lat="59.9640534" lon="17.7656558">
        <ele>31.8607</ele>
        <time>2013-04-20T18:25:26Z</time>
      </trkpt>
      <trkpt lat="59.9640379" lon="17.7657878">
        <ele>32.3416</ele>
        <time>2013-04-20T18:25:27Z</time>
      </trkpt>
      <trkpt lat="59.9640309" lon="17.7659133">
        <ele>33.3029</ele>
        <time>2013-04-20T18:25:28Z</time>
      </trkpt>
      <trkpt lat="59.9640263" lon="17.7660303">
        <ele>33.7834</ele>
        <time>2013-04-20T18:25:29Z</time>
      </trkpt>
      <trkpt lat="59.9640213" lon="17.7661415">
        <ele>34.2642</ele>
        <time>2013-04-20T18:25:30Z</time>
      </trkpt>
      <trkpt lat="59.9640188" lon="17.7662533">
        <ele>34.7449</ele>
        <time>2013-04-20T18:25:31Z</time>
      </trkpt>
      <trkpt lat="59.9640132" lon="17.7663696">
        <ele>35.7061</ele>
        <time>2013-04-20T18:25:32Z</time>
      </trkpt>
      <trkpt lat="59.9640154" lon="17.7664828">
        <ele>36.1868</ele>
        <time>2013-04-20T18:25:33Z</time>
      </trkpt>
      <trkpt lat="59.9640161" lon="17.7665916">
        <ele>36.6675</ele>
        <time>2013-04-20T18:25:34Z</time>
      </trkpt>
      <trkpt lat="59.9640172" lon="17.766709">
        <ele>37.1481</ele>
        <time>2013-04-20T18:25:35Z</time>
      </trkpt>
      <trkpt lat="59.9640164" lon="17.7668379">
        <ele>37.1481</ele>
        <time>2013-04-20T18:25:36Z</time>
      </trkpt>
      <trkpt lat="59.9640133" lon="17.7669723">
        <ele>37.1481</ele>
        <time>2013-04-20T18:25:37Z</time>
      </trkpt>
      <trkpt lat="59.9640081" lon="17.7671035">
        <ele>37.1481</ele>
        <time>2013-04-20T18:25:38Z</time>
      </trkpt>
      <trkpt lat="59.9639988" lon="17.7672355">
        <ele>37.6287</ele>
        <time>2013-04-20T18:25:39Z</time>
      </trkpt>
      <trkpt lat="59.9639852" lon="17.7673639">
        <ele>37.6287</ele>
        <time>2013-04-20T18:25:40Z</time>
      </trkpt>
      <trkpt lat="59.9639687" lon="17.7674895">
        <ele>38.1094</ele>
        <time>2013-04-20T18:25:41Z</time>
      </trkpt>
      <trkpt lat="59.9639485" lon="17.7676131">
        <ele>38.1094</ele>
        <time>2013-04-20T18:25:42Z</time>
      </trkpt>
      <trkpt lat="59.9639263" lon="17.7677407">
        <ele>38.5901</ele>
        <time>2013-04-20T18:25:43Z</time>
      </trkpt>
      <trkpt lat="59.9639046" lon="17.7678693">
        <ele>38.1094</ele>
        <time>2013-04-20T18:25:44Z</time>
      </trkpt>
      <trkpt lat="59.9638791" lon="17.767994">
        <ele>38.1094</ele>
        <time>2013-04-20T18:25:45Z</time>
      </trkpt>
      <trkpt lat="59.963847" lon="17.7681355">
        <ele>37.1481</ele>
        <time>2013-04-20T18:25:46Z</time>
      </trkpt>
      <trkpt lat="59.9638123" lon="17.7682717">
        <ele>37.1481</ele>
        <time>2013-04-20T18:25:47Z</time>
      </trkpt>
      <trkpt lat="59.9637766" lon="17.7684125">
        <ele>37.1481</ele>
        <time>2013-04-20T18:25:48Z</time>
      </trkpt>
      <trkpt lat="59.9637387" lon="17.7685602">
        <ele>37.1481</ele>
        <time>2013-04-20T18:25:49Z</time>
      </trkpt>
      <trkpt lat="59.9636998" lon="17.7687018">
        <ele>36.6675</ele>
        <time>2013-04-20T18:25:50Z</time>
      </trkpt>
      <trkpt lat="59.9636593" lon="17.7688409">
        <ele>36.6675</ele>
        <time>2013-04-20T18:25:51Z</time>
      </trkpt>
      <trkpt lat="59.9636196" lon="17.7689776">
        <ele>36.6675</ele>
        <time>2013-04-20T18:25:52Z</time>
      </trkpt>
      <trkpt lat="59.9635802" lon="17.7691094">
        <ele>36.6675</ele>
        <time>2013-04-20T18:25:53Z</time>
      </trkpt>
      <trkpt lat="59.9635437" lon="17.7692482">
        <ele>37.1481</ele>
        <time>2013-04-20T18:25:54Z</time>
      </trkpt>
      <trkpt lat="59.9635046" lon="17.7693754">
        <ele>37.1481</ele>
        <time>2013-04-20T18:25:55Z</time>
      </trkpt>
      <trkpt lat="59.9634782" lon="17.7695004">
        <ele>37.1481</ele>
        <time>2013-04-20T18:25:56Z</time>
      </trkpt>
      <trkpt lat="59.9634574" lon="17.7696413">
        <ele>37.1481</ele>
        <time>2013-04-20T18:25:57Z</time>
      </trkpt>
      <trkpt lat="59.9634439" lon="17.769786">
        <ele>37.6287</ele>
        <time>2013-04-20T18:25:58Z</time>
      </trkpt>
      <trkpt lat="59.9634428" lon="17.769931">
        <ele>38.1094</ele>
        <time>2013-04-20T18:25:59Z</time>
      </trkpt>
      <trkpt lat="59.9634464" lon="17.7700724">
        <ele>38.5901</ele>
        <time>2013-04-20T18:26:00Z</time>
      </trkpt>
      <trkpt lat="59.9634515" lon="17.7702141">
        <ele>38.5901</ele>
        <time>2013-04-20T18:26:01Z</time>
      </trkpt>
      <trkpt lat="59.9634604" lon="17.7703583">
        <ele>38.5901</ele>
        <time>2013-04-20T18:26:02Z</time>
      </trkpt>
      <trkpt lat="59.9634693" lon="17.7705043">
        <ele>38.5901</ele>
        <time>2013-04-20T18:26:03Z</time>
      </trkpt>
      <trkpt lat="59.9634807" lon="17.7706531">
        <ele>38.1094</ele>
        <time>2013-04-20T18:26:04Z</time>
      </trkpt>
      <trkpt lat="59.9634984" lon="17.7708016">
        <ele>37.6287</ele>
        <time>2013-04-20T18:26:05Z</time>
      </trkpt>
      <trkpt lat="59.9635221" lon="17.7709514">
        <ele>37.6287</ele>
        <time>2013-04-20T18:26:06Z</time>
      </trkpt>
      <trkpt lat="59.9635494" lon="17.7711024">
        <ele>37.1481</ele>
        <time>2013-04-20T18:26:07Z</time>
      </trkpt>
      <trkpt lat="59.9635798" lon="17.7712519">
        <ele>36.6675</ele>
        <time>2013-04-20T18:26:08Z</time>
      </trkpt>
      <trkpt lat="59.9636128" lon="17.7714005">
        <ele>36.1868</ele>
        <time>2013-04-20T18:26:09Z</time>
      </trkpt>
      <trkpt lat="59.9636471" lon="17.7715481">
        <ele>35.7061</ele>
        <time>2013-04-20T18:26:10Z</time>
      </trkpt>
      <trkpt lat="59.9636816" lon="17.7716969">
        <ele>35.7061</ele>
        <time>2013-04-20T18:26:11Z</time>
      </trkpt>
      <trkpt lat="59.9637162" lon="17.771847">
        <ele>35.2255</ele>
        <time>2013-04-20T18:26:12Z</time>
      </trkpt>
      <trkpt lat="59.9637506" lon="17.7719987">
        <ele>34.7449</ele>
        <time>2013-04-20T18:26:13Z</time>
      </trkpt>
      <trkpt lat="59.9637838" lon="17.7721535">
        <ele>34.2642</ele>
        <time>2013-04-20T18:26:14Z</time>
      </trkpt>
      <trkpt lat="59.9638142" lon="17.7723128">
        <ele>34.2642</ele>
        <time>2013-04-20T18:26:15Z</time>
      </trkpt>
      <trkpt lat="59.9638412" lon="17.7724765">
        <ele>33.7834</ele>
        <time>2013-04-20T18:26:16Z</time>
      </trkpt>
      <trkpt lat="59.9638623" lon="17.7726427">
        <ele>33.7834</ele>
        <time>2013-04-20T18:26:17Z</time>
      </trkpt>
      <trkpt lat="59.9638755" lon="17.7728085">
        <ele>33.7834</ele>
        <time>2013-04-20T18:26:18Z</time>
      </trkpt>
      <trkpt lat="59.9638789" lon="17.7729685">
        <ele>33.7834</ele>
        <time>2013-04-20T18:26:19Z</time>
      </trkpt>
      <trkpt lat="59.9638732" lon="17.7731243">
        <ele>33.7834</ele>
        <time>2013-04-20T18:26:20Z</time>
      </trkpt>
      <trkpt lat="59.9638598" lon="17.7732773">
        <ele>33.7834</ele>
        <time>2013-04-20T18:26:21Z</time>
      </trkpt>
      <trkpt lat="59.9638434" lon="17.7734276">
        <ele>33.7834</ele>
        <time>2013-04-20T18:26:22Z</time>
      </trkpt>
      <trkpt lat="59.9638227" lon="17.7735801">
        <ele>33.7834</ele>
        <time>2013-04-20T18:26:23Z</time>
      </trkpt>
      <trkpt lat="59.9637997" lon="17.7737306">
        <ele>33.7834</ele>
        <time>2013-04-20T18:26:24Z</time>
      </trkpt>
      <trkpt lat="59.9637738" lon="17.7738766">
        <ele>33.7834</ele>
        <time>2013-04-20T18:26:25Z</time>
      </trkpt>
      <trkpt lat="59.9637468" lon="17.7740206">
        <ele>34.2642</ele>
        <time>2013-04-20T18:26:26Z</time>
      </trkpt>
      <trkpt lat="59.9637188" lon="17.7741634">
        <ele>34.2642</ele>
        <time>2013-04-20T18:26:27Z</time>
      </trkpt>
      <trkpt lat="59.9636941" lon="17.7743079">
        <ele>34.2642</ele>
        <time>2013-04-20T18:26:28Z</time>
      </trkpt>
      <trkpt lat="59.9636718" lon="17.7744573">
        <ele>34.2642</ele>
        <time>2013-04-20T18:26:29Z</time>
      </trkpt>
      <trkpt lat="59.9636456" lon="17.7746163">
        <ele>34.7449</ele>
        <time>2013-04-20T18:26:30Z</time>
      </trkpt>
      <trkpt lat="59.9636221" lon="17.7747654">
        <ele>34.2642</ele>
        <time>2013-04-20T18:26:31Z</time>
      </trkpt>
      <trkpt lat="59.9635936" lon="17.7749152">
        <ele>34.2642</ele>
        <time>2013-04-20T18:26:32Z</time>
      </trkpt>
      <trkpt lat="59.9635629" lon="17.7750629">
        <ele>34.2642</ele>
        <time>2013-04-20T18:26:33Z</time>
      </trkpt>
      <trkpt lat="59.9635279" lon="17.7752069">
        <ele>34.7449</ele>
        <time>2013-04-20T18:26:34Z</time>
      </trkpt>
      <trkpt lat="59.9634881" lon="17.7753463">
        <ele>34.7449</ele>
        <time>2013-04-20T18:26:35Z</time>
      </trkpt>
      <trkpt lat="59.9634444" lon="17.7754783">
        <ele>34.7449</ele>
        <time>2013-04-20T18:26:36Z</time>
      </trkpt>
      <trkpt lat="59.9633998" lon="17.7756067">
        <ele>35.2255</ele>
        <time>2013-04-20T18:26:37Z</time>
      </trkpt>
      <trkpt lat="59.9633554" lon="17.7757335">
        <ele>35.2255</ele>
        <time>2013-04-20T18:26:38Z</time>
      </trkpt>
      <trkpt lat="59.9633134" lon="17.7758593">
        <ele>35.2255</ele>
        <time>2013-04-20T18:26:39Z</time>
      </trkpt>
      <trkpt lat="59.9632735" lon="17.7759837">
        <ele>35.7061</ele>
        <time>2013-04-20T18:26:40Z</time>
      </trkpt>
      <trkpt lat="59.9632342" lon="17.7761077">
        <ele>35.7061</ele>
        <time>2013-04-20T18:26:41Z</time>
      </trkpt>
      <trkpt lat="59.9631963" lon="17.7762319">
        <ele>35.7061</ele>
        <time>2013-04-20T18:26:42Z</time>
      </trkpt>
      <trkpt lat="59.9631596" lon="17.7763583">
        <ele>36.1868</ele>
        <time>2013-04-20T18:26:43Z</time>
      </trkpt>
      <trkpt lat="59.9631217" lon="17.7764887">
        <ele>35.7061</ele>
        <time>2013-04-20T18:26:44Z</time>
      </trkpt>
      <trkpt lat="59.9630838" lon="17.7766218">
        <ele>35.7061</ele>
        <time>2013-04-20T18:26:45Z</time>
      </trkpt>
      <trkpt lat="59.9630466" lon="17.7767495">
        <ele>35.7061</ele>
        <time>2013-04-20T18:26:46Z</time>
      </trkpt>
      <trkpt lat="59.9629979" lon="17.7768878">
        <ele>35.2255</ele>
        <time>2013-04-20T18:26:47Z</time>
      </trkpt>
      <trkpt lat="59.9629493" lon="17.777021">
        <ele>34.7449</ele>
        <time>2013-04-20T18:26:48Z</time>
      </trkpt>
      <trkpt lat="59.9628957" lon="17.7771534">
        <ele>34.7449</ele>
        <time>2013-04-20T18:26:49Z</time>
      </trkpt>
      <trkpt lat="59.9628397" lon="17.7772818">
        <ele>34.7449</ele>
        <time>2013-04-20T18:26:50Z</time>
      </trkpt>
      <trkpt lat="59.9627819" lon="17.7774078">
        <ele>34.7449</ele>
        <time>2013-04-20T18:26:51Z</time>
      </trkpt>
      <trkpt lat="59.9627233" lon="17.7775323">
        <ele>34.7449</ele>
        <time>2013-04-20T18:26:52Z</time>
      </trkpt>
      <trkpt lat="59.9626642" lon="17.7776561">
        <ele>34.7449</ele>
        <time>2013-04-20T18:26:53Z</time>
      </trkpt>
      <trkpt lat="59.9626051" lon="17.7777798">
        <ele>34.7449</ele>
        <time>2013-04-20T18:26:54Z</time>
      </trkpt>
      <trkpt lat="59.9625467" lon="17.7779036">
        <ele>34.7449</ele>
        <time>2013-04-20T18:26:55Z</time>
      </trkpt>
      <trkpt lat="59.9624898" lon="17.7780289">
        <ele>34.2642</ele>
        <time>2013-04-20T18:26:56Z</time>
      </trkpt>
      <trkpt lat="59.9624342" lon="17.7781553">
        <ele>34.2642</ele>
        <time>2013-04-20T18:26:57Z</time>
      </trkpt>
      <trkpt lat="59.9623789" lon="17.7782812">
        <ele>34.2642</ele>
        <time>2013-04-20T18:26:58Z</time>
      </trkpt>
      <trkpt lat="59.9623231" lon="17.7784053">
        <ele>34.2642</ele>
        <time>2013-04-20T18:26:59Z</time>
      </trkpt>
      <trkpt lat="59.9622685" lon="17.7785293">
        <ele>34.2642</ele>
        <time>2013-04-20T18:27:00Z</time>
      </trkpt>
      <trkpt lat="59.9622163" lon="17.7786562">
        <ele>34.7449</ele>
        <time>2013-04-20T18:27:01Z</time>
      </trkpt>
      <trkpt lat="59.9621634" lon="17.7787826">
        <ele>34.2642</ele>
        <time>2013-04-20T18:27:02Z</time>
      </trkpt>
      <trkpt lat="59.9621109" lon="17.7789075">
        <ele>34.2642</ele>
        <time>2013-04-20T18:27:03Z</time>
      </trkpt>
      <trkpt lat="59.9620582" lon="17.7790293">
        <ele>34.2642</ele>
        <time>2013-04-20T18:27:04Z</time>
      </trkpt>
      <trkpt lat="59.9620038" lon="17.7791489">
        <ele>34.7449</ele>
        <time>2013-04-20T18:27:05Z</time>
      </trkpt>
      <trkpt lat="59.961949" lon="17.7792665">
        <ele>34.7449</ele>
        <time>2013-04-20T18:27:06Z</time>
      </trkpt>
      <trkpt lat="59.9618951" lon="17.7793835">
        <ele>34.7449</ele>
        <time>2013-04-20T18:27:07Z</time>
      </trkpt>
      <trkpt lat="59.9618415" lon="17.7795018">
        <ele>35.2255</ele>
        <time>2013-04-20T18:27:08Z</time>
      </trkpt>
      <trkpt lat="59.9617897" lon="17.7796207">
        <ele>35.2255</ele>
        <time>2013-04-20T18:27:09Z</time>
      </trkpt>
      <trkpt lat="59.96174" lon="17.7797408">
        <ele>35.2255</ele>
        <time>2013-04-20T18:27:10Z</time>
      </trkpt>
      <trkpt lat="59.9616903" lon="17.7798625">
        <ele>35.2255</ele>
        <time>2013-04-20T18:27:11Z</time>
      </trkpt>
      <trkpt lat="59.9616383" lon="17.7799816">
        <ele>35.2255</ele>
        <time>2013-04-20T18:27:12Z</time>
      </trkpt>
      <trkpt lat="59.9615842" lon="17.7801008">
        <ele>35.2255</ele>
        <time>2013-04-20T18:27:13Z</time>
      </trkpt>
      <trkpt lat="59.9615276" lon="17.7802165">
        <ele>35.2255</ele>
        <time>2013-04-20T18:27:14Z</time>
      </trkpt>
      <trkpt lat="59.9614693" lon="17.7803292">
        <ele>35.2255</ele>
        <time>2013-04-20T18:27:15Z</time>
      </trkpt>
      <trkpt lat="59.9614102" lon="17.7804399">
        <ele>35.2255</ele>
        <time>2013-04-20T18:27:16Z</time>
      </trkpt>
      <trkpt lat="59.9613505" lon="17.7805501">
        <ele>35.2255</ele>
        <time>2013-04-20T18:27:17Z</time>
      </trkpt>
      <trkpt lat="59.9612901" lon="17.7806602">
        <ele>35.2255</ele>
        <time>2013-04-20T18:27:18Z</time>
      </trkpt>
      <trkpt lat="59.9612301" lon="17.7807716">
        <ele>35.2255</ele>
        <time>2013-04-20T18:27:19Z</time>
      </trkpt>
      <trkpt lat="59.9611705" lon="17.7808846">
        <ele>35.2255</ele>
        <time>2013-04-20T18:27:20Z</time>
      </trkpt>
      <trkpt lat="59.9611103" lon="17.7809962">
        <ele>35.2255</ele>
        <time>2013-04-20T18:27:21Z</time>
      </trkpt>
      <trkpt lat="59.9610492" lon="17.7811054">
        <ele>35.2255</ele>
        <time>2013-04-20T18:27:22Z</time>
      </trkpt>
      <trkpt lat="59.9609881" lon="17.7812142">
        <ele>35.2255</ele>
        <time>2013-04-20T18:27:23Z</time>
      </trkpt>
      <trkpt lat="59.9609272" lon="17.781323">
        <ele>35.2255</ele>
        <time>2013-04-20T18:27:24Z</time>
      </trkpt>
      <trkpt lat="59.9608638" lon="17.7814321">
        <ele>34.7449</ele>
        <time>2013-04-20T18:27:25Z</time>
      </trkpt>
      <trkpt lat="59.9608016" lon="17.7815404">
        <ele>35.2255</ele>
        <time>2013-04-20T18:27:26Z</time>
      </trkpt>
      <trkpt lat="59.9607387" lon="17.7816498">
        <ele>35.2255</ele>
        <time>2013-04-20T18:27:27Z</time>
      </trkpt>
      <trkpt lat="59.9606751" lon="17.7817627">
        <ele>35.2255</ele>
        <time>2013-04-20T18:27:28Z</time>
      </trkpt>
      <trkpt lat="59.9606173" lon="17.7818802">
        <ele>35.2255</ele>
        <time>2013-04-20T18:27:29Z</time>
      </trkpt>
      <trkpt lat="59.9605612" lon="17.7820016">
        <ele>35.2255</ele>
        <time>2013-04-20T18:27:30Z</time>
      </trkpt>
      <trkpt lat="59.9605109" lon="17.782129">
        <ele>34.7449</ele>
        <time>2013-04-20T18:27:31Z</time>
      </trkpt>
      <trkpt lat="59.9604678" lon="17.7822595">
        <ele>34.7449</ele>
        <time>2013-04-20T18:27:32Z</time>
      </trkpt>
      <trkpt lat="59.9604276" lon="17.7823879">
        <ele>34.7449</ele>
        <time>2013-04-20T18:27:33Z</time>
      </trkpt>
      <trkpt lat="59.9603894" lon="17.7825188">
        <ele>34.7449</ele>
        <time>2013-04-20T18:27:34Z</time>
      </trkpt>
      <trkpt lat="59.9603505" lon="17.7826465">
        <ele>34.7449</ele>
        <time>2013-04-20T18:27:35Z</time>
      </trkpt>
      <trkpt lat="59.9603104" lon="17.7827743">
        <ele>34.7449</ele>
        <time>2013-04-20T18:27:36Z</time>
      </trkpt>
      <trkpt lat="59.9602695" lon="17.7828976">
        <ele>34.2642</ele>
        <time>2013-04-20T18:27:37Z</time>
      </trkpt>
      <trkpt lat="59.9602308" lon="17.7830184">
        <ele>34.2642</ele>
        <time>2013-04-20T18:27:38Z</time>
      </trkpt>
      <trkpt lat="59.9601922" lon="17.7831417">
        <ele>34.7449</ele>
        <time>2013-04-20T18:27:39Z</time>
      </trkpt>
      <trkpt lat="59.9601473" lon="17.7832658">
        <ele>34.7449</ele>
        <time>2013-04-20T18:27:40Z</time>
      </trkpt>
      <trkpt lat="59.960106" lon="17.7833883">
        <ele>34.2642</ele>
        <time>2013-04-20T18:27:41Z</time>
      </trkpt>
      <trkpt lat="59.9600637" lon="17.7835208">
        <ele>34.2642</ele>
        <time>2013-04-20T18:27:42Z</time>
      </trkpt>
      <trkpt lat="59.9600173" lon="17.7836565">
        <ele>34.7449</ele>
        <time>2013-04-20T18:27:43Z</time>
      </trkpt>
      <trkpt lat="59.9599676" lon="17.7837871">
        <ele>34.7449</ele>
        <time>2013-04-20T18:27:44Z</time>
      </trkpt>
      <trkpt lat="59.9599163" lon="17.7839144">
        <ele>34.7449</ele>
        <time>2013-04-20T18:27:45Z</time>
      </trkpt>
      <trkpt lat="59.9598614" lon="17.7840373">
        <ele>34.7449</ele>
        <time>2013-04-20T18:27:46Z</time>
      </trkpt>
      <trkpt lat="59.9598029" lon="17.7841544">
        <ele>35.2255</ele>
        <time>2013-04-20T18:27:47Z</time>
      </trkpt>
      <trkpt lat="59.9597411" lon="17.7842689">
        <ele>35.2255</ele>
        <time>2013-04-20T18:27:48Z</time>
      </trkpt>
      <trkpt lat="59.9596796" lon="17.7843786">
        <ele>35.2255</ele>
        <time>2013-04-20T18:27:49Z</time>
      </trkpt>
      <trkpt lat="59.9596157" lon="17.7844823">
        <ele>35.2255</ele>
        <time>2013-04-20T18:27:50Z</time>
      </trkpt>
      <trkpt lat="59.9595497" lon="17.7845823">
        <ele>35.2255</ele>
        <time>2013-04-20T18:27:51Z</time>
      </trkpt>
      <trkpt lat="59.9594838" lon="17.7846839">
        <ele>34.7449</ele>
        <time>2013-04-20T18:27:52Z</time>
      </trkpt>
      <trkpt lat="59.9594169" lon="17.7847879">
        <ele>34.7449</ele>
        <time>2013-04-20T18:27:53Z</time>
      </trkpt>
      <trkpt lat="59.9593475" lon="17.7848894">
        <ele>34.7449</ele>
        <time>2013-04-20T18:27:54Z</time>
      </trkpt>
      <trkpt lat="59.9592743" lon="17.7849821">
        <ele>34.2642</ele>
        <time>2013-04-20T18:27:55Z</time>
      </trkpt>
      <trkpt lat="59.9591951" lon="17.785063">
        <ele>34.2642</ele>
        <time>2013-04-20T18:27:56Z</time>
      </trkpt>
      <trkpt lat="59.9591132" lon="17.7851345">
        <ele>33.7834</ele>
        <time>2013-04-20T18:27:57Z</time>
      </trkpt>
      <trkpt lat="59.9590327" lon="17.7852003">
        <ele>33.7834</ele>
        <time>2013-04-20T18:27:58Z</time>
      </trkpt>
      <trkpt lat="59.958951" lon="17.7852648">
        <ele>33.7834</ele>
        <time>2013-04-20T18:27:59Z</time>
      </trkpt>
      <trkpt lat="59.9588724" lon="17.7853267">
        <ele>33.7834</ele>
        <time>2013-04-20T18:28:00Z</time>
      </trkpt>
      <trkpt lat="59.9587949" lon="17.7853924">
        <ele>33.7834</ele>
        <time>2013-04-20T18:28:01Z</time>
      </trkpt>
      <trkpt lat="59.9587212" lon="17.7854624">
        <ele>33.7834</ele>
        <time>2013-04-20T18:28:02Z</time>
      </trkpt>
      <trkpt lat="59.9586459" lon="17.7855374">
        <ele>33.3029</ele>
        <time>2013-04-20T18:28:03Z</time>
      </trkpt>
      <trkpt lat="59.9585721" lon="17.7856173">
        <ele>33.3029</ele>
        <time>2013-04-20T18:28:04Z</time>
      </trkpt>
      <trkpt lat="59.9584969" lon="17.7857033">
        <ele>32.8223</ele>
        <time>2013-04-20T18:28:05Z</time>
      </trkpt>
      <trkpt lat="59.9584198" lon="17.7857932">
        <ele>32.8223</ele>
        <time>2013-04-20T18:28:06Z</time>
      </trkpt>
      <trkpt lat="59.9583472" lon="17.7858875">
        <ele>31.8607</ele>
        <time>2013-04-20T18:28:07Z</time>
      </trkpt>
      <trkpt lat="59.9582728" lon="17.7859794">
        <ele>31.8607</ele>
        <time>2013-04-20T18:28:08Z</time>
      </trkpt>
      <trkpt lat="59.9581966" lon="17.7860725">
        <ele>31.8607</ele>
        <time>2013-04-20T18:28:09Z</time>
      </trkpt>
      <trkpt lat="59.9581207" lon="17.7861665">
        <ele>31.3801</ele>
        <time>2013-04-20T18:28:10Z</time>
      </trkpt>
      <trkpt lat="59.9580448" lon="17.7862586">
        <ele>31.3801</ele>
        <time>2013-04-20T18:28:11Z</time>
      </trkpt>
      <trkpt lat="59.9579695" lon="17.7863523">
        <ele>30.8995</ele>
        <time>2013-04-20T18:28:12Z</time>
      </trkpt>
      <trkpt lat="59.957897" lon="17.7864512">
        <ele>30.8995</ele>
        <time>2013-04-20T18:28:13Z</time>
      </trkpt>
      <trkpt lat="59.9578301" lon="17.7865616">
        <ele>30.8995</ele>
        <time>2013-04-20T18:28:14Z</time>
      </trkpt>
      <trkpt lat="59.957771" lon="17.7866881">
        <ele>31.3801</ele>
        <time>2013-04-20T18:28:15Z</time>
      </trkpt>
      <trkpt lat="59.957719" lon="17.7868241">
        <ele>31.3801</ele>
        <time>2013-04-20T18:28:16Z</time>
      </trkpt>
      <trkpt lat="59.9576744" lon="17.7869754">
        <ele>31.3801</ele>
        <time>2013-04-20T18:28:17Z</time>
      </trkpt>
      <trkpt lat="59.9576417" lon="17.7871324">
        <ele>31.3801</ele>
        <time>2013-04-20T18:28:18Z</time>
      </trkpt>
      <trkpt lat="59.9576144" lon="17.7872856">
        <ele>30.8995</ele>
        <time>2013-04-20T18:28:19Z</time>
      </trkpt>
      <trkpt lat="59.9575802" lon="17.7874468">
        <ele>30.8995</ele>
        <time>2013-04-20T18:28:20Z</time>
      </trkpt>
      <trkpt lat="59.9575419" lon="17.7876017">
        <ele>30.8995</ele>
        <time>2013-04-20T18:28:21Z</time>
      </trkpt>
      <trkpt lat="59.9574996" lon="17.7877588">
        <ele>30.8995</ele>
        <time>2013-04-20T18:28:22Z</time>
      </trkpt>
      <trkpt lat="59.9574626" lon="17.7879077">
        <ele>30.8995</ele>
        <time>2013-04-20T18:28:23Z</time>
      </trkpt>
      <trkpt lat="59.9574272" lon="17.7880549">
        <ele>30.8995</ele>
        <time>2013-04-20T18:28:24Z</time>
      </trkpt>
      <trkpt lat="59.9573765" lon="17.7882287">
        <ele>31.8607</ele>
        <time>2013-04-20T18:28:25Z</time>
      </trkpt>
      <trkpt lat="59.957324" lon="17.7883979">
        <ele>32.8223</ele>
        <time>2013-04-20T18:28:26Z</time>
      </trkpt>
      <trkpt lat="59.957247" lon="17.7885444">
        <ele>33.7834</ele>
        <time>2013-04-20T18:28:27Z</time>
      </trkpt>
      <trkpt lat="59.9571993" lon="17.7886707">
        <ele>33.7834</ele>
        <time>2013-04-20T18:28:28Z</time>
      </trkpt>
      <trkpt lat="59.9571543" lon="17.7887948">
        <ele>32.8223</ele>
        <time>2013-04-20T18:28:29Z</time>
      </trkpt>
      <trkpt lat="59.9570999" lon="17.7889165">
        <ele>32.3416</ele>
        <time>2013-04-20T18:28:30Z</time>
      </trkpt>
      <trkpt lat="59.9570365" lon="17.7890298">
        <ele>31.8607</ele>
        <time>2013-04-20T18:28:31Z</time>
      </trkpt>
      <trkpt lat="59.9569673" lon="17.7891347">
        <ele>31.3801</ele>
        <time>2013-04-20T18:28:32Z</time>
      </trkpt>
      <trkpt lat="59.9568961" lon="17.7892305">
        <ele>31.3801</ele>
        <time>2013-04-20T18:28:33Z</time>
      </trkpt>
      <trkpt lat="59.9568257" lon="17.7893222">
        <ele>30.8995</ele>
        <time>2013-04-20T18:28:34Z</time>
      </trkpt>
      <trkpt lat="59.956761" lon="17.7894188">
        <ele>30.4188</ele>
        <time>2013-04-20T18:28:35Z</time>
      </trkpt>
      <trkpt lat="59.9566967" lon="17.7895231">
        <ele>29.9381</ele>
        <time>2013-04-20T18:28:36Z</time>
      </trkpt>
      <trkpt lat="59.9566379" lon="17.7896358">
        <ele>30.4188</ele>
        <time>2013-04-20T18:28:37Z</time>
      </trkpt>
      <trkpt lat="59.9565922" lon="17.7897804">
        <ele>30.4188</ele>
        <time>2013-04-20T18:28:38Z</time>
      </trkpt>
      <trkpt lat="59.9565561" lon="17.7899405">
        <ele>30.4188</ele>
        <time>2013-04-20T18:28:39Z</time>
      </trkpt>
      <trkpt lat="59.9565372" lon="17.7900764">
        <ele>30.4188</ele>
        <time>2013-04-20T18:28:40Z</time>
      </trkpt>
      <trkpt lat="59.9565499" lon="17.7902266">
        <ele>29.9381</ele>
        <time>2013-04-20T18:28:41Z</time>
      </trkpt>
      <trkpt lat="59.9565846" lon="17.7903864">
        <ele>29.9381</ele>
        <time>2013-04-20T18:28:42Z</time>
      </trkpt>
      <trkpt lat="59.9566207" lon="17.7905392">
        <ele>30.4188</ele>
        <time>2013-04-20T18:28:43Z</time>
      </trkpt>
      <trkpt lat="59.9566538" lon="17.7906844">
        <ele>30.4188</ele>
        <time>2013-04-20T18:28:44Z</time>
      </trkpt>
      <trkpt lat="59.9566781" lon="17.7908073">
        <ele>30.4188</ele>
        <time>2013-04-20T18:28:45Z</time>
      </trkpt>
      <trkpt lat="59.9567041" lon="17.7909415">
        <ele>30.8995</ele>
        <time>2013-04-20T18:28:46Z</time>
      </trkpt>
      <trkpt lat="59.9567243" lon="17.791076">
        <ele>30.8995</ele>
        <time>2013-04-20T18:28:47Z</time>
      </trkpt>
      <trkpt lat="59.9567363" lon="17.7912116">
        <ele>30.8995</ele>
        <time>2013-04-20T18:28:48Z</time>
      </trkpt>
      <trkpt lat="59.9567382" lon="17.7913481">
        <ele>30.4188</ele>
        <time>2013-04-20T18:28:49Z</time>
      </trkpt>
      <trkpt lat="59.95673" lon="17.7914847">
        <ele>30.4188</ele>
        <time>2013-04-20T18:28:50Z</time>
      </trkpt>
      <trkpt lat="59.9567141" lon="17.7916205">
        <ele>29.9381</ele>
        <time>2013-04-20T18:28:51Z</time>
      </trkpt>
      <trkpt lat="59.9566939" lon="17.7917568">
        <ele>29.9381</ele>
        <time>2013-04-20T18:28:52Z</time>
      </trkpt>
      <trkpt lat="59.9566719" lon="17.7918941">
        <ele>29.9381</ele>
        <time>2013-04-20T18:28:53Z</time>
      </trkpt>
      <trkpt lat="59.9566485" lon="17.7920316">
        <ele>29.9381</ele>
        <time>2013-04-20T18:28:54Z</time>
      </trkpt>
      <trkpt lat="59.9566239" lon="17.7921696">
        <ele>29.9381</ele>
        <time>2013-04-20T18:28:55Z</time>
      </trkpt>
      <trkpt lat="59.9565993" lon="17.7923108">
        <ele>29.9381</ele>
        <time>2013-04-20T18:28:56Z</time>
      </trkpt>
      <trkpt lat="59.9565751" lon="17.7924529">
        <ele>29.9381</ele>
        <time>2013-04-20T18:28:57Z</time>
      </trkpt>
      <trkpt lat="59.9565507" lon="17.7925942">
        <ele>29.9381</ele>
        <time>2013-04-20T18:28:58Z</time>
      </trkpt>
      <trkpt lat="59.9565255" lon="17.7927357">
        <ele>29.4575</ele>
        <time>2013-04-20T18:28:59Z</time>
      </trkpt>
      <trkpt lat="59.9564952" lon="17.7928875">
        <ele>29.4575</ele>
        <time>2013-04-20T18:29:00Z</time>
      </trkpt>
      <trkpt lat="59.9564668" lon="17.7930352">
        <ele>29.4575</ele>
        <time>2013-04-20T18:29:01Z</time>
      </trkpt>
      <trkpt lat="59.9564398" lon="17.7931774">
        <ele>28.9769</ele>
        <time>2013-04-20T18:29:02Z</time>
      </trkpt>
      <trkpt lat="59.9564094" lon="17.7933278">
        <ele>28.4962</ele>
        <time>2013-04-20T18:29:03Z</time>
      </trkpt>
      <trkpt lat="59.9563774" lon="17.793477">
        <ele>27.5349</ele>
        <time>2013-04-20T18:29:04Z</time>
      </trkpt>
      <trkpt lat="59.9563432" lon="17.7936276">
        <ele>26.5736</ele>
        <time>2013-04-20T18:29:05Z</time>
      </trkpt>
      <trkpt lat="59.9563109" lon="17.7937707">
        <ele>26.5736</ele>
        <time>2013-04-20T18:29:06Z</time>
      </trkpt>
      <trkpt lat="59.9562756" lon="17.7939364">
        <ele>26.5736</ele>
        <time>2013-04-20T18:29:07Z</time>
      </trkpt>
      <trkpt lat="59.9562411" lon="17.7940956">
        <ele>26.0929</ele>
        <time>2013-04-20T18:29:08Z</time>
      </trkpt>
      <trkpt lat="59.9562079" lon="17.7942476">
        <ele>26.0929</ele>
        <time>2013-04-20T18:29:09Z</time>
      </trkpt>
      <trkpt lat="59.9561736" lon="17.7944021">
        <ele>26.0929</ele>
        <time>2013-04-20T18:29:10Z</time>
      </trkpt>
      <trkpt lat="59.9561398" lon="17.7945499">
        <ele>26.0929</ele>
        <time>2013-04-20T18:29:11Z</time>
      </trkpt>
      <trkpt lat="59.9561023" lon="17.794701">
        <ele>26.0929</ele>
        <time>2013-04-20T18:29:12Z</time>
      </trkpt>
      <trkpt lat="59.9560637" lon="17.7948528">
        <ele>26.5736</ele>
        <time>2013-04-20T18:29:13Z</time>
      </trkpt>
      <trkpt lat="59.9560256" lon="17.7950035">
        <ele>27.0543</ele>
        <time>2013-04-20T18:29:14Z</time>
      </trkpt>
      <trkpt lat="59.9559907" lon="17.7951481">
        <ele>27.5349</ele>
        <time>2013-04-20T18:29:15Z</time>
      </trkpt>
      <trkpt lat="59.9559567" lon="17.7952936">
        <ele>28.0155</ele>
        <time>2013-04-20T18:29:16Z</time>
      </trkpt>
      <trkpt lat="59.9559248" lon="17.7954382">
        <ele>28.0155</ele>
        <time>2013-04-20T18:29:17Z</time>
      </trkpt>
      <trkpt lat="59.9558935" lon="17.7955856">
        <ele>28.0155</ele>
        <time>2013-04-20T18:29:18Z</time>
      </trkpt>
      <trkpt lat="59.9558674" lon="17.7957329">
        <ele>28.0155</ele>
        <time>2013-04-20T18:29:19Z</time>
      </trkpt>
      <trkpt lat="59.9558428" lon="17.795882">
        <ele>28.0155</ele>
        <time>2013-04-20T18:29:20Z</time>
      </trkpt>
      <trkpt lat="59.9558161" lon="17.796037">
        <ele>27.5349</ele>
        <time>2013-04-20T18:29:21Z</time>
      </trkpt>
      <trkpt lat="59.9557877" lon="17.7961965">
        <ele>28.0155</ele>
        <time>2013-04-20T18:29:22Z</time>
      </trkpt>
      <trkpt lat="59.9557594" lon="17.7963549">
        <ele>28.0155</ele>
        <time>2013-04-20T18:29:23Z</time>
      </trkpt>
      <trkpt lat="59.9557298" lon="17.7965116">
        <ele>28.0155</ele>
        <time>2013-04-20T18:29:24Z</time>
      </trkpt>
      <trkpt lat="59.9556967" lon="17.796671">
        <ele>28.0155</ele>
        <time>2013-04-20T18:29:25Z</time>
      </trkpt>
      <trkpt lat="59.9556593" lon="17.7968332">
        <ele>28.4962</ele>
        <time>2013-04-20T18:29:26Z</time>
      </trkpt>
      <trkpt lat="59.955622" lon="17.7969874">
        <ele>28.4962</ele>
        <time>2013-04-20T18:29:27Z</time>
      </trkpt>
      <trkpt lat="59.9555837" lon="17.7971376">
        <ele>28.4962</ele>
        <time>2013-04-20T18:29:28Z</time>
      </trkpt>
      <trkpt lat="59.9555416" lon="17.797287">
        <ele>28.4962</ele>
        <time>2013-04-20T18:29:29Z</time>
      </trkpt>
      <trkpt lat="59.9555006" lon="17.7974289">
        <ele>28.9769</ele>
        <time>2013-04-20T18:29:30Z</time>
      </trkpt>
      <trkpt lat="59.9554593" lon="17.7975677">
        <ele>28.9769</ele>
        <time>2013-04-20T18:29:31Z</time>
      </trkpt>
      <trkpt lat="59.9554184" lon="17.7977019">
        <ele>29.4575</ele>
        <time>2013-04-20T18:29:32Z</time>
      </trkpt>
      <trkpt lat="59.9553792" lon="17.7978318">
        <ele>29.4575</ele>
        <time>2013-04-20T18:29:33Z</time>
      </trkpt>
      <trkpt lat="59.9553379" lon="17.7979661">
        <ele>29.4575</ele>
        <time>2013-04-20T18:29:34Z</time>
      </trkpt>
      <trkpt lat="59.9552977" lon="17.7980977">
        <ele>29.9381</ele>
        <time>2013-04-20T18:29:35Z</time>
      </trkpt>
      <trkpt lat="59.9552574" lon="17.7982268">
        <ele>30.4188</ele>
        <time>2013-04-20T18:29:36Z</time>
      </trkpt>
      <trkpt lat="59.9552149" lon="17.7983513">
        <ele>30.4188</ele>
        <time>2013-04-20T18:29:37Z</time>
      </trkpt>
      <trkpt lat="59.9551691" lon="17.7984721">
        <ele>30.8995</ele>
        <time>2013-04-20T18:29:38Z</time>
      </trkpt>
      <trkpt lat="59.9551217" lon="17.7985888">
        <ele>31.8607</ele>
        <time>2013-04-20T18:29:39Z</time>
      </trkpt>
      <trkpt lat="59.9550739" lon="17.7987013">
        <ele>32.3416</ele>
        <time>2013-04-20T18:29:40Z</time>
      </trkpt>
      <trkpt lat="59.9550256" lon="17.7988094">
        <ele>32.3416</ele>
        <time>2013-04-20T18:29:41Z</time>
      </trkpt>
      <trkpt lat="59.9549754" lon="17.7989118">
        <ele>32.8223</ele>
        <time>2013-04-20T18:29:42Z</time>
      </trkpt>
      <trkpt lat="59.9549242" lon="17.7990115">
        <ele>32.8223</ele>
        <time>2013-04-20T18:29:43Z</time>
      </trkpt>
      <trkpt lat="59.9548728" lon="17.7991118">
        <ele>32.8223</ele>
        <time>2013-04-20T18:29:44Z</time>
      </trkpt>
      <trkpt lat="59.954819" lon="17.7992135">
        <ele>32.8223</ele>
        <time>2013-04-20T18:29:45Z</time>
      </trkpt>
      <trkpt lat="59.9547631" lon="17.7993186">
        <ele>32.8223</ele>
        <time>2013-04-20T18:29:46Z</time>
      </trkpt>
      <trkpt lat="59.9547054" lon="17.7994296">
        <ele>32.8223</ele>
        <time>2013-04-20T18:29:47Z</time>
      </trkpt>
      <trkpt lat="59.9546492" lon="17.7995441">
        <ele>32.8223</ele>
        <time>2013-04-20T18:29:48Z</time>
      </trkpt>
      <trkpt lat="59.9545949" lon="17.7996621">
        <ele>33.3029</ele>
        <time>2013-04-20T18:29:49Z</time>
      </trkpt>
      <trkpt lat="59.9545382" lon="17.7997904">
        <ele>32.8223</ele>
        <time>2013-04-20T18:29:50Z</time>
      </trkpt>
      <trkpt lat="59.9544838" lon="17.7999178">
        <ele>33.3029</ele>
        <time>2013-04-20T18:29:51Z</time>
      </trkpt>
      <trkpt lat="59.9544307" lon="17.8000443">
        <ele>33.3029</ele>
        <time>2013-04-20T18:29:52Z</time>
      </trkpt>
      <trkpt lat="59.9543783" lon="17.8001685">
        <ele>33.3029</ele>
        <time>2013-04-20T18:29:53Z</time>
      </trkpt>
      <trkpt lat="59.9543299" lon="17.8002859">
        <ele>32.8223</ele>
        <time>2013-04-20T18:29:54Z</time>
      </trkpt>
      <trkpt lat="59.9542813" lon="17.8004026">
        <ele>32.8223</ele>
        <time>2013-04-20T18:29:55Z</time>
      </trkpt>
      <trkpt lat="59.9542299" lon="17.8005223">
        <ele>32.3416</ele>
        <time>2013-04-20T18:29:56Z</time>
      </trkpt>
      <trkpt lat="59.9541789" lon="17.8006436">
        <ele>32.3416</ele>
        <time>2013-04-20T18:29:57Z</time>
      </trkpt>
      <trkpt lat="59.9541295" lon="17.8007633">
        <ele>31.8607</ele>
        <time>2013-04-20T18:29:58Z</time>
      </trkpt>
      <trkpt lat="59.9540815" lon="17.8008768">
        <ele>31.8607</ele>
        <time>2013-04-20T18:29:59Z</time>
      </trkpt>
      <trkpt lat="59.9540348" lon="17.8009933">
        <ele>32.3416</ele>
        <time>2013-04-20T18:30:00Z</time>
      </trkpt>
      <trkpt lat="59.9539816" lon="17.8011139">
        <ele>32.8223</ele>
        <time>2013-04-20T18:30:01Z</time>
      </trkpt>
      <trkpt lat="59.9539316" lon="17.8012314">
        <ele>32.8223</ele>
        <time>2013-04-20T18:30:02Z</time>
      </trkpt>
      <trkpt lat="59.9538837" lon="17.8013521">
        <ele>32.8223</ele>
        <time>2013-04-20T18:30:03Z</time>
      </trkpt>
      <trkpt lat="59.9538385" lon="17.8014674">
        <ele>32.8223</ele>
        <time>2013-04-20T18:30:04Z</time>
      </trkpt>
      <trkpt lat="59.9537979" lon="17.8015742">
        <ele>32.8223</ele>
        <time>2013-04-20T18:30:05Z</time>
      </trkpt>
      <trkpt lat="59.9537618" lon="17.8016849">
        <ele>32.3416</ele>
        <time>2013-04-20T18:30:06Z</time>
      </trkpt>
      <trkpt lat="59.9537295" lon="17.8018046">
        <ele>32.3416</ele>
        <time>2013-04-20T18:30:07Z</time>
      </trkpt>
      <trkpt lat="59.9536951" lon="17.8019335">
        <ele>33.3029</ele>
        <time>2013-04-20T18:30:08Z</time>
      </trkpt>
      <trkpt lat="59.9536655" lon="17.802062">
        <ele>33.3029</ele>
        <time>2013-04-20T18:30:09Z</time>
      </trkpt>
      <trkpt lat="59.9536371" lon="17.8021888">
        <ele>32.8223</ele>
        <time>2013-04-20T18:30:10Z</time>
      </trkpt>
      <trkpt lat="59.9536099" lon="17.8023165">
        <ele>33.3029</ele>
        <time>2013-04-20T18:30:11Z</time>
      </trkpt>
      <trkpt lat="59.9535829" lon="17.8024389">
        <ele>33.7834</ele>
        <time>2013-04-20T18:30:12Z</time>
      </trkpt>
      <trkpt lat="59.9535563" lon="17.8025663">
        <ele>33.7834</ele>
        <time>2013-04-20T18:30:13Z</time>
      </trkpt>
      <trkpt lat="59.9535313" lon="17.8026826">
        <ele>33.3029</ele>
        <time>2013-04-20T18:30:14Z</time>
      </trkpt>
      <trkpt lat="59.9535065" lon="17.8028109">
        <ele>33.7834</ele>
        <time>2013-04-20T18:30:15Z</time>
      </trkpt>
      <trkpt lat="59.9534832" lon="17.8029326">
        <ele>34.2642</ele>
        <time>2013-04-20T18:30:16Z</time>
      </trkpt>
      <trkpt lat="59.9534568" lon="17.8030536">
        <ele>34.2642</ele>
        <time>2013-04-20T18:30:17Z</time>
      </trkpt>
      <trkpt lat="59.9534244" lon="17.8031733">
        <ele>34.2642</ele>
        <time>2013-04-20T18:30:18Z</time>
      </trkpt>
      <trkpt lat="59.9533841" lon="17.8032965">
        <ele>34.2642</ele>
        <time>2013-04-20T18:30:19Z</time>
      </trkpt>
      <trkpt lat="59.9533403" lon="17.8034157">
        <ele>34.2642</ele>
        <time>2013-04-20T18:30:20Z</time>
      </trkpt>
      <trkpt lat="59.9532926" lon="17.8035331">
        <ele>34.2642</ele>
        <time>2013-04-20T18:30:21Z</time>
      </trkpt>
      <trkpt lat="59.9532481" lon="17.8036414">
        <ele>34.7449</ele>
        <time>2013-04-20T18:30:22Z</time>
      </trkpt>
      <trkpt lat="59.9532019" lon="17.8037449">
        <ele>34.2642</ele>
        <time>2013-04-20T18:30:23Z</time>
      </trkpt>
      <trkpt lat="59.9531532" lon="17.80385">
        <ele>34.2642</ele>
        <time>2013-04-20T18:30:24Z</time>
      </trkpt>
      <trkpt lat="59.9531053" lon="17.8039568">
        <ele>34.2642</ele>
        <time>2013-04-20T18:30:25Z</time>
      </trkpt>
      <trkpt lat="59.9530574" lon="17.8040613">
        <ele>34.2642</ele>
        <time>2013-04-20T18:30:26Z</time>
      </trkpt>
      <trkpt lat="59.9530075" lon="17.8041742">
        <ele>33.7834</ele>
        <time>2013-04-20T18:30:27Z</time>
      </trkpt>
      <trkpt lat="59.9529589" lon="17.8042977">
        <ele>33.3029</ele>
        <time>2013-04-20T18:30:28Z</time>
      </trkpt>
      <trkpt lat="59.9529202" lon="17.8044349">
        <ele>32.3416</ele>
        <time>2013-04-20T18:30:29Z</time>
      </trkpt>
      <trkpt lat="59.9528821" lon="17.8045915">
        <ele>31.8607</ele>
        <time>2013-04-20T18:30:30Z</time>
      </trkpt>
      <trkpt lat="59.9528487" lon="17.8047498">
        <ele>31.8607</ele>
        <time>2013-04-20T18:30:31Z</time>
      </trkpt>
      <trkpt lat="59.9528216" lon="17.8049136">
        <ele>31.8607</ele>
        <time>2013-04-20T18:30:32Z</time>
      </trkpt>
      <trkpt lat="59.952795" lon="17.8050887">
        <ele>31.8607</ele>
        <time>2013-04-20T18:30:33Z</time>
      </trkpt>
      <trkpt lat="59.9527724" lon="17.8052596">
        <ele>31.8607</ele>
        <time>2013-04-20T18:30:34Z</time>
      </trkpt>
      <trkpt lat="59.9527512" lon="17.8054274">
        <ele>31.8607</ele>
        <time>2013-04-20T18:30:35Z</time>
      </trkpt>
      <trkpt lat="59.9527309" lon="17.8055953">
        <ele>31.8607</ele>
        <time>2013-04-20T18:30:36Z</time>
      </trkpt>
      <trkpt lat="59.9527102" lon="17.8057604">
        <ele>31.8607</ele>
        <time>2013-04-20T18:30:37Z</time>
      </trkpt>
      <trkpt lat="59.9526879" lon="17.805922">
        <ele>31.8607</ele>
        <time>2013-04-20T18:30:38Z</time>
      </trkpt>
      <trkpt lat="59.9526645" lon="17.8060831">
        <ele>31.8607</ele>
        <time>2013-04-20T18:30:39Z</time>
      </trkpt>
      <trkpt lat="59.9526366" lon="17.8062391">
        <ele>31.8607</ele>
        <time>2013-04-20T18:30:40Z</time>
      </trkpt>
      <trkpt lat="59.9526039" lon="17.8063885">
        <ele>31.8607</ele>
        <time>2013-04-20T18:30:41Z</time>
      </trkpt>
      <trkpt lat="59.9525703" lon="17.8065381">
        <ele>31.8607</ele>
        <time>2013-04-20T18:30:42Z</time>
      </trkpt>
      <trkpt lat="59.9525371" lon="17.8066925">
        <ele>31.3801</ele>
        <time>2013-04-20T18:30:43Z</time>
      </trkpt>
      <trkpt lat="59.9525018" lon="17.8068444">
        <ele>31.3801</ele>
        <time>2013-04-20T18:30:44Z</time>
      </trkpt>
      <trkpt lat="59.9524658" lon="17.8069966">
        <ele>30.8995</ele>
        <time>2013-04-20T18:30:45Z</time>
      </trkpt>
      <trkpt lat="59.9524279" lon="17.8071504">
        <ele>30.4188</ele>
        <time>2013-04-20T18:30:46Z</time>
      </trkpt>
      <trkpt lat="59.9523921" lon="17.8073015">
        <ele>29.9381</ele>
        <time>2013-04-20T18:30:47Z</time>
      </trkpt>
      <trkpt lat="59.9523539" lon="17.8074566">
        <ele>29.4575</ele>
        <time>2013-04-20T18:30:48Z</time>
      </trkpt>
      <trkpt lat="59.9523124" lon="17.8076191">
        <ele>29.4575</ele>
        <time>2013-04-20T18:30:49Z</time>
      </trkpt>
      <trkpt lat="59.9522677" lon="17.8077834">
        <ele>29.4575</ele>
        <time>2013-04-20T18:30:50Z</time>
      </trkpt>
      <trkpt lat="59.9522229" lon="17.8079485">
        <ele>29.4575</ele>
        <time>2013-04-20T18:30:51Z</time>
      </trkpt>
      <trkpt lat="59.9521798" lon="17.8081143">
        <ele>29.4575</ele>
        <time>2013-04-20T18:30:52Z</time>
      </trkpt>
      <trkpt lat="59.9521367" lon="17.8082807">
        <ele>29.4575</ele>
        <time>2013-04-20T18:30:53Z</time>
      </trkpt>
      <trkpt lat="59.9520932" lon="17.8084474">
        <ele>28.9769</ele>
        <time>2013-04-20T18:30:54Z</time>
      </trkpt>
      <trkpt lat="59.9520491" lon="17.8086148">
        <ele>28.9769</ele>
        <time>2013-04-20T18:30:55Z</time>
      </trkpt>
      <trkpt lat="59.9520048" lon="17.8087841">
        <ele>28.9769</ele>
        <time>2013-04-20T18:30:56Z</time>
      </trkpt>
      <trkpt lat="59.9519601" lon="17.8089532">
        <ele>28.9769</ele>
        <time>2013-04-20T18:30:57Z</time>
      </trkpt>
      <trkpt lat="59.951915" lon="17.8091224">
        <ele>28.9769</ele>
        <time>2013-04-20T18:30:58Z</time>
      </trkpt>
      <trkpt lat="59.9518705" lon="17.8092909">
        <ele>28.9769</ele>
        <time>2013-04-20T18:30:59Z</time>
      </trkpt>
      <trkpt lat="59.9518261" lon="17.8094575">
        <ele>28.9769</ele>
        <time>2013-04-20T18:31:00Z</time>
      </trkpt>
      <trkpt lat="59.9517821" lon="17.8096229">
        <ele>28.9769</ele>
        <time>2013-04-20T18:31:01Z</time>
      </trkpt>
      <trkpt lat="59.9517388" lon="17.809787">
        <ele>28.9769</ele>
        <time>2013-04-20T18:31:02Z</time>
      </trkpt>
      <trkpt lat="59.9516953" lon="17.8099513">
        <ele>28.9769</ele>
        <time>2013-04-20T18:31:03Z</time>
      </trkpt>
      <trkpt lat="59.9516535" lon="17.8101139">
        <ele>28.4962</ele>
        <time>2013-04-20T18:31:04Z</time>
      </trkpt>
      <trkpt lat="59.9516136" lon="17.810277">
        <ele>28.4962</ele>
        <time>2013-04-20T18:31:05Z</time>
      </trkpt>
      <trkpt lat="59.9515756" lon="17.8104418">
        <ele>28.4962</ele>
        <time>2013-04-20T18:31:06Z</time>
      </trkpt>
      <trkpt lat="59.95154" lon="17.8106071">
        <ele>28.4962</ele>
        <time>2013-04-20T18:31:07Z</time>
      </trkpt>
      <trkpt lat="59.9515063" lon="17.8107739">
        <ele>28.4962</ele>
        <time>2013-04-20T18:31:08Z</time>
      </trkpt>
      <trkpt lat="59.9514758" lon="17.8109437">
        <ele>28.4962</ele>
        <time>2013-04-20T18:31:09Z</time>
      </trkpt>
      <trkpt lat="59.9514484" lon="17.8111152">
        <ele>28.4962</ele>
        <time>2013-04-20T18:31:10Z</time>
      </trkpt>
      <trkpt lat="59.951423" lon="17.8112852">
        <ele>28.4962</ele>
        <time>2013-04-20T18:31:11Z</time>
      </trkpt>
      <trkpt lat="59.9513991" lon="17.8114536">
        <ele>28.4962</ele>
        <time>2013-04-20T18:31:12Z</time>
      </trkpt>
      <trkpt lat="59.9513775" lon="17.8116207">
        <ele>28.4962</ele>
        <time>2013-04-20T18:31:13Z</time>
      </trkpt>
      <trkpt lat="59.9513594" lon="17.8117896">
        <ele>28.4962</ele>
        <time>2013-04-20T18:31:14Z</time>
      </trkpt>
      <trkpt lat="59.9513458" lon="17.8119618">
        <ele>28.0155</ele>
        <time>2013-04-20T18:31:15Z</time>
      </trkpt>
      <trkpt lat="59.9513361" lon="17.8121364">
        <ele>28.0155</ele>
        <time>2013-04-20T18:31:16Z</time>
      </trkpt>
      <trkpt lat="59.9513298" lon="17.812313">
        <ele>28.0155</ele>
        <time>2013-04-20T18:31:17Z</time>
      </trkpt>
      <trkpt lat="59.9513251" lon="17.812492">
        <ele>28.0155</ele>
        <time>2013-04-20T18:31:18Z</time>
      </trkpt>
      <trkpt lat="59.951324" lon="17.8126708">
        <ele>27.5349</ele>
        <time>2013-04-20T18:31:19Z</time>
      </trkpt>
      <trkpt lat="59.9513219" lon="17.8128515">
        <ele>27.5349</ele>
        <time>2013-04-20T18:31:20Z</time>
      </trkpt>
      <trkpt lat="59.9513189" lon="17.8130323">
        <ele>27.5349</ele>
        <time>2013-04-20T18:31:21Z</time>
      </trkpt>
      <trkpt lat="59.9513159" lon="17.8132133">
        <ele>28.0155</ele>
        <time>2013-04-20T18:31:22Z</time>
      </trkpt>
      <trkpt lat="59.9513145" lon="17.8133929">
        <ele>28.0155</ele>
        <time>2013-04-20T18:31:23Z</time>
      </trkpt>
      <trkpt lat="59.9513135" lon="17.8135711">
        <ele>28.0155</ele>
        <time>2013-04-20T18:31:24Z</time>
      </trkpt>
      <trkpt lat="59.9513132" lon="17.8137482">
        <ele>27.5349</ele>
        <time>2013-04-20T18:31:25Z</time>
      </trkpt>
      <trkpt lat="59.9513123" lon="17.8139269">
        <ele>27.5349</ele>
        <time>2013-04-20T18:31:26Z</time>
      </trkpt>
      <trkpt lat="59.9513121" lon="17.8141057">
        <ele>27.5349</ele>
        <time>2013-04-20T18:31:27Z</time>
      </trkpt>
      <trkpt lat="59.9513111" lon="17.8142849">
        <ele>27.5349</ele>
        <time>2013-04-20T18:31:28Z</time>
      </trkpt>
      <trkpt lat="59.95131" lon="17.8144645">
        <ele>27.5349</ele>
        <time>2013-04-20T18:31:29Z</time>
      </trkpt>
      <trkpt lat="59.9513085" lon="17.8146441">
        <ele>27.5349</ele>
        <time>2013-04-20T18:31:30Z</time>
      </trkpt>
      <trkpt lat="59.9513064" lon="17.8148227">
        <ele>28.0155</ele>
        <time>2013-04-20T18:31:31Z</time>
      </trkpt>
      <trkpt lat="59.9513035" lon="17.815001">
        <ele>28.0155</ele>
        <time>2013-04-20T18:31:32Z</time>
      </trkpt>
      <trkpt lat="59.9512997" lon="17.8151783">
        <ele>28.0155</ele>
        <time>2013-04-20T18:31:33Z</time>
      </trkpt>
      <trkpt lat="59.9512947" lon="17.8153535">
        <ele>28.0155</ele>
        <time>2013-04-20T18:31:34Z</time>
      </trkpt>
      <trkpt lat="59.9512888" lon="17.8155292">
        <ele>28.0155</ele>
        <time>2013-04-20T18:31:35Z</time>
      </trkpt>
      <trkpt lat="59.9512806" lon="17.8157054">
        <ele>28.0155</ele>
        <time>2013-04-20T18:31:36Z</time>
      </trkpt>
      <trkpt lat="59.9512707" lon="17.8158814">
        <ele>28.0155</ele>
        <time>2013-04-20T18:31:37Z</time>
      </trkpt>
      <trkpt lat="59.9512587" lon="17.8160574">
        <ele>28.0155</ele>
        <time>2013-04-20T18:31:38Z</time>
      </trkpt>
      <trkpt lat="59.9512454" lon="17.816232">
        <ele>28.0155</ele>
        <time>2013-04-20T18:31:39Z</time>
      </trkpt>
      <trkpt lat="59.9512304" lon="17.8164068">
        <ele>28.4962</ele>
        <time>2013-04-20T18:31:40Z</time>
      </trkpt>
      <trkpt lat="59.9512151" lon="17.8165808">
        <ele>28.4962</ele>
        <time>2013-04-20T18:31:41Z</time>
      </trkpt>
      <trkpt lat="59.9511988" lon="17.8167533">
        <ele>28.4962</ele>
        <time>2013-04-20T18:31:42Z</time>
      </trkpt>
      <trkpt lat="59.9511819" lon="17.8169247">
        <ele>28.4962</ele>
        <time>2013-04-20T18:31:43Z</time>
      </trkpt>
      <trkpt lat="59.9511648" lon="17.8170952">
        <ele>28.9769</ele>
        <time>2013-04-20T18:31:44Z</time>
      </trkpt>
      <trkpt lat="59.9511479" lon="17.8172641">
        <ele>28.9769</ele>
        <time>2013-04-20T18:31:45Z</time>
      </trkpt>
      <trkpt lat="59.9511307" lon="17.817431">
        <ele>28.9769</ele>
        <time>2013-04-20T18:31:46Z</time>
      </trkpt>
      <trkpt lat="59.9511143" lon="17.8175969">
        <ele>28.9769</ele>
        <time>2013-04-20T18:31:47Z</time>
      </trkpt>
      <trkpt lat="59.951098" lon="17.8177609">
        <ele>28.9769</ele>
        <time>2013-04-20T18:31:48Z</time>
      </trkpt>
      <trkpt lat="59.9510811" lon="17.817924">
        <ele>28.9769</ele>
        <time>2013-04-20T18:31:49Z</time>
      </trkpt>
      <trkpt lat="59.9510641" lon="17.8180867">
        <ele>29.4575</ele>
        <time>2013-04-20T18:31:50Z</time>
      </trkpt>
      <trkpt lat="59.951048" lon="17.8182478">
        <ele>29.4575</ele>
        <time>2013-04-20T18:31:51Z</time>
      </trkpt>
      <trkpt lat="59.951031" lon="17.8184058">
        <ele>29.4575</ele>
        <time>2013-04-20T18:31:52Z</time>
      </trkpt>
      <trkpt lat="59.9510151" lon="17.8185618">
        <ele>29.4575</ele>
        <time>2013-04-20T18:31:53Z</time>
      </trkpt>
      <trkpt lat="59.9510003" lon="17.8187181">
        <ele>28.9769</ele>
        <time>2013-04-20T18:31:54Z</time>
      </trkpt>
      <trkpt lat="59.9509863" lon="17.8188775">
        <ele>28.9769</ele>
        <time>2013-04-20T18:31:55Z</time>
      </trkpt>
      <trkpt lat="59.9509742" lon="17.8190401">
        <ele>28.9769</ele>
        <time>2013-04-20T18:31:56Z</time>
      </trkpt>
      <trkpt lat="59.9509655" lon="17.8192054">
        <ele>28.4962</ele>
        <time>2013-04-20T18:31:57Z</time>
      </trkpt>
      <trkpt lat="59.9509597" lon="17.8193739">
        <ele>28.4962</ele>
        <time>2013-04-20T18:31:58Z</time>
      </trkpt>
      <trkpt lat="59.9509562" lon="17.819545">
        <ele>28.4962</ele>
        <time>2013-04-20T18:31:59Z</time>
      </trkpt>
      <trkpt lat="59.9509537" lon="17.8197185">
        <ele>28.4962</ele>
        <time>2013-04-20T18:32:00Z</time>
      </trkpt>
      <trkpt lat="59.9509505" lon="17.8198931">
        <ele>28.0155</ele>
        <time>2013-04-20T18:32:01Z</time>
      </trkpt>
      <trkpt lat="59.9509458" lon="17.820069">
        <ele>28.0155</ele>
        <time>2013-04-20T18:32:02Z</time>
      </trkpt>
      <trkpt lat="59.9509401" lon="17.820245">
        <ele>28.0155</ele>
        <time>2013-04-20T18:32:03Z</time>
      </trkpt>
      <trkpt lat="59.9509318" lon="17.8204223">
        <ele>28.0155</ele>
        <time>2013-04-20T18:32:04Z</time>
      </trkpt>
      <trkpt lat="59.950922" lon="17.8205999">
        <ele>28.0155</ele>
        <time>2013-04-20T18:32:05Z</time>
      </trkpt>
      <trkpt lat="59.9509108" lon="17.8207772">
        <ele>27.5349</ele>
        <time>2013-04-20T18:32:06Z</time>
      </trkpt>
      <trkpt lat="59.9508984" lon="17.8209545">
        <ele>27.5349</ele>
        <time>2013-04-20T18:32:07Z</time>
      </trkpt>
      <trkpt lat="59.9508843" lon="17.821131">
        <ele>27.5349</ele>
        <time>2013-04-20T18:32:08Z</time>
      </trkpt>
      <trkpt lat="59.9508683" lon="17.8213064">
        <ele>27.5349</ele>
        <time>2013-04-20T18:32:09Z</time>
      </trkpt>
      <trkpt lat="59.9508516" lon="17.8214812">
        <ele>28.0155</ele>
        <time>2013-04-20T18:32:10Z</time>
      </trkpt>
      <trkpt lat="59.9508343" lon="17.8216548">
        <ele>27.5349</ele>
        <time>2013-04-20T18:32:11Z</time>
      </trkpt>
      <trkpt lat="59.9508167" lon="17.8218271">
        <ele>27.5349</ele>
        <time>2013-04-20T18:32:12Z</time>
      </trkpt>
      <trkpt lat="59.9507983" lon="17.8219992">
        <ele>27.5349</ele>
        <time>2013-04-20T18:32:13Z</time>
      </trkpt>
      <trkpt lat="59.9507791" lon="17.8221707">
        <ele>27.5349</ele>
        <time>2013-04-20T18:32:14Z</time>
      </trkpt>
      <trkpt lat="59.9507592" lon="17.8223416">
        <ele>27.5349</ele>
        <time>2013-04-20T18:32:15Z</time>
      </trkpt>
      <trkpt lat="59.9507388" lon="17.8225118">
        <ele>27.5349</ele>
        <time>2013-04-20T18:32:16Z</time>
      </trkpt>
      <trkpt lat="59.9507199" lon="17.8226817">
        <ele>27.5349</ele>
        <time>2013-04-20T18:32:17Z</time>
      </trkpt>
      <trkpt lat="59.9507015" lon="17.8228513">
        <ele>27.5349</ele>
        <time>2013-04-20T18:32:18Z</time>
      </trkpt>
      <trkpt lat="59.9506846" lon="17.8230201">
        <ele>27.5349</ele>
        <time>2013-04-20T18:32:19Z</time>
      </trkpt>
      <trkpt lat="59.9506701" lon="17.8231884">
        <ele>27.0543</ele>
        <time>2013-04-20T18:32:20Z</time>
      </trkpt>
      <trkpt lat="59.9506558" lon="17.8233562">
        <ele>27.0543</ele>
        <time>2013-04-20T18:32:21Z</time>
      </trkpt>
      <trkpt lat="59.9506366" lon="17.8235194">
        <ele>27.0543</ele>
        <time>2013-04-20T18:32:22Z</time>
      </trkpt>
      <trkpt lat="59.9506171" lon="17.8236861">
        <ele>26.5736</ele>
        <time>2013-04-20T18:32:23Z</time>
      </trkpt>
      <trkpt lat="59.9505938" lon="17.8238496">
        <ele>26.5736</ele>
        <time>2013-04-20T18:32:24Z</time>
      </trkpt>
      <trkpt lat="59.9505662" lon="17.8240118">
        <ele>26.5736</ele>
        <time>2013-04-20T18:32:25Z</time>
      </trkpt>
      <trkpt lat="59.9505344" lon="17.8241726">
        <ele>26.0929</ele>
        <time>2013-04-20T18:32:26Z</time>
      </trkpt>
      <trkpt lat="59.9504999" lon="17.8243319">
        <ele>26.0929</ele>
        <time>2013-04-20T18:32:27Z</time>
      </trkpt>
      <trkpt lat="59.9504647" lon="17.8244913">
        <ele>26.0929</ele>
        <time>2013-04-20T18:32:28Z</time>
      </trkpt>
      <trkpt lat="59.9504289" lon="17.8246507">
        <ele>26.0929</ele>
        <time>2013-04-20T18:32:29Z</time>
      </trkpt>
      <trkpt lat="59.9503936" lon="17.8248089">
        <ele>25.6123</ele>
        <time>2013-04-20T18:32:30Z</time>
      </trkpt>
      <trkpt lat="59.9503583" lon="17.8249668">
        <ele>25.6123</ele>
        <time>2013-04-20T18:32:31Z</time>
      </trkpt>
      <trkpt lat="59.9503237" lon="17.8251237">
        <ele>25.6123</ele>
        <time>2013-04-20T18:32:32Z</time>
      </trkpt>
      <trkpt lat="59.9502884" lon="17.8252791">
        <ele>25.6123</ele>
        <time>2013-04-20T18:32:33Z</time>
      </trkpt>
      <trkpt lat="59.9502518" lon="17.8254337">
        <ele>25.1317</ele>
        <time>2013-04-20T18:32:34Z</time>
      </trkpt>
      <trkpt lat="59.9502153" lon="17.8255885">
        <ele>25.1317</ele>
        <time>2013-04-20T18:32:35Z</time>
      </trkpt>
      <trkpt lat="59.9501793" lon="17.8257423">
        <ele>25.1317</ele>
        <time>2013-04-20T18:32:36Z</time>
      </trkpt>
      <trkpt lat="59.9501446" lon="17.8258957">
        <ele>25.1317</ele>
        <time>2013-04-20T18:32:37Z</time>
      </trkpt>
      <trkpt lat="59.9501109" lon="17.8260511">
        <ele>25.1317</ele>
        <time>2013-04-20T18:32:38Z</time>
      </trkpt>
      <trkpt lat="59.9500783" lon="17.8262085">
        <ele>24.651</ele>
        <time>2013-04-20T18:32:39Z</time>
      </trkpt>
      <trkpt lat="59.9500513" lon="17.8263702">
        <ele>24.651</ele>
        <time>2013-04-20T18:32:40Z</time>
      </trkpt>
      <trkpt lat="59.9500302" lon="17.826535">
        <ele>24.651</ele>
        <time>2013-04-20T18:32:41Z</time>
      </trkpt>
      <trkpt lat="59.9500138" lon="17.8267007">
        <ele>24.1703</ele>
        <time>2013-04-20T18:32:42Z</time>
      </trkpt>
      <trkpt lat="59.9500015" lon="17.8268668">
        <ele>24.1703</ele>
        <time>2013-04-20T18:32:43Z</time>
      </trkpt>
      <trkpt lat="59.9499931" lon="17.8270337">
        <ele>24.1703</ele>
        <time>2013-04-20T18:32:44Z</time>
      </trkpt>
      <trkpt lat="59.9499871" lon="17.827201">
        <ele>24.1703</ele>
        <time>2013-04-20T18:32:45Z</time>
      </trkpt>
      <trkpt lat="59.9499845" lon="17.8273669">
        <ele>24.1703</ele>
        <time>2013-04-20T18:32:46Z</time>
      </trkpt>
      <trkpt lat="59.949984" lon="17.8275332">
        <ele>24.1703</ele>
        <time>2013-04-20T18:32:47Z</time>
      </trkpt>
      <trkpt lat="59.9499839" lon="17.8276999">
        <ele>24.1703</ele>
        <time>2013-04-20T18:32:48Z</time>
      </trkpt>
      <trkpt lat="59.9499835" lon="17.8278649">
        <ele>23.6896</ele>
        <time>2013-04-20T18:32:49Z</time>
      </trkpt>
      <trkpt lat="59.949985" lon="17.8280294">
        <ele>23.6896</ele>
        <time>2013-04-20T18:32:50Z</time>
      </trkpt>
      <trkpt lat="59.9499881" lon="17.8281929">
        <ele>23.6896</ele>
        <time>2013-04-20T18:32:51Z</time>
      </trkpt>
      <trkpt lat="59.9499922" lon="17.8283541">
        <ele>23.6896</ele>
        <time>2013-04-20T18:32:52Z</time>
      </trkpt>
      <trkpt lat="59.949996" lon="17.8285137">
        <ele>23.6896</ele>
        <time>2013-04-20T18:32:53Z</time>
      </trkpt>
      <trkpt lat="59.95" lon="17.8286712">
        <ele>23.6896</ele>
        <time>2013-04-20T18:32:54Z</time>
      </trkpt>
      <trkpt lat="59.9500042" lon="17.8288276">
        <ele>24.1703</ele>
        <time>2013-04-20T18:32:55Z</time>
      </trkpt>
      <trkpt lat="59.9500052" lon="17.828983">
        <ele>23.6896</ele>
        <time>2013-04-20T18:32:56Z</time>
      </trkpt>
      <trkpt lat="59.9500016" lon="17.8291389">
        <ele>23.6896</ele>
        <time>2013-04-20T18:32:57Z</time>
      </trkpt>
      <trkpt lat="59.9499923" lon="17.8292928">
        <ele>23.6896</ele>
        <time>2013-04-20T18:32:58Z</time>
      </trkpt>
      <trkpt lat="59.9499809" lon="17.8294421">
        <ele>23.6896</ele>
        <time>2013-04-20T18:32:59Z</time>
      </trkpt>
      <trkpt lat="59.9499642" lon="17.8295828">
        <ele>23.6896</ele>
        <time>2013-04-20T18:33:00Z</time>
      </trkpt>
      <trkpt lat="59.9499311" lon="17.8296993">
        <ele>24.1703</ele>
        <time>2013-04-20T18:33:01Z</time>
      </trkpt>
      <trkpt lat="59.9498691" lon="17.8297439">
        <ele>24.1703</ele>
        <time>2013-04-20T18:33:02Z</time>
      </trkpt>
      <trkpt lat="59.9497948" lon="17.8297242">
        <ele>23.6896</ele>
        <time>2013-04-20T18:33:03Z</time>
      </trkpt>
      <trkpt lat="59.9497321" lon="17.829645">
        <ele>24.1703</ele>
        <time>2013-04-20T18:33:04Z</time>
      </trkpt>
      <trkpt lat="59.949675" lon="17.8295591">
        <ele>23.6896</ele>
        <time>2013-04-20T18:33:05Z</time>
      </trkpt>
      <trkpt lat="59.9496244" lon="17.8294625">
        <ele>23.6896</ele>
        <time>2013-04-20T18:33:06Z</time>
      </trkpt>
      <trkpt lat="59.949572" lon="17.8293685">
        <ele>23.6896</ele>
        <time>2013-04-20T18:33:07Z</time>
      </trkpt>
      <trkpt lat="59.9495171" lon="17.8292771">
        <ele>23.6896</ele>
        <time>2013-04-20T18:33:08Z</time>
      </trkpt>
      <trkpt lat="59.9494592" lon="17.8291902">
        <ele>23.6896</ele>
        <time>2013-04-20T18:33:09Z</time>
      </trkpt>
      <trkpt lat="59.9493981" lon="17.8291107">
        <ele>23.6896</ele>
        <time>2013-04-20T18:33:10Z</time>
      </trkpt>
      <trkpt lat="59.9493318" lon="17.8290326">
        <ele>23.6896</ele>
        <time>2013-04-20T18:33:11Z</time>
      </trkpt>
      <trkpt lat="59.949265" lon="17.8289566">
        <ele>23.6896</ele>
        <time>2013-04-20T18:33:12Z</time>
      </trkpt>
      <trkpt lat="59.9491976" lon="17.8288809">
        <ele>23.6896</ele>
        <time>2013-04-20T18:33:13Z</time>
      </trkpt>
      <trkpt lat="59.9491302" lon="17.8288034">
        <ele>23.6896</ele>
        <time>2013-04-20T18:33:14Z</time>
      </trkpt>
      <trkpt lat="59.9490623" lon="17.8287253">
        <ele>23.6896</ele>
        <time>2013-04-20T18:33:15Z</time>
      </trkpt>
      <trkpt lat="59.9489936" lon="17.8286478">
        <ele>23.6896</ele>
        <time>2013-04-20T18:33:16Z</time>
      </trkpt>
      <trkpt lat="59.9489251" lon="17.8285717">
        <ele>23.6896</ele>
        <time>2013-04-20T18:33:17Z</time>
      </trkpt>
      <trkpt lat="59.9488576" lon="17.8284975">
        <ele>24.1703</ele>
        <time>2013-04-20T18:33:18Z</time>
      </trkpt>
      <trkpt lat="59.948791" lon="17.8284244">
        <ele>24.1703</ele>
        <time>2013-04-20T18:33:19Z</time>
      </trkpt>
      <trkpt lat="59.9487257" lon="17.8283522">
        <ele>24.651</ele>
        <time>2013-04-20T18:33:20Z</time>
      </trkpt>
      <trkpt lat="59.9486614" lon="17.8282821">
        <ele>24.651</ele>
        <time>2013-04-20T18:33:21Z</time>
      </trkpt>
      <trkpt lat="59.9485978" lon="17.8282144">
        <ele>24.651</ele>
        <time>2013-04-20T18:33:22Z</time>
      </trkpt>
      <trkpt lat="59.9485354" lon="17.8281483">
        <ele>25.1317</ele>
        <time>2013-04-20T18:33:23Z</time>
      </trkpt>
      <trkpt lat="59.9484735" lon="17.8280853">
        <ele>25.1317</ele>
        <time>2013-04-20T18:33:24Z</time>
      </trkpt>
      <trkpt lat="59.9484123" lon="17.8280229">
        <ele>25.1317</ele>
        <time>2013-04-20T18:33:25Z</time>
      </trkpt>
      <trkpt lat="59.9483521" lon="17.8279584">
        <ele>25.6123</ele>
        <time>2013-04-20T18:33:26Z</time>
      </trkpt>
      <trkpt lat="59.9482921" lon="17.8278936">
        <ele>25.6123</ele>
        <time>2013-04-20T18:33:27Z</time>
      </trkpt>
      <trkpt lat="59.9482314" lon="17.8278269">
        <ele>25.6123</ele>
        <time>2013-04-20T18:33:28Z</time>
      </trkpt>
      <trkpt lat="59.9481697" lon="17.82776">
        <ele>26.0929</ele>
        <time>2013-04-20T18:33:29Z</time>
      </trkpt>
      <trkpt lat="59.9481077" lon="17.827694">
        <ele>26.0929</ele>
        <time>2013-04-20T18:33:30Z</time>
      </trkpt>
      <trkpt lat="59.9480456" lon="17.8276336">
        <ele>26.0929</ele>
        <time>2013-04-20T18:33:31Z</time>
      </trkpt>
      <trkpt lat="59.9479829" lon="17.8275717">
        <ele>26.0929</ele>
        <time>2013-04-20T18:33:32Z</time>
      </trkpt>
      <trkpt lat="59.9479192" lon="17.8275056">
        <ele>26.5736</ele>
        <time>2013-04-20T18:33:33Z</time>
      </trkpt>
      <trkpt lat="59.9478548" lon="17.8274379">
        <ele>26.5736</ele>
        <time>2013-04-20T18:33:34Z</time>
      </trkpt>
      <trkpt lat="59.9477898" lon="17.8273699">
        <ele>26.5736</ele>
        <time>2013-04-20T18:33:35Z</time>
      </trkpt>
      <trkpt lat="59.9477244" lon="17.8273027">
        <ele>26.5736</ele>
        <time>2013-04-20T18:33:36Z</time>
      </trkpt>
      <trkpt lat="59.9476584" lon="17.8272363">
        <ele>26.5736</ele>
        <time>2013-04-20T18:33:37Z</time>
      </trkpt>
      <trkpt lat="59.9475927" lon="17.827169">
        <ele>27.0543</ele>
        <time>2013-04-20T18:33:38Z</time>
      </trkpt>
      <trkpt lat="59.9475275" lon="17.8271014">
        <ele>27.0543</ele>
        <time>2013-04-20T18:33:39Z</time>
      </trkpt>
      <trkpt lat="59.9474624" lon="17.8270337">
        <ele>27.0543</ele>
        <time>2013-04-20T18:33:40Z</time>
      </trkpt>
      <trkpt lat="59.947397" lon="17.8269664">
        <ele>27.5349</ele>
        <time>2013-04-20T18:33:41Z</time>
      </trkpt>
      <trkpt lat="59.9473312" lon="17.826899">
        <ele>27.5349</ele>
        <time>2013-04-20T18:33:42Z</time>
      </trkpt>
      <trkpt lat="59.9472659" lon="17.8268312">
        <ele>27.5349</ele>
        <time>2013-04-20T18:33:43Z</time>
      </trkpt>
      <trkpt lat="59.9472002" lon="17.8267638">
        <ele>27.5349</ele>
        <time>2013-04-20T18:33:44Z</time>
      </trkpt>
      <trkpt lat="59.9471348" lon="17.826697">
        <ele>28.0155</ele>
        <time>2013-04-20T18:33:45Z</time>
      </trkpt>
      <trkpt lat="59.94707" lon="17.826629">
        <ele>28.0155</ele>
        <time>2013-04-20T18:33:46Z</time>
      </trkpt>
      <trkpt lat="59.9470054" lon="17.8265608">
        <ele>28.0155</ele>
        <time>2013-04-20T18:33:47Z</time>
      </trkpt>
      <trkpt lat="59.9469411" lon="17.8264935">
        <ele>28.4962</ele>
        <time>2013-04-20T18:33:48Z</time>
      </trkpt>
      <trkpt lat="59.946877" lon="17.8264272">
        <ele>28.4962</ele>
        <time>2013-04-20T18:33:49Z</time>
      </trkpt>
      <trkpt lat="59.9468131" lon="17.8263608">
        <ele>28.4962</ele>
        <time>2013-04-20T18:33:50Z</time>
      </trkpt>
      <trkpt lat="59.9467496" lon="17.8262938">
        <ele>28.9769</ele>
        <time>2013-04-20T18:33:51Z</time>
      </trkpt>
      <trkpt lat="59.9466868" lon="17.8262277">
        <ele>28.9769</ele>
        <time>2013-04-20T18:33:52Z</time>
      </trkpt>
      <trkpt lat="59.9466246" lon="17.8261628">
        <ele>29.4575</ele>
        <time>2013-04-20T18:33:53Z</time>
      </trkpt>
      <trkpt lat="59.9465626" lon="17.826099">
        <ele>29.4575</ele>
        <time>2013-04-20T18:33:54Z</time>
      </trkpt>
      <trkpt lat="59.9465012" lon="17.826036">
        <ele>29.4575</ele>
        <time>2013-04-20T18:33:55Z</time>
      </trkpt>
      <trkpt lat="59.9464401" lon="17.8259733">
        <ele>29.9381</ele>
        <time>2013-04-20T18:33:56Z</time>
      </trkpt>
      <trkpt lat="59.9463797" lon="17.8259108">
        <ele>29.9381</ele>
        <time>2013-04-20T18:33:57Z</time>
      </trkpt>
      <trkpt lat="59.9463206" lon="17.8258495">
        <ele>29.9381</ele>
        <time>2013-04-20T18:33:58Z</time>
      </trkpt>
      <trkpt lat="59.9462625" lon="17.8257896">
        <ele>30.4188</ele>
        <time>2013-04-20T18:33:59Z</time>
      </trkpt>
      <trkpt lat="59.9462051" lon="17.825731">
        <ele>30.4188</ele>
        <time>2013-04-20T18:34:00Z</time>
      </trkpt>
      <trkpt lat="59.9461481" lon="17.8256714">
        <ele>30.4188</ele>
        <time>2013-04-20T18:34:01Z</time>
      </trkpt>
      <trkpt lat="59.9460911" lon="17.8256113">
        <ele>30.8995</ele>
        <time>2013-04-20T18:34:02Z</time>
      </trkpt>
      <trkpt lat="59.9460345" lon="17.8255523">
        <ele>30.8995</ele>
        <time>2013-04-20T18:34:03Z</time>
      </trkpt>
      <trkpt lat="59.9459783" lon="17.8254941">
        <ele>30.8995</ele>
        <time>2013-04-20T18:34:04Z</time>
      </trkpt>
      <trkpt lat="59.9459228" lon="17.825437">
        <ele>31.3801</ele>
        <time>2013-04-20T18:34:05Z</time>
      </trkpt>
      <trkpt lat="59.9458679" lon="17.8253805">
        <ele>31.3801</ele>
        <time>2013-04-20T18:34:06Z</time>
      </trkpt>
      <trkpt lat="59.9458129" lon="17.8253251">
        <ele>31.3801</ele>
        <time>2013-04-20T18:34:07Z</time>
      </trkpt>
      <trkpt lat="59.9457579" lon="17.8252689">
        <ele>31.8607</ele>
        <time>2013-04-20T18:34:08Z</time>
      </trkpt>
      <trkpt lat="59.9457031" lon="17.8252119">
        <ele>31.8607</ele>
        <time>2013-04-20T18:34:09Z</time>
      </trkpt>
      <trkpt lat="59.9456482" lon="17.8251559">
        <ele>31.8607</ele>
        <time>2013-04-20T18:34:10Z</time>
      </trkpt>
      <trkpt lat="59.9455937" lon="17.8251003">
        <ele>31.8607</ele>
        <time>2013-04-20T18:34:11Z</time>
      </trkpt>
      <trkpt lat="59.9455392" lon="17.8250446">
        <ele>31.8607</ele>
        <time>2013-04-20T18:34:12Z</time>
      </trkpt>
      <trkpt lat="59.9454847" lon="17.8249886">
        <ele>32.3416</ele>
        <time>2013-04-20T18:34:13Z</time>
      </trkpt>
      <trkpt lat="59.9454303" lon="17.8249332">
        <ele>32.3416</ele>
        <time>2013-04-20T18:34:14Z</time>
      </trkpt>
      <trkpt lat="59.9453762" lon="17.8248781">
        <ele>32.3416</ele>
        <time>2013-04-20T18:34:15Z</time>
      </trkpt>
      <trkpt lat="59.945322" lon="17.8248235">
        <ele>32.3416</ele>
        <time>2013-04-20T18:34:16Z</time>
      </trkpt>
      <trkpt lat="59.9452683" lon="17.824769">
        <ele>32.3416</ele>
        <time>2013-04-20T18:34:17Z</time>
      </trkpt>
      <trkpt lat="59.9452148" lon="17.8247136">
        <ele>32.3416</ele>
        <time>2013-04-20T18:34:18Z</time>
      </trkpt>
      <trkpt lat="59.9451618" lon="17.8246582">
        <ele>32.8223</ele>
        <time>2013-04-20T18:34:19Z</time>
      </trkpt>
      <trkpt lat="59.9451086" lon="17.8246031">
        <ele>32.8223</ele>
        <time>2013-04-20T18:34:20Z</time>
      </trkpt>
      <trkpt lat="59.9450551" lon="17.8245494">
        <ele>32.8223</ele>
        <time>2013-04-20T18:34:21Z</time>
      </trkpt>
      <trkpt lat="59.9450012" lon="17.824496">
        <ele>32.8223</ele>
        <time>2013-04-20T18:34:22Z</time>
      </trkpt>
      <trkpt lat="59.9449474" lon="17.8244429">
        <ele>32.3416</ele>
        <time>2013-04-20T18:34:23Z</time>
      </trkpt>
      <trkpt lat="59.9448933" lon="17.8243875">
        <ele>32.8223</ele>
        <time>2013-04-20T18:34:24Z</time>
      </trkpt>
      <trkpt lat="59.9448379" lon="17.8243298">
        <ele>32.8223</ele>
        <time>2013-04-20T18:34:25Z</time>
      </trkpt>
      <trkpt lat="59.9447826" lon="17.8242739">
        <ele>33.3029</ele>
        <time>2013-04-20T18:34:26Z</time>
      </trkpt>
      <trkpt lat="59.944727" lon="17.8242195">
        <ele>33.3029</ele>
        <time>2013-04-20T18:34:27Z</time>
      </trkpt>
      <trkpt lat="59.9446722" lon="17.8241614">
        <ele>33.3029</ele>
        <time>2013-04-20T18:34:28Z</time>
      </trkpt>
      <trkpt lat="59.9446184" lon="17.8241028">
        <ele>33.3029</ele>
        <time>2013-04-20T18:34:29Z</time>
      </trkpt>
      <trkpt lat="59.9445643" lon="17.8240436">
        <ele>33.7834</ele>
        <time>2013-04-20T18:34:30Z</time>
      </trkpt>
      <trkpt lat="59.9445081" lon="17.8239856">
        <ele>33.7834</ele>
        <time>2013-04-20T18:34:31Z</time>
      </trkpt>
      <trkpt lat="59.9444541" lon="17.8239247">
        <ele>34.2642</ele>
        <time>2013-04-20T18:34:32Z</time>
      </trkpt>
      <trkpt lat="59.9443988" lon="17.8238631">
        <ele>34.2642</ele>
        <time>2013-04-20T18:34:33Z</time>
      </trkpt>
      <trkpt lat="59.9443448" lon="17.8237993">
        <ele>34.2642</ele>
        <time>2013-04-20T18:34:34Z</time>
      </trkpt>
      <trkpt lat="59.9442905" lon="17.8237314">
        <ele>34.7449</ele>
        <time>2013-04-20T18:34:35Z</time>
      </trkpt>
      <trkpt lat="59.9442349" lon="17.8236641">
        <ele>34.7449</ele>
        <time>2013-04-20T18:34:36Z</time>
      </trkpt>
      <trkpt lat="59.9441781" lon="17.8235983">
        <ele>34.7449</ele>
        <time>2013-04-20T18:34:37Z</time>
      </trkpt>
      <trkpt lat="59.9441189" lon="17.8235299">
        <ele>34.7449</ele>
        <time>2013-04-20T18:34:38Z</time>
      </trkpt>
      <trkpt lat="59.9440598" lon="17.823458">
        <ele>34.2642</ele>
        <time>2013-04-20T18:34:39Z</time>
      </trkpt>
      <trkpt lat="59.9439994" lon="17.8233863">
        <ele>34.2642</ele>
        <time>2013-04-20T18:34:40Z</time>
      </trkpt>
      <trkpt lat="59.9439391" lon="17.8233113">
        <ele>33.7834</ele>
        <time>2013-04-20T18:34:41Z</time>
      </trkpt>
      <trkpt lat="59.9438782" lon="17.8232331">
        <ele>33.7834</ele>
        <time>2013-04-20T18:34:42Z</time>
      </trkpt>
      <trkpt lat="59.9438166" lon="17.8231543">
        <ele>33.7834</ele>
        <time>2013-04-20T18:34:43Z</time>
      </trkpt>
      <trkpt lat="59.9437543" lon="17.8230761">
        <ele>33.3029</ele>
        <time>2013-04-20T18:34:44Z</time>
      </trkpt>
      <trkpt lat="59.9436913" lon="17.8229977">
        <ele>33.3029</ele>
        <time>2013-04-20T18:34:45Z</time>
      </trkpt>
      <trkpt lat="59.9436273" lon="17.8229184">
        <ele>32.8223</ele>
        <time>2013-04-20T18:34:46Z</time>
      </trkpt>
      <trkpt lat="59.9435625" lon="17.8228379">
        <ele>32.8223</ele>
        <time>2013-04-20T18:34:47Z</time>
      </trkpt>
      <trkpt lat="59.9434969" lon="17.8227563">
        <ele>32.3416</ele>
        <time>2013-04-20T18:34:48Z</time>
      </trkpt>
      <trkpt lat="59.94343" lon="17.8226742">
        <ele>31.8607</ele>
        <time>2013-04-20T18:34:49Z</time>
      </trkpt>
      <trkpt lat="59.9433618" lon="17.8225909">
        <ele>31.8607</ele>
        <time>2013-04-20T18:34:50Z</time>
      </trkpt>
      <trkpt lat="59.9432928" lon="17.8225058">
        <ele>31.3801</ele>
        <time>2013-04-20T18:34:51Z</time>
      </trkpt>
      <trkpt lat="59.943223" lon="17.8224197">
        <ele>31.3801</ele>
        <time>2013-04-20T18:34:52Z</time>
      </trkpt>
      <trkpt lat="59.9431526" lon="17.8223326">
        <ele>30.8995</ele>
        <time>2013-04-20T18:34:53Z</time>
      </trkpt>
      <trkpt lat="59.943082" lon="17.822245">
        <ele>30.4188</ele>
        <time>2013-04-20T18:34:54Z</time>
      </trkpt>
      <trkpt lat="59.943011" lon="17.8221571">
        <ele>30.4188</ele>
        <time>2013-04-20T18:34:55Z</time>
      </trkpt>
      <trkpt lat="59.9429401" lon="17.8220691">
        <ele>29.9381</ele>
        <time>2013-04-20T18:34:56Z</time>
      </trkpt>
      <trkpt lat="59.9428686" lon="17.8219811">
        <ele>29.9381</ele>
        <time>2013-04-20T18:34:57Z</time>
      </trkpt>
      <trkpt lat="59.9427972" lon="17.8218919">
        <ele>29.4575</ele>
        <time>2013-04-20T18:34:58Z</time>
      </trkpt>
      <trkpt lat="59.9427252" lon="17.8218022">
        <ele>29.4575</ele>
        <time>2013-04-20T18:34:59Z</time>
      </trkpt>
      <trkpt lat="59.9426524" lon="17.8217133">
        <ele>28.9769</ele>
        <time>2013-04-20T18:35:00Z</time>
      </trkpt>
      <trkpt lat="59.9425794" lon="17.8216236">
        <ele>28.9769</ele>
        <time>2013-04-20T18:35:01Z</time>
      </trkpt>
      <trkpt lat="59.9425066" lon="17.821532">
        <ele>28.9769</ele>
        <time>2013-04-20T18:35:02Z</time>
      </trkpt>
      <trkpt lat="59.9424334" lon="17.8214409">
        <ele>28.4962</ele>
        <time>2013-04-20T18:35:03Z</time>
      </trkpt>
      <trkpt lat="59.9423594" lon="17.8213494">
        <ele>28.0155</ele>
        <time>2013-04-20T18:35:04Z</time>
      </trkpt>
      <trkpt lat="59.9422849" lon="17.8212558">
        <ele>28.0155</ele>
        <time>2013-04-20T18:35:05Z</time>
      </trkpt>
      <trkpt lat="59.9422098" lon="17.8211622">
        <ele>27.5349</ele>
        <time>2013-04-20T18:35:06Z</time>
      </trkpt>
      <trkpt lat="59.9421342" lon="17.8210693">
        <ele>27.5349</ele>
        <time>2013-04-20T18:35:07Z</time>
      </trkpt>
      <trkpt lat="59.9420587" lon="17.8209761">
        <ele>27.0543</ele>
        <time>2013-04-20T18:35:08Z</time>
      </trkpt>
      <trkpt lat="59.9419828" lon="17.8208829">
        <ele>27.0543</ele>
        <time>2013-04-20T18:35:09Z</time>
      </trkpt>
      <trkpt lat="59.9419071" lon="17.8207894">
        <ele>27.0543</ele>
        <time>2013-04-20T18:35:10Z</time>
      </trkpt>
      <trkpt lat="59.941832" lon="17.8206954">
        <ele>26.5736</ele>
        <time>2013-04-20T18:35:11Z</time>
      </trkpt>
      <trkpt lat="59.9417576" lon="17.8206027">
        <ele>26.5736</ele>
        <time>2013-04-20T18:35:12Z</time>
      </trkpt>
      <trkpt lat="59.9416839" lon="17.8205113">
        <ele>26.5736</ele>
        <time>2013-04-20T18:35:13Z</time>
      </trkpt>
      <trkpt lat="59.9416113" lon="17.8204203">
        <ele>26.5736</ele>
        <time>2013-04-20T18:35:14Z</time>
      </trkpt>
      <trkpt lat="59.9415399" lon="17.8203306">
        <ele>26.5736</ele>
        <time>2013-04-20T18:35:15Z</time>
      </trkpt>
      <trkpt lat="59.9414704" lon="17.8202434">
        <ele>26.5736</ele>
        <time>2013-04-20T18:35:16Z</time>
      </trkpt>
      <trkpt lat="59.941403" lon="17.8201596">
        <ele>26.5736</ele>
        <time>2013-04-20T18:35:17Z</time>
      </trkpt>
      <trkpt lat="59.9413374" lon="17.8200789">
        <ele>27.0543</ele>
        <time>2013-04-20T18:35:18Z</time>
      </trkpt>
      <trkpt lat="59.9412741" lon="17.8200007">
        <ele>27.0543</ele>
        <time>2013-04-20T18:35:19Z</time>
      </trkpt>
      <trkpt lat="59.9412125" lon="17.8199247">
        <ele>27.0543</ele>
        <time>2013-04-20T18:35:20Z</time>
      </trkpt>
      <trkpt lat="59.9411527" lon="17.8198509">
        <ele>27.0543</ele>
        <time>2013-04-20T18:35:21Z</time>
      </trkpt>
      <trkpt lat="59.9410949" lon="17.8197788">
        <ele>27.5349</ele>
        <time>2013-04-20T18:35:22Z</time>
      </trkpt>
      <trkpt lat="59.9410389" lon="17.8197115">
        <ele>27.5349</ele>
        <time>2013-04-20T18:35:23Z</time>
      </trkpt>
      <trkpt lat="59.9409844" lon="17.8196474">
        <ele>27.5349</ele>
        <time>2013-04-20T18:35:24Z</time>
      </trkpt>
      <trkpt lat="59.9409317" lon="17.8195822">
        <ele>27.5349</ele>
        <time>2013-04-20T18:35:25Z</time>
      </trkpt>
      <trkpt lat="59.94088" lon="17.8195157">
        <ele>27.5349</ele>
        <time>2013-04-20T18:35:26Z</time>
      </trkpt>
      <trkpt lat="59.9408287" lon="17.8194502">
        <ele>28.0155</ele>
        <time>2013-04-20T18:35:27Z</time>
      </trkpt>
      <trkpt lat="59.940777" lon="17.8193904">
        <ele>28.0155</ele>
        <time>2013-04-20T18:35:28Z</time>
      </trkpt>
      <trkpt lat="59.9407234" lon="17.8193397">
        <ele>28.0155</ele>
        <time>2013-04-20T18:35:29Z</time>
      </trkpt>
      <trkpt lat="59.9406675" lon="17.8192996">
        <ele>28.4962</ele>
        <time>2013-04-20T18:35:30Z</time>
      </trkpt>
      <trkpt lat="59.94061" lon="17.8192644">
        <ele>28.4962</ele>
        <time>2013-04-20T18:35:31Z</time>
      </trkpt>
      <trkpt lat="59.9405519" lon="17.8192247">
        <ele>28.4962</ele>
        <time>2013-04-20T18:35:32Z</time>
      </trkpt>
      <trkpt lat="59.9404946" lon="17.8191745">
        <ele>28.9769</ele>
        <time>2013-04-20T18:35:33Z</time>
      </trkpt>
      <trkpt lat="59.940439" lon="17.8191143">
        <ele>28.9769</ele>
        <time>2013-04-20T18:35:34Z</time>
      </trkpt>
      <trkpt lat="59.9403851" lon="17.8190508">
        <ele>28.9769</ele>
        <time>2013-04-20T18:35:35Z</time>
      </trkpt>
      <trkpt lat="59.9403324" lon="17.8189864">
        <ele>28.9769</ele>
        <time>2013-04-20T18:35:36Z</time>
      </trkpt>
      <trkpt lat="59.9402811" lon="17.8189202">
        <ele>29.4575</ele>
        <time>2013-04-20T18:35:37Z</time>
      </trkpt>
      <trkpt lat="59.9402303" lon="17.8188564">
        <ele>29.4575</ele>
        <time>2013-04-20T18:35:38Z</time>
      </trkpt>
      <trkpt lat="59.940179" lon="17.8187993">
        <ele>29.4575</ele>
        <time>2013-04-20T18:35:39Z</time>
      </trkpt>
      <trkpt lat="59.9401274" lon="17.8187466">
        <ele>29.9381</ele>
        <time>2013-04-20T18:35:40Z</time>
      </trkpt>
      <trkpt lat="59.940076" lon="17.8186938">
        <ele>29.9381</ele>
        <time>2013-04-20T18:35:41Z</time>
      </trkpt>
      <trkpt lat="59.9400252" lon="17.8186373">
        <ele>29.9381</ele>
        <time>2013-04-20T18:35:42Z</time>
      </trkpt>
      <trkpt lat="59.9399761" lon="17.8185749">
        <ele>29.9381</ele>
        <time>2013-04-20T18:35:43Z</time>
      </trkpt>
      <trkpt lat="59.9399271" lon="17.8185131">
        <ele>30.4188</ele>
        <time>2013-04-20T18:35:44Z</time>
      </trkpt>
      <trkpt lat="59.9398744" lon="17.8184669">
        <ele>30.4188</ele>
        <time>2013-04-20T18:35:45Z</time>
      </trkpt>
      <trkpt lat="59.939818" lon="17.8184374">
        <ele>30.4188</ele>
        <time>2013-04-20T18:35:46Z</time>
      </trkpt>
      <trkpt lat="59.9397598" lon="17.81842">
        <ele>30.4188</ele>
        <time>2013-04-20T18:35:47Z</time>
      </trkpt>
      <trkpt lat="59.939701" lon="17.818414">
        <ele>30.4188</ele>
        <time>2013-04-20T18:35:48Z</time>
      </trkpt>
      <trkpt lat="59.9396413" lon="17.8184149">
        <ele>30.4188</ele>
        <time>2013-04-20T18:35:49Z</time>
      </trkpt>
      <trkpt lat="59.9395803" lon="17.8184219">
        <ele>30.4188</ele>
        <time>2013-04-20T18:35:50Z</time>
      </trkpt>
      <trkpt lat="59.9395186" lon="17.8184389">
        <ele>30.4188</ele>
        <time>2013-04-20T18:35:51Z</time>
      </trkpt>
      <trkpt lat="59.9394563" lon="17.8184673">
        <ele>30.4188</ele>
        <time>2013-04-20T18:35:52Z</time>
      </trkpt>
      <trkpt lat="59.9393939" lon="17.8185078">
        <ele>30.4188</ele>
        <time>2013-04-20T18:35:53Z</time>
      </trkpt>
      <trkpt lat="59.9393316" lon="17.8185581">
        <ele>29.9381</ele>
        <time>2013-04-20T18:35:54Z</time>
      </trkpt>
      <trkpt lat="59.93927" lon="17.8186191">
        <ele>29.9381</ele>
        <time>2013-04-20T18:35:55Z</time>
      </trkpt>
      <trkpt lat="59.9392095" lon="17.818691">
        <ele>29.9381</ele>
        <time>2013-04-20T18:35:56Z</time>
      </trkpt>
      <trkpt lat="59.9391506" lon="17.8187718">
        <ele>29.4575</ele>
        <time>2013-04-20T18:35:57Z</time>
      </trkpt>
      <trkpt lat="59.9390931" lon="17.8188606">
        <ele>29.4575</ele>
        <time>2013-04-20T18:35:58Z</time>
      </trkpt>
      <trkpt lat="59.9390375" lon="17.8189573">
        <ele>29.4575</ele>
        <time>2013-04-20T18:35:59Z</time>
      </trkpt>
      <trkpt lat="59.9389844" lon="17.8190594">
        <ele>29.4575</ele>
        <time>2013-04-20T18:36:00Z</time>
      </trkpt>
      <trkpt lat="59.9389333" lon="17.819163">
        <ele>29.4575</ele>
        <time>2013-04-20T18:36:01Z</time>
      </trkpt>
      <trkpt lat="59.938883" lon="17.8192663">
        <ele>28.9769</ele>
        <time>2013-04-20T18:36:02Z</time>
      </trkpt>
      <trkpt lat="59.9388334" lon="17.8193698">
        <ele>28.9769</ele>
        <time>2013-04-20T18:36:03Z</time>
      </trkpt>
      <trkpt lat="59.9387842" lon="17.8194745">
        <ele>28.9769</ele>
        <time>2013-04-20T18:36:04Z</time>
      </trkpt>
      <trkpt lat="59.9387359" lon="17.8195806">
        <ele>28.9769</ele>
        <time>2013-04-20T18:36:05Z</time>
      </trkpt>
      <trkpt lat="59.9386868" lon="17.8196863">
        <ele>28.4962</ele>
        <time>2013-04-20T18:36:06Z</time>
      </trkpt>
      <trkpt lat="59.938637" lon="17.8197933">
        <ele>28.4962</ele>
        <time>2013-04-20T18:36:07Z</time>
      </trkpt>
      <trkpt lat="59.9385865" lon="17.8199042">
        <ele>28.0155</ele>
        <time>2013-04-20T18:36:08Z</time>
      </trkpt>
      <trkpt lat="59.9385349" lon="17.8200177">
        <ele>28.0155</ele>
        <time>2013-04-20T18:36:09Z</time>
      </trkpt>
      <trkpt lat="59.9384822" lon="17.8201331">
        <ele>27.5349</ele>
        <time>2013-04-20T18:36:10Z</time>
      </trkpt>
      <trkpt lat="59.9384288" lon="17.8202503">
        <ele>27.5349</ele>
        <time>2013-04-20T18:36:11Z</time>
      </trkpt>
      <trkpt lat="59.9383743" lon="17.8203684">
        <ele>27.0543</ele>
        <time>2013-04-20T18:36:12Z</time>
      </trkpt>
      <trkpt lat="59.9383184" lon="17.8204875">
        <ele>26.5736</ele>
        <time>2013-04-20T18:36:13Z</time>
      </trkpt>
      <trkpt lat="59.938262" lon="17.8206088">
        <ele>26.5736</ele>
        <time>2013-04-20T18:36:14Z</time>
      </trkpt>
      <trkpt lat="59.9382055" lon="17.820733">
        <ele>26.0929</ele>
        <time>2013-04-20T18:36:15Z</time>
      </trkpt>
      <trkpt lat="59.9381489" lon="17.8208593">
        <ele>26.0929</ele>
        <time>2013-04-20T18:36:16Z</time>
      </trkpt>
      <trkpt lat="59.9380916" lon="17.8209874">
        <ele>25.6123</ele>
        <time>2013-04-20T18:36:17Z</time>
      </trkpt>
      <trkpt lat="59.9380335" lon="17.8211165">
        <ele>25.6123</ele>
        <time>2013-04-20T18:36:18Z</time>
      </trkpt>
      <trkpt lat="59.9379739" lon="17.8212477">
        <ele>25.1317</ele>
        <time>2013-04-20T18:36:19Z</time>
      </trkpt>
      <trkpt lat="59.9379133" lon="17.8213813">
        <ele>25.1317</ele>
        <time>2013-04-20T18:36:20Z</time>
      </trkpt>
      <trkpt lat="59.9378511" lon="17.8215185">
        <ele>24.651</ele>
        <time>2013-04-20T18:36:21Z</time>
      </trkpt>
      <trkpt lat="59.937789" lon="17.8216576">
        <ele>24.651</ele>
        <time>2013-04-20T18:36:22Z</time>
      </trkpt>
      <trkpt lat="59.937729" lon="17.8217986">
        <ele>24.651</ele>
        <time>2013-04-20T18:36:23Z</time>
      </trkpt>
      <trkpt lat="59.9376738" lon="17.8219437">
        <ele>24.651</ele>
        <time>2013-04-20T18:36:24Z</time>
      </trkpt>
      <trkpt lat="59.9376227" lon="17.8220943">
        <ele>24.1703</ele>
        <time>2013-04-20T18:36:25Z</time>
      </trkpt>
      <trkpt lat="59.9375746" lon="17.8222489">
        <ele>24.651</ele>
        <time>2013-04-20T18:36:26Z</time>
      </trkpt>
      <trkpt lat="59.9375298" lon="17.8224037">
        <ele>24.1703</ele>
        <time>2013-04-20T18:36:27Z</time>
      </trkpt>
      <trkpt lat="59.9374868" lon="17.822561">
        <ele>24.1703</ele>
        <time>2013-04-20T18:36:28Z</time>
      </trkpt>
      <trkpt lat="59.9374436" lon="17.8227176">
        <ele>24.651</ele>
        <time>2013-04-20T18:36:29Z</time>
      </trkpt>
      <trkpt lat="59.9373982" lon="17.8228695">
        <ele>24.651</ele>
        <time>2013-04-20T18:36:30Z</time>
      </trkpt>
      <trkpt lat="59.9373491" lon="17.8230151">
        <ele>25.1317</ele>
        <time>2013-04-20T18:36:31Z</time>
      </trkpt>
      <trkpt lat="59.9372974" lon="17.823156">
        <ele>25.1317</ele>
        <time>2013-04-20T18:36:32Z</time>
      </trkpt>
      <trkpt lat="59.9372455" lon="17.8232951">
        <ele>25.6123</ele>
        <time>2013-04-20T18:36:33Z</time>
      </trkpt>
      <trkpt lat="59.9371946" lon="17.8234341">
        <ele>25.6123</ele>
        <time>2013-04-20T18:36:34Z</time>
      </trkpt>
      <trkpt lat="59.9371436" lon="17.8235708">
        <ele>26.0929</ele>
        <time>2013-04-20T18:36:35Z</time>
      </trkpt>
      <trkpt lat="59.9370922" lon="17.823705">
        <ele>26.0929</ele>
        <time>2013-04-20T18:36:36Z</time>
      </trkpt>
      <trkpt lat="59.9370416" lon="17.8238385">
        <ele>26.0929</ele>
        <time>2013-04-20T18:36:37Z</time>
      </trkpt>
      <trkpt lat="59.9369913" lon="17.8239706">
        <ele>26.5736</ele>
        <time>2013-04-20T18:36:38Z</time>
      </trkpt>
      <trkpt lat="59.9369389" lon="17.8241007">
        <ele>26.5736</ele>
        <time>2013-04-20T18:36:39Z</time>
      </trkpt>
      <trkpt lat="59.9368831" lon="17.8242276">
        <ele>26.5736</ele>
        <time>2013-04-20T18:36:40Z</time>
      </trkpt>
      <trkpt lat="59.936823" lon="17.8243481">
        <ele>26.5736</ele>
        <time>2013-04-20T18:36:41Z</time>
      </trkpt>
      <trkpt lat="59.9367588" lon="17.8244608">
        <ele>26.5736</ele>
        <time>2013-04-20T18:36:42Z</time>
      </trkpt>
      <trkpt lat="59.9366908" lon="17.8245637">
        <ele>26.5736</ele>
        <time>2013-04-20T18:36:43Z</time>
      </trkpt>
      <trkpt lat="59.9366194" lon="17.8246571">
        <ele>26.5736</ele>
        <time>2013-04-20T18:36:44Z</time>
      </trkpt>
      <trkpt lat="59.9365441" lon="17.8247352">
        <ele>26.0929</ele>
        <time>2013-04-20T18:36:45Z</time>
      </trkpt>
      <trkpt lat="59.936465" lon="17.8247979">
        <ele>26.0929</ele>
        <time>2013-04-20T18:36:46Z</time>
      </trkpt>
      <trkpt lat="59.9363846" lon="17.8248463">
        <ele>26.0929</ele>
        <time>2013-04-20T18:36:47Z</time>
      </trkpt>
      <trkpt lat="59.9363028" lon="17.8248835">
        <ele>25.6123</ele>
        <time>2013-04-20T18:36:48Z</time>
      </trkpt>
      <trkpt lat="59.9362194" lon="17.824916">
        <ele>25.1317</ele>
        <time>2013-04-20T18:36:49Z</time>
      </trkpt>
      <trkpt lat="59.9361359" lon="17.8249472">
        <ele>25.1317</ele>
        <time>2013-04-20T18:36:50Z</time>
      </trkpt>
      <trkpt lat="59.9360511" lon="17.8249803">
        <ele>24.651</ele>
        <time>2013-04-20T18:36:51Z</time>
      </trkpt>
      <trkpt lat="59.9359661" lon="17.8250146">
        <ele>24.1703</ele>
        <time>2013-04-20T18:36:52Z</time>
      </trkpt>
      <trkpt lat="59.9358813" lon="17.8250493">
        <ele>23.6896</ele>
        <time>2013-04-20T18:36:53Z</time>
      </trkpt>
      <trkpt lat="59.9357967" lon="17.8250825">
        <ele>23.6896</ele>
        <time>2013-04-20T18:36:54Z</time>
      </trkpt>
      <trkpt lat="59.9357127" lon="17.8251145">
        <ele>23.209</ele>
        <time>2013-04-20T18:36:55Z</time>
      </trkpt>
      <trkpt lat="59.935629" lon="17.8251485">
        <ele>23.209</ele>
        <time>2013-04-20T18:36:56Z</time>
      </trkpt>
      <trkpt lat="59.9355438" lon="17.8251863">
        <ele>22.7283</ele>
        <time>2013-04-20T18:36:57Z</time>
      </trkpt>
      <trkpt lat="59.9354588" lon="17.8252231">
        <ele>22.7283</ele>
        <time>2013-04-20T18:36:58Z</time>
      </trkpt>
      <trkpt lat="59.9353746" lon="17.8252581">
        <ele>22.2476</ele>
        <time>2013-04-20T18:36:59Z</time>
      </trkpt>
      <trkpt lat="59.9352912" lon="17.8252937">
        <ele>22.2476</ele>
        <time>2013-04-20T18:37:00Z</time>
      </trkpt>
      <trkpt lat="59.9352087" lon="17.8253295">
        <ele>22.2476</ele>
        <time>2013-04-20T18:37:01Z</time>
      </trkpt>
      <trkpt lat="59.9351267" lon="17.8253637">
        <ele>21.767</ele>
        <time>2013-04-20T18:37:02Z</time>
      </trkpt>
      <trkpt lat="59.9350456" lon="17.825399">
        <ele>21.767</ele>
        <time>2013-04-20T18:37:03Z</time>
      </trkpt>
      <trkpt lat="59.9349661" lon="17.8254353">
        <ele>21.767</ele>
        <time>2013-04-20T18:37:04Z</time>
      </trkpt>
      <trkpt lat="59.9348876" lon="17.8254699">
        <ele>21.767</ele>
        <time>2013-04-20T18:37:05Z</time>
      </trkpt>
      <trkpt lat="59.9348104" lon="17.8255014">
        <ele>21.767</ele>
        <time>2013-04-20T18:37:06Z</time>
      </trkpt>
      <trkpt lat="59.9347348" lon="17.8255328">
        <ele>21.767</ele>
        <time>2013-04-20T18:37:07Z</time>
      </trkpt>
      <trkpt lat="59.9346601" lon="17.8255667">
        <ele>21.767</ele>
        <time>2013-04-20T18:37:08Z</time>
      </trkpt>
      <trkpt lat="59.9345866" lon="17.8256009">
        <ele>21.767</ele>
        <time>2013-04-20T18:37:09Z</time>
      </trkpt>
      <trkpt lat="59.934515" lon="17.8256338">
        <ele>21.767</ele>
        <time>2013-04-20T18:37:10Z</time>
      </trkpt>
      <trkpt lat="59.9344448" lon="17.8256655">
        <ele>22.2476</ele>
        <time>2013-04-20T18:37:11Z</time>
      </trkpt>
      <trkpt lat="59.9343746" lon="17.8256967">
        <ele>22.2476</ele>
        <time>2013-04-20T18:37:12Z</time>
      </trkpt>
      <trkpt lat="59.9343026" lon="17.8257282">
        <ele>22.2476</ele>
        <time>2013-04-20T18:37:13Z</time>
      </trkpt>
      <trkpt lat="59.9342293" lon="17.8257589">
        <ele>22.2476</ele>
        <time>2013-04-20T18:37:14Z</time>
      </trkpt>
      <trkpt lat="59.9341549" lon="17.8257903">
        <ele>22.2476</ele>
        <time>2013-04-20T18:37:15Z</time>
      </trkpt>
      <trkpt lat="59.93408" lon="17.8258224">
        <ele>22.2476</ele>
        <time>2013-04-20T18:37:16Z</time>
      </trkpt>
      <trkpt lat="59.9340048" lon="17.8258543">
        <ele>22.2476</ele>
        <time>2013-04-20T18:37:17Z</time>
      </trkpt>
      <trkpt lat="59.9339286" lon="17.8258861">
        <ele>22.7283</ele>
        <time>2013-04-20T18:37:18Z</time>
      </trkpt>
      <trkpt lat="59.9338521" lon="17.8259205">
        <ele>22.7283</ele>
        <time>2013-04-20T18:37:19Z</time>
      </trkpt>
      <trkpt lat="59.9337761" lon="17.8259602">
        <ele>22.7283</ele>
        <time>2013-04-20T18:37:20Z</time>
      </trkpt>
      <trkpt lat="59.9336997" lon="17.8260035">
        <ele>22.7283</ele>
        <time>2013-04-20T18:37:21Z</time>
      </trkpt>
      <trkpt lat="59.9336238" lon="17.8260503">
        <ele>22.7283</ele>
        <time>2013-04-20T18:37:22Z</time>
      </trkpt>
      <trkpt lat="59.9335496" lon="17.8261007">
        <ele>22.7283</ele>
        <time>2013-04-20T18:37:23Z</time>
      </trkpt>
      <trkpt lat="59.9334764" lon="17.8261541">
        <ele>22.7283</ele>
        <time>2013-04-20T18:37:24Z</time>
      </trkpt>
      <trkpt lat="59.933404" lon="17.8262114">
        <ele>22.7283</ele>
        <time>2013-04-20T18:37:25Z</time>
      </trkpt>
      <trkpt lat="59.9333327" lon="17.8262746">
        <ele>22.2476</ele>
        <time>2013-04-20T18:37:26Z</time>
      </trkpt>
      <trkpt lat="59.9332648" lon="17.8263468">
        <ele>22.2476</ele>
        <time>2013-04-20T18:37:27Z</time>
      </trkpt>
      <trkpt lat="59.9332" lon="17.8264287">
        <ele>21.767</ele>
        <time>2013-04-20T18:37:28Z</time>
      </trkpt>
      <trkpt lat="59.9331378" lon="17.8265172">
        <ele>21.767</ele>
        <time>2013-04-20T18:37:29Z</time>
      </trkpt>
      <trkpt lat="59.9330759" lon="17.8266115">
        <ele>21.767</ele>
        <time>2013-04-20T18:37:30Z</time>
      </trkpt>
      <trkpt lat="59.9330132" lon="17.8267096">
        <ele>21.767</ele>
        <time>2013-04-20T18:37:31Z</time>
      </trkpt>
      <trkpt lat="59.9329508" lon="17.8268109">
        <ele>21.767</ele>
        <time>2013-04-20T18:37:32Z</time>
      </trkpt>
      <trkpt lat="59.9328898" lon="17.8269154">
        <ele>21.767</ele>
        <time>2013-04-20T18:37:33Z</time>
      </trkpt>
      <trkpt lat="59.9328289" lon="17.827023">
        <ele>21.767</ele>
        <time>2013-04-20T18:37:34Z</time>
      </trkpt>
      <trkpt lat="59.9327677" lon="17.827129">
        <ele>21.767</ele>
        <time>2013-04-20T18:37:35Z</time>
      </trkpt>
      <trkpt lat="59.9327067" lon="17.8272351">
        <ele>21.767</ele>
        <time>2013-04-20T18:37:36Z</time>
      </trkpt>
      <trkpt lat="59.932646" lon="17.8273422">
        <ele>22.2476</ele>
        <time>2013-04-20T18:37:37Z</time>
      </trkpt>
      <trkpt lat="59.932585" lon="17.8274481">
        <ele>22.2476</ele>
        <time>2013-04-20T18:37:38Z</time>
      </trkpt>
      <trkpt lat="59.932525" lon="17.8275541">
        <ele>22.2476</ele>
        <time>2013-04-20T18:37:39Z</time>
      </trkpt>
      <trkpt lat="59.9324671" lon="17.8276606">
        <ele>22.2476</ele>
        <time>2013-04-20T18:37:40Z</time>
      </trkpt>
      <trkpt lat="59.9324101" lon="17.8277667">
        <ele>22.7283</ele>
        <time>2013-04-20T18:37:41Z</time>
      </trkpt>
      <trkpt lat="59.9323525" lon="17.8278715">
        <ele>22.7283</ele>
        <time>2013-04-20T18:37:42Z</time>
      </trkpt>
      <trkpt lat="59.9322959" lon="17.8279779">
        <ele>22.7283</ele>
        <time>2013-04-20T18:37:43Z</time>
      </trkpt>
      <trkpt lat="59.9322435" lon="17.8280877">
        <ele>22.7283</ele>
        <time>2013-04-20T18:37:44Z</time>
      </trkpt>
      <trkpt lat="59.9321934" lon="17.8281998">
        <ele>22.7283</ele>
        <time>2013-04-20T18:37:45Z</time>
      </trkpt>
      <trkpt lat="59.932144" lon="17.8283127">
        <ele>22.7283</ele>
        <time>2013-04-20T18:37:46Z</time>
      </trkpt>
      <trkpt lat="59.9320969" lon="17.8284278">
        <ele>22.7283</ele>
        <time>2013-04-20T18:37:47Z</time>
      </trkpt>
      <trkpt lat="59.9320536" lon="17.8285468">
        <ele>23.209</ele>
        <time>2013-04-20T18:37:48Z</time>
      </trkpt>
      <trkpt lat="59.9320135" lon="17.8286697">
        <ele>23.209</ele>
        <time>2013-04-20T18:37:49Z</time>
      </trkpt>
      <trkpt lat="59.9319758" lon="17.8287956">
        <ele>23.209</ele>
        <time>2013-04-20T18:37:50Z</time>
      </trkpt>
      <trkpt lat="59.9319404" lon="17.8289225">
        <ele>23.6896</ele>
        <time>2013-04-20T18:37:51Z</time>
      </trkpt>
      <trkpt lat="59.9319078" lon="17.8290477">
        <ele>23.6896</ele>
        <time>2013-04-20T18:37:52Z</time>
      </trkpt>
      <trkpt lat="59.9318775" lon="17.8291705">
        <ele>24.1703</ele>
        <time>2013-04-20T18:37:53Z</time>
      </trkpt>
      <trkpt lat="59.9318478" lon="17.8292934">
        <ele>24.651</ele>
        <time>2013-04-20T18:37:54Z</time>
      </trkpt>
      <trkpt lat="59.9318173" lon="17.8294166">
        <ele>24.651</ele>
        <time>2013-04-20T18:37:55Z</time>
      </trkpt>
      <trkpt lat="59.9317852" lon="17.8295415">
        <ele>24.651</ele>
        <time>2013-04-20T18:37:56Z</time>
      </trkpt>
      <trkpt lat="59.9317537" lon="17.8296669">
        <ele>25.1317</ele>
        <time>2013-04-20T18:37:57Z</time>
      </trkpt>
      <trkpt lat="59.9317205" lon="17.8297914">
        <ele>25.6123</ele>
        <time>2013-04-20T18:37:58Z</time>
      </trkpt>
      <trkpt lat="59.9316851" lon="17.829916">
        <ele>26.0929</ele>
        <time>2013-04-20T18:37:59Z</time>
      </trkpt>
      <trkpt lat="59.9316521" lon="17.830035">
        <ele>26.0929</ele>
        <time>2013-04-20T18:38:00Z</time>
      </trkpt>
      <trkpt lat="59.9316195" lon="17.8301521">
        <ele>26.5736</ele>
        <time>2013-04-20T18:38:01Z</time>
      </trkpt>
      <trkpt lat="59.9315874" lon="17.8302734">
        <ele>27.0543</ele>
        <time>2013-04-20T18:38:02Z</time>
      </trkpt>
      <trkpt lat="59.9315526" lon="17.8303961">
        <ele>27.0543</ele>
        <time>2013-04-20T18:38:03Z</time>
      </trkpt>
      <trkpt lat="59.9315141" lon="17.8305136">
        <ele>27.0543</ele>
        <time>2013-04-20T18:38:04Z</time>
      </trkpt>
      <trkpt lat="59.9314729" lon="17.8306262">
        <ele>26.5736</ele>
        <time>2013-04-20T18:38:05Z</time>
      </trkpt>
      <trkpt lat="59.9314294" lon="17.8307419">
        <ele>26.5736</ele>
        <time>2013-04-20T18:38:06Z</time>
      </trkpt>
      <trkpt lat="59.9313837" lon="17.830858">
        <ele>27.0543</ele>
        <time>2013-04-20T18:38:07Z</time>
      </trkpt>
      <trkpt lat="59.9313364" lon="17.8309732">
        <ele>27.0543</ele>
        <time>2013-04-20T18:38:08Z</time>
      </trkpt>
      <trkpt lat="59.9312869" lon="17.8310856">
        <ele>27.0543</ele>
        <time>2013-04-20T18:38:09Z</time>
      </trkpt>
      <trkpt lat="59.9312358" lon="17.831194">
        <ele>27.0543</ele>
        <time>2013-04-20T18:38:10Z</time>
      </trkpt>
      <trkpt lat="59.9311843" lon="17.831299">
        <ele>27.0543</ele>
        <time>2013-04-20T18:38:11Z</time>
      </trkpt>
      <trkpt lat="59.931132" lon="17.8314009">
        <ele>27.5349</ele>
        <time>2013-04-20T18:38:12Z</time>
      </trkpt>
      <trkpt lat="59.9310782" lon="17.8314968">
        <ele>27.5349</ele>
        <time>2013-04-20T18:38:13Z</time>
      </trkpt>
      <trkpt lat="59.9310237" lon="17.8315875">
        <ele>27.5349</ele>
        <time>2013-04-20T18:38:14Z</time>
      </trkpt>
      <trkpt lat="59.9309699" lon="17.831677">
        <ele>27.5349</ele>
        <time>2013-04-20T18:38:15Z</time>
      </trkpt>
      <trkpt lat="59.9309155" lon="17.8317646">
        <ele>27.5349</ele>
        <time>2013-04-20T18:38:16Z</time>
      </trkpt>
      <trkpt lat="59.9308611" lon="17.8318486">
        <ele>27.5349</ele>
        <time>2013-04-20T18:38:17Z</time>
      </trkpt>
      <trkpt lat="59.9308074" lon="17.8319305">
        <ele>28.0155</ele>
        <time>2013-04-20T18:38:18Z</time>
      </trkpt>
      <trkpt lat="59.9307544" lon="17.8320121">
        <ele>28.0155</ele>
        <time>2013-04-20T18:38:19Z</time>
      </trkpt>
      <trkpt lat="59.9307011" lon="17.8320922">
        <ele>28.0155</ele>
        <time>2013-04-20T18:38:20Z</time>
      </trkpt>
      <trkpt lat="59.930648" lon="17.8321703">
        <ele>28.4962</ele>
        <time>2013-04-20T18:38:21Z</time>
      </trkpt>
      <trkpt lat="59.9305942" lon="17.8322465">
        <ele>28.0155</ele>
        <time>2013-04-20T18:38:22Z</time>
      </trkpt>
      <trkpt lat="59.9305411" lon="17.8323229">
        <ele>28.0155</ele>
        <time>2013-04-20T18:38:23Z</time>
      </trkpt>
      <trkpt lat="59.9304887" lon="17.8324023">
        <ele>28.4962</ele>
        <time>2013-04-20T18:38:24Z</time>
      </trkpt>
      <trkpt lat="59.9304349" lon="17.832482">
        <ele>28.4962</ele>
        <time>2013-04-20T18:38:25Z</time>
      </trkpt>
      <trkpt lat="59.9303815" lon="17.8325639">
        <ele>28.4962</ele>
        <time>2013-04-20T18:38:26Z</time>
      </trkpt>
      <trkpt lat="59.9303266" lon="17.8326483">
        <ele>28.4962</ele>
        <time>2013-04-20T18:38:27Z</time>
      </trkpt>
      <trkpt lat="59.9302706" lon="17.8327325">
        <ele>28.4962</ele>
        <time>2013-04-20T18:38:28Z</time>
      </trkpt>
      <trkpt lat="59.9302141" lon="17.8328183">
        <ele>28.4962</ele>
        <time>2013-04-20T18:38:29Z</time>
      </trkpt>
      <trkpt lat="59.9301571" lon="17.8329072">
        <ele>28.4962</ele>
        <time>2013-04-20T18:38:30Z</time>
      </trkpt>
      <trkpt lat="59.930101" lon="17.8329994">
        <ele>28.4962</ele>
        <time>2013-04-20T18:38:31Z</time>
      </trkpt>
      <trkpt lat="59.9300442" lon="17.8330922">
        <ele>28.4962</ele>
        <time>2013-04-20T18:38:32Z</time>
      </trkpt>
      <trkpt lat="59.9299861" lon="17.8331859">
        <ele>28.4962</ele>
        <time>2013-04-20T18:38:33Z</time>
      </trkpt>
      <trkpt lat="59.9299288" lon="17.8332808">
        <ele>28.4962</ele>
        <time>2013-04-20T18:38:34Z</time>
      </trkpt>
      <trkpt lat="59.9298715" lon="17.8333751">
        <ele>28.4962</ele>
        <time>2013-04-20T18:38:35Z</time>
      </trkpt>
      <trkpt lat="59.9298135" lon="17.8334688">
        <ele>28.4962</ele>
        <time>2013-04-20T18:38:36Z</time>
      </trkpt>
      <trkpt lat="59.9297552" lon="17.8335622">
        <ele>28.4962</ele>
        <time>2013-04-20T18:38:37Z</time>
      </trkpt>
      <trkpt lat="59.9296987" lon="17.8336564">
        <ele>28.9769</ele>
        <time>2013-04-20T18:38:38Z</time>
      </trkpt>
      <trkpt lat="59.9296417" lon="17.8337497">
        <ele>28.9769</ele>
        <time>2013-04-20T18:38:39Z</time>
      </trkpt>
      <trkpt lat="59.9295852" lon="17.8338408">
        <ele>29.4575</ele>
        <time>2013-04-20T18:38:40Z</time>
      </trkpt>
      <trkpt lat="59.9295282" lon="17.8339291">
        <ele>29.4575</ele>
        <time>2013-04-20T18:38:41Z</time>
      </trkpt>
      <trkpt lat="59.9294708" lon="17.8340161">
        <ele>29.4575</ele>
        <time>2013-04-20T18:38:42Z</time>
      </trkpt>
      <trkpt lat="59.9294128" lon="17.8341041">
        <ele>29.4575</ele>
        <time>2013-04-20T18:38:43Z</time>
      </trkpt>
      <trkpt lat="59.9293537" lon="17.8341937">
        <ele>29.4575</ele>
        <time>2013-04-20T18:38:44Z</time>
      </trkpt>
      <trkpt lat="59.929293" lon="17.8342831">
        <ele>29.4575</ele>
        <time>2013-04-20T18:38:45Z</time>
      </trkpt>
      <trkpt lat="59.9292299" lon="17.8343709">
        <ele>29.4575</ele>
        <time>2013-04-20T18:38:46Z</time>
      </trkpt>
      <trkpt lat="59.9291661" lon="17.8344569">
        <ele>29.4575</ele>
        <time>2013-04-20T18:38:47Z</time>
      </trkpt>
      <trkpt lat="59.9290993" lon="17.8345388">
        <ele>29.4575</ele>
        <time>2013-04-20T18:38:48Z</time>
      </trkpt>
      <trkpt lat="59.9290309" lon="17.834619">
        <ele>29.4575</ele>
        <time>2013-04-20T18:38:49Z</time>
      </trkpt>
      <trkpt lat="59.9289632" lon="17.8347004">
        <ele>29.4575</ele>
        <time>2013-04-20T18:38:50Z</time>
      </trkpt>
      <trkpt lat="59.9288963" lon="17.8347826">
        <ele>29.4575</ele>
        <time>2013-04-20T18:38:51Z</time>
      </trkpt>
      <trkpt lat="59.9288301" lon="17.8348665">
        <ele>29.4575</ele>
        <time>2013-04-20T18:38:52Z</time>
      </trkpt>
      <trkpt lat="59.9287653" lon="17.8349545">
        <ele>28.9769</ele>
        <time>2013-04-20T18:38:53Z</time>
      </trkpt>
      <trkpt lat="59.9287015" lon="17.8350458">
        <ele>29.4575</ele>
        <time>2013-04-20T18:38:54Z</time>
      </trkpt>
      <trkpt lat="59.9286381" lon="17.835139">
        <ele>29.4575</ele>
        <time>2013-04-20T18:38:55Z</time>
      </trkpt>
      <trkpt lat="59.9285749" lon="17.8352328">
        <ele>29.4575</ele>
        <time>2013-04-20T18:38:56Z</time>
      </trkpt>
      <trkpt lat="59.9285119" lon="17.8353261">
        <ele>29.4575</ele>
        <time>2013-04-20T18:38:57Z</time>
      </trkpt>
      <trkpt lat="59.9284497" lon="17.8354203">
        <ele>29.4575</ele>
        <time>2013-04-20T18:38:58Z</time>
      </trkpt>
      <trkpt lat="59.9283869" lon="17.8355136">
        <ele>29.4575</ele>
        <time>2013-04-20T18:38:59Z</time>
      </trkpt>
      <trkpt lat="59.9283235" lon="17.8356046">
        <ele>29.4575</ele>
        <time>2013-04-20T18:39:00Z</time>
      </trkpt>
      <trkpt lat="59.9282598" lon="17.8356952">
        <ele>29.4575</ele>
        <time>2013-04-20T18:39:01Z</time>
      </trkpt>
      <trkpt lat="59.9281965" lon="17.8357864">
        <ele>29.4575</ele>
        <time>2013-04-20T18:39:02Z</time>
      </trkpt>
      <trkpt lat="59.9281332" lon="17.8358777">
        <ele>29.4575</ele>
        <time>2013-04-20T18:39:03Z</time>
      </trkpt>
      <trkpt lat="59.9280711" lon="17.835971">
        <ele>29.4575</ele>
        <time>2013-04-20T18:39:04Z</time>
      </trkpt>
      <trkpt lat="59.9280099" lon="17.8360673">
        <ele>29.4575</ele>
        <time>2013-04-20T18:39:05Z</time>
      </trkpt>
      <trkpt lat="59.9279489" lon="17.8361638">
        <ele>29.9381</ele>
        <time>2013-04-20T18:39:06Z</time>
      </trkpt>
      <trkpt lat="59.927887" lon="17.8362626">
        <ele>29.4575</ele>
        <time>2013-04-20T18:39:07Z</time>
      </trkpt>
      <trkpt lat="59.9278288" lon="17.8363605">
        <ele>29.9381</ele>
        <time>2013-04-20T18:39:08Z</time>
      </trkpt>
      <trkpt lat="59.9277701" lon="17.8364584">
        <ele>30.4188</ele>
        <time>2013-04-20T18:39:09Z</time>
      </trkpt>
      <trkpt lat="59.9277126" lon="17.8365553">
        <ele>30.4188</ele>
        <time>2013-04-20T18:39:10Z</time>
      </trkpt>
      <trkpt lat="59.927653" lon="17.8366475">
        <ele>30.4188</ele>
        <time>2013-04-20T18:39:11Z</time>
      </trkpt>
      <trkpt lat="59.9275931" lon="17.8367372">
        <ele>30.8995</ele>
        <time>2013-04-20T18:39:12Z</time>
      </trkpt>
      <trkpt lat="59.9275345" lon="17.8368231">
        <ele>30.8995</ele>
        <time>2013-04-20T18:39:13Z</time>
      </trkpt>
      <trkpt lat="59.9274723" lon="17.836909">
        <ele>30.8995</ele>
        <time>2013-04-20T18:39:14Z</time>
      </trkpt>
      <trkpt lat="59.9274073" lon="17.8369955">
        <ele>30.4188</ele>
        <time>2013-04-20T18:39:15Z</time>
      </trkpt>
      <trkpt lat="59.9273412" lon="17.8370821">
        <ele>30.4188</ele>
        <time>2013-04-20T18:39:16Z</time>
      </trkpt>
      <trkpt lat="59.927273" lon="17.8371681">
        <ele>30.4188</ele>
        <time>2013-04-20T18:39:17Z</time>
      </trkpt>
      <trkpt lat="59.9272038" lon="17.8372549">
        <ele>29.9381</ele>
        <time>2013-04-20T18:39:18Z</time>
      </trkpt>
      <trkpt lat="59.9271396" lon="17.8373451">
        <ele>29.9381</ele>
        <time>2013-04-20T18:39:19Z</time>
      </trkpt>
      <trkpt lat="59.9270754" lon="17.8374367">
        <ele>29.9381</ele>
        <time>2013-04-20T18:39:20Z</time>
      </trkpt>
      <trkpt lat="59.9270118" lon="17.8375274">
        <ele>29.9381</ele>
        <time>2013-04-20T18:39:21Z</time>
      </trkpt>
      <trkpt lat="59.9269465" lon="17.8376062">
        <ele>29.4575</ele>
        <time>2013-04-20T18:39:22Z</time>
      </trkpt>
      <trkpt lat="59.9268771" lon="17.8376755">
        <ele>28.9769</ele>
        <time>2013-04-20T18:39:23Z</time>
      </trkpt>
      <trkpt lat="59.926809" lon="17.8377295">
        <ele>28.4962</ele>
        <time>2013-04-20T18:39:24Z</time>
      </trkpt>
      <trkpt lat="59.9267361" lon="17.8377721">
        <ele>27.5349</ele>
        <time>2013-04-20T18:39:25Z</time>
      </trkpt>
      <trkpt lat="59.9266656" lon="17.8378304">
        <ele>27.0543</ele>
        <time>2013-04-20T18:39:26Z</time>
      </trkpt>
      <trkpt lat="59.9265876" lon="17.8379062">
        <ele>26.5736</ele>
        <time>2013-04-20T18:39:27Z</time>
      </trkpt>
      <trkpt lat="59.9265068" lon="17.8380031">
        <ele>25.6123</ele>
        <time>2013-04-20T18:39:28Z</time>
      </trkpt>
      <trkpt lat="59.9264362" lon="17.8381279">
        <ele>25.1317</ele>
        <time>2013-04-20T18:39:29Z</time>
      </trkpt>
      <trkpt lat="59.9263708" lon="17.8382627">
        <ele>24.651</ele>
        <time>2013-04-20T18:39:30Z</time>
      </trkpt>
      <trkpt lat="59.9263072" lon="17.8384004">
        <ele>24.1703</ele>
        <time>2013-04-20T18:39:31Z</time>
      </trkpt>
      <trkpt lat="59.9262411" lon="17.8385346">
        <ele>23.6896</ele>
        <time>2013-04-20T18:39:32Z</time>
      </trkpt>
      <trkpt lat="59.9261783" lon="17.8386724">
        <ele>23.209</ele>
        <time>2013-04-20T18:39:33Z</time>
      </trkpt>
      <trkpt lat="59.926115" lon="17.8388081">
        <ele>23.209</ele>
        <time>2013-04-20T18:39:34Z</time>
      </trkpt>
      <trkpt lat="59.9260509" lon="17.8389397">
        <ele>22.7283</ele>
        <time>2013-04-20T18:39:35Z</time>
      </trkpt>
      <trkpt lat="59.9259841" lon="17.8390667">
        <ele>22.7283</ele>
        <time>2013-04-20T18:39:36Z</time>
      </trkpt>
      <trkpt lat="59.9259134" lon="17.839184">
        <ele>22.7283</ele>
        <time>2013-04-20T18:39:37Z</time>
      </trkpt>
      <trkpt lat="59.9258381" lon="17.8392816">
        <ele>22.2476</ele>
        <time>2013-04-20T18:39:38Z</time>
      </trkpt>
      <trkpt lat="59.9257567" lon="17.8393515">
        <ele>22.2476</ele>
        <time>2013-04-20T18:39:39Z</time>
      </trkpt>
      <trkpt lat="59.9256716" lon="17.8393858">
        <ele>22.2476</ele>
        <time>2013-04-20T18:39:40Z</time>
      </trkpt>
      <trkpt lat="59.9255862" lon="17.8393946">
        <ele>22.2476</ele>
        <time>2013-04-20T18:39:41Z</time>
      </trkpt>
      <trkpt lat="59.9255006" lon="17.8393891">
        <ele>22.2476</ele>
        <time>2013-04-20T18:39:42Z</time>
      </trkpt>
      <trkpt lat="59.9254189" lon="17.8393789">
        <ele>22.7283</ele>
        <time>2013-04-20T18:39:43Z</time>
      </trkpt>
      <trkpt lat="59.9253392" lon="17.8393713">
        <ele>22.7283</ele>
        <time>2013-04-20T18:39:44Z</time>
      </trkpt>
      <trkpt lat="59.9252583" lon="17.8393643">
        <ele>23.209</ele>
        <time>2013-04-20T18:39:45Z</time>
      </trkpt>
      <trkpt lat="59.9251789" lon="17.8393618">
        <ele>23.209</ele>
        <time>2013-04-20T18:39:46Z</time>
      </trkpt>
      <trkpt lat="59.9251014" lon="17.8393629">
        <ele>23.209</ele>
        <time>2013-04-20T18:39:47Z</time>
      </trkpt>
      <trkpt lat="59.9250215" lon="17.839364">
        <ele>23.209</ele>
        <time>2013-04-20T18:39:48Z</time>
      </trkpt>
      <trkpt lat="59.9249408" lon="17.8393679">
        <ele>23.209</ele>
        <time>2013-04-20T18:39:49Z</time>
      </trkpt>
      <trkpt lat="59.9248595" lon="17.8393708">
        <ele>23.209</ele>
        <time>2013-04-20T18:39:50Z</time>
      </trkpt>
      <trkpt lat="59.9247776" lon="17.8393764">
        <ele>22.7283</ele>
        <time>2013-04-20T18:39:51Z</time>
      </trkpt>
      <trkpt lat="59.9246958" lon="17.8393863">
        <ele>22.7283</ele>
        <time>2013-04-20T18:39:52Z</time>
      </trkpt>
      <trkpt lat="59.9246133" lon="17.8393986">
        <ele>22.7283</ele>
        <time>2013-04-20T18:39:53Z</time>
      </trkpt>
      <trkpt lat="59.924531" lon="17.8394121">
        <ele>22.2476</ele>
        <time>2013-04-20T18:39:54Z</time>
      </trkpt>
      <trkpt lat="59.9244485" lon="17.8394298">
        <ele>22.2476</ele>
        <time>2013-04-20T18:39:55Z</time>
      </trkpt>
      <trkpt lat="59.9243653" lon="17.8394503">
        <ele>22.2476</ele>
        <time>2013-04-20T18:39:56Z</time>
      </trkpt>
      <trkpt lat="59.9242817" lon="17.8394707">
        <ele>22.2476</ele>
        <time>2013-04-20T18:39:57Z</time>
      </trkpt>
      <trkpt lat="59.924198" lon="17.8394937">
        <ele>21.767</ele>
        <time>2013-04-20T18:39:58Z</time>
      </trkpt>
      <trkpt lat="59.924114" lon="17.8395199">
        <ele>21.767</ele>
        <time>2013-04-20T18:39:59Z</time>
      </trkpt>
      <trkpt lat="59.9240305" lon="17.8395488">
        <ele>21.767</ele>
        <time>2013-04-20T18:40:00Z</time>
      </trkpt>
      <trkpt lat="59.9239473" lon="17.8395805">
        <ele>21.767</ele>
        <time>2013-04-20T18:40:01Z</time>
      </trkpt>
      <trkpt lat="59.9238644" lon="17.8396142">
        <ele>21.767</ele>
        <time>2013-04-20T18:40:02Z</time>
      </trkpt>
      <trkpt lat="59.9237819" lon="17.8396497">
        <ele>21.767</ele>
        <time>2013-04-20T18:40:03Z</time>
      </trkpt>
      <trkpt lat="59.9237" lon="17.8396861">
        <ele>21.767</ele>
        <time>2013-04-20T18:40:04Z</time>
      </trkpt>
      <trkpt lat="59.9236169" lon="17.8397234">
        <ele>21.767</ele>
        <time>2013-04-20T18:40:05Z</time>
      </trkpt>
      <trkpt lat="59.9235335" lon="17.8397628">
        <ele>21.767</ele>
        <time>2013-04-20T18:40:06Z</time>
      </trkpt>
      <trkpt lat="59.9234513" lon="17.8398047">
        <ele>21.767</ele>
        <time>2013-04-20T18:40:07Z</time>
      </trkpt>
      <trkpt lat="59.9233707" lon="17.8398476">
        <ele>21.767</ele>
        <time>2013-04-20T18:40:08Z</time>
      </trkpt>
      <trkpt lat="59.9232909" lon="17.8398914">
        <ele>21.767</ele>
        <time>2013-04-20T18:40:09Z</time>
      </trkpt>
      <trkpt lat="59.9232106" lon="17.8399359">
        <ele>21.767</ele>
        <time>2013-04-20T18:40:10Z</time>
      </trkpt>
      <trkpt lat="59.923131" lon="17.8399805">
        <ele>21.2864</ele>
        <time>2013-04-20T18:40:11Z</time>
      </trkpt>
      <trkpt lat="59.9230525" lon="17.8400273">
        <ele>21.2864</ele>
        <time>2013-04-20T18:40:12Z</time>
      </trkpt>
      <trkpt lat="59.922974" lon="17.8400745">
        <ele>21.2864</ele>
        <time>2013-04-20T18:40:13Z</time>
      </trkpt>
      <trkpt lat="59.9228956" lon="17.8401169">
        <ele>21.2864</ele>
        <time>2013-04-20T18:40:14Z</time>
      </trkpt>
      <trkpt lat="59.9228171" lon="17.8401564">
        <ele>21.2864</ele>
        <time>2013-04-20T18:40:15Z</time>
      </trkpt>
      <trkpt lat="59.9227383" lon="17.8401985">
        <ele>21.2864</ele>
        <time>2013-04-20T18:40:16Z</time>
      </trkpt>
      <trkpt lat="59.9226594" lon="17.8402417">
        <ele>20.8057</ele>
        <time>2013-04-20T18:40:17Z</time>
      </trkpt>
      <trkpt lat="59.9225806" lon="17.8402843">
        <ele>20.8057</ele>
        <time>2013-04-20T18:40:18Z</time>
      </trkpt>
      <trkpt lat="59.9225015" lon="17.8403247">
        <ele>20.8057</ele>
        <time>2013-04-20T18:40:19Z</time>
      </trkpt>
      <trkpt lat="59.9224216" lon="17.8403616">
        <ele>20.8057</ele>
        <time>2013-04-20T18:40:20Z</time>
      </trkpt>
      <trkpt lat="59.9223403" lon="17.8403958">
        <ele>20.325</ele>
        <time>2013-04-20T18:40:21Z</time>
      </trkpt>
      <trkpt lat="59.9222581" lon="17.8404248">
        <ele>20.325</ele>
        <time>2013-04-20T18:40:22Z</time>
      </trkpt>
      <trkpt lat="59.9221761" lon="17.8404501">
        <ele>20.325</ele>
        <time>2013-04-20T18:40:23Z</time>
      </trkpt>
      <trkpt lat="59.9220939" lon="17.8404745">
        <ele>20.325</ele>
        <time>2013-04-20T18:40:24Z</time>
      </trkpt>
      <trkpt lat="59.922012" lon="17.840499">
        <ele>20.325</ele>
        <time>2013-04-20T18:40:25Z</time>
      </trkpt>
      <trkpt lat="59.9219301" lon="17.8405243">
        <ele>20.325</ele>
        <time>2013-04-20T18:40:26Z</time>
      </trkpt>
      <trkpt lat="59.9218482" lon="17.8405507">
        <ele>20.325</ele>
        <time>2013-04-20T18:40:27Z</time>
      </trkpt>
      <trkpt lat="59.9217665" lon="17.840576">
        <ele>19.8444</ele>
        <time>2013-04-20T18:40:28Z</time>
      </trkpt>
      <trkpt lat="59.9216841" lon="17.8405973">
        <ele>19.8444</ele>
        <time>2013-04-20T18:40:29Z</time>
      </trkpt>
      <trkpt lat="59.921601" lon="17.8406159">
        <ele>19.8444</ele>
        <time>2013-04-20T18:40:30Z</time>
      </trkpt>
      <trkpt lat="59.9215183" lon="17.8406345">
        <ele>19.8444</ele>
        <time>2013-04-20T18:40:31Z</time>
      </trkpt>
      <trkpt lat="59.9214358" lon="17.8406511">
        <ele>19.8444</ele>
        <time>2013-04-20T18:40:32Z</time>
      </trkpt>
      <trkpt lat="59.9213529" lon="17.8406646">
        <ele>19.8444</ele>
        <time>2013-04-20T18:40:33Z</time>
      </trkpt>
      <trkpt lat="59.9212702" lon="17.840676">
        <ele>19.8444</ele>
        <time>2013-04-20T18:40:34Z</time>
      </trkpt>
      <trkpt lat="59.9211877" lon="17.8406859">
        <ele>19.8444</ele>
        <time>2013-04-20T18:40:35Z</time>
      </trkpt>
      <trkpt lat="59.9211057" lon="17.8406917">
        <ele>19.8444</ele>
        <time>2013-04-20T18:40:36Z</time>
      </trkpt>
      <trkpt lat="59.9210242" lon="17.8406947">
        <ele>19.8444</ele>
        <time>2013-04-20T18:40:37Z</time>
      </trkpt>
      <trkpt lat="59.9209434" lon="17.8406972">
        <ele>19.8444</ele>
        <time>2013-04-20T18:40:38Z</time>
      </trkpt>
      <trkpt lat="59.9208628" lon="17.8407005">
        <ele>19.8444</ele>
        <time>2013-04-20T18:40:39Z</time>
      </trkpt>
      <trkpt lat="59.920782" lon="17.8407066">
        <ele>19.8444</ele>
        <time>2013-04-20T18:40:40Z</time>
      </trkpt>
      <trkpt lat="59.9207009" lon="17.8407133">
        <ele>19.8444</ele>
        <time>2013-04-20T18:40:41Z</time>
      </trkpt>
      <trkpt lat="59.9206219" lon="17.8407205">
        <ele>19.8444</ele>
        <time>2013-04-20T18:40:42Z</time>
      </trkpt>
      <trkpt lat="59.9205447" lon="17.8407294">
        <ele>19.8444</ele>
        <time>2013-04-20T18:40:43Z</time>
      </trkpt>
      <trkpt lat="59.9204681" lon="17.8407382">
        <ele>19.3638</ele>
        <time>2013-04-20T18:40:44Z</time>
      </trkpt>
      <trkpt lat="59.9203943" lon="17.8407434">
        <ele>19.3638</ele>
        <time>2013-04-20T18:40:45Z</time>
      </trkpt>
      <trkpt lat="59.9203248" lon="17.8407494">
        <ele>19.8444</ele>
        <time>2013-04-20T18:40:46Z</time>
      </trkpt>
      <trkpt lat="59.9202563" lon="17.8407537">
        <ele>19.8444</ele>
        <time>2013-04-20T18:40:47Z</time>
      </trkpt>
      <trkpt lat="59.9201866" lon="17.8407548">
        <ele>19.8444</ele>
        <time>2013-04-20T18:40:48Z</time>
      </trkpt>
      <trkpt lat="59.9201134" lon="17.8407532">
        <ele>19.3638</ele>
        <time>2013-04-20T18:40:49Z</time>
      </trkpt>
      <trkpt lat="59.9200404" lon="17.8407546">
        <ele>19.3638</ele>
        <time>2013-04-20T18:40:50Z</time>
      </trkpt>
      <trkpt lat="59.919967" lon="17.8407579">
        <ele>18.8831</ele>
        <time>2013-04-20T18:40:51Z</time>
      </trkpt>
      <trkpt lat="59.9198879" lon="17.8407564">
        <ele>18.8831</ele>
        <time>2013-04-20T18:40:52Z</time>
      </trkpt>
      <trkpt lat="59.9198084" lon="17.8407616">
        <ele>17.9218</ele>
        <time>2013-04-20T18:40:53Z</time>
      </trkpt>
      <trkpt lat="59.9197287" lon="17.8407763">
        <ele>17.4412</ele>
        <time>2013-04-20T18:40:54Z</time>
      </trkpt>
      <trkpt lat="59.9196488" lon="17.8407994">
        <ele>17.4412</ele>
        <time>2013-04-20T18:40:55Z</time>
      </trkpt>
      <trkpt lat="59.9195705" lon="17.8408315">
        <ele>16.9604</ele>
        <time>2013-04-20T18:40:56Z</time>
      </trkpt>
      <trkpt lat="59.9194938" lon="17.8408717">
        <ele>16.4797</ele>
        <time>2013-04-20T18:40:57Z</time>
      </trkpt>
      <trkpt lat="59.9194172" lon="17.84092">
        <ele>16.4797</ele>
        <time>2013-04-20T18:40:58Z</time>
      </trkpt>
      <trkpt lat="59.9193401" lon="17.8409687">
        <ele>15.999</ele>
        <time>2013-04-20T18:40:59Z</time>
      </trkpt>
      <trkpt lat="59.9192632" lon="17.8410204">
        <ele>15.999</ele>
        <time>2013-04-20T18:41:00Z</time>
      </trkpt>
      <trkpt lat="59.9191853" lon="17.8410727">
        <ele>15.5184</ele>
        <time>2013-04-20T18:41:01Z</time>
      </trkpt>
      <trkpt lat="59.9191079" lon="17.8411241">
        <ele>15.5184</ele>
        <time>2013-04-20T18:41:02Z</time>
      </trkpt>
      <trkpt lat="59.9190302" lon="17.841176">
        <ele>15.0377</ele>
        <time>2013-04-20T18:41:03Z</time>
      </trkpt>
      <trkpt lat="59.9189527" lon="17.8412294">
        <ele>15.0377</ele>
        <time>2013-04-20T18:41:04Z</time>
      </trkpt>
      <trkpt lat="59.918877" lon="17.8412846">
        <ele>15.0377</ele>
        <time>2013-04-20T18:41:05Z</time>
      </trkpt>
      <trkpt lat="59.9188023" lon="17.8413401">
        <ele>15.0377</ele>
        <time>2013-04-20T18:41:06Z</time>
      </trkpt>
      <trkpt lat="59.9187279" lon="17.8413956">
        <ele>15.0377</ele>
        <time>2013-04-20T18:41:07Z</time>
      </trkpt>
      <trkpt lat="59.9186542" lon="17.8414534">
        <ele>15.0377</ele>
        <time>2013-04-20T18:41:08Z</time>
      </trkpt>
      <trkpt lat="59.9185812" lon="17.841513">
        <ele>15.0377</ele>
        <time>2013-04-20T18:41:09Z</time>
      </trkpt>
      <trkpt lat="59.918508" lon="17.8415754">
        <ele>15.0377</ele>
        <time>2013-04-20T18:41:10Z</time>
      </trkpt>
      <trkpt lat="59.9184324" lon="17.8416401">
        <ele>15.0377</ele>
        <time>2013-04-20T18:41:11Z</time>
      </trkpt>
      <trkpt lat="59.9183595" lon="17.8417073">
        <ele>15.5184</ele>
        <time>2013-04-20T18:41:12Z</time>
      </trkpt>
      <trkpt lat="59.9182883" lon="17.8417768">
        <ele>15.999</ele>
        <time>2013-04-20T18:41:13Z</time>
      </trkpt>
      <trkpt lat="59.9182199" lon="17.8418462">
        <ele>15.999</ele>
        <time>2013-04-20T18:41:14Z</time>
      </trkpt>
      <trkpt lat="59.9181532" lon="17.8419133">
        <ele>15.999</ele>
        <time>2013-04-20T18:41:15Z</time>
      </trkpt>
      <trkpt lat="59.9180889" lon="17.8419834">
        <ele>15.999</ele>
        <time>2013-04-20T18:41:16Z</time>
      </trkpt>
      <trkpt lat="59.9180251" lon="17.8420517">
        <ele>15.999</ele>
        <time>2013-04-20T18:41:17Z</time>
      </trkpt>
      <trkpt lat="59.9179606" lon="17.8421228">
        <ele>16.4797</ele>
        <time>2013-04-20T18:41:18Z</time>
      </trkpt>
      <trkpt lat="59.9178963" lon="17.8421938">
        <ele>16.4797</ele>
        <time>2013-04-20T18:41:19Z</time>
      </trkpt>
      <trkpt lat="59.9178321" lon="17.8422641">
        <ele>16.9604</ele>
        <time>2013-04-20T18:41:20Z</time>
      </trkpt>
      <trkpt lat="59.9177699" lon="17.8423288">
        <ele>16.9604</ele>
        <time>2013-04-20T18:41:21Z</time>
      </trkpt>
      <trkpt lat="59.9177064" lon="17.8423953">
        <ele>16.9604</ele>
        <time>2013-04-20T18:41:22Z</time>
      </trkpt>
      <trkpt lat="59.9176456" lon="17.842461">
        <ele>16.9604</ele>
        <time>2013-04-20T18:41:23Z</time>
      </trkpt>
      <trkpt lat="59.9175867" lon="17.8425244">
        <ele>16.9604</ele>
        <time>2013-04-20T18:41:24Z</time>
      </trkpt>
      <trkpt lat="59.9175214" lon="17.8425797">
        <ele>16.9604</ele>
        <time>2013-04-20T18:41:25Z</time>
      </trkpt>
      <trkpt lat="59.9174522" lon="17.8426347">
        <ele>16.4797</ele>
        <time>2013-04-20T18:41:26Z</time>
      </trkpt>
      <trkpt lat="59.9173854" lon="17.8426942">
        <ele>16.4797</ele>
        <time>2013-04-20T18:41:27Z</time>
      </trkpt>
      <trkpt lat="59.9173089" lon="17.842758">
        <ele>16.4797</ele>
        <time>2013-04-20T18:41:28Z</time>
      </trkpt>
      <trkpt lat="59.9172443" lon="17.842817">
        <ele>16.4797</ele>
        <time>2013-04-20T18:41:29Z</time>
      </trkpt>
      <trkpt lat="59.9171774" lon="17.8428776">
        <ele>16.4797</ele>
        <time>2013-04-20T18:41:30Z</time>
      </trkpt>
      <trkpt lat="59.9171141" lon="17.8429299">
        <ele>16.4797</ele>
        <time>2013-04-20T18:41:31Z</time>
      </trkpt>
      <trkpt lat="59.9170397" lon="17.8429755">
        <ele>16.4797</ele>
        <time>2013-04-20T18:41:32Z</time>
      </trkpt>
      <trkpt lat="59.9169639" lon="17.8429961">
        <ele>16.4797</ele>
        <time>2013-04-20T18:41:33Z</time>
      </trkpt>
      <trkpt lat="59.916893" lon="17.8429774">
        <ele>16.4797</ele>
        <time>2013-04-20T18:41:34Z</time>
      </trkpt>
      <trkpt lat="59.9168325" lon="17.8429255">
        <ele>15.999</ele>
        <time>2013-04-20T18:41:35Z</time>
      </trkpt>
      <trkpt lat="59.9167721" lon="17.8428463">
        <ele>15.5184</ele>
        <time>2013-04-20T18:41:36Z</time>
      </trkpt>
      <trkpt lat="59.9167122" lon="17.8427551">
        <ele>15.5184</ele>
        <time>2013-04-20T18:41:37Z</time>
      </trkpt>
      <trkpt lat="59.9166563" lon="17.842661">
        <ele>15.0377</ele>
        <time>2013-04-20T18:41:38Z</time>
      </trkpt>
      <trkpt lat="59.9165986" lon="17.842566">
        <ele>15.5184</ele>
        <time>2013-04-20T18:41:39Z</time>
      </trkpt>
      <trkpt lat="59.9165401" lon="17.8424707">
        <ele>15.5184</ele>
        <time>2013-04-20T18:41:40Z</time>
      </trkpt>
      <trkpt lat="59.9164811" lon="17.8423749">
        <ele>15.5184</ele>
        <time>2013-04-20T18:41:41Z</time>
      </trkpt>
      <trkpt lat="59.9164225" lon="17.8422791">
        <ele>15.5184</ele>
        <time>2013-04-20T18:41:42Z</time>
      </trkpt>
      <trkpt lat="59.9163621" lon="17.842185">
        <ele>15.5184</ele>
        <time>2013-04-20T18:41:43Z</time>
      </trkpt>
      <trkpt lat="59.9163008" lon="17.8420855">
        <ele>15.5184</ele>
        <time>2013-04-20T18:41:44Z</time>
      </trkpt>
      <trkpt lat="59.9162321" lon="17.8419839">
        <ele>16.4797</ele>
        <time>2013-04-20T18:41:45Z</time>
      </trkpt>
      <trkpt lat="59.9161595" lon="17.841897">
        <ele>16.9604</ele>
        <time>2013-04-20T18:41:46Z</time>
      </trkpt>
      <trkpt lat="59.9160819" lon="17.8418354">
        <ele>17.9218</ele>
        <time>2013-04-20T18:41:47Z</time>
      </trkpt>
      <trkpt lat="59.9160004" lon="17.8417949">
        <ele>18.4023</ele>
        <time>2013-04-20T18:41:48Z</time>
      </trkpt>
      <trkpt lat="59.9159166" lon="17.8417735">
        <ele>18.4023</ele>
        <time>2013-04-20T18:41:49Z</time>
      </trkpt>
      <trkpt lat="59.9158336" lon="17.8417647">
        <ele>18.4023</ele>
        <time>2013-04-20T18:41:50Z</time>
      </trkpt>
      <trkpt lat="59.9157492" lon="17.8417648">
        <ele>17.4412</ele>
        <time>2013-04-20T18:41:51Z</time>
      </trkpt>
      <trkpt lat="59.9156626" lon="17.8417675">
        <ele>17.4412</ele>
        <time>2013-04-20T18:41:52Z</time>
      </trkpt>
      <trkpt lat="59.9155762" lon="17.8417665">
        <ele>16.9604</ele>
        <time>2013-04-20T18:41:53Z</time>
      </trkpt>
      <trkpt lat="59.9154895" lon="17.8417627">
        <ele>16.9604</ele>
        <time>2013-04-20T18:41:54Z</time>
      </trkpt>
      <trkpt lat="59.9154037" lon="17.8417571">
        <ele>16.4797</ele>
        <time>2013-04-20T18:41:55Z</time>
      </trkpt>
      <trkpt lat="59.9153182" lon="17.8417509">
        <ele>16.4797</ele>
        <time>2013-04-20T18:41:56Z</time>
      </trkpt>
      <trkpt lat="59.9152331" lon="17.8417495">
        <ele>16.4797</ele>
        <time>2013-04-20T18:41:57Z</time>
      </trkpt>
      <trkpt lat="59.9151479" lon="17.8417608">
        <ele>16.4797</ele>
        <time>2013-04-20T18:41:58Z</time>
      </trkpt>
      <trkpt lat="59.9150603" lon="17.8417753">
        <ele>16.4797</ele>
        <time>2013-04-20T18:41:59Z</time>
      </trkpt>
      <trkpt lat="59.9149741" lon="17.84181">
        <ele>15.5184</ele>
        <time>2013-04-20T18:42:00Z</time>
      </trkpt>
      <trkpt lat="59.9148855" lon="17.8418384">
        <ele>15.5184</ele>
        <time>2013-04-20T18:42:01Z</time>
      </trkpt>
      <trkpt lat="59.9148013" lon="17.8418814">
        <ele>15.0377</ele>
        <time>2013-04-20T18:42:02Z</time>
      </trkpt>
      <trkpt lat="59.9147192" lon="17.8419363">
        <ele>14.557</ele>
        <time>2013-04-20T18:42:03Z</time>
      </trkpt>
      <trkpt lat="59.9146396" lon="17.8420005">
        <ele>14.557</ele>
        <time>2013-04-20T18:42:04Z</time>
      </trkpt>
      <trkpt lat="59.914562" lon="17.842075">
        <ele>14.0764</ele>
        <time>2013-04-20T18:42:05Z</time>
      </trkpt>
      <trkpt lat="59.9144857" lon="17.8421599">
        <ele>13.5958</ele>
        <time>2013-04-20T18:42:06Z</time>
      </trkpt>
      <trkpt lat="59.9144116" lon="17.8422524">
        <ele>13.5958</ele>
        <time>2013-04-20T18:42:07Z</time>
      </trkpt>
      <trkpt lat="59.9143392" lon="17.8423497">
        <ele>13.5958</ele>
        <time>2013-04-20T18:42:08Z</time>
      </trkpt>
      <trkpt lat="59.9142649" lon="17.842445">
        <ele>13.5958</ele>
        <time>2013-04-20T18:42:09Z</time>
      </trkpt>
      <trkpt lat="59.9141884" lon="17.8425332">
        <ele>13.1151</ele>
        <time>2013-04-20T18:42:10Z</time>
      </trkpt>
      <trkpt lat="59.9141102" lon="17.8426155">
        <ele>13.1151</ele>
        <time>2013-04-20T18:42:11Z</time>
      </trkpt>
      <trkpt lat="59.9140316" lon="17.842695">
        <ele>13.1151</ele>
        <time>2013-04-20T18:42:12Z</time>
      </trkpt>
      <trkpt lat="59.9139536" lon="17.8427724">
        <ele>13.1151</ele>
        <time>2013-04-20T18:42:13Z</time>
      </trkpt>
      <trkpt lat="59.9138756" lon="17.8428478">
        <ele>13.1151</ele>
        <time>2013-04-20T18:42:14Z</time>
      </trkpt>
      <trkpt lat="59.9137972" lon="17.8429196">
        <ele>13.1151</ele>
        <time>2013-04-20T18:42:15Z</time>
      </trkpt>
      <trkpt lat="59.9137175" lon="17.8429859">
        <ele>12.6344</ele>
        <time>2013-04-20T18:42:16Z</time>
      </trkpt>
      <trkpt lat="59.9136366" lon="17.8430464">
        <ele>12.6344</ele>
        <time>2013-04-20T18:42:17Z</time>
      </trkpt>
      <trkpt lat="59.9135538" lon="17.8431006">
        <ele>12.6344</ele>
        <time>2013-04-20T18:42:18Z</time>
      </trkpt>
      <trkpt lat="59.9134699" lon="17.8431459">
        <ele>12.6344</ele>
        <time>2013-04-20T18:42:19Z</time>
      </trkpt>
      <trkpt lat="59.9133853" lon="17.8431818">
        <ele>12.6344</ele>
        <time>2013-04-20T18:42:20Z</time>
      </trkpt>
      <trkpt lat="59.9132997" lon="17.8432117">
        <ele>13.1151</ele>
        <time>2013-04-20T18:42:21Z</time>
      </trkpt>
      <trkpt lat="59.9132156" lon="17.843239">
        <ele>13.1151</ele>
        <time>2013-04-20T18:42:22Z</time>
      </trkpt>
      <trkpt lat="59.9131313" lon="17.843263">
        <ele>13.5958</ele>
        <time>2013-04-20T18:42:23Z</time>
      </trkpt>
      <trkpt lat="59.9130483" lon="17.8432842">
        <ele>14.0764</ele>
        <time>2013-04-20T18:42:24Z</time>
      </trkpt>
      <trkpt lat="59.9129613" lon="17.8433076">
        <ele>14.0764</ele>
        <time>2013-04-20T18:42:25Z</time>
      </trkpt>
      <trkpt lat="59.912879" lon="17.8433364">
        <ele>15.0377</ele>
        <time>2013-04-20T18:42:26Z</time>
      </trkpt>
      <trkpt lat="59.9127964" lon="17.8433698">
        <ele>15.5184</ele>
        <time>2013-04-20T18:42:27Z</time>
      </trkpt>
      <trkpt lat="59.9127163" lon="17.8434073">
        <ele>15.999</ele>
        <time>2013-04-20T18:42:28Z</time>
      </trkpt>
      <trkpt lat="59.9126382" lon="17.8434556">
        <ele>16.4797</ele>
        <time>2013-04-20T18:42:29Z</time>
      </trkpt>
      <trkpt lat="59.9125615" lon="17.8435168">
        <ele>16.9604</ele>
        <time>2013-04-20T18:42:30Z</time>
      </trkpt>
      <trkpt lat="59.9124895" lon="17.8435945">
        <ele>17.4412</ele>
        <time>2013-04-20T18:42:31Z</time>
      </trkpt>
      <trkpt lat="59.9124164" lon="17.8436765">
        <ele>17.4412</ele>
        <time>2013-04-20T18:42:32Z</time>
      </trkpt>
      <trkpt lat="59.9123413" lon="17.8437539">
        <ele>17.4412</ele>
        <time>2013-04-20T18:42:33Z</time>
      </trkpt>
      <trkpt lat="59.9122657" lon="17.8438337">
        <ele>17.4412</ele>
        <time>2013-04-20T18:42:34Z</time>
      </trkpt>
      <trkpt lat="59.9121936" lon="17.8439103">
        <ele>16.9604</ele>
        <time>2013-04-20T18:42:35Z</time>
      </trkpt>
      <trkpt lat="59.9121185" lon="17.8439831">
        <ele>16.4797</ele>
        <time>2013-04-20T18:42:36Z</time>
      </trkpt>
      <trkpt lat="59.9120409" lon="17.8440467">
        <ele>15.5184</ele>
        <time>2013-04-20T18:42:37Z</time>
      </trkpt>
      <trkpt lat="59.911961" lon="17.844111">
        <ele>15.999</ele>
        <time>2013-04-20T18:42:38Z</time>
      </trkpt>
      <trkpt lat="59.9118795" lon="17.8441519">
        <ele>15.0377</ele>
        <time>2013-04-20T18:42:39Z</time>
      </trkpt>
      <trkpt lat="59.9117964" lon="17.8441897">
        <ele>15.0377</ele>
        <time>2013-04-20T18:42:40Z</time>
      </trkpt>
      <trkpt lat="59.9117114" lon="17.8442108">
        <ele>15.0377</ele>
        <time>2013-04-20T18:42:41Z</time>
      </trkpt>
      <trkpt lat="59.9116268" lon="17.8442211">
        <ele>14.557</ele>
        <time>2013-04-20T18:42:42Z</time>
      </trkpt>
      <trkpt lat="59.9115419" lon="17.8442257">
        <ele>15.0377</ele>
        <time>2013-04-20T18:42:43Z</time>
      </trkpt>
      <trkpt lat="59.9114544" lon="17.8442301">
        <ele>15.5184</ele>
        <time>2013-04-20T18:42:44Z</time>
      </trkpt>
      <trkpt lat="59.9113694" lon="17.8442305">
        <ele>15.5184</ele>
        <time>2013-04-20T18:42:45Z</time>
      </trkpt>
      <trkpt lat="59.9112855" lon="17.8442239">
        <ele>15.5184</ele>
        <time>2013-04-20T18:42:46Z</time>
      </trkpt>
      <trkpt lat="59.9112028" lon="17.8442146">
        <ele>15.999</ele>
        <time>2013-04-20T18:42:47Z</time>
      </trkpt>
      <trkpt lat="59.9111219" lon="17.8442031">
        <ele>15.999</ele>
        <time>2013-04-20T18:42:48Z</time>
      </trkpt>
      <trkpt lat="59.9110453" lon="17.8441799">
        <ele>15.999</ele>
        <time>2013-04-20T18:42:49Z</time>
      </trkpt>
      <trkpt lat="59.9109712" lon="17.8441405">
        <ele>16.4797</ele>
        <time>2013-04-20T18:42:50Z</time>
      </trkpt>
      <trkpt lat="59.9109001" lon="17.844095">
        <ele>15.999</ele>
        <time>2013-04-20T18:42:51Z</time>
      </trkpt>
      <trkpt lat="59.910831" lon="17.8440417">
        <ele>15.5184</ele>
        <time>2013-04-20T18:42:52Z</time>
      </trkpt>
      <trkpt lat="59.910763" lon="17.8439815">
        <ele>15.5184</ele>
        <time>2013-04-20T18:42:53Z</time>
      </trkpt>
      <trkpt lat="59.9107" lon="17.843925">
        <ele>15.0377</ele>
        <time>2013-04-20T18:42:54Z</time>
      </trkpt>
      <trkpt lat="59.9106391" lon="17.8438539">
        <ele>14.557</ele>
        <time>2013-04-20T18:42:55Z</time>
      </trkpt>
      <trkpt lat="59.9105646" lon="17.8437924">
        <ele>14.557</ele>
        <time>2013-04-20T18:42:56Z</time>
      </trkpt>
      <trkpt lat="59.9104949" lon="17.843749">
        <ele>14.0764</ele>
        <time>2013-04-20T18:42:57Z</time>
      </trkpt>
      <trkpt lat="59.9104391" lon="17.8437239">
        <ele>14.0764</ele>
        <time>2013-04-20T18:42:58Z</time>
      </trkpt>
      <trkpt lat="59.9103695" lon="17.843663">
        <ele>14.557</ele>
        <time>2013-04-20T18:42:59Z</time>
      </trkpt>
      <trkpt lat="59.9103087" lon="17.8436083">
        <ele>14.557</ele>
        <time>2013-04-20T18:43:00Z</time>
      </trkpt>
      <trkpt lat="59.9102493" lon="17.8435622">
        <ele>14.557</ele>
        <time>2013-04-20T18:43:01Z</time>
      </trkpt>
      <trkpt lat="59.910204" lon="17.8435266">
        <ele>13.5958</ele>
        <time>2013-04-20T18:43:02Z</time>
      </trkpt>
      <trkpt lat="59.9101423" lon="17.8434843">
        <ele>14.0764</ele>
        <time>2013-04-20T18:43:03Z</time>
      </trkpt>
      <trkpt lat="59.9100864" lon="17.843451">
        <ele>13.5958</ele>
        <time>2013-04-20T18:43:04Z</time>
      </trkpt>
      <trkpt lat="59.9100314" lon="17.8434004">
        <ele>12.6344</ele>
        <time>2013-04-20T18:43:05Z</time>
      </trkpt>
      <trkpt lat="59.909973" lon="17.843338">
        <ele>12.1538</ele>
        <time>2013-04-20T18:43:06Z</time>
      </trkpt>
      <trkpt lat="59.9099176" lon="17.8432817">
        <ele>12.6344</ele>
        <time>2013-04-20T18:43:07Z</time>
      </trkpt>
      <trkpt lat="59.909862" lon="17.8432296">
        <ele>13.5958</ele>
        <time>2013-04-20T18:43:08Z</time>
      </trkpt>
      <trkpt lat="59.9098071" lon="17.8431765">
        <ele>13.5958</ele>
        <time>2013-04-20T18:43:09Z</time>
      </trkpt>
      <trkpt lat="59.9097584" lon="17.8431243">
        <ele>14.0764</ele>
        <time>2013-04-20T18:43:10Z</time>
      </trkpt>
      <trkpt lat="59.9097108" lon="17.8430631">
        <ele>15.0377</ele>
        <time>2013-04-20T18:43:11Z</time>
      </trkpt>
      <trkpt lat="59.9096668" lon="17.8430061">
        <ele>15.0377</ele>
        <time>2013-04-20T18:43:12Z</time>
      </trkpt>
      <trkpt lat="59.9096268" lon="17.8429232">
        <ele>15.0377</ele>
        <time>2013-04-20T18:43:13Z</time>
      </trkpt>
      <trkpt lat="59.9096" lon="17.8428128">
        <ele>15.999</ele>
        <time>2013-04-20T18:43:14Z</time>
      </trkpt>
      <trkpt lat="59.909589" lon="17.8426916">
        <ele>16.4797</ele>
        <time>2013-04-20T18:43:15Z</time>
      </trkpt>
      <trkpt lat="59.9095862" lon="17.8425631">
        <ele>16.4797</ele>
        <time>2013-04-20T18:43:16Z</time>
      </trkpt>
      <trkpt lat="59.9095915" lon="17.8424353">
        <ele>16.4797</ele>
        <time>2013-04-20T18:43:17Z</time>
      </trkpt>
      <trkpt lat="59.9096046" lon="17.8423135">
        <ele>15.5184</ele>
        <time>2013-04-20T18:43:18Z</time>
      </trkpt>
      <trkpt lat="59.9096189" lon="17.84219">
        <ele>14.0764</ele>
        <time>2013-04-20T18:43:19Z</time>
      </trkpt>
      <trkpt lat="59.9096318" lon="17.8420607">
        <ele>13.1151</ele>
        <time>2013-04-20T18:43:20Z</time>
      </trkpt>
      <trkpt lat="59.9096414" lon="17.8419208">
        <ele>11.6732</ele>
        <time>2013-04-20T18:43:21Z</time>
      </trkpt>
      <trkpt lat="59.9096497" lon="17.8417762">
        <ele>10.7118</ele>
        <time>2013-04-20T18:43:22Z</time>
      </trkpt>
      <trkpt lat="59.9096533" lon="17.8416254">
        <ele>9.75061</ele>
        <time>2013-04-20T18:43:23Z</time>
      </trkpt>
      <trkpt lat="59.909648" lon="17.8414721">
        <ele>9.2699</ele>
        <time>2013-04-20T18:43:24Z</time>
      </trkpt>
      <trkpt lat="59.9096376" lon="17.8413179">
        <ele>8.78918</ele>
        <time>2013-04-20T18:43:25Z</time>
      </trkpt>
      <trkpt lat="59.9096218" lon="17.841165">
        <ele>8.30859</ele>
        <time>2013-04-20T18:43:26Z</time>
      </trkpt>
      <trkpt lat="59.9095988" lon="17.8410179">
        <ele>8.30859</ele>
        <time>2013-04-20T18:43:27Z</time>
      </trkpt>
      <trkpt lat="59.9095679" lon="17.8408801">
        <ele>8.78918</ele>
        <time>2013-04-20T18:43:28Z</time>
      </trkpt>
      <trkpt lat="59.9095296" lon="17.8407474">
        <ele>8.78918</ele>
        <time>2013-04-20T18:43:29Z</time>
      </trkpt>
      <trkpt lat="59.9094878" lon="17.8406204">
        <ele>8.78918</ele>
        <time>2013-04-20T18:43:30Z</time>
      </trkpt>
      <trkpt lat="59.9094449" lon="17.8404989">
        <ele>8.78918</ele>
        <time>2013-04-20T18:43:31Z</time>
      </trkpt>
      <trkpt lat="59.9094026" lon="17.8403823">
        <ele>8.78918</ele>
        <time>2013-04-20T18:43:32Z</time>
      </trkpt>
      <trkpt lat="59.9093601" lon="17.8402674">
        <ele>9.2699</ele>
        <time>2013-04-20T18:43:33Z</time>
      </trkpt>
      <trkpt lat="59.9093191" lon="17.8401558">
        <ele>9.2699</ele>
        <time>2013-04-20T18:43:34Z</time>
      </trkpt>
      <trkpt lat="59.9092785" lon="17.8400462">
        <ele>9.2699</ele>
        <time>2013-04-20T18:43:35Z</time>
      </trkpt>
      <trkpt lat="59.9092394" lon="17.839939">
        <ele>9.75061</ele>
        <time>2013-04-20T18:43:36Z</time>
      </trkpt>
      <trkpt lat="59.9092031" lon="17.8398343">
        <ele>9.75061</ele>
        <time>2013-04-20T18:43:37Z</time>
      </trkpt>
      <trkpt lat="59.9091689" lon="17.8397334">
        <ele>9.75061</ele>
        <time>2013-04-20T18:43:38Z</time>
      </trkpt>
      <trkpt lat="59.9091358" lon="17.8396386">
        <ele>9.75061</ele>
        <time>2013-04-20T18:43:39Z</time>
      </trkpt>
      <trkpt lat="59.9091047" lon="17.8395533">
        <ele>10.7118</ele>
        <time>2013-04-20T18:43:40Z</time>
      </trkpt>
      <trkpt lat="59.9090751" lon="17.8394747">
        <ele>11.1925</ele>
        <time>2013-04-20T18:43:41Z</time>
      </trkpt>
      <trkpt lat="59.9090462" lon="17.8393987">
        <ele>11.6732</ele>
        <time>2013-04-20T18:43:42Z</time>
      </trkpt>
      <trkpt lat="59.9090192" lon="17.839321">
        <ele>12.1538</ele>
        <time>2013-04-20T18:43:43Z</time>
      </trkpt>
      <trkpt lat="59.9089901" lon="17.8392519">
        <ele>14.0764</ele>
        <time>2013-04-20T18:43:44Z</time>
      </trkpt>
      <trkpt lat="59.9089605" lon="17.8391883">
        <ele>14.557</ele>
        <time>2013-04-20T18:43:45Z</time>
      </trkpt>
      <trkpt lat="59.9089328" lon="17.8391282">
        <ele>15.5184</ele>
        <time>2013-04-20T18:43:46Z</time>
      </trkpt>
      <trkpt lat="59.9089064" lon="17.8390682">
        <ele>15.999</ele>
        <time>2013-04-20T18:43:47Z</time>
      </trkpt>
      <trkpt lat="59.9088777" lon="17.8390142">
        <ele>16.4797</ele>
        <time>2013-04-20T18:43:48Z</time>
      </trkpt>
      <trkpt lat="59.9088487" lon="17.8389582">
        <ele>17.4412</ele>
        <time>2013-04-20T18:43:49Z</time>
      </trkpt>
      <trkpt lat="59.9088207" lon="17.8389065">
        <ele>18.4023</ele>
        <time>2013-04-20T18:43:50Z</time>
      </trkpt>
      <trkpt lat="59.9087949" lon="17.8388618">
        <ele>18.4023</ele>
        <time>2013-04-20T18:43:51Z</time>
      </trkpt>
      <trkpt lat="59.9087618" lon="17.8388215">
        <ele>18.8831</ele>
        <time>2013-04-20T18:43:52Z</time>
      </trkpt>
      <trkpt lat="59.9087222" lon="17.8387817">
        <ele>19.8444</ele>
        <time>2013-04-20T18:43:53Z</time>
      </trkpt>
      <trkpt lat="59.9086828" lon="17.8387448">
        <ele>20.325</ele>
        <time>2013-04-20T18:43:54Z</time>
      </trkpt>
      <trkpt lat="59.9086438" lon="17.8387116">
        <ele>21.2864</ele>
        <time>2013-04-20T18:43:55Z</time>
      </trkpt>
      <trkpt lat="59.9086027" lon="17.8386853">
        <ele>21.2864</ele>
        <time>2013-04-20T18:43:56Z</time>
      </trkpt>
      <trkpt lat="59.9085598" lon="17.83866">
        <ele>21.767</ele>
        <time>2013-04-20T18:43:57Z</time>
      </trkpt>
      <trkpt lat="59.9085136" lon="17.8386333">
        <ele>22.2476</ele>
        <time>2013-04-20T18:43:58Z</time>
      </trkpt>
      <trkpt lat="59.9084682" lon="17.8386215">
        <ele>22.2476</ele>
        <time>2013-04-20T18:43:59Z</time>
      </trkpt>
      <trkpt lat="59.9084241" lon="17.8386157">
        <ele>22.7283</ele>
        <time>2013-04-20T18:44:00Z</time>
      </trkpt>
      <trkpt lat="59.90838" lon="17.8386102">
        <ele>23.209</ele>
        <time>2013-04-20T18:44:01Z</time>
      </trkpt>
      <trkpt lat="59.9083339" lon="17.8386095">
        <ele>23.6896</ele>
        <time>2013-04-20T18:44:02Z</time>
      </trkpt>
      <trkpt lat="59.9082852" lon="17.8386045">
        <ele>24.651</ele>
        <time>2013-04-20T18:44:03Z</time>
      </trkpt>
      <trkpt lat="59.9082412" lon="17.8386121">
        <ele>25.1317</ele>
        <time>2013-04-20T18:44:04Z</time>
      </trkpt>
      <trkpt lat="59.9081954" lon="17.8386334">
        <ele>25.1317</ele>
        <time>2013-04-20T18:44:05Z</time>
      </trkpt>
      <trkpt lat="59.9081483" lon="17.8386625">
        <ele>26.5736</ele>
        <time>2013-04-20T18:44:06Z</time>
      </trkpt>
      <trkpt lat="59.9080949" lon="17.838688">
        <ele>27.5349</ele>
        <time>2013-04-20T18:44:07Z</time>
      </trkpt>
      <trkpt lat="59.9080447" lon="17.838733">
        <ele>28.4962</ele>
        <time>2013-04-20T18:44:08Z</time>
      </trkpt>
      <trkpt lat="59.9079972" lon="17.8387843">
        <ele>28.4962</ele>
        <time>2013-04-20T18:44:09Z</time>
      </trkpt>
      <trkpt lat="59.9079524" lon="17.8388343">
        <ele>29.4575</ele>
        <time>2013-04-20T18:44:10Z</time>
      </trkpt>
      <trkpt lat="59.9079085" lon="17.8388859">
        <ele>29.9381</ele>
        <time>2013-04-20T18:44:11Z</time>
      </trkpt>
      <trkpt lat="59.9078657" lon="17.838935">
        <ele>30.4188</ele>
        <time>2013-04-20T18:44:12Z</time>
      </trkpt>
      <trkpt lat="59.9078273" lon="17.8389852">
        <ele>30.8995</ele>
        <time>2013-04-20T18:44:13Z</time>
      </trkpt>
      <trkpt lat="59.90779" lon="17.8390365">
        <ele>30.8995</ele>
        <time>2013-04-20T18:44:14Z</time>
      </trkpt>
      <trkpt lat="59.9077455" lon="17.8390894">
        <ele>31.3801</ele>
        <time>2013-04-20T18:44:15Z</time>
      </trkpt>
      <trkpt lat="59.9077049" lon="17.8391406">
        <ele>31.3801</ele>
        <time>2013-04-20T18:44:16Z</time>
      </trkpt>
      <trkpt lat="59.9076696" lon="17.8391869">
        <ele>31.8607</ele>
        <time>2013-04-20T18:44:17Z</time>
      </trkpt>
      <trkpt lat="59.9076382" lon="17.839227">
        <ele>31.8607</ele>
        <time>2013-04-20T18:44:18Z</time>
      </trkpt>
      <trkpt lat="59.9076015" lon="17.8392708">
        <ele>31.8607</ele>
        <time>2013-04-20T18:44:19Z</time>
      </trkpt>
      <trkpt lat="59.9075622" lon="17.8393137">
        <ele>30.8995</ele>
        <time>2013-04-20T18:44:20Z</time>
      </trkpt>
      <trkpt lat="59.9075223" lon="17.8393603">
        <ele>30.4188</ele>
        <time>2013-04-20T18:44:21Z</time>
      </trkpt>
      <trkpt lat="59.9074765" lon="17.8394116">
        <ele>29.4575</ele>
        <time>2013-04-20T18:44:22Z</time>
      </trkpt>
      <trkpt lat="59.9074274" lon="17.8394649">
        <ele>28.4962</ele>
        <time>2013-04-20T18:44:23Z</time>
      </trkpt>
      <trkpt lat="59.9073751" lon="17.8395192">
        <ele>28.4962</ele>
        <time>2013-04-20T18:44:24Z</time>
      </trkpt>
      <trkpt lat="59.9073158" lon="17.8395727">
        <ele>28.0155</ele>
        <time>2013-04-20T18:44:25Z</time>
      </trkpt>
      <trkpt lat="59.9072545" lon="17.8396357">
        <ele>28.0155</ele>
        <time>2013-04-20T18:44:26Z</time>
      </trkpt>
      <trkpt lat="59.9071999" lon="17.8397054">
        <ele>27.5349</ele>
        <time>2013-04-20T18:44:27Z</time>
      </trkpt>
      <trkpt lat="59.9071403" lon="17.8397706">
        <ele>26.5736</ele>
        <time>2013-04-20T18:44:28Z</time>
      </trkpt>
      <trkpt lat="59.9070715" lon="17.8398266">
        <ele>25.6123</ele>
        <time>2013-04-20T18:44:29Z</time>
      </trkpt>
      <trkpt lat="59.9069947" lon="17.8398757">
        <ele>24.651</ele>
        <time>2013-04-20T18:44:30Z</time>
      </trkpt>
      <trkpt lat="59.9069151" lon="17.8399304">
        <ele>24.651</ele>
        <time>2013-04-20T18:44:31Z</time>
      </trkpt>
      <trkpt lat="59.9068346" lon="17.8399814">
        <ele>24.1703</ele>
        <time>2013-04-20T18:44:32Z</time>
      </trkpt>
      <trkpt lat="59.9067529" lon="17.8400397">
        <ele>23.6896</ele>
        <time>2013-04-20T18:44:33Z</time>
      </trkpt>
      <trkpt lat="59.9066787" lon="17.8401035">
        <ele>23.6896</ele>
        <time>2013-04-20T18:44:34Z</time>
      </trkpt>
      <trkpt lat="59.9066072" lon="17.8401565">
        <ele>22.2476</ele>
        <time>2013-04-20T18:44:35Z</time>
      </trkpt>
      <trkpt lat="59.9065329" lon="17.8402206">
        <ele>22.2476</ele>
        <time>2013-04-20T18:44:36Z</time>
      </trkpt>
      <trkpt lat="59.906463" lon="17.840286">
        <ele>22.2476</ele>
        <time>2013-04-20T18:44:37Z</time>
      </trkpt>
      <trkpt lat="59.9063919" lon="17.8403584">
        <ele>21.767</ele>
        <time>2013-04-20T18:44:38Z</time>
      </trkpt>
      <trkpt lat="59.90632" lon="17.8404329">
        <ele>21.2864</ele>
        <time>2013-04-20T18:44:39Z</time>
      </trkpt>
      <trkpt lat="59.906252" lon="17.8405005">
        <ele>20.325</ele>
        <time>2013-04-20T18:44:40Z</time>
      </trkpt>
      <trkpt lat="59.9061661" lon="17.8405828">
        <ele>20.325</ele>
        <time>2013-04-20T18:44:41Z</time>
      </trkpt>
      <trkpt lat="59.9061075" lon="17.8406741">
        <ele>19.8444</ele>
        <time>2013-04-20T18:44:42Z</time>
      </trkpt>
      <trkpt lat="59.906063" lon="17.8407776">
        <ele>19.8444</ele>
        <time>2013-04-20T18:44:43Z</time>
      </trkpt>
      <trkpt lat="59.9060009" lon="17.8408647">
        <ele>20.325</ele>
        <time>2013-04-20T18:44:44Z</time>
      </trkpt>
      <trkpt lat="59.9059543" lon="17.8409471">
        <ele>20.325</ele>
        <time>2013-04-20T18:44:45Z</time>
      </trkpt>
      <trkpt lat="59.9059091" lon="17.8410118">
        <ele>19.3638</ele>
        <time>2013-04-20T18:44:46Z</time>
      </trkpt>
      <trkpt lat="59.9058581" lon="17.8410618">
        <ele>19.3638</ele>
        <time>2013-04-20T18:44:47Z</time>
      </trkpt>
      <trkpt lat="59.9058037" lon="17.8410996">
        <ele>18.8831</ele>
        <time>2013-04-20T18:44:48Z</time>
      </trkpt>
      <trkpt lat="59.9057532" lon="17.8411458">
        <ele>19.3638</ele>
        <time>2013-04-20T18:44:49Z</time>
      </trkpt>
      <trkpt lat="59.9057034" lon="17.8411831">
        <ele>19.3638</ele>
        <time>2013-04-20T18:44:50Z</time>
      </trkpt>
      <trkpt lat="59.905661" lon="17.8412032">
        <ele>19.3638</ele>
        <time>2013-04-20T18:44:51Z</time>
      </trkpt>
      <trkpt lat="59.9056092" lon="17.8412158">
        <ele>19.8444</ele>
        <time>2013-04-20T18:44:52Z</time>
      </trkpt>
      <trkpt lat="59.9055582" lon="17.8412328">
        <ele>20.325</ele>
        <time>2013-04-20T18:44:53Z</time>
      </trkpt>
      <trkpt lat="59.9055118" lon="17.8412555">
        <ele>21.2864</ele>
        <time>2013-04-20T18:44:54Z</time>
      </trkpt>
      <trkpt lat="59.9054699" lon="17.8412598">
        <ele>21.767</ele>
        <time>2013-04-20T18:44:55Z</time>
      </trkpt>
      <trkpt lat="59.905431" lon="17.841276">
        <ele>22.2476</ele>
        <time>2013-04-20T18:44:56Z</time>
      </trkpt>
      <trkpt lat="59.9053855" lon="17.8412938">
        <ele>22.2476</ele>
        <time>2013-04-20T18:44:57Z</time>
      </trkpt>
      <trkpt lat="59.9053292" lon="17.8413021">
        <ele>22.2476</ele>
        <time>2013-04-20T18:44:58Z</time>
      </trkpt>
      <trkpt lat="59.905279" lon="17.8413204">
        <ele>22.2476</ele>
        <time>2013-04-20T18:44:59Z</time>
      </trkpt>
      <trkpt lat="59.905226" lon="17.8413376">
        <ele>22.7283</ele>
        <time>2013-04-20T18:45:00Z</time>
      </trkpt>
      <trkpt lat="59.9051673" lon="17.8413412">
        <ele>23.209</ele>
        <time>2013-04-20T18:45:01Z</time>
      </trkpt>
      <trkpt lat="59.9051248" lon="17.8413601">
        <ele>23.209</ele>
        <time>2013-04-20T18:45:02Z</time>
      </trkpt>
      <trkpt lat="59.9050819" lon="17.8413769">
        <ele>24.1703</ele>
        <time>2013-04-20T18:45:03Z</time>
      </trkpt>
      <trkpt lat="59.9050425" lon="17.8413946">
        <ele>25.1317</ele>
        <time>2013-04-20T18:45:04Z</time>
      </trkpt>
      <trkpt lat="59.9049938" lon="17.8414235">
        <ele>25.6123</ele>
        <time>2013-04-20T18:45:05Z</time>
      </trkpt>
      <trkpt lat="59.9049478" lon="17.8414443">
        <ele>26.5736</ele>
        <time>2013-04-20T18:45:06Z</time>
      </trkpt>
      <trkpt lat="59.9049016" lon="17.8414759">
        <ele>27.0543</ele>
        <time>2013-04-20T18:45:07Z</time>
      </trkpt>
      <trkpt lat="59.9048537" lon="17.841508">
        <ele>28.0155</ele>
        <time>2013-04-20T18:45:08Z</time>
      </trkpt>
      <trkpt lat="59.904819" lon="17.8415157">
        <ele>27.5349</ele>
        <time>2013-04-20T18:45:09Z</time>
      </trkpt>
      <trkpt lat="59.9047893" lon="17.8415307">
        <ele>27.5349</ele>
        <time>2013-04-20T18:45:10Z</time>
      </trkpt>
      <trkpt lat="59.9047508" lon="17.8415419">
        <ele>27.5349</ele>
        <time>2013-04-20T18:45:11Z</time>
      </trkpt>
      <trkpt lat="59.9047115" lon="17.8415628">
        <ele>27.5349</ele>
        <time>2013-04-20T18:45:12Z</time>
      </trkpt>
      <trkpt lat="59.9046662" lon="17.8415918">
        <ele>27.0543</ele>
        <time>2013-04-20T18:45:13Z</time>
      </trkpt>
      <trkpt lat="59.9046186" lon="17.841621">
        <ele>26.5736</ele>
        <time>2013-04-20T18:45:14Z</time>
      </trkpt>
      <trkpt lat="59.9045742" lon="17.8416515">
        <ele>26.5736</ele>
        <time>2013-04-20T18:45:15Z</time>
      </trkpt>
      <trkpt lat="59.9045333" lon="17.8416757">
        <ele>26.0929</ele>
        <time>2013-04-20T18:45:16Z</time>
      </trkpt>
      <trkpt lat="59.9044896" lon="17.8417049">
        <ele>26.0929</ele>
        <time>2013-04-20T18:45:17Z</time>
      </trkpt>
      <trkpt lat="59.90444" lon="17.8417295">
        <ele>25.6123</ele>
        <time>2013-04-20T18:45:18Z</time>
      </trkpt>
      <trkpt lat="59.9043919" lon="17.8417724">
        <ele>26.5736</ele>
        <time>2013-04-20T18:45:19Z</time>
      </trkpt>
      <trkpt lat="59.9043344" lon="17.8418098">
        <ele>27.0543</ele>
        <time>2013-04-20T18:45:20Z</time>
      </trkpt>
      <trkpt lat="59.9042762" lon="17.8418585">
        <ele>28.4962</ele>
        <time>2013-04-20T18:45:21Z</time>
      </trkpt>
      <trkpt lat="59.9042298" lon="17.8418902">
        <ele>28.9769</ele>
        <time>2013-04-20T18:45:22Z</time>
      </trkpt>
      <trkpt lat="59.9041852" lon="17.8419109">
        <ele>29.4575</ele>
        <time>2013-04-20T18:45:23Z</time>
      </trkpt>
      <trkpt lat="59.9041399" lon="17.8419185">
        <ele>29.9381</ele>
        <time>2013-04-20T18:45:24Z</time>
      </trkpt>
      <trkpt lat="59.9040914" lon="17.8419218">
        <ele>29.4575</ele>
        <time>2013-04-20T18:45:25Z</time>
      </trkpt>
      <trkpt lat="59.904038" lon="17.8419211">
        <ele>28.9769</ele>
        <time>2013-04-20T18:45:26Z</time>
      </trkpt>
      <trkpt lat="59.9039848" lon="17.8419222">
        <ele>28.4962</ele>
        <time>2013-04-20T18:45:27Z</time>
      </trkpt>
      <trkpt lat="59.903935" lon="17.8419146">
        <ele>28.9769</ele>
        <time>2013-04-20T18:45:28Z</time>
      </trkpt>
      <trkpt lat="59.90388" lon="17.8418973">
        <ele>28.4962</ele>
        <time>2013-04-20T18:45:29Z</time>
      </trkpt>
      <trkpt lat="59.9038292" lon="17.8418845">
        <ele>28.9769</ele>
        <time>2013-04-20T18:45:30Z</time>
      </trkpt>
      <trkpt lat="59.9037856" lon="17.8418577">
        <ele>28.9769</ele>
        <time>2013-04-20T18:45:31Z</time>
      </trkpt>
      <trkpt lat="59.9037416" lon="17.8418265">
        <ele>28.4962</ele>
        <time>2013-04-20T18:45:32Z</time>
      </trkpt>
      <trkpt lat="59.9037086" lon="17.8417882">
        <ele>28.4962</ele>
        <time>2013-04-20T18:45:33Z</time>
      </trkpt>
      <trkpt lat="59.9036728" lon="17.8417442">
        <ele>28.4962</ele>
        <time>2013-04-20T18:45:34Z</time>
      </trkpt>
      <trkpt lat="59.9036359" lon="17.8416944">
        <ele>28.0155</ele>
        <time>2013-04-20T18:45:35Z</time>
      </trkpt>
      <trkpt lat="59.9036041" lon="17.8416516">
        <ele>27.5349</ele>
        <time>2013-04-20T18:45:36Z</time>
      </trkpt>
      <trkpt lat="59.9035725" lon="17.8416038">
        <ele>27.5349</ele>
        <time>2013-04-20T18:45:37Z</time>
      </trkpt>
      <trkpt lat="59.9035388" lon="17.8415555">
        <ele>27.5349</ele>
        <time>2013-04-20T18:45:38Z</time>
      </trkpt>
      <trkpt lat="59.9035071" lon="17.8415054">
        <ele>27.5349</ele>
        <time>2013-04-20T18:45:39Z</time>
      </trkpt>
      <trkpt lat="59.9034761" lon="17.8414556">
        <ele>28.4962</ele>
        <time>2013-04-20T18:45:40Z</time>
      </trkpt>
      <trkpt lat="59.9034437" lon="17.8414053">
        <ele>28.9769</ele>
        <time>2013-04-20T18:45:41Z</time>
      </trkpt>
      <trkpt lat="59.9034101" lon="17.8413578">
        <ele>28.9769</ele>
        <time>2013-04-20T18:45:42Z</time>
      </trkpt>
      <trkpt lat="59.9033743" lon="17.8413158">
        <ele>29.4575</ele>
        <time>2013-04-20T18:45:43Z</time>
      </trkpt>
      <trkpt lat="59.9033294" lon="17.8412753">
        <ele>29.9381</ele>
        <time>2013-04-20T18:45:44Z</time>
      </trkpt>
      <trkpt lat="59.9032833" lon="17.8412508">
        <ele>29.9381</ele>
        <time>2013-04-20T18:45:45Z</time>
      </trkpt>
      <trkpt lat="59.9032396" lon="17.8412473">
        <ele>31.3801</ele>
        <time>2013-04-20T18:45:46Z</time>
      </trkpt>
      <trkpt lat="59.9031927" lon="17.8412382">
        <ele>31.3801</ele>
        <time>2013-04-20T18:45:47Z</time>
      </trkpt>
      <trkpt lat="59.9031347" lon="17.8412329">
        <ele>32.3416</ele>
        <time>2013-04-20T18:45:48Z</time>
      </trkpt>
      <trkpt lat="59.9030803" lon="17.8412462">
        <ele>32.8223</ele>
        <time>2013-04-20T18:45:49Z</time>
      </trkpt>
      <trkpt lat="59.9030227" lon="17.8412639">
        <ele>33.3029</ele>
        <time>2013-04-20T18:45:50Z</time>
      </trkpt>
      <trkpt lat="59.9029689" lon="17.8412805">
        <ele>33.3029</ele>
        <time>2013-04-20T18:45:51Z</time>
      </trkpt>
      <trkpt lat="59.9029107" lon="17.8412986">
        <ele>33.3029</ele>
        <time>2013-04-20T18:45:52Z</time>
      </trkpt>
      <trkpt lat="59.9028514" lon="17.8413203">
        <ele>33.7834</ele>
        <time>2013-04-20T18:45:53Z</time>
      </trkpt>
      <trkpt lat="59.9027943" lon="17.8413356">
        <ele>34.2642</ele>
        <time>2013-04-20T18:45:54Z</time>
      </trkpt>
      <trkpt lat="59.9027383" lon="17.8413612">
        <ele>34.2642</ele>
        <time>2013-04-20T18:45:55Z</time>
      </trkpt>
      <trkpt lat="59.902684" lon="17.8413822">
        <ele>34.2642</ele>
        <time>2013-04-20T18:45:56Z</time>
      </trkpt>
      <trkpt lat="59.9026321" lon="17.8413996">
        <ele>33.3029</ele>
        <time>2013-04-20T18:45:57Z</time>
      </trkpt>
      <trkpt lat="59.9025891" lon="17.8414148">
        <ele>33.3029</ele>
        <time>2013-04-20T18:45:58Z</time>
      </trkpt>
      <trkpt lat="59.9025392" lon="17.841421">
        <ele>33.3029</ele>
        <time>2013-04-20T18:45:59Z</time>
      </trkpt>
      <trkpt lat="59.9024933" lon="17.841439">
        <ele>34.7449</ele>
        <time>2013-04-20T18:46:00Z</time>
      </trkpt>
      <trkpt lat="59.9024478" lon="17.8414561">
        <ele>34.7449</ele>
        <time>2013-04-20T18:46:01Z</time>
      </trkpt>
      <trkpt lat="59.902402" lon="17.8414728">
        <ele>35.2255</ele>
        <time>2013-04-20T18:46:02Z</time>
      </trkpt>
      <trkpt lat="59.9023497" lon="17.8414845">
        <ele>34.7449</ele>
        <time>2013-04-20T18:46:03Z</time>
      </trkpt>
      <trkpt lat="59.9023012" lon="17.8414943">
        <ele>34.2642</ele>
        <time>2013-04-20T18:46:04Z</time>
      </trkpt>
      <trkpt lat="59.9022581" lon="17.8415006">
        <ele>35.2255</ele>
        <time>2013-04-20T18:46:05Z</time>
      </trkpt>
      <trkpt lat="59.9022199" lon="17.8415049">
        <ele>35.7061</ele>
        <time>2013-04-20T18:46:06Z</time>
      </trkpt>
      <trkpt lat="59.90218" lon="17.8415067">
        <ele>35.2255</ele>
        <time>2013-04-20T18:46:07Z</time>
      </trkpt>
      <trkpt lat="59.902151" lon="17.8415057">
        <ele>35.7061</ele>
        <time>2013-04-20T18:46:08Z</time>
      </trkpt>
      <trkpt lat="59.9021117" lon="17.8414975">
        <ele>35.2255</ele>
        <time>2013-04-20T18:46:09Z</time>
      </trkpt>
      <trkpt lat="59.9020707" lon="17.8414918">
        <ele>34.7449</ele>
        <time>2013-04-20T18:46:10Z</time>
      </trkpt>
      <trkpt lat="59.9020257" lon="17.8414879">
        <ele>34.7449</ele>
        <time>2013-04-20T18:46:11Z</time>
      </trkpt>
      <trkpt lat="59.9019865" lon="17.8414827">
        <ele>34.2642</ele>
        <time>2013-04-20T18:46:12Z</time>
      </trkpt>
      <trkpt lat="59.9019458" lon="17.841485">
        <ele>33.7834</ele>
        <time>2013-04-20T18:46:13Z</time>
      </trkpt>
      <trkpt lat="59.9019068" lon="17.8414936">
        <ele>33.7834</ele>
        <time>2013-04-20T18:46:14Z</time>
      </trkpt>
      <trkpt lat="59.901857" lon="17.841483">
        <ele>33.3029</ele>
        <time>2013-04-20T18:46:15Z</time>
      </trkpt>
      <trkpt lat="59.9017982" lon="17.8414712">
        <ele>33.3029</ele>
        <time>2013-04-20T18:46:16Z</time>
      </trkpt>
      <trkpt lat="59.901742" lon="17.841467">
        <ele>33.3029</ele>
        <time>2013-04-20T18:46:17Z</time>
      </trkpt>
      <trkpt lat="59.9016793" lon="17.8414552">
        <ele>33.7834</ele>
        <time>2013-04-20T18:46:18Z</time>
      </trkpt>
      <trkpt lat="59.9016195" lon="17.8414516">
        <ele>33.3029</ele>
        <time>2013-04-20T18:46:19Z</time>
      </trkpt>
      <trkpt lat="59.901562" lon="17.8414489">
        <ele>33.3029</ele>
        <time>2013-04-20T18:46:20Z</time>
      </trkpt>
      <trkpt lat="59.9014915" lon="17.8414307">
        <ele>33.3029</ele>
        <time>2013-04-20T18:46:21Z</time>
      </trkpt>
      <trkpt lat="59.9014279" lon="17.8414225">
        <ele>33.3029</ele>
        <time>2013-04-20T18:46:22Z</time>
      </trkpt>
      <trkpt lat="59.9013641" lon="17.8414127">
        <ele>32.8223</ele>
        <time>2013-04-20T18:46:23Z</time>
      </trkpt>
      <trkpt lat="59.9013019" lon="17.8414075">
        <ele>32.8223</ele>
        <time>2013-04-20T18:46:24Z</time>
      </trkpt>
      <trkpt lat="59.9012408" lon="17.8414008">
        <ele>33.3029</ele>
        <time>2013-04-20T18:46:25Z</time>
      </trkpt>
      <trkpt lat="59.9011777" lon="17.8413889">
        <ele>33.3029</ele>
        <time>2013-04-20T18:46:26Z</time>
      </trkpt>
      <trkpt lat="59.9011124" lon="17.8413743">
        <ele>33.7834</ele>
        <time>2013-04-20T18:46:27Z</time>
      </trkpt>
      <trkpt lat="59.9010477" lon="17.8413638">
        <ele>33.7834</ele>
        <time>2013-04-20T18:46:28Z</time>
      </trkpt>
      <trkpt lat="59.900988" lon="17.8413537">
        <ele>33.3029</ele>
        <time>2013-04-20T18:46:29Z</time>
      </trkpt>
      <trkpt lat="59.9009256" lon="17.8413391">
        <ele>33.7834</ele>
        <time>2013-04-20T18:46:30Z</time>
      </trkpt>
      <trkpt lat="59.9008708" lon="17.8413344">
        <ele>33.3029</ele>
        <time>2013-04-20T18:46:31Z</time>
      </trkpt>
      <trkpt lat="59.9008089" lon="17.8413247">
        <ele>33.7834</ele>
        <time>2013-04-20T18:46:32Z</time>
      </trkpt>
      <trkpt lat="59.9007529" lon="17.8413234">
        <ele>33.3029</ele>
        <time>2013-04-20T18:46:33Z</time>
      </trkpt>
      <trkpt lat="59.9006963" lon="17.8413184">
        <ele>33.7834</ele>
        <time>2013-04-20T18:46:34Z</time>
      </trkpt>
      <trkpt lat="59.9006392" lon="17.8413115">
        <ele>33.7834</ele>
        <time>2013-04-20T18:46:35Z</time>
      </trkpt>
      <trkpt lat="59.9005834" lon="17.8413054">
        <ele>34.2642</ele>
        <time>2013-04-20T18:46:36Z</time>
      </trkpt>
      <trkpt lat="59.9005297" lon="17.8412992">
        <ele>34.2642</ele>
        <time>2013-04-20T18:46:37Z</time>
      </trkpt>
      <trkpt lat="59.900476" lon="17.8412966">
        <ele>34.2642</ele>
        <time>2013-04-20T18:46:38Z</time>
      </trkpt>
      <trkpt lat="59.9004265" lon="17.8412955">
        <ele>34.2642</ele>
        <time>2013-04-20T18:46:39Z</time>
      </trkpt>
      <trkpt lat="59.9003793" lon="17.8412943">
        <ele>34.2642</ele>
        <time>2013-04-20T18:46:40Z</time>
      </trkpt>
      <trkpt lat="59.9003318" lon="17.8412912">
        <ele>34.7449</ele>
        <time>2013-04-20T18:46:41Z</time>
      </trkpt>
      <trkpt lat="59.9002807" lon="17.8412856">
        <ele>35.2255</ele>
        <time>2013-04-20T18:46:42Z</time>
      </trkpt>
      <trkpt lat="59.9002291" lon="17.8412805">
        <ele>35.2255</ele>
        <time>2013-04-20T18:46:43Z</time>
      </trkpt>
      <trkpt lat="59.9001856" lon="17.8412887">
        <ele>35.2255</ele>
        <time>2013-04-20T18:46:44Z</time>
      </trkpt>
      <trkpt lat="59.9001427" lon="17.8412945">
        <ele>35.2255</ele>
        <time>2013-04-20T18:46:45Z</time>
      </trkpt>
      <trkpt lat="59.9000987" lon="17.8413013">
        <ele>35.7061</ele>
        <time>2013-04-20T18:46:46Z</time>
      </trkpt>
      <trkpt lat="59.9000504" lon="17.8413074">
        <ele>35.7061</ele>
        <time>2013-04-20T18:46:47Z</time>
      </trkpt>
      <trkpt lat="59.9000037" lon="17.8413142">
        <ele>36.6675</ele>
        <time>2013-04-20T18:46:48Z</time>
      </trkpt>
      <trkpt lat="59.8999591" lon="17.841325">
        <ele>37.1481</ele>
        <time>2013-04-20T18:46:49Z</time>
      </trkpt>
      <trkpt lat="59.8999099" lon="17.8413325">
        <ele>37.1481</ele>
        <time>2013-04-20T18:46:50Z</time>
      </trkpt>
      <trkpt lat="59.8998603" lon="17.8413405">
        <ele>37.6287</ele>
        <time>2013-04-20T18:46:51Z</time>
      </trkpt>
      <trkpt lat="59.8998216" lon="17.8413459">
        <ele>38.1094</ele>
        <time>2013-04-20T18:46:52Z</time>
      </trkpt>
      <trkpt lat="59.8997764" lon="17.8413422">
        <ele>38.1094</ele>
        <time>2013-04-20T18:46:53Z</time>
      </trkpt>
      <trkpt lat="59.8997347" lon="17.8413475">
        <ele>38.5901</ele>
        <time>2013-04-20T18:46:54Z</time>
      </trkpt>
      <trkpt lat="59.8997009" lon="17.8413599">
        <ele>39.5513</ele>
        <time>2013-04-20T18:46:55Z</time>
      </trkpt>
      <trkpt lat="59.8996633" lon="17.8413665">
        <ele>40.0321</ele>
        <time>2013-04-20T18:46:56Z</time>
      </trkpt>
      <trkpt lat="59.8996322" lon="17.8413785">
        <ele>40.9934</ele>
        <time>2013-04-20T18:46:57Z</time>
      </trkpt>
      <trkpt lat="59.8995951" lon="17.841396">
        <ele>41.474</ele>
        <time>2013-04-20T18:46:58Z</time>
      </trkpt>
      <trkpt lat="59.8995594" lon="17.8414173">
        <ele>40.9934</ele>
        <time>2013-04-20T18:46:59Z</time>
      </trkpt>
      <trkpt lat="59.89952" lon="17.8414295">
        <ele>40.9934</ele>
        <time>2013-04-20T18:47:00Z</time>
      </trkpt>
      <trkpt lat="59.8994811" lon="17.8414442">
        <ele>40.9934</ele>
        <time>2013-04-20T18:47:01Z</time>
      </trkpt>
      <trkpt lat="59.8994449" lon="17.8414668">
        <ele>40.9934</ele>
        <time>2013-04-20T18:47:02Z</time>
      </trkpt>
      <trkpt lat="59.8994149" lon="17.8414872">
        <ele>40.5128</ele>
        <time>2013-04-20T18:47:03Z</time>
      </trkpt>
      <trkpt lat="59.899384" lon="17.8415162">
        <ele>40.9934</ele>
        <time>2013-04-20T18:47:04Z</time>
      </trkpt>
      <trkpt lat="59.8993537" lon="17.8415432">
        <ele>41.474</ele>
        <time>2013-04-20T18:47:05Z</time>
      </trkpt>
      <trkpt lat="59.8993236" lon="17.8415847">
        <ele>41.474</ele>
        <time>2013-04-20T18:47:06Z</time>
      </trkpt>
      <trkpt lat="59.8992893" lon="17.8416287">
        <ele>41.9547</ele>
        <time>2013-04-20T18:47:07Z</time>
      </trkpt>
      <trkpt lat="59.8992396" lon="17.8416639">
        <ele>41.9547</ele>
        <time>2013-04-20T18:47:08Z</time>
      </trkpt>
      <trkpt lat="59.8991999" lon="17.8417151">
        <ele>42.4354</ele>
        <time>2013-04-20T18:47:09Z</time>
      </trkpt>
      <trkpt lat="59.8991574" lon="17.8417654">
        <ele>42.916</ele>
        <time>2013-04-20T18:47:10Z</time>
      </trkpt>
      <trkpt lat="59.8991181" lon="17.841817">
        <ele>43.3966</ele>
        <time>2013-04-20T18:47:11Z</time>
      </trkpt>
      <trkpt lat="59.8990714" lon="17.8418492">
        <ele>43.3966</ele>
        <time>2013-04-20T18:47:12Z</time>
      </trkpt>
      <trkpt lat="59.8990242" lon="17.8418755">
        <ele>42.916</ele>
        <time>2013-04-20T18:47:13Z</time>
      </trkpt>
      <trkpt lat="59.8989738" lon="17.8419051">
        <ele>43.3966</ele>
        <time>2013-04-20T18:47:14Z</time>
      </trkpt>
      <trkpt lat="59.8989189" lon="17.8419415">
        <ele>43.8773</ele>
        <time>2013-04-20T18:47:15Z</time>
      </trkpt>
      <trkpt lat="59.8988665" lon="17.8419674">
        <ele>42.916</ele>
        <time>2013-04-20T18:47:16Z</time>
      </trkpt>
      <trkpt lat="59.8988085" lon="17.8420006">
        <ele>42.4354</ele>
        <time>2013-04-20T18:47:17Z</time>
      </trkpt>
      <trkpt lat="59.8987488" lon="17.8420419">
        <ele>42.916</ele>
        <time>2013-04-20T18:47:18Z</time>
      </trkpt>
      <trkpt lat="59.8986809" lon="17.8420762">
        <ele>42.916</ele>
        <time>2013-04-20T18:47:19Z</time>
      </trkpt>
      <trkpt lat="59.8986093" lon="17.8421092">
        <ele>43.3966</ele>
        <time>2013-04-20T18:47:20Z</time>
      </trkpt>
      <trkpt lat="59.8985353" lon="17.8421343">
        <ele>42.916</ele>
        <time>2013-04-20T18:47:21Z</time>
      </trkpt>
      <trkpt lat="59.8984579" lon="17.8421587">
        <ele>42.916</ele>
        <time>2013-04-20T18:47:22Z</time>
      </trkpt>
      <trkpt lat="59.8983838" lon="17.842186">
        <ele>42.4354</ele>
        <time>2013-04-20T18:47:23Z</time>
      </trkpt>
      <trkpt lat="59.8983093" lon="17.842203">
        <ele>41.474</ele>
        <time>2013-04-20T18:47:24Z</time>
      </trkpt>
      <trkpt lat="59.8982375" lon="17.8422141">
        <ele>40.9934</ele>
        <time>2013-04-20T18:47:25Z</time>
      </trkpt>
      <trkpt lat="59.8981629" lon="17.8422144">
        <ele>40.5128</ele>
        <time>2013-04-20T18:47:26Z</time>
      </trkpt>
      <trkpt lat="59.8980903" lon="17.8422086">
        <ele>40.0321</ele>
        <time>2013-04-20T18:47:27Z</time>
      </trkpt>
      <trkpt lat="59.8980127" lon="17.8421991">
        <ele>39.5513</ele>
        <time>2013-04-20T18:47:28Z</time>
      </trkpt>
      <trkpt lat="59.8979386" lon="17.8421957">
        <ele>39.5513</ele>
        <time>2013-04-20T18:47:29Z</time>
      </trkpt>
      <trkpt lat="59.8978645" lon="17.8422078">
        <ele>39.0707</ele>
        <time>2013-04-20T18:47:30Z</time>
      </trkpt>
      <trkpt lat="59.8977935" lon="17.8422236">
        <ele>39.0707</ele>
        <time>2013-04-20T18:47:31Z</time>
      </trkpt>
      <trkpt lat="59.8977214" lon="17.8422545">
        <ele>39.5513</ele>
        <time>2013-04-20T18:47:32Z</time>
      </trkpt>
      <trkpt lat="59.8976463" lon="17.8422766">
        <ele>39.5513</ele>
        <time>2013-04-20T18:47:33Z</time>
      </trkpt>
      <trkpt lat="59.8975675" lon="17.842299">
        <ele>39.0707</ele>
        <time>2013-04-20T18:47:34Z</time>
      </trkpt>
      <trkpt lat="59.8974878" lon="17.8423289">
        <ele>39.0707</ele>
        <time>2013-04-20T18:47:35Z</time>
      </trkpt>
      <trkpt lat="59.8974148" lon="17.8423625">
        <ele>39.5513</ele>
        <time>2013-04-20T18:47:36Z</time>
      </trkpt>
      <trkpt lat="59.8973382" lon="17.8424015">
        <ele>39.5513</ele>
        <time>2013-04-20T18:47:37Z</time>
      </trkpt>
      <trkpt lat="59.8972701" lon="17.8424554">
        <ele>39.5513</ele>
        <time>2013-04-20T18:47:38Z</time>
      </trkpt>
      <trkpt lat="59.8972169" lon="17.8425184">
        <ele>39.0707</ele>
        <time>2013-04-20T18:47:39Z</time>
      </trkpt>
      <trkpt lat="59.8971576" lon="17.8425766">
        <ele>38.1094</ele>
        <time>2013-04-20T18:47:40Z</time>
      </trkpt>
      <trkpt lat="59.89709" lon="17.8426384">
        <ele>36.6675</ele>
        <time>2013-04-20T18:47:41Z</time>
      </trkpt>
      <trkpt lat="59.8970175" lon="17.8426992">
        <ele>36.1868</ele>
        <time>2013-04-20T18:47:42Z</time>
      </trkpt>
      <trkpt lat="59.8969373" lon="17.8427605">
        <ele>35.7061</ele>
        <time>2013-04-20T18:47:43Z</time>
      </trkpt>
      <trkpt lat="59.8968574" lon="17.842806">
        <ele>35.7061</ele>
        <time>2013-04-20T18:47:44Z</time>
      </trkpt>
      <trkpt lat="59.8967704" lon="17.8428372">
        <ele>35.2255</ele>
        <time>2013-04-20T18:47:45Z</time>
      </trkpt>
      <trkpt lat="59.8966896" lon="17.8428604">
        <ele>34.7449</ele>
        <time>2013-04-20T18:47:46Z</time>
      </trkpt>
      <trkpt lat="59.8966049" lon="17.8428552">
        <ele>33.3029</ele>
        <time>2013-04-20T18:47:47Z</time>
      </trkpt>
      <trkpt lat="59.8965165" lon="17.8428271">
        <ele>32.3416</ele>
        <time>2013-04-20T18:47:48Z</time>
      </trkpt>
      <trkpt lat="59.8964117" lon="17.8427893">
        <ele>31.8607</ele>
        <time>2013-04-20T18:47:49Z</time>
      </trkpt>
      <trkpt lat="59.8963037" lon="17.8427636">
        <ele>31.8607</ele>
        <time>2013-04-20T18:47:50Z</time>
      </trkpt>
      <trkpt lat="59.896197" lon="17.8427331">
        <ele>31.3801</ele>
        <time>2013-04-20T18:47:51Z</time>
      </trkpt>
      <trkpt lat="59.8960943" lon="17.8427194">
        <ele>31.3801</ele>
        <time>2013-04-20T18:47:52Z</time>
      </trkpt>
      <trkpt lat="59.8959928" lon="17.8427154">
        <ele>30.8995</ele>
        <time>2013-04-20T18:47:53Z</time>
      </trkpt>
      <trkpt lat="59.8958986" lon="17.8427283">
        <ele>30.8995</ele>
        <time>2013-04-20T18:47:54Z</time>
      </trkpt>
      <trkpt lat="59.8958032" lon="17.8427501">
        <ele>29.9381</ele>
        <time>2013-04-20T18:47:55Z</time>
      </trkpt>
      <trkpt lat="59.8957103" lon="17.8427802">
        <ele>29.4575</ele>
        <time>2013-04-20T18:47:56Z</time>
      </trkpt>
      <trkpt lat="59.8956195" lon="17.8428258">
        <ele>29.9381</ele>
        <time>2013-04-20T18:47:57Z</time>
      </trkpt>
      <trkpt lat="59.8955428" lon="17.8428631">
        <ele>30.8995</ele>
        <time>2013-04-20T18:47:58Z</time>
      </trkpt>
      <trkpt lat="59.8954707" lon="17.8429054">
        <ele>30.8995</ele>
        <time>2013-04-20T18:47:59Z</time>
      </trkpt>
      <trkpt lat="59.8953926" lon="17.8429485">
        <ele>30.8995</ele>
        <time>2013-04-20T18:48:00Z</time>
      </trkpt>
      <trkpt lat="59.8953132" lon="17.842983">
        <ele>29.9381</ele>
        <time>2013-04-20T18:48:01Z</time>
      </trkpt>
      <trkpt lat="59.8952338" lon="17.843011">
        <ele>30.4188</ele>
        <time>2013-04-20T18:48:02Z</time>
      </trkpt>
      <trkpt lat="59.8951583" lon="17.8430409">
        <ele>30.4188</ele>
        <time>2013-04-20T18:48:03Z</time>
      </trkpt>
      <trkpt lat="59.8950776" lon="17.8430562">
        <ele>29.9381</ele>
        <time>2013-04-20T18:48:04Z</time>
      </trkpt>
      <trkpt lat="59.8949911" lon="17.843064">
        <ele>29.9381</ele>
        <time>2013-04-20T18:48:05Z</time>
      </trkpt>
      <trkpt lat="59.894903" lon="17.8430666">
        <ele>30.4188</ele>
        <time>2013-04-20T18:48:06Z</time>
      </trkpt>
      <trkpt lat="59.8948116" lon="17.8430599">
        <ele>30.8995</ele>
        <time>2013-04-20T18:48:07Z</time>
      </trkpt>
      <trkpt lat="59.8947375" lon="17.8430661">
        <ele>30.8995</ele>
        <time>2013-04-20T18:48:08Z</time>
      </trkpt>
      <trkpt lat="59.8946665" lon="17.8430677">
        <ele>30.8995</ele>
        <time>2013-04-20T18:48:09Z</time>
      </trkpt>
      <trkpt lat="59.8945936" lon="17.8430659">
        <ele>30.8995</ele>
        <time>2013-04-20T18:48:10Z</time>
      </trkpt>
      <trkpt lat="59.8945181" lon="17.8430519">
        <ele>31.3801</ele>
        <time>2013-04-20T18:48:11Z</time>
      </trkpt>
      <trkpt lat="59.8944311" lon="17.8430318">
        <ele>30.4188</ele>
        <time>2013-04-20T18:48:12Z</time>
      </trkpt>
      <trkpt lat="59.8943477" lon="17.8430175">
        <ele>30.4188</ele>
        <time>2013-04-20T18:48:13Z</time>
      </trkpt>
      <trkpt lat="59.8942654" lon="17.8430097">
        <ele>30.8995</ele>
        <time>2013-04-20T18:48:14Z</time>
      </trkpt>
      <trkpt lat="59.8941844" lon="17.8429982">
        <ele>30.4188</ele>
        <time>2013-04-20T18:48:15Z</time>
      </trkpt>
      <trkpt lat="59.8940983" lon="17.8429746">
        <ele>29.9381</ele>
        <time>2013-04-20T18:48:16Z</time>
      </trkpt>
      <trkpt lat="59.8940098" lon="17.8429594">
        <ele>29.4575</ele>
        <time>2013-04-20T18:48:17Z</time>
      </trkpt>
      <trkpt lat="59.8939218" lon="17.8429364">
        <ele>28.4962</ele>
        <time>2013-04-20T18:48:18Z</time>
      </trkpt>
      <trkpt lat="59.8938401" lon="17.8429157">
        <ele>28.4962</ele>
        <time>2013-04-20T18:48:19Z</time>
      </trkpt>
      <trkpt lat="59.8937612" lon="17.8429019">
        <ele>28.4962</ele>
        <time>2013-04-20T18:48:20Z</time>
      </trkpt>
      <trkpt lat="59.8936833" lon="17.8428926">
        <ele>28.9769</ele>
        <time>2013-04-20T18:48:21Z</time>
      </trkpt>
      <trkpt lat="59.8936153" lon="17.8428965">
        <ele>29.4575</ele>
        <time>2013-04-20T18:48:22Z</time>
      </trkpt>
      <trkpt lat="59.8935495" lon="17.8428914">
        <ele>29.4575</ele>
        <time>2013-04-20T18:48:23Z</time>
      </trkpt>
      <trkpt lat="59.8934826" lon="17.8428791">
        <ele>29.9381</ele>
        <time>2013-04-20T18:48:24Z</time>
      </trkpt>
      <trkpt lat="59.8934041" lon="17.8428569">
        <ele>29.9381</ele>
        <time>2013-04-20T18:48:25Z</time>
      </trkpt>
      <trkpt lat="59.8933321" lon="17.8428393">
        <ele>29.9381</ele>
        <time>2013-04-20T18:48:26Z</time>
      </trkpt>
      <trkpt lat="59.8932608" lon="17.8428211">
        <ele>30.4188</ele>
        <time>2013-04-20T18:48:27Z</time>
      </trkpt>
      <trkpt lat="59.8931897" lon="17.8428045">
        <ele>29.4575</ele>
        <time>2013-04-20T18:48:28Z</time>
      </trkpt>
      <trkpt lat="59.8931159" lon="17.8427758">
        <ele>29.4575</ele>
        <time>2013-04-20T18:48:29Z</time>
      </trkpt>
      <trkpt lat="59.893047" lon="17.84275">
        <ele>28.9769</ele>
        <time>2013-04-20T18:48:30Z</time>
      </trkpt>
      <trkpt lat="59.8929823" lon="17.8427242">
        <ele>28.4962</ele>
        <time>2013-04-20T18:48:31Z</time>
      </trkpt>
      <trkpt lat="59.8929179" lon="17.8426947">
        <ele>28.4962</ele>
        <time>2013-04-20T18:48:32Z</time>
      </trkpt>
      <trkpt lat="59.8928547" lon="17.8426681">
        <ele>28.0155</ele>
        <time>2013-04-20T18:48:33Z</time>
      </trkpt>
      <trkpt lat="59.8927952" lon="17.8426448">
        <ele>27.5349</ele>
        <time>2013-04-20T18:48:34Z</time>
      </trkpt>
      <trkpt lat="59.8927371" lon="17.842623">
        <ele>27.5349</ele>
        <time>2013-04-20T18:48:35Z</time>
      </trkpt>
      <trkpt lat="59.8926765" lon="17.8425994">
        <ele>27.0543</ele>
        <time>2013-04-20T18:48:36Z</time>
      </trkpt>
      <trkpt lat="59.8926201" lon="17.8425776">
        <ele>26.0929</ele>
        <time>2013-04-20T18:48:37Z</time>
      </trkpt>
      <trkpt lat="59.8925687" lon="17.8425574">
        <ele>26.5736</ele>
        <time>2013-04-20T18:48:38Z</time>
      </trkpt>
      <trkpt lat="59.8925091" lon="17.8425311">
        <ele>26.5736</ele>
        <time>2013-04-20T18:48:39Z</time>
      </trkpt>
      <trkpt lat="59.8924512" lon="17.8425118">
        <ele>26.5736</ele>
        <time>2013-04-20T18:48:40Z</time>
      </trkpt>
      <trkpt lat="59.8923963" lon="17.8424879">
        <ele>26.0929</ele>
        <time>2013-04-20T18:48:41Z</time>
      </trkpt>
      <trkpt lat="59.8923356" lon="17.8424699">
        <ele>25.6123</ele>
        <time>2013-04-20T18:48:42Z</time>
      </trkpt>
      <trkpt lat="59.8922777" lon="17.8424373">
        <ele>26.0929</ele>
        <time>2013-04-20T18:48:43Z</time>
      </trkpt>
      <trkpt lat="59.8922195" lon="17.8424065">
        <ele>27.5349</ele>
        <time>2013-04-20T18:48:44Z</time>
      </trkpt>
      <trkpt lat="59.8921601" lon="17.8423754">
        <ele>27.5349</ele>
        <time>2013-04-20T18:48:45Z</time>
      </trkpt>
      <trkpt lat="59.892101" lon="17.8423462">
        <ele>28.0155</ele>
        <time>2013-04-20T18:48:46Z</time>
      </trkpt>
      <trkpt lat="59.8920442" lon="17.8423195">
        <ele>28.4962</ele>
        <time>2013-04-20T18:48:47Z</time>
      </trkpt>
      <trkpt lat="59.8919848" lon="17.8423006">
        <ele>28.4962</ele>
        <time>2013-04-20T18:48:48Z</time>
      </trkpt>
      <trkpt lat="59.8919233" lon="17.8422827">
        <ele>28.0155</ele>
        <time>2013-04-20T18:48:49Z</time>
      </trkpt>
      <trkpt lat="59.8918617" lon="17.8422658">
        <ele>28.0155</ele>
        <time>2013-04-20T18:48:50Z</time>
      </trkpt>
      <trkpt lat="59.8918" lon="17.8422519">
        <ele>28.0155</ele>
        <time>2013-04-20T18:48:51Z</time>
      </trkpt>
      <trkpt lat="59.8917394" lon="17.84224">
        <ele>28.0155</ele>
        <time>2013-04-20T18:48:52Z</time>
      </trkpt>
      <trkpt lat="59.8916769" lon="17.8422221">
        <ele>27.5349</ele>
        <time>2013-04-20T18:48:53Z</time>
      </trkpt>
      <trkpt lat="59.8916154" lon="17.8422097">
        <ele>27.5349</ele>
        <time>2013-04-20T18:48:54Z</time>
      </trkpt>
      <trkpt lat="59.8915587" lon="17.8421952">
        <ele>27.5349</ele>
        <time>2013-04-20T18:48:55Z</time>
      </trkpt>
      <trkpt lat="59.8915006" lon="17.842182">
        <ele>27.0543</ele>
        <time>2013-04-20T18:48:56Z</time>
      </trkpt>
      <trkpt lat="59.8914412" lon="17.8421674">
        <ele>27.5349</ele>
        <time>2013-04-20T18:48:57Z</time>
      </trkpt>
      <trkpt lat="59.8913783" lon="17.8421475">
        <ele>27.5349</ele>
        <time>2013-04-20T18:48:58Z</time>
      </trkpt>
      <trkpt lat="59.8913136" lon="17.8421183">
        <ele>27.0543</ele>
        <time>2013-04-20T18:48:59Z</time>
      </trkpt>
      <trkpt lat="59.8912588" lon="17.8420858">
        <ele>27.5349</ele>
        <time>2013-04-20T18:49:00Z</time>
      </trkpt>
      <trkpt lat="59.8912168" lon="17.8420501">
        <ele>28.4962</ele>
        <time>2013-04-20T18:49:01Z</time>
      </trkpt>
      <trkpt lat="59.8911665" lon="17.8420085">
        <ele>28.4962</ele>
        <time>2013-04-20T18:49:02Z</time>
      </trkpt>
      <trkpt lat="59.8911168" lon="17.8419668">
        <ele>29.4575</ele>
        <time>2013-04-20T18:49:03Z</time>
      </trkpt>
      <trkpt lat="59.8910629" lon="17.8419187">
        <ele>29.4575</ele>
        <time>2013-04-20T18:49:04Z</time>
      </trkpt>
      <trkpt lat="59.8910063" lon="17.8418676">
        <ele>29.4575</ele>
        <time>2013-04-20T18:49:05Z</time>
      </trkpt>
      <trkpt lat="59.8909524" lon="17.8418173">
        <ele>29.4575</ele>
        <time>2013-04-20T18:49:06Z</time>
      </trkpt>
      <trkpt lat="59.8909056" lon="17.8417665">
        <ele>29.4575</ele>
        <time>2013-04-20T18:49:07Z</time>
      </trkpt>
      <trkpt lat="59.8908581" lon="17.8417121">
        <ele>29.9381</ele>
        <time>2013-04-20T18:49:08Z</time>
      </trkpt>
      <trkpt lat="59.890809" lon="17.8416559">
        <ele>29.4575</ele>
        <time>2013-04-20T18:49:09Z</time>
      </trkpt>
      <trkpt lat="59.8907595" lon="17.8415889">
        <ele>29.4575</ele>
        <time>2013-04-20T18:49:10Z</time>
      </trkpt>
      <trkpt lat="59.8907132" lon="17.8415164">
        <ele>28.9769</ele>
        <time>2013-04-20T18:49:11Z</time>
      </trkpt>
      <trkpt lat="59.8906662" lon="17.8414407">
        <ele>28.9769</ele>
        <time>2013-04-20T18:49:12Z</time>
      </trkpt>
      <trkpt lat="59.8906209" lon="17.8413586">
        <ele>29.4575</ele>
        <time>2013-04-20T18:49:13Z</time>
      </trkpt>
      <trkpt lat="59.890573" lon="17.8412765">
        <ele>29.4575</ele>
        <time>2013-04-20T18:49:14Z</time>
      </trkpt>
      <trkpt lat="59.8905243" lon="17.841192">
        <ele>29.4575</ele>
        <time>2013-04-20T18:49:15Z</time>
      </trkpt>
      <trkpt lat="59.8904756" lon="17.8411106">
        <ele>29.4575</ele>
        <time>2013-04-20T18:49:16Z</time>
      </trkpt>
      <trkpt lat="59.8904294" lon="17.841032">
        <ele>29.9381</ele>
        <time>2013-04-20T18:49:17Z</time>
      </trkpt>
      <trkpt lat="59.890375" lon="17.8409557">
        <ele>30.4188</ele>
        <time>2013-04-20T18:49:18Z</time>
      </trkpt>
      <trkpt lat="59.8903184" lon="17.8408942">
        <ele>30.4188</ele>
        <time>2013-04-20T18:49:19Z</time>
      </trkpt>
      <trkpt lat="59.8902598" lon="17.8408516">
        <ele>30.4188</ele>
        <time>2013-04-20T18:49:20Z</time>
      </trkpt>
      <trkpt lat="59.8901946" lon="17.8408319">
        <ele>30.8995</ele>
        <time>2013-04-20T18:49:21Z</time>
      </trkpt>
      <trkpt lat="59.8901238" lon="17.8408427">
        <ele>31.3801</ele>
        <time>2013-04-20T18:49:22Z</time>
      </trkpt>
      <trkpt lat="59.8900542" lon="17.8408801">
        <ele>31.8607</ele>
        <time>2013-04-20T18:49:23Z</time>
      </trkpt>
      <trkpt lat="59.8899947" lon="17.840947">
        <ele>31.8607</ele>
        <time>2013-04-20T18:49:24Z</time>
      </trkpt>
      <trkpt lat="59.8899412" lon="17.8410335">
        <ele>31.8607</ele>
        <time>2013-04-20T18:49:25Z</time>
      </trkpt>
      <trkpt lat="59.8899015" lon="17.8411354">
        <ele>31.8607</ele>
        <time>2013-04-20T18:49:26Z</time>
      </trkpt>
      <trkpt lat="59.8898725" lon="17.8412467">
        <ele>31.8607</ele>
        <time>2013-04-20T18:49:27Z</time>
      </trkpt>
      <trkpt lat="59.8898483" lon="17.8413669">
        <ele>32.8223</ele>
        <time>2013-04-20T18:49:28Z</time>
      </trkpt>
      <trkpt lat="59.8898322" lon="17.8414993">
        <ele>34.2642</ele>
        <time>2013-04-20T18:49:29Z</time>
      </trkpt>
      <trkpt lat="59.8898197" lon="17.8416326">
        <ele>35.2255</ele>
        <time>2013-04-20T18:49:30Z</time>
      </trkpt>
      <trkpt lat="59.8898078" lon="17.8417605">
        <ele>35.7061</ele>
        <time>2013-04-20T18:49:31Z</time>
      </trkpt>
      <trkpt lat="59.8898" lon="17.8418929">
        <ele>36.6675</ele>
        <time>2013-04-20T18:49:32Z</time>
      </trkpt>
      <trkpt lat="59.8897958" lon="17.8420353">
        <ele>37.6287</ele>
        <time>2013-04-20T18:49:33Z</time>
      </trkpt>
      <trkpt lat="59.8897938" lon="17.8421898">
        <ele>40.0321</ele>
        <time>2013-04-20T18:49:34Z</time>
      </trkpt>
      <trkpt lat="59.8897903" lon="17.8424258">
        <ele>41.9547</ele>
        <time>2013-04-20T18:49:35Z</time>
      </trkpt>
      <trkpt lat="59.8897721" lon="17.8425902">
        <ele>43.3966</ele>
        <time>2013-04-20T18:49:36Z</time>
      </trkpt>
      <trkpt lat="59.8897687" lon="17.8427313">
        <ele>43.8773</ele>
        <time>2013-04-20T18:49:37Z</time>
      </trkpt>
      <trkpt lat="59.8897617" lon="17.8428703">
        <ele>44.358</ele>
        <time>2013-04-20T18:49:38Z</time>
      </trkpt>
      <trkpt lat="59.8897508" lon="17.8430142">
        <ele>43.8773</ele>
        <time>2013-04-20T18:49:39Z</time>
      </trkpt>
      <trkpt lat="59.8897254" lon="17.8431536">
        <ele>42.916</ele>
        <time>2013-04-20T18:49:40Z</time>
      </trkpt>
      <trkpt lat="59.8896836" lon="17.8432734">
        <ele>41.474</ele>
        <time>2013-04-20T18:49:41Z</time>
      </trkpt>
      <trkpt lat="59.8896317" lon="17.8433681">
        <ele>39.5513</ele>
        <time>2013-04-20T18:49:42Z</time>
      </trkpt>
      <trkpt lat="59.8895654" lon="17.8434262">
        <ele>37.1481</ele>
        <time>2013-04-20T18:49:43Z</time>
      </trkpt>
      <trkpt lat="59.8894846" lon="17.8434463">
        <ele>35.7061</ele>
        <time>2013-04-20T18:49:44Z</time>
      </trkpt>
      <trkpt lat="59.8893965" lon="17.8434365">
        <ele>33.7834</ele>
        <time>2013-04-20T18:49:45Z</time>
      </trkpt>
      <trkpt lat="59.8893036" lon="17.8433955">
        <ele>32.8223</ele>
        <time>2013-04-20T18:49:46Z</time>
      </trkpt>
      <trkpt lat="59.8892142" lon="17.8433247">
        <ele>29.9381</ele>
        <time>2013-04-20T18:49:47Z</time>
      </trkpt>
      <trkpt lat="59.8891385" lon="17.8432692">
        <ele>28.0155</ele>
        <time>2013-04-20T18:49:48Z</time>
      </trkpt>
      <trkpt lat="59.8890607" lon="17.8432095">
        <ele>26.5736</ele>
        <time>2013-04-20T18:49:49Z</time>
      </trkpt>
      <trkpt lat="59.888984" lon="17.8431634">
        <ele>25.6123</ele>
        <time>2013-04-20T18:49:50Z</time>
      </trkpt>
      <trkpt lat="59.8889109" lon="17.8431239">
        <ele>24.651</ele>
        <time>2013-04-20T18:49:51Z</time>
      </trkpt>
      <trkpt lat="59.8888329" lon="17.8431018">
        <ele>24.1703</ele>
        <time>2013-04-20T18:49:52Z</time>
      </trkpt>
      <trkpt lat="59.888752" lon="17.8430868">
        <ele>23.6896</ele>
        <time>2013-04-20T18:49:53Z</time>
      </trkpt>
      <trkpt lat="59.8886671" lon="17.8430691">
        <ele>22.7283</ele>
        <time>2013-04-20T18:49:54Z</time>
      </trkpt>
      <trkpt lat="59.8885851" lon="17.8430481">
        <ele>21.767</ele>
        <time>2013-04-20T18:49:55Z</time>
      </trkpt>
      <trkpt lat="59.8885046" lon="17.8430246">
        <ele>21.2864</ele>
        <time>2013-04-20T18:49:56Z</time>
      </trkpt>
      <trkpt lat="59.8884221" lon="17.8429979">
        <ele>21.2864</ele>
        <time>2013-04-20T18:49:57Z</time>
      </trkpt>
      <trkpt lat="59.8883502" lon="17.8429506">
        <ele>21.2864</ele>
        <time>2013-04-20T18:49:58Z</time>
      </trkpt>
      <trkpt lat="59.888276" lon="17.8428952">
        <ele>21.2864</ele>
        <time>2013-04-20T18:49:59Z</time>
      </trkpt>
      <trkpt lat="59.8882021" lon="17.8428351">
        <ele>21.767</ele>
        <time>2013-04-20T18:50:00Z</time>
      </trkpt>
      <trkpt lat="59.8881273" lon="17.8427729">
        <ele>21.767</ele>
        <time>2013-04-20T18:50:01Z</time>
      </trkpt>
      <trkpt lat="59.8880523" lon="17.8427078">
        <ele>21.767</ele>
        <time>2013-04-20T18:50:02Z</time>
      </trkpt>
      <trkpt lat="59.8879777" lon="17.8426372">
        <ele>21.767</ele>
        <time>2013-04-20T18:50:03Z</time>
      </trkpt>
      <trkpt lat="59.8879049" lon="17.8425595">
        <ele>21.767</ele>
        <time>2013-04-20T18:50:04Z</time>
      </trkpt>
      <trkpt lat="59.8878342" lon="17.8424771">
        <ele>21.767</ele>
        <time>2013-04-20T18:50:05Z</time>
      </trkpt>
      <trkpt lat="59.8877656" lon="17.8423899">
        <ele>21.2864</ele>
        <time>2013-04-20T18:50:06Z</time>
      </trkpt>
      <trkpt lat="59.8876986" lon="17.8422985">
        <ele>21.2864</ele>
        <time>2013-04-20T18:50:07Z</time>
      </trkpt>
      <trkpt lat="59.8876327" lon="17.842204">
        <ele>21.2864</ele>
        <time>2013-04-20T18:50:08Z</time>
      </trkpt>
      <trkpt lat="59.8875706" lon="17.8421047">
        <ele>21.2864</ele>
        <time>2013-04-20T18:50:09Z</time>
      </trkpt>
      <trkpt lat="59.8875146" lon="17.8420001">
        <ele>21.2864</ele>
        <time>2013-04-20T18:50:10Z</time>
      </trkpt>
      <trkpt lat="59.8874643" lon="17.8418897">
        <ele>22.2476</ele>
        <time>2013-04-20T18:50:11Z</time>
      </trkpt>
      <trkpt lat="59.8874186" lon="17.8417754">
        <ele>22.7283</ele>
        <time>2013-04-20T18:50:12Z</time>
      </trkpt>
      <trkpt lat="59.8873751" lon="17.8416595">
        <ele>22.7283</ele>
        <time>2013-04-20T18:50:13Z</time>
      </trkpt>
      <trkpt lat="59.8873325" lon="17.841541">
        <ele>22.7283</ele>
        <time>2013-04-20T18:50:14Z</time>
      </trkpt>
      <trkpt lat="59.887286" lon="17.8414257">
        <ele>22.7283</ele>
        <time>2013-04-20T18:50:15Z</time>
      </trkpt>
      <trkpt lat="59.8872324" lon="17.8413203">
        <ele>22.7283</ele>
        <time>2013-04-20T18:50:16Z</time>
      </trkpt>
      <trkpt lat="59.8871716" lon="17.8412262">
        <ele>23.209</ele>
        <time>2013-04-20T18:50:17Z</time>
      </trkpt>
      <trkpt lat="59.8870935" lon="17.8411361">
        <ele>23.6896</ele>
        <time>2013-04-20T18:50:18Z</time>
      </trkpt>
      <trkpt lat="59.8870143" lon="17.8410687">
        <ele>24.1703</ele>
        <time>2013-04-20T18:50:19Z</time>
      </trkpt>
      <trkpt lat="59.8869318" lon="17.8410162">
        <ele>24.1703</ele>
        <time>2013-04-20T18:50:20Z</time>
      </trkpt>
      <trkpt lat="59.8868477" lon="17.8409801">
        <ele>24.651</ele>
        <time>2013-04-20T18:50:21Z</time>
      </trkpt>
      <trkpt lat="59.8867672" lon="17.8409737">
        <ele>24.651</ele>
        <time>2013-04-20T18:50:22Z</time>
      </trkpt>
      <trkpt lat="59.8866898" lon="17.840991">
        <ele>24.651</ele>
        <time>2013-04-20T18:50:23Z</time>
      </trkpt>
      <trkpt lat="59.8866159" lon="17.8410242">
        <ele>24.651</ele>
        <time>2013-04-20T18:50:24Z</time>
      </trkpt>
      <trkpt lat="59.8865396" lon="17.8410691">
        <ele>24.651</ele>
        <time>2013-04-20T18:50:25Z</time>
      </trkpt>
      <trkpt lat="59.8864661" lon="17.8411174">
        <ele>24.651</ele>
        <time>2013-04-20T18:50:26Z</time>
      </trkpt>
      <trkpt lat="59.886393" lon="17.8411617">
        <ele>24.651</ele>
        <time>2013-04-20T18:50:27Z</time>
      </trkpt>
      <trkpt lat="59.886319" lon="17.8412043">
        <ele>24.651</ele>
        <time>2013-04-20T18:50:28Z</time>
      </trkpt>
      <trkpt lat="59.8862422" lon="17.8412449">
        <ele>24.1703</ele>
        <time>2013-04-20T18:50:29Z</time>
      </trkpt>
      <trkpt lat="59.8861655" lon="17.8412821">
        <ele>24.1703</ele>
        <time>2013-04-20T18:50:30Z</time>
      </trkpt>
      <trkpt lat="59.886089" lon="17.8413121">
        <ele>23.6896</ele>
        <time>2013-04-20T18:50:31Z</time>
      </trkpt>
      <trkpt lat="59.8860113" lon="17.8413334">
        <ele>23.6896</ele>
        <time>2013-04-20T18:50:32Z</time>
      </trkpt>
      <trkpt lat="59.8859349" lon="17.8413541">
        <ele>23.6896</ele>
        <time>2013-04-20T18:50:33Z</time>
      </trkpt>
      <trkpt lat="59.885857" lon="17.8413718">
        <ele>23.6896</ele>
        <time>2013-04-20T18:50:34Z</time>
      </trkpt>
      <trkpt lat="59.8857764" lon="17.8413852">
        <ele>23.209</ele>
        <time>2013-04-20T18:50:35Z</time>
      </trkpt>
      <trkpt lat="59.8856958" lon="17.8413955">
        <ele>22.7283</ele>
        <time>2013-04-20T18:50:36Z</time>
      </trkpt>
      <trkpt lat="59.8856162" lon="17.8414043">
        <ele>22.7283</ele>
        <time>2013-04-20T18:50:37Z</time>
      </trkpt>
      <trkpt lat="59.8855362" lon="17.8414111">
        <ele>22.7283</ele>
        <time>2013-04-20T18:50:38Z</time>
      </trkpt>
      <trkpt lat="59.8854582" lon="17.8414179">
        <ele>22.7283</ele>
        <time>2013-04-20T18:50:39Z</time>
      </trkpt>
      <trkpt lat="59.8853804" lon="17.8414254">
        <ele>22.7283</ele>
        <time>2013-04-20T18:50:40Z</time>
      </trkpt>
      <trkpt lat="59.8853021" lon="17.8414328">
        <ele>22.7283</ele>
        <time>2013-04-20T18:50:41Z</time>
      </trkpt>
      <trkpt lat="59.8852209" lon="17.8414394">
        <ele>22.7283</ele>
        <time>2013-04-20T18:50:42Z</time>
      </trkpt>
      <trkpt lat="59.8851403" lon="17.8414478">
        <ele>22.7283</ele>
        <time>2013-04-20T18:50:43Z</time>
      </trkpt>
      <trkpt lat="59.8850543" lon="17.8414489">
        <ele>22.7283</ele>
        <time>2013-04-20T18:50:44Z</time>
      </trkpt>
      <trkpt lat="59.8849717" lon="17.8414463">
        <ele>22.7283</ele>
        <time>2013-04-20T18:50:45Z</time>
      </trkpt>
      <trkpt lat="59.8848888" lon="17.8414365">
        <ele>22.7283</ele>
        <time>2013-04-20T18:50:46Z</time>
      </trkpt>
      <trkpt lat="59.8848059" lon="17.8414179">
        <ele>23.209</ele>
        <time>2013-04-20T18:50:47Z</time>
      </trkpt>
      <trkpt lat="59.8847244" lon="17.841392">
        <ele>23.209</ele>
        <time>2013-04-20T18:50:48Z</time>
      </trkpt>
      <trkpt lat="59.8846446" lon="17.8413539">
        <ele>23.209</ele>
        <time>2013-04-20T18:50:49Z</time>
      </trkpt>
      <trkpt lat="59.884568" lon="17.841304">
        <ele>23.6896</ele>
        <time>2013-04-20T18:50:50Z</time>
      </trkpt>
      <trkpt lat="59.8844939" lon="17.8412472">
        <ele>23.6896</ele>
        <time>2013-04-20T18:50:51Z</time>
      </trkpt>
      <trkpt lat="59.8844225" lon="17.8411842">
        <ele>23.6896</ele>
        <time>2013-04-20T18:50:52Z</time>
      </trkpt>
      <trkpt lat="59.8843546" lon="17.8411169">
        <ele>23.6896</ele>
        <time>2013-04-20T18:50:53Z</time>
      </trkpt>
      <trkpt lat="59.8842884" lon="17.8410452">
        <ele>23.6896</ele>
        <time>2013-04-20T18:50:54Z</time>
      </trkpt>
      <trkpt lat="59.8842234" lon="17.8409691">
        <ele>24.1703</ele>
        <time>2013-04-20T18:50:55Z</time>
      </trkpt>
      <trkpt lat="59.8841636" lon="17.8408647">
        <ele>24.1703</ele>
        <time>2013-04-20T18:50:56Z</time>
      </trkpt>
      <trkpt lat="59.8841009" lon="17.8407718">
        <ele>24.1703</ele>
        <time>2013-04-20T18:50:57Z</time>
      </trkpt>
      <trkpt lat="59.884046" lon="17.840691">
        <ele>24.651</ele>
        <time>2013-04-20T18:50:58Z</time>
      </trkpt>
      <trkpt lat="59.8839921" lon="17.8406123">
        <ele>24.651</ele>
        <time>2013-04-20T18:50:59Z</time>
      </trkpt>
      <trkpt lat="59.8839284" lon="17.8405335">
        <ele>24.651</ele>
        <time>2013-04-20T18:51:00Z</time>
      </trkpt>
      <trkpt lat="59.8838681" lon="17.8404547">
        <ele>25.1317</ele>
        <time>2013-04-20T18:51:01Z</time>
      </trkpt>
      <trkpt lat="59.8838114" lon="17.8403781">
        <ele>24.651</ele>
        <time>2013-04-20T18:51:02Z</time>
      </trkpt>
      <trkpt lat="59.8837574" lon="17.8403057">
        <ele>25.1317</ele>
        <time>2013-04-20T18:51:03Z</time>
      </trkpt>
      <trkpt lat="59.8837076" lon="17.8402373">
        <ele>25.1317</ele>
        <time>2013-04-20T18:51:04Z</time>
      </trkpt>
      <trkpt lat="59.8836595" lon="17.8401705">
        <ele>25.6123</ele>
        <time>2013-04-20T18:51:05Z</time>
      </trkpt>
      <trkpt lat="59.8836101" lon="17.8401039">
        <ele>25.6123</ele>
        <time>2013-04-20T18:51:06Z</time>
      </trkpt>
      <trkpt lat="59.8835575" lon="17.8400368">
        <ele>25.6123</ele>
        <time>2013-04-20T18:51:07Z</time>
      </trkpt>
      <trkpt lat="59.883507" lon="17.8399682">
        <ele>25.6123</ele>
        <time>2013-04-20T18:51:08Z</time>
      </trkpt>
      <trkpt lat="59.8834557" lon="17.8398978">
        <ele>26.0929</ele>
        <time>2013-04-20T18:51:09Z</time>
      </trkpt>
      <trkpt lat="59.8834058" lon="17.8398258">
        <ele>26.0929</ele>
        <time>2013-04-20T18:51:10Z</time>
      </trkpt>
      <trkpt lat="59.8833553" lon="17.8397551">
        <ele>26.5736</ele>
        <time>2013-04-20T18:51:11Z</time>
      </trkpt>
      <trkpt lat="59.8833033" lon="17.8396869">
        <ele>26.5736</ele>
        <time>2013-04-20T18:51:12Z</time>
      </trkpt>
      <trkpt lat="59.8832517" lon="17.8396199">
        <ele>27.0543</ele>
        <time>2013-04-20T18:51:13Z</time>
      </trkpt>
      <trkpt lat="59.8832026" lon="17.8395559">
        <ele>27.5349</ele>
        <time>2013-04-20T18:51:14Z</time>
      </trkpt>
      <trkpt lat="59.8831575" lon="17.8394979">
        <ele>28.0155</ele>
        <time>2013-04-20T18:51:15Z</time>
      </trkpt>
      <trkpt lat="59.8831175" lon="17.839442">
        <ele>28.4962</ele>
        <time>2013-04-20T18:51:16Z</time>
      </trkpt>
      <trkpt lat="59.8830763" lon="17.8393847">
        <ele>28.9769</ele>
        <time>2013-04-20T18:51:17Z</time>
      </trkpt>
      <trkpt lat="59.8830359" lon="17.8393324">
        <ele>29.4575</ele>
        <time>2013-04-20T18:51:18Z</time>
      </trkpt>
      <trkpt lat="59.8829974" lon="17.8392816">
        <ele>29.9381</ele>
        <time>2013-04-20T18:51:19Z</time>
      </trkpt>
      <trkpt lat="59.882957" lon="17.8392337">
        <ele>30.4188</ele>
        <time>2013-04-20T18:51:20Z</time>
      </trkpt>
      <trkpt lat="59.8829161" lon="17.8391926">
        <ele>30.4188</ele>
        <time>2013-04-20T18:51:21Z</time>
      </trkpt>
      <trkpt lat="59.882872" lon="17.8391474">
        <ele>30.8995</ele>
        <time>2013-04-20T18:51:22Z</time>
      </trkpt>
      <trkpt lat="59.8828277" lon="17.8391044">
        <ele>30.8995</ele>
        <time>2013-04-20T18:51:23Z</time>
      </trkpt>
      <trkpt lat="59.8827863" lon="17.8390728">
        <ele>31.3801</ele>
        <time>2013-04-20T18:51:24Z</time>
      </trkpt>
      <trkpt lat="59.8827464" lon="17.8390477">
        <ele>31.3801</ele>
        <time>2013-04-20T18:51:25Z</time>
      </trkpt>
      <trkpt lat="59.8827052" lon="17.8390232">
        <ele>31.3801</ele>
        <time>2013-04-20T18:51:26Z</time>
      </trkpt>
      <trkpt lat="59.8826597" lon="17.8390004">
        <ele>31.8607</ele>
        <time>2013-04-20T18:51:27Z</time>
      </trkpt>
      <trkpt lat="59.8826033" lon="17.8389767">
        <ele>31.8607</ele>
        <time>2013-04-20T18:51:28Z</time>
      </trkpt>
      <trkpt lat="59.8825413" lon="17.8389527">
        <ele>31.3801</ele>
        <time>2013-04-20T18:51:29Z</time>
      </trkpt>
      <trkpt lat="59.882477" lon="17.8389298">
        <ele>30.4188</ele>
        <time>2013-04-20T18:51:30Z</time>
      </trkpt>
      <trkpt lat="59.8824111" lon="17.838907">
        <ele>29.9381</ele>
        <time>2013-04-20T18:51:31Z</time>
      </trkpt>
      <trkpt lat="59.8823423" lon="17.838881">
        <ele>28.9769</ele>
        <time>2013-04-20T18:51:32Z</time>
      </trkpt>
      <trkpt lat="59.8822726" lon="17.8388511">
        <ele>28.4962</ele>
        <time>2013-04-20T18:51:33Z</time>
      </trkpt>
      <trkpt lat="59.8821985" lon="17.8388126">
        <ele>28.4962</ele>
        <time>2013-04-20T18:51:34Z</time>
      </trkpt>
      <trkpt lat="59.8821253" lon="17.8387603">
        <ele>28.0155</ele>
        <time>2013-04-20T18:51:35Z</time>
      </trkpt>
      <trkpt lat="59.8820561" lon="17.8386936">
        <ele>28.0155</ele>
        <time>2013-04-20T18:51:36Z</time>
      </trkpt>
      <trkpt lat="59.8819893" lon="17.8386129">
        <ele>28.0155</ele>
        <time>2013-04-20T18:51:37Z</time>
      </trkpt>
      <trkpt lat="59.8819256" lon="17.8385231">
        <ele>28.0155</ele>
        <time>2013-04-20T18:51:38Z</time>
      </trkpt>
      <trkpt lat="59.8818623" lon="17.8384253">
        <ele>27.0543</ele>
        <time>2013-04-20T18:51:39Z</time>
      </trkpt>
      <trkpt lat="59.8818" lon="17.8383275">
        <ele>27.0543</ele>
        <time>2013-04-20T18:51:40Z</time>
      </trkpt>
      <trkpt lat="59.8817396" lon="17.8382288">
        <ele>26.5736</ele>
        <time>2013-04-20T18:51:41Z</time>
      </trkpt>
      <trkpt lat="59.8816807" lon="17.8381283">
        <ele>26.5736</ele>
        <time>2013-04-20T18:51:42Z</time>
      </trkpt>
      <trkpt lat="59.8816221" lon="17.8380259">
        <ele>26.0929</ele>
        <time>2013-04-20T18:51:43Z</time>
      </trkpt>
      <trkpt lat="59.881564" lon="17.837927">
        <ele>26.0929</ele>
        <time>2013-04-20T18:51:44Z</time>
      </trkpt>
      <trkpt lat="59.8815068" lon="17.8378307">
        <ele>25.6123</ele>
        <time>2013-04-20T18:51:45Z</time>
      </trkpt>
      <trkpt lat="59.8814498" lon="17.8377405">
        <ele>25.6123</ele>
        <time>2013-04-20T18:51:46Z</time>
      </trkpt>
      <trkpt lat="59.8813892" lon="17.8376613">
        <ele>25.6123</ele>
        <time>2013-04-20T18:51:47Z</time>
      </trkpt>
      <trkpt lat="59.8813272" lon="17.8375845">
        <ele>25.6123</ele>
        <time>2013-04-20T18:51:48Z</time>
      </trkpt>
      <trkpt lat="59.8812673" lon="17.8375047">
        <ele>25.6123</ele>
        <time>2013-04-20T18:51:49Z</time>
      </trkpt>
      <trkpt lat="59.8812091" lon="17.8374236">
        <ele>26.0929</ele>
        <time>2013-04-20T18:51:50Z</time>
      </trkpt>
      <trkpt lat="59.8811503" lon="17.8373394">
        <ele>26.0929</ele>
        <time>2013-04-20T18:51:51Z</time>
      </trkpt>
      <trkpt lat="59.8810947" lon="17.8372515">
        <ele>26.0929</ele>
        <time>2013-04-20T18:51:52Z</time>
      </trkpt>
      <trkpt lat="59.8810409" lon="17.8371637">
        <ele>25.6123</ele>
        <time>2013-04-20T18:51:53Z</time>
      </trkpt>
      <trkpt lat="59.8809876" lon="17.8370773">
        <ele>25.6123</ele>
        <time>2013-04-20T18:51:54Z</time>
      </trkpt>
      <trkpt lat="59.8809292" lon="17.8369924">
        <ele>25.6123</ele>
        <time>2013-04-20T18:51:55Z</time>
      </trkpt>
      <trkpt lat="59.8808722" lon="17.8369048">
        <ele>25.6123</ele>
        <time>2013-04-20T18:51:56Z</time>
      </trkpt>
      <trkpt lat="59.8808237" lon="17.8368139">
        <ele>25.6123</ele>
        <time>2013-04-20T18:51:57Z</time>
      </trkpt>
      <trkpt lat="59.8807721" lon="17.8367253">
        <ele>25.1317</ele>
        <time>2013-04-20T18:51:58Z</time>
      </trkpt>
      <trkpt lat="59.8807201" lon="17.8366361">
        <ele>25.1317</ele>
        <time>2013-04-20T18:51:59Z</time>
      </trkpt>
      <trkpt lat="59.880667" lon="17.8365496">
        <ele>25.1317</ele>
        <time>2013-04-20T18:52:00Z</time>
      </trkpt>
      <trkpt lat="59.8806117" lon="17.8364663">
        <ele>25.6123</ele>
        <time>2013-04-20T18:52:01Z</time>
      </trkpt>
      <trkpt lat="59.8805518" lon="17.8363869">
        <ele>26.0929</ele>
        <time>2013-04-20T18:52:02Z</time>
      </trkpt>
      <trkpt lat="59.8804918" lon="17.8363088">
        <ele>26.5736</ele>
        <time>2013-04-20T18:52:03Z</time>
      </trkpt>
      <trkpt lat="59.8804317" lon="17.8362349">
        <ele>27.0543</ele>
        <time>2013-04-20T18:52:04Z</time>
      </trkpt>
      <trkpt lat="59.8803691" lon="17.8361665">
        <ele>27.5349</ele>
        <time>2013-04-20T18:52:05Z</time>
      </trkpt>
      <trkpt lat="59.8803065" lon="17.8361046">
        <ele>28.0155</ele>
        <time>2013-04-20T18:52:06Z</time>
      </trkpt>
      <trkpt lat="59.8802453" lon="17.8360433">
        <ele>28.0155</ele>
        <time>2013-04-20T18:52:07Z</time>
      </trkpt>
      <trkpt lat="59.8801857" lon="17.8359817">
        <ele>28.0155</ele>
        <time>2013-04-20T18:52:08Z</time>
      </trkpt>
      <trkpt lat="59.8801262" lon="17.8359243">
        <ele>28.0155</ele>
        <time>2013-04-20T18:52:09Z</time>
      </trkpt>
      <trkpt lat="59.8800664" lon="17.8358724">
        <ele>27.5349</ele>
        <time>2013-04-20T18:52:10Z</time>
      </trkpt>
      <trkpt lat="59.8800068" lon="17.8358257">
        <ele>27.5349</ele>
        <time>2013-04-20T18:52:11Z</time>
      </trkpt>
      <trkpt lat="59.8799464" lon="17.8357881">
        <ele>27.5349</ele>
        <time>2013-04-20T18:52:12Z</time>
      </trkpt>
      <trkpt lat="59.8798854" lon="17.8357612">
        <ele>27.0543</ele>
        <time>2013-04-20T18:52:13Z</time>
      </trkpt>
      <trkpt lat="59.8798292" lon="17.8357493">
        <ele>27.0543</ele>
        <time>2013-04-20T18:52:14Z</time>
      </trkpt>
      <trkpt lat="59.8797689" lon="17.8357462">
        <ele>27.0543</ele>
        <time>2013-04-20T18:52:15Z</time>
      </trkpt>
      <trkpt lat="59.8797003" lon="17.8357465">
        <ele>27.0543</ele>
        <time>2013-04-20T18:52:16Z</time>
      </trkpt>
      <trkpt lat="59.8796252" lon="17.8357548">
        <ele>26.5736</ele>
        <time>2013-04-20T18:52:17Z</time>
      </trkpt>
      <trkpt lat="59.8795463" lon="17.8357527">
        <ele>26.0929</ele>
        <time>2013-04-20T18:52:18Z</time>
      </trkpt>
      <trkpt lat="59.8794619" lon="17.8357415">
        <ele>25.6123</ele>
        <time>2013-04-20T18:52:19Z</time>
      </trkpt>
      <trkpt lat="59.8793781" lon="17.8357291">
        <ele>26.0929</ele>
        <time>2013-04-20T18:52:20Z</time>
      </trkpt>
      <trkpt lat="59.8792963" lon="17.8357187">
        <ele>25.6123</ele>
        <time>2013-04-20T18:52:21Z</time>
      </trkpt>
      <trkpt lat="59.8792175" lon="17.8357124">
        <ele>24.651</ele>
        <time>2013-04-20T18:52:22Z</time>
      </trkpt>
      <trkpt lat="59.879143" lon="17.8357015">
        <ele>24.651</ele>
        <time>2013-04-20T18:52:23Z</time>
      </trkpt>
      <trkpt lat="59.8790726" lon="17.835684">
        <ele>24.651</ele>
        <time>2013-04-20T18:52:24Z</time>
      </trkpt>
      <trkpt lat="59.8790016" lon="17.8356647">
        <ele>24.651</ele>
        <time>2013-04-20T18:52:25Z</time>
      </trkpt>
      <trkpt lat="59.8789172" lon="17.8356387">
        <ele>24.651</ele>
        <time>2013-04-20T18:52:26Z</time>
      </trkpt>
      <trkpt lat="59.8788434" lon="17.8355892">
        <ele>24.651</ele>
        <time>2013-04-20T18:52:27Z</time>
      </trkpt>
      <trkpt lat="59.8787716" lon="17.8355533">
        <ele>24.651</ele>
        <time>2013-04-20T18:52:28Z</time>
      </trkpt>
      <trkpt lat="59.8787006" lon="17.8355084">
        <ele>24.651</ele>
        <time>2013-04-20T18:52:29Z</time>
      </trkpt>
      <trkpt lat="59.8786375" lon="17.8354584">
        <ele>25.1317</ele>
        <time>2013-04-20T18:52:30Z</time>
      </trkpt>
      <trkpt lat="59.8785725" lon="17.8354113">
        <ele>24.651</ele>
        <time>2013-04-20T18:52:31Z</time>
      </trkpt>
      <trkpt lat="59.8785069" lon="17.8353525">
        <ele>25.1317</ele>
        <time>2013-04-20T18:52:32Z</time>
      </trkpt>
      <trkpt lat="59.8784422" lon="17.8352974">
        <ele>25.6123</ele>
        <time>2013-04-20T18:52:33Z</time>
      </trkpt>
      <trkpt lat="59.8783768" lon="17.8352321">
        <ele>25.6123</ele>
        <time>2013-04-20T18:52:34Z</time>
      </trkpt>
      <trkpt lat="59.8783116" lon="17.8351738">
        <ele>25.6123</ele>
        <time>2013-04-20T18:52:35Z</time>
      </trkpt>
      <trkpt lat="59.8782467" lon="17.8351167">
        <ele>25.6123</ele>
        <time>2013-04-20T18:52:36Z</time>
      </trkpt>
      <trkpt lat="59.8781855" lon="17.8350618">
        <ele>25.6123</ele>
        <time>2013-04-20T18:52:37Z</time>
      </trkpt>
      <trkpt lat="59.8781209" lon="17.8350125">
        <ele>25.6123</ele>
        <time>2013-04-20T18:52:38Z</time>
      </trkpt>
      <trkpt lat="59.8780582" lon="17.8349681">
        <ele>25.1317</ele>
        <time>2013-04-20T18:52:39Z</time>
      </trkpt>
      <trkpt lat="59.8779982" lon="17.8349038">
        <ele>24.651</ele>
        <time>2013-04-20T18:52:40Z</time>
      </trkpt>
      <trkpt lat="59.8779465" lon="17.8348013">
        <ele>24.651</ele>
        <time>2013-04-20T18:52:41Z</time>
      </trkpt>
      <trkpt lat="59.8778903" lon="17.834727">
        <ele>24.1703</ele>
        <time>2013-04-20T18:52:42Z</time>
      </trkpt>
      <trkpt lat="59.8778327" lon="17.8346542">
        <ele>24.1703</ele>
        <time>2013-04-20T18:52:43Z</time>
      </trkpt>
      <trkpt lat="59.8777747" lon="17.8345814">
        <ele>24.1703</ele>
        <time>2013-04-20T18:52:44Z</time>
      </trkpt>
      <trkpt lat="59.877717" lon="17.8345055">
        <ele>24.1703</ele>
        <time>2013-04-20T18:52:45Z</time>
      </trkpt>
      <trkpt lat="59.8776568" lon="17.8344224">
        <ele>24.1703</ele>
        <time>2013-04-20T18:52:46Z</time>
      </trkpt>
      <trkpt lat="59.8775962" lon="17.8343459">
        <ele>23.6896</ele>
        <time>2013-04-20T18:52:47Z</time>
      </trkpt>
      <trkpt lat="59.8775364" lon="17.8342682">
        <ele>23.6896</ele>
        <time>2013-04-20T18:52:48Z</time>
      </trkpt>
      <trkpt lat="59.8774756" lon="17.8341909">
        <ele>23.209</ele>
        <time>2013-04-20T18:52:49Z</time>
      </trkpt>
      <trkpt lat="59.8774158" lon="17.8341149">
        <ele>22.7283</ele>
        <time>2013-04-20T18:52:50Z</time>
      </trkpt>
      <trkpt lat="59.8773564" lon="17.8340391">
        <ele>22.2476</ele>
        <time>2013-04-20T18:52:51Z</time>
      </trkpt>
      <trkpt lat="59.8772963" lon="17.8339648">
        <ele>21.767</ele>
        <time>2013-04-20T18:52:52Z</time>
      </trkpt>
      <trkpt lat="59.877236" lon="17.8338948">
        <ele>21.767</ele>
        <time>2013-04-20T18:52:53Z</time>
      </trkpt>
      <trkpt lat="59.8771746" lon="17.8338293">
        <ele>21.2864</ele>
        <time>2013-04-20T18:52:54Z</time>
      </trkpt>
      <trkpt lat="59.8771122" lon="17.8337689">
        <ele>21.2864</ele>
        <time>2013-04-20T18:52:55Z</time>
      </trkpt>
      <trkpt lat="59.8770477" lon="17.8337112">
        <ele>20.8057</ele>
        <time>2013-04-20T18:52:56Z</time>
      </trkpt>
      <trkpt lat="59.8769827" lon="17.8336596">
        <ele>20.8057</ele>
        <time>2013-04-20T18:52:57Z</time>
      </trkpt>
      <trkpt lat="59.8769171" lon="17.8336115">
        <ele>20.325</ele>
        <time>2013-04-20T18:52:58Z</time>
      </trkpt>
      <trkpt lat="59.876838" lon="17.8335731">
        <ele>19.8444</ele>
        <time>2013-04-20T18:52:59Z</time>
      </trkpt>
      <trkpt lat="59.8767608" lon="17.8335242">
        <ele>20.325</ele>
        <time>2013-04-20T18:53:00Z</time>
      </trkpt>
      <trkpt lat="59.8767017" lon="17.8334675">
        <ele>20.325</ele>
        <time>2013-04-20T18:53:01Z</time>
      </trkpt>
      <trkpt lat="59.8766385" lon="17.8334316">
        <ele>20.325</ele>
        <time>2013-04-20T18:53:02Z</time>
      </trkpt>
      <trkpt lat="59.8765726" lon="17.8334089">
        <ele>19.8444</ele>
        <time>2013-04-20T18:53:03Z</time>
      </trkpt>
      <trkpt lat="59.8765125" lon="17.8333695">
        <ele>19.8444</ele>
        <time>2013-04-20T18:53:04Z</time>
      </trkpt>
      <trkpt lat="59.8764548" lon="17.8333306">
        <ele>19.8444</ele>
        <time>2013-04-20T18:53:05Z</time>
      </trkpt>
      <trkpt lat="59.8763955" lon="17.8332878">
        <ele>19.8444</ele>
        <time>2013-04-20T18:53:06Z</time>
      </trkpt>
      <trkpt lat="59.8763321" lon="17.833261">
        <ele>19.8444</ele>
        <time>2013-04-20T18:53:07Z</time>
      </trkpt>
      <trkpt lat="59.876267" lon="17.8332191">
        <ele>19.3638</ele>
        <time>2013-04-20T18:53:08Z</time>
      </trkpt>
      <trkpt lat="59.8762069" lon="17.8331811">
        <ele>19.3638</ele>
        <time>2013-04-20T18:53:09Z</time>
      </trkpt>
      <trkpt lat="59.8761442" lon="17.8331338">
        <ele>19.3638</ele>
        <time>2013-04-20T18:53:10Z</time>
      </trkpt>
      <trkpt lat="59.8760788" lon="17.8330805">
        <ele>19.3638</ele>
        <time>2013-04-20T18:53:11Z</time>
      </trkpt>
      <trkpt lat="59.8760089" lon="17.8330209">
        <ele>19.3638</ele>
        <time>2013-04-20T18:53:12Z</time>
      </trkpt>
      <trkpt lat="59.8759448" lon="17.832953">
        <ele>19.3638</ele>
        <time>2013-04-20T18:53:13Z</time>
      </trkpt>
      <trkpt lat="59.8758876" lon="17.8328744">
        <ele>19.8444</ele>
        <time>2013-04-20T18:53:14Z</time>
      </trkpt>
      <trkpt lat="59.8758348" lon="17.8328129">
        <ele>19.8444</ele>
        <time>2013-04-20T18:53:15Z</time>
      </trkpt>
      <trkpt lat="59.8757753" lon="17.8327458">
        <ele>20.325</ele>
        <time>2013-04-20T18:53:16Z</time>
      </trkpt>
      <trkpt lat="59.8757154" lon="17.8326796">
        <ele>20.325</ele>
        <time>2013-04-20T18:53:17Z</time>
      </trkpt>
      <trkpt lat="59.8756551" lon="17.832613">
        <ele>20.325</ele>
        <time>2013-04-20T18:53:18Z</time>
      </trkpt>
      <trkpt lat="59.8755937" lon="17.8325483">
        <ele>20.8057</ele>
        <time>2013-04-20T18:53:19Z</time>
      </trkpt>
      <trkpt lat="59.8755304" lon="17.8324955">
        <ele>20.8057</ele>
        <time>2013-04-20T18:53:20Z</time>
      </trkpt>
      <trkpt lat="59.8754636" lon="17.832449">
        <ele>20.8057</ele>
        <time>2013-04-20T18:53:21Z</time>
      </trkpt>
      <trkpt lat="59.8753957" lon="17.8324103">
        <ele>20.8057</ele>
        <time>2013-04-20T18:53:22Z</time>
      </trkpt>
      <trkpt lat="59.8753259" lon="17.8323821">
        <ele>20.8057</ele>
        <time>2013-04-20T18:53:23Z</time>
      </trkpt>
      <trkpt lat="59.875243" lon="17.8323469">
        <ele>21.2864</ele>
        <time>2013-04-20T18:53:24Z</time>
      </trkpt>
      <trkpt lat="59.8751647" lon="17.8323201">
        <ele>21.2864</ele>
        <time>2013-04-20T18:53:25Z</time>
      </trkpt>
      <trkpt lat="59.8750906" lon="17.8323008">
        <ele>21.767</ele>
        <time>2013-04-20T18:53:26Z</time>
      </trkpt>
      <trkpt lat="59.8750168" lon="17.8322854">
        <ele>21.767</ele>
        <time>2013-04-20T18:53:27Z</time>
      </trkpt>
      <trkpt lat="59.8749466" lon="17.8322735">
        <ele>21.767</ele>
        <time>2013-04-20T18:53:28Z</time>
      </trkpt>
      <trkpt lat="59.8748755" lon="17.832258">
        <ele>21.767</ele>
        <time>2013-04-20T18:53:29Z</time>
      </trkpt>
      <trkpt lat="59.8748032" lon="17.8322392">
        <ele>22.2476</ele>
        <time>2013-04-20T18:53:30Z</time>
      </trkpt>
      <trkpt lat="59.8747307" lon="17.8322211">
        <ele>22.2476</ele>
        <time>2013-04-20T18:53:31Z</time>
      </trkpt>
      <trkpt lat="59.8746573" lon="17.8322038">
        <ele>22.2476</ele>
        <time>2013-04-20T18:53:32Z</time>
      </trkpt>
      <trkpt lat="59.8745888" lon="17.8321859">
        <ele>22.2476</ele>
        <time>2013-04-20T18:53:33Z</time>
      </trkpt>
      <trkpt lat="59.874523" lon="17.8321649">
        <ele>22.2476</ele>
        <time>2013-04-20T18:53:34Z</time>
      </trkpt>
      <trkpt lat="59.8744618" lon="17.8321319">
        <ele>22.2476</ele>
        <time>2013-04-20T18:53:35Z</time>
      </trkpt>
      <trkpt lat="59.8744046" lon="17.8320904">
        <ele>21.2864</ele>
        <time>2013-04-20T18:53:36Z</time>
      </trkpt>
      <trkpt lat="59.8743481" lon="17.8320424">
        <ele>21.2864</ele>
        <time>2013-04-20T18:53:37Z</time>
      </trkpt>
      <trkpt lat="59.8742953" lon="17.831994">
        <ele>20.325</ele>
        <time>2013-04-20T18:53:38Z</time>
      </trkpt>
      <trkpt lat="59.8742486" lon="17.831947">
        <ele>21.2864</ele>
        <time>2013-04-20T18:53:39Z</time>
      </trkpt>
      <trkpt lat="59.8742007" lon="17.8318937">
        <ele>20.8057</ele>
        <time>2013-04-20T18:53:40Z</time>
      </trkpt>
      <trkpt lat="59.874153" lon="17.8318371">
        <ele>20.8057</ele>
        <time>2013-04-20T18:53:41Z</time>
      </trkpt>
      <trkpt lat="59.8741042" lon="17.8317751">
        <ele>20.325</ele>
        <time>2013-04-20T18:53:42Z</time>
      </trkpt>
      <trkpt lat="59.8740551" lon="17.8317107">
        <ele>19.8444</ele>
        <time>2013-04-20T18:53:43Z</time>
      </trkpt>
      <trkpt lat="59.8740052" lon="17.8316454">
        <ele>19.8444</ele>
        <time>2013-04-20T18:53:44Z</time>
      </trkpt>
      <trkpt lat="59.8739536" lon="17.8315781">
        <ele>19.8444</ele>
        <time>2013-04-20T18:53:45Z</time>
      </trkpt>
      <trkpt lat="59.8739008" lon="17.8315082">
        <ele>19.8444</ele>
        <time>2013-04-20T18:53:46Z</time>
      </trkpt>
      <trkpt lat="59.8738473" lon="17.8314369">
        <ele>19.3638</ele>
        <time>2013-04-20T18:53:47Z</time>
      </trkpt>
      <trkpt lat="59.8737923" lon="17.8313658">
        <ele>19.3638</ele>
        <time>2013-04-20T18:53:48Z</time>
      </trkpt>
      <trkpt lat="59.8737361" lon="17.8312929">
        <ele>19.3638</ele>
        <time>2013-04-20T18:53:49Z</time>
      </trkpt>
      <trkpt lat="59.8736745" lon="17.8312141">
        <ele>18.8831</ele>
        <time>2013-04-20T18:53:50Z</time>
      </trkpt>
      <trkpt lat="59.8736143" lon="17.8311391">
        <ele>18.8831</ele>
        <time>2013-04-20T18:53:51Z</time>
      </trkpt>
      <trkpt lat="59.8735511" lon="17.8310694">
        <ele>19.3638</ele>
        <time>2013-04-20T18:53:52Z</time>
      </trkpt>
      <trkpt lat="59.8734797" lon="17.8310001">
        <ele>18.8831</ele>
        <time>2013-04-20T18:53:53Z</time>
      </trkpt>
      <trkpt lat="59.8734067" lon="17.8309348">
        <ele>18.8831</ele>
        <time>2013-04-20T18:53:54Z</time>
      </trkpt>
      <trkpt lat="59.8733299" lon="17.8308699">
        <ele>18.4023</ele>
        <time>2013-04-20T18:53:55Z</time>
      </trkpt>
      <trkpt lat="59.8732531" lon="17.8308058">
        <ele>17.9218</ele>
        <time>2013-04-20T18:53:56Z</time>
      </trkpt>
      <trkpt lat="59.8731806" lon="17.8307483">
        <ele>18.8831</ele>
        <time>2013-04-20T18:53:57Z</time>
      </trkpt>
      <trkpt lat="59.8731071" lon="17.8306959">
        <ele>19.3638</ele>
        <time>2013-04-20T18:53:58Z</time>
      </trkpt>
      <trkpt lat="59.8730323" lon="17.8306489">
        <ele>19.8444</ele>
        <time>2013-04-20T18:53:59Z</time>
      </trkpt>
      <trkpt lat="59.8729549" lon="17.8306101">
        <ele>19.8444</ele>
        <time>2013-04-20T18:54:00Z</time>
      </trkpt>
      <trkpt lat="59.8728756" lon="17.830578">
        <ele>19.8444</ele>
        <time>2013-04-20T18:54:01Z</time>
      </trkpt>
      <trkpt lat="59.8727944" lon="17.8305469">
        <ele>19.8444</ele>
        <time>2013-04-20T18:54:02Z</time>
      </trkpt>
      <trkpt lat="59.8727117" lon="17.830512">
        <ele>19.8444</ele>
        <time>2013-04-20T18:54:03Z</time>
      </trkpt>
      <trkpt lat="59.8726267" lon="17.8304711">
        <ele>19.3638</ele>
        <time>2013-04-20T18:54:04Z</time>
      </trkpt>
      <trkpt lat="59.8725383" lon="17.8304215">
        <ele>18.8831</ele>
        <time>2013-04-20T18:54:05Z</time>
      </trkpt>
      <trkpt lat="59.8724484" lon="17.8303595">
        <ele>18.4023</ele>
        <time>2013-04-20T18:54:06Z</time>
      </trkpt>
      <trkpt lat="59.8723592" lon="17.8302867">
        <ele>17.9218</ele>
        <time>2013-04-20T18:54:07Z</time>
      </trkpt>
      <trkpt lat="59.87227" lon="17.830206">
        <ele>17.4412</ele>
        <time>2013-04-20T18:54:08Z</time>
      </trkpt>
      <trkpt lat="59.8721811" lon="17.8301226">
        <ele>16.9604</ele>
        <time>2013-04-20T18:54:09Z</time>
      </trkpt>
      <trkpt lat="59.8720932" lon="17.83004">
        <ele>16.9604</ele>
        <time>2013-04-20T18:54:10Z</time>
      </trkpt>
      <trkpt lat="59.8720054" lon="17.8299603">
        <ele>15.999</ele>
        <time>2013-04-20T18:54:11Z</time>
      </trkpt>
      <trkpt lat="59.8719169" lon="17.8298817">
        <ele>15.5184</ele>
        <time>2013-04-20T18:54:12Z</time>
      </trkpt>
      <trkpt lat="59.8718277" lon="17.8298015">
        <ele>15.0377</ele>
        <time>2013-04-20T18:54:13Z</time>
      </trkpt>
      <trkpt lat="59.8717395" lon="17.829718">
        <ele>15.5184</ele>
        <time>2013-04-20T18:54:14Z</time>
      </trkpt>
      <trkpt lat="59.8716519" lon="17.8296331">
        <ele>15.0377</ele>
        <time>2013-04-20T18:54:15Z</time>
      </trkpt>
      <trkpt lat="59.871565" lon="17.8295513">
        <ele>15.0377</ele>
        <time>2013-04-20T18:54:16Z</time>
      </trkpt>
      <trkpt lat="59.8714805" lon="17.8294737">
        <ele>15.0377</ele>
        <time>2013-04-20T18:54:17Z</time>
      </trkpt>
      <trkpt lat="59.8713972" lon="17.8293989">
        <ele>14.557</ele>
        <time>2013-04-20T18:54:18Z</time>
      </trkpt>
      <trkpt lat="59.8713153" lon="17.8293248">
        <ele>14.557</ele>
        <time>2013-04-20T18:54:19Z</time>
      </trkpt>
      <trkpt lat="59.871235" lon="17.8292492">
        <ele>14.557</ele>
        <time>2013-04-20T18:54:20Z</time>
      </trkpt>
      <trkpt lat="59.8711558" lon="17.8291735">
        <ele>14.557</ele>
        <time>2013-04-20T18:54:21Z</time>
      </trkpt>
      <trkpt lat="59.8710774" lon="17.8290979">
        <ele>14.0764</ele>
        <time>2013-04-20T18:54:22Z</time>
      </trkpt>
      <trkpt lat="59.8709997" lon="17.8290232">
        <ele>14.0764</ele>
        <time>2013-04-20T18:54:23Z</time>
      </trkpt>
      <trkpt lat="59.8709223" lon="17.8289509">
        <ele>14.0764</ele>
        <time>2013-04-20T18:54:24Z</time>
      </trkpt>
      <trkpt lat="59.870846" lon="17.8288784">
        <ele>14.0764</ele>
        <time>2013-04-20T18:54:25Z</time>
      </trkpt>
      <trkpt lat="59.8707712" lon="17.8288051">
        <ele>14.0764</ele>
        <time>2013-04-20T18:54:26Z</time>
      </trkpt>
      <trkpt lat="59.8706978" lon="17.8287319">
        <ele>14.0764</ele>
        <time>2013-04-20T18:54:27Z</time>
      </trkpt>
      <trkpt lat="59.8706254" lon="17.8286596">
        <ele>14.0764</ele>
        <time>2013-04-20T18:54:28Z</time>
      </trkpt>
      <trkpt lat="59.8705547" lon="17.8285887">
        <ele>14.557</ele>
        <time>2013-04-20T18:54:29Z</time>
      </trkpt>
      <trkpt lat="59.8704855" lon="17.8285205">
        <ele>14.557</ele>
        <time>2013-04-20T18:54:30Z</time>
      </trkpt>
      <trkpt lat="59.8704182" lon="17.8284558">
        <ele>14.557</ele>
        <time>2013-04-20T18:54:31Z</time>
      </trkpt>
      <trkpt lat="59.8703524" lon="17.8283944">
        <ele>14.557</ele>
        <time>2013-04-20T18:54:32Z</time>
      </trkpt>
      <trkpt lat="59.870287" lon="17.8283349">
        <ele>14.557</ele>
        <time>2013-04-20T18:54:33Z</time>
      </trkpt>
      <trkpt lat="59.8702229" lon="17.8282732">
        <ele>15.0377</ele>
        <time>2013-04-20T18:54:34Z</time>
      </trkpt>
      <trkpt lat="59.8701607" lon="17.8282079">
        <ele>15.0377</ele>
        <time>2013-04-20T18:54:35Z</time>
      </trkpt>
      <trkpt lat="59.8701005" lon="17.828141">
        <ele>15.0377</ele>
        <time>2013-04-20T18:54:36Z</time>
      </trkpt>
      <trkpt lat="59.8700416" lon="17.828073">
        <ele>15.0377</ele>
        <time>2013-04-20T18:54:37Z</time>
      </trkpt>
      <trkpt lat="59.869984" lon="17.8280056">
        <ele>15.0377</ele>
        <time>2013-04-20T18:54:38Z</time>
      </trkpt>
      <trkpt lat="59.8699275" lon="17.8279396">
        <ele>15.0377</ele>
        <time>2013-04-20T18:54:39Z</time>
      </trkpt>
      <trkpt lat="59.869872" lon="17.8278722">
        <ele>15.0377</ele>
        <time>2013-04-20T18:54:40Z</time>
      </trkpt>
      <trkpt lat="59.8698181" lon="17.8278017">
        <ele>15.0377</ele>
        <time>2013-04-20T18:54:41Z</time>
      </trkpt>
      <trkpt lat="59.8697675" lon="17.8277284">
        <ele>15.0377</ele>
        <time>2013-04-20T18:54:42Z</time>
      </trkpt>
      <trkpt lat="59.8697202" lon="17.8276505">
        <ele>15.0377</ele>
        <time>2013-04-20T18:54:43Z</time>
      </trkpt>
      <trkpt lat="59.8696749" lon="17.827572">
        <ele>15.0377</ele>
        <time>2013-04-20T18:54:44Z</time>
      </trkpt>
      <trkpt lat="59.8696307" lon="17.8274952">
        <ele>15.0377</ele>
        <time>2013-04-20T18:54:45Z</time>
      </trkpt>
      <trkpt lat="59.8695872" lon="17.8274161">
        <ele>15.5184</ele>
        <time>2013-04-20T18:54:46Z</time>
      </trkpt>
      <trkpt lat="59.8695438" lon="17.8273351">
        <ele>15.5184</ele>
        <time>2013-04-20T18:54:47Z</time>
      </trkpt>
      <trkpt lat="59.8694995" lon="17.8272549">
        <ele>15.5184</ele>
        <time>2013-04-20T18:54:48Z</time>
      </trkpt>
      <trkpt lat="59.8694552" lon="17.8271762">
        <ele>15.5184</ele>
        <time>2013-04-20T18:54:49Z</time>
      </trkpt>
      <trkpt lat="59.8694111" lon="17.8271005">
        <ele>15.999</ele>
        <time>2013-04-20T18:54:50Z</time>
      </trkpt>
      <trkpt lat="59.8693666" lon="17.8270261">
        <ele>15.999</ele>
        <time>2013-04-20T18:54:51Z</time>
      </trkpt>
      <trkpt lat="59.8693229" lon="17.8269512">
        <ele>15.999</ele>
        <time>2013-04-20T18:54:52Z</time>
      </trkpt>
      <trkpt lat="59.8692784" lon="17.8268757">
        <ele>15.999</ele>
        <time>2013-04-20T18:54:53Z</time>
      </trkpt>
      <trkpt lat="59.8692334" lon="17.8268015">
        <ele>15.999</ele>
        <time>2013-04-20T18:54:54Z</time>
      </trkpt>
      <trkpt lat="59.8691882" lon="17.8267266">
        <ele>16.4797</ele>
        <time>2013-04-20T18:54:55Z</time>
      </trkpt>
      <trkpt lat="59.8691432" lon="17.82665">
        <ele>16.4797</ele>
        <time>2013-04-20T18:54:56Z</time>
      </trkpt>
      <trkpt lat="59.8690981" lon="17.8265715">
        <ele>16.4797</ele>
        <time>2013-04-20T18:54:57Z</time>
      </trkpt>
      <trkpt lat="59.8690527" lon="17.8264908">
        <ele>16.9604</ele>
        <time>2013-04-20T18:54:58Z</time>
      </trkpt>
      <trkpt lat="59.8690087" lon="17.8264085">
        <ele>16.9604</ele>
        <time>2013-04-20T18:54:59Z</time>
      </trkpt>
      <trkpt lat="59.8689661" lon="17.8263275">
        <ele>17.4412</ele>
        <time>2013-04-20T18:55:00Z</time>
      </trkpt>
      <trkpt lat="59.8689245" lon="17.8262495">
        <ele>17.4412</ele>
        <time>2013-04-20T18:55:01Z</time>
      </trkpt>
      <trkpt lat="59.8688827" lon="17.8261752">
        <ele>17.4412</ele>
        <time>2013-04-20T18:55:02Z</time>
      </trkpt>
      <trkpt lat="59.8688396" lon="17.8261014">
        <ele>17.9218</ele>
        <time>2013-04-20T18:55:03Z</time>
      </trkpt>
      <trkpt lat="59.8687992" lon="17.826026">
        <ele>18.4023</ele>
        <time>2013-04-20T18:55:04Z</time>
      </trkpt>
      <trkpt lat="59.8687615" lon="17.8259535">
        <ele>18.4023</ele>
        <time>2013-04-20T18:55:05Z</time>
      </trkpt>
      <trkpt lat="59.8687216" lon="17.8258827">
        <ele>18.4023</ele>
        <time>2013-04-20T18:55:06Z</time>
      </trkpt>
      <trkpt lat="59.8686807" lon="17.8258173">
        <ele>18.4023</ele>
        <time>2013-04-20T18:55:07Z</time>
      </trkpt>
      <trkpt lat="59.8686404" lon="17.8257587">
        <ele>18.8831</ele>
        <time>2013-04-20T18:55:08Z</time>
      </trkpt>
      <trkpt lat="59.8685947" lon="17.8257">
        <ele>18.8831</ele>
        <time>2013-04-20T18:55:09Z</time>
      </trkpt>
      <trkpt lat="59.8685415" lon="17.8256444">
        <ele>18.4023</ele>
        <time>2013-04-20T18:55:10Z</time>
      </trkpt>
      <trkpt lat="59.8684855" lon="17.8256005">
        <ele>19.3638</ele>
        <time>2013-04-20T18:55:11Z</time>
      </trkpt>
      <trkpt lat="59.8684283" lon="17.8255689">
        <ele>19.3638</ele>
        <time>2013-04-20T18:55:12Z</time>
      </trkpt>
      <trkpt lat="59.8683684" lon="17.8255518">
        <ele>19.8444</ele>
        <time>2013-04-20T18:55:13Z</time>
      </trkpt>
      <trkpt lat="59.8682977" lon="17.8255475">
        <ele>19.3638</ele>
        <time>2013-04-20T18:55:14Z</time>
      </trkpt>
      <trkpt lat="59.8682265" lon="17.8255614">
        <ele>19.3638</ele>
        <time>2013-04-20T18:55:15Z</time>
      </trkpt>
      <trkpt lat="59.8681579" lon="17.8255868">
        <ele>18.8831</ele>
        <time>2013-04-20T18:55:16Z</time>
      </trkpt>
      <trkpt lat="59.8680897" lon="17.825621">
        <ele>18.4023</ele>
        <time>2013-04-20T18:55:17Z</time>
      </trkpt>
      <trkpt lat="59.8680233" lon="17.8256599">
        <ele>17.4412</ele>
        <time>2013-04-20T18:55:18Z</time>
      </trkpt>
      <trkpt lat="59.8679567" lon="17.8257049">
        <ele>17.4412</ele>
        <time>2013-04-20T18:55:19Z</time>
      </trkpt>
      <trkpt lat="59.867886" lon="17.8257507">
        <ele>17.4412</ele>
        <time>2013-04-20T18:55:20Z</time>
      </trkpt>
      <trkpt lat="59.8678152" lon="17.8258024">
        <ele>17.4412</ele>
        <time>2013-04-20T18:55:21Z</time>
      </trkpt>
      <trkpt lat="59.8677445" lon="17.82585">
        <ele>16.9604</ele>
        <time>2013-04-20T18:55:22Z</time>
      </trkpt>
      <trkpt lat="59.8676565" lon="17.8259196">
        <ele>16.4797</ele>
        <time>2013-04-20T18:55:23Z</time>
      </trkpt>
      <trkpt lat="59.8675773" lon="17.8259806">
        <ele>15.999</ele>
        <time>2013-04-20T18:55:24Z</time>
      </trkpt>
      <trkpt lat="59.8675006" lon="17.8260479">
        <ele>15.5184</ele>
        <time>2013-04-20T18:55:25Z</time>
      </trkpt>
      <trkpt lat="59.8674236" lon="17.8261068">
        <ele>15.0377</ele>
        <time>2013-04-20T18:55:26Z</time>
      </trkpt>
      <trkpt lat="59.8673449" lon="17.826161">
        <ele>15.0377</ele>
        <time>2013-04-20T18:55:27Z</time>
      </trkpt>
      <trkpt lat="59.8672666" lon="17.826209">
        <ele>14.557</ele>
        <time>2013-04-20T18:55:28Z</time>
      </trkpt>
      <trkpt lat="59.8671879" lon="17.8262597">
        <ele>14.0764</ele>
        <time>2013-04-20T18:55:29Z</time>
      </trkpt>
      <trkpt lat="59.8671085" lon="17.8263135">
        <ele>14.0764</ele>
        <time>2013-04-20T18:55:30Z</time>
      </trkpt>
      <trkpt lat="59.8670287" lon="17.8263697">
        <ele>14.0764</ele>
        <time>2013-04-20T18:55:31Z</time>
      </trkpt>
      <trkpt lat="59.8669495" lon="17.8264198">
        <ele>14.0764</ele>
        <time>2013-04-20T18:55:32Z</time>
      </trkpt>
      <trkpt lat="59.866861" lon="17.8264932">
        <ele>13.5958</ele>
        <time>2013-04-20T18:55:33Z</time>
      </trkpt>
      <trkpt lat="59.8667767" lon="17.8265464">
        <ele>14.0764</ele>
        <time>2013-04-20T18:55:34Z</time>
      </trkpt>
      <trkpt lat="59.8666951" lon="17.8265907">
        <ele>14.0764</ele>
        <time>2013-04-20T18:55:35Z</time>
      </trkpt>
      <trkpt lat="59.8666155" lon="17.8266173">
        <ele>13.5958</ele>
        <time>2013-04-20T18:55:36Z</time>
      </trkpt>
      <trkpt lat="59.8665361" lon="17.8266376">
        <ele>13.5958</ele>
        <time>2013-04-20T18:55:37Z</time>
      </trkpt>
      <trkpt lat="59.8664595" lon="17.8266586">
        <ele>13.5958</ele>
        <time>2013-04-20T18:55:38Z</time>
      </trkpt>
      <trkpt lat="59.8663838" lon="17.8266747">
        <ele>13.5958</ele>
        <time>2013-04-20T18:55:39Z</time>
      </trkpt>
      <trkpt lat="59.8663088" lon="17.826687">
        <ele>13.1151</ele>
        <time>2013-04-20T18:55:40Z</time>
      </trkpt>
      <trkpt lat="59.8662363" lon="17.8266851">
        <ele>13.1151</ele>
        <time>2013-04-20T18:55:41Z</time>
      </trkpt>
      <trkpt lat="59.8661684" lon="17.8266787">
        <ele>12.6344</ele>
        <time>2013-04-20T18:55:42Z</time>
      </trkpt>
      <trkpt lat="59.8661099" lon="17.8266833">
        <ele>13.1151</ele>
        <time>2013-04-20T18:55:43Z</time>
      </trkpt>
      <trkpt lat="59.8660587" lon="17.8266828">
        <ele>12.6344</ele>
        <time>2013-04-20T18:55:44Z</time>
      </trkpt>
      <trkpt lat="59.8660082" lon="17.8266767">
        <ele>12.1538</ele>
        <time>2013-04-20T18:55:45Z</time>
      </trkpt>
      <trkpt lat="59.8659379" lon="17.8266727">
        <ele>12.6344</ele>
        <time>2013-04-20T18:55:46Z</time>
      </trkpt>
      <trkpt lat="59.8658556" lon="17.8266512">
        <ele>13.1151</ele>
        <time>2013-04-20T18:55:47Z</time>
      </trkpt>
      <trkpt lat="59.8657737" lon="17.8266296">
        <ele>13.1151</ele>
        <time>2013-04-20T18:55:48Z</time>
      </trkpt>
      <trkpt lat="59.865694" lon="17.8266188">
        <ele>14.0764</ele>
        <time>2013-04-20T18:55:49Z</time>
      </trkpt>
      <trkpt lat="59.8656183" lon="17.8266074">
        <ele>14.557</ele>
        <time>2013-04-20T18:55:50Z</time>
      </trkpt>
      <trkpt lat="59.8655425" lon="17.8265953">
        <ele>15.0377</ele>
        <time>2013-04-20T18:55:51Z</time>
      </trkpt>
      <trkpt lat="59.8654707" lon="17.8265768">
        <ele>15.0377</ele>
        <time>2013-04-20T18:55:52Z</time>
      </trkpt>
      <trkpt lat="59.8654001" lon="17.8265592">
        <ele>15.5184</ele>
        <time>2013-04-20T18:55:53Z</time>
      </trkpt>
      <trkpt lat="59.8653316" lon="17.8265427">
        <ele>15.5184</ele>
        <time>2013-04-20T18:55:54Z</time>
      </trkpt>
      <trkpt lat="59.8652669" lon="17.8265203">
        <ele>15.5184</ele>
        <time>2013-04-20T18:55:55Z</time>
      </trkpt>
      <trkpt lat="59.865206" lon="17.8264829">
        <ele>15.999</ele>
        <time>2013-04-20T18:55:56Z</time>
      </trkpt>
      <trkpt lat="59.86515" lon="17.8264287">
        <ele>16.4797</ele>
        <time>2013-04-20T18:55:57Z</time>
      </trkpt>
      <trkpt lat="59.865099" lon="17.8263583">
        <ele>16.4797</ele>
        <time>2013-04-20T18:55:58Z</time>
      </trkpt>
      <trkpt lat="59.865049" lon="17.8262801">
        <ele>16.4797</ele>
        <time>2013-04-20T18:55:59Z</time>
      </trkpt>
      <trkpt lat="59.8650096" lon="17.8261568">
        <ele>16.9604</ele>
        <time>2013-04-20T18:56:00Z</time>
      </trkpt>
      <trkpt lat="59.8649522" lon="17.8260586">
        <ele>16.9604</ele>
        <time>2013-04-20T18:56:01Z</time>
      </trkpt>
      <trkpt lat="59.864897" lon="17.8259615">
        <ele>16.9604</ele>
        <time>2013-04-20T18:56:02Z</time>
      </trkpt>
      <trkpt lat="59.864838" lon="17.8258604">
        <ele>16.4797</ele>
        <time>2013-04-20T18:56:03Z</time>
      </trkpt>
      <trkpt lat="59.8647844" lon="17.8257474">
        <ele>16.4797</ele>
        <time>2013-04-20T18:56:04Z</time>
      </trkpt>
      <trkpt lat="59.8647282" lon="17.8256236">
        <ele>15.999</ele>
        <time>2013-04-20T18:56:05Z</time>
      </trkpt>
      <trkpt lat="59.8646677" lon="17.8254993">
        <ele>15.5184</ele>
        <time>2013-04-20T18:56:06Z</time>
      </trkpt>
      <trkpt lat="59.8646083" lon="17.8253741">
        <ele>15.0377</ele>
        <time>2013-04-20T18:56:07Z</time>
      </trkpt>
      <trkpt lat="59.8645497" lon="17.8252466">
        <ele>14.557</ele>
        <time>2013-04-20T18:56:08Z</time>
      </trkpt>
      <trkpt lat="59.8644921" lon="17.8251164">
        <ele>15.0377</ele>
        <time>2013-04-20T18:56:09Z</time>
      </trkpt>
      <trkpt lat="59.8644342" lon="17.8249855">
        <ele>14.557</ele>
        <time>2013-04-20T18:56:10Z</time>
      </trkpt>
      <trkpt lat="59.8643761" lon="17.8248551">
        <ele>14.557</ele>
        <time>2013-04-20T18:56:11Z</time>
      </trkpt>
      <trkpt lat="59.8643156" lon="17.824726">
        <ele>14.0764</ele>
        <time>2013-04-20T18:56:12Z</time>
      </trkpt>
      <trkpt lat="59.8642562" lon="17.8245965">
        <ele>14.0764</ele>
        <time>2013-04-20T18:56:13Z</time>
      </trkpt>
      <trkpt lat="59.8641974" lon="17.8244666">
        <ele>14.0764</ele>
        <time>2013-04-20T18:56:14Z</time>
      </trkpt>
      <trkpt lat="59.864139" lon="17.824338">
        <ele>14.0764</ele>
        <time>2013-04-20T18:56:15Z</time>
      </trkpt>
      <trkpt lat="59.8640814" lon="17.8242105">
        <ele>14.0764</ele>
        <time>2013-04-20T18:56:16Z</time>
      </trkpt>
      <trkpt lat="59.8640244" lon="17.8240841">
        <ele>14.0764</ele>
        <time>2013-04-20T18:56:17Z</time>
      </trkpt>
      <trkpt lat="59.8639672" lon="17.8239576">
        <ele>14.0764</ele>
        <time>2013-04-20T18:56:18Z</time>
      </trkpt>
      <trkpt lat="59.8639103" lon="17.8238309">
        <ele>14.0764</ele>
        <time>2013-04-20T18:56:19Z</time>
      </trkpt>
      <trkpt lat="59.8638542" lon="17.8237045">
        <ele>14.0764</ele>
        <time>2013-04-20T18:56:20Z</time>
      </trkpt>
      <trkpt lat="59.8637983" lon="17.8235791">
        <ele>14.0764</ele>
        <time>2013-04-20T18:56:21Z</time>
      </trkpt>
      <trkpt lat="59.8637424" lon="17.8234543">
        <ele>14.0764</ele>
        <time>2013-04-20T18:56:22Z</time>
      </trkpt>
      <trkpt lat="59.8636885" lon="17.8233305">
        <ele>14.0764</ele>
        <time>2013-04-20T18:56:23Z</time>
      </trkpt>
      <trkpt lat="59.8636364" lon="17.8232087">
        <ele>14.0764</ele>
        <time>2013-04-20T18:56:24Z</time>
      </trkpt>
      <trkpt lat="59.8635857" lon="17.8230895">
        <ele>14.0764</ele>
        <time>2013-04-20T18:56:25Z</time>
      </trkpt>
      <trkpt lat="59.8635368" lon="17.8229735">
        <ele>14.557</ele>
        <time>2013-04-20T18:56:26Z</time>
      </trkpt>
      <trkpt lat="59.8634887" lon="17.8228591">
        <ele>14.557</ele>
        <time>2013-04-20T18:56:27Z</time>
      </trkpt>
      <trkpt lat="59.8634438" lon="17.8227447">
        <ele>14.557</ele>
        <time>2013-04-20T18:56:28Z</time>
      </trkpt>
      <trkpt lat="59.8634013" lon="17.8226321">
        <ele>15.0377</ele>
        <time>2013-04-20T18:56:29Z</time>
      </trkpt>
      <trkpt lat="59.8633602" lon="17.8225212">
        <ele>15.0377</ele>
        <time>2013-04-20T18:56:30Z</time>
      </trkpt>
      <trkpt lat="59.86332" lon="17.8224115">
        <ele>15.0377</ele>
        <time>2013-04-20T18:56:31Z</time>
      </trkpt>
      <trkpt lat="59.8632816" lon="17.8223032">
        <ele>15.5184</ele>
        <time>2013-04-20T18:56:32Z</time>
      </trkpt>
      <trkpt lat="59.8632448" lon="17.8221966">
        <ele>15.5184</ele>
        <time>2013-04-20T18:56:33Z</time>
      </trkpt>
      <trkpt lat="59.8632102" lon="17.8220932">
        <ele>15.999</ele>
        <time>2013-04-20T18:56:34Z</time>
      </trkpt>
      <trkpt lat="59.8631777" lon="17.821995">
        <ele>16.4797</ele>
        <time>2013-04-20T18:56:35Z</time>
      </trkpt>
      <trkpt lat="59.8631469" lon="17.8219016">
        <ele>16.4797</ele>
        <time>2013-04-20T18:56:36Z</time>
      </trkpt>
      <trkpt lat="59.8631171" lon="17.8218074">
        <ele>16.4797</ele>
        <time>2013-04-20T18:56:37Z</time>
      </trkpt>
      <trkpt lat="59.8630878" lon="17.8217142">
        <ele>16.4797</ele>
        <time>2013-04-20T18:56:38Z</time>
      </trkpt>
      <trkpt lat="59.8630598" lon="17.8216201">
        <ele>16.4797</ele>
        <time>2013-04-20T18:56:39Z</time>
      </trkpt>
      <trkpt lat="59.8630323" lon="17.8215263">
        <ele>16.4797</ele>
        <time>2013-04-20T18:56:40Z</time>
      </trkpt>
      <trkpt lat="59.8630044" lon="17.821434">
        <ele>16.4797</ele>
        <time>2013-04-20T18:56:41Z</time>
      </trkpt>
      <trkpt lat="59.8629749" lon="17.8213403">
        <ele>16.4797</ele>
        <time>2013-04-20T18:56:42Z</time>
      </trkpt>
      <trkpt lat="59.8629468" lon="17.821248">
        <ele>16.4797</ele>
        <time>2013-04-20T18:56:43Z</time>
      </trkpt>
      <trkpt lat="59.8629205" lon="17.8211563">
        <ele>16.4797</ele>
        <time>2013-04-20T18:56:44Z</time>
      </trkpt>
      <trkpt lat="59.8628945" lon="17.8210673">
        <ele>16.4797</ele>
        <time>2013-04-20T18:56:45Z</time>
      </trkpt>
      <trkpt lat="59.8628682" lon="17.8209804">
        <ele>16.9604</ele>
        <time>2013-04-20T18:56:46Z</time>
      </trkpt>
      <trkpt lat="59.8628439" lon="17.8208968">
        <ele>17.4412</ele>
        <time>2013-04-20T18:56:47Z</time>
      </trkpt>
      <trkpt lat="59.8628225" lon="17.8208151">
        <ele>17.4412</ele>
        <time>2013-04-20T18:56:48Z</time>
      </trkpt>
      <trkpt lat="59.8628012" lon="17.8207394">
        <ele>17.4412</ele>
        <time>2013-04-20T18:56:49Z</time>
      </trkpt>
      <trkpt lat="59.8627805" lon="17.8206713">
        <ele>17.4412</ele>
        <time>2013-04-20T18:56:50Z</time>
      </trkpt>
      <trkpt lat="59.8627623" lon="17.820603">
        <ele>17.4412</ele>
        <time>2013-04-20T18:56:51Z</time>
      </trkpt>
      <trkpt lat="59.8627448" lon="17.8205325">
        <ele>18.4023</ele>
        <time>2013-04-20T18:56:52Z</time>
      </trkpt>
      <trkpt lat="59.8627214" lon="17.8204612">
        <ele>18.8831</ele>
        <time>2013-04-20T18:56:53Z</time>
      </trkpt>
      <trkpt lat="59.8627022" lon="17.8203904">
        <ele>18.8831</ele>
        <time>2013-04-20T18:56:54Z</time>
      </trkpt>
      <trkpt lat="59.8626877" lon="17.8203244">
        <ele>18.8831</ele>
        <time>2013-04-20T18:56:55Z</time>
      </trkpt>
      <trkpt lat="59.862675" lon="17.8202597">
        <ele>18.8831</ele>
        <time>2013-04-20T18:56:56Z</time>
      </trkpt>
      <trkpt lat="59.8626605" lon="17.8201913">
        <ele>18.8831</ele>
        <time>2013-04-20T18:56:57Z</time>
      </trkpt>
      <trkpt lat="59.8626459" lon="17.8201255">
        <ele>18.4023</ele>
        <time>2013-04-20T18:56:58Z</time>
      </trkpt>
      <trkpt lat="59.8626307" lon="17.8200568">
        <ele>18.4023</ele>
        <time>2013-04-20T18:56:59Z</time>
      </trkpt>
      <trkpt lat="59.8626154" lon="17.8199811">
        <ele>18.4023</ele>
        <time>2013-04-20T18:57:00Z</time>
      </trkpt>
      <trkpt lat="59.8625991" lon="17.8199036">
        <ele>18.4023</ele>
        <time>2013-04-20T18:57:01Z</time>
      </trkpt>
      <trkpt lat="59.8625831" lon="17.8198218">
        <ele>17.9218</ele>
        <time>2013-04-20T18:57:02Z</time>
      </trkpt>
      <trkpt lat="59.8625668" lon="17.8197371">
        <ele>17.9218</ele>
        <time>2013-04-20T18:57:03Z</time>
      </trkpt>
      <trkpt lat="59.8625497" lon="17.8196455">
        <ele>17.9218</ele>
        <time>2013-04-20T18:57:04Z</time>
      </trkpt>
      <trkpt lat="59.8625315" lon="17.8195545">
        <ele>17.4412</ele>
        <time>2013-04-20T18:57:05Z</time>
      </trkpt>
      <trkpt lat="59.8625126" lon="17.8194625">
        <ele>17.4412</ele>
        <time>2013-04-20T18:57:06Z</time>
      </trkpt>
      <trkpt lat="59.8624857" lon="17.8193619">
        <ele>17.4412</ele>
        <time>2013-04-20T18:57:07Z</time>
      </trkpt>
      <trkpt lat="59.8624583" lon="17.8192671">
        <ele>17.4412</ele>
        <time>2013-04-20T18:57:08Z</time>
      </trkpt>
      <trkpt lat="59.8624242" lon="17.8191758">
        <ele>17.4412</ele>
        <time>2013-04-20T18:57:09Z</time>
      </trkpt>
      <trkpt lat="59.8623823" lon="17.8190869">
        <ele>17.4412</ele>
        <time>2013-04-20T18:57:10Z</time>
      </trkpt>
      <trkpt lat="59.8623406" lon="17.8190108">
        <ele>17.4412</ele>
        <time>2013-04-20T18:57:11Z</time>
      </trkpt>
      <trkpt lat="59.8622976" lon="17.8189435">
        <ele>17.4412</ele>
        <time>2013-04-20T18:57:12Z</time>
      </trkpt>
      <trkpt lat="59.8622539" lon="17.8188843">
        <ele>17.4412</ele>
        <time>2013-04-20T18:57:13Z</time>
      </trkpt>
      <trkpt lat="59.8622093" lon="17.8188304">
        <ele>17.9218</ele>
        <time>2013-04-20T18:57:14Z</time>
      </trkpt>
      <trkpt lat="59.8621637" lon="17.818786">
        <ele>17.9218</ele>
        <time>2013-04-20T18:57:15Z</time>
      </trkpt>
      <trkpt lat="59.8621181" lon="17.8187507">
        <ele>18.8831</ele>
        <time>2013-04-20T18:57:16Z</time>
      </trkpt>
      <trkpt lat="59.8620731" lon="17.8187206">
        <ele>18.8831</ele>
        <time>2013-04-20T18:57:17Z</time>
      </trkpt>
      <trkpt lat="59.8620295" lon="17.8186938">
        <ele>18.8831</ele>
        <time>2013-04-20T18:57:18Z</time>
      </trkpt>
      <trkpt lat="59.8619803" lon="17.8186596">
        <ele>19.8444</ele>
        <time>2013-04-20T18:57:19Z</time>
      </trkpt>
      <trkpt lat="59.8619373" lon="17.8186386">
        <ele>20.325</ele>
        <time>2013-04-20T18:57:20Z</time>
      </trkpt>
      <trkpt lat="59.8618887" lon="17.818615">
        <ele>21.2864</ele>
        <time>2013-04-20T18:57:21Z</time>
      </trkpt>
      <trkpt lat="59.861841" lon="17.8185787">
        <ele>22.2476</ele>
        <time>2013-04-20T18:57:22Z</time>
      </trkpt>
      <trkpt lat="59.8617886" lon="17.8185378">
        <ele>23.209</ele>
        <time>2013-04-20T18:57:23Z</time>
      </trkpt>
      <trkpt lat="59.8617317" lon="17.818506">
        <ele>24.1703</ele>
        <time>2013-04-20T18:57:24Z</time>
      </trkpt>
      <trkpt lat="59.8616933" lon="17.8184866">
        <ele>24.1703</ele>
        <time>2013-04-20T18:57:25Z</time>
      </trkpt>
      <trkpt lat="59.8616608" lon="17.8184623">
        <ele>25.1317</ele>
        <time>2013-04-20T18:57:26Z</time>
      </trkpt>
      <trkpt lat="59.8616322" lon="17.81843">
        <ele>25.1317</ele>
        <time>2013-04-20T18:57:27Z</time>
      </trkpt>
      <trkpt lat="59.8616016" lon="17.818391">
        <ele>25.6123</ele>
        <time>2013-04-20T18:57:28Z</time>
      </trkpt>
      <trkpt lat="59.8615572" lon="17.8183581">
        <ele>25.6123</ele>
        <time>2013-04-20T18:57:29Z</time>
      </trkpt>
      <trkpt lat="59.8615026" lon="17.8183228">
        <ele>26.0929</ele>
        <time>2013-04-20T18:57:30Z</time>
      </trkpt>
      <trkpt lat="59.8614512" lon="17.8182848">
        <ele>26.5736</ele>
        <time>2013-04-20T18:57:31Z</time>
      </trkpt>
      <trkpt lat="59.861402" lon="17.8182384">
        <ele>26.0929</ele>
        <time>2013-04-20T18:57:32Z</time>
      </trkpt>
      <trkpt lat="59.86134" lon="17.8181831">
        <ele>26.5736</ele>
        <time>2013-04-20T18:57:33Z</time>
      </trkpt>
      <trkpt lat="59.8612736" lon="17.8181217">
        <ele>26.5736</ele>
        <time>2013-04-20T18:57:34Z</time>
      </trkpt>
      <trkpt lat="59.8612083" lon="17.8180611">
        <ele>27.0543</ele>
        <time>2013-04-20T18:57:35Z</time>
      </trkpt>
      <trkpt lat="59.8611427" lon="17.8179969">
        <ele>27.0543</ele>
        <time>2013-04-20T18:57:36Z</time>
      </trkpt>
      <trkpt lat="59.8610773" lon="17.8179306">
        <ele>27.0543</ele>
        <time>2013-04-20T18:57:37Z</time>
      </trkpt>
      <trkpt lat="59.8610174" lon="17.8178638">
        <ele>26.5736</ele>
        <time>2013-04-20T18:57:38Z</time>
      </trkpt>
      <trkpt lat="59.8609598" lon="17.8177923">
        <ele>26.5736</ele>
        <time>2013-04-20T18:57:39Z</time>
      </trkpt>
      <trkpt lat="59.8609033" lon="17.8177168">
        <ele>25.6123</ele>
        <time>2013-04-20T18:57:40Z</time>
      </trkpt>
      <trkpt lat="59.8608457" lon="17.8176412">
        <ele>25.6123</ele>
        <time>2013-04-20T18:57:41Z</time>
      </trkpt>
      <trkpt lat="59.86079" lon="17.8175648">
        <ele>25.6123</ele>
        <time>2013-04-20T18:57:42Z</time>
      </trkpt>
      <trkpt lat="59.8607332" lon="17.8174827">
        <ele>25.6123</ele>
        <time>2013-04-20T18:57:43Z</time>
      </trkpt>
      <trkpt lat="59.8606728" lon="17.8173956">
        <ele>24.1703</ele>
        <time>2013-04-20T18:57:44Z</time>
      </trkpt>
      <trkpt lat="59.8606108" lon="17.8173086">
        <ele>23.6896</ele>
        <time>2013-04-20T18:57:45Z</time>
      </trkpt>
      <trkpt lat="59.860548" lon="17.8172214">
        <ele>23.6896</ele>
        <time>2013-04-20T18:57:46Z</time>
      </trkpt>
      <trkpt lat="59.8604857" lon="17.8171331">
        <ele>23.209</ele>
        <time>2013-04-20T18:57:47Z</time>
      </trkpt>
      <trkpt lat="59.8604231" lon="17.8170471">
        <ele>22.7283</ele>
        <time>2013-04-20T18:57:48Z</time>
      </trkpt>
      <trkpt lat="59.860361" lon="17.8169629">
        <ele>22.7283</ele>
        <time>2013-04-20T18:57:49Z</time>
      </trkpt>
      <trkpt lat="59.8602994" lon="17.8168801">
        <ele>22.7283</ele>
        <time>2013-04-20T18:57:50Z</time>
      </trkpt>
      <trkpt lat="59.8602382" lon="17.8167985">
        <ele>22.2476</ele>
        <time>2013-04-20T18:57:51Z</time>
      </trkpt>
      <trkpt lat="59.8601772" lon="17.8167196">
        <ele>22.2476</ele>
        <time>2013-04-20T18:57:52Z</time>
      </trkpt>
      <trkpt lat="59.8601156" lon="17.8166455">
        <ele>22.2476</ele>
        <time>2013-04-20T18:57:53Z</time>
      </trkpt>
      <trkpt lat="59.8600538" lon="17.8165752">
        <ele>22.2476</ele>
        <time>2013-04-20T18:57:54Z</time>
      </trkpt>
      <trkpt lat="59.8599915" lon="17.8165094">
        <ele>21.767</ele>
        <time>2013-04-20T18:57:55Z</time>
      </trkpt>
      <trkpt lat="59.8599251" lon="17.8164456">
        <ele>21.767</ele>
        <time>2013-04-20T18:57:56Z</time>
      </trkpt>
      <trkpt lat="59.859859" lon="17.8163834">
        <ele>22.2476</ele>
        <time>2013-04-20T18:57:57Z</time>
      </trkpt>
      <trkpt lat="59.8597962" lon="17.8163275">
        <ele>21.767</ele>
        <time>2013-04-20T18:57:58Z</time>
      </trkpt>
      <trkpt lat="59.8597324" lon="17.8162787">
        <ele>21.767</ele>
        <time>2013-04-20T18:57:59Z</time>
      </trkpt>
      <trkpt lat="59.85967" lon="17.8162289">
        <ele>22.2476</ele>
        <time>2013-04-20T18:58:00Z</time>
      </trkpt>
      <trkpt lat="59.8596094" lon="17.8161747">
        <ele>22.2476</ele>
        <time>2013-04-20T18:58:01Z</time>
      </trkpt>
      <trkpt lat="59.8595487" lon="17.8161199">
        <ele>22.2476</ele>
        <time>2013-04-20T18:58:02Z</time>
      </trkpt>
      <trkpt lat="59.8594871" lon="17.8160659">
        <ele>22.7283</ele>
        <time>2013-04-20T18:58:03Z</time>
      </trkpt>
      <trkpt lat="59.8594216" lon="17.8160155">
        <ele>23.6896</ele>
        <time>2013-04-20T18:58:04Z</time>
      </trkpt>
      <trkpt lat="59.8593565" lon="17.8159665">
        <ele>24.651</ele>
        <time>2013-04-20T18:58:05Z</time>
      </trkpt>
      <trkpt lat="59.8592916" lon="17.8159119">
        <ele>25.1317</ele>
        <time>2013-04-20T18:58:06Z</time>
      </trkpt>
      <trkpt lat="59.859228" lon="17.8158566">
        <ele>25.6123</ele>
        <time>2013-04-20T18:58:07Z</time>
      </trkpt>
      <trkpt lat="59.8591647" lon="17.8158013">
        <ele>25.6123</ele>
        <time>2013-04-20T18:58:08Z</time>
      </trkpt>
      <trkpt lat="59.8591038" lon="17.81575">
        <ele>25.6123</ele>
        <time>2013-04-20T18:58:09Z</time>
      </trkpt>
      <trkpt lat="59.8590427" lon="17.8157021">
        <ele>25.6123</ele>
        <time>2013-04-20T18:58:10Z</time>
      </trkpt>
      <trkpt lat="59.8589809" lon="17.8156531">
        <ele>25.6123</ele>
        <time>2013-04-20T18:58:11Z</time>
      </trkpt>
      <trkpt lat="59.85892" lon="17.8156033">
        <ele>26.0929</ele>
        <time>2013-04-20T18:58:12Z</time>
      </trkpt>
      <trkpt lat="59.8588614" lon="17.8155562">
        <ele>25.6123</ele>
        <time>2013-04-20T18:58:13Z</time>
      </trkpt>
      <trkpt lat="59.8587946" lon="17.8155168">
        <ele>26.0929</ele>
        <time>2013-04-20T18:58:14Z</time>
      </trkpt>
      <trkpt lat="59.8587022" lon="17.8154769">
        <ele>27.0543</ele>
        <time>2013-04-20T18:58:15Z</time>
      </trkpt>
      <trkpt lat="59.8586387" lon="17.8154312">
        <ele>26.0929</ele>
        <time>2013-04-20T18:58:16Z</time>
      </trkpt>
      <trkpt lat="59.8585613" lon="17.81538">
        <ele>26.5736</ele>
        <time>2013-04-20T18:58:17Z</time>
      </trkpt>
      <trkpt lat="59.8584899" lon="17.8153194">
        <ele>26.0929</ele>
        <time>2013-04-20T18:58:18Z</time>
      </trkpt>
      <trkpt lat="59.8584273" lon="17.8152635">
        <ele>26.0929</ele>
        <time>2013-04-20T18:58:19Z</time>
      </trkpt>
      <trkpt lat="59.8583594" lon="17.8152086">
        <ele>25.6123</ele>
        <time>2013-04-20T18:58:20Z</time>
      </trkpt>
      <trkpt lat="59.8583074" lon="17.8151567">
        <ele>25.1317</ele>
        <time>2013-04-20T18:58:21Z</time>
      </trkpt>
      <trkpt lat="59.8582532" lon="17.8151169">
        <ele>24.1703</ele>
        <time>2013-04-20T18:58:22Z</time>
      </trkpt>
      <trkpt lat="59.8581984" lon="17.8150857">
        <ele>23.6896</ele>
        <time>2013-04-20T18:58:23Z</time>
      </trkpt>
      <trkpt lat="59.8581453" lon="17.8150511">
        <ele>24.1703</ele>
        <time>2013-04-20T18:58:24Z</time>
      </trkpt>
      <trkpt lat="59.8580889" lon="17.8150154">
        <ele>23.6896</ele>
        <time>2013-04-20T18:58:25Z</time>
      </trkpt>
      <trkpt lat="59.8580277" lon="17.8149838">
        <ele>23.6896</ele>
        <time>2013-04-20T18:58:26Z</time>
      </trkpt>
      <trkpt lat="59.8579662" lon="17.8149542">
        <ele>22.7283</ele>
        <time>2013-04-20T18:58:27Z</time>
      </trkpt>
      <trkpt lat="59.8579073" lon="17.8149284">
        <ele>22.2476</ele>
        <time>2013-04-20T18:58:28Z</time>
      </trkpt>
      <trkpt lat="59.8578481" lon="17.8148816">
        <ele>21.767</ele>
        <time>2013-04-20T18:58:29Z</time>
      </trkpt>
      <trkpt lat="59.8578221" lon="17.8147872">
        <ele>21.2864</ele>
        <time>2013-04-20T18:58:30Z</time>
      </trkpt>
      <trkpt lat="59.8577822" lon="17.8146843">
        <ele>20.8057</ele>
        <time>2013-04-20T18:58:31Z</time>
      </trkpt>
      <trkpt lat="59.8577709" lon="17.8145632">
        <ele>20.325</ele>
        <time>2013-04-20T18:58:32Z</time>
      </trkpt>
      <trkpt lat="59.8577759" lon="17.814446">
        <ele>19.8444</ele>
        <time>2013-04-20T18:58:33Z</time>
      </trkpt>
      <trkpt lat="59.8577777" lon="17.8143558">
        <ele>19.8444</ele>
        <time>2013-04-20T18:58:34Z</time>
      </trkpt>
      <trkpt lat="59.8578057" lon="17.814257">
        <ele>19.3638</ele>
        <time>2013-04-20T18:58:35Z</time>
      </trkpt>
      <trkpt lat="59.8578265" lon="17.8141437">
        <ele>19.3638</ele>
        <time>2013-04-20T18:58:36Z</time>
      </trkpt>
      <trkpt lat="59.8578465" lon="17.814027">
        <ele>18.8831</ele>
        <time>2013-04-20T18:58:37Z</time>
      </trkpt>
      <trkpt lat="59.8578652" lon="17.8139066">
        <ele>18.8831</ele>
        <time>2013-04-20T18:58:38Z</time>
      </trkpt>
      <trkpt lat="59.8578832" lon="17.8137829">
        <ele>18.8831</ele>
        <time>2013-04-20T18:58:39Z</time>
      </trkpt>
      <trkpt lat="59.8579006" lon="17.8136569">
        <ele>18.8831</ele>
        <time>2013-04-20T18:58:40Z</time>
      </trkpt>
      <trkpt lat="59.8579173" lon="17.8135285">
        <ele>18.8831</ele>
        <time>2013-04-20T18:58:41Z</time>
      </trkpt>
      <trkpt lat="59.857932" lon="17.8133979">
        <ele>18.8831</ele>
        <time>2013-04-20T18:58:42Z</time>
      </trkpt>
      <trkpt lat="59.8579415" lon="17.8132687">
        <ele>18.8831</ele>
        <time>2013-04-20T18:58:43Z</time>
      </trkpt>
      <trkpt lat="59.8579512" lon="17.8131372">
        <ele>18.8831</ele>
        <time>2013-04-20T18:58:44Z</time>
      </trkpt>
      <trkpt lat="59.8579601" lon="17.8130051">
        <ele>18.8831</ele>
        <time>2013-04-20T18:58:45Z</time>
      </trkpt>
      <trkpt lat="59.8579689" lon="17.8128724">
        <ele>18.4023</ele>
        <time>2013-04-20T18:58:46Z</time>
      </trkpt>
      <trkpt lat="59.8579766" lon="17.8127385">
        <ele>18.4023</ele>
        <time>2013-04-20T18:58:47Z</time>
      </trkpt>
      <trkpt lat="59.8579833" lon="17.8126025">
        <ele>18.4023</ele>
        <time>2013-04-20T18:58:48Z</time>
      </trkpt>
      <trkpt lat="59.8579896" lon="17.812466">
        <ele>18.4023</ele>
        <time>2013-04-20T18:58:49Z</time>
      </trkpt>
      <trkpt lat="59.8579972" lon="17.8123257">
        <ele>18.4023</ele>
        <time>2013-04-20T18:58:50Z</time>
      </trkpt>
      <trkpt lat="59.8580029" lon="17.8121869">
        <ele>18.8831</ele>
        <time>2013-04-20T18:58:51Z</time>
      </trkpt>
      <trkpt lat="59.8580059" lon="17.8120501">
        <ele>18.8831</ele>
        <time>2013-04-20T18:58:52Z</time>
      </trkpt>
      <trkpt lat="59.8580078" lon="17.8119135">
        <ele>19.3638</ele>
        <time>2013-04-20T18:58:53Z</time>
      </trkpt>
      <trkpt lat="59.8580083" lon="17.8117779">
        <ele>19.3638</ele>
        <time>2013-04-20T18:58:54Z</time>
      </trkpt>
      <trkpt lat="59.8580072" lon="17.8116416">
        <ele>19.8444</ele>
        <time>2013-04-20T18:58:55Z</time>
      </trkpt>
      <trkpt lat="59.8580041" lon="17.8115036">
        <ele>19.8444</ele>
        <time>2013-04-20T18:58:56Z</time>
      </trkpt>
      <trkpt lat="59.8579995" lon="17.8113654">
        <ele>19.8444</ele>
        <time>2013-04-20T18:58:57Z</time>
      </trkpt>
      <trkpt lat="59.8579937" lon="17.8112238">
        <ele>19.3638</ele>
        <time>2013-04-20T18:58:58Z</time>
      </trkpt>
      <trkpt lat="59.8579886" lon="17.8110827">
        <ele>19.8444</ele>
        <time>2013-04-20T18:58:59Z</time>
      </trkpt>
      <trkpt lat="59.8579828" lon="17.8109429">
        <ele>19.8444</ele>
        <time>2013-04-20T18:59:00Z</time>
      </trkpt>
      <trkpt lat="59.8579744" lon="17.8108038">
        <ele>19.8444</ele>
        <time>2013-04-20T18:59:01Z</time>
      </trkpt>
      <trkpt lat="59.8579652" lon="17.8106644">
        <ele>19.8444</ele>
        <time>2013-04-20T18:59:02Z</time>
      </trkpt>
      <trkpt lat="59.8579552" lon="17.8105277">
        <ele>19.8444</ele>
        <time>2013-04-20T18:59:03Z</time>
      </trkpt>
      <trkpt lat="59.8579434" lon="17.810389">
        <ele>19.8444</ele>
        <time>2013-04-20T18:59:04Z</time>
      </trkpt>
      <trkpt lat="59.85793" lon="17.8102515">
        <ele>19.8444</ele>
        <time>2013-04-20T18:59:05Z</time>
      </trkpt>
      <trkpt lat="59.857913" lon="17.8101109">
        <ele>19.8444</ele>
        <time>2013-04-20T18:59:06Z</time>
      </trkpt>
      <trkpt lat="59.8578941" lon="17.809972">
        <ele>19.8444</ele>
        <time>2013-04-20T18:59:07Z</time>
      </trkpt>
      <trkpt lat="59.8578735" lon="17.8098354">
        <ele>19.3638</ele>
        <time>2013-04-20T18:59:08Z</time>
      </trkpt>
      <trkpt lat="59.8578521" lon="17.8096996">
        <ele>19.3638</ele>
        <time>2013-04-20T18:59:09Z</time>
      </trkpt>
      <trkpt lat="59.8578305" lon="17.8095629">
        <ele>19.3638</ele>
        <time>2013-04-20T18:59:10Z</time>
      </trkpt>
      <trkpt lat="59.8578078" lon="17.8094267">
        <ele>19.3638</ele>
        <time>2013-04-20T18:59:11Z</time>
      </trkpt>
      <trkpt lat="59.8577835" lon="17.8092922">
        <ele>19.3638</ele>
        <time>2013-04-20T18:59:12Z</time>
      </trkpt>
      <trkpt lat="59.8577566" lon="17.809158">
        <ele>19.3638</ele>
        <time>2013-04-20T18:59:13Z</time>
      </trkpt>
      <trkpt lat="59.8577274" lon="17.8090223">
        <ele>19.3638</ele>
        <time>2013-04-20T18:59:14Z</time>
      </trkpt>
      <trkpt lat="59.8576977" lon="17.8088907">
        <ele>18.8831</ele>
        <time>2013-04-20T18:59:15Z</time>
      </trkpt>
      <trkpt lat="59.8576677" lon="17.8087602">
        <ele>18.8831</ele>
        <time>2013-04-20T18:59:16Z</time>
      </trkpt>
      <trkpt lat="59.8576379" lon="17.8086305">
        <ele>18.8831</ele>
        <time>2013-04-20T18:59:17Z</time>
      </trkpt>
      <trkpt lat="59.8576083" lon="17.8085024">
        <ele>18.8831</ele>
        <time>2013-04-20T18:59:18Z</time>
      </trkpt>
      <trkpt lat="59.8575772" lon="17.8083764">
        <ele>18.8831</ele>
        <time>2013-04-20T18:59:19Z</time>
      </trkpt>
      <trkpt lat="59.8575451" lon="17.8082511">
        <ele>18.8831</ele>
        <time>2013-04-20T18:59:20Z</time>
      </trkpt>
      <trkpt lat="59.8575119" lon="17.8081257">
        <ele>18.8831</ele>
        <time>2013-04-20T18:59:21Z</time>
      </trkpt>
      <trkpt lat="59.8574779" lon="17.8080009">
        <ele>18.8831</ele>
        <time>2013-04-20T18:59:22Z</time>
      </trkpt>
      <trkpt lat="59.8574431" lon="17.8078768">
        <ele>18.8831</ele>
        <time>2013-04-20T18:59:23Z</time>
      </trkpt>
      <trkpt lat="59.8574071" lon="17.8077532">
        <ele>18.4023</ele>
        <time>2013-04-20T18:59:24Z</time>
      </trkpt>
      <trkpt lat="59.8573716" lon="17.8076289">
        <ele>18.4023</ele>
        <time>2013-04-20T18:59:25Z</time>
      </trkpt>
      <trkpt lat="59.8573353" lon="17.8075043">
        <ele>18.4023</ele>
        <time>2013-04-20T18:59:26Z</time>
      </trkpt>
      <trkpt lat="59.8572975" lon="17.8073799">
        <ele>18.4023</ele>
        <time>2013-04-20T18:59:27Z</time>
      </trkpt>
      <trkpt lat="59.8572603" lon="17.8072554">
        <ele>18.4023</ele>
        <time>2013-04-20T18:59:28Z</time>
      </trkpt>
      <trkpt lat="59.8572234" lon="17.8071317">
        <ele>18.4023</ele>
        <time>2013-04-20T18:59:29Z</time>
      </trkpt>
      <trkpt lat="59.857187" lon="17.807009">
        <ele>17.9218</ele>
        <time>2013-04-20T18:59:30Z</time>
      </trkpt>
      <trkpt lat="59.85715" lon="17.8068878">
        <ele>17.9218</ele>
        <time>2013-04-20T18:59:31Z</time>
      </trkpt>
      <trkpt lat="59.857112" lon="17.8067671">
        <ele>17.9218</ele>
        <time>2013-04-20T18:59:32Z</time>
      </trkpt>
      <trkpt lat="59.8570742" lon="17.8066469">
        <ele>17.9218</ele>
        <time>2013-04-20T18:59:33Z</time>
      </trkpt>
      <trkpt lat="59.8570365" lon="17.8065272">
        <ele>17.9218</ele>
        <time>2013-04-20T18:59:34Z</time>
      </trkpt>
      <trkpt lat="59.8569994" lon="17.8064082">
        <ele>17.9218</ele>
        <time>2013-04-20T18:59:35Z</time>
      </trkpt>
      <trkpt lat="59.8569614" lon="17.806291">
        <ele>18.4023</ele>
        <time>2013-04-20T18:59:36Z</time>
      </trkpt>
      <trkpt lat="59.8569245" lon="17.8061735">
        <ele>18.4023</ele>
        <time>2013-04-20T18:59:37Z</time>
      </trkpt>
      <trkpt lat="59.8568878" lon="17.8060559">
        <ele>18.8831</ele>
        <time>2013-04-20T18:59:38Z</time>
      </trkpt>
      <trkpt lat="59.8568514" lon="17.8059388">
        <ele>18.8831</ele>
        <time>2013-04-20T18:59:39Z</time>
      </trkpt>
      <trkpt lat="59.8568155" lon="17.805822">
        <ele>18.8831</ele>
        <time>2013-04-20T18:59:40Z</time>
      </trkpt>
      <trkpt lat="59.85678" lon="17.8057057">
        <ele>18.8831</ele>
        <time>2013-04-20T18:59:41Z</time>
      </trkpt>
      <trkpt lat="59.8567453" lon="17.8055897">
        <ele>19.3638</ele>
        <time>2013-04-20T18:59:42Z</time>
      </trkpt>
      <trkpt lat="59.8567111" lon="17.8054756">
        <ele>19.3638</ele>
        <time>2013-04-20T18:59:43Z</time>
      </trkpt>
      <trkpt lat="59.8566769" lon="17.8053633">
        <ele>19.3638</ele>
        <time>2013-04-20T18:59:44Z</time>
      </trkpt>
      <trkpt lat="59.8566427" lon="17.8052518">
        <ele>19.3638</ele>
        <time>2013-04-20T18:59:45Z</time>
      </trkpt>
      <trkpt lat="59.8566097" lon="17.8051405">
        <ele>19.3638</ele>
        <time>2013-04-20T18:59:46Z</time>
      </trkpt>
      <trkpt lat="59.8565772" lon="17.8050306">
        <ele>19.3638</ele>
        <time>2013-04-20T18:59:47Z</time>
      </trkpt>
      <trkpt lat="59.8565443" lon="17.8049224">
        <ele>19.3638</ele>
        <time>2013-04-20T18:59:48Z</time>
      </trkpt>
      <trkpt lat="59.856512" lon="17.8048151">
        <ele>19.8444</ele>
        <time>2013-04-20T18:59:49Z</time>
      </trkpt>
      <trkpt lat="59.8564804" lon="17.8047089">
        <ele>19.8444</ele>
        <time>2013-04-20T18:59:50Z</time>
      </trkpt>
      <trkpt lat="59.856449" lon="17.8046043">
        <ele>19.8444</ele>
        <time>2013-04-20T18:59:51Z</time>
      </trkpt>
      <trkpt lat="59.8564182" lon="17.8045014">
        <ele>19.8444</ele>
        <time>2013-04-20T18:59:52Z</time>
      </trkpt>
      <trkpt lat="59.8563889" lon="17.8043998">
        <ele>20.325</ele>
        <time>2013-04-20T18:59:53Z</time>
      </trkpt>
      <trkpt lat="59.856361" lon="17.8042982">
        <ele>20.325</ele>
        <time>2013-04-20T18:59:54Z</time>
      </trkpt>
      <trkpt lat="59.856335" lon="17.8041999">
        <ele>20.8057</ele>
        <time>2013-04-20T18:59:55Z</time>
      </trkpt>
      <trkpt lat="59.8563092" lon="17.8041038">
        <ele>21.2864</ele>
        <time>2013-04-20T18:59:56Z</time>
      </trkpt>
      <trkpt lat="59.8562832" lon="17.8040078">
        <ele>21.767</ele>
        <time>2013-04-20T18:59:57Z</time>
      </trkpt>
      <trkpt lat="59.8562569" lon="17.8039145">
        <ele>22.7283</ele>
        <time>2013-04-20T18:59:58Z</time>
      </trkpt>
      <trkpt lat="59.8562305" lon="17.8038283">
        <ele>23.6896</ele>
        <time>2013-04-20T18:59:59Z</time>
      </trkpt>
      <trkpt lat="59.8562038" lon="17.8037456">
        <ele>24.1703</ele>
        <time>2013-04-20T19:00:00Z</time>
      </trkpt>
      <trkpt lat="59.8561872" lon="17.8036518">
        <ele>24.651</ele>
        <time>2013-04-20T19:00:01Z</time>
      </trkpt>
      <trkpt lat="59.8561796" lon="17.8035519">
        <ele>25.1317</ele>
        <time>2013-04-20T19:00:02Z</time>
      </trkpt>
      <trkpt lat="59.8561717" lon="17.8034549">
        <ele>25.6123</ele>
        <time>2013-04-20T19:00:03Z</time>
      </trkpt>
      <trkpt lat="59.8561553" lon="17.8033607">
        <ele>25.6123</ele>
        <time>2013-04-20T19:00:04Z</time>
      </trkpt>
      <trkpt lat="59.8561319" lon="17.8032826">
        <ele>26.5736</ele>
        <time>2013-04-20T19:00:05Z</time>
      </trkpt>
      <trkpt lat="59.8561061" lon="17.8032139">
        <ele>26.0929</ele>
        <time>2013-04-20T19:00:06Z</time>
      </trkpt>
      <trkpt lat="59.8560698" lon="17.8031453">
        <ele>27.0543</ele>
        <time>2013-04-20T19:00:07Z</time>
      </trkpt>
      <trkpt lat="59.8560386" lon="17.8030829">
        <ele>27.0543</ele>
        <time>2013-04-20T19:00:08Z</time>
      </trkpt>
      <trkpt lat="59.8560131" lon="17.8030188">
        <ele>27.0543</ele>
        <time>2013-04-20T19:00:09Z</time>
      </trkpt>
      <trkpt lat="59.8559865" lon="17.8029447">
        <ele>27.0543</ele>
        <time>2013-04-20T19:00:10Z</time>
      </trkpt>
      <trkpt lat="59.8559611" lon="17.8028595">
        <ele>27.0543</ele>
        <time>2013-04-20T19:00:11Z</time>
      </trkpt>
      <trkpt lat="59.8559341" lon="17.8027682">
        <ele>26.5736</ele>
        <time>2013-04-20T19:00:12Z</time>
      </trkpt>
      <trkpt lat="59.8559119" lon="17.8026738">
        <ele>26.0929</ele>
        <time>2013-04-20T19:00:13Z</time>
      </trkpt>
      <trkpt lat="59.8558875" lon="17.802578">
        <ele>25.6123</ele>
        <time>2013-04-20T19:00:14Z</time>
      </trkpt>
      <trkpt lat="59.8558679" lon="17.802479">
        <ele>25.1317</ele>
        <time>2013-04-20T19:00:15Z</time>
      </trkpt>
      <trkpt lat="59.8558477" lon="17.802377">
        <ele>24.1703</ele>
        <time>2013-04-20T19:00:16Z</time>
      </trkpt>
      <trkpt lat="59.8558285" lon="17.8022827">
        <ele>23.6896</ele>
        <time>2013-04-20T19:00:17Z</time>
      </trkpt>
      <trkpt lat="59.8558075" lon="17.802183">
        <ele>23.209</ele>
        <time>2013-04-20T19:00:18Z</time>
      </trkpt>
      <trkpt lat="59.8557823" lon="17.8020834">
        <ele>23.209</ele>
        <time>2013-04-20T19:00:19Z</time>
      </trkpt>
      <trkpt lat="59.8557595" lon="17.8019867">
        <ele>23.209</ele>
        <time>2013-04-20T19:00:20Z</time>
      </trkpt>
      <trkpt lat="59.8557424" lon="17.8018936">
        <ele>23.209</ele>
        <time>2013-04-20T19:00:21Z</time>
      </trkpt>
      <trkpt lat="59.8557243" lon="17.8018076">
        <ele>23.209</ele>
        <time>2013-04-20T19:00:22Z</time>
      </trkpt>
      <trkpt lat="59.8557047" lon="17.8017258">
        <ele>23.209</ele>
        <time>2013-04-20T19:00:23Z</time>
      </trkpt>
      <trkpt lat="59.8556845" lon="17.8016429">
        <ele>22.7283</ele>
        <time>2013-04-20T19:00:24Z</time>
      </trkpt>
      <trkpt lat="59.8556638" lon="17.8015615">
        <ele>23.209</ele>
        <time>2013-04-20T19:00:25Z</time>
      </trkpt>
      <trkpt lat="59.8556425" lon="17.8014856">
        <ele>22.7283</ele>
        <time>2013-04-20T19:00:26Z</time>
      </trkpt>
      <trkpt lat="59.8556262" lon="17.8014073">
        <ele>23.209</ele>
        <time>2013-04-20T19:00:27Z</time>
      </trkpt>
      <trkpt lat="59.8556052" lon="17.8013223">
        <ele>24.1703</ele>
        <time>2013-04-20T19:00:28Z</time>
      </trkpt>
      <trkpt lat="59.8555813" lon="17.8012299">
        <ele>25.1317</ele>
        <time>2013-04-20T19:00:29Z</time>
      </trkpt>
      <trkpt lat="59.8555599" lon="17.8011405">
        <ele>26.0929</ele>
        <time>2013-04-20T19:00:30Z</time>
      </trkpt>
      <trkpt lat="59.8555409" lon="17.8010489">
        <ele>27.0543</ele>
        <time>2013-04-20T19:00:31Z</time>
      </trkpt>
      <trkpt lat="59.8555167" lon="17.8009574">
        <ele>28.0155</ele>
        <time>2013-04-20T19:00:32Z</time>
      </trkpt>
      <trkpt lat="59.8554923" lon="17.800866">
        <ele>28.4962</ele>
        <time>2013-04-20T19:00:33Z</time>
      </trkpt>
      <trkpt lat="59.8554658" lon="17.8007716">
        <ele>29.4575</ele>
        <time>2013-04-20T19:00:34Z</time>
      </trkpt>
      <trkpt lat="59.8554409" lon="17.800682">
        <ele>29.9381</ele>
        <time>2013-04-20T19:00:35Z</time>
      </trkpt>
      <trkpt lat="59.8554148" lon="17.8005958">
        <ele>30.8995</ele>
        <time>2013-04-20T19:00:36Z</time>
      </trkpt>
      <trkpt lat="59.8553865" lon="17.8005083">
        <ele>30.4188</ele>
        <time>2013-04-20T19:00:37Z</time>
      </trkpt>
      <trkpt lat="59.8553618" lon="17.8004215">
        <ele>30.8995</ele>
        <time>2013-04-20T19:00:38Z</time>
      </trkpt>
      <trkpt lat="59.8553368" lon="17.8003339">
        <ele>29.9381</ele>
        <time>2013-04-20T19:00:39Z</time>
      </trkpt>
      <trkpt lat="59.8553093" lon="17.800248">
        <ele>29.4575</ele>
        <time>2013-04-20T19:00:40Z</time>
      </trkpt>
      <trkpt lat="59.855283" lon="17.8001551">
        <ele>29.9381</ele>
        <time>2013-04-20T19:00:41Z</time>
      </trkpt>
      <trkpt lat="59.8552528" lon="17.8000613">
        <ele>29.9381</ele>
        <time>2013-04-20T19:00:42Z</time>
      </trkpt>
      <trkpt lat="59.855225" lon="17.7999718">
        <ele>30.4188</ele>
        <time>2013-04-20T19:00:43Z</time>
      </trkpt>
      <trkpt lat="59.8552021" lon="17.7998815">
        <ele>30.4188</ele>
        <time>2013-04-20T19:00:44Z</time>
      </trkpt>
      <trkpt lat="59.8551779" lon="17.799791">
        <ele>30.4188</ele>
        <time>2013-04-20T19:00:45Z</time>
      </trkpt>
      <trkpt lat="59.8551519" lon="17.7997056">
        <ele>30.4188</ele>
        <time>2013-04-20T19:00:46Z</time>
      </trkpt>
      <trkpt lat="59.8551271" lon="17.7996189">
        <ele>30.4188</ele>
        <time>2013-04-20T19:00:47Z</time>
      </trkpt>
      <trkpt lat="59.8551032" lon="17.7995274">
        <ele>30.8995</ele>
        <time>2013-04-20T19:00:48Z</time>
      </trkpt>
      <trkpt lat="59.8550761" lon="17.7994327">
        <ele>30.8995</ele>
        <time>2013-04-20T19:00:49Z</time>
      </trkpt>
      <trkpt lat="59.8550499" lon="17.7993383">
        <ele>30.8995</ele>
        <time>2013-04-20T19:00:50Z</time>
      </trkpt>
      <trkpt lat="59.8550182" lon="17.7992423">
        <ele>30.8995</ele>
        <time>2013-04-20T19:00:51Z</time>
      </trkpt>
      <trkpt lat="59.8549896" lon="17.7991439">
        <ele>30.4188</ele>
        <time>2013-04-20T19:00:52Z</time>
      </trkpt>
      <trkpt lat="59.8549629" lon="17.79904">
        <ele>30.4188</ele>
        <time>2013-04-20T19:00:53Z</time>
      </trkpt>
      <trkpt lat="59.8549312" lon="17.7989323">
        <ele>29.4575</ele>
        <time>2013-04-20T19:00:54Z</time>
      </trkpt>
      <trkpt lat="59.8548989" lon="17.7988239">
        <ele>28.9769</ele>
        <time>2013-04-20T19:00:55Z</time>
      </trkpt>
      <trkpt lat="59.8548692" lon="17.798714">
        <ele>28.9769</ele>
        <time>2013-04-20T19:00:56Z</time>
      </trkpt>
      <trkpt lat="59.8548376" lon="17.7986034">
        <ele>28.0155</ele>
        <time>2013-04-20T19:00:57Z</time>
      </trkpt>
      <trkpt lat="59.854806" lon="17.7984919">
        <ele>27.5349</ele>
        <time>2013-04-20T19:00:58Z</time>
      </trkpt>
      <trkpt lat="59.8547753" lon="17.7983774">
        <ele>26.5736</ele>
        <time>2013-04-20T19:00:59Z</time>
      </trkpt>
      <trkpt lat="59.8547401" lon="17.7982615">
        <ele>26.5736</ele>
        <time>2013-04-20T19:01:00Z</time>
      </trkpt>
      <trkpt lat="59.8547135" lon="17.7981439">
        <ele>25.6123</ele>
        <time>2013-04-20T19:01:01Z</time>
      </trkpt>
      <trkpt lat="59.8546881" lon="17.7980287">
        <ele>25.6123</ele>
        <time>2013-04-20T19:01:02Z</time>
      </trkpt>
      <trkpt lat="59.8546591" lon="17.7979097">
        <ele>26.0929</ele>
        <time>2013-04-20T19:01:03Z</time>
      </trkpt>
      <trkpt lat="59.8546264" lon="17.7977885">
        <ele>26.0929</ele>
        <time>2013-04-20T19:01:04Z</time>
      </trkpt>
      <trkpt lat="59.854598" lon="17.7976702">
        <ele>26.5736</ele>
        <time>2013-04-20T19:01:05Z</time>
      </trkpt>
      <trkpt lat="59.8545696" lon="17.7975522">
        <ele>27.0543</ele>
        <time>2013-04-20T19:01:06Z</time>
      </trkpt>
      <trkpt lat="59.8545433" lon="17.7974325">
        <ele>27.0543</ele>
        <time>2013-04-20T19:01:07Z</time>
      </trkpt>
      <trkpt lat="59.8545121" lon="17.7973092">
        <ele>28.0155</ele>
        <time>2013-04-20T19:01:08Z</time>
      </trkpt>
      <trkpt lat="59.8544857" lon="17.79719">
        <ele>28.0155</ele>
        <time>2013-04-20T19:01:09Z</time>
      </trkpt>
      <trkpt lat="59.8544573" lon="17.797073">
        <ele>28.0155</ele>
        <time>2013-04-20T19:01:10Z</time>
      </trkpt>
      <trkpt lat="59.8544271" lon="17.7969644">
        <ele>28.4962</ele>
        <time>2013-04-20T19:01:11Z</time>
      </trkpt>
      <trkpt lat="59.8543916" lon="17.7968599">
        <ele>28.9769</ele>
        <time>2013-04-20T19:01:12Z</time>
      </trkpt>
      <trkpt lat="59.8543577" lon="17.796758">
        <ele>29.4575</ele>
        <time>2013-04-20T19:01:13Z</time>
      </trkpt>
      <trkpt lat="59.8543296" lon="17.7966541">
        <ele>29.9381</ele>
        <time>2013-04-20T19:01:14Z</time>
      </trkpt>
      <trkpt lat="59.8542955" lon="17.7965452">
        <ele>30.8995</ele>
        <time>2013-04-20T19:01:15Z</time>
      </trkpt>
      <trkpt lat="59.8542638" lon="17.7964395">
        <ele>30.8995</ele>
        <time>2013-04-20T19:01:16Z</time>
      </trkpt>
      <trkpt lat="59.8542353" lon="17.7963286">
        <ele>31.3801</ele>
        <time>2013-04-20T19:01:17Z</time>
      </trkpt>
      <trkpt lat="59.8542069" lon="17.7962176">
        <ele>31.3801</ele>
        <time>2013-04-20T19:01:18Z</time>
      </trkpt>
      <trkpt lat="59.8541789" lon="17.7961059">
        <ele>31.8607</ele>
        <time>2013-04-20T19:01:19Z</time>
      </trkpt>
      <trkpt lat="59.854152" lon="17.7959993">
        <ele>31.8607</ele>
        <time>2013-04-20T19:01:20Z</time>
      </trkpt>
      <trkpt lat="59.85412" lon="17.7958919">
        <ele>30.8995</ele>
        <time>2013-04-20T19:01:21Z</time>
      </trkpt>
      <trkpt lat="59.8540812" lon="17.7957864">
        <ele>32.3416</ele>
        <time>2013-04-20T19:01:22Z</time>
      </trkpt>
      <trkpt lat="59.8540454" lon="17.7956804">
        <ele>33.3029</ele>
        <time>2013-04-20T19:01:23Z</time>
      </trkpt>
      <trkpt lat="59.8540075" lon="17.7955725">
        <ele>33.7834</ele>
        <time>2013-04-20T19:01:24Z</time>
      </trkpt>
      <trkpt lat="59.8539715" lon="17.7954636">
        <ele>34.2642</ele>
        <time>2013-04-20T19:01:25Z</time>
      </trkpt>
      <trkpt lat="59.8539423" lon="17.7953549">
        <ele>34.7449</ele>
        <time>2013-04-20T19:01:26Z</time>
      </trkpt>
      <trkpt lat="59.853911" lon="17.7952485">
        <ele>35.7061</ele>
        <time>2013-04-20T19:01:27Z</time>
      </trkpt>
      <trkpt lat="59.8538724" lon="17.7951263">
        <ele>36.1868</ele>
        <time>2013-04-20T19:01:28Z</time>
      </trkpt>
      <trkpt lat="59.8538264" lon="17.7950176">
        <ele>36.6675</ele>
        <time>2013-04-20T19:01:29Z</time>
      </trkpt>
      <trkpt lat="59.8537946" lon="17.7949045">
        <ele>37.6287</ele>
        <time>2013-04-20T19:01:30Z</time>
      </trkpt>
      <trkpt lat="59.8537601" lon="17.7947962">
        <ele>38.5901</ele>
        <time>2013-04-20T19:01:31Z</time>
      </trkpt>
      <trkpt lat="59.85373" lon="17.7946848">
        <ele>38.5901</ele>
        <time>2013-04-20T19:01:32Z</time>
      </trkpt>
      <trkpt lat="59.8536946" lon="17.7945741">
        <ele>38.5901</ele>
        <time>2013-04-20T19:01:33Z</time>
      </trkpt>
      <trkpt lat="59.8536572" lon="17.7944644">
        <ele>39.0707</ele>
        <time>2013-04-20T19:01:34Z</time>
      </trkpt>
      <trkpt lat="59.8536218" lon="17.7943513">
        <ele>38.5901</ele>
        <time>2013-04-20T19:01:35Z</time>
      </trkpt>
      <trkpt lat="59.8535807" lon="17.7942412">
        <ele>39.0707</ele>
        <time>2013-04-20T19:01:36Z</time>
      </trkpt>
      <trkpt lat="59.8535424" lon="17.7941255">
        <ele>39.0707</ele>
        <time>2013-04-20T19:01:37Z</time>
      </trkpt>
      <trkpt lat="59.8535124" lon="17.7940088">
        <ele>38.1094</ele>
        <time>2013-04-20T19:01:38Z</time>
      </trkpt>
      <trkpt lat="59.8534803" lon="17.7938976">
        <ele>37.6287</ele>
        <time>2013-04-20T19:01:39Z</time>
      </trkpt>
      <trkpt lat="59.8534417" lon="17.7937794">
        <ele>36.6675</ele>
        <time>2013-04-20T19:01:40Z</time>
      </trkpt>
      <trkpt lat="59.853403" lon="17.7936604">
        <ele>35.7061</ele>
        <time>2013-04-20T19:01:41Z</time>
      </trkpt>
      <trkpt lat="59.8533617" lon="17.7935466">
        <ele>34.7449</ele>
        <time>2013-04-20T19:01:42Z</time>
      </trkpt>
      <trkpt lat="59.8533211" lon="17.793433">
        <ele>33.7834</ele>
        <time>2013-04-20T19:01:43Z</time>
      </trkpt>
      <trkpt lat="59.8532825" lon="17.7933132">
        <ele>32.8223</ele>
        <time>2013-04-20T19:01:44Z</time>
      </trkpt>
      <trkpt lat="59.8532537" lon="17.7931951">
        <ele>32.3416</ele>
        <time>2013-04-20T19:01:45Z</time>
      </trkpt>
      <trkpt lat="59.8532136" lon="17.793079">
        <ele>32.3416</ele>
        <time>2013-04-20T19:01:46Z</time>
      </trkpt>
      <trkpt lat="59.8531753" lon="17.7929683">
        <ele>31.3801</ele>
        <time>2013-04-20T19:01:47Z</time>
      </trkpt>
      <trkpt lat="59.8531356" lon="17.7928539">
        <ele>30.8995</ele>
        <time>2013-04-20T19:01:48Z</time>
      </trkpt>
      <trkpt lat="59.853097" lon="17.7927436">
        <ele>29.9381</ele>
        <time>2013-04-20T19:01:49Z</time>
      </trkpt>
      <trkpt lat="59.8530615" lon="17.7926244">
        <ele>29.4575</ele>
        <time>2013-04-20T19:01:50Z</time>
      </trkpt>
      <trkpt lat="59.853026" lon="17.7925033">
        <ele>28.9769</ele>
        <time>2013-04-20T19:01:51Z</time>
      </trkpt>
      <trkpt lat="59.8529897" lon="17.7923835">
        <ele>28.4962</ele>
        <time>2013-04-20T19:01:52Z</time>
      </trkpt>
      <trkpt lat="59.8529478" lon="17.7922636">
        <ele>28.9769</ele>
        <time>2013-04-20T19:01:53Z</time>
      </trkpt>
      <trkpt lat="59.8528983" lon="17.7921395">
        <ele>29.9381</ele>
        <time>2013-04-20T19:01:54Z</time>
      </trkpt>
      <trkpt lat="59.8528504" lon="17.7920204">
        <ele>29.9381</ele>
        <time>2013-04-20T19:01:55Z</time>
      </trkpt>
      <trkpt lat="59.8528064" lon="17.7919024">
        <ele>29.9381</ele>
        <time>2013-04-20T19:01:56Z</time>
      </trkpt>
      <trkpt lat="59.8527622" lon="17.791784">
        <ele>29.9381</ele>
        <time>2013-04-20T19:01:57Z</time>
      </trkpt>
      <trkpt lat="59.8527186" lon="17.791669">
        <ele>29.4575</ele>
        <time>2013-04-20T19:01:58Z</time>
      </trkpt>
      <trkpt lat="59.8526752" lon="17.7915516">
        <ele>29.9381</ele>
        <time>2013-04-20T19:01:59Z</time>
      </trkpt>
      <trkpt lat="59.8526302" lon="17.7914345">
        <ele>30.4188</ele>
        <time>2013-04-20T19:02:00Z</time>
      </trkpt>
      <trkpt lat="59.8525858" lon="17.7913206">
        <ele>30.8995</ele>
        <time>2013-04-20T19:02:01Z</time>
      </trkpt>
      <trkpt lat="59.8525391" lon="17.7912107">
        <ele>30.8995</ele>
        <time>2013-04-20T19:02:02Z</time>
      </trkpt>
      <trkpt lat="59.8524931" lon="17.7911024">
        <ele>30.4188</ele>
        <time>2013-04-20T19:02:03Z</time>
      </trkpt>
      <trkpt lat="59.8524489" lon="17.7909895">
        <ele>30.4188</ele>
        <time>2013-04-20T19:02:04Z</time>
      </trkpt>
      <trkpt lat="59.8524034" lon="17.7908746">
        <ele>30.8995</ele>
        <time>2013-04-20T19:02:05Z</time>
      </trkpt>
      <trkpt lat="59.8523096" lon="17.7906578">
        <ele>31.3801</ele>
        <time>2013-04-20T19:02:07Z</time>
      </trkpt>
      <trkpt lat="59.8522628" lon="17.7905513">
        <ele>31.3801</ele>
        <time>2013-04-20T19:02:08Z</time>
      </trkpt>
      <trkpt lat="59.8522153" lon="17.7904456">
        <ele>31.3801</ele>
        <time>2013-04-20T19:02:09Z</time>
      </trkpt>
      <trkpt lat="59.8521688" lon="17.7903398">
        <ele>31.8607</ele>
        <time>2013-04-20T19:02:10Z</time>
      </trkpt>
      <trkpt lat="59.8521222" lon="17.7902332">
        <ele>31.8607</ele>
        <time>2013-04-20T19:02:11Z</time>
      </trkpt>
      <trkpt lat="59.8520757" lon="17.7901266">
        <ele>31.8607</ele>
        <time>2013-04-20T19:02:12Z</time>
      </trkpt>
      <trkpt lat="59.8520317" lon="17.7900174">
        <ele>31.8607</ele>
        <time>2013-04-20T19:02:13Z</time>
      </trkpt>
      <trkpt lat="59.851989" lon="17.7899069">
        <ele>31.8607</ele>
        <time>2013-04-20T19:02:14Z</time>
      </trkpt>
      <trkpt lat="59.8519465" lon="17.7897981">
        <ele>31.8607</ele>
        <time>2013-04-20T19:02:15Z</time>
      </trkpt>
      <trkpt lat="59.8519035" lon="17.7896905">
        <ele>31.8607</ele>
        <time>2013-04-20T19:02:16Z</time>
      </trkpt>
      <trkpt lat="59.8518613" lon="17.789582">
        <ele>32.3416</ele>
        <time>2013-04-20T19:02:17Z</time>
      </trkpt>
      <trkpt lat="59.8518194" lon="17.7894731">
        <ele>32.3416</ele>
        <time>2013-04-20T19:02:18Z</time>
      </trkpt>
      <trkpt lat="59.8517789" lon="17.7893678">
        <ele>32.3416</ele>
        <time>2013-04-20T19:02:19Z</time>
      </trkpt>
      <trkpt lat="59.8517404" lon="17.7892634">
        <ele>32.8223</ele>
        <time>2013-04-20T19:02:20Z</time>
      </trkpt>
      <trkpt lat="59.8517025" lon="17.7891599">
        <ele>33.3029</ele>
        <time>2013-04-20T19:02:21Z</time>
      </trkpt>
      <trkpt lat="59.8516636" lon="17.7890647">
        <ele>32.8223</ele>
        <time>2013-04-20T19:02:22Z</time>
      </trkpt>
      <trkpt lat="59.8516268" lon="17.7889689">
        <ele>32.8223</ele>
        <time>2013-04-20T19:02:23Z</time>
      </trkpt>
      <trkpt lat="59.8515893" lon="17.7888674">
        <ele>33.3029</ele>
        <time>2013-04-20T19:02:24Z</time>
      </trkpt>
      <trkpt lat="59.8515502" lon="17.7887643">
        <ele>33.3029</ele>
        <time>2013-04-20T19:02:25Z</time>
      </trkpt>
      <trkpt lat="59.8515144" lon="17.7886635">
        <ele>33.3029</ele>
        <time>2013-04-20T19:02:26Z</time>
      </trkpt>
      <trkpt lat="59.8514803" lon="17.7885625">
        <ele>33.3029</ele>
        <time>2013-04-20T19:02:27Z</time>
      </trkpt>
      <trkpt lat="59.8514418" lon="17.7884601">
        <ele>33.3029</ele>
        <time>2013-04-20T19:02:28Z</time>
      </trkpt>
      <trkpt lat="59.8514016" lon="17.7883568">
        <ele>33.3029</ele>
        <time>2013-04-20T19:02:29Z</time>
      </trkpt>
      <trkpt lat="59.8513607" lon="17.7882486">
        <ele>33.3029</ele>
        <time>2013-04-20T19:02:30Z</time>
      </trkpt>
      <trkpt lat="59.8513158" lon="17.7881379">
        <ele>33.3029</ele>
        <time>2013-04-20T19:02:31Z</time>
      </trkpt>
      <trkpt lat="59.8512724" lon="17.7880258">
        <ele>32.8223</ele>
        <time>2013-04-20T19:02:32Z</time>
      </trkpt>
      <trkpt lat="59.8512265" lon="17.7879142">
        <ele>32.3416</ele>
        <time>2013-04-20T19:02:33Z</time>
      </trkpt>
      <trkpt lat="59.8511771" lon="17.7878036">
        <ele>32.3416</ele>
        <time>2013-04-20T19:02:34Z</time>
      </trkpt>
      <trkpt lat="59.8511278" lon="17.7876894">
        <ele>32.3416</ele>
        <time>2013-04-20T19:02:35Z</time>
      </trkpt>
      <trkpt lat="59.8510792" lon="17.7875795">
        <ele>31.8607</ele>
        <time>2013-04-20T19:02:36Z</time>
      </trkpt>
      <trkpt lat="59.8510304" lon="17.7874667">
        <ele>31.8607</ele>
        <time>2013-04-20T19:02:37Z</time>
      </trkpt>
      <trkpt lat="59.8509778" lon="17.787346">
        <ele>31.3801</ele>
        <time>2013-04-20T19:02:38Z</time>
      </trkpt>
      <trkpt lat="59.8509269" lon="17.7872266">
        <ele>30.8995</ele>
        <time>2013-04-20T19:02:39Z</time>
      </trkpt>
      <trkpt lat="59.8508768" lon="17.7871065">
        <ele>30.4188</ele>
        <time>2013-04-20T19:02:40Z</time>
      </trkpt>
      <trkpt lat="59.8508255" lon="17.7869875">
        <ele>29.9381</ele>
        <time>2013-04-20T19:02:41Z</time>
      </trkpt>
      <trkpt lat="59.8507747" lon="17.7868702">
        <ele>28.9769</ele>
        <time>2013-04-20T19:02:42Z</time>
      </trkpt>
      <trkpt lat="59.8507163" lon="17.7867507">
        <ele>28.4962</ele>
        <time>2013-04-20T19:02:43Z</time>
      </trkpt>
      <trkpt lat="59.8506602" lon="17.7866154">
        <ele>28.4962</ele>
        <time>2013-04-20T19:02:44Z</time>
      </trkpt>
      <trkpt lat="59.8506061" lon="17.7864829">
        <ele>28.0155</ele>
        <time>2013-04-20T19:02:45Z</time>
      </trkpt>
      <trkpt lat="59.85055" lon="17.7863537">
        <ele>27.5349</ele>
        <time>2013-04-20T19:02:46Z</time>
      </trkpt>
      <trkpt lat="59.8504984" lon="17.7862263">
        <ele>27.0543</ele>
        <time>2013-04-20T19:02:47Z</time>
      </trkpt>
      <trkpt lat="59.8504479" lon="17.7860983">
        <ele>27.5349</ele>
        <time>2013-04-20T19:02:48Z</time>
      </trkpt>
      <trkpt lat="59.8503966" lon="17.7859659">
        <ele>27.0543</ele>
        <time>2013-04-20T19:02:49Z</time>
      </trkpt>
      <trkpt lat="59.8503477" lon="17.7858312">
        <ele>27.0543</ele>
        <time>2013-04-20T19:02:50Z</time>
      </trkpt>
      <trkpt lat="59.850296" lon="17.7856924">
        <ele>26.5736</ele>
        <time>2013-04-20T19:02:51Z</time>
      </trkpt>
      <trkpt lat="59.8502397" lon="17.7855578">
        <ele>25.6123</ele>
        <time>2013-04-20T19:02:52Z</time>
      </trkpt>
      <trkpt lat="59.8501861" lon="17.7854194">
        <ele>25.1317</ele>
        <time>2013-04-20T19:02:53Z</time>
      </trkpt>
      <trkpt lat="59.8501346" lon="17.7852682">
        <ele>25.1317</ele>
        <time>2013-04-20T19:02:54Z</time>
      </trkpt>
      <trkpt lat="59.8500826" lon="17.7851079">
        <ele>24.651</ele>
        <time>2013-04-20T19:02:55Z</time>
      </trkpt>
      <trkpt lat="59.8500365" lon="17.7849447">
        <ele>24.1703</ele>
        <time>2013-04-20T19:02:56Z</time>
      </trkpt>
      <trkpt lat="59.8499861" lon="17.7847827">
        <ele>24.1703</ele>
        <time>2013-04-20T19:02:57Z</time>
      </trkpt>
      <trkpt lat="59.8499437" lon="17.7846174">
        <ele>23.6896</ele>
        <time>2013-04-20T19:02:58Z</time>
      </trkpt>
      <trkpt lat="59.8499013" lon="17.7844503">
        <ele>23.6896</ele>
        <time>2013-04-20T19:02:59Z</time>
      </trkpt>
      <trkpt lat="59.8498597" lon="17.7842782">
        <ele>23.6896</ele>
        <time>2013-04-20T19:03:00Z</time>
      </trkpt>
      <trkpt lat="59.8498224" lon="17.7841024">
        <ele>23.209</ele>
        <time>2013-04-20T19:03:01Z</time>
      </trkpt>
      <trkpt lat="59.8497918" lon="17.7839216">
        <ele>22.7283</ele>
        <time>2013-04-20T19:03:02Z</time>
      </trkpt>
      <trkpt lat="59.8497629" lon="17.7837405">
        <ele>22.7283</ele>
        <time>2013-04-20T19:03:03Z</time>
      </trkpt>
      <trkpt lat="59.8497295" lon="17.7835635">
        <ele>22.7283</ele>
        <time>2013-04-20T19:03:04Z</time>
      </trkpt>
      <trkpt lat="59.8496932" lon="17.7833892">
        <ele>22.2476</ele>
        <time>2013-04-20T19:03:05Z</time>
      </trkpt>
      <trkpt lat="59.8496569" lon="17.7832219">
        <ele>22.2476</ele>
        <time>2013-04-20T19:03:06Z</time>
      </trkpt>
      <trkpt lat="59.84962" lon="17.7830545">
        <ele>22.2476</ele>
        <time>2013-04-20T19:03:07Z</time>
      </trkpt>
      <trkpt lat="59.8495848" lon="17.7828871">
        <ele>22.2476</ele>
        <time>2013-04-20T19:03:08Z</time>
      </trkpt>
      <trkpt lat="59.8495515" lon="17.7827195">
        <ele>21.767</ele>
        <time>2013-04-20T19:03:09Z</time>
      </trkpt>
      <trkpt lat="59.8495189" lon="17.7825526">
        <ele>21.767</ele>
        <time>2013-04-20T19:03:10Z</time>
      </trkpt>
      <trkpt lat="59.8494852" lon="17.7823873">
        <ele>21.767</ele>
        <time>2013-04-20T19:03:11Z</time>
      </trkpt>
      <trkpt lat="59.8494533" lon="17.7822206">
        <ele>21.2864</ele>
        <time>2013-04-20T19:03:12Z</time>
      </trkpt>
      <trkpt lat="59.8494179" lon="17.7820557">
        <ele>21.767</ele>
        <time>2013-04-20T19:03:13Z</time>
      </trkpt>
      <trkpt lat="59.8493826" lon="17.781891">
        <ele>21.767</ele>
        <time>2013-04-20T19:03:14Z</time>
      </trkpt>
      <trkpt lat="59.8493481" lon="17.781726">
        <ele>21.767</ele>
        <time>2013-04-20T19:03:15Z</time>
      </trkpt>
      <trkpt lat="59.8493177" lon="17.781569">
        <ele>21.767</ele>
        <time>2013-04-20T19:03:16Z</time>
      </trkpt>
      <trkpt lat="59.8492871" lon="17.7814125">
        <ele>21.2864</ele>
        <time>2013-04-20T19:03:17Z</time>
      </trkpt>
      <trkpt lat="59.8492563" lon="17.7812596">
        <ele>21.767</ele>
        <time>2013-04-20T19:03:18Z</time>
      </trkpt>
      <trkpt lat="59.8492256" lon="17.7811095">
        <ele>21.767</ele>
        <time>2013-04-20T19:03:19Z</time>
      </trkpt>
      <trkpt lat="59.8491969" lon="17.7809594">
        <ele>21.2864</ele>
        <time>2013-04-20T19:03:20Z</time>
      </trkpt>
      <trkpt lat="59.8491694" lon="17.7808112">
        <ele>21.767</ele>
        <time>2013-04-20T19:03:21Z</time>
      </trkpt>
      <trkpt lat="59.8491452" lon="17.7806623">
        <ele>21.2864</ele>
        <time>2013-04-20T19:03:22Z</time>
      </trkpt>
      <trkpt lat="59.8491234" lon="17.7805164">
        <ele>21.767</ele>
        <time>2013-04-20T19:03:23Z</time>
      </trkpt>
      <trkpt lat="59.8491" lon="17.7803683">
        <ele>21.767</ele>
        <time>2013-04-20T19:03:24Z</time>
      </trkpt>
      <trkpt lat="59.8490788" lon="17.7802221">
        <ele>21.767</ele>
        <time>2013-04-20T19:03:25Z</time>
      </trkpt>
      <trkpt lat="59.849058" lon="17.7800778">
        <ele>21.767</ele>
        <time>2013-04-20T19:03:26Z</time>
      </trkpt>
      <trkpt lat="59.8490368" lon="17.7799423">
        <ele>21.767</ele>
        <time>2013-04-20T19:03:27Z</time>
      </trkpt>
      <trkpt lat="59.8490053" lon="17.7798133">
        <ele>21.767</ele>
        <time>2013-04-20T19:03:28Z</time>
      </trkpt>
      <trkpt lat="59.8489732" lon="17.7796902">
        <ele>22.2476</ele>
        <time>2013-04-20T19:03:29Z</time>
      </trkpt>
      <trkpt lat="59.8489477" lon="17.7795605">
        <ele>22.7283</ele>
        <time>2013-04-20T19:03:30Z</time>
      </trkpt>
      <trkpt lat="59.8489312" lon="17.7794239">
        <ele>22.7283</ele>
        <time>2013-04-20T19:03:31Z</time>
      </trkpt>
      <trkpt lat="59.8489206" lon="17.7792839">
        <ele>22.7283</ele>
        <time>2013-04-20T19:03:32Z</time>
      </trkpt>
      <trkpt lat="59.8489119" lon="17.779141">
        <ele>22.7283</ele>
        <time>2013-04-20T19:03:33Z</time>
      </trkpt>
      <trkpt lat="59.8489042" lon="17.7789969">
        <ele>23.209</ele>
        <time>2013-04-20T19:03:34Z</time>
      </trkpt>
      <trkpt lat="59.8488964" lon="17.7788525">
        <ele>23.209</ele>
        <time>2013-04-20T19:03:35Z</time>
      </trkpt>
      <trkpt lat="59.8488897" lon="17.7787079">
        <ele>23.209</ele>
        <time>2013-04-20T19:03:36Z</time>
      </trkpt>
      <trkpt lat="59.8488848" lon="17.7785626">
        <ele>22.7283</ele>
        <time>2013-04-20T19:03:37Z</time>
      </trkpt>
      <trkpt lat="59.848881" lon="17.7784168">
        <ele>22.7283</ele>
        <time>2013-04-20T19:03:38Z</time>
      </trkpt>
      <trkpt lat="59.8488784" lon="17.7782703">
        <ele>22.7283</ele>
        <time>2013-04-20T19:03:39Z</time>
      </trkpt>
      <trkpt lat="59.8488794" lon="17.7781237">
        <ele>22.7283</ele>
        <time>2013-04-20T19:03:40Z</time>
      </trkpt>
      <trkpt lat="59.8488822" lon="17.7779771">
        <ele>22.2476</ele>
        <time>2013-04-20T19:03:41Z</time>
      </trkpt>
      <trkpt lat="59.8488813" lon="17.7778332">
        <ele>21.767</ele>
        <time>2013-04-20T19:03:42Z</time>
      </trkpt>
      <trkpt lat="59.8488744" lon="17.7776901">
        <ele>21.767</ele>
        <time>2013-04-20T19:03:43Z</time>
      </trkpt>
      <trkpt lat="59.8488653" lon="17.777546">
        <ele>21.2864</ele>
        <time>2013-04-20T19:03:44Z</time>
      </trkpt>
      <trkpt lat="59.8488561" lon="17.7774017">
        <ele>21.2864</ele>
        <time>2013-04-20T19:03:45Z</time>
      </trkpt>
      <trkpt lat="59.8488462" lon="17.7772564">
        <ele>20.8057</ele>
        <time>2013-04-20T19:03:46Z</time>
      </trkpt>
      <trkpt lat="59.8488393" lon="17.7771087">
        <ele>20.8057</ele>
        <time>2013-04-20T19:03:47Z</time>
      </trkpt>
      <trkpt lat="59.8488338" lon="17.7769593">
        <ele>20.8057</ele>
        <time>2013-04-20T19:03:48Z</time>
      </trkpt>
      <trkpt lat="59.8488285" lon="17.7768093">
        <ele>20.8057</ele>
        <time>2013-04-20T19:03:49Z</time>
      </trkpt>
      <trkpt lat="59.8488235" lon="17.7766573">
        <ele>20.325</ele>
        <time>2013-04-20T19:03:50Z</time>
      </trkpt>
      <trkpt lat="59.8488182" lon="17.7765029">
        <ele>20.325</ele>
        <time>2013-04-20T19:03:51Z</time>
      </trkpt>
      <trkpt lat="59.8488113" lon="17.7763459">
        <ele>20.325</ele>
        <time>2013-04-20T19:03:52Z</time>
      </trkpt>
      <trkpt lat="59.8488026" lon="17.7761874">
        <ele>19.8444</ele>
        <time>2013-04-20T19:03:53Z</time>
      </trkpt>
      <trkpt lat="59.8487929" lon="17.7760271">
        <ele>19.8444</ele>
        <time>2013-04-20T19:03:54Z</time>
      </trkpt>
      <trkpt lat="59.8487834" lon="17.775864">
        <ele>19.3638</ele>
        <time>2013-04-20T19:03:55Z</time>
      </trkpt>
      <trkpt lat="59.8487748" lon="17.7756975">
        <ele>18.4023</ele>
        <time>2013-04-20T19:03:56Z</time>
      </trkpt>
      <trkpt lat="59.8487611" lon="17.7755289">
        <ele>18.4023</ele>
        <time>2013-04-20T19:03:57Z</time>
      </trkpt>
      <trkpt lat="59.8487488" lon="17.7753566">
        <ele>17.9218</ele>
        <time>2013-04-20T19:03:58Z</time>
      </trkpt>
      <trkpt lat="59.8487366" lon="17.7751821">
        <ele>17.4412</ele>
        <time>2013-04-20T19:03:59Z</time>
      </trkpt>
      <trkpt lat="59.8487244" lon="17.7750032">
        <ele>16.9604</ele>
        <time>2013-04-20T19:04:00Z</time>
      </trkpt>
      <trkpt lat="59.848708" lon="17.7748239">
        <ele>16.9604</ele>
        <time>2013-04-20T19:04:01Z</time>
      </trkpt>
      <trkpt lat="59.8486897" lon="17.7746421">
        <ele>16.9604</ele>
        <time>2013-04-20T19:04:02Z</time>
      </trkpt>
      <trkpt lat="59.8486704" lon="17.7744578">
        <ele>16.4797</ele>
        <time>2013-04-20T19:04:03Z</time>
      </trkpt>
      <trkpt lat="59.848653" lon="17.7742707">
        <ele>15.999</ele>
        <time>2013-04-20T19:04:04Z</time>
      </trkpt>
      <trkpt lat="59.8486339" lon="17.7740812">
        <ele>15.5184</ele>
        <time>2013-04-20T19:04:05Z</time>
      </trkpt>
      <trkpt lat="59.848609" lon="17.773891">
        <ele>15.5184</ele>
        <time>2013-04-20T19:04:06Z</time>
      </trkpt>
      <trkpt lat="59.8485854" lon="17.7736978">
        <ele>15.0377</ele>
        <time>2013-04-20T19:04:07Z</time>
      </trkpt>
      <trkpt lat="59.8485608" lon="17.7734996">
        <ele>15.0377</ele>
        <time>2013-04-20T19:04:08Z</time>
      </trkpt>
      <trkpt lat="59.8485386" lon="17.7732999">
        <ele>14.557</ele>
        <time>2013-04-20T19:04:09Z</time>
      </trkpt>
      <trkpt lat="59.8485181" lon="17.7730981">
        <ele>14.557</ele>
        <time>2013-04-20T19:04:10Z</time>
      </trkpt>
      <trkpt lat="59.8484943" lon="17.7728942">
        <ele>14.0764</ele>
        <time>2013-04-20T19:04:11Z</time>
      </trkpt>
      <trkpt lat="59.848468" lon="17.7726881">
        <ele>13.5958</ele>
        <time>2013-04-20T19:04:12Z</time>
      </trkpt>
      <trkpt lat="59.8484368" lon="17.7724837">
        <ele>13.5958</ele>
        <time>2013-04-20T19:04:13Z</time>
      </trkpt>
      <trkpt lat="59.8484016" lon="17.7722821">
        <ele>13.1151</ele>
        <time>2013-04-20T19:04:14Z</time>
      </trkpt>
      <trkpt lat="59.8483649" lon="17.7720816">
        <ele>13.1151</ele>
        <time>2013-04-20T19:04:15Z</time>
      </trkpt>
      <trkpt lat="59.8483301" lon="17.7718837">
        <ele>12.6344</ele>
        <time>2013-04-20T19:04:16Z</time>
      </trkpt>
      <trkpt lat="59.8482938" lon="17.7716894">
        <ele>12.6344</ele>
        <time>2013-04-20T19:04:17Z</time>
      </trkpt>
      <trkpt lat="59.8482582" lon="17.7714982">
        <ele>12.6344</ele>
        <time>2013-04-20T19:04:18Z</time>
      </trkpt>
      <trkpt lat="59.8482235" lon="17.7713093">
        <ele>12.1538</ele>
        <time>2013-04-20T19:04:19Z</time>
      </trkpt>
      <trkpt lat="59.8481898" lon="17.7711221">
        <ele>12.1538</ele>
        <time>2013-04-20T19:04:20Z</time>
      </trkpt>
      <trkpt lat="59.8481608" lon="17.7709343">
        <ele>11.6732</ele>
        <time>2013-04-20T19:04:21Z</time>
      </trkpt>
      <trkpt lat="59.848139" lon="17.7707453">
        <ele>11.6732</ele>
        <time>2013-04-20T19:04:22Z</time>
      </trkpt>
      <trkpt lat="59.8481225" lon="17.7705576">
        <ele>11.1925</ele>
        <time>2013-04-20T19:04:23Z</time>
      </trkpt>
      <trkpt lat="59.8481048" lon="17.7703748">
        <ele>11.1925</ele>
        <time>2013-04-20T19:04:24Z</time>
      </trkpt>
      <trkpt lat="59.8480781" lon="17.7702008">
        <ele>11.1925</ele>
        <time>2013-04-20T19:04:25Z</time>
      </trkpt>
      <trkpt lat="59.8480401" lon="17.7700415">
        <ele>11.1925</ele>
        <time>2013-04-20T19:04:26Z</time>
      </trkpt>
      <trkpt lat="59.8479946" lon="17.769891">
        <ele>11.1925</ele>
        <time>2013-04-20T19:04:27Z</time>
      </trkpt>
      <trkpt lat="59.847948" lon="17.7697411">
        <ele>10.7118</ele>
        <time>2013-04-20T19:04:28Z</time>
      </trkpt>
      <trkpt lat="59.8479065" lon="17.7695911">
        <ele>11.1925</ele>
        <time>2013-04-20T19:04:29Z</time>
      </trkpt>
      <trkpt lat="59.8478714" lon="17.7694383">
        <ele>11.1925</ele>
        <time>2013-04-20T19:04:30Z</time>
      </trkpt>
      <trkpt lat="59.8478433" lon="17.7692818">
        <ele>11.1925</ele>
        <time>2013-04-20T19:04:31Z</time>
      </trkpt>
      <trkpt lat="59.8478185" lon="17.7691227">
        <ele>11.1925</ele>
        <time>2013-04-20T19:04:32Z</time>
      </trkpt>
      <trkpt lat="59.8477944" lon="17.7689656">
        <ele>11.1925</ele>
        <time>2013-04-20T19:04:33Z</time>
      </trkpt>
      <trkpt lat="59.8477722" lon="17.7688085">
        <ele>11.1925</ele>
        <time>2013-04-20T19:04:34Z</time>
      </trkpt>
      <trkpt lat="59.8477495" lon="17.7686538">
        <ele>11.1925</ele>
        <time>2013-04-20T19:04:35Z</time>
      </trkpt>
      <trkpt lat="59.8477258" lon="17.768502">
        <ele>11.1925</ele>
        <time>2013-04-20T19:04:36Z</time>
      </trkpt>
      <trkpt lat="59.8477015" lon="17.768352">
        <ele>11.1925</ele>
        <time>2013-04-20T19:04:37Z</time>
      </trkpt>
      <trkpt lat="59.847678" lon="17.7682038">
        <ele>11.1925</ele>
        <time>2013-04-20T19:04:38Z</time>
      </trkpt>
      <trkpt lat="59.847654" lon="17.7680579">
        <ele>11.1925</ele>
        <time>2013-04-20T19:04:39Z</time>
      </trkpt>
      <trkpt lat="59.8476288" lon="17.7679144">
        <ele>10.7118</ele>
        <time>2013-04-20T19:04:40Z</time>
      </trkpt>
      <trkpt lat="59.847604" lon="17.7677724">
        <ele>10.7118</ele>
        <time>2013-04-20T19:04:41Z</time>
      </trkpt>
      <trkpt lat="59.8475796" lon="17.767632">
        <ele>11.1925</ele>
        <time>2013-04-20T19:04:42Z</time>
      </trkpt>
      <trkpt lat="59.8475556" lon="17.7674945">
        <ele>11.1925</ele>
        <time>2013-04-20T19:04:43Z</time>
      </trkpt>
      <trkpt lat="59.8475297" lon="17.7673569">
        <ele>11.6732</ele>
        <time>2013-04-20T19:04:44Z</time>
      </trkpt>
      <trkpt lat="59.8475025" lon="17.7672177">
        <ele>11.6732</ele>
        <time>2013-04-20T19:04:45Z</time>
      </trkpt>
      <trkpt lat="59.8474794" lon="17.7670822">
        <ele>12.1538</ele>
        <time>2013-04-20T19:04:46Z</time>
      </trkpt>
      <trkpt lat="59.8474548" lon="17.7669499">
        <ele>12.6344</ele>
        <time>2013-04-20T19:04:47Z</time>
      </trkpt>
      <trkpt lat="59.8474289" lon="17.7668202">
        <ele>13.1151</ele>
        <time>2013-04-20T19:04:48Z</time>
      </trkpt>
      <trkpt lat="59.847405" lon="17.7666897">
        <ele>13.5958</ele>
        <time>2013-04-20T19:04:49Z</time>
      </trkpt>
      <trkpt lat="59.8473827" lon="17.7665628">
        <ele>13.5958</ele>
        <time>2013-04-20T19:04:50Z</time>
      </trkpt>
      <trkpt lat="59.8473622" lon="17.7664359">
        <ele>13.5958</ele>
        <time>2013-04-20T19:04:51Z</time>
      </trkpt>
      <trkpt lat="59.8473429" lon="17.7663084">
        <ele>14.0764</ele>
        <time>2013-04-20T19:04:52Z</time>
      </trkpt>
      <trkpt lat="59.8473242" lon="17.7661778">
        <ele>13.5958</ele>
        <time>2013-04-20T19:04:53Z</time>
      </trkpt>
      <trkpt lat="59.8473047" lon="17.7660453">
        <ele>13.5958</ele>
        <time>2013-04-20T19:04:54Z</time>
      </trkpt>
      <trkpt lat="59.8472824" lon="17.7659132">
        <ele>13.1151</ele>
        <time>2013-04-20T19:04:55Z</time>
      </trkpt>
      <trkpt lat="59.8472598" lon="17.7657806">
        <ele>13.1151</ele>
        <time>2013-04-20T19:04:56Z</time>
      </trkpt>
      <trkpt lat="59.8472372" lon="17.765648">
        <ele>13.1151</ele>
        <time>2013-04-20T19:04:57Z</time>
      </trkpt>
      <trkpt lat="59.8472178" lon="17.7655138">
        <ele>13.1151</ele>
        <time>2013-04-20T19:04:58Z</time>
      </trkpt>
      <trkpt lat="59.8472106" lon="17.7653753">
        <ele>13.1151</ele>
        <time>2013-04-20T19:04:59Z</time>
      </trkpt>
      <trkpt lat="59.8472213" lon="17.7652398">
        <ele>13.1151</ele>
        <time>2013-04-20T19:05:00Z</time>
      </trkpt>
      <trkpt lat="59.8472543" lon="17.7651166">
        <ele>12.6344</ele>
        <time>2013-04-20T19:05:01Z</time>
      </trkpt>
      <trkpt lat="59.8472989" lon="17.7650099">
        <ele>12.6344</ele>
        <time>2013-04-20T19:05:02Z</time>
      </trkpt>
      <trkpt lat="59.8473449" lon="17.7649112">
        <ele>12.1538</ele>
        <time>2013-04-20T19:05:03Z</time>
      </trkpt>
      <trkpt lat="59.8473898" lon="17.7648135">
        <ele>12.1538</ele>
        <time>2013-04-20T19:05:04Z</time>
      </trkpt>
      <trkpt lat="59.8474367" lon="17.7647201">
        <ele>11.6732</ele>
        <time>2013-04-20T19:05:05Z</time>
      </trkpt>
      <trkpt lat="59.8474843" lon="17.7646286">
        <ele>11.6732</ele>
        <time>2013-04-20T19:05:06Z</time>
      </trkpt>
      <trkpt lat="59.8475319" lon="17.7645384">
        <ele>11.6732</ele>
        <time>2013-04-20T19:05:07Z</time>
      </trkpt>
      <trkpt lat="59.8475799" lon="17.7644468">
        <ele>11.6732</ele>
        <time>2013-04-20T19:05:08Z</time>
      </trkpt>
      <trkpt lat="59.8476266" lon="17.764353">
        <ele>11.1925</ele>
        <time>2013-04-20T19:05:09Z</time>
      </trkpt>
      <trkpt lat="59.8476721" lon="17.7642587">
        <ele>11.1925</ele>
        <time>2013-04-20T19:05:10Z</time>
      </trkpt>
      <trkpt lat="59.8477183" lon="17.7641648">
        <ele>10.7118</ele>
        <time>2013-04-20T19:05:11Z</time>
      </trkpt>
      <trkpt lat="59.8477651" lon="17.7640696">
        <ele>10.7118</ele>
        <time>2013-04-20T19:05:12Z</time>
      </trkpt>
      <trkpt lat="59.8478117" lon="17.7639722">
        <ele>10.7118</ele>
        <time>2013-04-20T19:05:13Z</time>
      </trkpt>
      <trkpt lat="59.8478578" lon="17.7638759">
        <ele>10.7118</ele>
        <time>2013-04-20T19:05:14Z</time>
      </trkpt>
      <trkpt lat="59.8479037" lon="17.7637821">
        <ele>10.7118</ele>
        <time>2013-04-20T19:05:15Z</time>
      </trkpt>
      <trkpt lat="59.84795" lon="17.7636897">
        <ele>10.7118</ele>
        <time>2013-04-20T19:05:16Z</time>
      </trkpt>
      <trkpt lat="59.8479936" lon="17.763598">
        <ele>10.7118</ele>
        <time>2013-04-20T19:05:17Z</time>
      </trkpt>
      <trkpt lat="59.8480375" lon="17.7635058">
        <ele>10.2312</ele>
        <time>2013-04-20T19:05:18Z</time>
      </trkpt>
      <trkpt lat="59.8480824" lon="17.7634138">
        <ele>10.2312</ele>
        <time>2013-04-20T19:05:19Z</time>
      </trkpt>
      <trkpt lat="59.8481261" lon="17.763319">
        <ele>10.2312</ele>
        <time>2013-04-20T19:05:20Z</time>
      </trkpt>
      <trkpt lat="59.848169" lon="17.7632252">
        <ele>9.75061</ele>
        <time>2013-04-20T19:05:21Z</time>
      </trkpt>
      <trkpt lat="59.8482127" lon="17.7631341">
        <ele>9.75061</ele>
        <time>2013-04-20T19:05:22Z</time>
      </trkpt>
      <trkpt lat="59.8482571" lon="17.7630433">
        <ele>9.75061</ele>
        <time>2013-04-20T19:05:23Z</time>
      </trkpt>
      <trkpt lat="59.8482979" lon="17.762949">
        <ele>9.75061</ele>
        <time>2013-04-20T19:05:24Z</time>
      </trkpt>
      <trkpt lat="59.8483329" lon="17.7628428">
        <ele>9.2699</ele>
        <time>2013-04-20T19:05:25Z</time>
      </trkpt>
      <trkpt lat="59.8483566" lon="17.7627316">
        <ele>9.2699</ele>
        <time>2013-04-20T19:05:26Z</time>
      </trkpt>
      <trkpt lat="59.848367" lon="17.7626122">
        <ele>8.78918</ele>
        <time>2013-04-20T19:05:27Z</time>
      </trkpt>
      <trkpt lat="59.848369" lon="17.7624902">
        <ele>8.78918</ele>
        <time>2013-04-20T19:05:28Z</time>
      </trkpt>
      <trkpt lat="59.8483709" lon="17.7623677">
        <ele>8.78918</ele>
        <time>2013-04-20T19:05:29Z</time>
      </trkpt>
      <trkpt lat="59.8483767" lon="17.7622445">
        <ele>8.78918</ele>
        <time>2013-04-20T19:05:30Z</time>
      </trkpt>
      <trkpt lat="59.8483814" lon="17.7621193">
        <ele>8.30859</ele>
        <time>2013-04-20T19:05:31Z</time>
      </trkpt>
      <trkpt lat="59.8483819" lon="17.7619918">
        <ele>8.30859</ele>
        <time>2013-04-20T19:05:32Z</time>
      </trkpt>
      <trkpt lat="59.8483803" lon="17.7618624">
        <ele>8.30859</ele>
        <time>2013-04-20T19:05:33Z</time>
      </trkpt>
      <trkpt lat="59.8483801" lon="17.7617313">
        <ele>8.30859</ele>
        <time>2013-04-20T19:05:34Z</time>
      </trkpt>
      <trkpt lat="59.8483836" lon="17.7616009">
        <ele>8.78918</ele>
        <time>2013-04-20T19:05:35Z</time>
      </trkpt>
      <trkpt lat="59.8483862" lon="17.7614716">
        <ele>8.78918</ele>
        <time>2013-04-20T19:05:36Z</time>
      </trkpt>
      <trkpt lat="59.8483897" lon="17.7613467">
        <ele>9.2699</ele>
        <time>2013-04-20T19:05:37Z</time>
      </trkpt>
      <trkpt lat="59.8483929" lon="17.7612253">
        <ele>9.75061</ele>
        <time>2013-04-20T19:05:38Z</time>
      </trkpt>
      <trkpt lat="59.8483974" lon="17.7611066">
        <ele>10.2312</ele>
        <time>2013-04-20T19:05:39Z</time>
      </trkpt>
      <trkpt lat="59.8484031" lon="17.7609872">
        <ele>10.7118</ele>
        <time>2013-04-20T19:05:40Z</time>
      </trkpt>
      <trkpt lat="59.8484067" lon="17.7608662">
        <ele>10.7118</ele>
        <time>2013-04-20T19:05:41Z</time>
      </trkpt>
      <trkpt lat="59.8484089" lon="17.7607446">
        <ele>10.7118</ele>
        <time>2013-04-20T19:05:42Z</time>
      </trkpt>
      <trkpt lat="59.8484101" lon="17.7606205">
        <ele>11.1925</ele>
        <time>2013-04-20T19:05:43Z</time>
      </trkpt>
      <trkpt lat="59.8484115" lon="17.7604949">
        <ele>11.1925</ele>
        <time>2013-04-20T19:05:44Z</time>
      </trkpt>
      <trkpt lat="59.8484125" lon="17.7603703">
        <ele>11.6732</ele>
        <time>2013-04-20T19:05:45Z</time>
      </trkpt>
      <trkpt lat="59.8484136" lon="17.7602462">
        <ele>11.6732</ele>
        <time>2013-04-20T19:05:46Z</time>
      </trkpt>
      <trkpt lat="59.848415" lon="17.7601223">
        <ele>11.6732</ele>
        <time>2013-04-20T19:05:47Z</time>
      </trkpt>
      <trkpt lat="59.8484167" lon="17.7599974">
        <ele>12.1538</ele>
        <time>2013-04-20T19:05:48Z</time>
      </trkpt>
      <trkpt lat="59.8484188" lon="17.7598712">
        <ele>12.1538</ele>
        <time>2013-04-20T19:05:49Z</time>
      </trkpt>
      <trkpt lat="59.8484198" lon="17.7597441">
        <ele>12.1538</ele>
        <time>2013-04-20T19:05:50Z</time>
      </trkpt>
      <trkpt lat="59.848422" lon="17.7596183">
        <ele>12.1538</ele>
        <time>2013-04-20T19:05:51Z</time>
      </trkpt>
      <trkpt lat="59.8484248" lon="17.7594943">
        <ele>12.1538</ele>
        <time>2013-04-20T19:05:52Z</time>
      </trkpt>
      <trkpt lat="59.8484261" lon="17.7593713">
        <ele>12.1538</ele>
        <time>2013-04-20T19:05:53Z</time>
      </trkpt>
      <trkpt lat="59.8484277" lon="17.7592519">
        <ele>12.1538</ele>
        <time>2013-04-20T19:05:54Z</time>
      </trkpt>
      <trkpt lat="59.8484308" lon="17.7591338">
        <ele>12.6344</ele>
        <time>2013-04-20T19:05:55Z</time>
      </trkpt>
      <trkpt lat="59.8484364" lon="17.7590149">
        <ele>12.6344</ele>
        <time>2013-04-20T19:05:56Z</time>
      </trkpt>
      <trkpt lat="59.8484429" lon="17.7588958">
        <ele>12.6344</ele>
        <time>2013-04-20T19:05:57Z</time>
      </trkpt>
      <trkpt lat="59.8484494" lon="17.758777">
        <ele>13.1151</ele>
        <time>2013-04-20T19:05:58Z</time>
      </trkpt>
      <trkpt lat="59.8484536" lon="17.7586544">
        <ele>13.5958</ele>
        <time>2013-04-20T19:05:59Z</time>
      </trkpt>
      <trkpt lat="59.8484574" lon="17.7585308">
        <ele>13.5958</ele>
        <time>2013-04-20T19:06:00Z</time>
      </trkpt>
      <trkpt lat="59.8484609" lon="17.7584062">
        <ele>13.5958</ele>
        <time>2013-04-20T19:06:01Z</time>
      </trkpt>
      <trkpt lat="59.8484642" lon="17.7582793">
        <ele>13.5958</ele>
        <time>2013-04-20T19:06:02Z</time>
      </trkpt>
      <trkpt lat="59.8484673" lon="17.7581507">
        <ele>14.0764</ele>
        <time>2013-04-20T19:06:03Z</time>
      </trkpt>
      <trkpt lat="59.8484711" lon="17.7580209">
        <ele>14.0764</ele>
        <time>2013-04-20T19:06:04Z</time>
      </trkpt>
      <trkpt lat="59.8484747" lon="17.7578898">
        <ele>14.557</ele>
        <time>2013-04-20T19:06:05Z</time>
      </trkpt>
      <trkpt lat="59.8484778" lon="17.7577575">
        <ele>14.557</ele>
        <time>2013-04-20T19:06:06Z</time>
      </trkpt>
      <trkpt lat="59.8484818" lon="17.7576239">
        <ele>14.557</ele>
        <time>2013-04-20T19:06:07Z</time>
      </trkpt>
      <trkpt lat="59.8484841" lon="17.7574884">
        <ele>14.557</ele>
        <time>2013-04-20T19:06:08Z</time>
      </trkpt>
      <trkpt lat="59.8484851" lon="17.757351">
        <ele>14.557</ele>
        <time>2013-04-20T19:06:09Z</time>
      </trkpt>
      <trkpt lat="59.8484859" lon="17.7572112">
        <ele>14.557</ele>
        <time>2013-04-20T19:06:10Z</time>
      </trkpt>
      <trkpt lat="59.848486" lon="17.7570678">
        <ele>14.557</ele>
        <time>2013-04-20T19:06:11Z</time>
      </trkpt>
      <trkpt lat="59.8484852" lon="17.7569273">
        <ele>14.557</ele>
        <time>2013-04-20T19:06:12Z</time>
      </trkpt>
      <trkpt lat="59.8484844" lon="17.7567904">
        <ele>14.557</ele>
        <time>2013-04-20T19:06:13Z</time>
      </trkpt>
      <trkpt lat="59.8484826" lon="17.7566553">
        <ele>15.0377</ele>
        <time>2013-04-20T19:06:14Z</time>
      </trkpt>
      <trkpt lat="59.8484793" lon="17.7565225">
        <ele>15.5184</ele>
        <time>2013-04-20T19:06:15Z</time>
      </trkpt>
      <trkpt lat="59.8484747" lon="17.7563918">
        <ele>15.5184</ele>
        <time>2013-04-20T19:06:16Z</time>
      </trkpt>
      <trkpt lat="59.8484697" lon="17.756263">
        <ele>15.999</ele>
        <time>2013-04-20T19:06:17Z</time>
      </trkpt>
      <trkpt lat="59.8484639" lon="17.7561354">
        <ele>15.999</ele>
        <time>2013-04-20T19:06:18Z</time>
      </trkpt>
      <trkpt lat="59.8484575" lon="17.7560089">
        <ele>16.4797</ele>
        <time>2013-04-20T19:06:19Z</time>
      </trkpt>
      <trkpt lat="59.8484505" lon="17.7558824">
        <ele>16.4797</ele>
        <time>2013-04-20T19:06:20Z</time>
      </trkpt>
      <trkpt lat="59.8484426" lon="17.755756">
        <ele>16.4797</ele>
        <time>2013-04-20T19:06:21Z</time>
      </trkpt>
      <trkpt lat="59.8484333" lon="17.7556305">
        <ele>16.9604</ele>
        <time>2013-04-20T19:06:22Z</time>
      </trkpt>
      <trkpt lat="59.8484234" lon="17.7555046">
        <ele>16.9604</ele>
        <time>2013-04-20T19:06:23Z</time>
      </trkpt>
      <trkpt lat="59.8484129" lon="17.755379">
        <ele>16.9604</ele>
        <time>2013-04-20T19:06:24Z</time>
      </trkpt>
      <trkpt lat="59.8484017" lon="17.7552537">
        <ele>16.9604</ele>
        <time>2013-04-20T19:06:25Z</time>
      </trkpt>
      <trkpt lat="59.8483898" lon="17.7551296">
        <ele>17.4412</ele>
        <time>2013-04-20T19:06:26Z</time>
      </trkpt>
      <trkpt lat="59.8483778" lon="17.7550058">
        <ele>17.4412</ele>
        <time>2013-04-20T19:06:27Z</time>
      </trkpt>
      <trkpt lat="59.8483652" lon="17.7548833">
        <ele>17.4412</ele>
        <time>2013-04-20T19:06:28Z</time>
      </trkpt>
      <trkpt lat="59.8483523" lon="17.7547637">
        <ele>17.9218</ele>
        <time>2013-04-20T19:06:29Z</time>
      </trkpt>
      <trkpt lat="59.848339" lon="17.7546464">
        <ele>17.9218</ele>
        <time>2013-04-20T19:06:30Z</time>
      </trkpt>
      <trkpt lat="59.8483262" lon="17.7545321">
        <ele>17.9218</ele>
        <time>2013-04-20T19:06:31Z</time>
      </trkpt>
      <trkpt lat="59.848312" lon="17.754415">
        <ele>17.9218</ele>
        <time>2013-04-20T19:06:32Z</time>
      </trkpt>
      <trkpt lat="59.848298" lon="17.7542971">
        <ele>17.9218</ele>
        <time>2013-04-20T19:06:33Z</time>
      </trkpt>
      <trkpt lat="59.8482841" lon="17.7541775">
        <ele>17.9218</ele>
        <time>2013-04-20T19:06:34Z</time>
      </trkpt>
      <trkpt lat="59.8482701" lon="17.754058">
        <ele>17.9218</ele>
        <time>2013-04-20T19:06:35Z</time>
      </trkpt>
      <trkpt lat="59.8482554" lon="17.7539385">
        <ele>18.4023</ele>
        <time>2013-04-20T19:06:36Z</time>
      </trkpt>
      <trkpt lat="59.8482402" lon="17.7538186">
        <ele>18.4023</ele>
        <time>2013-04-20T19:06:37Z</time>
      </trkpt>
      <trkpt lat="59.848226" lon="17.753699">
        <ele>18.4023</ele>
        <time>2013-04-20T19:06:38Z</time>
      </trkpt>
      <trkpt lat="59.8482117" lon="17.7535809">
        <ele>18.4023</ele>
        <time>2013-04-20T19:06:39Z</time>
      </trkpt>
      <trkpt lat="59.8481969" lon="17.7534649">
        <ele>18.8831</ele>
        <time>2013-04-20T19:06:40Z</time>
      </trkpt>
      <trkpt lat="59.8481822" lon="17.75335">
        <ele>18.8831</ele>
        <time>2013-04-20T19:06:41Z</time>
      </trkpt>
      <trkpt lat="59.8481692" lon="17.7532384">
        <ele>18.8831</ele>
        <time>2013-04-20T19:06:42Z</time>
      </trkpt>
      <trkpt lat="59.8481561" lon="17.7531297">
        <ele>19.3638</ele>
        <time>2013-04-20T19:06:43Z</time>
      </trkpt>
      <trkpt lat="59.8481418" lon="17.7530211">
        <ele>19.3638</ele>
        <time>2013-04-20T19:06:44Z</time>
      </trkpt>
      <trkpt lat="59.8481303" lon="17.7529189">
        <ele>19.8444</ele>
        <time>2013-04-20T19:06:45Z</time>
      </trkpt>
      <trkpt lat="59.8481188" lon="17.7528183">
        <ele>19.8444</ele>
        <time>2013-04-20T19:06:46Z</time>
      </trkpt>
      <trkpt lat="59.8481047" lon="17.7527144">
        <ele>19.8444</ele>
        <time>2013-04-20T19:06:47Z</time>
      </trkpt>
      <trkpt lat="59.8480908" lon="17.7526134">
        <ele>20.325</ele>
        <time>2013-04-20T19:06:48Z</time>
      </trkpt>
      <trkpt lat="59.84808" lon="17.7525159">
        <ele>20.325</ele>
        <time>2013-04-20T19:06:49Z</time>
      </trkpt>
      <trkpt lat="59.8480716" lon="17.7524206">
        <ele>19.8444</ele>
        <time>2013-04-20T19:06:50Z</time>
      </trkpt>
      <trkpt lat="59.8480622" lon="17.7523294">
        <ele>19.8444</ele>
        <time>2013-04-20T19:06:51Z</time>
      </trkpt>
      <trkpt lat="59.848051" lon="17.7522351">
        <ele>19.8444</ele>
        <time>2013-04-20T19:06:52Z</time>
      </trkpt>
      <trkpt lat="59.8480391" lon="17.7521445">
        <ele>19.8444</ele>
        <time>2013-04-20T19:06:53Z</time>
      </trkpt>
      <trkpt lat="59.8480282" lon="17.7520508">
        <ele>20.325</ele>
        <time>2013-04-20T19:06:54Z</time>
      </trkpt>
      <trkpt lat="59.8480167" lon="17.7519532">
        <ele>20.325</ele>
        <time>2013-04-20T19:06:55Z</time>
      </trkpt>
      <trkpt lat="59.8480038" lon="17.7518554">
        <ele>20.325</ele>
        <time>2013-04-20T19:06:56Z</time>
      </trkpt>
      <trkpt lat="59.8479909" lon="17.7517591">
        <ele>19.8444</ele>
        <time>2013-04-20T19:06:57Z</time>
      </trkpt>
      <trkpt lat="59.8479789" lon="17.7516595">
        <ele>20.325</ele>
        <time>2013-04-20T19:06:58Z</time>
      </trkpt>
      <trkpt lat="59.8479666" lon="17.7515566">
        <ele>20.325</ele>
        <time>2013-04-20T19:06:59Z</time>
      </trkpt>
      <trkpt lat="59.8479557" lon="17.7514546">
        <ele>20.325</ele>
        <time>2013-04-20T19:07:00Z</time>
      </trkpt>
      <trkpt lat="59.8479448" lon="17.7513515">
        <ele>20.8057</ele>
        <time>2013-04-20T19:07:01Z</time>
      </trkpt>
      <trkpt lat="59.8479351" lon="17.7512463">
        <ele>20.8057</ele>
        <time>2013-04-20T19:07:02Z</time>
      </trkpt>
      <trkpt lat="59.8479254" lon="17.7511402">
        <ele>21.2864</ele>
        <time>2013-04-20T19:07:03Z</time>
      </trkpt>
      <trkpt lat="59.8479168" lon="17.7510354">
        <ele>21.2864</ele>
        <time>2013-04-20T19:07:04Z</time>
      </trkpt>
      <trkpt lat="59.8479052" lon="17.7509291">
        <ele>21.2864</ele>
        <time>2013-04-20T19:07:05Z</time>
      </trkpt>
      <trkpt lat="59.8478935" lon="17.750822">
        <ele>21.767</ele>
        <time>2013-04-20T19:07:06Z</time>
      </trkpt>
      <trkpt lat="59.8478845" lon="17.7507117">
        <ele>21.767</ele>
        <time>2013-04-20T19:07:07Z</time>
      </trkpt>
      <trkpt lat="59.8478748" lon="17.7505994">
        <ele>21.2864</ele>
        <time>2013-04-20T19:07:08Z</time>
      </trkpt>
      <trkpt lat="59.8478661" lon="17.7504894">
        <ele>21.767</ele>
        <time>2013-04-20T19:07:09Z</time>
      </trkpt>
      <trkpt lat="59.8478588" lon="17.7503843">
        <ele>21.767</ele>
        <time>2013-04-20T19:07:10Z</time>
      </trkpt>
      <trkpt lat="59.8478548" lon="17.7502805">
        <ele>21.767</ele>
        <time>2013-04-20T19:07:11Z</time>
      </trkpt>
      <trkpt lat="59.8478495" lon="17.750175">
        <ele>21.767</ele>
        <time>2013-04-20T19:07:12Z</time>
      </trkpt>
      <trkpt lat="59.8478444" lon="17.7500719">
        <ele>21.2864</ele>
        <time>2013-04-20T19:07:13Z</time>
      </trkpt>
      <trkpt lat="59.8478397" lon="17.7499704">
        <ele>21.767</ele>
        <time>2013-04-20T19:07:14Z</time>
      </trkpt>
      <trkpt lat="59.8478353" lon="17.7498647">
        <ele>21.767</ele>
        <time>2013-04-20T19:07:15Z</time>
      </trkpt>
      <trkpt lat="59.8478301" lon="17.749757">
        <ele>21.767</ele>
        <time>2013-04-20T19:07:16Z</time>
      </trkpt>
      <trkpt lat="59.8478244" lon="17.7496467">
        <ele>21.767</ele>
        <time>2013-04-20T19:07:17Z</time>
      </trkpt>
      <trkpt lat="59.8478169" lon="17.7495341">
        <ele>21.767</ele>
        <time>2013-04-20T19:07:18Z</time>
      </trkpt>
      <trkpt lat="59.8478106" lon="17.7494198">
        <ele>21.767</ele>
        <time>2013-04-20T19:07:19Z</time>
      </trkpt>
      <trkpt lat="59.8478043" lon="17.7493048">
        <ele>21.767</ele>
        <time>2013-04-20T19:07:20Z</time>
      </trkpt>
      <trkpt lat="59.8477982" lon="17.7491878">
        <ele>21.767</ele>
        <time>2013-04-20T19:07:21Z</time>
      </trkpt>
      <trkpt lat="59.8477936" lon="17.7490689">
        <ele>21.767</ele>
        <time>2013-04-20T19:07:22Z</time>
      </trkpt>
      <trkpt lat="59.8477897" lon="17.7489478">
        <ele>21.767</ele>
        <time>2013-04-20T19:07:23Z</time>
      </trkpt>
      <trkpt lat="59.8477867" lon="17.7488251">
        <ele>21.767</ele>
        <time>2013-04-20T19:07:24Z</time>
      </trkpt>
      <trkpt lat="59.8477848" lon="17.7487021">
        <ele>21.767</ele>
        <time>2013-04-20T19:07:25Z</time>
      </trkpt>
      <trkpt lat="59.8477818" lon="17.7485788">
        <ele>21.767</ele>
        <time>2013-04-20T19:07:26Z</time>
      </trkpt>
      <trkpt lat="59.8477785" lon="17.7484541">
        <ele>21.767</ele>
        <time>2013-04-20T19:07:27Z</time>
      </trkpt>
      <trkpt lat="59.8477745" lon="17.7483281">
        <ele>21.767</ele>
        <time>2013-04-20T19:07:28Z</time>
      </trkpt>
      <trkpt lat="59.8477733" lon="17.7482013">
        <ele>22.2476</ele>
        <time>2013-04-20T19:07:29Z</time>
      </trkpt>
      <trkpt lat="59.8477743" lon="17.7480728">
        <ele>22.2476</ele>
        <time>2013-04-20T19:07:30Z</time>
      </trkpt>
      <trkpt lat="59.847774" lon="17.7479419">
        <ele>22.2476</ele>
        <time>2013-04-20T19:07:31Z</time>
      </trkpt>
      <trkpt lat="59.8477722" lon="17.7478097">
        <ele>22.2476</ele>
        <time>2013-04-20T19:07:32Z</time>
      </trkpt>
      <trkpt lat="59.8477704" lon="17.7476751">
        <ele>22.2476</ele>
        <time>2013-04-20T19:07:33Z</time>
      </trkpt>
      <trkpt lat="59.8477697" lon="17.7475389">
        <ele>21.767</ele>
        <time>2013-04-20T19:07:34Z</time>
      </trkpt>
      <trkpt lat="59.8477726" lon="17.7474012">
        <ele>22.2476</ele>
        <time>2013-04-20T19:07:35Z</time>
      </trkpt>
      <trkpt lat="59.8477755" lon="17.7472623">
        <ele>22.2476</ele>
        <time>2013-04-20T19:07:36Z</time>
      </trkpt>
      <trkpt lat="59.8477786" lon="17.7471239">
        <ele>22.2476</ele>
        <time>2013-04-20T19:07:37Z</time>
      </trkpt>
      <trkpt lat="59.8477794" lon="17.7469828">
        <ele>21.767</ele>
        <time>2013-04-20T19:07:38Z</time>
      </trkpt>
      <trkpt lat="59.8477797" lon="17.746838">
        <ele>21.767</ele>
        <time>2013-04-20T19:07:39Z</time>
      </trkpt>
      <trkpt lat="59.8477816" lon="17.7466904">
        <ele>21.2864</ele>
        <time>2013-04-20T19:07:40Z</time>
      </trkpt>
      <trkpt lat="59.8477842" lon="17.74654">
        <ele>21.2864</ele>
        <time>2013-04-20T19:07:41Z</time>
      </trkpt>
      <trkpt lat="59.8477867" lon="17.7463876">
        <ele>20.8057</ele>
        <time>2013-04-20T19:07:42Z</time>
      </trkpt>
      <trkpt lat="59.8477885" lon="17.746233">
        <ele>20.8057</ele>
        <time>2013-04-20T19:07:43Z</time>
      </trkpt>
      <trkpt lat="59.8477899" lon="17.7460765">
        <ele>20.325</ele>
        <time>2013-04-20T19:07:44Z</time>
      </trkpt>
      <trkpt lat="59.8477905" lon="17.7459189">
        <ele>20.325</ele>
        <time>2013-04-20T19:07:45Z</time>
      </trkpt>
      <trkpt lat="59.847792" lon="17.7457601">
        <ele>19.8444</ele>
        <time>2013-04-20T19:07:46Z</time>
      </trkpt>
      <trkpt lat="59.847793" lon="17.7455999">
        <ele>19.8444</ele>
        <time>2013-04-20T19:07:47Z</time>
      </trkpt>
      <trkpt lat="59.8477944" lon="17.7454382">
        <ele>19.3638</ele>
        <time>2013-04-20T19:07:48Z</time>
      </trkpt>
      <trkpt lat="59.8477971" lon="17.7452757">
        <ele>19.3638</ele>
        <time>2013-04-20T19:07:49Z</time>
      </trkpt>
      <trkpt lat="59.8478003" lon="17.7451125">
        <ele>18.8831</ele>
        <time>2013-04-20T19:07:50Z</time>
      </trkpt>
      <trkpt lat="59.8478035" lon="17.7449493">
        <ele>18.8831</ele>
        <time>2013-04-20T19:07:51Z</time>
      </trkpt>
      <trkpt lat="59.8478051" lon="17.7447865">
        <ele>18.4023</ele>
        <time>2013-04-20T19:07:52Z</time>
      </trkpt>
      <trkpt lat="59.8478066" lon="17.744623">
        <ele>18.4023</ele>
        <time>2013-04-20T19:07:53Z</time>
      </trkpt>
      <trkpt lat="59.8478076" lon="17.7444598">
        <ele>18.4023</ele>
        <time>2013-04-20T19:07:54Z</time>
      </trkpt>
      <trkpt lat="59.8478097" lon="17.7442982">
        <ele>17.9218</ele>
        <time>2013-04-20T19:07:55Z</time>
      </trkpt>
      <trkpt lat="59.8478116" lon="17.744138">
        <ele>17.9218</ele>
        <time>2013-04-20T19:07:56Z</time>
      </trkpt>
      <trkpt lat="59.8478138" lon="17.7439781">
        <ele>17.9218</ele>
        <time>2013-04-20T19:07:57Z</time>
      </trkpt>
      <trkpt lat="59.8478173" lon="17.7438192">
        <ele>17.9218</ele>
        <time>2013-04-20T19:07:58Z</time>
      </trkpt>
      <trkpt lat="59.8478198" lon="17.7436612">
        <ele>17.9218</ele>
        <time>2013-04-20T19:07:59Z</time>
      </trkpt>
      <trkpt lat="59.847822" lon="17.7435037">
        <ele>17.9218</ele>
        <time>2013-04-20T19:08:00Z</time>
      </trkpt>
      <trkpt lat="59.8478245" lon="17.7433477">
        <ele>17.9218</ele>
        <time>2013-04-20T19:08:01Z</time>
      </trkpt>
      <trkpt lat="59.8478278" lon="17.7431931">
        <ele>17.4412</ele>
        <time>2013-04-20T19:08:02Z</time>
      </trkpt>
      <trkpt lat="59.847832" lon="17.7430409">
        <ele>17.4412</ele>
        <time>2013-04-20T19:08:03Z</time>
      </trkpt>
      <trkpt lat="59.8478356" lon="17.7428913">
        <ele>17.9218</ele>
        <time>2013-04-20T19:08:04Z</time>
      </trkpt>
      <trkpt lat="59.8478372" lon="17.7427419">
        <ele>17.9218</ele>
        <time>2013-04-20T19:08:05Z</time>
      </trkpt>
      <trkpt lat="59.8478385" lon="17.7425919">
        <ele>17.9218</ele>
        <time>2013-04-20T19:08:06Z</time>
      </trkpt>
      <trkpt lat="59.847841" lon="17.7424437">
        <ele>17.9218</ele>
        <time>2013-04-20T19:08:07Z</time>
      </trkpt>
      <trkpt lat="59.8478439" lon="17.7422961">
        <ele>17.9218</ele>
        <time>2013-04-20T19:08:08Z</time>
      </trkpt>
      <trkpt lat="59.8478462" lon="17.7421483">
        <ele>17.9218</ele>
        <time>2013-04-20T19:08:09Z</time>
      </trkpt>
      <trkpt lat="59.8478477" lon="17.7420003">
        <ele>17.9218</ele>
        <time>2013-04-20T19:08:10Z</time>
      </trkpt>
      <trkpt lat="59.8478489" lon="17.7418523">
        <ele>17.9218</ele>
        <time>2013-04-20T19:08:11Z</time>
      </trkpt>
      <trkpt lat="59.8478503" lon="17.7417056">
        <ele>17.9218</ele>
        <time>2013-04-20T19:08:12Z</time>
      </trkpt>
      <trkpt lat="59.847853" lon="17.7415595">
        <ele>18.4023</ele>
        <time>2013-04-20T19:08:13Z</time>
      </trkpt>
      <trkpt lat="59.8478557" lon="17.7414154">
        <ele>18.4023</ele>
        <time>2013-04-20T19:08:14Z</time>
      </trkpt>
      <trkpt lat="59.8478578" lon="17.7412721">
        <ele>18.4023</ele>
        <time>2013-04-20T19:08:15Z</time>
      </trkpt>
      <trkpt lat="59.8478593" lon="17.7411296">
        <ele>18.4023</ele>
        <time>2013-04-20T19:08:16Z</time>
      </trkpt>
      <trkpt lat="59.8478609" lon="17.7409881">
        <ele>18.4023</ele>
        <time>2013-04-20T19:08:17Z</time>
      </trkpt>
      <trkpt lat="59.8478623" lon="17.7408472">
        <ele>18.4023</ele>
        <time>2013-04-20T19:08:18Z</time>
      </trkpt>
      <trkpt lat="59.847864" lon="17.7407074">
        <ele>18.4023</ele>
        <time>2013-04-20T19:08:19Z</time>
      </trkpt>
      <trkpt lat="59.8478651" lon="17.7405675">
        <ele>18.4023</ele>
        <time>2013-04-20T19:08:20Z</time>
      </trkpt>
      <trkpt lat="59.8478665" lon="17.740428">
        <ele>18.4023</ele>
        <time>2013-04-20T19:08:21Z</time>
      </trkpt>
      <trkpt lat="59.8478685" lon="17.7402891">
        <ele>18.4023</ele>
        <time>2013-04-20T19:08:22Z</time>
      </trkpt>
      <trkpt lat="59.8478712" lon="17.7401495">
        <ele>18.4023</ele>
        <time>2013-04-20T19:08:23Z</time>
      </trkpt>
      <trkpt lat="59.8478743" lon="17.7400094">
        <ele>18.4023</ele>
        <time>2013-04-20T19:08:24Z</time>
      </trkpt>
      <trkpt lat="59.8478767" lon="17.7398703">
        <ele>18.4023</ele>
        <time>2013-04-20T19:08:25Z</time>
      </trkpt>
      <trkpt lat="59.8478779" lon="17.7397326">
        <ele>18.4023</ele>
        <time>2013-04-20T19:08:26Z</time>
      </trkpt>
      <trkpt lat="59.8478784" lon="17.7395958">
        <ele>18.4023</ele>
        <time>2013-04-20T19:08:27Z</time>
      </trkpt>
      <trkpt lat="59.8478773" lon="17.7394599">
        <ele>18.8831</ele>
        <time>2013-04-20T19:08:28Z</time>
      </trkpt>
      <trkpt lat="59.8478754" lon="17.7393253">
        <ele>18.8831</ele>
        <time>2013-04-20T19:08:29Z</time>
      </trkpt>
      <trkpt lat="59.847875" lon="17.7391922">
        <ele>18.4023</ele>
        <time>2013-04-20T19:08:30Z</time>
      </trkpt>
      <trkpt lat="59.8478828" lon="17.7390617">
        <ele>18.4023</ele>
        <time>2013-04-20T19:08:31Z</time>
      </trkpt>
      <trkpt lat="59.8479097" lon="17.7389461">
        <ele>18.4023</ele>
        <time>2013-04-20T19:08:32Z</time>
      </trkpt>
      <trkpt lat="59.847955" lon="17.7388561">
        <ele>17.9218</ele>
        <time>2013-04-20T19:08:33Z</time>
      </trkpt>
      <trkpt lat="59.8480158" lon="17.7388017">
        <ele>17.9218</ele>
        <time>2013-04-20T19:08:34Z</time>
      </trkpt>
      <trkpt lat="59.8480805" lon="17.7387743">
        <ele>17.4412</ele>
        <time>2013-04-20T19:08:35Z</time>
      </trkpt>
      <trkpt lat="59.8481475" lon="17.7387572">
        <ele>16.9604</ele>
        <time>2013-04-20T19:08:36Z</time>
      </trkpt>
      <trkpt lat="59.8482148" lon="17.7387379">
        <ele>16.9604</ele>
        <time>2013-04-20T19:08:37Z</time>
      </trkpt>
      <trkpt lat="59.848281" lon="17.7387119">
        <ele>16.4797</ele>
        <time>2013-04-20T19:08:38Z</time>
      </trkpt>
      <trkpt lat="59.8483463" lon="17.7386844">
        <ele>16.4797</ele>
        <time>2013-04-20T19:08:39Z</time>
      </trkpt>
      <trkpt lat="59.8484109" lon="17.7386572">
        <ele>15.999</ele>
        <time>2013-04-20T19:08:40Z</time>
      </trkpt>
      <trkpt lat="59.8484743" lon="17.7386291">
        <ele>15.999</ele>
        <time>2013-04-20T19:08:41Z</time>
      </trkpt>
      <trkpt lat="59.8485369" lon="17.7385992">
        <ele>15.5184</ele>
        <time>2013-04-20T19:08:42Z</time>
      </trkpt>
      <trkpt lat="59.8486001" lon="17.7385706">
        <ele>15.5184</ele>
        <time>2013-04-20T19:08:43Z</time>
      </trkpt>
      <trkpt lat="59.8486641" lon="17.7385426">
        <ele>15.0377</ele>
        <time>2013-04-20T19:08:44Z</time>
      </trkpt>
      <trkpt lat="59.8487281" lon="17.7385114">
        <ele>15.0377</ele>
        <time>2013-04-20T19:08:45Z</time>
      </trkpt>
      <trkpt lat="59.8487923" lon="17.7384794">
        <ele>15.0377</ele>
        <time>2013-04-20T19:08:46Z</time>
      </trkpt>
      <trkpt lat="59.8488569" lon="17.7384499">
        <ele>14.557</ele>
        <time>2013-04-20T19:08:47Z</time>
      </trkpt>
      <trkpt lat="59.8489223" lon="17.7384198">
        <ele>14.557</ele>
        <time>2013-04-20T19:08:48Z</time>
      </trkpt>
      <trkpt lat="59.8489871" lon="17.7383881">
        <ele>14.557</ele>
        <time>2013-04-20T19:08:49Z</time>
      </trkpt>
      <trkpt lat="59.8490528" lon="17.7383573">
        <ele>14.557</ele>
        <time>2013-04-20T19:08:50Z</time>
      </trkpt>
      <trkpt lat="59.8491185" lon="17.7383264">
        <ele>14.557</ele>
        <time>2013-04-20T19:08:51Z</time>
      </trkpt>
      <trkpt lat="59.849184" lon="17.7382944">
        <ele>14.557</ele>
        <time>2013-04-20T19:08:52Z</time>
      </trkpt>
      <trkpt lat="59.8492493" lon="17.7382644">
        <ele>14.0764</ele>
        <time>2013-04-20T19:08:53Z</time>
      </trkpt>
      <trkpt lat="59.849316" lon="17.738235">
        <ele>14.0764</ele>
        <time>2013-04-20T19:08:54Z</time>
      </trkpt>
      <trkpt lat="59.8493829" lon="17.7382044">
        <ele>14.0764</ele>
        <time>2013-04-20T19:08:55Z</time>
      </trkpt>
      <trkpt lat="59.8494502" lon="17.7381761">
        <ele>14.0764</ele>
        <time>2013-04-20T19:08:56Z</time>
      </trkpt>
      <trkpt lat="59.8495183" lon="17.7381494">
        <ele>14.0764</ele>
        <time>2013-04-20T19:08:57Z</time>
      </trkpt>
      <trkpt lat="59.8495859" lon="17.7381243">
        <ele>13.5958</ele>
        <time>2013-04-20T19:08:58Z</time>
      </trkpt>
      <trkpt lat="59.8496542" lon="17.738101">
        <ele>13.5958</ele>
        <time>2013-04-20T19:08:59Z</time>
      </trkpt>
      <trkpt lat="59.8497217" lon="17.7380786">
        <ele>13.5958</ele>
        <time>2013-04-20T19:09:00Z</time>
      </trkpt>
      <trkpt lat="59.8497894" lon="17.7380546">
        <ele>13.5958</ele>
        <time>2013-04-20T19:09:01Z</time>
      </trkpt>
      <trkpt lat="59.8498569" lon="17.7380287">
        <ele>13.1151</ele>
        <time>2013-04-20T19:09:02Z</time>
      </trkpt>
      <trkpt lat="59.8499253" lon="17.7380035">
        <ele>13.1151</ele>
        <time>2013-04-20T19:09:03Z</time>
      </trkpt>
      <trkpt lat="59.8499941" lon="17.7379768">
        <ele>13.1151</ele>
        <time>2013-04-20T19:09:04Z</time>
      </trkpt>
      <trkpt lat="59.8500614" lon="17.7379452">
        <ele>12.6344</ele>
        <time>2013-04-20T19:09:05Z</time>
      </trkpt>
      <trkpt lat="59.8501288" lon="17.7379111">
        <ele>12.6344</ele>
        <time>2013-04-20T19:09:06Z</time>
      </trkpt>
      <trkpt lat="59.8501959" lon="17.7378723">
        <ele>12.1538</ele>
        <time>2013-04-20T19:09:07Z</time>
      </trkpt>
      <trkpt lat="59.8502644" lon="17.7378319">
        <ele>12.1538</ele>
        <time>2013-04-20T19:09:08Z</time>
      </trkpt>
      <trkpt lat="59.8503323" lon="17.7377914">
        <ele>12.1538</ele>
        <time>2013-04-20T19:09:09Z</time>
      </trkpt>
      <trkpt lat="59.8503995" lon="17.7377483">
        <ele>12.1538</ele>
        <time>2013-04-20T19:09:10Z</time>
      </trkpt>
      <trkpt lat="59.8504654" lon="17.7377027">
        <ele>11.6732</ele>
        <time>2013-04-20T19:09:11Z</time>
      </trkpt>
      <trkpt lat="59.8505313" lon="17.7376568">
        <ele>11.6732</ele>
        <time>2013-04-20T19:09:12Z</time>
      </trkpt>
      <trkpt lat="59.8505976" lon="17.7376097">
        <ele>11.6732</ele>
        <time>2013-04-20T19:09:13Z</time>
      </trkpt>
      <trkpt lat="59.8506632" lon="17.7375619">
        <ele>11.1925</ele>
        <time>2013-04-20T19:09:14Z</time>
      </trkpt>
      <trkpt lat="59.8507302" lon="17.7375148">
        <ele>11.1925</ele>
        <time>2013-04-20T19:09:15Z</time>
      </trkpt>
      <trkpt lat="59.8507959" lon="17.7374647">
        <ele>11.1925</ele>
        <time>2013-04-20T19:09:16Z</time>
      </trkpt>
      <trkpt lat="59.8508611" lon="17.7374131">
        <ele>11.1925</ele>
        <time>2013-04-20T19:09:17Z</time>
      </trkpt>
      <trkpt lat="59.8509265" lon="17.7373605">
        <ele>11.1925</ele>
        <time>2013-04-20T19:09:18Z</time>
      </trkpt>
      <trkpt lat="59.8509922" lon="17.7373082">
        <ele>11.1925</ele>
        <time>2013-04-20T19:09:19Z</time>
      </trkpt>
      <trkpt lat="59.8510568" lon="17.7372552">
        <ele>11.1925</ele>
        <time>2013-04-20T19:09:20Z</time>
      </trkpt>
      <trkpt lat="59.8511193" lon="17.7371998">
        <ele>11.1925</ele>
        <time>2013-04-20T19:09:21Z</time>
      </trkpt>
      <trkpt lat="59.8511813" lon="17.7371451">
        <ele>11.1925</ele>
        <time>2013-04-20T19:09:22Z</time>
      </trkpt>
      <trkpt lat="59.8512445" lon="17.7370923">
        <ele>11.1925</ele>
        <time>2013-04-20T19:09:23Z</time>
      </trkpt>
      <trkpt lat="59.851308" lon="17.7370379">
        <ele>11.1925</ele>
        <time>2013-04-20T19:09:24Z</time>
      </trkpt>
      <trkpt lat="59.8513689" lon="17.7369785">
        <ele>11.1925</ele>
        <time>2013-04-20T19:09:25Z</time>
      </trkpt>
      <trkpt lat="59.8514269" lon="17.7369119">
        <ele>11.1925</ele>
        <time>2013-04-20T19:09:26Z</time>
      </trkpt>
      <trkpt lat="59.8514835" lon="17.7368418">
        <ele>10.7118</ele>
        <time>2013-04-20T19:09:27Z</time>
      </trkpt>
      <trkpt lat="59.8515404" lon="17.736768">
        <ele>10.7118</ele>
        <time>2013-04-20T19:09:28Z</time>
      </trkpt>
      <trkpt lat="59.8515972" lon="17.7366892">
        <ele>10.7118</ele>
        <time>2013-04-20T19:09:29Z</time>
      </trkpt>
      <trkpt lat="59.8516532" lon="17.7366071">
        <ele>10.7118</ele>
        <time>2013-04-20T19:09:30Z</time>
      </trkpt>
      <trkpt lat="59.8517079" lon="17.7365222">
        <ele>10.7118</ele>
        <time>2013-04-20T19:09:31Z</time>
      </trkpt>
      <trkpt lat="59.8517615" lon="17.736433">
        <ele>10.2312</ele>
        <time>2013-04-20T19:09:32Z</time>
      </trkpt>
      <trkpt lat="59.8518145" lon="17.7363414">
        <ele>10.2312</ele>
        <time>2013-04-20T19:09:33Z</time>
      </trkpt>
      <trkpt lat="59.8518678" lon="17.7362498">
        <ele>10.2312</ele>
        <time>2013-04-20T19:09:34Z</time>
      </trkpt>
      <trkpt lat="59.851923" lon="17.7361595">
        <ele>10.7118</ele>
        <time>2013-04-20T19:09:35Z</time>
      </trkpt>
      <trkpt lat="59.8519794" lon="17.7360701">
        <ele>10.7118</ele>
        <time>2013-04-20T19:09:36Z</time>
      </trkpt>
      <trkpt lat="59.8520375" lon="17.7359847">
        <ele>10.7118</ele>
        <time>2013-04-20T19:09:37Z</time>
      </trkpt>
      <trkpt lat="59.852097" lon="17.7359036">
        <ele>10.7118</ele>
        <time>2013-04-20T19:09:38Z</time>
      </trkpt>
      <trkpt lat="59.8521577" lon="17.7358257">
        <ele>11.1925</ele>
        <time>2013-04-20T19:09:39Z</time>
      </trkpt>
      <trkpt lat="59.8522187" lon="17.7357506">
        <ele>11.1925</ele>
        <time>2013-04-20T19:09:40Z</time>
      </trkpt>
      <trkpt lat="59.85228" lon="17.7356762">
        <ele>11.1925</ele>
        <time>2013-04-20T19:09:41Z</time>
      </trkpt>
      <trkpt lat="59.8523411" lon="17.7356008">
        <ele>11.1925</ele>
        <time>2013-04-20T19:09:42Z</time>
      </trkpt>
      <trkpt lat="59.8524024" lon="17.7355267">
        <ele>11.1925</ele>
        <time>2013-04-20T19:09:43Z</time>
      </trkpt>
      <trkpt lat="59.8524645" lon="17.7354551">
        <ele>11.6732</ele>
        <time>2013-04-20T19:09:44Z</time>
      </trkpt>
      <trkpt lat="59.8525256" lon="17.7353827">
        <ele>11.6732</ele>
        <time>2013-04-20T19:09:45Z</time>
      </trkpt>
      <trkpt lat="59.8525857" lon="17.7353107">
        <ele>11.6732</ele>
        <time>2013-04-20T19:09:46Z</time>
      </trkpt>
      <trkpt lat="59.8526447" lon="17.7352398">
        <ele>11.6732</ele>
        <time>2013-04-20T19:09:47Z</time>
      </trkpt>
      <trkpt lat="59.8527034" lon="17.7351719">
        <ele>11.6732</ele>
        <time>2013-04-20T19:09:48Z</time>
      </trkpt>
      <trkpt lat="59.8527624" lon="17.7351042">
        <ele>11.6732</ele>
        <time>2013-04-20T19:09:49Z</time>
      </trkpt>
      <trkpt lat="59.8528208" lon="17.7350341">
        <ele>11.6732</ele>
        <time>2013-04-20T19:09:50Z</time>
      </trkpt>
      <trkpt lat="59.8528793" lon="17.7349642">
        <ele>11.6732</ele>
        <time>2013-04-20T19:09:51Z</time>
      </trkpt>
      <trkpt lat="59.8529379" lon="17.7348954">
        <ele>11.6732</ele>
        <time>2013-04-20T19:09:52Z</time>
      </trkpt>
      <trkpt lat="59.8529966" lon="17.7348265">
        <ele>11.6732</ele>
        <time>2013-04-20T19:09:53Z</time>
      </trkpt>
      <trkpt lat="59.8530561" lon="17.7347574">
        <ele>11.6732</ele>
        <time>2013-04-20T19:09:54Z</time>
      </trkpt>
      <trkpt lat="59.8531156" lon="17.7346868">
        <ele>11.1925</ele>
        <time>2013-04-20T19:09:55Z</time>
      </trkpt>
      <trkpt lat="59.853175" lon="17.7346145">
        <ele>11.1925</ele>
        <time>2013-04-20T19:09:56Z</time>
      </trkpt>
      <trkpt lat="59.8532327" lon="17.7345387">
        <ele>10.7118</ele>
        <time>2013-04-20T19:09:57Z</time>
      </trkpt>
      <trkpt lat="59.8532906" lon="17.7344586">
        <ele>10.2312</ele>
        <time>2013-04-20T19:09:58Z</time>
      </trkpt>
      <trkpt lat="59.8533487" lon="17.7343711">
        <ele>9.75061</ele>
        <time>2013-04-20T19:09:59Z</time>
      </trkpt>
      <trkpt lat="59.8534068" lon="17.7342768">
        <ele>9.2699</ele>
        <time>2013-04-20T19:10:00Z</time>
      </trkpt>
      <trkpt lat="59.8534635" lon="17.7341747">
        <ele>8.78918</ele>
        <time>2013-04-20T19:10:01Z</time>
      </trkpt>
      <trkpt lat="59.8535194" lon="17.7340623">
        <ele>8.30859</ele>
        <time>2013-04-20T19:10:02Z</time>
      </trkpt>
      <trkpt lat="59.8535745" lon="17.7339411">
        <ele>8.30859</ele>
        <time>2013-04-20T19:10:03Z</time>
      </trkpt>
      <trkpt lat="59.8536282" lon="17.7338104">
        <ele>8.30859</ele>
        <time>2013-04-20T19:10:04Z</time>
      </trkpt>
      <trkpt lat="59.853677" lon="17.7336676">
        <ele>7.82788</ele>
        <time>2013-04-20T19:10:05Z</time>
      </trkpt>
      <trkpt lat="59.8537206" lon="17.7335149">
        <ele>7.34717</ele>
        <time>2013-04-20T19:10:06Z</time>
      </trkpt>
      <trkpt lat="59.8537586" lon="17.733355">
        <ele>7.34717</ele>
        <time>2013-04-20T19:10:07Z</time>
      </trkpt>
      <trkpt lat="59.8537916" lon="17.7331889">
        <ele>7.34717</ele>
        <time>2013-04-20T19:10:08Z</time>
      </trkpt>
      <trkpt lat="59.8538201" lon="17.733018">
        <ele>7.34717</ele>
        <time>2013-04-20T19:10:09Z</time>
      </trkpt>
      <trkpt lat="59.8538463" lon="17.7328459">
        <ele>7.34717</ele>
        <time>2013-04-20T19:10:10Z</time>
      </trkpt>
      <trkpt lat="59.8538672" lon="17.7326793">
        <ele>7.34717</ele>
        <time>2013-04-20T19:10:11Z</time>
      </trkpt>
      <trkpt lat="59.8538853" lon="17.7325176">
        <ele>6.86646</ele>
        <time>2013-04-20T19:10:12Z</time>
      </trkpt>
      <trkpt lat="59.8539062" lon="17.7323485">
        <ele>6.38586</ele>
        <time>2013-04-20T19:10:13Z</time>
      </trkpt>
      <trkpt lat="59.8539202" lon="17.732182">
        <ele>6.38586</ele>
        <time>2013-04-20T19:10:14Z</time>
      </trkpt>
      <trkpt lat="59.8539362" lon="17.7320103">
        <ele>5.90527</ele>
        <time>2013-04-20T19:10:15Z</time>
      </trkpt>
      <trkpt lat="59.8539548" lon="17.7318461">
        <ele>5.90527</ele>
        <time>2013-04-20T19:10:16Z</time>
      </trkpt>
      <trkpt lat="59.8539709" lon="17.7316868">
        <ele>6.38586</ele>
        <time>2013-04-20T19:10:17Z</time>
      </trkpt>
      <trkpt lat="59.853989" lon="17.7315318">
        <ele>6.86646</ele>
        <time>2013-04-20T19:10:18Z</time>
      </trkpt>
      <trkpt lat="59.8540098" lon="17.7313783">
        <ele>7.34717</ele>
        <time>2013-04-20T19:10:19Z</time>
      </trkpt>
      <trkpt lat="59.8540341" lon="17.731227">
        <ele>8.30859</ele>
        <time>2013-04-20T19:10:20Z</time>
      </trkpt>
      <trkpt lat="59.8540547" lon="17.7310831">
        <ele>8.30859</ele>
        <time>2013-04-20T19:10:21Z</time>
      </trkpt>
      <trkpt lat="59.854076" lon="17.7309469">
        <ele>8.78918</ele>
        <time>2013-04-20T19:10:22Z</time>
      </trkpt>
      <trkpt lat="59.8541029" lon="17.7308161">
        <ele>9.2699</ele>
        <time>2013-04-20T19:10:23Z</time>
      </trkpt>
      <trkpt lat="59.8541273" lon="17.7306942">
        <ele>9.75061</ele>
        <time>2013-04-20T19:10:24Z</time>
      </trkpt>
      <trkpt lat="59.8541522" lon="17.7305772">
        <ele>10.2312</ele>
        <time>2013-04-20T19:10:25Z</time>
      </trkpt>
      <trkpt lat="59.8541795" lon="17.7304635">
        <ele>10.7118</ele>
        <time>2013-04-20T19:10:26Z</time>
      </trkpt>
      <trkpt lat="59.8542061" lon="17.7303575">
        <ele>11.1925</ele>
        <time>2013-04-20T19:10:27Z</time>
      </trkpt>
      <trkpt lat="59.854236" lon="17.7302575">
        <ele>11.1925</ele>
        <time>2013-04-20T19:10:28Z</time>
      </trkpt>
      <trkpt lat="59.8542666" lon="17.7301606">
        <ele>12.1538</ele>
        <time>2013-04-20T19:10:29Z</time>
      </trkpt>
      <trkpt lat="59.8542962" lon="17.7300659">
        <ele>12.1538</ele>
        <time>2013-04-20T19:10:30Z</time>
      </trkpt>
      <trkpt lat="59.8543267" lon="17.7299752">
        <ele>12.6344</ele>
        <time>2013-04-20T19:10:31Z</time>
      </trkpt>
      <trkpt lat="59.8543591" lon="17.7298877">
        <ele>12.6344</ele>
        <time>2013-04-20T19:10:32Z</time>
      </trkpt>
      <trkpt lat="59.8543912" lon="17.7297991">
        <ele>13.1151</ele>
        <time>2013-04-20T19:10:33Z</time>
      </trkpt>
      <trkpt lat="59.8544229" lon="17.729709">
        <ele>13.1151</ele>
        <time>2013-04-20T19:10:34Z</time>
      </trkpt>
      <trkpt lat="59.8544561" lon="17.7296198">
        <ele>13.1151</ele>
        <time>2013-04-20T19:10:35Z</time>
      </trkpt>
      <trkpt lat="59.8544898" lon="17.7295292">
        <ele>13.1151</ele>
        <time>2013-04-20T19:10:36Z</time>
      </trkpt>
      <trkpt lat="59.8545228" lon="17.729435">
        <ele>13.1151</ele>
        <time>2013-04-20T19:10:37Z</time>
      </trkpt>
      <trkpt lat="59.8545568" lon="17.729339">
        <ele>13.1151</ele>
        <time>2013-04-20T19:10:38Z</time>
      </trkpt>
      <trkpt lat="59.8545924" lon="17.7292407">
        <ele>13.1151</ele>
        <time>2013-04-20T19:10:39Z</time>
      </trkpt>
      <trkpt lat="59.8546303" lon="17.7291408">
        <ele>13.1151</ele>
        <time>2013-04-20T19:10:40Z</time>
      </trkpt>
      <trkpt lat="59.8546681" lon="17.7290386">
        <ele>12.6344</ele>
        <time>2013-04-20T19:10:41Z</time>
      </trkpt>
      <trkpt lat="59.8547054" lon="17.7289326">
        <ele>12.6344</ele>
        <time>2013-04-20T19:10:42Z</time>
      </trkpt>
      <trkpt lat="59.8547446" lon="17.7288241">
        <ele>12.1538</ele>
        <time>2013-04-20T19:10:43Z</time>
      </trkpt>
      <trkpt lat="59.854784" lon="17.7287166">
        <ele>12.1538</ele>
        <time>2013-04-20T19:10:44Z</time>
      </trkpt>
      <trkpt lat="59.8548217" lon="17.7286104">
        <ele>12.1538</ele>
        <time>2013-04-20T19:10:45Z</time>
      </trkpt>
      <trkpt lat="59.8548597" lon="17.7285073">
        <ele>11.6732</ele>
        <time>2013-04-20T19:10:46Z</time>
      </trkpt>
      <trkpt lat="59.8548982" lon="17.7284068">
        <ele>11.1925</ele>
        <time>2013-04-20T19:10:47Z</time>
      </trkpt>
      <trkpt lat="59.854937" lon="17.7283061">
        <ele>11.1925</ele>
        <time>2013-04-20T19:10:48Z</time>
      </trkpt>
      <trkpt lat="59.8549747" lon="17.7282036">
        <ele>11.1925</ele>
        <time>2013-04-20T19:10:49Z</time>
      </trkpt>
      <trkpt lat="59.8550125" lon="17.7281016">
        <ele>10.7118</ele>
        <time>2013-04-20T19:10:50Z</time>
      </trkpt>
      <trkpt lat="59.8550497" lon="17.7279983">
        <ele>10.7118</ele>
        <time>2013-04-20T19:10:51Z</time>
      </trkpt>
      <trkpt lat="59.8550872" lon="17.7278948">
        <ele>10.2312</ele>
        <time>2013-04-20T19:10:52Z</time>
      </trkpt>
      <trkpt lat="59.8551253" lon="17.7277922">
        <ele>10.2312</ele>
        <time>2013-04-20T19:10:53Z</time>
      </trkpt>
      <trkpt lat="59.8551624" lon="17.7276882">
        <ele>9.75061</ele>
        <time>2013-04-20T19:10:54Z</time>
      </trkpt>
      <trkpt lat="59.8551995" lon="17.7275831">
        <ele>9.75061</ele>
        <time>2013-04-20T19:10:55Z</time>
      </trkpt>
      <trkpt lat="59.8552379" lon="17.7274779">
        <ele>9.75061</ele>
        <time>2013-04-20T19:10:56Z</time>
      </trkpt>
      <trkpt lat="59.8552766" lon="17.7273731">
        <ele>9.75061</ele>
        <time>2013-04-20T19:10:57Z</time>
      </trkpt>
      <trkpt lat="59.8553135" lon="17.7272671">
        <ele>9.2699</ele>
        <time>2013-04-20T19:10:58Z</time>
      </trkpt>
      <trkpt lat="59.8553498" lon="17.7271593">
        <ele>9.2699</ele>
        <time>2013-04-20T19:10:59Z</time>
      </trkpt>
      <trkpt lat="59.8553866" lon="17.7270511">
        <ele>9.2699</ele>
        <time>2013-04-20T19:11:00Z</time>
      </trkpt>
      <trkpt lat="59.8554243" lon="17.7269413">
        <ele>9.2699</ele>
        <time>2013-04-20T19:11:01Z</time>
      </trkpt>
      <trkpt lat="59.8554623" lon="17.7268305">
        <ele>9.2699</ele>
        <time>2013-04-20T19:11:02Z</time>
      </trkpt>
      <trkpt lat="59.8555015" lon="17.7267188">
        <ele>9.2699</ele>
        <time>2013-04-20T19:11:03Z</time>
      </trkpt>
      <trkpt lat="59.8555409" lon="17.7266056">
        <ele>8.78918</ele>
        <time>2013-04-20T19:11:04Z</time>
      </trkpt>
      <trkpt lat="59.8555794" lon="17.7264912">
        <ele>8.78918</ele>
        <time>2013-04-20T19:11:05Z</time>
      </trkpt>
      <trkpt lat="59.8556171" lon="17.7263751">
        <ele>8.78918</ele>
        <time>2013-04-20T19:11:06Z</time>
      </trkpt>
      <trkpt lat="59.8556554" lon="17.7262591">
        <ele>8.78918</ele>
        <time>2013-04-20T19:11:07Z</time>
      </trkpt>
      <trkpt lat="59.8556942" lon="17.7261444">
        <ele>8.78918</ele>
        <time>2013-04-20T19:11:08Z</time>
      </trkpt>
      <trkpt lat="59.8557331" lon="17.72603">
        <ele>8.78918</ele>
        <time>2013-04-20T19:11:09Z</time>
      </trkpt>
      <trkpt lat="59.855772" lon="17.725916">
        <ele>8.78918</ele>
        <time>2013-04-20T19:11:10Z</time>
      </trkpt>
      <trkpt lat="59.8558106" lon="17.7258031">
        <ele>8.78918</ele>
        <time>2013-04-20T19:11:11Z</time>
      </trkpt>
      <trkpt lat="59.8558496" lon="17.7256914">
        <ele>8.78918</ele>
        <time>2013-04-20T19:11:12Z</time>
      </trkpt>
      <trkpt lat="59.8558888" lon="17.7255824">
        <ele>8.78918</ele>
        <time>2013-04-20T19:11:13Z</time>
      </trkpt>
      <trkpt lat="59.8559289" lon="17.7254772">
        <ele>8.78918</ele>
        <time>2013-04-20T19:11:14Z</time>
      </trkpt>
      <trkpt lat="59.8559702" lon="17.7253747">
        <ele>8.78918</ele>
        <time>2013-04-20T19:11:15Z</time>
      </trkpt>
      <trkpt lat="59.8560128" lon="17.7252782">
        <ele>8.78918</ele>
        <time>2013-04-20T19:11:16Z</time>
      </trkpt>
      <trkpt lat="59.8560567" lon="17.7251846">
        <ele>9.2699</ele>
        <time>2013-04-20T19:11:17Z</time>
      </trkpt>
      <trkpt lat="59.8560979" lon="17.7250874">
        <ele>9.2699</ele>
        <time>2013-04-20T19:11:18Z</time>
      </trkpt>
      <trkpt lat="59.8561375" lon="17.7249904">
        <ele>8.78918</ele>
        <time>2013-04-20T19:11:19Z</time>
      </trkpt>
      <trkpt lat="59.856177" lon="17.7248929">
        <ele>8.78918</ele>
        <time>2013-04-20T19:11:20Z</time>
      </trkpt>
      <trkpt lat="59.8562174" lon="17.7247956">
        <ele>9.2699</ele>
        <time>2013-04-20T19:11:21Z</time>
      </trkpt>
      <trkpt lat="59.8562566" lon="17.7246978">
        <ele>8.78918</ele>
        <time>2013-04-20T19:11:22Z</time>
      </trkpt>
      <trkpt lat="59.8562942" lon="17.7245988">
        <ele>8.78918</ele>
        <time>2013-04-20T19:11:23Z</time>
      </trkpt>
      <trkpt lat="59.8563319" lon="17.7244983">
        <ele>8.78918</ele>
        <time>2013-04-20T19:11:24Z</time>
      </trkpt>
      <trkpt lat="59.8563711" lon="17.7243973">
        <ele>8.78918</ele>
        <time>2013-04-20T19:11:25Z</time>
      </trkpt>
      <trkpt lat="59.8564108" lon="17.7242959">
        <ele>8.78918</ele>
        <time>2013-04-20T19:11:26Z</time>
      </trkpt>
      <trkpt lat="59.8564524" lon="17.7241973">
        <ele>8.78918</ele>
        <time>2013-04-20T19:11:27Z</time>
      </trkpt>
      <trkpt lat="59.8564946" lon="17.7240998">
        <ele>8.78918</ele>
        <time>2013-04-20T19:11:28Z</time>
      </trkpt>
      <trkpt lat="59.8565377" lon="17.724005">
        <ele>8.78918</ele>
        <time>2013-04-20T19:11:29Z</time>
      </trkpt>
      <trkpt lat="59.8565804" lon="17.7239118">
        <ele>8.78918</ele>
        <time>2013-04-20T19:11:30Z</time>
      </trkpt>
      <trkpt lat="59.8566245" lon="17.7238216">
        <ele>9.2699</ele>
        <time>2013-04-20T19:11:31Z</time>
      </trkpt>
      <trkpt lat="59.856669" lon="17.7237321">
        <ele>9.2699</ele>
        <time>2013-04-20T19:11:32Z</time>
      </trkpt>
      <trkpt lat="59.856713" lon="17.7236416">
        <ele>9.2699</ele>
        <time>2013-04-20T19:11:33Z</time>
      </trkpt>
      <trkpt lat="59.8567572" lon="17.7235525">
        <ele>9.75061</ele>
        <time>2013-04-20T19:11:34Z</time>
      </trkpt>
      <trkpt lat="59.8568012" lon="17.7234657">
        <ele>10.2312</ele>
        <time>2013-04-20T19:11:35Z</time>
      </trkpt>
      <trkpt lat="59.8568427" lon="17.7233798">
        <ele>10.7118</ele>
        <time>2013-04-20T19:11:36Z</time>
      </trkpt>
      <trkpt lat="59.8568849" lon="17.7232997">
        <ele>10.7118</ele>
        <time>2013-04-20T19:11:37Z</time>
      </trkpt>
      <trkpt lat="59.8569276" lon="17.723224">
        <ele>11.1925</ele>
        <time>2013-04-20T19:11:38Z</time>
      </trkpt>
      <trkpt lat="59.85697" lon="17.7231506">
        <ele>11.6732</ele>
        <time>2013-04-20T19:11:39Z</time>
      </trkpt>
      <trkpt lat="59.8570171" lon="17.7230876">
        <ele>11.6732</ele>
        <time>2013-04-20T19:11:40Z</time>
      </trkpt>
      <trkpt lat="59.8570592" lon="17.7230094">
        <ele>11.6732</ele>
        <time>2013-04-20T19:11:41Z</time>
      </trkpt>
      <trkpt lat="59.8571038" lon="17.7229468">
        <ele>12.1538</ele>
        <time>2013-04-20T19:11:42Z</time>
      </trkpt>
      <trkpt lat="59.8571441" lon="17.7228811">
        <ele>12.1538</ele>
        <time>2013-04-20T19:11:43Z</time>
      </trkpt>
      <trkpt lat="59.8571886" lon="17.7228097">
        <ele>12.6344</ele>
        <time>2013-04-20T19:11:44Z</time>
      </trkpt>
      <trkpt lat="59.8572318" lon="17.722737">
        <ele>12.6344</ele>
        <time>2013-04-20T19:11:45Z</time>
      </trkpt>
      <trkpt lat="59.8572777" lon="17.7226638">
        <ele>12.6344</ele>
        <time>2013-04-20T19:11:46Z</time>
      </trkpt>
      <trkpt lat="59.8573234" lon="17.7225869">
        <ele>12.6344</ele>
        <time>2013-04-20T19:11:47Z</time>
      </trkpt>
      <trkpt lat="59.8573737" lon="17.7225092">
        <ele>12.6344</ele>
        <time>2013-04-20T19:11:48Z</time>
      </trkpt>
      <trkpt lat="59.8574218" lon="17.722433">
        <ele>13.1151</ele>
        <time>2013-04-20T19:11:49Z</time>
      </trkpt>
      <trkpt lat="59.8574643" lon="17.7223497">
        <ele>13.1151</ele>
        <time>2013-04-20T19:11:50Z</time>
      </trkpt>
      <trkpt lat="59.8575088" lon="17.7222558">
        <ele>13.5958</ele>
        <time>2013-04-20T19:11:51Z</time>
      </trkpt>
      <trkpt lat="59.8575525" lon="17.7221702">
        <ele>14.0764</ele>
        <time>2013-04-20T19:11:52Z</time>
      </trkpt>
      <trkpt lat="59.8575916" lon="17.7220792">
        <ele>14.0764</ele>
        <time>2013-04-20T19:11:53Z</time>
      </trkpt>
      <trkpt lat="59.8576219" lon="17.7219885">
        <ele>14.557</ele>
        <time>2013-04-20T19:11:54Z</time>
      </trkpt>
      <trkpt lat="59.8576358" lon="17.721889">
        <ele>14.0764</ele>
        <time>2013-04-20T19:11:55Z</time>
      </trkpt>
      <trkpt lat="59.8576606" lon="17.7217781">
        <ele>13.5958</ele>
        <time>2013-04-20T19:11:56Z</time>
      </trkpt>
      <trkpt lat="59.8576825" lon="17.721662">
        <ele>13.5958</ele>
        <time>2013-04-20T19:11:57Z</time>
      </trkpt>
      <trkpt lat="59.857697" lon="17.7215425">
        <ele>13.5958</ele>
        <time>2013-04-20T19:11:58Z</time>
      </trkpt>
      <trkpt lat="59.8577063" lon="17.7214212">
        <ele>13.5958</ele>
        <time>2013-04-20T19:11:59Z</time>
      </trkpt>
      <trkpt lat="59.8577102" lon="17.721296">
        <ele>13.5958</ele>
        <time>2013-04-20T19:12:00Z</time>
      </trkpt>
      <trkpt lat="59.857718" lon="17.7211631">
        <ele>14.557</ele>
        <time>2013-04-20T19:12:01Z</time>
      </trkpt>
      <trkpt lat="59.8577192" lon="17.721037">
        <ele>14.557</ele>
        <time>2013-04-20T19:12:02Z</time>
      </trkpt>
      <trkpt lat="59.8577191" lon="17.7209071">
        <ele>14.557</ele>
        <time>2013-04-20T19:12:03Z</time>
      </trkpt>
      <trkpt lat="59.8577255" lon="17.720775">
        <ele>15.0377</ele>
        <time>2013-04-20T19:12:04Z</time>
      </trkpt>
      <trkpt lat="59.8577327" lon="17.7206387">
        <ele>14.557</ele>
        <time>2013-04-20T19:12:05Z</time>
      </trkpt>
      <trkpt lat="59.8577405" lon="17.7204965">
        <ele>15.0377</ele>
        <time>2013-04-20T19:12:06Z</time>
      </trkpt>
      <trkpt lat="59.857744" lon="17.7203495">
        <ele>15.0377</ele>
        <time>2013-04-20T19:12:07Z</time>
      </trkpt>
      <trkpt lat="59.8577404" lon="17.7201942">
        <ele>14.557</ele>
        <time>2013-04-20T19:12:08Z</time>
      </trkpt>
      <trkpt lat="59.8577357" lon="17.7200371">
        <ele>14.557</ele>
        <time>2013-04-20T19:12:09Z</time>
      </trkpt>
      <trkpt lat="59.85773" lon="17.7198806">
        <ele>14.557</ele>
        <time>2013-04-20T19:12:10Z</time>
      </trkpt>
      <trkpt lat="59.857726" lon="17.7197259">
        <ele>14.557</ele>
        <time>2013-04-20T19:12:11Z</time>
      </trkpt>
      <trkpt lat="59.8577217" lon="17.7195705">
        <ele>14.557</ele>
        <time>2013-04-20T19:12:12Z</time>
      </trkpt>
      <trkpt lat="59.8577171" lon="17.7194138">
        <ele>15.0377</ele>
        <time>2013-04-20T19:12:13Z</time>
      </trkpt>
      <trkpt lat="59.8577124" lon="17.7192574">
        <ele>15.0377</ele>
        <time>2013-04-20T19:12:14Z</time>
      </trkpt>
      <trkpt lat="59.8577083" lon="17.7191022">
        <ele>15.0377</ele>
        <time>2013-04-20T19:12:15Z</time>
      </trkpt>
      <trkpt lat="59.8577058" lon="17.7189478">
        <ele>15.5184</ele>
        <time>2013-04-20T19:12:16Z</time>
      </trkpt>
      <trkpt lat="59.8577055" lon="17.7187948">
        <ele>15.5184</ele>
        <time>2013-04-20T19:12:17Z</time>
      </trkpt>
      <trkpt lat="59.8577056" lon="17.7186432">
        <ele>15.999</ele>
        <time>2013-04-20T19:12:18Z</time>
      </trkpt>
      <trkpt lat="59.8577062" lon="17.7184945">
        <ele>15.999</ele>
        <time>2013-04-20T19:12:19Z</time>
      </trkpt>
      <trkpt lat="59.8577078" lon="17.7183475">
        <ele>15.999</ele>
        <time>2013-04-20T19:12:20Z</time>
      </trkpt>
      <trkpt lat="59.857711" lon="17.718202">
        <ele>16.4797</ele>
        <time>2013-04-20T19:12:21Z</time>
      </trkpt>
      <trkpt lat="59.857716" lon="17.7180579">
        <ele>16.4797</ele>
        <time>2013-04-20T19:12:22Z</time>
      </trkpt>
      <trkpt lat="59.8577208" lon="17.7179144">
        <ele>16.4797</ele>
        <time>2013-04-20T19:12:23Z</time>
      </trkpt>
      <trkpt lat="59.8577244" lon="17.7177715">
        <ele>16.9604</ele>
        <time>2013-04-20T19:12:24Z</time>
      </trkpt>
      <trkpt lat="59.8577272" lon="17.7176301">
        <ele>16.9604</ele>
        <time>2013-04-20T19:12:25Z</time>
      </trkpt>
      <trkpt lat="59.8577291" lon="17.7174905">
        <ele>17.4412</ele>
        <time>2013-04-20T19:12:26Z</time>
      </trkpt>
      <trkpt lat="59.8577296" lon="17.7173516">
        <ele>17.4412</ele>
        <time>2013-04-20T19:12:27Z</time>
      </trkpt>
      <trkpt lat="59.8577269" lon="17.7172119">
        <ele>17.4412</ele>
        <time>2013-04-20T19:12:28Z</time>
      </trkpt>
      <trkpt lat="59.8577211" lon="17.7170702">
        <ele>17.4412</ele>
        <time>2013-04-20T19:12:29Z</time>
      </trkpt>
      <trkpt lat="59.8577153" lon="17.7169302">
        <ele>17.4412</ele>
        <time>2013-04-20T19:12:30Z</time>
      </trkpt>
      <trkpt lat="59.8577087" lon="17.7167896">
        <ele>17.4412</ele>
        <time>2013-04-20T19:12:31Z</time>
      </trkpt>
      <trkpt lat="59.8577004" lon="17.7166466">
        <ele>16.9604</ele>
        <time>2013-04-20T19:12:32Z</time>
      </trkpt>
      <trkpt lat="59.8576925" lon="17.7165039">
        <ele>16.9604</ele>
        <time>2013-04-20T19:12:33Z</time>
      </trkpt>
      <trkpt lat="59.8576863" lon="17.7163619">
        <ele>16.9604</ele>
        <time>2013-04-20T19:12:34Z</time>
      </trkpt>
      <trkpt lat="59.8576827" lon="17.7162195">
        <ele>17.4412</ele>
        <time>2013-04-20T19:12:35Z</time>
      </trkpt>
      <trkpt lat="59.8576834" lon="17.7160775">
        <ele>17.4412</ele>
        <time>2013-04-20T19:12:36Z</time>
      </trkpt>
      <trkpt lat="59.8576865" lon="17.7159373">
        <ele>17.4412</ele>
        <time>2013-04-20T19:12:37Z</time>
      </trkpt>
      <trkpt lat="59.8576941" lon="17.7157988">
        <ele>17.4412</ele>
        <time>2013-04-20T19:12:38Z</time>
      </trkpt>
      <trkpt lat="59.8577066" lon="17.7156608">
        <ele>17.4412</ele>
        <time>2013-04-20T19:12:39Z</time>
      </trkpt>
      <trkpt lat="59.8577234" lon="17.7155248">
        <ele>17.4412</ele>
        <time>2013-04-20T19:12:40Z</time>
      </trkpt>
      <trkpt lat="59.8577448" lon="17.7153916">
        <ele>17.4412</ele>
        <time>2013-04-20T19:12:41Z</time>
      </trkpt>
      <trkpt lat="59.8577685" lon="17.7152594">
        <ele>17.4412</ele>
        <time>2013-04-20T19:12:42Z</time>
      </trkpt>
      <trkpt lat="59.8577932" lon="17.7151278">
        <ele>16.9604</ele>
        <time>2013-04-20T19:12:43Z</time>
      </trkpt>
      <trkpt lat="59.8578186" lon="17.7149973">
        <ele>16.9604</ele>
        <time>2013-04-20T19:12:44Z</time>
      </trkpt>
      <trkpt lat="59.8578455" lon="17.7148679">
        <ele>16.9604</ele>
        <time>2013-04-20T19:12:45Z</time>
      </trkpt>
      <trkpt lat="59.8578759" lon="17.7147411">
        <ele>16.9604</ele>
        <time>2013-04-20T19:12:46Z</time>
      </trkpt>
      <trkpt lat="59.8579102" lon="17.7146186">
        <ele>16.9604</ele>
        <time>2013-04-20T19:12:47Z</time>
      </trkpt>
      <trkpt lat="59.8579471" lon="17.7145002">
        <ele>16.4797</ele>
        <time>2013-04-20T19:12:48Z</time>
      </trkpt>
      <trkpt lat="59.8579864" lon="17.7143858">
        <ele>16.4797</ele>
        <time>2013-04-20T19:12:49Z</time>
      </trkpt>
      <trkpt lat="59.8580275" lon="17.7142752">
        <ele>16.4797</ele>
        <time>2013-04-20T19:12:50Z</time>
      </trkpt>
      <trkpt lat="59.8580686" lon="17.7141655">
        <ele>16.4797</ele>
        <time>2013-04-20T19:12:51Z</time>
      </trkpt>
      <trkpt lat="59.8581074" lon="17.7140537">
        <ele>16.4797</ele>
        <time>2013-04-20T19:12:52Z</time>
      </trkpt>
      <trkpt lat="59.8581424" lon="17.7139375">
        <ele>16.4797</ele>
        <time>2013-04-20T19:12:53Z</time>
      </trkpt>
      <trkpt lat="59.8581733" lon="17.7138174">
        <ele>15.999</ele>
        <time>2013-04-20T19:12:54Z</time>
      </trkpt>
      <trkpt lat="59.8581994" lon="17.7136926">
        <ele>15.999</ele>
        <time>2013-04-20T19:12:55Z</time>
      </trkpt>
      <trkpt lat="59.8582212" lon="17.7135641">
        <ele>15.999</ele>
        <time>2013-04-20T19:12:56Z</time>
      </trkpt>
      <trkpt lat="59.8582387" lon="17.713432">
        <ele>15.999</ele>
        <time>2013-04-20T19:12:57Z</time>
      </trkpt>
      <trkpt lat="59.8582527" lon="17.7132968">
        <ele>15.999</ele>
        <time>2013-04-20T19:12:58Z</time>
      </trkpt>
      <trkpt lat="59.8582651" lon="17.7131606">
        <ele>15.999</ele>
        <time>2013-04-20T19:12:59Z</time>
      </trkpt>
      <trkpt lat="59.8582791" lon="17.7130252">
        <ele>16.4797</ele>
        <time>2013-04-20T19:13:00Z</time>
      </trkpt>
      <trkpt lat="59.8582936" lon="17.7128907">
        <ele>16.4797</ele>
        <time>2013-04-20T19:13:01Z</time>
      </trkpt>
      <trkpt lat="59.8583081" lon="17.7127577">
        <ele>16.4797</ele>
        <time>2013-04-20T19:13:02Z</time>
      </trkpt>
      <trkpt lat="59.8583231" lon="17.7126281">
        <ele>16.4797</ele>
        <time>2013-04-20T19:13:03Z</time>
      </trkpt>
      <trkpt lat="59.8583403" lon="17.7125031">
        <ele>16.4797</ele>
        <time>2013-04-20T19:13:04Z</time>
      </trkpt>
      <trkpt lat="59.8583598" lon="17.7123831">
        <ele>16.4797</ele>
        <time>2013-04-20T19:13:05Z</time>
      </trkpt>
      <trkpt lat="59.8583826" lon="17.7122681">
        <ele>16.9604</ele>
        <time>2013-04-20T19:13:06Z</time>
      </trkpt>
      <trkpt lat="59.8584074" lon="17.7121558">
        <ele>16.9604</ele>
        <time>2013-04-20T19:13:07Z</time>
      </trkpt>
      <trkpt lat="59.8584326" lon="17.7120463">
        <ele>16.9604</ele>
        <time>2013-04-20T19:13:08Z</time>
      </trkpt>
      <trkpt lat="59.8584573" lon="17.711935">
        <ele>16.9604</ele>
        <time>2013-04-20T19:13:09Z</time>
      </trkpt>
      <trkpt lat="59.8584809" lon="17.7118216">
        <ele>16.9604</ele>
        <time>2013-04-20T19:13:10Z</time>
      </trkpt>
      <trkpt lat="59.8585038" lon="17.7117062">
        <ele>16.9604</ele>
        <time>2013-04-20T19:13:11Z</time>
      </trkpt>
      <trkpt lat="59.858525" lon="17.7115869">
        <ele>16.9604</ele>
        <time>2013-04-20T19:13:12Z</time>
      </trkpt>
      <trkpt lat="59.8585427" lon="17.7114636">
        <ele>16.9604</ele>
        <time>2013-04-20T19:13:13Z</time>
      </trkpt>
      <trkpt lat="59.8585526" lon="17.7113367">
        <ele>16.9604</ele>
        <time>2013-04-20T19:13:14Z</time>
      </trkpt>
      <trkpt lat="59.8585648" lon="17.7111911">
        <ele>16.9604</ele>
        <time>2013-04-20T19:13:15Z</time>
      </trkpt>
      <trkpt lat="59.8585686" lon="17.7110679">
        <ele>15.999</ele>
        <time>2013-04-20T19:13:16Z</time>
      </trkpt>
      <trkpt lat="59.8585731" lon="17.7109528">
        <ele>15.999</ele>
        <time>2013-04-20T19:13:17Z</time>
      </trkpt>
      <trkpt lat="59.8585735" lon="17.7108286">
        <ele>15.5184</ele>
        <time>2013-04-20T19:13:18Z</time>
      </trkpt>
      <trkpt lat="59.8585655" lon="17.7107141">
        <ele>15.5184</ele>
        <time>2013-04-20T19:13:19Z</time>
      </trkpt>
      <trkpt lat="59.8585594" lon="17.710597">
        <ele>15.5184</ele>
        <time>2013-04-20T19:13:20Z</time>
      </trkpt>
      <trkpt lat="59.8585245" lon="17.7104324">
        <ele>15.999</ele>
        <time>2013-04-20T19:13:21Z</time>
      </trkpt>
      <trkpt lat="59.8584744" lon="17.7102934">
        <ele>16.4797</ele>
        <time>2013-04-20T19:13:22Z</time>
      </trkpt>
      <trkpt lat="59.8584595" lon="17.7101837">
        <ele>16.9604</ele>
        <time>2013-04-20T19:13:23Z</time>
      </trkpt>
      <trkpt lat="59.8584346" lon="17.7100649">
        <ele>16.9604</ele>
        <time>2013-04-20T19:13:24Z</time>
      </trkpt>
      <trkpt lat="59.8584221" lon="17.7099579">
        <ele>15.999</ele>
        <time>2013-04-20T19:13:25Z</time>
      </trkpt>
      <trkpt lat="59.8583994" lon="17.7098416">
        <ele>15.5184</ele>
        <time>2013-04-20T19:13:26Z</time>
      </trkpt>
      <trkpt lat="59.8583839" lon="17.7097091">
        <ele>15.5184</ele>
        <time>2013-04-20T19:13:27Z</time>
      </trkpt>
      <trkpt lat="59.8583719" lon="17.7095724">
        <ele>16.4797</ele>
        <time>2013-04-20T19:13:28Z</time>
      </trkpt>
      <trkpt lat="59.8583615" lon="17.7094387">
        <ele>16.4797</ele>
        <time>2013-04-20T19:13:29Z</time>
      </trkpt>
      <trkpt lat="59.8583571" lon="17.7093009">
        <ele>15.999</ele>
        <time>2013-04-20T19:13:30Z</time>
      </trkpt>
      <trkpt lat="59.8583547" lon="17.7091595">
        <ele>15.999</ele>
        <time>2013-04-20T19:13:31Z</time>
      </trkpt>
      <trkpt lat="59.8583571" lon="17.7090127">
        <ele>15.999</ele>
        <time>2013-04-20T19:13:32Z</time>
      </trkpt>
      <trkpt lat="59.8583647" lon="17.7088656">
        <ele>15.5184</ele>
        <time>2013-04-20T19:13:33Z</time>
      </trkpt>
      <trkpt lat="59.8583797" lon="17.7087235">
        <ele>15.5184</ele>
        <time>2013-04-20T19:13:34Z</time>
      </trkpt>
      <trkpt lat="59.8583963" lon="17.708583">
        <ele>15.5184</ele>
        <time>2013-04-20T19:13:35Z</time>
      </trkpt>
      <trkpt lat="59.8584132" lon="17.7084363">
        <ele>15.5184</ele>
        <time>2013-04-20T19:13:36Z</time>
      </trkpt>
      <trkpt lat="59.8584307" lon="17.7082844">
        <ele>15.0377</ele>
        <time>2013-04-20T19:13:37Z</time>
      </trkpt>
      <trkpt lat="59.8584491" lon="17.7081312">
        <ele>15.0377</ele>
        <time>2013-04-20T19:13:38Z</time>
      </trkpt>
      <trkpt lat="59.8584696" lon="17.7079779">
        <ele>15.0377</ele>
        <time>2013-04-20T19:13:39Z</time>
      </trkpt>
      <trkpt lat="59.8584825" lon="17.7078044">
        <ele>14.557</ele>
        <time>2013-04-20T19:13:40Z</time>
      </trkpt>
      <trkpt lat="59.8585042" lon="17.7076454">
        <ele>14.557</ele>
        <time>2013-04-20T19:13:41Z</time>
      </trkpt>
      <trkpt lat="59.8585226" lon="17.7074816">
        <ele>14.0764</ele>
        <time>2013-04-20T19:13:42Z</time>
      </trkpt>
      <trkpt lat="59.8585376" lon="17.7073207">
        <ele>14.557</ele>
        <time>2013-04-20T19:13:43Z</time>
      </trkpt>
      <trkpt lat="59.8585569" lon="17.7071608">
        <ele>14.557</ele>
        <time>2013-04-20T19:13:44Z</time>
      </trkpt>
      <trkpt lat="59.8585701" lon="17.7069885">
        <ele>14.0764</ele>
        <time>2013-04-20T19:13:45Z</time>
      </trkpt>
      <trkpt lat="59.858584" lon="17.706822">
        <ele>14.557</ele>
        <time>2013-04-20T19:13:46Z</time>
      </trkpt>
      <trkpt lat="59.8586013" lon="17.706664">
        <ele>14.557</ele>
        <time>2013-04-20T19:13:47Z</time>
      </trkpt>
      <trkpt lat="59.8586189" lon="17.706509">
        <ele>15.0377</ele>
        <time>2013-04-20T19:13:48Z</time>
      </trkpt>
      <trkpt lat="59.8586363" lon="17.7063607">
        <ele>15.0377</ele>
        <time>2013-04-20T19:13:49Z</time>
      </trkpt>
      <trkpt lat="59.858666" lon="17.7062341">
        <ele>15.0377</ele>
        <time>2013-04-20T19:13:50Z</time>
      </trkpt>
      <trkpt lat="59.858693" lon="17.7060935">
        <ele>15.0377</ele>
        <time>2013-04-20T19:13:51Z</time>
      </trkpt>
      <trkpt lat="59.8587179" lon="17.7059578">
        <ele>15.0377</ele>
        <time>2013-04-20T19:13:52Z</time>
      </trkpt>
      <trkpt lat="59.8587416" lon="17.7058221">
        <ele>15.0377</ele>
        <time>2013-04-20T19:13:53Z</time>
      </trkpt>
      <trkpt lat="59.8587655" lon="17.7056898">
        <ele>15.0377</ele>
        <time>2013-04-20T19:13:54Z</time>
      </trkpt>
      <trkpt lat="59.8587879" lon="17.7055625">
        <ele>15.5184</ele>
        <time>2013-04-20T19:13:55Z</time>
      </trkpt>
      <trkpt lat="59.8588109" lon="17.705446">
        <ele>15.5184</ele>
        <time>2013-04-20T19:13:56Z</time>
      </trkpt>
      <trkpt lat="59.8588277" lon="17.7053276">
        <ele>15.0377</ele>
        <time>2013-04-20T19:13:57Z</time>
      </trkpt>
      <trkpt lat="59.8588411" lon="17.7052095">
        <ele>15.0377</ele>
        <time>2013-04-20T19:13:58Z</time>
      </trkpt>
      <trkpt lat="59.8588565" lon="17.7050942">
        <ele>15.0377</ele>
        <time>2013-04-20T19:13:59Z</time>
      </trkpt>
      <trkpt lat="59.8588837" lon="17.7049875">
        <ele>14.557</ele>
        <time>2013-04-20T19:14:00Z</time>
      </trkpt>
      <trkpt lat="59.8589216" lon="17.7048904">
        <ele>14.557</ele>
        <time>2013-04-20T19:14:01Z</time>
      </trkpt>
      <trkpt lat="59.8589644" lon="17.7048005">
        <ele>14.0764</ele>
        <time>2013-04-20T19:14:02Z</time>
      </trkpt>
      <trkpt lat="59.8590114" lon="17.7047165">
        <ele>14.0764</ele>
        <time>2013-04-20T19:14:03Z</time>
      </trkpt>
      <trkpt lat="59.8590643" lon="17.7046394">
        <ele>14.0764</ele>
        <time>2013-04-20T19:14:04Z</time>
      </trkpt>
      <trkpt lat="59.8591209" lon="17.7045782">
        <ele>13.5958</ele>
        <time>2013-04-20T19:14:05Z</time>
      </trkpt>
      <trkpt lat="59.8591757" lon="17.704518">
        <ele>13.1151</ele>
        <time>2013-04-20T19:14:06Z</time>
      </trkpt>
      <trkpt lat="59.8592354" lon="17.7044674">
        <ele>12.6344</ele>
        <time>2013-04-20T19:14:07Z</time>
      </trkpt>
      <trkpt lat="59.8592991" lon="17.7044264">
        <ele>12.1538</ele>
        <time>2013-04-20T19:14:08Z</time>
      </trkpt>
      <trkpt lat="59.8593642" lon="17.7043877">
        <ele>11.6732</ele>
        <time>2013-04-20T19:14:09Z</time>
      </trkpt>
      <trkpt lat="59.8594287" lon="17.704348">
        <ele>11.1925</ele>
        <time>2013-04-20T19:14:10Z</time>
      </trkpt>
      <trkpt lat="59.8594938" lon="17.7043109">
        <ele>10.7118</ele>
        <time>2013-04-20T19:14:11Z</time>
      </trkpt>
      <trkpt lat="59.8595603" lon="17.7042845">
        <ele>10.7118</ele>
        <time>2013-04-20T19:14:12Z</time>
      </trkpt>
      <trkpt lat="59.8596242" lon="17.7042544">
        <ele>9.2699</ele>
        <time>2013-04-20T19:14:13Z</time>
      </trkpt>
      <trkpt lat="59.8596934" lon="17.7042311">
        <ele>9.2699</ele>
        <time>2013-04-20T19:14:14Z</time>
      </trkpt>
      <trkpt lat="59.8597611" lon="17.7042064">
        <ele>8.78918</ele>
        <time>2013-04-20T19:14:15Z</time>
      </trkpt>
      <trkpt lat="59.8598309" lon="17.7041767">
        <ele>8.78918</ele>
        <time>2013-04-20T19:14:16Z</time>
      </trkpt>
      <trkpt lat="59.859897" lon="17.7041455">
        <ele>7.34717</ele>
        <time>2013-04-20T19:14:17Z</time>
      </trkpt>
      <trkpt lat="59.859962" lon="17.704112">
        <ele>5.90527</ele>
        <time>2013-04-20T19:14:18Z</time>
      </trkpt>
      <trkpt lat="59.8600257" lon="17.7040804">
        <ele>4.46326</ele>
        <time>2013-04-20T19:14:19Z</time>
      </trkpt>
      <trkpt lat="59.8600942" lon="17.7040462">
        <ele>4.94385</ele>
        <time>2013-04-20T19:14:20Z</time>
      </trkpt>
      <trkpt lat="59.8601612" lon="17.7040121">
        <ele>4.46326</ele>
        <time>2013-04-20T19:14:21Z</time>
      </trkpt>
      <trkpt lat="59.8602242" lon="17.7039723">
        <ele>3.50195</ele>
        <time>2013-04-20T19:14:22Z</time>
      </trkpt>
      <trkpt lat="59.8602905" lon="17.7039353">
        <ele>3.02124</ele>
        <time>2013-04-20T19:14:23Z</time>
      </trkpt>
      <trkpt lat="59.8603609" lon="17.7039027">
        <ele>3.02124</ele>
        <time>2013-04-20T19:14:24Z</time>
      </trkpt>
      <trkpt lat="59.8604253" lon="17.7039126">
        <ele>2.54065</ele>
        <time>2013-04-20T19:14:25Z</time>
      </trkpt>
      <trkpt lat="59.8604797" lon="17.7038577">
        <ele>2.06006</ele>
        <time>2013-04-20T19:14:26Z</time>
      </trkpt>
      <trkpt lat="59.8605412" lon="17.7038047">
        <ele>2.06006</ele>
        <time>2013-04-20T19:14:27Z</time>
      </trkpt>
      <trkpt lat="59.860632" lon="17.7037617">
        <ele>3.50195</ele>
        <time>2013-04-20T19:14:28Z</time>
      </trkpt>
      <trkpt lat="59.860694" lon="17.7037649">
        <ele>2.54065</ele>
        <time>2013-04-20T19:14:29Z</time>
      </trkpt>
      <trkpt lat="59.8607815" lon="17.7037328">
        <ele>2.06006</ele>
        <time>2013-04-20T19:14:30Z</time>
      </trkpt>
      <trkpt lat="59.8608727" lon="17.7036997">
        <ele>3.50195</ele>
        <time>2013-04-20T19:14:31Z</time>
      </trkpt>
      <trkpt lat="59.8609355" lon="17.7036991">
        <ele>3.02124</ele>
        <time>2013-04-20T19:14:32Z</time>
      </trkpt>
      <trkpt lat="59.8610316" lon="17.7036867">
        <ele>4.94385</ele>
        <time>2013-04-20T19:14:33Z</time>
      </trkpt>
      <trkpt lat="59.8610986" lon="17.7036909">
        <ele>4.94385</ele>
        <time>2013-04-20T19:14:34Z</time>
      </trkpt>
      <trkpt lat="59.8611621" lon="17.7037018">
        <ele>4.94385</ele>
        <time>2013-04-20T19:14:35Z</time>
      </trkpt>
      <trkpt lat="59.861231" lon="17.703726">
        <ele>4.46326</ele>
        <time>2013-04-20T19:14:36Z</time>
      </trkpt>
      <trkpt lat="59.8612927" lon="17.7037618">
        <ele>3.98267</ele>
        <time>2013-04-20T19:14:37Z</time>
      </trkpt>
      <trkpt lat="59.8613642" lon="17.7037852">
        <ele>4.46326</ele>
        <time>2013-04-20T19:14:38Z</time>
      </trkpt>
      <trkpt lat="59.8614277" lon="17.7038178">
        <ele>6.38586</ele>
        <time>2013-04-20T19:14:39Z</time>
      </trkpt>
      <trkpt lat="59.861466" lon="17.7038292">
        <ele>6.86646</ele>
        <time>2013-04-20T19:14:40Z</time>
      </trkpt>
      <trkpt lat="59.8615269" lon="17.7038789">
        <ele>8.30859</ele>
        <time>2013-04-20T19:14:41Z</time>
      </trkpt>
      <trkpt lat="59.8615814" lon="17.7038989">
        <ele>7.82788</ele>
        <time>2013-04-20T19:14:42Z</time>
      </trkpt>
      <trkpt lat="59.8616594" lon="17.7039197">
        <ele>8.30859</ele>
        <time>2013-04-20T19:14:43Z</time>
      </trkpt>
      <trkpt lat="59.8617436" lon="17.7039509">
        <ele>9.75061</ele>
        <time>2013-04-20T19:14:44Z</time>
      </trkpt>
      <trkpt lat="59.8618082" lon="17.7039737">
        <ele>9.2699</ele>
        <time>2013-04-20T19:14:45Z</time>
      </trkpt>
      <trkpt lat="59.8618663" lon="17.7039958">
        <ele>8.78918</ele>
        <time>2013-04-20T19:14:46Z</time>
      </trkpt>
      <trkpt lat="59.8619291" lon="17.7040219">
        <ele>8.78918</ele>
        <time>2013-04-20T19:14:47Z</time>
      </trkpt>
      <trkpt lat="59.8619891" lon="17.7040494">
        <ele>8.78918</ele>
        <time>2013-04-20T19:14:48Z</time>
      </trkpt>
      <trkpt lat="59.8620609" lon="17.7040774">
        <ele>10.2312</ele>
        <time>2013-04-20T19:14:49Z</time>
      </trkpt>
      <trkpt lat="59.8621244" lon="17.7041105">
        <ele>10.7118</ele>
        <time>2013-04-20T19:14:50Z</time>
      </trkpt>
      <trkpt lat="59.8621918" lon="17.7041391">
        <ele>11.1925</ele>
        <time>2013-04-20T19:14:51Z</time>
      </trkpt>
      <trkpt lat="59.8622577" lon="17.7041628">
        <ele>11.1925</ele>
        <time>2013-04-20T19:14:52Z</time>
      </trkpt>
      <trkpt lat="59.8623236" lon="17.7041903">
        <ele>11.6732</ele>
        <time>2013-04-20T19:14:53Z</time>
      </trkpt>
      <trkpt lat="59.8623894" lon="17.7042166">
        <ele>11.6732</ele>
        <time>2013-04-20T19:14:54Z</time>
      </trkpt>
      <trkpt lat="59.862452" lon="17.7042415">
        <ele>11.1925</ele>
        <time>2013-04-20T19:14:55Z</time>
      </trkpt>
      <trkpt lat="59.8625175" lon="17.7042663">
        <ele>12.1538</ele>
        <time>2013-04-20T19:14:56Z</time>
      </trkpt>
      <trkpt lat="59.8625818" lon="17.7042916">
        <ele>12.1538</ele>
        <time>2013-04-20T19:14:57Z</time>
      </trkpt>
      <trkpt lat="59.8626422" lon="17.704316">
        <ele>12.1538</ele>
        <time>2013-04-20T19:14:58Z</time>
      </trkpt>
      <trkpt lat="59.862706" lon="17.7043399">
        <ele>12.6344</ele>
        <time>2013-04-20T19:14:59Z</time>
      </trkpt>
      <trkpt lat="59.8627696" lon="17.7043643">
        <ele>12.6344</ele>
        <time>2013-04-20T19:15:00Z</time>
      </trkpt>
      <trkpt lat="59.8628319" lon="17.70439">
        <ele>12.6344</ele>
        <time>2013-04-20T19:15:01Z</time>
      </trkpt>
      <trkpt lat="59.8628928" lon="17.704417">
        <ele>12.6344</ele>
        <time>2013-04-20T19:15:02Z</time>
      </trkpt>
      <trkpt lat="59.8629534" lon="17.7044302">
        <ele>12.1538</ele>
        <time>2013-04-20T19:15:03Z</time>
      </trkpt>
      <trkpt lat="59.8630148" lon="17.7044288">
        <ele>12.1538</ele>
        <time>2013-04-20T19:15:04Z</time>
      </trkpt>
      <trkpt lat="59.8630762" lon="17.7044098">
        <ele>11.6732</ele>
        <time>2013-04-20T19:15:05Z</time>
      </trkpt>
      <trkpt lat="59.8631392" lon="17.7043799">
        <ele>13.1151</ele>
        <time>2013-04-20T19:15:06Z</time>
      </trkpt>
      <trkpt lat="59.8631976" lon="17.7043332">
        <ele>12.6344</ele>
        <time>2013-04-20T19:15:07Z</time>
      </trkpt>
      <trkpt lat="59.863253" lon="17.7042732">
        <ele>11.6732</ele>
        <time>2013-04-20T19:15:08Z</time>
      </trkpt>
      <trkpt lat="59.863312" lon="17.7042115">
        <ele>11.6732</ele>
        <time>2013-04-20T19:15:09Z</time>
      </trkpt>
      <trkpt lat="59.8633686" lon="17.7041477">
        <ele>10.7118</ele>
        <time>2013-04-20T19:15:10Z</time>
      </trkpt>
      <trkpt lat="59.8634239" lon="17.7040781">
        <ele>10.2312</ele>
        <time>2013-04-20T19:15:11Z</time>
      </trkpt>
      <trkpt lat="59.8634784" lon="17.7040059">
        <ele>9.75061</ele>
        <time>2013-04-20T19:15:12Z</time>
      </trkpt>
      <trkpt lat="59.8635343" lon="17.7039324">
        <ele>9.75061</ele>
        <time>2013-04-20T19:15:13Z</time>
      </trkpt>
      <trkpt lat="59.8635903" lon="17.7038561">
        <ele>9.2699</ele>
        <time>2013-04-20T19:15:14Z</time>
      </trkpt>
      <trkpt lat="59.8636445" lon="17.7037789">
        <ele>8.78918</ele>
        <time>2013-04-20T19:15:15Z</time>
      </trkpt>
      <trkpt lat="59.8636968" lon="17.7037026">
        <ele>8.30859</ele>
        <time>2013-04-20T19:15:16Z</time>
      </trkpt>
      <trkpt lat="59.8637472" lon="17.7036265">
        <ele>7.34717</ele>
        <time>2013-04-20T19:15:17Z</time>
      </trkpt>
      <trkpt lat="59.863801" lon="17.7035552">
        <ele>7.34717</ele>
        <time>2013-04-20T19:15:18Z</time>
      </trkpt>
      <trkpt lat="59.8638558" lon="17.7034853">
        <ele>6.86646</ele>
        <time>2013-04-20T19:15:19Z</time>
      </trkpt>
      <trkpt lat="59.8639094" lon="17.7034141">
        <ele>6.38586</ele>
        <time>2013-04-20T19:15:20Z</time>
      </trkpt>
      <trkpt lat="59.8639649" lon="17.7033477">
        <ele>6.38586</ele>
        <time>2013-04-20T19:15:21Z</time>
      </trkpt>
      <trkpt lat="59.8640187" lon="17.7032812">
        <ele>5.90527</ele>
        <time>2013-04-20T19:15:22Z</time>
      </trkpt>
      <trkpt lat="59.8640735" lon="17.7032184">
        <ele>5.90527</ele>
        <time>2013-04-20T19:15:23Z</time>
      </trkpt>
      <trkpt lat="59.8641255" lon="17.7031552">
        <ele>5.90527</ele>
        <time>2013-04-20T19:15:24Z</time>
      </trkpt>
      <trkpt lat="59.864177" lon="17.7030939">
        <ele>5.90527</ele>
        <time>2013-04-20T19:15:25Z</time>
      </trkpt>
      <trkpt lat="59.8642272" lon="17.703035">
        <ele>5.42456</ele>
        <time>2013-04-20T19:15:26Z</time>
      </trkpt>
      <trkpt lat="59.8642735" lon="17.7029761">
        <ele>5.42456</ele>
        <time>2013-04-20T19:15:27Z</time>
      </trkpt>
      <trkpt lat="59.8643195" lon="17.7029152">
        <ele>4.94385</ele>
        <time>2013-04-20T19:15:28Z</time>
      </trkpt>
      <trkpt lat="59.864364" lon="17.7028494">
        <ele>4.94385</ele>
        <time>2013-04-20T19:15:29Z</time>
      </trkpt>
      <trkpt lat="59.8644096" lon="17.7027833">
        <ele>4.94385</ele>
        <time>2013-04-20T19:15:30Z</time>
      </trkpt>
      <trkpt lat="59.8644616" lon="17.7027273">
        <ele>5.42456</ele>
        <time>2013-04-20T19:15:31Z</time>
      </trkpt>
      <trkpt lat="59.8645128" lon="17.7026755">
        <ele>5.42456</ele>
        <time>2013-04-20T19:15:32Z</time>
      </trkpt>
      <trkpt lat="59.8645615" lon="17.702618">
        <ele>5.42456</ele>
        <time>2013-04-20T19:15:33Z</time>
      </trkpt>
      <trkpt lat="59.864608" lon="17.7025565">
        <ele>5.90527</ele>
        <time>2013-04-20T19:15:34Z</time>
      </trkpt>
      <trkpt lat="59.8646495" lon="17.702493">
        <ele>5.90527</ele>
        <time>2013-04-20T19:15:35Z</time>
      </trkpt>
      <trkpt lat="59.8646936" lon="17.7024293">
        <ele>6.38586</ele>
        <time>2013-04-20T19:15:36Z</time>
      </trkpt>
      <trkpt lat="59.8647288" lon="17.7023663">
        <ele>5.90527</ele>
        <time>2013-04-20T19:15:37Z</time>
      </trkpt>
      <trkpt lat="59.8647639" lon="17.7023051">
        <ele>4.94385</ele>
        <time>2013-04-20T19:15:38Z</time>
      </trkpt>
      <trkpt lat="59.8648029" lon="17.7022394">
        <ele>4.46326</ele>
        <time>2013-04-20T19:15:39Z</time>
      </trkpt>
      <trkpt lat="59.8648497" lon="17.7021648">
        <ele>4.46326</ele>
        <time>2013-04-20T19:15:40Z</time>
      </trkpt>
      <trkpt lat="59.8649063" lon="17.7020876">
        <ele>5.42456</ele>
        <time>2013-04-20T19:15:41Z</time>
      </trkpt>
      <trkpt lat="59.8649673" lon="17.7020126">
        <ele>6.86646</ele>
        <time>2013-04-20T19:15:42Z</time>
      </trkpt>
      <trkpt lat="59.8650213" lon="17.7019395">
        <ele>7.82788</ele>
        <time>2013-04-20T19:15:43Z</time>
      </trkpt>
      <trkpt lat="59.8650749" lon="17.7018647">
        <ele>8.78918</ele>
        <time>2013-04-20T19:15:44Z</time>
      </trkpt>
      <trkpt lat="59.8651234" lon="17.7017902">
        <ele>9.2699</ele>
        <time>2013-04-20T19:15:45Z</time>
      </trkpt>
      <trkpt lat="59.8651696" lon="17.7017192">
        <ele>10.2312</ele>
        <time>2013-04-20T19:15:46Z</time>
      </trkpt>
      <trkpt lat="59.8652111" lon="17.701649">
        <ele>10.2312</ele>
        <time>2013-04-20T19:15:47Z</time>
      </trkpt>
      <trkpt lat="59.8652535" lon="17.7015765">
        <ele>10.7118</ele>
        <time>2013-04-20T19:15:48Z</time>
      </trkpt>
      <trkpt lat="59.865292" lon="17.7015028">
        <ele>11.1925</ele>
        <time>2013-04-20T19:15:49Z</time>
      </trkpt>
      <trkpt lat="59.8653333" lon="17.701423">
        <ele>11.6732</ele>
        <time>2013-04-20T19:15:50Z</time>
      </trkpt>
      <trkpt lat="59.8653713" lon="17.7013386">
        <ele>12.1538</ele>
        <time>2013-04-20T19:15:51Z</time>
      </trkpt>
      <trkpt lat="59.8654098" lon="17.7012485">
        <ele>13.1151</ele>
        <time>2013-04-20T19:15:52Z</time>
      </trkpt>
      <trkpt lat="59.8654437" lon="17.7011152">
        <ele>13.5958</ele>
        <time>2013-04-20T19:15:53Z</time>
      </trkpt>
      <trkpt lat="59.865477" lon="17.7010019">
        <ele>14.557</ele>
        <time>2013-04-20T19:15:54Z</time>
      </trkpt>
      <trkpt lat="59.8655068" lon="17.7008706">
        <ele>15.999</ele>
        <time>2013-04-20T19:15:55Z</time>
      </trkpt>
      <trkpt lat="59.865537" lon="17.7007715">
        <ele>16.4797</ele>
        <time>2013-04-20T19:15:56Z</time>
      </trkpt>
      <trkpt lat="59.8655628" lon="17.7006862">
        <ele>16.9604</ele>
        <time>2013-04-20T19:15:57Z</time>
      </trkpt>
      <trkpt lat="59.8655862" lon="17.7006091">
        <ele>16.9604</ele>
        <time>2013-04-20T19:15:58Z</time>
      </trkpt>
      <trkpt lat="59.8656031" lon="17.7005187">
        <ele>17.4412</ele>
        <time>2013-04-20T19:15:59Z</time>
      </trkpt>
      <trkpt lat="59.8656238" lon="17.7004332">
        <ele>16.9604</ele>
        <time>2013-04-20T19:16:00Z</time>
      </trkpt>
      <trkpt lat="59.8656466" lon="17.7003547">
        <ele>16.4797</ele>
        <time>2013-04-20T19:16:01Z</time>
      </trkpt>
      <trkpt lat="59.8656814" lon="17.7002746">
        <ele>17.4412</ele>
        <time>2013-04-20T19:16:02Z</time>
      </trkpt>
      <trkpt lat="59.8657166" lon="17.7001931">
        <ele>17.9218</ele>
        <time>2013-04-20T19:16:03Z</time>
      </trkpt>
      <trkpt lat="59.8657494" lon="17.7001202">
        <ele>18.4023</ele>
        <time>2013-04-20T19:16:04Z</time>
      </trkpt>
      <trkpt lat="59.8657747" lon="17.7000415">
        <ele>17.9218</ele>
        <time>2013-04-20T19:16:05Z</time>
      </trkpt>
      <trkpt lat="59.8657973" lon="17.6999688">
        <ele>18.4023</ele>
        <time>2013-04-20T19:16:06Z</time>
      </trkpt>
      <trkpt lat="59.8658265" lon="17.6998954">
        <ele>18.4023</ele>
        <time>2013-04-20T19:16:07Z</time>
      </trkpt>
      <trkpt lat="59.8658575" lon="17.6998224">
        <ele>17.9218</ele>
        <time>2013-04-20T19:16:08Z</time>
      </trkpt>
      <trkpt lat="59.8658959" lon="17.6997415">
        <ele>17.9218</ele>
        <time>2013-04-20T19:16:09Z</time>
      </trkpt>
      <trkpt lat="59.865938" lon="17.699659">
        <ele>18.8831</ele>
        <time>2013-04-20T19:16:10Z</time>
      </trkpt>
      <trkpt lat="59.8659786" lon="17.69958">
        <ele>18.8831</ele>
        <time>2013-04-20T19:16:11Z</time>
      </trkpt>
      <trkpt lat="59.8660172" lon="17.6995024">
        <ele>18.4023</ele>
        <time>2013-04-20T19:16:12Z</time>
      </trkpt>
      <trkpt lat="59.8660575" lon="17.699422">
        <ele>17.9218</ele>
        <time>2013-04-20T19:16:13Z</time>
      </trkpt>
      <trkpt lat="59.8660975" lon="17.6993426">
        <ele>17.4412</ele>
        <time>2013-04-20T19:16:14Z</time>
      </trkpt>
      <trkpt lat="59.8661399" lon="17.6992644">
        <ele>16.9604</ele>
        <time>2013-04-20T19:16:15Z</time>
      </trkpt>
      <trkpt lat="59.8661851" lon="17.6991871">
        <ele>16.9604</ele>
        <time>2013-04-20T19:16:16Z</time>
      </trkpt>
      <trkpt lat="59.8662373" lon="17.6990815">
        <ele>16.9604</ele>
        <time>2013-04-20T19:16:17Z</time>
      </trkpt>
      <trkpt lat="59.8662896" lon="17.6990152">
        <ele>16.9604</ele>
        <time>2013-04-20T19:16:18Z</time>
      </trkpt>
      <trkpt lat="59.8663433" lon="17.6989609">
        <ele>16.9604</ele>
        <time>2013-04-20T19:16:19Z</time>
      </trkpt>
      <trkpt lat="59.8663964" lon="17.6989068">
        <ele>16.9604</ele>
        <time>2013-04-20T19:16:20Z</time>
      </trkpt>
      <trkpt lat="59.8664503" lon="17.6988552">
        <ele>16.9604</ele>
        <time>2013-04-20T19:16:21Z</time>
      </trkpt>
      <trkpt lat="59.8665067" lon="17.6987921">
        <ele>16.4797</ele>
        <time>2013-04-20T19:16:22Z</time>
      </trkpt>
      <trkpt lat="59.8665626" lon="17.6987215">
        <ele>16.4797</ele>
        <time>2013-04-20T19:16:23Z</time>
      </trkpt>
      <trkpt lat="59.8666236" lon="17.6986409">
        <ele>16.9604</ele>
        <time>2013-04-20T19:16:24Z</time>
      </trkpt>
      <trkpt lat="59.8666828" lon="17.6985533">
        <ele>16.9604</ele>
        <time>2013-04-20T19:16:25Z</time>
      </trkpt>
      <trkpt lat="59.8667361" lon="17.6984626">
        <ele>16.9604</ele>
        <time>2013-04-20T19:16:26Z</time>
      </trkpt>
      <trkpt lat="59.8667994" lon="17.6983729">
        <ele>16.9604</ele>
        <time>2013-04-20T19:16:27Z</time>
      </trkpt>
      <trkpt lat="59.8668579" lon="17.6982797">
        <ele>17.4412</ele>
        <time>2013-04-20T19:16:28Z</time>
      </trkpt>
      <trkpt lat="59.866918" lon="17.6981881">
        <ele>16.9604</ele>
        <time>2013-04-20T19:16:29Z</time>
      </trkpt>
      <trkpt lat="59.8669766" lon="17.6980996">
        <ele>16.9604</ele>
        <time>2013-04-20T19:16:30Z</time>
      </trkpt>
      <trkpt lat="59.8670371" lon="17.6980122">
        <ele>17.4412</ele>
        <time>2013-04-20T19:16:31Z</time>
      </trkpt>
      <trkpt lat="59.8670988" lon="17.6979301">
        <ele>17.4412</ele>
        <time>2013-04-20T19:16:32Z</time>
      </trkpt>
      <trkpt lat="59.867155" lon="17.6978543">
        <ele>16.9604</ele>
        <time>2013-04-20T19:16:33Z</time>
      </trkpt>
      <trkpt lat="59.867212" lon="17.6977852">
        <ele>16.4797</ele>
        <time>2013-04-20T19:16:34Z</time>
      </trkpt>
      <trkpt lat="59.8672738" lon="17.6977239">
        <ele>15.999</ele>
        <time>2013-04-20T19:16:35Z</time>
      </trkpt>
      <trkpt lat="59.8673366" lon="17.6976715">
        <ele>15.999</ele>
        <time>2013-04-20T19:16:36Z</time>
      </trkpt>
      <trkpt lat="59.8674003" lon="17.6976269">
        <ele>15.999</ele>
        <time>2013-04-20T19:16:37Z</time>
      </trkpt>
      <trkpt lat="59.8674655" lon="17.6975893">
        <ele>15.5184</ele>
        <time>2013-04-20T19:16:38Z</time>
      </trkpt>
      <trkpt lat="59.8675326" lon="17.6975548">
        <ele>15.5184</ele>
        <time>2013-04-20T19:16:39Z</time>
      </trkpt>
      <trkpt lat="59.8675966" lon="17.6975178">
        <ele>15.0377</ele>
        <time>2013-04-20T19:16:40Z</time>
      </trkpt>
      <trkpt lat="59.8676586" lon="17.6974678">
        <ele>14.557</ele>
        <time>2013-04-20T19:16:41Z</time>
      </trkpt>
      <trkpt lat="59.8677157" lon="17.6974095">
        <ele>14.0764</ele>
        <time>2013-04-20T19:16:42Z</time>
      </trkpt>
      <trkpt lat="59.8677779" lon="17.69734">
        <ele>14.0764</ele>
        <time>2013-04-20T19:16:43Z</time>
      </trkpt>
      <trkpt lat="59.8678338" lon="17.6972703">
        <ele>14.0764</ele>
        <time>2013-04-20T19:16:44Z</time>
      </trkpt>
      <trkpt lat="59.8678906" lon="17.6971945">
        <ele>14.0764</ele>
        <time>2013-04-20T19:16:45Z</time>
      </trkpt>
      <trkpt lat="59.8679487" lon="17.6971241">
        <ele>14.0764</ele>
        <time>2013-04-20T19:16:46Z</time>
      </trkpt>
      <trkpt lat="59.8680056" lon="17.6970542">
        <ele>14.0764</ele>
        <time>2013-04-20T19:16:47Z</time>
      </trkpt>
      <trkpt lat="59.8680633" lon="17.6969863">
        <ele>14.0764</ele>
        <time>2013-04-20T19:16:48Z</time>
      </trkpt>
      <trkpt lat="59.8681208" lon="17.6969199">
        <ele>14.0764</ele>
        <time>2013-04-20T19:16:49Z</time>
      </trkpt>
      <trkpt lat="59.8681791" lon="17.6968526">
        <ele>14.0764</ele>
        <time>2013-04-20T19:16:50Z</time>
      </trkpt>
      <trkpt lat="59.8682387" lon="17.6967868">
        <ele>14.0764</ele>
        <time>2013-04-20T19:16:51Z</time>
      </trkpt>
      <trkpt lat="59.8682981" lon="17.6967271">
        <ele>14.0764</ele>
        <time>2013-04-20T19:16:52Z</time>
      </trkpt>
      <trkpt lat="59.8683594" lon="17.6966766">
        <ele>14.0764</ele>
        <time>2013-04-20T19:16:53Z</time>
      </trkpt>
      <trkpt lat="59.8684231" lon="17.6966335">
        <ele>14.0764</ele>
        <time>2013-04-20T19:16:54Z</time>
      </trkpt>
      <trkpt lat="59.8684861" lon="17.696591">
        <ele>14.0764</ele>
        <time>2013-04-20T19:16:55Z</time>
      </trkpt>
      <trkpt lat="59.8685486" lon="17.6965443">
        <ele>14.0764</ele>
        <time>2013-04-20T19:16:56Z</time>
      </trkpt>
      <trkpt lat="59.8686093" lon="17.6964937">
        <ele>14.0764</ele>
        <time>2013-04-20T19:16:57Z</time>
      </trkpt>
      <trkpt lat="59.8686718" lon="17.6964418">
        <ele>14.0764</ele>
        <time>2013-04-20T19:16:58Z</time>
      </trkpt>
      <trkpt lat="59.868732" lon="17.6963854">
        <ele>14.0764</ele>
        <time>2013-04-20T19:16:59Z</time>
      </trkpt>
      <trkpt lat="59.8687948" lon="17.6963259">
        <ele>14.0764</ele>
        <time>2013-04-20T19:17:00Z</time>
      </trkpt>
      <trkpt lat="59.8688574" lon="17.6962722">
        <ele>14.557</ele>
        <time>2013-04-20T19:17:01Z</time>
      </trkpt>
      <trkpt lat="59.8689109" lon="17.6962083">
        <ele>14.0764</ele>
        <time>2013-04-20T19:17:02Z</time>
      </trkpt>
      <trkpt lat="59.8689635" lon="17.6961355">
        <ele>14.0764</ele>
        <time>2013-04-20T19:17:03Z</time>
      </trkpt>
      <trkpt lat="59.8690191" lon="17.69606">
        <ele>13.5958</ele>
        <time>2013-04-20T19:17:04Z</time>
      </trkpt>
      <trkpt lat="59.86908" lon="17.6959742">
        <ele>13.5958</ele>
        <time>2013-04-20T19:17:05Z</time>
      </trkpt>
      <trkpt lat="59.8691366" lon="17.69589">
        <ele>12.6344</ele>
        <time>2013-04-20T19:17:06Z</time>
      </trkpt>
      <trkpt lat="59.8691942" lon="17.695813">
        <ele>12.1538</ele>
        <time>2013-04-20T19:17:07Z</time>
      </trkpt>
      <trkpt lat="59.869251" lon="17.695733">
        <ele>11.6732</ele>
        <time>2013-04-20T19:17:08Z</time>
      </trkpt>
      <trkpt lat="59.8693102" lon="17.6956388">
        <ele>11.6732</ele>
        <time>2013-04-20T19:17:09Z</time>
      </trkpt>
      <trkpt lat="59.8693693" lon="17.6955462">
        <ele>11.6732</ele>
        <time>2013-04-20T19:17:10Z</time>
      </trkpt>
      <trkpt lat="59.8694297" lon="17.6954571">
        <ele>11.6732</ele>
        <time>2013-04-20T19:17:11Z</time>
      </trkpt>
      <trkpt lat="59.8694894" lon="17.6953769">
        <ele>11.6732</ele>
        <time>2013-04-20T19:17:12Z</time>
      </trkpt>
      <trkpt lat="59.8695381" lon="17.6953208">
        <ele>10.7118</ele>
        <time>2013-04-20T19:17:13Z</time>
      </trkpt>
      <trkpt lat="59.869597" lon="17.695244">
        <ele>10.7118</ele>
        <time>2013-04-20T19:17:14Z</time>
      </trkpt>
      <trkpt lat="59.8696552" lon="17.6951639">
        <ele>10.7118</ele>
        <time>2013-04-20T19:17:15Z</time>
      </trkpt>
      <trkpt lat="59.8697147" lon="17.6950853">
        <ele>10.7118</ele>
        <time>2013-04-20T19:17:16Z</time>
      </trkpt>
      <trkpt lat="59.8697748" lon="17.6950132">
        <ele>10.7118</ele>
        <time>2013-04-20T19:17:17Z</time>
      </trkpt>
      <trkpt lat="59.8698357" lon="17.6949491">
        <ele>10.7118</ele>
        <time>2013-04-20T19:17:18Z</time>
      </trkpt>
      <trkpt lat="59.8699011" lon="17.6948935">
        <ele>10.7118</ele>
        <time>2013-04-20T19:17:19Z</time>
      </trkpt>
      <trkpt lat="59.8699648" lon="17.6948395">
        <ele>10.7118</ele>
        <time>2013-04-20T19:17:20Z</time>
      </trkpt>
      <trkpt lat="59.8700263" lon="17.6947817">
        <ele>11.1925</ele>
        <time>2013-04-20T19:17:21Z</time>
      </trkpt>
      <trkpt lat="59.8700857" lon="17.6947209">
        <ele>11.1925</ele>
        <time>2013-04-20T19:17:22Z</time>
      </trkpt>
      <trkpt lat="59.8701461" lon="17.6946615">
        <ele>11.6732</ele>
        <time>2013-04-20T19:17:23Z</time>
      </trkpt>
      <trkpt lat="59.8702063" lon="17.6946014">
        <ele>12.1538</ele>
        <time>2013-04-20T19:17:24Z</time>
      </trkpt>
      <trkpt lat="59.8702674" lon="17.6945375">
        <ele>12.6344</ele>
        <time>2013-04-20T19:17:25Z</time>
      </trkpt>
      <trkpt lat="59.8703344" lon="17.6944599">
        <ele>13.1151</ele>
        <time>2013-04-20T19:17:26Z</time>
      </trkpt>
      <trkpt lat="59.870396" lon="17.6943927">
        <ele>12.6344</ele>
        <time>2013-04-20T19:17:27Z</time>
      </trkpt>
      <trkpt lat="59.8704545" lon="17.6943196">
        <ele>12.6344</ele>
        <time>2013-04-20T19:17:28Z</time>
      </trkpt>
      <trkpt lat="59.8705151" lon="17.6942596">
        <ele>13.5958</ele>
        <time>2013-04-20T19:17:29Z</time>
      </trkpt>
      <trkpt lat="59.870573" lon="17.6941951">
        <ele>13.1151</ele>
        <time>2013-04-20T19:17:30Z</time>
      </trkpt>
      <trkpt lat="59.870633" lon="17.6941332">
        <ele>13.1151</ele>
        <time>2013-04-20T19:17:31Z</time>
      </trkpt>
      <trkpt lat="59.8706892" lon="17.6940662">
        <ele>13.1151</ele>
        <time>2013-04-20T19:17:32Z</time>
      </trkpt>
      <trkpt lat="59.8707461" lon="17.693998">
        <ele>12.6344</ele>
        <time>2013-04-20T19:17:33Z</time>
      </trkpt>
      <trkpt lat="59.8708" lon="17.6939326">
        <ele>12.1538</ele>
        <time>2013-04-20T19:17:34Z</time>
      </trkpt>
      <trkpt lat="59.8708567" lon="17.6938617">
        <ele>12.1538</ele>
        <time>2013-04-20T19:17:35Z</time>
      </trkpt>
      <trkpt lat="59.8709112" lon="17.6937858">
        <ele>11.6732</ele>
        <time>2013-04-20T19:17:36Z</time>
      </trkpt>
      <trkpt lat="59.8709641" lon="17.6937133">
        <ele>11.6732</ele>
        <time>2013-04-20T19:17:37Z</time>
      </trkpt>
      <trkpt lat="59.8710128" lon="17.6936349">
        <ele>10.2312</ele>
        <time>2013-04-20T19:17:38Z</time>
      </trkpt>
      <trkpt lat="59.8710606" lon="17.693555">
        <ele>9.75061</ele>
        <time>2013-04-20T19:17:39Z</time>
      </trkpt>
      <trkpt lat="59.8711087" lon="17.6934695">
        <ele>9.2699</ele>
        <time>2013-04-20T19:17:40Z</time>
      </trkpt>
      <trkpt lat="59.8711572" lon="17.693375">
        <ele>9.2699</ele>
        <time>2013-04-20T19:17:41Z</time>
      </trkpt>
      <trkpt lat="59.8712062" lon="17.6932758">
        <ele>8.78918</ele>
        <time>2013-04-20T19:17:42Z</time>
      </trkpt>
      <trkpt lat="59.8712551" lon="17.6931712">
        <ele>8.30859</ele>
        <time>2013-04-20T19:17:43Z</time>
      </trkpt>
      <trkpt lat="59.8713035" lon="17.693064">
        <ele>8.30859</ele>
        <time>2013-04-20T19:17:44Z</time>
      </trkpt>
      <trkpt lat="59.8713504" lon="17.6929551">
        <ele>8.30859</ele>
        <time>2013-04-20T19:17:45Z</time>
      </trkpt>
      <trkpt lat="59.8714001" lon="17.692848">
        <ele>8.30859</ele>
        <time>2013-04-20T19:17:46Z</time>
      </trkpt>
      <trkpt lat="59.8714505" lon="17.6927457">
        <ele>8.78918</ele>
        <time>2013-04-20T19:17:47Z</time>
      </trkpt>
      <trkpt lat="59.8715018" lon="17.6926426">
        <ele>8.78918</ele>
        <time>2013-04-20T19:17:48Z</time>
      </trkpt>
      <trkpt lat="59.8715526" lon="17.6925385">
        <ele>8.78918</ele>
        <time>2013-04-20T19:17:49Z</time>
      </trkpt>
      <trkpt lat="59.871596" lon="17.6924376">
        <ele>7.82788</ele>
        <time>2013-04-20T19:17:50Z</time>
      </trkpt>
      <trkpt lat="59.8716436" lon="17.6923382">
        <ele>7.82788</ele>
        <time>2013-04-20T19:17:51Z</time>
      </trkpt>
      <trkpt lat="59.8716878" lon="17.6922333">
        <ele>7.34717</ele>
        <time>2013-04-20T19:17:52Z</time>
      </trkpt>
      <trkpt lat="59.8717363" lon="17.6921271">
        <ele>6.86646</ele>
        <time>2013-04-20T19:17:53Z</time>
      </trkpt>
      <trkpt lat="59.8717832" lon="17.6920237">
        <ele>6.86646</ele>
        <time>2013-04-20T19:17:54Z</time>
      </trkpt>
      <trkpt lat="59.8718276" lon="17.691918">
        <ele>6.38586</ele>
        <time>2013-04-20T19:17:55Z</time>
      </trkpt>
      <trkpt lat="59.8718742" lon="17.6918117">
        <ele>6.38586</ele>
        <time>2013-04-20T19:17:56Z</time>
      </trkpt>
      <trkpt lat="59.8719204" lon="17.6917089">
        <ele>6.86646</ele>
        <time>2013-04-20T19:17:57Z</time>
      </trkpt>
      <trkpt lat="59.8719686" lon="17.6916145">
        <ele>7.82788</ele>
        <time>2013-04-20T19:17:58Z</time>
      </trkpt>
      <trkpt lat="59.8720166" lon="17.6915109">
        <ele>8.30859</ele>
        <time>2013-04-20T19:17:59Z</time>
      </trkpt>
      <trkpt lat="59.8720626" lon="17.6914083">
        <ele>8.78918</ele>
        <time>2013-04-20T19:18:00Z</time>
      </trkpt>
      <trkpt lat="59.8721074" lon="17.6913064">
        <ele>8.78918</ele>
        <time>2013-04-20T19:18:01Z</time>
      </trkpt>
      <trkpt lat="59.8721523" lon="17.6912032">
        <ele>7.82788</ele>
        <time>2013-04-20T19:18:02Z</time>
      </trkpt>
      <trkpt lat="59.8722032" lon="17.6910956">
        <ele>8.78918</ele>
        <time>2013-04-20T19:18:03Z</time>
      </trkpt>
      <trkpt lat="59.8722519" lon="17.6909889">
        <ele>9.2699</ele>
        <time>2013-04-20T19:18:04Z</time>
      </trkpt>
      <trkpt lat="59.8722949" lon="17.6908808">
        <ele>8.78918</ele>
        <time>2013-04-20T19:18:05Z</time>
      </trkpt>
      <trkpt lat="59.8723421" lon="17.6907791">
        <ele>8.78918</ele>
        <time>2013-04-20T19:18:06Z</time>
      </trkpt>
      <trkpt lat="59.8723833" lon="17.6906798">
        <ele>9.2699</ele>
        <time>2013-04-20T19:18:07Z</time>
      </trkpt>
      <trkpt lat="59.8724217" lon="17.6905757">
        <ele>9.2699</ele>
        <time>2013-04-20T19:18:08Z</time>
      </trkpt>
      <trkpt lat="59.8724608" lon="17.6904676">
        <ele>9.75061</ele>
        <time>2013-04-20T19:18:09Z</time>
      </trkpt>
      <trkpt lat="59.8724981" lon="17.6903589">
        <ele>10.2312</ele>
        <time>2013-04-20T19:18:10Z</time>
      </trkpt>
      <trkpt lat="59.8725372" lon="17.6902528">
        <ele>11.1925</ele>
        <time>2013-04-20T19:18:11Z</time>
      </trkpt>
      <trkpt lat="59.8725732" lon="17.6901478">
        <ele>11.6732</ele>
        <time>2013-04-20T19:18:12Z</time>
      </trkpt>
      <trkpt lat="59.8726024" lon="17.6900419">
        <ele>11.6732</ele>
        <time>2013-04-20T19:18:13Z</time>
      </trkpt>
      <trkpt lat="59.8726324" lon="17.6899381">
        <ele>11.6732</ele>
        <time>2013-04-20T19:18:14Z</time>
      </trkpt>
      <trkpt lat="59.8726641" lon="17.689836">
        <ele>11.6732</ele>
        <time>2013-04-20T19:18:15Z</time>
      </trkpt>
      <trkpt lat="59.8726947" lon="17.6897372">
        <ele>11.6732</ele>
        <time>2013-04-20T19:18:16Z</time>
      </trkpt>
      <trkpt lat="59.8727259" lon="17.6896445">
        <ele>11.1925</ele>
        <time>2013-04-20T19:18:17Z</time>
      </trkpt>
      <trkpt lat="59.8727607" lon="17.6895573">
        <ele>11.1925</ele>
        <time>2013-04-20T19:18:18Z</time>
      </trkpt>
      <trkpt lat="59.8727951" lon="17.6894684">
        <ele>11.1925</ele>
        <time>2013-04-20T19:18:19Z</time>
      </trkpt>
      <trkpt lat="59.8728306" lon="17.6893765">
        <ele>10.7118</ele>
        <time>2013-04-20T19:18:20Z</time>
      </trkpt>
      <trkpt lat="59.872872" lon="17.6892743">
        <ele>11.6732</ele>
        <time>2013-04-20T19:18:21Z</time>
      </trkpt>
      <trkpt lat="59.8729158" lon="17.6891902">
        <ele>12.1538</ele>
        <time>2013-04-20T19:18:22Z</time>
      </trkpt>
      <trkpt lat="59.8729589" lon="17.6891073">
        <ele>12.1538</ele>
        <time>2013-04-20T19:18:23Z</time>
      </trkpt>
      <trkpt lat="59.8730011" lon="17.6890198">
        <ele>12.1538</ele>
        <time>2013-04-20T19:18:24Z</time>
      </trkpt>
      <trkpt lat="59.8730481" lon="17.6889329">
        <ele>12.6344</ele>
        <time>2013-04-20T19:18:25Z</time>
      </trkpt>
      <trkpt lat="59.8730966" lon="17.6888502">
        <ele>13.1151</ele>
        <time>2013-04-20T19:18:26Z</time>
      </trkpt>
      <trkpt lat="59.873145" lon="17.6887753">
        <ele>13.1151</ele>
        <time>2013-04-20T19:18:27Z</time>
      </trkpt>
      <trkpt lat="59.873195" lon="17.6887064">
        <ele>13.1151</ele>
        <time>2013-04-20T19:18:28Z</time>
      </trkpt>
      <trkpt lat="59.8732463" lon="17.688642">
        <ele>13.1151</ele>
        <time>2013-04-20T19:18:29Z</time>
      </trkpt>
      <trkpt lat="59.8732986" lon="17.6885799">
        <ele>13.1151</ele>
        <time>2013-04-20T19:18:30Z</time>
      </trkpt>
      <trkpt lat="59.8733491" lon="17.6885179">
        <ele>13.1151</ele>
        <time>2013-04-20T19:18:31Z</time>
      </trkpt>
      <trkpt lat="59.8733992" lon="17.6884577">
        <ele>13.1151</ele>
        <time>2013-04-20T19:18:32Z</time>
      </trkpt>
      <trkpt lat="59.8734501" lon="17.6884001">
        <ele>13.1151</ele>
        <time>2013-04-20T19:18:33Z</time>
      </trkpt>
      <trkpt lat="59.873503" lon="17.6883459">
        <ele>13.5958</ele>
        <time>2013-04-20T19:18:34Z</time>
      </trkpt>
      <trkpt lat="59.8735566" lon="17.6882936">
        <ele>13.5958</ele>
        <time>2013-04-20T19:18:35Z</time>
      </trkpt>
      <trkpt lat="59.8736097" lon="17.6882424">
        <ele>13.5958</ele>
        <time>2013-04-20T19:18:36Z</time>
      </trkpt>
      <trkpt lat="59.8736629" lon="17.6881914">
        <ele>13.5958</ele>
        <time>2013-04-20T19:18:37Z</time>
      </trkpt>
      <trkpt lat="59.8737146" lon="17.6881422">
        <ele>14.0764</ele>
        <time>2013-04-20T19:18:38Z</time>
      </trkpt>
      <trkpt lat="59.8737645" lon="17.6880927">
        <ele>14.0764</ele>
        <time>2013-04-20T19:18:39Z</time>
      </trkpt>
      <trkpt lat="59.8738123" lon="17.6880356">
        <ele>14.0764</ele>
        <time>2013-04-20T19:18:40Z</time>
      </trkpt>
      <trkpt lat="59.8738545" lon="17.6879626">
        <ele>14.557</ele>
        <time>2013-04-20T19:18:41Z</time>
      </trkpt>
      <trkpt lat="59.8738862" lon="17.687871">
        <ele>15.0377</ele>
        <time>2013-04-20T19:18:42Z</time>
      </trkpt>
      <trkpt lat="59.8739008" lon="17.6877652">
        <ele>15.0377</ele>
        <time>2013-04-20T19:18:43Z</time>
      </trkpt>
      <trkpt lat="59.8739078" lon="17.6876496">
        <ele>15.0377</ele>
        <time>2013-04-20T19:18:44Z</time>
      </trkpt>
      <trkpt lat="59.8739242" lon="17.6875304">
        <ele>15.5184</ele>
        <time>2013-04-20T19:18:45Z</time>
      </trkpt>
      <trkpt lat="59.8739492" lon="17.6874179">
        <ele>15.5184</ele>
        <time>2013-04-20T19:18:46Z</time>
      </trkpt>
      <trkpt lat="59.8739858" lon="17.6873165">
        <ele>15.999</ele>
        <time>2013-04-20T19:18:47Z</time>
      </trkpt>
      <trkpt lat="59.874028" lon="17.6872228">
        <ele>15.999</ele>
        <time>2013-04-20T19:18:48Z</time>
      </trkpt>
      <trkpt lat="59.8740711" lon="17.6871316">
        <ele>15.999</ele>
        <time>2013-04-20T19:18:49Z</time>
      </trkpt>
      <trkpt lat="59.8741134" lon="17.6870396">
        <ele>15.5184</ele>
        <time>2013-04-20T19:18:50Z</time>
      </trkpt>
      <trkpt lat="59.8741556" lon="17.6869455">
        <ele>15.5184</ele>
        <time>2013-04-20T19:18:51Z</time>
      </trkpt>
      <trkpt lat="59.8741991" lon="17.6868524">
        <ele>15.0377</ele>
        <time>2013-04-20T19:18:52Z</time>
      </trkpt>
      <trkpt lat="59.8742414" lon="17.686758">
        <ele>14.557</ele>
        <time>2013-04-20T19:18:53Z</time>
      </trkpt>
      <trkpt lat="59.8742856" lon="17.6866587">
        <ele>14.557</ele>
        <time>2013-04-20T19:18:54Z</time>
      </trkpt>
      <trkpt lat="59.8743305" lon="17.6865609">
        <ele>14.557</ele>
        <time>2013-04-20T19:18:55Z</time>
      </trkpt>
      <trkpt lat="59.8743767" lon="17.6864601">
        <ele>14.0764</ele>
        <time>2013-04-20T19:18:56Z</time>
      </trkpt>
      <trkpt lat="59.8744219" lon="17.6863624">
        <ele>14.0764</ele>
        <time>2013-04-20T19:18:57Z</time>
      </trkpt>
      <trkpt lat="59.8744664" lon="17.6862645">
        <ele>14.0764</ele>
        <time>2013-04-20T19:18:58Z</time>
      </trkpt>
      <trkpt lat="59.8745104" lon="17.6861638">
        <ele>13.5958</ele>
        <time>2013-04-20T19:18:59Z</time>
      </trkpt>
      <trkpt lat="59.8745537" lon="17.6860633">
        <ele>13.1151</ele>
        <time>2013-04-20T19:19:00Z</time>
      </trkpt>
      <trkpt lat="59.874597" lon="17.6859636">
        <ele>13.1151</ele>
        <time>2013-04-20T19:19:01Z</time>
      </trkpt>
      <trkpt lat="59.8746403" lon="17.6858671">
        <ele>12.6344</ele>
        <time>2013-04-20T19:19:02Z</time>
      </trkpt>
      <trkpt lat="59.8746845" lon="17.6857719">
        <ele>12.6344</ele>
        <time>2013-04-20T19:19:03Z</time>
      </trkpt>
      <trkpt lat="59.8747294" lon="17.6856766">
        <ele>12.1538</ele>
        <time>2013-04-20T19:19:04Z</time>
      </trkpt>
      <trkpt lat="59.8747732" lon="17.6855813">
        <ele>12.1538</ele>
        <time>2013-04-20T19:19:05Z</time>
      </trkpt>
      <trkpt lat="59.8748181" lon="17.6854862">
        <ele>12.1538</ele>
        <time>2013-04-20T19:19:06Z</time>
      </trkpt>
      <trkpt lat="59.8748621" lon="17.6853944">
        <ele>11.6732</ele>
        <time>2013-04-20T19:19:07Z</time>
      </trkpt>
      <trkpt lat="59.8749058" lon="17.6853008">
        <ele>11.6732</ele>
        <time>2013-04-20T19:19:08Z</time>
      </trkpt>
      <trkpt lat="59.8749498" lon="17.6852005">
        <ele>12.1538</ele>
        <time>2013-04-20T19:19:09Z</time>
      </trkpt>
      <trkpt lat="59.8749918" lon="17.6851019">
        <ele>12.1538</ele>
        <time>2013-04-20T19:19:10Z</time>
      </trkpt>
      <trkpt lat="59.8750326" lon="17.6850046">
        <ele>12.1538</ele>
        <time>2013-04-20T19:19:11Z</time>
      </trkpt>
      <trkpt lat="59.8750754" lon="17.6849098">
        <ele>12.6344</ele>
        <time>2013-04-20T19:19:12Z</time>
      </trkpt>
      <trkpt lat="59.8751191" lon="17.6848173">
        <ele>12.6344</ele>
        <time>2013-04-20T19:19:13Z</time>
      </trkpt>
      <trkpt lat="59.875162" lon="17.684729">
        <ele>12.6344</ele>
        <time>2013-04-20T19:19:14Z</time>
      </trkpt>
      <trkpt lat="59.8752052" lon="17.6846389">
        <ele>12.6344</ele>
        <time>2013-04-20T19:19:15Z</time>
      </trkpt>
      <trkpt lat="59.8752476" lon="17.6845509">
        <ele>12.6344</ele>
        <time>2013-04-20T19:19:16Z</time>
      </trkpt>
      <trkpt lat="59.8752891" lon="17.6844629">
        <ele>12.6344</ele>
        <time>2013-04-20T19:19:17Z</time>
      </trkpt>
      <trkpt lat="59.875329" lon="17.6843733">
        <ele>12.6344</ele>
        <time>2013-04-20T19:19:18Z</time>
      </trkpt>
      <trkpt lat="59.8753684" lon="17.6842865">
        <ele>12.6344</ele>
        <time>2013-04-20T19:19:19Z</time>
      </trkpt>
      <trkpt lat="59.8754086" lon="17.6841998">
        <ele>12.6344</ele>
        <time>2013-04-20T19:19:20Z</time>
      </trkpt>
      <trkpt lat="59.8754504" lon="17.6841137">
        <ele>13.1151</ele>
        <time>2013-04-20T19:19:21Z</time>
      </trkpt>
      <trkpt lat="59.8754924" lon="17.6840277">
        <ele>13.1151</ele>
        <time>2013-04-20T19:19:22Z</time>
      </trkpt>
      <trkpt lat="59.8755303" lon="17.6839398">
        <ele>13.1151</ele>
        <time>2013-04-20T19:19:23Z</time>
      </trkpt>
      <trkpt lat="59.8755662" lon="17.683854">
        <ele>12.6344</ele>
        <time>2013-04-20T19:19:24Z</time>
      </trkpt>
      <trkpt lat="59.8755982" lon="17.6837362">
        <ele>13.1151</ele>
        <time>2013-04-20T19:19:25Z</time>
      </trkpt>
      <trkpt lat="59.8756262" lon="17.6836879">
        <ele>12.6344</ele>
        <time>2013-04-20T19:19:26Z</time>
      </trkpt>
      <trkpt lat="59.875664" lon="17.6836148">
        <ele>12.1538</ele>
        <time>2013-04-20T19:19:27Z</time>
      </trkpt>
      <trkpt lat="59.8757008" lon="17.6835323">
        <ele>12.1538</ele>
        <time>2013-04-20T19:19:28Z</time>
      </trkpt>
      <trkpt lat="59.8757397" lon="17.6834486">
        <ele>11.6732</ele>
        <time>2013-04-20T19:19:29Z</time>
      </trkpt>
      <trkpt lat="59.8757762" lon="17.6833662">
        <ele>11.6732</ele>
        <time>2013-04-20T19:19:30Z</time>
      </trkpt>
      <trkpt lat="59.8758163" lon="17.6832777">
        <ele>11.6732</ele>
        <time>2013-04-20T19:19:31Z</time>
      </trkpt>
      <trkpt lat="59.8758578" lon="17.6831874">
        <ele>11.6732</ele>
        <time>2013-04-20T19:19:32Z</time>
      </trkpt>
      <trkpt lat="59.8758991" lon="17.6830969">
        <ele>12.1538</ele>
        <time>2013-04-20T19:19:33Z</time>
      </trkpt>
      <trkpt lat="59.8759396" lon="17.6830073">
        <ele>12.1538</ele>
        <time>2013-04-20T19:19:34Z</time>
      </trkpt>
      <trkpt lat="59.8759804" lon="17.6829209">
        <ele>12.6344</ele>
        <time>2013-04-20T19:19:35Z</time>
      </trkpt>
      <trkpt lat="59.8760216" lon="17.6828374">
        <ele>12.6344</ele>
        <time>2013-04-20T19:19:36Z</time>
      </trkpt>
      <trkpt lat="59.8760614" lon="17.6827534">
        <ele>12.6344</ele>
        <time>2013-04-20T19:19:37Z</time>
      </trkpt>
      <trkpt lat="59.876101" lon="17.6826674">
        <ele>13.1151</ele>
        <time>2013-04-20T19:19:38Z</time>
      </trkpt>
      <trkpt lat="59.8761414" lon="17.6825819">
        <ele>13.1151</ele>
        <time>2013-04-20T19:19:39Z</time>
      </trkpt>
      <trkpt lat="59.8761824" lon="17.6824979">
        <ele>13.5958</ele>
        <time>2013-04-20T19:19:40Z</time>
      </trkpt>
      <trkpt lat="59.8762226" lon="17.6824135">
        <ele>13.5958</ele>
        <time>2013-04-20T19:19:41Z</time>
      </trkpt>
      <trkpt lat="59.8762617" lon="17.6823293">
        <ele>13.5958</ele>
        <time>2013-04-20T19:19:42Z</time>
      </trkpt>
      <trkpt lat="59.8763011" lon="17.682244">
        <ele>13.5958</ele>
        <time>2013-04-20T19:19:43Z</time>
      </trkpt>
      <trkpt lat="59.8763416" lon="17.6821586">
        <ele>13.5958</ele>
        <time>2013-04-20T19:19:44Z</time>
      </trkpt>
      <trkpt lat="59.8763824" lon="17.6820734">
        <ele>13.5958</ele>
        <time>2013-04-20T19:19:45Z</time>
      </trkpt>
      <trkpt lat="59.8764223" lon="17.6819862">
        <ele>13.5958</ele>
        <time>2013-04-20T19:19:46Z</time>
      </trkpt>
      <trkpt lat="59.8764628" lon="17.6818975">
        <ele>13.5958</ele>
        <time>2013-04-20T19:19:47Z</time>
      </trkpt>
      <trkpt lat="59.8765041" lon="17.6818086">
        <ele>13.5958</ele>
        <time>2013-04-20T19:19:48Z</time>
      </trkpt>
      <trkpt lat="59.876547" lon="17.681721">
        <ele>14.0764</ele>
        <time>2013-04-20T19:19:49Z</time>
      </trkpt>
      <trkpt lat="59.8765895" lon="17.6816351">
        <ele>14.0764</ele>
        <time>2013-04-20T19:19:50Z</time>
      </trkpt>
      <trkpt lat="59.876631" lon="17.6815463">
        <ele>14.0764</ele>
        <time>2013-04-20T19:19:51Z</time>
      </trkpt>
      <trkpt lat="59.8766721" lon="17.6814573">
        <ele>13.5958</ele>
        <time>2013-04-20T19:19:52Z</time>
      </trkpt>
      <trkpt lat="59.8767134" lon="17.6813673">
        <ele>13.5958</ele>
        <time>2013-04-20T19:19:53Z</time>
      </trkpt>
      <trkpt lat="59.8767659" lon="17.6812242">
        <ele>14.557</ele>
        <time>2013-04-20T19:19:54Z</time>
      </trkpt>
      <trkpt lat="59.876813" lon="17.6811402">
        <ele>15.0377</ele>
        <time>2013-04-20T19:19:55Z</time>
      </trkpt>
      <trkpt lat="59.876854" lon="17.6810521">
        <ele>15.0377</ele>
        <time>2013-04-20T19:19:56Z</time>
      </trkpt>
      <trkpt lat="59.8768951" lon="17.6809647">
        <ele>15.5184</ele>
        <time>2013-04-20T19:19:57Z</time>
      </trkpt>
      <trkpt lat="59.8769384" lon="17.6808687">
        <ele>15.999</ele>
        <time>2013-04-20T19:19:58Z</time>
      </trkpt>
      <trkpt lat="59.8769745" lon="17.6807802">
        <ele>15.999</ele>
        <time>2013-04-20T19:19:59Z</time>
      </trkpt>
      <trkpt lat="59.8770098" lon="17.6806886">
        <ele>15.999</ele>
        <time>2013-04-20T19:20:00Z</time>
      </trkpt>
      <trkpt lat="59.8770445" lon="17.6805965">
        <ele>15.5184</ele>
        <time>2013-04-20T19:20:01Z</time>
      </trkpt>
      <trkpt lat="59.8770793" lon="17.6805045">
        <ele>15.5184</ele>
        <time>2013-04-20T19:20:02Z</time>
      </trkpt>
      <trkpt lat="59.8771213" lon="17.6804229">
        <ele>15.0377</ele>
        <time>2013-04-20T19:20:03Z</time>
      </trkpt>
      <trkpt lat="59.8771733" lon="17.6803478">
        <ele>15.5184</ele>
        <time>2013-04-20T19:20:04Z</time>
      </trkpt>
      <trkpt lat="59.8772222" lon="17.6802732">
        <ele>15.999</ele>
        <time>2013-04-20T19:20:05Z</time>
      </trkpt>
      <trkpt lat="59.8772664" lon="17.6801946">
        <ele>15.999</ele>
        <time>2013-04-20T19:20:06Z</time>
      </trkpt>
      <trkpt lat="59.877304" lon="17.680107">
        <ele>16.4797</ele>
        <time>2013-04-20T19:20:07Z</time>
      </trkpt>
      <trkpt lat="59.8773296" lon="17.6800037">
        <ele>16.4797</ele>
        <time>2013-04-20T19:20:08Z</time>
      </trkpt>
      <trkpt lat="59.8773472" lon="17.6798925">
        <ele>16.9604</ele>
        <time>2013-04-20T19:20:09Z</time>
      </trkpt>
      <trkpt lat="59.8773714" lon="17.6797708">
        <ele>18.8831</ele>
        <time>2013-04-20T19:20:10Z</time>
      </trkpt>
      <trkpt lat="59.8773947" lon="17.6796512">
        <ele>19.8444</ele>
        <time>2013-04-20T19:20:11Z</time>
      </trkpt>
      <trkpt lat="59.8774214" lon="17.6795444">
        <ele>19.8444</ele>
        <time>2013-04-20T19:20:12Z</time>
      </trkpt>
      <trkpt lat="59.8774559" lon="17.6794418">
        <ele>19.8444</ele>
        <time>2013-04-20T19:20:13Z</time>
      </trkpt>
      <trkpt lat="59.8774983" lon="17.6793458">
        <ele>19.3638</ele>
        <time>2013-04-20T19:20:14Z</time>
      </trkpt>
      <trkpt lat="59.8775439" lon="17.6792517">
        <ele>18.8831</ele>
        <time>2013-04-20T19:20:15Z</time>
      </trkpt>
      <trkpt lat="59.87759" lon="17.6791593">
        <ele>18.4023</ele>
        <time>2013-04-20T19:20:16Z</time>
      </trkpt>
      <trkpt lat="59.8776387" lon="17.6790708">
        <ele>18.4023</ele>
        <time>2013-04-20T19:20:17Z</time>
      </trkpt>
      <trkpt lat="59.8776905" lon="17.6789885">
        <ele>17.9218</ele>
        <time>2013-04-20T19:20:18Z</time>
      </trkpt>
      <trkpt lat="59.8777448" lon="17.6789145">
        <ele>17.9218</ele>
        <time>2013-04-20T19:20:19Z</time>
      </trkpt>
      <trkpt lat="59.8777934" lon="17.6788419">
        <ele>17.4412</ele>
        <time>2013-04-20T19:20:20Z</time>
      </trkpt>
      <trkpt lat="59.8778445" lon="17.6787656">
        <ele>16.9604</ele>
        <time>2013-04-20T19:20:21Z</time>
      </trkpt>
      <trkpt lat="59.8778945" lon="17.6786823">
        <ele>16.4797</ele>
        <time>2013-04-20T19:20:22Z</time>
      </trkpt>
      <trkpt lat="59.8779415" lon="17.6785917">
        <ele>15.999</ele>
        <time>2013-04-20T19:20:23Z</time>
      </trkpt>
      <trkpt lat="59.8779925" lon="17.6784942">
        <ele>16.4797</ele>
        <time>2013-04-20T19:20:24Z</time>
      </trkpt>
      <trkpt lat="59.8780426" lon="17.6783902">
        <ele>16.9604</ele>
        <time>2013-04-20T19:20:25Z</time>
      </trkpt>
      <trkpt lat="59.8780873" lon="17.6782866">
        <ele>16.4797</ele>
        <time>2013-04-20T19:20:26Z</time>
      </trkpt>
      <trkpt lat="59.8781365" lon="17.6781771">
        <ele>16.4797</ele>
        <time>2013-04-20T19:20:27Z</time>
      </trkpt>
      <trkpt lat="59.8781857" lon="17.6780639">
        <ele>16.4797</ele>
        <time>2013-04-20T19:20:28Z</time>
      </trkpt>
      <trkpt lat="59.8782334" lon="17.6779509">
        <ele>16.9604</ele>
        <time>2013-04-20T19:20:29Z</time>
      </trkpt>
      <trkpt lat="59.8782795" lon="17.6778422">
        <ele>16.9604</ele>
        <time>2013-04-20T19:20:30Z</time>
      </trkpt>
      <trkpt lat="59.8783225" lon="17.6777392">
        <ele>16.9604</ele>
        <time>2013-04-20T19:20:31Z</time>
      </trkpt>
      <trkpt lat="59.8783666" lon="17.6776346">
        <ele>17.4412</ele>
        <time>2013-04-20T19:20:32Z</time>
      </trkpt>
      <trkpt lat="59.8784075" lon="17.6775275">
        <ele>17.9218</ele>
        <time>2013-04-20T19:20:33Z</time>
      </trkpt>
      <trkpt lat="59.8784494" lon="17.6774231">
        <ele>17.9218</ele>
        <time>2013-04-20T19:20:34Z</time>
      </trkpt>
      <trkpt lat="59.8784929" lon="17.6773203">
        <ele>18.4023</ele>
        <time>2013-04-20T19:20:35Z</time>
      </trkpt>
      <trkpt lat="59.8785374" lon="17.6772195">
        <ele>18.4023</ele>
        <time>2013-04-20T19:20:36Z</time>
      </trkpt>
      <trkpt lat="59.8785802" lon="17.6771188">
        <ele>18.4023</ele>
        <time>2013-04-20T19:20:37Z</time>
      </trkpt>
      <trkpt lat="59.8786234" lon="17.6770195">
        <ele>18.4023</ele>
        <time>2013-04-20T19:20:38Z</time>
      </trkpt>
      <trkpt lat="59.8786664" lon="17.6769212">
        <ele>18.4023</ele>
        <time>2013-04-20T19:20:39Z</time>
      </trkpt>
      <trkpt lat="59.8787099" lon="17.6768237">
        <ele>18.4023</ele>
        <time>2013-04-20T19:20:40Z</time>
      </trkpt>
      <trkpt lat="59.8787544" lon="17.6767269">
        <ele>18.8831</ele>
        <time>2013-04-20T19:20:41Z</time>
      </trkpt>
      <trkpt lat="59.8787999" lon="17.6766322">
        <ele>18.8831</ele>
        <time>2013-04-20T19:20:42Z</time>
      </trkpt>
      <trkpt lat="59.8788477" lon="17.6765399">
        <ele>18.8831</ele>
        <time>2013-04-20T19:20:43Z</time>
      </trkpt>
      <trkpt lat="59.8788976" lon="17.6764496">
        <ele>18.8831</ele>
        <time>2013-04-20T19:20:44Z</time>
      </trkpt>
      <trkpt lat="59.878948" lon="17.6763633">
        <ele>19.3638</ele>
        <time>2013-04-20T19:20:45Z</time>
      </trkpt>
      <trkpt lat="59.8789993" lon="17.6762809">
        <ele>19.3638</ele>
        <time>2013-04-20T19:20:46Z</time>
      </trkpt>
      <trkpt lat="59.8790509" lon="17.6761985">
        <ele>19.3638</ele>
        <time>2013-04-20T19:20:47Z</time>
      </trkpt>
      <trkpt lat="59.8791035" lon="17.6761166">
        <ele>19.3638</ele>
        <time>2013-04-20T19:20:48Z</time>
      </trkpt>
      <trkpt lat="59.8791584" lon="17.6760358">
        <ele>19.3638</ele>
        <time>2013-04-20T19:20:49Z</time>
      </trkpt>
      <trkpt lat="59.879213" lon="17.6759534">
        <ele>19.3638</ele>
        <time>2013-04-20T19:20:50Z</time>
      </trkpt>
      <trkpt lat="59.8792674" lon="17.6758721">
        <ele>18.8831</ele>
        <time>2013-04-20T19:20:51Z</time>
      </trkpt>
      <trkpt lat="59.8793202" lon="17.6757888">
        <ele>18.8831</ele>
        <time>2013-04-20T19:20:52Z</time>
      </trkpt>
      <trkpt lat="59.8793728" lon="17.6757044">
        <ele>18.4023</ele>
        <time>2013-04-20T19:20:53Z</time>
      </trkpt>
      <trkpt lat="59.8794269" lon="17.6756246">
        <ele>18.4023</ele>
        <time>2013-04-20T19:20:54Z</time>
      </trkpt>
      <trkpt lat="59.8794813" lon="17.6755458">
        <ele>18.4023</ele>
        <time>2013-04-20T19:20:55Z</time>
      </trkpt>
      <trkpt lat="59.8795356" lon="17.6754657">
        <ele>18.4023</ele>
        <time>2013-04-20T19:20:56Z</time>
      </trkpt>
      <trkpt lat="59.8795914" lon="17.6753847">
        <ele>17.9218</ele>
        <time>2013-04-20T19:20:57Z</time>
      </trkpt>
      <trkpt lat="59.8796494" lon="17.6753028">
        <ele>17.9218</ele>
        <time>2013-04-20T19:20:58Z</time>
      </trkpt>
      <trkpt lat="59.8797082" lon="17.6752201">
        <ele>17.9218</ele>
        <time>2013-04-20T19:20:59Z</time>
      </trkpt>
      <trkpt lat="59.879767" lon="17.6751362">
        <ele>17.9218</ele>
        <time>2013-04-20T19:21:00Z</time>
      </trkpt>
      <trkpt lat="59.8798236" lon="17.6750513">
        <ele>17.4412</ele>
        <time>2013-04-20T19:21:01Z</time>
      </trkpt>
      <trkpt lat="59.8798822" lon="17.6749652">
        <ele>16.9604</ele>
        <time>2013-04-20T19:21:02Z</time>
      </trkpt>
      <trkpt lat="59.8799426" lon="17.6748824">
        <ele>16.9604</ele>
        <time>2013-04-20T19:21:03Z</time>
      </trkpt>
      <trkpt lat="59.8800059" lon="17.6748035">
        <ele>16.9604</ele>
        <time>2013-04-20T19:21:04Z</time>
      </trkpt>
      <trkpt lat="59.88007" lon="17.6747278">
        <ele>16.9604</ele>
        <time>2013-04-20T19:21:05Z</time>
      </trkpt>
      <trkpt lat="59.8801379" lon="17.6746558">
        <ele>16.9604</ele>
        <time>2013-04-20T19:21:06Z</time>
      </trkpt>
      <trkpt lat="59.8802047" lon="17.674589">
        <ele>17.4412</ele>
        <time>2013-04-20T19:21:07Z</time>
      </trkpt>
      <trkpt lat="59.8802733" lon="17.6745295">
        <ele>18.4023</ele>
        <time>2013-04-20T19:21:08Z</time>
      </trkpt>
      <trkpt lat="59.8803378" lon="17.6744715">
        <ele>18.4023</ele>
        <time>2013-04-20T19:21:09Z</time>
      </trkpt>
      <trkpt lat="59.8804054" lon="17.6744166">
        <ele>19.8444</ele>
        <time>2013-04-20T19:21:10Z</time>
      </trkpt>
      <trkpt lat="59.8804665" lon="17.6743632">
        <ele>19.8444</ele>
        <time>2013-04-20T19:21:11Z</time>
      </trkpt>
      <trkpt lat="59.8805277" lon="17.6743123">
        <ele>19.8444</ele>
        <time>2013-04-20T19:21:12Z</time>
      </trkpt>
      <trkpt lat="59.8805886" lon="17.6742621">
        <ele>19.3638</ele>
        <time>2013-04-20T19:21:13Z</time>
      </trkpt>
      <trkpt lat="59.8806493" lon="17.6742082">
        <ele>19.3638</ele>
        <time>2013-04-20T19:21:14Z</time>
      </trkpt>
      <trkpt lat="59.8807095" lon="17.6741524">
        <ele>19.3638</ele>
        <time>2013-04-20T19:21:15Z</time>
      </trkpt>
      <trkpt lat="59.8807686" lon="17.6740954">
        <ele>19.3638</ele>
        <time>2013-04-20T19:21:16Z</time>
      </trkpt>
      <trkpt lat="59.8808307" lon="17.67404">
        <ele>19.3638</ele>
        <time>2013-04-20T19:21:17Z</time>
      </trkpt>
      <trkpt lat="59.8808927" lon="17.6739804">
        <ele>19.3638</ele>
        <time>2013-04-20T19:21:18Z</time>
      </trkpt>
      <trkpt lat="59.8809551" lon="17.6739193">
        <ele>19.3638</ele>
        <time>2013-04-20T19:21:19Z</time>
      </trkpt>
      <trkpt lat="59.8810187" lon="17.6738592">
        <ele>19.3638</ele>
        <time>2013-04-20T19:21:20Z</time>
      </trkpt>
      <trkpt lat="59.8810803" lon="17.6737977">
        <ele>19.3638</ele>
        <time>2013-04-20T19:21:21Z</time>
      </trkpt>
      <trkpt lat="59.8811405" lon="17.6737389">
        <ele>19.3638</ele>
        <time>2013-04-20T19:21:22Z</time>
      </trkpt>
      <trkpt lat="59.8812008" lon="17.6736831">
        <ele>19.8444</ele>
        <time>2013-04-20T19:21:23Z</time>
      </trkpt>
      <trkpt lat="59.8812596" lon="17.6736235">
        <ele>19.8444</ele>
        <time>2013-04-20T19:21:24Z</time>
      </trkpt>
      <trkpt lat="59.8813115" lon="17.6735531">
        <ele>19.3638</ele>
        <time>2013-04-20T19:21:25Z</time>
      </trkpt>
      <trkpt lat="59.881373" lon="17.6734578">
        <ele>20.325</ele>
        <time>2013-04-20T19:21:26Z</time>
      </trkpt>
      <trkpt lat="59.8814335" lon="17.6733827">
        <ele>20.8057</ele>
        <time>2013-04-20T19:21:27Z</time>
      </trkpt>
      <trkpt lat="59.8814958" lon="17.6733328">
        <ele>21.2864</ele>
        <time>2013-04-20T19:21:28Z</time>
      </trkpt>
      <trkpt lat="59.8815564" lon="17.6733061">
        <ele>20.8057</ele>
        <time>2013-04-20T19:21:29Z</time>
      </trkpt>
      <trkpt lat="59.8816186" lon="17.6732842">
        <ele>20.8057</ele>
        <time>2013-04-20T19:21:30Z</time>
      </trkpt>
      <trkpt lat="59.8816813" lon="17.6732527">
        <ele>20.8057</ele>
        <time>2013-04-20T19:21:31Z</time>
      </trkpt>
      <trkpt lat="59.8817429" lon="17.6732126">
        <ele>20.8057</ele>
        <time>2013-04-20T19:21:32Z</time>
      </trkpt>
      <trkpt lat="59.8818045" lon="17.6731669">
        <ele>21.2864</ele>
        <time>2013-04-20T19:21:33Z</time>
      </trkpt>
      <trkpt lat="59.881865" lon="17.673118">
        <ele>21.2864</ele>
        <time>2013-04-20T19:21:34Z</time>
      </trkpt>
      <trkpt lat="59.8819247" lon="17.6730671">
        <ele>21.2864</ele>
        <time>2013-04-20T19:21:35Z</time>
      </trkpt>
      <trkpt lat="59.8819843" lon="17.673012">
        <ele>21.2864</ele>
        <time>2013-04-20T19:21:36Z</time>
      </trkpt>
      <trkpt lat="59.8820413" lon="17.6729479">
        <ele>21.2864</ele>
        <time>2013-04-20T19:21:37Z</time>
      </trkpt>
      <trkpt lat="59.8820934" lon="17.6728733">
        <ele>21.2864</ele>
        <time>2013-04-20T19:21:38Z</time>
      </trkpt>
      <trkpt lat="59.8821366" lon="17.6727823">
        <ele>21.2864</ele>
        <time>2013-04-20T19:21:39Z</time>
      </trkpt>
      <trkpt lat="59.8821761" lon="17.6726828">
        <ele>21.2864</ele>
        <time>2013-04-20T19:21:40Z</time>
      </trkpt>
      <trkpt lat="59.8822172" lon="17.6725847">
        <ele>21.2864</ele>
        <time>2013-04-20T19:21:41Z</time>
      </trkpt>
      <trkpt lat="59.8822629" lon="17.672494">
        <ele>21.2864</ele>
        <time>2013-04-20T19:21:42Z</time>
      </trkpt>
      <trkpt lat="59.8823153" lon="17.6724213">
        <ele>21.2864</ele>
        <time>2013-04-20T19:21:43Z</time>
      </trkpt>
      <trkpt lat="59.8823752" lon="17.6723679">
        <ele>21.2864</ele>
        <time>2013-04-20T19:21:44Z</time>
      </trkpt>
      <trkpt lat="59.8824381" lon="17.6723221">
        <ele>20.8057</ele>
        <time>2013-04-20T19:21:45Z</time>
      </trkpt>
      <trkpt lat="59.8825013" lon="17.6722728">
        <ele>20.8057</ele>
        <time>2013-04-20T19:21:46Z</time>
      </trkpt>
      <trkpt lat="59.8825645" lon="17.6722201">
        <ele>20.8057</ele>
        <time>2013-04-20T19:21:47Z</time>
      </trkpt>
      <trkpt lat="59.8826285" lon="17.6721679">
        <ele>20.8057</ele>
        <time>2013-04-20T19:21:48Z</time>
      </trkpt>
      <trkpt lat="59.8826938" lon="17.6721167">
        <ele>20.8057</ele>
        <time>2013-04-20T19:21:49Z</time>
      </trkpt>
      <trkpt lat="59.8827582" lon="17.6720627">
        <ele>20.8057</ele>
        <time>2013-04-20T19:21:50Z</time>
      </trkpt>
      <trkpt lat="59.8828238" lon="17.6720064">
        <ele>20.8057</ele>
        <time>2013-04-20T19:21:51Z</time>
      </trkpt>
      <trkpt lat="59.8828892" lon="17.6719504">
        <ele>20.8057</ele>
        <time>2013-04-20T19:21:52Z</time>
      </trkpt>
      <trkpt lat="59.8829551" lon="17.671894">
        <ele>21.2864</ele>
        <time>2013-04-20T19:21:53Z</time>
      </trkpt>
      <trkpt lat="59.8830201" lon="17.6718348">
        <ele>20.8057</ele>
        <time>2013-04-20T19:21:54Z</time>
      </trkpt>
      <trkpt lat="59.8830845" lon="17.6717715">
        <ele>20.8057</ele>
        <time>2013-04-20T19:21:55Z</time>
      </trkpt>
      <trkpt lat="59.8831486" lon="17.6717044">
        <ele>20.8057</ele>
        <time>2013-04-20T19:21:56Z</time>
      </trkpt>
      <trkpt lat="59.8832135" lon="17.6716369">
        <ele>20.8057</ele>
        <time>2013-04-20T19:21:57Z</time>
      </trkpt>
      <trkpt lat="59.8832779" lon="17.6715692">
        <ele>20.8057</ele>
        <time>2013-04-20T19:21:58Z</time>
      </trkpt>
      <trkpt lat="59.8833431" lon="17.6715005">
        <ele>20.8057</ele>
        <time>2013-04-20T19:21:59Z</time>
      </trkpt>
      <trkpt lat="59.8834083" lon="17.6714281">
        <ele>20.8057</ele>
        <time>2013-04-20T19:22:00Z</time>
      </trkpt>
      <trkpt lat="59.8834734" lon="17.671353">
        <ele>20.325</ele>
        <time>2013-04-20T19:22:01Z</time>
      </trkpt>
      <trkpt lat="59.8835394" lon="17.6712783">
        <ele>20.325</ele>
        <time>2013-04-20T19:22:02Z</time>
      </trkpt>
      <trkpt lat="59.8836063" lon="17.6712074">
        <ele>20.325</ele>
        <time>2013-04-20T19:22:03Z</time>
      </trkpt>
      <trkpt lat="59.883676" lon="17.6711479">
        <ele>20.325</ele>
        <time>2013-04-20T19:22:04Z</time>
      </trkpt>
      <trkpt lat="59.8837491" lon="17.671111">
        <ele>20.325</ele>
        <time>2013-04-20T19:22:05Z</time>
      </trkpt>
      <trkpt lat="59.883823" lon="17.6710863">
        <ele>20.325</ele>
        <time>2013-04-20T19:22:06Z</time>
      </trkpt>
      <trkpt lat="59.8838942" lon="17.6710469">
        <ele>20.325</ele>
        <time>2013-04-20T19:22:07Z</time>
      </trkpt>
      <trkpt lat="59.8839574" lon="17.670975">
        <ele>20.325</ele>
        <time>2013-04-20T19:22:08Z</time>
      </trkpt>
      <trkpt lat="59.8840085" lon="17.6708716">
        <ele>20.325</ele>
        <time>2013-04-20T19:22:09Z</time>
      </trkpt>
      <trkpt lat="59.8840495" lon="17.6707466">
        <ele>20.8057</ele>
        <time>2013-04-20T19:22:10Z</time>
      </trkpt>
      <trkpt lat="59.8840764" lon="17.6706131">
        <ele>20.8057</ele>
        <time>2013-04-20T19:22:11Z</time>
      </trkpt>
      <trkpt lat="59.884104" lon="17.6704783">
        <ele>20.8057</ele>
        <time>2013-04-20T19:22:12Z</time>
      </trkpt>
      <trkpt lat="59.8841419" lon="17.6703512">
        <ele>20.8057</ele>
        <time>2013-04-20T19:22:13Z</time>
      </trkpt>
      <trkpt lat="59.8841887" lon="17.6702362">
        <ele>20.8057</ele>
        <time>2013-04-20T19:22:14Z</time>
      </trkpt>
      <trkpt lat="59.8842392" lon="17.6701286">
        <ele>20.325</ele>
        <time>2013-04-20T19:22:15Z</time>
      </trkpt>
      <trkpt lat="59.88429" lon="17.6700221">
        <ele>20.325</ele>
        <time>2013-04-20T19:22:16Z</time>
      </trkpt>
      <trkpt lat="59.8843411" lon="17.6699146">
        <ele>20.325</ele>
        <time>2013-04-20T19:22:17Z</time>
      </trkpt>
      <trkpt lat="59.884392" lon="17.6698058">
        <ele>20.325</ele>
        <time>2013-04-20T19:22:18Z</time>
      </trkpt>
      <trkpt lat="59.8844407" lon="17.669695">
        <ele>20.325</ele>
        <time>2013-04-20T19:22:19Z</time>
      </trkpt>
      <trkpt lat="59.8844892" lon="17.6695828">
        <ele>20.325</ele>
        <time>2013-04-20T19:22:20Z</time>
      </trkpt>
      <trkpt lat="59.8845374" lon="17.6694691">
        <ele>20.325</ele>
        <time>2013-04-20T19:22:21Z</time>
      </trkpt>
      <trkpt lat="59.8845825" lon="17.6693528">
        <ele>20.325</ele>
        <time>2013-04-20T19:22:22Z</time>
      </trkpt>
      <trkpt lat="59.8846251" lon="17.669233">
        <ele>19.8444</ele>
        <time>2013-04-20T19:22:23Z</time>
      </trkpt>
      <trkpt lat="59.8846655" lon="17.6691102">
        <ele>19.3638</ele>
        <time>2013-04-20T19:22:24Z</time>
      </trkpt>
      <trkpt lat="59.8847074" lon="17.6689874">
        <ele>19.3638</ele>
        <time>2013-04-20T19:22:25Z</time>
      </trkpt>
      <trkpt lat="59.8847495" lon="17.6688654">
        <ele>19.3638</ele>
        <time>2013-04-20T19:22:26Z</time>
      </trkpt>
      <trkpt lat="59.8847898" lon="17.6687403">
        <ele>19.3638</ele>
        <time>2013-04-20T19:22:27Z</time>
      </trkpt>
      <trkpt lat="59.8848259" lon="17.6686116">
        <ele>19.3638</ele>
        <time>2013-04-20T19:22:28Z</time>
      </trkpt>
      <trkpt lat="59.8848609" lon="17.6684847">
        <ele>19.8444</ele>
        <time>2013-04-20T19:22:29Z</time>
      </trkpt>
      <trkpt lat="59.8848929" lon="17.668359">
        <ele>19.8444</ele>
        <time>2013-04-20T19:22:30Z</time>
      </trkpt>
      <trkpt lat="59.8849241" lon="17.6682357">
        <ele>19.8444</ele>
        <time>2013-04-20T19:22:31Z</time>
      </trkpt>
      <trkpt lat="59.8849603" lon="17.6681201">
        <ele>19.8444</ele>
        <time>2013-04-20T19:22:32Z</time>
      </trkpt>
      <trkpt lat="59.8850058" lon="17.6680167">
        <ele>19.3638</ele>
        <time>2013-04-20T19:22:33Z</time>
      </trkpt>
      <trkpt lat="59.8850586" lon="17.6679236">
        <ele>19.8444</ele>
        <time>2013-04-20T19:22:34Z</time>
      </trkpt>
      <trkpt lat="59.8851108" lon="17.667827">
        <ele>19.8444</ele>
        <time>2013-04-20T19:22:35Z</time>
      </trkpt>
      <trkpt lat="59.885153" lon="17.6677139">
        <ele>19.3638</ele>
        <time>2013-04-20T19:22:36Z</time>
      </trkpt>
      <trkpt lat="59.8851789" lon="17.667581">
        <ele>19.3638</ele>
        <time>2013-04-20T19:22:37Z</time>
      </trkpt>
      <trkpt lat="59.8851888" lon="17.6674378">
        <ele>19.8444</ele>
        <time>2013-04-20T19:22:38Z</time>
      </trkpt>
      <trkpt lat="59.8851799" lon="17.6672934">
        <ele>18.8831</ele>
        <time>2013-04-20T19:22:39Z</time>
      </trkpt>
      <trkpt lat="59.88517" lon="17.6671448">
        <ele>18.8831</ele>
        <time>2013-04-20T19:22:40Z</time>
      </trkpt>
      <trkpt lat="59.8851641" lon="17.6669909">
        <ele>18.8831</ele>
        <time>2013-04-20T19:22:41Z</time>
      </trkpt>
      <trkpt lat="59.8851689" lon="17.6668363">
        <ele>18.8831</ele>
        <time>2013-04-20T19:22:42Z</time>
      </trkpt>
      <trkpt lat="59.8851802" lon="17.6666816">
        <ele>18.8831</ele>
        <time>2013-04-20T19:22:43Z</time>
      </trkpt>
      <trkpt lat="59.8851917" lon="17.6665308">
        <ele>18.4023</ele>
        <time>2013-04-20T19:22:44Z</time>
      </trkpt>
      <trkpt lat="59.8852038" lon="17.6663786">
        <ele>18.4023</ele>
        <time>2013-04-20T19:22:45Z</time>
      </trkpt>
      <trkpt lat="59.8852167" lon="17.6662258">
        <ele>18.4023</ele>
        <time>2013-04-20T19:22:46Z</time>
      </trkpt>
      <trkpt lat="59.8852346" lon="17.6660705">
        <ele>18.8831</ele>
        <time>2013-04-20T19:22:47Z</time>
      </trkpt>
      <trkpt lat="59.885255" lon="17.6659156">
        <ele>19.3638</ele>
        <time>2013-04-20T19:22:48Z</time>
      </trkpt>
      <trkpt lat="59.8852731" lon="17.6657612">
        <ele>18.8831</ele>
        <time>2013-04-20T19:22:49Z</time>
      </trkpt>
      <trkpt lat="59.8852928" lon="17.6656083">
        <ele>18.8831</ele>
        <time>2013-04-20T19:22:50Z</time>
      </trkpt>
      <trkpt lat="59.8853182" lon="17.665458">
        <ele>18.8831</ele>
        <time>2013-04-20T19:22:51Z</time>
      </trkpt>
      <trkpt lat="59.8853514" lon="17.6653119">
        <ele>18.4023</ele>
        <time>2013-04-20T19:22:52Z</time>
      </trkpt>
      <trkpt lat="59.8853941" lon="17.6651744">
        <ele>18.4023</ele>
        <time>2013-04-20T19:22:53Z</time>
      </trkpt>
      <trkpt lat="59.8854498" lon="17.665054">
        <ele>17.9218</ele>
        <time>2013-04-20T19:22:54Z</time>
      </trkpt>
      <trkpt lat="59.8855192" lon="17.6649614">
        <ele>17.9218</ele>
        <time>2013-04-20T19:22:55Z</time>
      </trkpt>
      <trkpt lat="59.8855977" lon="17.6649067">
        <ele>17.4412</ele>
        <time>2013-04-20T19:22:56Z</time>
      </trkpt>
      <trkpt lat="59.8856797" lon="17.6648889">
        <ele>17.4412</ele>
        <time>2013-04-20T19:22:57Z</time>
      </trkpt>
      <trkpt lat="59.8857612" lon="17.6649028">
        <ele>17.4412</ele>
        <time>2013-04-20T19:22:58Z</time>
      </trkpt>
      <trkpt lat="59.8858413" lon="17.6649317">
        <ele>16.9604</ele>
        <time>2013-04-20T19:22:59Z</time>
      </trkpt>
      <trkpt lat="59.8859213" lon="17.6649521">
        <ele>16.9604</ele>
        <time>2013-04-20T19:23:00Z</time>
      </trkpt>
      <trkpt lat="59.8860008" lon="17.6649459">
        <ele>16.4797</ele>
        <time>2013-04-20T19:23:01Z</time>
      </trkpt>
      <trkpt lat="59.8860772" lon="17.6649049">
        <ele>16.4797</ele>
        <time>2013-04-20T19:23:02Z</time>
      </trkpt>
      <trkpt lat="59.8861444" lon="17.6648254">
        <ele>16.4797</ele>
        <time>2013-04-20T19:23:03Z</time>
      </trkpt>
      <trkpt lat="59.8861998" lon="17.6647193">
        <ele>16.9604</ele>
        <time>2013-04-20T19:23:04Z</time>
      </trkpt>
      <trkpt lat="59.8862471" lon="17.664596">
        <ele>16.9604</ele>
        <time>2013-04-20T19:23:05Z</time>
      </trkpt>
      <trkpt lat="59.8862884" lon="17.6644691">
        <ele>17.4412</ele>
        <time>2013-04-20T19:23:06Z</time>
      </trkpt>
      <trkpt lat="59.8863274" lon="17.6643406">
        <ele>17.9218</ele>
        <time>2013-04-20T19:23:07Z</time>
      </trkpt>
      <trkpt lat="59.8863651" lon="17.6642128">
        <ele>18.4023</ele>
        <time>2013-04-20T19:23:08Z</time>
      </trkpt>
      <trkpt lat="59.8864045" lon="17.6640879">
        <ele>18.4023</ele>
        <time>2013-04-20T19:23:09Z</time>
      </trkpt>
      <trkpt lat="59.8864455" lon="17.6639667">
        <ele>18.8831</ele>
        <time>2013-04-20T19:23:10Z</time>
      </trkpt>
      <trkpt lat="59.8864894" lon="17.6638501">
        <ele>18.8831</ele>
        <time>2013-04-20T19:23:11Z</time>
      </trkpt>
      <trkpt lat="59.8865355" lon="17.6637367">
        <ele>19.3638</ele>
        <time>2013-04-20T19:23:12Z</time>
      </trkpt>
      <trkpt lat="59.8865821" lon="17.6636284">
        <ele>19.8444</ele>
        <time>2013-04-20T19:23:13Z</time>
      </trkpt>
      <trkpt lat="59.8866303" lon="17.6635262">
        <ele>19.8444</ele>
        <time>2013-04-20T19:23:14Z</time>
      </trkpt>
      <trkpt lat="59.8866799" lon="17.6634254">
        <ele>20.325</ele>
        <time>2013-04-20T19:23:15Z</time>
      </trkpt>
      <trkpt lat="59.8867282" lon="17.6633261">
        <ele>19.8444</ele>
        <time>2013-04-20T19:23:16Z</time>
      </trkpt>
      <trkpt lat="59.8867752" lon="17.6632284">
        <ele>19.8444</ele>
        <time>2013-04-20T19:23:17Z</time>
      </trkpt>
      <trkpt lat="59.8868238" lon="17.6631324">
        <ele>20.325</ele>
        <time>2013-04-20T19:23:18Z</time>
      </trkpt>
      <trkpt lat="59.8868686" lon="17.6630324">
        <ele>20.8057</ele>
        <time>2013-04-20T19:23:19Z</time>
      </trkpt>
      <trkpt lat="59.8869106" lon="17.6629282">
        <ele>20.8057</ele>
        <time>2013-04-20T19:23:20Z</time>
      </trkpt>
      <trkpt lat="59.8869515" lon="17.6628209">
        <ele>21.2864</ele>
        <time>2013-04-20T19:23:21Z</time>
      </trkpt>
      <trkpt lat="59.8869893" lon="17.6627106">
        <ele>21.767</ele>
        <time>2013-04-20T19:23:22Z</time>
      </trkpt>
      <trkpt lat="59.8870226" lon="17.6625977">
        <ele>21.767</ele>
        <time>2013-04-20T19:23:23Z</time>
      </trkpt>
      <trkpt lat="59.887052" lon="17.6624826">
        <ele>21.767</ele>
        <time>2013-04-20T19:23:24Z</time>
      </trkpt>
      <trkpt lat="59.8870773" lon="17.662364">
        <ele>21.767</ele>
        <time>2013-04-20T19:23:25Z</time>
      </trkpt>
      <trkpt lat="59.8870987" lon="17.6622418">
        <ele>21.767</ele>
        <time>2013-04-20T19:23:26Z</time>
      </trkpt>
      <trkpt lat="59.8871162" lon="17.6621178">
        <ele>21.767</ele>
        <time>2013-04-20T19:23:27Z</time>
      </trkpt>
      <trkpt lat="59.8871298" lon="17.6619921">
        <ele>21.767</ele>
        <time>2013-04-20T19:23:28Z</time>
      </trkpt>
      <trkpt lat="59.8871437" lon="17.6618616">
        <ele>22.7283</ele>
        <time>2013-04-20T19:23:29Z</time>
      </trkpt>
      <trkpt lat="59.8871437" lon="17.66173">
        <ele>21.767</ele>
        <time>2013-04-20T19:23:30Z</time>
      </trkpt>
      <trkpt lat="59.8871575" lon="17.6615934">
        <ele>22.7283</ele>
        <time>2013-04-20T19:23:31Z</time>
      </trkpt>
      <trkpt lat="59.8871773" lon="17.6614602">
        <ele>22.7283</ele>
        <time>2013-04-20T19:23:32Z</time>
      </trkpt>
      <trkpt lat="59.8872103" lon="17.6613428">
        <ele>22.7283</ele>
        <time>2013-04-20T19:23:33Z</time>
      </trkpt>
      <trkpt lat="59.8872559" lon="17.6612463">
        <ele>22.7283</ele>
        <time>2013-04-20T19:23:34Z</time>
      </trkpt>
      <trkpt lat="59.8873085" lon="17.6611638">
        <ele>22.2476</ele>
        <time>2013-04-20T19:23:35Z</time>
      </trkpt>
      <trkpt lat="59.8873662" lon="17.6610912">
        <ele>21.767</ele>
        <time>2013-04-20T19:23:36Z</time>
      </trkpt>
      <trkpt lat="59.8874275" lon="17.6610246">
        <ele>21.2864</ele>
        <time>2013-04-20T19:23:37Z</time>
      </trkpt>
      <trkpt lat="59.8874921" lon="17.6609617">
        <ele>20.8057</ele>
        <time>2013-04-20T19:23:38Z</time>
      </trkpt>
      <trkpt lat="59.8875585" lon="17.6608985">
        <ele>20.8057</ele>
        <time>2013-04-20T19:23:39Z</time>
      </trkpt>
      <trkpt lat="59.8876224" lon="17.6608295">
        <ele>20.8057</ele>
        <time>2013-04-20T19:23:40Z</time>
      </trkpt>
      <trkpt lat="59.8876834" lon="17.66075">
        <ele>20.8057</ele>
        <time>2013-04-20T19:23:41Z</time>
      </trkpt>
      <trkpt lat="59.8877409" lon="17.6606597">
        <ele>20.8057</ele>
        <time>2013-04-20T19:23:42Z</time>
      </trkpt>
      <trkpt lat="59.8877941" lon="17.6605608">
        <ele>20.325</ele>
        <time>2013-04-20T19:23:43Z</time>
      </trkpt>
      <trkpt lat="59.8878414" lon="17.6604544">
        <ele>20.325</ele>
        <time>2013-04-20T19:23:44Z</time>
      </trkpt>
      <trkpt lat="59.8878855" lon="17.6603426">
        <ele>20.325</ele>
        <time>2013-04-20T19:23:45Z</time>
      </trkpt>
      <trkpt lat="59.8879277" lon="17.6602286">
        <ele>19.8444</ele>
        <time>2013-04-20T19:23:46Z</time>
      </trkpt>
      <trkpt lat="59.8879695" lon="17.6601154">
        <ele>19.8444</ele>
        <time>2013-04-20T19:23:47Z</time>
      </trkpt>
      <trkpt lat="59.8880117" lon="17.6600015">
        <ele>19.8444</ele>
        <time>2013-04-20T19:23:48Z</time>
      </trkpt>
      <trkpt lat="59.8880543" lon="17.6598895">
        <ele>19.8444</ele>
        <time>2013-04-20T19:23:49Z</time>
      </trkpt>
      <trkpt lat="59.8880952" lon="17.6597776">
        <ele>19.3638</ele>
        <time>2013-04-20T19:23:50Z</time>
      </trkpt>
      <trkpt lat="59.8881352" lon="17.6596648">
        <ele>19.3638</ele>
        <time>2013-04-20T19:23:51Z</time>
      </trkpt>
      <trkpt lat="59.8881761" lon="17.6595519">
        <ele>19.3638</ele>
        <time>2013-04-20T19:23:52Z</time>
      </trkpt>
      <trkpt lat="59.888217" lon="17.6594383">
        <ele>19.3638</ele>
        <time>2013-04-20T19:23:53Z</time>
      </trkpt>
      <trkpt lat="59.888258" lon="17.6593233">
        <ele>19.3638</ele>
        <time>2013-04-20T19:23:54Z</time>
      </trkpt>
      <trkpt lat="59.8883008" lon="17.6592021">
        <ele>19.3638</ele>
        <time>2013-04-20T19:23:55Z</time>
      </trkpt>
      <trkpt lat="59.8883439" lon="17.6590871">
        <ele>19.8444</ele>
        <time>2013-04-20T19:23:56Z</time>
      </trkpt>
      <trkpt lat="59.8883867" lon="17.658974">
        <ele>19.8444</ele>
        <time>2013-04-20T19:23:57Z</time>
      </trkpt>
      <trkpt lat="59.8884284" lon="17.6588607">
        <ele>19.8444</ele>
        <time>2013-04-20T19:23:58Z</time>
      </trkpt>
      <trkpt lat="59.8884692" lon="17.6587499">
        <ele>19.8444</ele>
        <time>2013-04-20T19:23:59Z</time>
      </trkpt>
      <trkpt lat="59.8885096" lon="17.658638">
        <ele>19.8444</ele>
        <time>2013-04-20T19:24:00Z</time>
      </trkpt>
      <trkpt lat="59.8885506" lon="17.6585254">
        <ele>19.8444</ele>
        <time>2013-04-20T19:24:01Z</time>
      </trkpt>
      <trkpt lat="59.8885908" lon="17.6584099">
        <ele>19.8444</ele>
        <time>2013-04-20T19:24:02Z</time>
      </trkpt>
      <trkpt lat="59.8886305" lon="17.6582936">
        <ele>20.325</ele>
        <time>2013-04-20T19:24:03Z</time>
      </trkpt>
      <trkpt lat="59.8886702" lon="17.6581776">
        <ele>20.325</ele>
        <time>2013-04-20T19:24:04Z</time>
      </trkpt>
      <trkpt lat="59.8887112" lon="17.6580635">
        <ele>20.325</ele>
        <time>2013-04-20T19:24:05Z</time>
      </trkpt>
      <trkpt lat="59.888753" lon="17.6579512">
        <ele>20.325</ele>
        <time>2013-04-20T19:24:06Z</time>
      </trkpt>
      <trkpt lat="59.8887955" lon="17.6578429">
        <ele>20.325</ele>
        <time>2013-04-20T19:24:07Z</time>
      </trkpt>
      <trkpt lat="59.8888386" lon="17.6577377">
        <ele>20.325</ele>
        <time>2013-04-20T19:24:08Z</time>
      </trkpt>
      <trkpt lat="59.8888909" lon="17.6576305">
        <ele>21.2864</ele>
        <time>2013-04-20T19:24:09Z</time>
      </trkpt>
      <trkpt lat="59.8889404" lon="17.6575212">
        <ele>22.2476</ele>
        <time>2013-04-20T19:24:10Z</time>
      </trkpt>
      <trkpt lat="59.888985" lon="17.6574127">
        <ele>22.7283</ele>
        <time>2013-04-20T19:24:11Z</time>
      </trkpt>
      <trkpt lat="59.8890256" lon="17.6573006">
        <ele>23.209</ele>
        <time>2013-04-20T19:24:12Z</time>
      </trkpt>
      <trkpt lat="59.8890608" lon="17.6571845">
        <ele>23.209</ele>
        <time>2013-04-20T19:24:13Z</time>
      </trkpt>
      <trkpt lat="59.8890998" lon="17.657069">
        <ele>24.1703</ele>
        <time>2013-04-20T19:24:14Z</time>
      </trkpt>
      <trkpt lat="59.889139" lon="17.6569568">
        <ele>24.1703</ele>
        <time>2013-04-20T19:24:15Z</time>
      </trkpt>
      <trkpt lat="59.889182" lon="17.6568502">
        <ele>24.651</ele>
        <time>2013-04-20T19:24:16Z</time>
      </trkpt>
      <trkpt lat="59.8892244" lon="17.656742">
        <ele>24.651</ele>
        <time>2013-04-20T19:24:17Z</time>
      </trkpt>
      <trkpt lat="59.8892623" lon="17.6566233">
        <ele>24.1703</ele>
        <time>2013-04-20T19:24:18Z</time>
      </trkpt>
      <trkpt lat="59.8893007" lon="17.6565104">
        <ele>23.6896</ele>
        <time>2013-04-20T19:24:19Z</time>
      </trkpt>
      <trkpt lat="59.8893431" lon="17.6564029">
        <ele>23.6896</ele>
        <time>2013-04-20T19:24:20Z</time>
      </trkpt>
      <trkpt lat="59.8893821" lon="17.6562913">
        <ele>23.209</ele>
        <time>2013-04-20T19:24:21Z</time>
      </trkpt>
      <trkpt lat="59.8894214" lon="17.656183">
        <ele>22.7283</ele>
        <time>2013-04-20T19:24:22Z</time>
      </trkpt>
      <trkpt lat="59.8894598" lon="17.6560764">
        <ele>21.767</ele>
        <time>2013-04-20T19:24:23Z</time>
      </trkpt>
      <trkpt lat="59.8894965" lon="17.655963">
        <ele>21.2864</ele>
        <time>2013-04-20T19:24:24Z</time>
      </trkpt>
      <trkpt lat="59.8895363" lon="17.6558554">
        <ele>21.2864</ele>
        <time>2013-04-20T19:24:25Z</time>
      </trkpt>
      <trkpt lat="59.8895753" lon="17.6557473">
        <ele>20.8057</ele>
        <time>2013-04-20T19:24:26Z</time>
      </trkpt>
      <trkpt lat="59.8896134" lon="17.6556377">
        <ele>20.325</ele>
        <time>2013-04-20T19:24:27Z</time>
      </trkpt>
      <trkpt lat="59.8896502" lon="17.6555222">
        <ele>20.325</ele>
        <time>2013-04-20T19:24:28Z</time>
      </trkpt>
      <trkpt lat="59.8896897" lon="17.655415">
        <ele>20.325</ele>
        <time>2013-04-20T19:24:29Z</time>
      </trkpt>
      <trkpt lat="59.8897292" lon="17.6553094">
        <ele>20.325</ele>
        <time>2013-04-20T19:24:30Z</time>
      </trkpt>
      <trkpt lat="59.8897679" lon="17.6552037">
        <ele>20.325</ele>
        <time>2013-04-20T19:24:31Z</time>
      </trkpt>
      <trkpt lat="59.8898047" lon="17.6550918">
        <ele>20.325</ele>
        <time>2013-04-20T19:24:32Z</time>
      </trkpt>
      <trkpt lat="59.8898429" lon="17.654983">
        <ele>20.325</ele>
        <time>2013-04-20T19:24:33Z</time>
      </trkpt>
      <trkpt lat="59.8898803" lon="17.6548746">
        <ele>20.325</ele>
        <time>2013-04-20T19:24:34Z</time>
      </trkpt>
      <trkpt lat="59.8899185" lon="17.6547699">
        <ele>20.325</ele>
        <time>2013-04-20T19:24:35Z</time>
      </trkpt>
      <trkpt lat="59.8899585" lon="17.6546655">
        <ele>20.325</ele>
        <time>2013-04-20T19:24:36Z</time>
      </trkpt>
      <trkpt lat="59.8899984" lon="17.6545596">
        <ele>20.8057</ele>
        <time>2013-04-20T19:24:37Z</time>
      </trkpt>
      <trkpt lat="59.8900357" lon="17.6544469">
        <ele>20.8057</ele>
        <time>2013-04-20T19:24:38Z</time>
      </trkpt>
      <trkpt lat="59.8900741" lon="17.6543354">
        <ele>20.8057</ele>
        <time>2013-04-20T19:24:39Z</time>
      </trkpt>
      <trkpt lat="59.8901137" lon="17.6542255">
        <ele>21.2864</ele>
        <time>2013-04-20T19:24:40Z</time>
      </trkpt>
      <trkpt lat="59.8901533" lon="17.6541177">
        <ele>21.2864</ele>
        <time>2013-04-20T19:24:41Z</time>
      </trkpt>
      <trkpt lat="59.8901932" lon="17.6540151">
        <ele>21.767</ele>
        <time>2013-04-20T19:24:42Z</time>
      </trkpt>
      <trkpt lat="59.890231" lon="17.6539125">
        <ele>21.767</ele>
        <time>2013-04-20T19:24:43Z</time>
      </trkpt>
      <trkpt lat="59.8902683" lon="17.653809">
        <ele>21.767</ele>
        <time>2013-04-20T19:24:44Z</time>
      </trkpt>
      <trkpt lat="59.8903055" lon="17.6537024">
        <ele>22.2476</ele>
        <time>2013-04-20T19:24:45Z</time>
      </trkpt>
      <trkpt lat="59.8903438" lon="17.6535992">
        <ele>22.2476</ele>
        <time>2013-04-20T19:24:46Z</time>
      </trkpt>
      <trkpt lat="59.8903818" lon="17.653495">
        <ele>22.7283</ele>
        <time>2013-04-20T19:24:47Z</time>
      </trkpt>
      <trkpt lat="59.8904185" lon="17.6533899">
        <ele>22.7283</ele>
        <time>2013-04-20T19:24:48Z</time>
      </trkpt>
      <trkpt lat="59.8904561" lon="17.6532845">
        <ele>22.7283</ele>
        <time>2013-04-20T19:24:49Z</time>
      </trkpt>
      <trkpt lat="59.8904947" lon="17.6531783">
        <ele>23.209</ele>
        <time>2013-04-20T19:24:50Z</time>
      </trkpt>
      <trkpt lat="59.890535" lon="17.6530751">
        <ele>23.209</ele>
        <time>2013-04-20T19:24:51Z</time>
      </trkpt>
      <trkpt lat="59.8905755" lon="17.652972">
        <ele>23.6896</ele>
        <time>2013-04-20T19:24:52Z</time>
      </trkpt>
      <trkpt lat="59.8906155" lon="17.6528689">
        <ele>23.6896</ele>
        <time>2013-04-20T19:24:53Z</time>
      </trkpt>
      <trkpt lat="59.8906559" lon="17.6527657">
        <ele>24.1703</ele>
        <time>2013-04-20T19:24:54Z</time>
      </trkpt>
      <trkpt lat="59.8906949" lon="17.6526613">
        <ele>24.651</ele>
        <time>2013-04-20T19:24:55Z</time>
      </trkpt>
      <trkpt lat="59.8907382" lon="17.652552">
        <ele>24.651</ele>
        <time>2013-04-20T19:24:56Z</time>
      </trkpt>
      <trkpt lat="59.8907785" lon="17.6524462">
        <ele>25.1317</ele>
        <time>2013-04-20T19:24:57Z</time>
      </trkpt>
      <trkpt lat="59.8908184" lon="17.6523432">
        <ele>25.1317</ele>
        <time>2013-04-20T19:24:58Z</time>
      </trkpt>
      <trkpt lat="59.8908574" lon="17.6522401">
        <ele>25.6123</ele>
        <time>2013-04-20T19:24:59Z</time>
      </trkpt>
      <trkpt lat="59.8908954" lon="17.652136">
        <ele>25.6123</ele>
        <time>2013-04-20T19:25:00Z</time>
      </trkpt>
      <trkpt lat="59.8909354" lon="17.6520324">
        <ele>25.6123</ele>
        <time>2013-04-20T19:25:01Z</time>
      </trkpt>
      <trkpt lat="59.8909742" lon="17.6519301">
        <ele>26.0929</ele>
        <time>2013-04-20T19:25:02Z</time>
      </trkpt>
      <trkpt lat="59.8910126" lon="17.6518235">
        <ele>26.0929</ele>
        <time>2013-04-20T19:25:03Z</time>
      </trkpt>
      <trkpt lat="59.8910509" lon="17.6517179">
        <ele>26.0929</ele>
        <time>2013-04-20T19:25:04Z</time>
      </trkpt>
      <trkpt lat="59.8910886" lon="17.651611">
        <ele>26.5736</ele>
        <time>2013-04-20T19:25:05Z</time>
      </trkpt>
      <trkpt lat="59.8911254" lon="17.6515044">
        <ele>26.5736</ele>
        <time>2013-04-20T19:25:06Z</time>
      </trkpt>
      <trkpt lat="59.8911628" lon="17.6514013">
        <ele>26.5736</ele>
        <time>2013-04-20T19:25:07Z</time>
      </trkpt>
      <trkpt lat="59.8911997" lon="17.6512983">
        <ele>26.5736</ele>
        <time>2013-04-20T19:25:08Z</time>
      </trkpt>
      <trkpt lat="59.8912349" lon="17.6511959">
        <ele>26.5736</ele>
        <time>2013-04-20T19:25:09Z</time>
      </trkpt>
      <trkpt lat="59.8912702" lon="17.6510931">
        <ele>26.5736</ele>
        <time>2013-04-20T19:25:10Z</time>
      </trkpt>
      <trkpt lat="59.8913033" lon="17.6509897">
        <ele>26.0929</ele>
        <time>2013-04-20T19:25:11Z</time>
      </trkpt>
      <trkpt lat="59.8913337" lon="17.6508781">
        <ele>25.6123</ele>
        <time>2013-04-20T19:25:12Z</time>
      </trkpt>
      <trkpt lat="59.8913618" lon="17.6507747">
        <ele>24.651</ele>
        <time>2013-04-20T19:25:13Z</time>
      </trkpt>
      <trkpt lat="59.8913917" lon="17.6506705">
        <ele>24.1703</ele>
        <time>2013-04-20T19:25:14Z</time>
      </trkpt>
      <trkpt lat="59.8914229" lon="17.6505672">
        <ele>24.1703</ele>
        <time>2013-04-20T19:25:15Z</time>
      </trkpt>
      <trkpt lat="59.8914529" lon="17.6504597">
        <ele>23.6896</ele>
        <time>2013-04-20T19:25:16Z</time>
      </trkpt>
      <trkpt lat="59.8914841" lon="17.6503491">
        <ele>24.1703</ele>
        <time>2013-04-20T19:25:17Z</time>
      </trkpt>
      <trkpt lat="59.8915167" lon="17.6502414">
        <ele>24.1703</ele>
        <time>2013-04-20T19:25:18Z</time>
      </trkpt>
      <trkpt lat="59.8915483" lon="17.6501349">
        <ele>24.651</ele>
        <time>2013-04-20T19:25:19Z</time>
      </trkpt>
      <trkpt lat="59.8915795" lon="17.6500283">
        <ele>24.651</ele>
        <time>2013-04-20T19:25:20Z</time>
      </trkpt>
      <trkpt lat="59.8916105" lon="17.6499209">
        <ele>25.1317</ele>
        <time>2013-04-20T19:25:21Z</time>
      </trkpt>
      <trkpt lat="59.8916389" lon="17.6498142">
        <ele>25.1317</ele>
        <time>2013-04-20T19:25:22Z</time>
      </trkpt>
      <trkpt lat="59.8916711" lon="17.6496997">
        <ele>26.5736</ele>
        <time>2013-04-20T19:25:23Z</time>
      </trkpt>
      <trkpt lat="59.8916965" lon="17.6495867">
        <ele>26.5736</ele>
        <time>2013-04-20T19:25:24Z</time>
      </trkpt>
      <trkpt lat="59.8917198" lon="17.649473">
        <ele>27.0543</ele>
        <time>2013-04-20T19:25:25Z</time>
      </trkpt>
      <trkpt lat="59.891742" lon="17.6493614">
        <ele>27.0543</ele>
        <time>2013-04-20T19:25:26Z</time>
      </trkpt>
      <trkpt lat="59.8917647" lon="17.6492506">
        <ele>27.0543</ele>
        <time>2013-04-20T19:25:27Z</time>
      </trkpt>
      <trkpt lat="59.8917883" lon="17.6491392">
        <ele>27.5349</ele>
        <time>2013-04-20T19:25:28Z</time>
      </trkpt>
      <trkpt lat="59.8918094" lon="17.6490259">
        <ele>27.5349</ele>
        <time>2013-04-20T19:25:29Z</time>
      </trkpt>
      <trkpt lat="59.8918311" lon="17.6489145">
        <ele>27.5349</ele>
        <time>2013-04-20T19:25:30Z</time>
      </trkpt>
      <trkpt lat="59.8918537" lon="17.6488049">
        <ele>28.0155</ele>
        <time>2013-04-20T19:25:31Z</time>
      </trkpt>
      <trkpt lat="59.8918736" lon="17.6486958">
        <ele>27.5349</ele>
        <time>2013-04-20T19:25:32Z</time>
      </trkpt>
      <trkpt lat="59.8918931" lon="17.6485845">
        <ele>27.5349</ele>
        <time>2013-04-20T19:25:33Z</time>
      </trkpt>
      <trkpt lat="59.8919136" lon="17.6484701">
        <ele>28.0155</ele>
        <time>2013-04-20T19:25:34Z</time>
      </trkpt>
      <trkpt lat="59.8919349" lon="17.6483565">
        <ele>28.0155</ele>
        <time>2013-04-20T19:25:35Z</time>
      </trkpt>
      <trkpt lat="59.8919558" lon="17.6482421">
        <ele>28.0155</ele>
        <time>2013-04-20T19:25:36Z</time>
      </trkpt>
      <trkpt lat="59.891977" lon="17.6481322">
        <ele>28.0155</ele>
        <time>2013-04-20T19:25:37Z</time>
      </trkpt>
      <trkpt lat="59.8919952" lon="17.6480193">
        <ele>27.5349</ele>
        <time>2013-04-20T19:25:38Z</time>
      </trkpt>
      <trkpt lat="59.8920216" lon="17.6478982">
        <ele>28.9769</ele>
        <time>2013-04-20T19:25:39Z</time>
      </trkpt>
      <trkpt lat="59.8920415" lon="17.6477754">
        <ele>29.4575</ele>
        <time>2013-04-20T19:25:40Z</time>
      </trkpt>
      <trkpt lat="59.8920571" lon="17.6476518">
        <ele>28.9769</ele>
        <time>2013-04-20T19:25:41Z</time>
      </trkpt>
      <trkpt lat="59.8920706" lon="17.6475239">
        <ele>28.4962</ele>
        <time>2013-04-20T19:25:42Z</time>
      </trkpt>
      <trkpt lat="59.8920824" lon="17.6473926">
        <ele>28.0155</ele>
        <time>2013-04-20T19:25:43Z</time>
      </trkpt>
      <trkpt lat="59.8920974" lon="17.647265">
        <ele>28.0155</ele>
        <time>2013-04-20T19:25:44Z</time>
      </trkpt>
      <trkpt lat="59.8921165" lon="17.6471338">
        <ele>28.4962</ele>
        <time>2013-04-20T19:25:45Z</time>
      </trkpt>
      <trkpt lat="59.8921303" lon="17.647004">
        <ele>28.4962</ele>
        <time>2013-04-20T19:25:46Z</time>
      </trkpt>
      <trkpt lat="59.8921495" lon="17.6468693">
        <ele>28.9769</ele>
        <time>2013-04-20T19:25:47Z</time>
      </trkpt>
      <trkpt lat="59.8921647" lon="17.6467346">
        <ele>28.4962</ele>
        <time>2013-04-20T19:25:48Z</time>
      </trkpt>
      <trkpt lat="59.8921799" lon="17.6466">
        <ele>28.4962</ele>
        <time>2013-04-20T19:25:49Z</time>
      </trkpt>
      <trkpt lat="59.8921925" lon="17.6464659">
        <ele>28.0155</ele>
        <time>2013-04-20T19:25:50Z</time>
      </trkpt>
      <trkpt lat="59.8922041" lon="17.6463319">
        <ele>28.0155</ele>
        <time>2013-04-20T19:25:51Z</time>
      </trkpt>
      <trkpt lat="59.8922207" lon="17.6461938">
        <ele>28.0155</ele>
        <time>2013-04-20T19:25:52Z</time>
      </trkpt>
      <trkpt lat="59.8922399" lon="17.6460559">
        <ele>28.4962</ele>
        <time>2013-04-20T19:25:53Z</time>
      </trkpt>
      <trkpt lat="59.892255" lon="17.6459187">
        <ele>28.9769</ele>
        <time>2013-04-20T19:25:54Z</time>
      </trkpt>
      <trkpt lat="59.8922738" lon="17.645781">
        <ele>28.9769</ele>
        <time>2013-04-20T19:25:55Z</time>
      </trkpt>
      <trkpt lat="59.8922809" lon="17.6456463">
        <ele>28.4962</ele>
        <time>2013-04-20T19:25:56Z</time>
      </trkpt>
      <trkpt lat="59.8922931" lon="17.6455096">
        <ele>28.4962</ele>
        <time>2013-04-20T19:25:57Z</time>
      </trkpt>
      <trkpt lat="59.8923051" lon="17.6453771">
        <ele>28.0155</ele>
        <time>2013-04-20T19:25:58Z</time>
      </trkpt>
      <trkpt lat="59.8923168" lon="17.645247">
        <ele>27.0543</ele>
        <time>2013-04-20T19:25:59Z</time>
      </trkpt>
      <trkpt lat="59.8923298" lon="17.6451146">
        <ele>27.0543</ele>
        <time>2013-04-20T19:26:00Z</time>
      </trkpt>
      <trkpt lat="59.8923424" lon="17.6449831">
        <ele>26.5736</ele>
        <time>2013-04-20T19:26:01Z</time>
      </trkpt>
      <trkpt lat="59.8923581" lon="17.6448474">
        <ele>26.5736</ele>
        <time>2013-04-20T19:26:02Z</time>
      </trkpt>
      <trkpt lat="59.8923717" lon="17.644717">
        <ele>26.0929</ele>
        <time>2013-04-20T19:26:03Z</time>
      </trkpt>
      <trkpt lat="59.8923862" lon="17.644587">
        <ele>26.0929</ele>
        <time>2013-04-20T19:26:04Z</time>
      </trkpt>
      <trkpt lat="59.8923953" lon="17.64446">
        <ele>25.1317</ele>
        <time>2013-04-20T19:26:05Z</time>
      </trkpt>
      <trkpt lat="59.8924147" lon="17.6443264">
        <ele>25.1317</ele>
        <time>2013-04-20T19:26:06Z</time>
      </trkpt>
      <trkpt lat="59.8924321" lon="17.6441953">
        <ele>25.1317</ele>
        <time>2013-04-20T19:26:07Z</time>
      </trkpt>
      <trkpt lat="59.8924425" lon="17.6440659">
        <ele>24.651</ele>
        <time>2013-04-20T19:26:08Z</time>
      </trkpt>
      <trkpt lat="59.8924503" lon="17.6439365">
        <ele>23.6896</ele>
        <time>2013-04-20T19:26:09Z</time>
      </trkpt>
      <trkpt lat="59.8924658" lon="17.6438048">
        <ele>23.6896</ele>
        <time>2013-04-20T19:26:10Z</time>
      </trkpt>
      <trkpt lat="59.8924833" lon="17.6436731">
        <ele>24.1703</ele>
        <time>2013-04-20T19:26:11Z</time>
      </trkpt>
      <trkpt lat="59.8924963" lon="17.643539">
        <ele>23.6896</ele>
        <time>2013-04-20T19:26:12Z</time>
      </trkpt>
      <trkpt lat="59.8925133" lon="17.6434013">
        <ele>23.6896</ele>
        <time>2013-04-20T19:26:13Z</time>
      </trkpt>
      <trkpt lat="59.8925315" lon="17.6432598">
        <ele>23.6896</ele>
        <time>2013-04-20T19:26:14Z</time>
      </trkpt>
      <trkpt lat="59.8925481" lon="17.6431208">
        <ele>24.1703</ele>
        <time>2013-04-20T19:26:15Z</time>
      </trkpt>
      <trkpt lat="59.892561" lon="17.6429805">
        <ele>24.1703</ele>
        <time>2013-04-20T19:26:16Z</time>
      </trkpt>
      <trkpt lat="59.8925748" lon="17.6428375">
        <ele>24.1703</ele>
        <time>2013-04-20T19:26:17Z</time>
      </trkpt>
      <trkpt lat="59.8925885" lon="17.6426962">
        <ele>24.1703</ele>
        <time>2013-04-20T19:26:18Z</time>
      </trkpt>
      <trkpt lat="59.8926024" lon="17.6425532">
        <ele>24.651</ele>
        <time>2013-04-20T19:26:19Z</time>
      </trkpt>
      <trkpt lat="59.8926149" lon="17.6424028">
        <ele>25.1317</ele>
        <time>2013-04-20T19:26:20Z</time>
      </trkpt>
      <trkpt lat="59.8926273" lon="17.6422615">
        <ele>24.651</ele>
        <time>2013-04-20T19:26:21Z</time>
      </trkpt>
      <trkpt lat="59.8926352" lon="17.6421202">
        <ele>24.1703</ele>
        <time>2013-04-20T19:26:22Z</time>
      </trkpt>
      <trkpt lat="59.8926422" lon="17.6419756">
        <ele>24.1703</ele>
        <time>2013-04-20T19:26:23Z</time>
      </trkpt>
      <trkpt lat="59.8926501" lon="17.6418306">
        <ele>23.6896</ele>
        <time>2013-04-20T19:26:24Z</time>
      </trkpt>
      <trkpt lat="59.892658" lon="17.6416866">
        <ele>23.6896</ele>
        <time>2013-04-20T19:26:25Z</time>
      </trkpt>
      <trkpt lat="59.8926645" lon="17.6415404">
        <ele>23.6896</ele>
        <time>2013-04-20T19:26:26Z</time>
      </trkpt>
      <trkpt lat="59.8926714" lon="17.641394">
        <ele>24.1703</ele>
        <time>2013-04-20T19:26:27Z</time>
      </trkpt>
      <trkpt lat="59.892678" lon="17.6412488">
        <ele>24.1703</ele>
        <time>2013-04-20T19:26:28Z</time>
      </trkpt>
      <trkpt lat="59.8926869" lon="17.641105">
        <ele>24.1703</ele>
        <time>2013-04-20T19:26:29Z</time>
      </trkpt>
      <trkpt lat="59.8926948" lon="17.6409617">
        <ele>24.651</ele>
        <time>2013-04-20T19:26:30Z</time>
      </trkpt>
      <trkpt lat="59.8927014" lon="17.6408179">
        <ele>24.651</ele>
        <time>2013-04-20T19:26:31Z</time>
      </trkpt>
      <trkpt lat="59.8927072" lon="17.6406745">
        <ele>24.651</ele>
        <time>2013-04-20T19:26:32Z</time>
      </trkpt>
      <trkpt lat="59.8927097" lon="17.6405326">
        <ele>24.1703</ele>
        <time>2013-04-20T19:26:33Z</time>
      </trkpt>
      <trkpt lat="59.8927163" lon="17.6403932">
        <ele>24.1703</ele>
        <time>2013-04-20T19:26:34Z</time>
      </trkpt>
      <trkpt lat="59.8927169" lon="17.6402529">
        <ele>24.651</ele>
        <time>2013-04-20T19:26:35Z</time>
      </trkpt>
      <trkpt lat="59.8927164" lon="17.6401089">
        <ele>24.651</ele>
        <time>2013-04-20T19:26:36Z</time>
      </trkpt>
      <trkpt lat="59.8927205" lon="17.6399679">
        <ele>25.1317</ele>
        <time>2013-04-20T19:26:37Z</time>
      </trkpt>
      <trkpt lat="59.8927279" lon="17.6398254">
        <ele>25.6123</ele>
        <time>2013-04-20T19:26:38Z</time>
      </trkpt>
      <trkpt lat="59.8927344" lon="17.6396812">
        <ele>26.0929</ele>
        <time>2013-04-20T19:26:39Z</time>
      </trkpt>
      <trkpt lat="59.8927334" lon="17.6395359">
        <ele>25.6123</ele>
        <time>2013-04-20T19:26:40Z</time>
      </trkpt>
      <trkpt lat="59.8927354" lon="17.6393955">
        <ele>25.1317</ele>
        <time>2013-04-20T19:26:41Z</time>
      </trkpt>
      <trkpt lat="59.8927365" lon="17.6392586">
        <ele>24.651</ele>
        <time>2013-04-20T19:26:42Z</time>
      </trkpt>
      <trkpt lat="59.8927387" lon="17.6391204">
        <ele>24.651</ele>
        <time>2013-04-20T19:26:43Z</time>
      </trkpt>
      <trkpt lat="59.8927329" lon="17.6389783">
        <ele>24.1703</ele>
        <time>2013-04-20T19:26:44Z</time>
      </trkpt>
      <trkpt lat="59.8927267" lon="17.6388376">
        <ele>23.6896</ele>
        <time>2013-04-20T19:26:45Z</time>
      </trkpt>
      <trkpt lat="59.8927283" lon="17.6387066">
        <ele>23.6896</ele>
        <time>2013-04-20T19:26:46Z</time>
      </trkpt>
      <trkpt lat="59.8927355" lon="17.6385773">
        <ele>23.6896</ele>
        <time>2013-04-20T19:26:47Z</time>
      </trkpt>
      <trkpt lat="59.8927616" lon="17.6384499">
        <ele>24.1703</ele>
        <time>2013-04-20T19:26:48Z</time>
      </trkpt>
      <trkpt lat="59.8927915" lon="17.6383337">
        <ele>24.651</ele>
        <time>2013-04-20T19:26:49Z</time>
      </trkpt>
      <trkpt lat="59.8928407" lon="17.63827">
        <ele>24.651</ele>
        <time>2013-04-20T19:26:50Z</time>
      </trkpt>
      <trkpt lat="59.8928955" lon="17.6382325">
        <ele>24.651</ele>
        <time>2013-04-20T19:26:51Z</time>
      </trkpt>
      <trkpt lat="59.8929552" lon="17.6382015">
        <ele>25.1317</ele>
        <time>2013-04-20T19:26:52Z</time>
      </trkpt>
      <trkpt lat="59.8930189" lon="17.6381793">
        <ele>24.651</ele>
        <time>2013-04-20T19:26:53Z</time>
      </trkpt>
      <trkpt lat="59.8930832" lon="17.6381505">
        <ele>24.1703</ele>
        <time>2013-04-20T19:26:54Z</time>
      </trkpt>
      <trkpt lat="59.8931459" lon="17.6381145">
        <ele>24.1703</ele>
        <time>2013-04-20T19:26:55Z</time>
      </trkpt>
      <trkpt lat="59.8932088" lon="17.6380829">
        <ele>24.651</ele>
        <time>2013-04-20T19:26:56Z</time>
      </trkpt>
      <trkpt lat="59.8932739" lon="17.6380585">
        <ele>24.651</ele>
        <time>2013-04-20T19:26:57Z</time>
      </trkpt>
      <trkpt lat="59.8933392" lon="17.6380222">
        <ele>24.651</ele>
        <time>2013-04-20T19:26:58Z</time>
      </trkpt>
      <trkpt lat="59.8934064" lon="17.6379808">
        <ele>25.1317</ele>
        <time>2013-04-20T19:26:59Z</time>
      </trkpt>
      <trkpt lat="59.8934739" lon="17.6379378">
        <ele>25.1317</ele>
        <time>2013-04-20T19:27:00Z</time>
      </trkpt>
      <trkpt lat="59.8935416" lon="17.637892">
        <ele>25.6123</ele>
        <time>2013-04-20T19:27:01Z</time>
      </trkpt>
      <trkpt lat="59.8936127" lon="17.6378452">
        <ele>26.0929</ele>
        <time>2013-04-20T19:27:02Z</time>
      </trkpt>
      <trkpt lat="59.8936844" lon="17.6377927">
        <ele>27.0543</ele>
        <time>2013-04-20T19:27:03Z</time>
      </trkpt>
      <trkpt lat="59.8937533" lon="17.637738">
        <ele>26.5736</ele>
        <time>2013-04-20T19:27:04Z</time>
      </trkpt>
      <trkpt lat="59.8938203" lon="17.6376824">
        <ele>26.0929</ele>
        <time>2013-04-20T19:27:05Z</time>
      </trkpt>
      <trkpt lat="59.8938846" lon="17.6376286">
        <ele>25.6123</ele>
        <time>2013-04-20T19:27:06Z</time>
      </trkpt>
      <trkpt lat="59.8939538" lon="17.6375767">
        <ele>25.6123</ele>
        <time>2013-04-20T19:27:07Z</time>
      </trkpt>
      <trkpt lat="59.8940185" lon="17.6375271">
        <ele>25.1317</ele>
        <time>2013-04-20T19:27:08Z</time>
      </trkpt>
      <trkpt lat="59.8940834" lon="17.6374782">
        <ele>24.651</ele>
        <time>2013-04-20T19:27:09Z</time>
      </trkpt>
      <trkpt lat="59.8941483" lon="17.6374327">
        <ele>23.6896</ele>
        <time>2013-04-20T19:27:10Z</time>
      </trkpt>
      <trkpt lat="59.8942226" lon="17.6373893">
        <ele>25.1317</ele>
        <time>2013-04-20T19:27:11Z</time>
      </trkpt>
      <trkpt lat="59.8942901" lon="17.6373455">
        <ele>25.1317</ele>
        <time>2013-04-20T19:27:12Z</time>
      </trkpt>
      <trkpt lat="59.8943547" lon="17.6372992">
        <ele>24.651</ele>
        <time>2013-04-20T19:27:13Z</time>
      </trkpt>
      <trkpt lat="59.89442" lon="17.637254">
        <ele>24.651</ele>
        <time>2013-04-20T19:27:14Z</time>
      </trkpt>
      <trkpt lat="59.8944844" lon="17.6372157">
        <ele>24.651</ele>
        <time>2013-04-20T19:27:15Z</time>
      </trkpt>
      <trkpt lat="59.8945477" lon="17.6371732">
        <ele>24.651</ele>
        <time>2013-04-20T19:27:16Z</time>
      </trkpt>
      <trkpt lat="59.8946134" lon="17.6371323">
        <ele>24.651</ele>
        <time>2013-04-20T19:27:17Z</time>
      </trkpt>
      <trkpt lat="59.894678" lon="17.6370934">
        <ele>24.1703</ele>
        <time>2013-04-20T19:27:18Z</time>
      </trkpt>
      <trkpt lat="59.8947427" lon="17.6370551">
        <ele>24.1703</ele>
        <time>2013-04-20T19:27:19Z</time>
      </trkpt>
      <trkpt lat="59.8948072" lon="17.6370152">
        <ele>24.1703</ele>
        <time>2013-04-20T19:27:20Z</time>
      </trkpt>
      <trkpt lat="59.8948712" lon="17.6369751">
        <ele>24.1703</ele>
        <time>2013-04-20T19:27:21Z</time>
      </trkpt>
      <trkpt lat="59.8949396" lon="17.6369245">
        <ele>24.1703</ele>
        <time>2013-04-20T19:27:22Z</time>
      </trkpt>
      <trkpt lat="59.8950064" lon="17.6368874">
        <ele>24.1703</ele>
        <time>2013-04-20T19:27:23Z</time>
      </trkpt>
      <trkpt lat="59.8950698" lon="17.6368402">
        <ele>24.1703</ele>
        <time>2013-04-20T19:27:24Z</time>
      </trkpt>
      <trkpt lat="59.8951325" lon="17.6367985">
        <ele>23.6896</ele>
        <time>2013-04-20T19:27:25Z</time>
      </trkpt>
      <trkpt lat="59.8951949" lon="17.6367553">
        <ele>23.6896</ele>
        <time>2013-04-20T19:27:26Z</time>
      </trkpt>
      <trkpt lat="59.8952593" lon="17.6367132">
        <ele>23.6896</ele>
        <time>2013-04-20T19:27:27Z</time>
      </trkpt>
      <trkpt lat="59.8953215" lon="17.6366814">
        <ele>23.209</ele>
        <time>2013-04-20T19:27:28Z</time>
      </trkpt>
      <trkpt lat="59.8953852" lon="17.6366438">
        <ele>22.7283</ele>
        <time>2013-04-20T19:27:29Z</time>
      </trkpt>
      <trkpt lat="59.8954467" lon="17.6366112">
        <ele>22.2476</ele>
        <time>2013-04-20T19:27:30Z</time>
      </trkpt>
      <trkpt lat="59.8955074" lon="17.6365828">
        <ele>21.767</ele>
        <time>2013-04-20T19:27:31Z</time>
      </trkpt>
      <trkpt lat="59.8955691" lon="17.6365564">
        <ele>21.2864</ele>
        <time>2013-04-20T19:27:32Z</time>
      </trkpt>
      <trkpt lat="59.8956323" lon="17.6365344">
        <ele>20.8057</ele>
        <time>2013-04-20T19:27:33Z</time>
      </trkpt>
      <trkpt lat="59.8956982" lon="17.6365165">
        <ele>20.8057</ele>
        <time>2013-04-20T19:27:34Z</time>
      </trkpt>
      <trkpt lat="59.895765" lon="17.6365037">
        <ele>20.8057</ele>
        <time>2013-04-20T19:27:35Z</time>
      </trkpt>
      <trkpt lat="59.8958364" lon="17.6364887">
        <ele>21.2864</ele>
        <time>2013-04-20T19:27:36Z</time>
      </trkpt>
      <trkpt lat="59.8959043" lon="17.6364901">
        <ele>21.767</ele>
        <time>2013-04-20T19:27:37Z</time>
      </trkpt>
      <trkpt lat="59.8959707" lon="17.6364986">
        <ele>21.767</ele>
        <time>2013-04-20T19:27:38Z</time>
      </trkpt>
      <trkpt lat="59.8960375" lon="17.6365122">
        <ele>21.767</ele>
        <time>2013-04-20T19:27:39Z</time>
      </trkpt>
      <trkpt lat="59.8961041" lon="17.6365328">
        <ele>21.767</ele>
        <time>2013-04-20T19:27:40Z</time>
      </trkpt>
      <trkpt lat="59.8961698" lon="17.6365573">
        <ele>21.767</ele>
        <time>2013-04-20T19:27:41Z</time>
      </trkpt>
      <trkpt lat="59.896232" lon="17.6365832">
        <ele>21.2864</ele>
        <time>2013-04-20T19:27:42Z</time>
      </trkpt>
      <trkpt lat="59.8962952" lon="17.6366107">
        <ele>21.2864</ele>
        <time>2013-04-20T19:27:43Z</time>
      </trkpt>
      <trkpt lat="59.8963584" lon="17.6366376">
        <ele>21.2864</ele>
        <time>2013-04-20T19:27:44Z</time>
      </trkpt>
      <trkpt lat="59.8964226" lon="17.6366635">
        <ele>21.2864</ele>
        <time>2013-04-20T19:27:45Z</time>
      </trkpt>
      <trkpt lat="59.8964871" lon="17.6366878">
        <ele>21.767</ele>
        <time>2013-04-20T19:27:46Z</time>
      </trkpt>
      <trkpt lat="59.8965518" lon="17.636711">
        <ele>21.767</ele>
        <time>2013-04-20T19:27:47Z</time>
      </trkpt>
      <trkpt lat="59.8966164" lon="17.636734">
        <ele>21.767</ele>
        <time>2013-04-20T19:27:48Z</time>
      </trkpt>
      <trkpt lat="59.8966813" lon="17.6367581">
        <ele>21.767</ele>
        <time>2013-04-20T19:27:49Z</time>
      </trkpt>
      <trkpt lat="59.8967605" lon="17.6367851">
        <ele>24.1703</ele>
        <time>2013-04-20T19:27:50Z</time>
      </trkpt>
      <trkpt lat="59.8968359" lon="17.6368135">
        <ele>25.6123</ele>
        <time>2013-04-20T19:27:51Z</time>
      </trkpt>
      <trkpt lat="59.896909" lon="17.6368441">
        <ele>26.5736</ele>
        <time>2013-04-20T19:27:52Z</time>
      </trkpt>
      <trkpt lat="59.8969776" lon="17.6368765">
        <ele>27.0543</ele>
        <time>2013-04-20T19:27:53Z</time>
      </trkpt>
      <trkpt lat="59.8970444" lon="17.636909">
        <ele>27.0543</ele>
        <time>2013-04-20T19:27:54Z</time>
      </trkpt>
      <trkpt lat="59.8971117" lon="17.636942">
        <ele>27.0543</ele>
        <time>2013-04-20T19:27:55Z</time>
      </trkpt>
      <trkpt lat="59.89718" lon="17.6369759">
        <ele>27.0543</ele>
        <time>2013-04-20T19:27:56Z</time>
      </trkpt>
      <trkpt lat="59.8972485" lon="17.6370129">
        <ele>27.5349</ele>
        <time>2013-04-20T19:27:57Z</time>
      </trkpt>
      <trkpt lat="59.8973158" lon="17.637051">
        <ele>27.0543</ele>
        <time>2013-04-20T19:27:58Z</time>
      </trkpt>
      <trkpt lat="59.8973824" lon="17.6370856">
        <ele>27.0543</ele>
        <time>2013-04-20T19:27:59Z</time>
      </trkpt>
      <trkpt lat="59.8974484" lon="17.6371202">
        <ele>26.5736</ele>
        <time>2013-04-20T19:28:00Z</time>
      </trkpt>
      <trkpt lat="59.8975151" lon="17.6371628">
        <ele>26.5736</ele>
        <time>2013-04-20T19:28:01Z</time>
      </trkpt>
      <trkpt lat="59.8975826" lon="17.6372095">
        <ele>26.5736</ele>
        <time>2013-04-20T19:28:02Z</time>
      </trkpt>
      <trkpt lat="59.8976487" lon="17.6372582">
        <ele>26.5736</ele>
        <time>2013-04-20T19:28:03Z</time>
      </trkpt>
      <trkpt lat="59.8977152" lon="17.6373182">
        <ele>26.0929</ele>
        <time>2013-04-20T19:28:04Z</time>
      </trkpt>
      <trkpt lat="59.897777" lon="17.637394">
        <ele>25.6123</ele>
        <time>2013-04-20T19:28:05Z</time>
      </trkpt>
      <trkpt lat="59.897836" lon="17.6374861">
        <ele>25.6123</ele>
        <time>2013-04-20T19:28:06Z</time>
      </trkpt>
      <trkpt lat="59.8978913" lon="17.6375855">
        <ele>25.6123</ele>
        <time>2013-04-20T19:28:07Z</time>
      </trkpt>
      <trkpt lat="59.8979462" lon="17.637685">
        <ele>25.1317</ele>
        <time>2013-04-20T19:28:08Z</time>
      </trkpt>
      <trkpt lat="59.8980066" lon="17.637777">
        <ele>25.1317</ele>
        <time>2013-04-20T19:28:09Z</time>
      </trkpt>
      <trkpt lat="59.898072" lon="17.6378568">
        <ele>25.6123</ele>
        <time>2013-04-20T19:28:10Z</time>
      </trkpt>
      <trkpt lat="59.8981391" lon="17.637925">
        <ele>25.6123</ele>
        <time>2013-04-20T19:28:11Z</time>
      </trkpt>
      <trkpt lat="59.8982077" lon="17.6379886">
        <ele>25.6123</ele>
        <time>2013-04-20T19:28:12Z</time>
      </trkpt>
      <trkpt lat="59.8982762" lon="17.6380505">
        <ele>25.1317</ele>
        <time>2013-04-20T19:28:13Z</time>
      </trkpt>
      <trkpt lat="59.8983437" lon="17.6381096">
        <ele>24.651</ele>
        <time>2013-04-20T19:28:14Z</time>
      </trkpt>
      <trkpt lat="59.8984122" lon="17.6381658">
        <ele>24.1703</ele>
        <time>2013-04-20T19:28:15Z</time>
      </trkpt>
      <trkpt lat="59.8984803" lon="17.6382215">
        <ele>24.1703</ele>
        <time>2013-04-20T19:28:16Z</time>
      </trkpt>
      <trkpt lat="59.8985497" lon="17.638273">
        <ele>24.1703</ele>
        <time>2013-04-20T19:28:17Z</time>
      </trkpt>
      <trkpt lat="59.8986223" lon="17.6383087">
        <ele>23.6896</ele>
        <time>2013-04-20T19:28:18Z</time>
      </trkpt>
      <trkpt lat="59.8986977" lon="17.6383197">
        <ele>23.6896</ele>
        <time>2013-04-20T19:28:19Z</time>
      </trkpt>
      <trkpt lat="59.8987736" lon="17.6383128">
        <ele>23.209</ele>
        <time>2013-04-20T19:28:20Z</time>
      </trkpt>
      <trkpt lat="59.8988492" lon="17.6383144">
        <ele>23.209</ele>
        <time>2013-04-20T19:28:21Z</time>
      </trkpt>
      <trkpt lat="59.8989282" lon="17.6383416">
        <ele>23.6896</ele>
        <time>2013-04-20T19:28:22Z</time>
      </trkpt>
      <trkpt lat="59.899004" lon="17.6383917">
        <ele>24.1703</ele>
        <time>2013-04-20T19:28:23Z</time>
      </trkpt>
      <trkpt lat="59.8990755" lon="17.6384587">
        <ele>24.1703</ele>
        <time>2013-04-20T19:28:24Z</time>
      </trkpt>
      <trkpt lat="59.8991448" lon="17.6385376">
        <ele>24.1703</ele>
        <time>2013-04-20T19:28:25Z</time>
      </trkpt>
      <trkpt lat="59.8992146" lon="17.6386138">
        <ele>24.1703</ele>
        <time>2013-04-20T19:28:26Z</time>
      </trkpt>
      <trkpt lat="59.8992827" lon="17.6386909">
        <ele>24.1703</ele>
        <time>2013-04-20T19:28:27Z</time>
      </trkpt>
      <trkpt lat="59.8993511" lon="17.6387667">
        <ele>23.6896</ele>
        <time>2013-04-20T19:28:28Z</time>
      </trkpt>
      <trkpt lat="59.8994211" lon="17.6388363">
        <ele>23.6896</ele>
        <time>2013-04-20T19:28:29Z</time>
      </trkpt>
      <trkpt lat="59.8994914" lon="17.6389043">
        <ele>23.6896</ele>
        <time>2013-04-20T19:28:30Z</time>
      </trkpt>
      <trkpt lat="59.8995617" lon="17.6389764">
        <ele>23.6896</ele>
        <time>2013-04-20T19:28:31Z</time>
      </trkpt>
      <trkpt lat="59.8996302" lon="17.6390515">
        <ele>23.209</ele>
        <time>2013-04-20T19:28:32Z</time>
      </trkpt>
      <trkpt lat="59.8996993" lon="17.6391302">
        <ele>23.209</ele>
        <time>2013-04-20T19:28:33Z</time>
      </trkpt>
      <trkpt lat="59.8997679" lon="17.6392018">
        <ele>22.7283</ele>
        <time>2013-04-20T19:28:34Z</time>
      </trkpt>
      <trkpt lat="59.8998395" lon="17.6392716">
        <ele>22.7283</ele>
        <time>2013-04-20T19:28:35Z</time>
      </trkpt>
      <trkpt lat="59.899909" lon="17.6393399">
        <ele>22.7283</ele>
        <time>2013-04-20T19:28:36Z</time>
      </trkpt>
      <trkpt lat="59.8999792" lon="17.6394095">
        <ele>22.2476</ele>
        <time>2013-04-20T19:28:37Z</time>
      </trkpt>
      <trkpt lat="59.9000505" lon="17.6394831">
        <ele>22.2476</ele>
        <time>2013-04-20T19:28:38Z</time>
      </trkpt>
      <trkpt lat="59.9001259" lon="17.6395525">
        <ele>22.7283</ele>
        <time>2013-04-20T19:28:39Z</time>
      </trkpt>
      <trkpt lat="59.9001975" lon="17.6396248">
        <ele>22.2476</ele>
        <time>2013-04-20T19:28:40Z</time>
      </trkpt>
      <trkpt lat="59.9002704" lon="17.6397078">
        <ele>23.209</ele>
        <time>2013-04-20T19:28:41Z</time>
      </trkpt>
      <trkpt lat="59.9003445" lon="17.6397857">
        <ele>24.1703</ele>
        <time>2013-04-20T19:28:42Z</time>
      </trkpt>
      <trkpt lat="59.9004162" lon="17.6398586">
        <ele>24.1703</ele>
        <time>2013-04-20T19:28:43Z</time>
      </trkpt>
      <trkpt lat="59.9004872" lon="17.6399248">
        <ele>23.6896</ele>
        <time>2013-04-20T19:28:44Z</time>
      </trkpt>
      <trkpt lat="59.9005582" lon="17.6399985">
        <ele>23.6896</ele>
        <time>2013-04-20T19:28:45Z</time>
      </trkpt>
      <trkpt lat="59.900629" lon="17.6400687">
        <ele>23.6896</ele>
        <time>2013-04-20T19:28:46Z</time>
      </trkpt>
      <trkpt lat="59.9006983" lon="17.6401395">
        <ele>22.7283</ele>
        <time>2013-04-20T19:28:47Z</time>
      </trkpt>
      <trkpt lat="59.9007697" lon="17.6402076">
        <ele>21.767</ele>
        <time>2013-04-20T19:28:48Z</time>
      </trkpt>
      <trkpt lat="59.9008414" lon="17.6402771">
        <ele>21.2864</ele>
        <time>2013-04-20T19:28:49Z</time>
      </trkpt>
      <trkpt lat="59.9009098" lon="17.6403551">
        <ele>20.8057</ele>
        <time>2013-04-20T19:28:50Z</time>
      </trkpt>
      <trkpt lat="59.9009754" lon="17.6404272">
        <ele>19.8444</ele>
        <time>2013-04-20T19:28:51Z</time>
      </trkpt>
      <trkpt lat="59.9010402" lon="17.6404968">
        <ele>18.4023</ele>
        <time>2013-04-20T19:28:52Z</time>
      </trkpt>
      <trkpt lat="59.9011113" lon="17.6405665">
        <ele>18.8831</ele>
        <time>2013-04-20T19:28:53Z</time>
      </trkpt>
      <trkpt lat="59.9011864" lon="17.6406329">
        <ele>20.325</ele>
        <time>2013-04-20T19:28:54Z</time>
      </trkpt>
      <trkpt lat="59.9012558" lon="17.6406978">
        <ele>19.8444</ele>
        <time>2013-04-20T19:28:55Z</time>
      </trkpt>
      <trkpt lat="59.9013309" lon="17.6407641">
        <ele>21.2864</ele>
        <time>2013-04-20T19:28:56Z</time>
      </trkpt>
      <trkpt lat="59.901401" lon="17.6408292">
        <ele>21.2864</ele>
        <time>2013-04-20T19:28:57Z</time>
      </trkpt>
      <trkpt lat="59.9014695" lon="17.6408936">
        <ele>21.2864</ele>
        <time>2013-04-20T19:28:58Z</time>
      </trkpt>
      <trkpt lat="59.9015402" lon="17.6409553">
        <ele>21.767</ele>
        <time>2013-04-20T19:28:59Z</time>
      </trkpt>
      <trkpt lat="59.9016107" lon="17.6410137">
        <ele>22.2476</ele>
        <time>2013-04-20T19:29:00Z</time>
      </trkpt>
      <trkpt lat="59.9016806" lon="17.6410734">
        <ele>22.7283</ele>
        <time>2013-04-20T19:29:01Z</time>
      </trkpt>
      <trkpt lat="59.901752" lon="17.641136">
        <ele>23.209</ele>
        <time>2013-04-20T19:29:02Z</time>
      </trkpt>
      <trkpt lat="59.9018276" lon="17.6411976">
        <ele>24.1703</ele>
        <time>2013-04-20T19:29:03Z</time>
      </trkpt>
      <trkpt lat="59.9019078" lon="17.6412572">
        <ele>26.0929</ele>
        <time>2013-04-20T19:29:04Z</time>
      </trkpt>
      <trkpt lat="59.9019774" lon="17.6413126">
        <ele>25.6123</ele>
        <time>2013-04-20T19:29:05Z</time>
      </trkpt>
      <trkpt lat="59.9020458" lon="17.6413659">
        <ele>25.1317</ele>
        <time>2013-04-20T19:29:06Z</time>
      </trkpt>
      <trkpt lat="59.9021157" lon="17.6414152">
        <ele>25.1317</ele>
        <time>2013-04-20T19:29:07Z</time>
      </trkpt>
      <trkpt lat="59.9021944" lon="17.641465">
        <ele>26.5736</ele>
        <time>2013-04-20T19:29:08Z</time>
      </trkpt>
      <trkpt lat="59.9022658" lon="17.6415141">
        <ele>26.5736</ele>
        <time>2013-04-20T19:29:09Z</time>
      </trkpt>
      <trkpt lat="59.9023353" lon="17.6415645">
        <ele>26.5736</ele>
        <time>2013-04-20T19:29:10Z</time>
      </trkpt>
      <trkpt lat="59.9024043" lon="17.641615">
        <ele>26.5736</ele>
        <time>2013-04-20T19:29:11Z</time>
      </trkpt>
      <trkpt lat="59.9024741" lon="17.6416619">
        <ele>26.5736</ele>
        <time>2013-04-20T19:29:12Z</time>
      </trkpt>
      <trkpt lat="59.9025436" lon="17.6417053">
        <ele>26.0929</ele>
        <time>2013-04-20T19:29:13Z</time>
      </trkpt>
      <trkpt lat="59.9026138" lon="17.6417479">
        <ele>26.0929</ele>
        <time>2013-04-20T19:29:14Z</time>
      </trkpt>
      <trkpt lat="59.9026835" lon="17.6417895">
        <ele>26.0929</ele>
        <time>2013-04-20T19:29:15Z</time>
      </trkpt>
      <trkpt lat="59.9027523" lon="17.6418301">
        <ele>26.0929</ele>
        <time>2013-04-20T19:29:16Z</time>
      </trkpt>
      <trkpt lat="59.9028187" lon="17.6418711">
        <ele>25.6123</ele>
        <time>2013-04-20T19:29:17Z</time>
      </trkpt>
      <trkpt lat="59.9028856" lon="17.6419121">
        <ele>25.1317</ele>
        <time>2013-04-20T19:29:18Z</time>
      </trkpt>
      <trkpt lat="59.9029529" lon="17.6419498">
        <ele>25.1317</ele>
        <time>2013-04-20T19:29:19Z</time>
      </trkpt>
      <trkpt lat="59.9030205" lon="17.6419854">
        <ele>25.1317</ele>
        <time>2013-04-20T19:29:20Z</time>
      </trkpt>
      <trkpt lat="59.9030888" lon="17.6420185">
        <ele>24.651</ele>
        <time>2013-04-20T19:29:21Z</time>
      </trkpt>
      <trkpt lat="59.9031574" lon="17.6420503">
        <ele>24.651</ele>
        <time>2013-04-20T19:29:22Z</time>
      </trkpt>
      <trkpt lat="59.9032254" lon="17.6420814">
        <ele>25.1317</ele>
        <time>2013-04-20T19:29:23Z</time>
      </trkpt>
      <trkpt lat="59.9032962" lon="17.6421135">
        <ele>25.6123</ele>
        <time>2013-04-20T19:29:24Z</time>
      </trkpt>
      <trkpt lat="59.903365" lon="17.6421456">
        <ele>25.6123</ele>
        <time>2013-04-20T19:29:25Z</time>
      </trkpt>
      <trkpt lat="59.9034372" lon="17.642178">
        <ele>26.0929</ele>
        <time>2013-04-20T19:29:26Z</time>
      </trkpt>
      <trkpt lat="59.9035092" lon="17.6422182">
        <ele>26.0929</ele>
        <time>2013-04-20T19:29:27Z</time>
      </trkpt>
      <trkpt lat="59.9035786" lon="17.6422543">
        <ele>26.0929</ele>
        <time>2013-04-20T19:29:28Z</time>
      </trkpt>
      <trkpt lat="59.9036475" lon="17.6422917">
        <ele>26.0929</ele>
        <time>2013-04-20T19:29:29Z</time>
      </trkpt>
      <trkpt lat="59.9037164" lon="17.6423252">
        <ele>26.0929</ele>
        <time>2013-04-20T19:29:30Z</time>
      </trkpt>
      <trkpt lat="59.9037823" lon="17.6423655">
        <ele>25.1317</ele>
        <time>2013-04-20T19:29:31Z</time>
      </trkpt>
      <trkpt lat="59.9038489" lon="17.6423932">
        <ele>25.1317</ele>
        <time>2013-04-20T19:29:32Z</time>
      </trkpt>
      <trkpt lat="59.9039158" lon="17.6424293">
        <ele>24.1703</ele>
        <time>2013-04-20T19:29:33Z</time>
      </trkpt>
      <trkpt lat="59.9039857" lon="17.6424595">
        <ele>24.1703</ele>
        <time>2013-04-20T19:29:34Z</time>
      </trkpt>
      <trkpt lat="59.9040529" lon="17.6424901">
        <ele>23.6896</ele>
        <time>2013-04-20T19:29:35Z</time>
      </trkpt>
      <trkpt lat="59.9041209" lon="17.6425206">
        <ele>23.6896</ele>
        <time>2013-04-20T19:29:36Z</time>
      </trkpt>
      <trkpt lat="59.9041955" lon="17.6425532">
        <ele>24.651</ele>
        <time>2013-04-20T19:29:37Z</time>
      </trkpt>
      <trkpt lat="59.9042668" lon="17.6425859">
        <ele>24.651</ele>
        <time>2013-04-20T19:29:38Z</time>
      </trkpt>
      <trkpt lat="59.9043373" lon="17.6426215">
        <ele>24.1703</ele>
        <time>2013-04-20T19:29:39Z</time>
      </trkpt>
      <trkpt lat="59.9044078" lon="17.6426589">
        <ele>23.6896</ele>
        <time>2013-04-20T19:29:40Z</time>
      </trkpt>
      <trkpt lat="59.9044802" lon="17.6426973">
        <ele>24.1703</ele>
        <time>2013-04-20T19:29:41Z</time>
      </trkpt>
      <trkpt lat="59.9045518" lon="17.6427321">
        <ele>24.651</ele>
        <time>2013-04-20T19:29:42Z</time>
      </trkpt>
      <trkpt lat="59.9046235" lon="17.6427646">
        <ele>25.1317</ele>
        <time>2013-04-20T19:29:43Z</time>
      </trkpt>
      <trkpt lat="59.9046918" lon="17.6427963">
        <ele>24.1703</ele>
        <time>2013-04-20T19:29:44Z</time>
      </trkpt>
      <trkpt lat="59.9047605" lon="17.6428255">
        <ele>24.1703</ele>
        <time>2013-04-20T19:29:45Z</time>
      </trkpt>
      <trkpt lat="59.9048274" lon="17.6428542">
        <ele>23.6896</ele>
        <time>2013-04-20T19:29:46Z</time>
      </trkpt>
      <trkpt lat="59.9048933" lon="17.6428801">
        <ele>22.7283</ele>
        <time>2013-04-20T19:29:47Z</time>
      </trkpt>
      <trkpt lat="59.9049591" lon="17.6429163">
        <ele>21.767</ele>
        <time>2013-04-20T19:29:48Z</time>
      </trkpt>
      <trkpt lat="59.9050252" lon="17.6429519">
        <ele>20.8057</ele>
        <time>2013-04-20T19:29:49Z</time>
      </trkpt>
      <trkpt lat="59.905093" lon="17.6429859">
        <ele>20.8057</ele>
        <time>2013-04-20T19:29:50Z</time>
      </trkpt>
      <trkpt lat="59.9051579" lon="17.6430175">
        <ele>19.8444</ele>
        <time>2013-04-20T19:29:51Z</time>
      </trkpt>
      <trkpt lat="59.9052277" lon="17.6430494">
        <ele>20.8057</ele>
        <time>2013-04-20T19:29:52Z</time>
      </trkpt>
      <trkpt lat="59.905285" lon="17.6430728">
        <ele>18.4023</ele>
        <time>2013-04-20T19:29:53Z</time>
      </trkpt>
      <trkpt lat="59.9053455" lon="17.6431003">
        <ele>17.9218</ele>
        <time>2013-04-20T19:29:54Z</time>
      </trkpt>
      <trkpt lat="59.905409" lon="17.6431309">
        <ele>17.9218</ele>
        <time>2013-04-20T19:29:55Z</time>
      </trkpt>
      <trkpt lat="59.9054745" lon="17.6431592">
        <ele>18.4023</ele>
        <time>2013-04-20T19:29:56Z</time>
      </trkpt>
      <trkpt lat="59.9055418" lon="17.6431887">
        <ele>18.8831</ele>
        <time>2013-04-20T19:29:57Z</time>
      </trkpt>
      <trkpt lat="59.9056082" lon="17.6432187">
        <ele>19.8444</ele>
        <time>2013-04-20T19:29:58Z</time>
      </trkpt>
      <trkpt lat="59.9056734" lon="17.6432462">
        <ele>19.8444</ele>
        <time>2013-04-20T19:29:59Z</time>
      </trkpt>
      <trkpt lat="59.9057386" lon="17.6432743">
        <ele>19.8444</ele>
        <time>2013-04-20T19:30:00Z</time>
      </trkpt>
      <trkpt lat="59.9058035" lon="17.6433031">
        <ele>20.325</ele>
        <time>2013-04-20T19:30:01Z</time>
      </trkpt>
      <trkpt lat="59.905869" lon="17.6433329">
        <ele>20.8057</ele>
        <time>2013-04-20T19:30:02Z</time>
      </trkpt>
      <trkpt lat="59.9059344" lon="17.6433614">
        <ele>21.2864</ele>
        <time>2013-04-20T19:30:03Z</time>
      </trkpt>
      <trkpt lat="59.9059973" lon="17.6433912">
        <ele>20.8057</ele>
        <time>2013-04-20T19:30:04Z</time>
      </trkpt>
      <trkpt lat="59.9060566" lon="17.6434199">
        <ele>20.8057</ele>
        <time>2013-04-20T19:30:05Z</time>
      </trkpt>
      <trkpt lat="59.9061137" lon="17.6434458">
        <ele>20.8057</ele>
        <time>2013-04-20T19:30:06Z</time>
      </trkpt>
      <trkpt lat="59.9061706" lon="17.6434701">
        <ele>20.8057</ele>
        <time>2013-04-20T19:30:07Z</time>
      </trkpt>
      <trkpt lat="59.9062281" lon="17.6434959">
        <ele>20.8057</ele>
        <time>2013-04-20T19:30:08Z</time>
      </trkpt>
      <trkpt lat="59.9062857" lon="17.6435176">
        <ele>21.2864</ele>
        <time>2013-04-20T19:30:09Z</time>
      </trkpt>
      <trkpt lat="59.9063436" lon="17.6435406">
        <ele>21.2864</ele>
        <time>2013-04-20T19:30:10Z</time>
      </trkpt>
      <trkpt lat="59.9064036" lon="17.6435647">
        <ele>21.767</ele>
        <time>2013-04-20T19:30:11Z</time>
      </trkpt>
      <trkpt lat="59.906464" lon="17.6435903">
        <ele>21.767</ele>
        <time>2013-04-20T19:30:12Z</time>
      </trkpt>
      <trkpt lat="59.9065253" lon="17.6436176">
        <ele>21.767</ele>
        <time>2013-04-20T19:30:13Z</time>
      </trkpt>
      <trkpt lat="59.9065872" lon="17.6436409">
        <ele>22.2476</ele>
        <time>2013-04-20T19:30:14Z</time>
      </trkpt>
      <trkpt lat="59.9066487" lon="17.6436603">
        <ele>22.7283</ele>
        <time>2013-04-20T19:30:15Z</time>
      </trkpt>
      <trkpt lat="59.9067099" lon="17.6436794">
        <ele>22.7283</ele>
        <time>2013-04-20T19:30:16Z</time>
      </trkpt>
      <trkpt lat="59.9067717" lon="17.6436995">
        <ele>23.209</ele>
        <time>2013-04-20T19:30:17Z</time>
      </trkpt>
      <trkpt lat="59.9068346" lon="17.6437177">
        <ele>23.6896</ele>
        <time>2013-04-20T19:30:18Z</time>
      </trkpt>
      <trkpt lat="59.9068981" lon="17.6437324">
        <ele>24.1703</ele>
        <time>2013-04-20T19:30:19Z</time>
      </trkpt>
      <trkpt lat="59.9069601" lon="17.6437467">
        <ele>24.651</ele>
        <time>2013-04-20T19:30:20Z</time>
      </trkpt>
      <trkpt lat="59.9070221" lon="17.6437618">
        <ele>24.651</ele>
        <time>2013-04-20T19:30:21Z</time>
      </trkpt>
      <trkpt lat="59.9070844" lon="17.6437773">
        <ele>24.651</ele>
        <time>2013-04-20T19:30:22Z</time>
      </trkpt>
      <trkpt lat="59.9071469" lon="17.6437934">
        <ele>24.651</ele>
        <time>2013-04-20T19:30:23Z</time>
      </trkpt>
      <trkpt lat="59.9072103" lon="17.6438083">
        <ele>25.1317</ele>
        <time>2013-04-20T19:30:24Z</time>
      </trkpt>
      <trkpt lat="59.9072746" lon="17.6438222">
        <ele>25.6123</ele>
        <time>2013-04-20T19:30:25Z</time>
      </trkpt>
      <trkpt lat="59.9073391" lon="17.6438353">
        <ele>26.0929</ele>
        <time>2013-04-20T19:30:26Z</time>
      </trkpt>
      <trkpt lat="59.9074036" lon="17.6438483">
        <ele>26.0929</ele>
        <time>2013-04-20T19:30:27Z</time>
      </trkpt>
      <trkpt lat="59.9074684" lon="17.6438611">
        <ele>26.5736</ele>
        <time>2013-04-20T19:30:28Z</time>
      </trkpt>
      <trkpt lat="59.907534" lon="17.6438721">
        <ele>26.5736</ele>
        <time>2013-04-20T19:30:29Z</time>
      </trkpt>
      <trkpt lat="59.9075976" lon="17.6438839">
        <ele>27.0543</ele>
        <time>2013-04-20T19:30:30Z</time>
      </trkpt>
      <trkpt lat="59.9076582" lon="17.6438957">
        <ele>27.0543</ele>
        <time>2013-04-20T19:30:31Z</time>
      </trkpt>
      <trkpt lat="59.9077154" lon="17.6439026">
        <ele>27.0543</ele>
        <time>2013-04-20T19:30:32Z</time>
      </trkpt>
      <trkpt lat="59.9077713" lon="17.6439062">
        <ele>27.5349</ele>
        <time>2013-04-20T19:30:33Z</time>
      </trkpt>
      <trkpt lat="59.9078245" lon="17.6438996">
        <ele>27.5349</ele>
        <time>2013-04-20T19:30:34Z</time>
      </trkpt>
      <trkpt lat="59.9078781" lon="17.6438764">
        <ele>27.5349</ele>
        <time>2013-04-20T19:30:35Z</time>
      </trkpt>
      <trkpt lat="59.9079319" lon="17.6438529">
        <ele>28.0155</ele>
        <time>2013-04-20T19:30:36Z</time>
      </trkpt>
      <trkpt lat="59.9079866" lon="17.6438436">
        <ele>28.0155</ele>
        <time>2013-04-20T19:30:37Z</time>
      </trkpt>
      <trkpt lat="59.9080385" lon="17.6438455">
        <ele>27.5349</ele>
        <time>2013-04-20T19:30:38Z</time>
      </trkpt>
      <trkpt lat="59.9080902" lon="17.6438535">
        <ele>27.0543</ele>
        <time>2013-04-20T19:30:39Z</time>
      </trkpt>
      <trkpt lat="59.9081402" lon="17.6438602">
        <ele>26.5736</ele>
        <time>2013-04-20T19:30:40Z</time>
      </trkpt>
      <trkpt lat="59.9081899" lon="17.6438624">
        <ele>26.5736</ele>
        <time>2013-04-20T19:30:41Z</time>
      </trkpt>
      <trkpt lat="59.9082423" lon="17.6438527">
        <ele>27.0543</ele>
        <time>2013-04-20T19:30:42Z</time>
      </trkpt>
      <trkpt lat="59.9082935" lon="17.6438317">
        <ele>26.5736</ele>
        <time>2013-04-20T19:30:43Z</time>
      </trkpt>
      <trkpt lat="59.9083447" lon="17.643793">
        <ele>26.5736</ele>
        <time>2013-04-20T19:30:44Z</time>
      </trkpt>
      <trkpt lat="59.9083975" lon="17.6437534">
        <ele>26.5736</ele>
        <time>2013-04-20T19:30:45Z</time>
      </trkpt>
      <trkpt lat="59.9084542" lon="17.6437312">
        <ele>26.0929</ele>
        <time>2013-04-20T19:30:46Z</time>
      </trkpt>
      <trkpt lat="59.9085163" lon="17.6437281">
        <ele>26.0929</ele>
        <time>2013-04-20T19:30:47Z</time>
      </trkpt>
      <trkpt lat="59.9085805" lon="17.6437308">
        <ele>26.5736</ele>
        <time>2013-04-20T19:30:48Z</time>
      </trkpt>
      <trkpt lat="59.9086458" lon="17.6437307">
        <ele>26.5736</ele>
        <time>2013-04-20T19:30:49Z</time>
      </trkpt>
      <trkpt lat="59.908711" lon="17.6437281">
        <ele>27.0543</ele>
        <time>2013-04-20T19:30:50Z</time>
      </trkpt>
      <trkpt lat="59.9087752" lon="17.6437224">
        <ele>27.0543</ele>
        <time>2013-04-20T19:30:51Z</time>
      </trkpt>
      <trkpt lat="59.9088408" lon="17.6437157">
        <ele>27.0543</ele>
        <time>2013-04-20T19:30:52Z</time>
      </trkpt>
      <trkpt lat="59.9089057" lon="17.643711">
        <ele>27.0543</ele>
        <time>2013-04-20T19:30:53Z</time>
      </trkpt>
      <trkpt lat="59.90897" lon="17.643708">
        <ele>27.0543</ele>
        <time>2013-04-20T19:30:54Z</time>
      </trkpt>
      <trkpt lat="59.9090332" lon="17.6437033">
        <ele>27.0543</ele>
        <time>2013-04-20T19:30:55Z</time>
      </trkpt>
      <trkpt lat="59.9090969" lon="17.6436951">
        <ele>27.5349</ele>
        <time>2013-04-20T19:30:56Z</time>
      </trkpt>
      <trkpt lat="59.9091615" lon="17.6436849">
        <ele>27.5349</ele>
        <time>2013-04-20T19:30:57Z</time>
      </trkpt>
      <trkpt lat="59.9092269" lon="17.6436732">
        <ele>27.5349</ele>
        <time>2013-04-20T19:30:58Z</time>
      </trkpt>
      <trkpt lat="59.9092917" lon="17.6436628">
        <ele>28.0155</ele>
        <time>2013-04-20T19:30:59Z</time>
      </trkpt>
      <trkpt lat="59.9093566" lon="17.643651">
        <ele>28.0155</ele>
        <time>2013-04-20T19:31:00Z</time>
      </trkpt>
      <trkpt lat="59.9094222" lon="17.6436386">
        <ele>28.0155</ele>
        <time>2013-04-20T19:31:01Z</time>
      </trkpt>
      <trkpt lat="59.9094879" lon="17.6436266">
        <ele>28.4962</ele>
        <time>2013-04-20T19:31:02Z</time>
      </trkpt>
      <trkpt lat="59.9095538" lon="17.6436116">
        <ele>28.4962</ele>
        <time>2013-04-20T19:31:03Z</time>
      </trkpt>
      <trkpt lat="59.9096194" lon="17.643595">
        <ele>28.9769</ele>
        <time>2013-04-20T19:31:04Z</time>
      </trkpt>
      <trkpt lat="59.9096844" lon="17.6435788">
        <ele>28.9769</ele>
        <time>2013-04-20T19:31:05Z</time>
      </trkpt>
      <trkpt lat="59.9097485" lon="17.6435644">
        <ele>29.4575</ele>
        <time>2013-04-20T19:31:06Z</time>
      </trkpt>
      <trkpt lat="59.9098133" lon="17.6435525">
        <ele>29.4575</ele>
        <time>2013-04-20T19:31:07Z</time>
      </trkpt>
      <trkpt lat="59.9098781" lon="17.6435487">
        <ele>29.9381</ele>
        <time>2013-04-20T19:31:08Z</time>
      </trkpt>
      <trkpt lat="59.9099416" lon="17.6435593">
        <ele>29.9381</ele>
        <time>2013-04-20T19:31:09Z</time>
      </trkpt>
      <trkpt lat="59.910004" lon="17.6435826">
        <ele>29.9381</ele>
        <time>2013-04-20T19:31:10Z</time>
      </trkpt>
      <trkpt lat="59.910064" lon="17.6436067">
        <ele>30.4188</ele>
        <time>2013-04-20T19:31:11Z</time>
      </trkpt>
      <trkpt lat="59.9101203" lon="17.6436234">
        <ele>30.4188</ele>
        <time>2013-04-20T19:31:12Z</time>
      </trkpt>
      <trkpt lat="59.9101739" lon="17.6436312">
        <ele>30.8995</ele>
        <time>2013-04-20T19:31:13Z</time>
      </trkpt>
      <trkpt lat="59.9102271" lon="17.6436308">
        <ele>30.8995</ele>
        <time>2013-04-20T19:31:14Z</time>
      </trkpt>
      <trkpt lat="59.9102806" lon="17.6436248">
        <ele>31.3801</ele>
        <time>2013-04-20T19:31:15Z</time>
      </trkpt>
      <trkpt lat="59.9103345" lon="17.6436147">
        <ele>31.3801</ele>
        <time>2013-04-20T19:31:16Z</time>
      </trkpt>
      <trkpt lat="59.9103893" lon="17.6436032">
        <ele>31.3801</ele>
        <time>2013-04-20T19:31:17Z</time>
      </trkpt>
      <trkpt lat="59.9104441" lon="17.6435888">
        <ele>31.3801</ele>
        <time>2013-04-20T19:31:18Z</time>
      </trkpt>
      <trkpt lat="59.9104961" lon="17.6435691">
        <ele>30.8995</ele>
        <time>2013-04-20T19:31:19Z</time>
      </trkpt>
      <trkpt lat="59.9105494" lon="17.643539">
        <ele>30.4188</ele>
        <time>2013-04-20T19:31:20Z</time>
      </trkpt>
      <trkpt lat="59.910607" lon="17.6435058">
        <ele>30.4188</ele>
        <time>2013-04-20T19:31:21Z</time>
      </trkpt>
      <trkpt lat="59.910668" lon="17.643479">
        <ele>30.4188</ele>
        <time>2013-04-20T19:31:22Z</time>
      </trkpt>
      <trkpt lat="59.9107308" lon="17.6434593">
        <ele>30.4188</ele>
        <time>2013-04-20T19:31:23Z</time>
      </trkpt>
      <trkpt lat="59.9107954" lon="17.6434436">
        <ele>30.8995</ele>
        <time>2013-04-20T19:31:24Z</time>
      </trkpt>
      <trkpt lat="59.910859" lon="17.6434291">
        <ele>30.8995</ele>
        <time>2013-04-20T19:31:25Z</time>
      </trkpt>
      <trkpt lat="59.9109229" lon="17.6434161">
        <ele>31.3801</ele>
        <time>2013-04-20T19:31:26Z</time>
      </trkpt>
      <trkpt lat="59.9109861" lon="17.643404">
        <ele>31.8607</ele>
        <time>2013-04-20T19:31:27Z</time>
      </trkpt>
      <trkpt lat="59.9110476" lon="17.643394">
        <ele>31.8607</ele>
        <time>2013-04-20T19:31:28Z</time>
      </trkpt>
      <trkpt lat="59.9111089" lon="17.6433858">
        <ele>32.3416</ele>
        <time>2013-04-20T19:31:29Z</time>
      </trkpt>
      <trkpt lat="59.9111698" lon="17.6433752">
        <ele>32.8223</ele>
        <time>2013-04-20T19:31:30Z</time>
      </trkpt>
      <trkpt lat="59.9112311" lon="17.6433625">
        <ele>33.3029</ele>
        <time>2013-04-20T19:31:31Z</time>
      </trkpt>
      <trkpt lat="59.9112913" lon="17.6433495">
        <ele>33.3029</ele>
        <time>2013-04-20T19:31:32Z</time>
      </trkpt>
      <trkpt lat="59.9113504" lon="17.6433314">
        <ele>33.3029</ele>
        <time>2013-04-20T19:31:33Z</time>
      </trkpt>
      <trkpt lat="59.9114096" lon="17.6433101">
        <ele>32.8223</ele>
        <time>2013-04-20T19:31:34Z</time>
      </trkpt>
      <trkpt lat="59.9114714" lon="17.6432936">
        <ele>33.3029</ele>
        <time>2013-04-20T19:31:35Z</time>
      </trkpt>
      <trkpt lat="59.9115342" lon="17.6432831">
        <ele>33.3029</ele>
        <time>2013-04-20T19:31:36Z</time>
      </trkpt>
      <trkpt lat="59.9115984" lon="17.6432748">
        <ele>33.3029</ele>
        <time>2013-04-20T19:31:37Z</time>
      </trkpt>
      <trkpt lat="59.9116632" lon="17.6432648">
        <ele>33.3029</ele>
        <time>2013-04-20T19:31:38Z</time>
      </trkpt>
      <trkpt lat="59.911728" lon="17.6432531">
        <ele>32.8223</ele>
        <time>2013-04-20T19:31:39Z</time>
      </trkpt>
      <trkpt lat="59.9117931" lon="17.6432412">
        <ele>32.8223</ele>
        <time>2013-04-20T19:31:40Z</time>
      </trkpt>
      <trkpt lat="59.9118539" lon="17.643226">
        <ele>31.8607</ele>
        <time>2013-04-20T19:31:41Z</time>
      </trkpt>
      <trkpt lat="59.9119211" lon="17.6431992">
        <ele>31.8607</ele>
        <time>2013-04-20T19:31:42Z</time>
      </trkpt>
      <trkpt lat="59.9119849" lon="17.6431863">
        <ele>31.3801</ele>
        <time>2013-04-20T19:31:43Z</time>
      </trkpt>
      <trkpt lat="59.9120492" lon="17.643171">
        <ele>30.8995</ele>
        <time>2013-04-20T19:31:44Z</time>
      </trkpt>
      <trkpt lat="59.9121124" lon="17.6431464">
        <ele>29.9381</ele>
        <time>2013-04-20T19:31:45Z</time>
      </trkpt>
      <trkpt lat="59.9121779" lon="17.6431319">
        <ele>29.4575</ele>
        <time>2013-04-20T19:31:46Z</time>
      </trkpt>
      <trkpt lat="59.9122501" lon="17.6431154">
        <ele>29.4575</ele>
        <time>2013-04-20T19:31:47Z</time>
      </trkpt>
      <trkpt lat="59.9123226" lon="17.6430952">
        <ele>29.9381</ele>
        <time>2013-04-20T19:31:48Z</time>
      </trkpt>
      <trkpt lat="59.9123913" lon="17.643081">
        <ele>29.4575</ele>
        <time>2013-04-20T19:31:49Z</time>
      </trkpt>
      <trkpt lat="59.9124619" lon="17.6430709">
        <ele>28.9769</ele>
        <time>2013-04-20T19:31:50Z</time>
      </trkpt>
      <trkpt lat="59.9125324" lon="17.6430643">
        <ele>28.9769</ele>
        <time>2013-04-20T19:31:51Z</time>
      </trkpt>
      <trkpt lat="59.9126024" lon="17.6430713">
        <ele>28.9769</ele>
        <time>2013-04-20T19:31:52Z</time>
      </trkpt>
      <trkpt lat="59.91267" lon="17.6431051">
        <ele>28.4962</ele>
        <time>2013-04-20T19:31:53Z</time>
      </trkpt>
      <trkpt lat="59.9127357" lon="17.643142">
        <ele>28.4962</ele>
        <time>2013-04-20T19:31:54Z</time>
      </trkpt>
      <trkpt lat="59.912796" lon="17.6431666">
        <ele>28.0155</ele>
        <time>2013-04-20T19:31:55Z</time>
      </trkpt>
      <trkpt lat="59.912859" lon="17.6431775">
        <ele>28.0155</ele>
        <time>2013-04-20T19:31:56Z</time>
      </trkpt>
      <trkpt lat="59.91291" lon="17.6431778">
        <ele>27.0543</ele>
        <time>2013-04-20T19:31:57Z</time>
      </trkpt>
      <trkpt lat="59.9129674" lon="17.6431764">
        <ele>26.5736</ele>
        <time>2013-04-20T19:31:58Z</time>
      </trkpt>
      <trkpt lat="59.9130296" lon="17.6431608">
        <ele>26.0929</ele>
        <time>2013-04-20T19:31:59Z</time>
      </trkpt>
      <trkpt lat="59.9130912" lon="17.6431469">
        <ele>25.6123</ele>
        <time>2013-04-20T19:32:00Z</time>
      </trkpt>
      <trkpt lat="59.9131546" lon="17.6431382">
        <ele>25.6123</ele>
        <time>2013-04-20T19:32:01Z</time>
      </trkpt>
      <trkpt lat="59.9132181" lon="17.6431272">
        <ele>25.6123</ele>
        <time>2013-04-20T19:32:02Z</time>
      </trkpt>
      <trkpt lat="59.9132809" lon="17.643106">
        <ele>24.651</ele>
        <time>2013-04-20T19:32:03Z</time>
      </trkpt>
      <trkpt lat="59.913346" lon="17.6430801">
        <ele>24.1703</ele>
        <time>2013-04-20T19:32:04Z</time>
      </trkpt>
      <trkpt lat="59.9134145" lon="17.6430547">
        <ele>24.651</ele>
        <time>2013-04-20T19:32:05Z</time>
      </trkpt>
      <trkpt lat="59.9134824" lon="17.6430345">
        <ele>24.1703</ele>
        <time>2013-04-20T19:32:06Z</time>
      </trkpt>
      <trkpt lat="59.9135521" lon="17.6430164">
        <ele>24.1703</ele>
        <time>2013-04-20T19:32:07Z</time>
      </trkpt>
      <trkpt lat="59.9136233" lon="17.643003">
        <ele>24.651</ele>
        <time>2013-04-20T19:32:08Z</time>
      </trkpt>
      <trkpt lat="59.9136952" lon="17.6429929">
        <ele>24.651</ele>
        <time>2013-04-20T19:32:09Z</time>
      </trkpt>
      <trkpt lat="59.9137672" lon="17.6429817">
        <ele>24.1703</ele>
        <time>2013-04-20T19:32:10Z</time>
      </trkpt>
      <trkpt lat="59.9138396" lon="17.6429673">
        <ele>24.1703</ele>
        <time>2013-04-20T19:32:11Z</time>
      </trkpt>
      <trkpt lat="59.913913" lon="17.6429526">
        <ele>24.651</ele>
        <time>2013-04-20T19:32:12Z</time>
      </trkpt>
      <trkpt lat="59.9139863" lon="17.6429366">
        <ele>24.651</ele>
        <time>2013-04-20T19:32:13Z</time>
      </trkpt>
      <trkpt lat="59.9140601" lon="17.6429203">
        <ele>24.651</ele>
        <time>2013-04-20T19:32:14Z</time>
      </trkpt>
      <trkpt lat="59.9141355" lon="17.6429058">
        <ele>24.651</ele>
        <time>2013-04-20T19:32:15Z</time>
      </trkpt>
      <trkpt lat="59.9142112" lon="17.6428905">
        <ele>24.651</ele>
        <time>2013-04-20T19:32:16Z</time>
      </trkpt>
      <trkpt lat="59.9142932" lon="17.6428621">
        <ele>24.651</ele>
        <time>2013-04-20T19:32:17Z</time>
      </trkpt>
      <trkpt lat="59.9143723" lon="17.6428428">
        <ele>24.651</ele>
        <time>2013-04-20T19:32:18Z</time>
      </trkpt>
      <trkpt lat="59.914449" lon="17.6428252">
        <ele>24.1703</ele>
        <time>2013-04-20T19:32:19Z</time>
      </trkpt>
      <trkpt lat="59.9145241" lon="17.6428081">
        <ele>23.6896</ele>
        <time>2013-04-20T19:32:20Z</time>
      </trkpt>
      <trkpt lat="59.9146017" lon="17.6428004">
        <ele>23.6896</ele>
        <time>2013-04-20T19:32:21Z</time>
      </trkpt>
      <trkpt lat="59.914678" lon="17.6427942">
        <ele>23.209</ele>
        <time>2013-04-20T19:32:22Z</time>
      </trkpt>
      <trkpt lat="59.9147547" lon="17.6427812">
        <ele>23.209</ele>
        <time>2013-04-20T19:32:23Z</time>
      </trkpt>
      <trkpt lat="59.9148316" lon="17.6427647">
        <ele>22.7283</ele>
        <time>2013-04-20T19:32:24Z</time>
      </trkpt>
      <trkpt lat="59.9149074" lon="17.6427491">
        <ele>22.7283</ele>
        <time>2013-04-20T19:32:25Z</time>
      </trkpt>
      <trkpt lat="59.9149832" lon="17.6427354">
        <ele>22.2476</ele>
        <time>2013-04-20T19:32:26Z</time>
      </trkpt>
      <trkpt lat="59.9150604" lon="17.642722">
        <ele>21.767</ele>
        <time>2013-04-20T19:32:27Z</time>
      </trkpt>
      <trkpt lat="59.9151352" lon="17.6427003">
        <ele>21.2864</ele>
        <time>2013-04-20T19:32:28Z</time>
      </trkpt>
      <trkpt lat="59.9152083" lon="17.6426655">
        <ele>20.8057</ele>
        <time>2013-04-20T19:32:29Z</time>
      </trkpt>
      <trkpt lat="59.915284" lon="17.6426092">
        <ele>20.325</ele>
        <time>2013-04-20T19:32:30Z</time>
      </trkpt>
      <trkpt lat="59.9153653" lon="17.6425557">
        <ele>19.3638</ele>
        <time>2013-04-20T19:32:31Z</time>
      </trkpt>
      <trkpt lat="59.9154523" lon="17.6425213">
        <ele>19.3638</ele>
        <time>2013-04-20T19:32:32Z</time>
      </trkpt>
      <trkpt lat="59.9155429" lon="17.6424973">
        <ele>19.3638</ele>
        <time>2013-04-20T19:32:33Z</time>
      </trkpt>
      <trkpt lat="59.9156322" lon="17.6424777">
        <ele>19.8444</ele>
        <time>2013-04-20T19:32:34Z</time>
      </trkpt>
      <trkpt lat="59.9157188" lon="17.6424647">
        <ele>20.325</ele>
        <time>2013-04-20T19:32:35Z</time>
      </trkpt>
      <trkpt lat="59.9158041" lon="17.6424584">
        <ele>20.8057</ele>
        <time>2013-04-20T19:32:36Z</time>
      </trkpt>
      <trkpt lat="59.9158868" lon="17.6424563">
        <ele>20.8057</ele>
        <time>2013-04-20T19:32:37Z</time>
      </trkpt>
      <trkpt lat="59.9159678" lon="17.6424569">
        <ele>21.2864</ele>
        <time>2013-04-20T19:32:38Z</time>
      </trkpt>
      <trkpt lat="59.9160463" lon="17.642458">
        <ele>21.767</ele>
        <time>2013-04-20T19:32:39Z</time>
      </trkpt>
      <trkpt lat="59.9161232" lon="17.6424585">
        <ele>21.767</ele>
        <time>2013-04-20T19:32:40Z</time>
      </trkpt>
      <trkpt lat="59.9161987" lon="17.6424564">
        <ele>22.2476</ele>
        <time>2013-04-20T19:32:41Z</time>
      </trkpt>
      <trkpt lat="59.9162724" lon="17.6424523">
        <ele>22.7283</ele>
        <time>2013-04-20T19:32:42Z</time>
      </trkpt>
      <trkpt lat="59.9163448" lon="17.6424445">
        <ele>22.7283</ele>
        <time>2013-04-20T19:32:43Z</time>
      </trkpt>
      <trkpt lat="59.9164168" lon="17.6424315">
        <ele>22.7283</ele>
        <time>2013-04-20T19:32:44Z</time>
      </trkpt>
      <trkpt lat="59.9164896" lon="17.6424181">
        <ele>23.209</ele>
        <time>2013-04-20T19:32:45Z</time>
      </trkpt>
      <trkpt lat="59.9165628" lon="17.6424062">
        <ele>23.209</ele>
        <time>2013-04-20T19:32:46Z</time>
      </trkpt>
      <trkpt lat="59.9166364" lon="17.6423962">
        <ele>23.209</ele>
        <time>2013-04-20T19:32:47Z</time>
      </trkpt>
      <trkpt lat="59.9167108" lon="17.6423869">
        <ele>23.209</ele>
        <time>2013-04-20T19:32:48Z</time>
      </trkpt>
      <trkpt lat="59.9167862" lon="17.6423759">
        <ele>23.209</ele>
        <time>2013-04-20T19:32:49Z</time>
      </trkpt>
      <trkpt lat="59.9168627" lon="17.6423638">
        <ele>23.209</ele>
        <time>2013-04-20T19:32:50Z</time>
      </trkpt>
      <trkpt lat="59.9169396" lon="17.6423518">
        <ele>23.209</ele>
        <time>2013-04-20T19:32:51Z</time>
      </trkpt>
      <trkpt lat="59.9170168" lon="17.6423378">
        <ele>23.209</ele>
        <time>2013-04-20T19:32:52Z</time>
      </trkpt>
      <trkpt lat="59.9170941" lon="17.6423181">
        <ele>23.209</ele>
        <time>2013-04-20T19:32:53Z</time>
      </trkpt>
      <trkpt lat="59.9171716" lon="17.6422939">
        <ele>23.209</ele>
        <time>2013-04-20T19:32:54Z</time>
      </trkpt>
      <trkpt lat="59.9172507" lon="17.6422768">
        <ele>23.6896</ele>
        <time>2013-04-20T19:32:55Z</time>
      </trkpt>
      <trkpt lat="59.9173297" lon="17.642273">
        <ele>23.6896</ele>
        <time>2013-04-20T19:32:56Z</time>
      </trkpt>
      <trkpt lat="59.9174083" lon="17.6422734">
        <ele>23.6896</ele>
        <time>2013-04-20T19:32:57Z</time>
      </trkpt>
      <trkpt lat="59.9174865" lon="17.6422733">
        <ele>24.1703</ele>
        <time>2013-04-20T19:32:58Z</time>
      </trkpt>
      <trkpt lat="59.9175647" lon="17.6422731">
        <ele>24.1703</ele>
        <time>2013-04-20T19:32:59Z</time>
      </trkpt>
      <trkpt lat="59.9176421" lon="17.6422731">
        <ele>24.651</ele>
        <time>2013-04-20T19:33:00Z</time>
      </trkpt>
      <trkpt lat="59.9177181" lon="17.642273">
        <ele>24.651</ele>
        <time>2013-04-20T19:33:01Z</time>
      </trkpt>
      <trkpt lat="59.9177922" lon="17.6422715">
        <ele>25.1317</ele>
        <time>2013-04-20T19:33:02Z</time>
      </trkpt>
      <trkpt lat="59.9178659" lon="17.6422692">
        <ele>25.1317</ele>
        <time>2013-04-20T19:33:03Z</time>
      </trkpt>
      <trkpt lat="59.9179405" lon="17.6422658">
        <ele>25.6123</ele>
        <time>2013-04-20T19:33:04Z</time>
      </trkpt>
      <trkpt lat="59.9180141" lon="17.6422606">
        <ele>25.6123</ele>
        <time>2013-04-20T19:33:05Z</time>
      </trkpt>
      <trkpt lat="59.9180878" lon="17.6422539">
        <ele>26.0929</ele>
        <time>2013-04-20T19:33:06Z</time>
      </trkpt>
      <trkpt lat="59.9181605" lon="17.6422459">
        <ele>26.0929</ele>
        <time>2013-04-20T19:33:07Z</time>
      </trkpt>
      <trkpt lat="59.918232" lon="17.6422376">
        <ele>26.5736</ele>
        <time>2013-04-20T19:33:08Z</time>
      </trkpt>
      <trkpt lat="59.9183025" lon="17.6422293">
        <ele>27.0543</ele>
        <time>2013-04-20T19:33:09Z</time>
      </trkpt>
      <trkpt lat="59.9183724" lon="17.6422208">
        <ele>27.5349</ele>
        <time>2013-04-20T19:33:10Z</time>
      </trkpt>
      <trkpt lat="59.9184409" lon="17.6422124">
        <ele>28.0155</ele>
        <time>2013-04-20T19:33:11Z</time>
      </trkpt>
      <trkpt lat="59.918509" lon="17.6422057">
        <ele>28.0155</ele>
        <time>2013-04-20T19:33:12Z</time>
      </trkpt>
      <trkpt lat="59.9185776" lon="17.6421979">
        <ele>28.0155</ele>
        <time>2013-04-20T19:33:13Z</time>
      </trkpt>
      <trkpt lat="59.9186466" lon="17.6421892">
        <ele>28.4962</ele>
        <time>2013-04-20T19:33:14Z</time>
      </trkpt>
      <trkpt lat="59.9187173" lon="17.6421804">
        <ele>28.9769</ele>
        <time>2013-04-20T19:33:15Z</time>
      </trkpt>
      <trkpt lat="59.9187888" lon="17.6421689">
        <ele>28.9769</ele>
        <time>2013-04-20T19:33:16Z</time>
      </trkpt>
      <trkpt lat="59.9188614" lon="17.6421554">
        <ele>29.4575</ele>
        <time>2013-04-20T19:33:17Z</time>
      </trkpt>
      <trkpt lat="59.9189343" lon="17.642143">
        <ele>29.4575</ele>
        <time>2013-04-20T19:33:18Z</time>
      </trkpt>
      <trkpt lat="59.9190063" lon="17.6421352">
        <ele>29.4575</ele>
        <time>2013-04-20T19:33:19Z</time>
      </trkpt>
      <trkpt lat="59.9190769" lon="17.6421276">
        <ele>29.4575</ele>
        <time>2013-04-20T19:33:20Z</time>
      </trkpt>
      <trkpt lat="59.9191453" lon="17.6421175">
        <ele>29.4575</ele>
        <time>2013-04-20T19:33:21Z</time>
      </trkpt>
      <trkpt lat="59.9192132" lon="17.6421082">
        <ele>29.4575</ele>
        <time>2013-04-20T19:33:22Z</time>
      </trkpt>
      <trkpt lat="59.9192811" lon="17.6420998">
        <ele>29.4575</ele>
        <time>2013-04-20T19:33:23Z</time>
      </trkpt>
      <trkpt lat="59.91935" lon="17.6420897">
        <ele>29.4575</ele>
        <time>2013-04-20T19:33:24Z</time>
      </trkpt>
      <trkpt lat="59.9194192" lon="17.6420807">
        <ele>29.4575</ele>
        <time>2013-04-20T19:33:25Z</time>
      </trkpt>
      <trkpt lat="59.9194876" lon="17.6420772">
        <ele>29.4575</ele>
        <time>2013-04-20T19:33:26Z</time>
      </trkpt>
      <trkpt lat="59.9195565" lon="17.6420747">
        <ele>29.4575</ele>
        <time>2013-04-20T19:33:27Z</time>
      </trkpt>
      <trkpt lat="59.9196255" lon="17.6420684">
        <ele>29.4575</ele>
        <time>2013-04-20T19:33:28Z</time>
      </trkpt>
      <trkpt lat="59.9196948" lon="17.64206">
        <ele>29.4575</ele>
        <time>2013-04-20T19:33:29Z</time>
      </trkpt>
      <trkpt lat="59.9197633" lon="17.6420459">
        <ele>29.9381</ele>
        <time>2013-04-20T19:33:30Z</time>
      </trkpt>
      <trkpt lat="59.9198307" lon="17.642026">
        <ele>29.4575</ele>
        <time>2013-04-20T19:33:31Z</time>
      </trkpt>
      <trkpt lat="59.9198989" lon="17.6420064">
        <ele>29.4575</ele>
        <time>2013-04-20T19:33:32Z</time>
      </trkpt>
      <trkpt lat="59.9199668" lon="17.6419907">
        <ele>29.4575</ele>
        <time>2013-04-20T19:33:33Z</time>
      </trkpt>
      <trkpt lat="59.9200357" lon="17.6419814">
        <ele>29.4575</ele>
        <time>2013-04-20T19:33:34Z</time>
      </trkpt>
      <trkpt lat="59.9201044" lon="17.641974">
        <ele>29.4575</ele>
        <time>2013-04-20T19:33:35Z</time>
      </trkpt>
      <trkpt lat="59.9201721" lon="17.641968">
        <ele>29.4575</ele>
        <time>2013-04-20T19:33:36Z</time>
      </trkpt>
      <trkpt lat="59.9202373" lon="17.641962">
        <ele>29.4575</ele>
        <time>2013-04-20T19:33:37Z</time>
      </trkpt>
      <trkpt lat="59.9203019" lon="17.6419575">
        <ele>29.4575</ele>
        <time>2013-04-20T19:33:38Z</time>
      </trkpt>
      <trkpt lat="59.9203673" lon="17.6419556">
        <ele>28.9769</ele>
        <time>2013-04-20T19:33:39Z</time>
      </trkpt>
      <trkpt lat="59.9204336" lon="17.6419535">
        <ele>28.4962</ele>
        <time>2013-04-20T19:33:40Z</time>
      </trkpt>
      <trkpt lat="59.9204999" lon="17.6419503">
        <ele>28.0155</ele>
        <time>2013-04-20T19:33:41Z</time>
      </trkpt>
      <trkpt lat="59.9205678" lon="17.641947">
        <ele>28.0155</ele>
        <time>2013-04-20T19:33:42Z</time>
      </trkpt>
      <trkpt lat="59.9206366" lon="17.6419458">
        <ele>27.5349</ele>
        <time>2013-04-20T19:33:43Z</time>
      </trkpt>
      <trkpt lat="59.9207055" lon="17.6419446">
        <ele>27.5349</ele>
        <time>2013-04-20T19:33:44Z</time>
      </trkpt>
      <trkpt lat="59.9207738" lon="17.6419424">
        <ele>27.5349</ele>
        <time>2013-04-20T19:33:45Z</time>
      </trkpt>
      <trkpt lat="59.9208429" lon="17.6419406">
        <ele>27.5349</ele>
        <time>2013-04-20T19:33:46Z</time>
      </trkpt>
      <trkpt lat="59.9209117" lon="17.6419397">
        <ele>27.5349</ele>
        <time>2013-04-20T19:33:47Z</time>
      </trkpt>
      <trkpt lat="59.9209775" lon="17.6419377">
        <ele>27.0543</ele>
        <time>2013-04-20T19:33:48Z</time>
      </trkpt>
      <trkpt lat="59.9210427" lon="17.6419299">
        <ele>27.0543</ele>
        <time>2013-04-20T19:33:49Z</time>
      </trkpt>
      <trkpt lat="59.9211099" lon="17.6419232">
        <ele>27.0543</ele>
        <time>2013-04-20T19:33:50Z</time>
      </trkpt>
      <trkpt lat="59.9211759" lon="17.6419171">
        <ele>26.5736</ele>
        <time>2013-04-20T19:33:51Z</time>
      </trkpt>
      <trkpt lat="59.9212422" lon="17.6419121">
        <ele>26.5736</ele>
        <time>2013-04-20T19:33:52Z</time>
      </trkpt>
      <trkpt lat="59.9213068" lon="17.6419047">
        <ele>26.5736</ele>
        <time>2013-04-20T19:33:53Z</time>
      </trkpt>
      <trkpt lat="59.9213677" lon="17.6418942">
        <ele>26.0929</ele>
        <time>2013-04-20T19:33:54Z</time>
      </trkpt>
      <trkpt lat="59.9214276" lon="17.6418812">
        <ele>26.0929</ele>
        <time>2013-04-20T19:33:55Z</time>
      </trkpt>
      <trkpt lat="59.9214857" lon="17.6418695">
        <ele>25.6123</ele>
        <time>2013-04-20T19:33:56Z</time>
      </trkpt>
      <trkpt lat="59.9215425" lon="17.6418561">
        <ele>25.1317</ele>
        <time>2013-04-20T19:33:57Z</time>
      </trkpt>
      <trkpt lat="59.9216022" lon="17.6418468">
        <ele>24.1703</ele>
        <time>2013-04-20T19:33:58Z</time>
      </trkpt>
      <trkpt lat="59.9216633" lon="17.6418374">
        <ele>23.6896</ele>
        <time>2013-04-20T19:33:59Z</time>
      </trkpt>
      <trkpt lat="59.9217266" lon="17.6418284">
        <ele>23.6896</ele>
        <time>2013-04-20T19:34:00Z</time>
      </trkpt>
      <trkpt lat="59.9217911" lon="17.6418203">
        <ele>23.209</ele>
        <time>2013-04-20T19:34:01Z</time>
      </trkpt>
      <trkpt lat="59.9218565" lon="17.6418134">
        <ele>22.7283</ele>
        <time>2013-04-20T19:34:02Z</time>
      </trkpt>
      <trkpt lat="59.921923" lon="17.6418104">
        <ele>22.2476</ele>
        <time>2013-04-20T19:34:03Z</time>
      </trkpt>
      <trkpt lat="59.9219915" lon="17.6418067">
        <ele>22.2476</ele>
        <time>2013-04-20T19:34:04Z</time>
      </trkpt>
      <trkpt lat="59.9220602" lon="17.6417978">
        <ele>21.767</ele>
        <time>2013-04-20T19:34:05Z</time>
      </trkpt>
      <trkpt lat="59.9221295" lon="17.6417874">
        <ele>21.767</ele>
        <time>2013-04-20T19:34:06Z</time>
      </trkpt>
      <trkpt lat="59.9221995" lon="17.6417795">
        <ele>21.2864</ele>
        <time>2013-04-20T19:34:07Z</time>
      </trkpt>
      <trkpt lat="59.9222695" lon="17.6417726">
        <ele>21.2864</ele>
        <time>2013-04-20T19:34:08Z</time>
      </trkpt>
      <trkpt lat="59.9223388" lon="17.6417639">
        <ele>21.2864</ele>
        <time>2013-04-20T19:34:09Z</time>
      </trkpt>
      <trkpt lat="59.9224083" lon="17.6417555">
        <ele>21.2864</ele>
        <time>2013-04-20T19:34:10Z</time>
      </trkpt>
      <trkpt lat="59.9224802" lon="17.6417466">
        <ele>21.2864</ele>
        <time>2013-04-20T19:34:11Z</time>
      </trkpt>
      <trkpt lat="59.9225515" lon="17.6417359">
        <ele>21.767</ele>
        <time>2013-04-20T19:34:12Z</time>
      </trkpt>
      <trkpt lat="59.9226218" lon="17.641727">
        <ele>21.767</ele>
        <time>2013-04-20T19:34:13Z</time>
      </trkpt>
      <trkpt lat="59.9226924" lon="17.6417188">
        <ele>21.767</ele>
        <time>2013-04-20T19:34:14Z</time>
      </trkpt>
      <trkpt lat="59.9227636" lon="17.6417103">
        <ele>21.767</ele>
        <time>2013-04-20T19:34:15Z</time>
      </trkpt>
      <trkpt lat="59.9228354" lon="17.6417009">
        <ele>21.2864</ele>
        <time>2013-04-20T19:34:16Z</time>
      </trkpt>
      <trkpt lat="59.9229089" lon="17.6416923">
        <ele>21.2864</ele>
        <time>2013-04-20T19:34:17Z</time>
      </trkpt>
      <trkpt lat="59.9229836" lon="17.6416856">
        <ele>21.2864</ele>
        <time>2013-04-20T19:34:18Z</time>
      </trkpt>
      <trkpt lat="59.9230589" lon="17.6416789">
        <ele>20.8057</ele>
        <time>2013-04-20T19:34:19Z</time>
      </trkpt>
      <trkpt lat="59.9231356" lon="17.6416704">
        <ele>20.8057</ele>
        <time>2013-04-20T19:34:20Z</time>
      </trkpt>
      <trkpt lat="59.923213" lon="17.6416611">
        <ele>20.8057</ele>
        <time>2013-04-20T19:34:21Z</time>
      </trkpt>
      <trkpt lat="59.9232902" lon="17.6416512">
        <ele>20.325</ele>
        <time>2013-04-20T19:34:22Z</time>
      </trkpt>
      <trkpt lat="59.9233689" lon="17.6416405">
        <ele>20.325</ele>
        <time>2013-04-20T19:34:23Z</time>
      </trkpt>
      <trkpt lat="59.9234483" lon="17.6416281">
        <ele>19.8444</ele>
        <time>2013-04-20T19:34:24Z</time>
      </trkpt>
      <trkpt lat="59.9235293" lon="17.6416144">
        <ele>19.8444</ele>
        <time>2013-04-20T19:34:25Z</time>
      </trkpt>
      <trkpt lat="59.9236119" lon="17.6416012">
        <ele>19.8444</ele>
        <time>2013-04-20T19:34:26Z</time>
      </trkpt>
      <trkpt lat="59.9236954" lon="17.6415904">
        <ele>19.3638</ele>
        <time>2013-04-20T19:34:27Z</time>
      </trkpt>
      <trkpt lat="59.9237803" lon="17.6415789">
        <ele>19.3638</ele>
        <time>2013-04-20T19:34:28Z</time>
      </trkpt>
      <trkpt lat="59.9238675" lon="17.6415657">
        <ele>19.3638</ele>
        <time>2013-04-20T19:34:29Z</time>
      </trkpt>
      <trkpt lat="59.9239543" lon="17.6415549">
        <ele>19.3638</ele>
        <time>2013-04-20T19:34:30Z</time>
      </trkpt>
      <trkpt lat="59.92404" lon="17.6415453">
        <ele>19.3638</ele>
        <time>2013-04-20T19:34:31Z</time>
      </trkpt>
      <trkpt lat="59.9241254" lon="17.641537">
        <ele>19.8444</ele>
        <time>2013-04-20T19:34:32Z</time>
      </trkpt>
      <trkpt lat="59.9242092" lon="17.6415292">
        <ele>19.8444</ele>
        <time>2013-04-20T19:34:33Z</time>
      </trkpt>
      <trkpt lat="59.9242916" lon="17.6415231">
        <ele>19.8444</ele>
        <time>2013-04-20T19:34:34Z</time>
      </trkpt>
      <trkpt lat="59.9243728" lon="17.641517">
        <ele>19.8444</ele>
        <time>2013-04-20T19:34:35Z</time>
      </trkpt>
      <trkpt lat="59.9244533" lon="17.6415084">
        <ele>19.8444</ele>
        <time>2013-04-20T19:34:36Z</time>
      </trkpt>
      <trkpt lat="59.9245332" lon="17.6414977">
        <ele>19.8444</ele>
        <time>2013-04-20T19:34:37Z</time>
      </trkpt>
      <trkpt lat="59.9246139" lon="17.6414847">
        <ele>19.8444</ele>
        <time>2013-04-20T19:34:38Z</time>
      </trkpt>
      <trkpt lat="59.9246937" lon="17.6414691">
        <ele>19.8444</ele>
        <time>2013-04-20T19:34:39Z</time>
      </trkpt>
      <trkpt lat="59.9247734" lon="17.6414509">
        <ele>19.8444</ele>
        <time>2013-04-20T19:34:40Z</time>
      </trkpt>
      <trkpt lat="59.9248536" lon="17.6414343">
        <ele>19.8444</ele>
        <time>2013-04-20T19:34:41Z</time>
      </trkpt>
      <trkpt lat="59.924933" lon="17.6414195">
        <ele>19.8444</ele>
        <time>2013-04-20T19:34:42Z</time>
      </trkpt>
      <trkpt lat="59.9250138" lon="17.6414091">
        <ele>19.8444</ele>
        <time>2013-04-20T19:34:43Z</time>
      </trkpt>
      <trkpt lat="59.9250946" lon="17.6414042">
        <ele>19.8444</ele>
        <time>2013-04-20T19:34:44Z</time>
      </trkpt>
      <trkpt lat="59.9251756" lon="17.6414034">
        <ele>19.3638</ele>
        <time>2013-04-20T19:34:45Z</time>
      </trkpt>
      <trkpt lat="59.9252569" lon="17.6414017">
        <ele>19.3638</ele>
        <time>2013-04-20T19:34:46Z</time>
      </trkpt>
      <trkpt lat="59.9253376" lon="17.6413984">
        <ele>19.3638</ele>
        <time>2013-04-20T19:34:47Z</time>
      </trkpt>
      <trkpt lat="59.9254188" lon="17.6413959">
        <ele>19.3638</ele>
        <time>2013-04-20T19:34:48Z</time>
      </trkpt>
      <trkpt lat="59.9255001" lon="17.6413893">
        <ele>18.8831</ele>
        <time>2013-04-20T19:34:49Z</time>
      </trkpt>
      <trkpt lat="59.9255821" lon="17.6413792">
        <ele>19.3638</ele>
        <time>2013-04-20T19:34:50Z</time>
      </trkpt>
      <trkpt lat="59.925664" lon="17.6413689">
        <ele>18.8831</ele>
        <time>2013-04-20T19:34:51Z</time>
      </trkpt>
      <trkpt lat="59.9257463" lon="17.6413578">
        <ele>18.8831</ele>
        <time>2013-04-20T19:34:52Z</time>
      </trkpt>
      <trkpt lat="59.9258287" lon="17.6413479">
        <ele>18.8831</ele>
        <time>2013-04-20T19:34:53Z</time>
      </trkpt>
      <trkpt lat="59.925911" lon="17.6413379">
        <ele>18.8831</ele>
        <time>2013-04-20T19:34:54Z</time>
      </trkpt>
      <trkpt lat="59.9259937" lon="17.641327">
        <ele>18.8831</ele>
        <time>2013-04-20T19:34:55Z</time>
      </trkpt>
      <trkpt lat="59.9260764" lon="17.6413148">
        <ele>18.8831</ele>
        <time>2013-04-20T19:34:56Z</time>
      </trkpt>
      <trkpt lat="59.9261592" lon="17.6413022">
        <ele>18.8831</ele>
        <time>2013-04-20T19:34:57Z</time>
      </trkpt>
      <trkpt lat="59.9262411" lon="17.6412903">
        <ele>18.8831</ele>
        <time>2013-04-20T19:34:58Z</time>
      </trkpt>
      <trkpt lat="59.9263229" lon="17.6412821">
        <ele>18.8831</ele>
        <time>2013-04-20T19:34:59Z</time>
      </trkpt>
      <trkpt lat="59.9264043" lon="17.6412727">
        <ele>18.8831</ele>
        <time>2013-04-20T19:35:00Z</time>
      </trkpt>
      <trkpt lat="59.9264848" lon="17.6412607">
        <ele>18.8831</ele>
        <time>2013-04-20T19:35:01Z</time>
      </trkpt>
      <trkpt lat="59.9265638" lon="17.6412513">
        <ele>19.3638</ele>
        <time>2013-04-20T19:35:02Z</time>
      </trkpt>
      <trkpt lat="59.9266414" lon="17.6412436">
        <ele>19.3638</ele>
        <time>2013-04-20T19:35:03Z</time>
      </trkpt>
      <trkpt lat="59.926718" lon="17.6412332">
        <ele>19.3638</ele>
        <time>2013-04-20T19:35:04Z</time>
      </trkpt>
      <trkpt lat="59.9267935" lon="17.6412205">
        <ele>19.3638</ele>
        <time>2013-04-20T19:35:05Z</time>
      </trkpt>
      <trkpt lat="59.9268692" lon="17.6412111">
        <ele>19.3638</ele>
        <time>2013-04-20T19:35:06Z</time>
      </trkpt>
      <trkpt lat="59.9269456" lon="17.6412048">
        <ele>19.8444</ele>
        <time>2013-04-20T19:35:07Z</time>
      </trkpt>
      <trkpt lat="59.9270223" lon="17.6411971">
        <ele>19.8444</ele>
        <time>2013-04-20T19:35:08Z</time>
      </trkpt>
      <trkpt lat="59.9270988" lon="17.6411879">
        <ele>19.8444</ele>
        <time>2013-04-20T19:35:09Z</time>
      </trkpt>
      <trkpt lat="59.927175" lon="17.6411801">
        <ele>19.8444</ele>
        <time>2013-04-20T19:35:10Z</time>
      </trkpt>
      <trkpt lat="59.9272512" lon="17.6411754">
        <ele>19.8444</ele>
        <time>2013-04-20T19:35:11Z</time>
      </trkpt>
      <trkpt lat="59.9273273" lon="17.6411707">
        <ele>20.325</ele>
        <time>2013-04-20T19:35:12Z</time>
      </trkpt>
      <trkpt lat="59.9274033" lon="17.6411646">
        <ele>20.325</ele>
        <time>2013-04-20T19:35:13Z</time>
      </trkpt>
      <trkpt lat="59.9274789" lon="17.6411584">
        <ele>20.325</ele>
        <time>2013-04-20T19:35:14Z</time>
      </trkpt>
      <trkpt lat="59.9275546" lon="17.6411532">
        <ele>20.325</ele>
        <time>2013-04-20T19:35:15Z</time>
      </trkpt>
      <trkpt lat="59.9276301" lon="17.6411477">
        <ele>20.8057</ele>
        <time>2013-04-20T19:35:16Z</time>
      </trkpt>
      <trkpt lat="59.9277045" lon="17.6411406">
        <ele>20.8057</ele>
        <time>2013-04-20T19:35:17Z</time>
      </trkpt>
      <trkpt lat="59.9277791" lon="17.6411324">
        <ele>20.8057</ele>
        <time>2013-04-20T19:35:18Z</time>
      </trkpt>
      <trkpt lat="59.9278536" lon="17.6411228">
        <ele>20.8057</ele>
        <time>2013-04-20T19:35:19Z</time>
      </trkpt>
      <trkpt lat="59.9279285" lon="17.6411137">
        <ele>20.8057</ele>
        <time>2013-04-20T19:35:20Z</time>
      </trkpt>
      <trkpt lat="59.9280033" lon="17.6411066">
        <ele>20.8057</ele>
        <time>2013-04-20T19:35:21Z</time>
      </trkpt>
      <trkpt lat="59.9280783" lon="17.6410996">
        <ele>21.2864</ele>
        <time>2013-04-20T19:35:22Z</time>
      </trkpt>
      <trkpt lat="59.9281535" lon="17.641093">
        <ele>21.2864</ele>
        <time>2013-04-20T19:35:23Z</time>
      </trkpt>
      <trkpt lat="59.928228" lon="17.6410873">
        <ele>21.2864</ele>
        <time>2013-04-20T19:35:24Z</time>
      </trkpt>
      <trkpt lat="59.9283019" lon="17.6410802">
        <ele>21.2864</ele>
        <time>2013-04-20T19:35:25Z</time>
      </trkpt>
      <trkpt lat="59.9283752" lon="17.641069">
        <ele>21.2864</ele>
        <time>2013-04-20T19:35:26Z</time>
      </trkpt>
      <trkpt lat="59.9284478" lon="17.6410555">
        <ele>21.2864</ele>
        <time>2013-04-20T19:35:27Z</time>
      </trkpt>
      <trkpt lat="59.9285182" lon="17.6410459">
        <ele>21.2864</ele>
        <time>2013-04-20T19:35:28Z</time>
      </trkpt>
      <trkpt lat="59.9285868" lon="17.6410368">
        <ele>21.767</ele>
        <time>2013-04-20T19:35:29Z</time>
      </trkpt>
      <trkpt lat="59.9286545" lon="17.6410237">
        <ele>21.2864</ele>
        <time>2013-04-20T19:35:30Z</time>
      </trkpt>
      <trkpt lat="59.9287236" lon="17.6410116">
        <ele>21.767</ele>
        <time>2013-04-20T19:35:31Z</time>
      </trkpt>
      <trkpt lat="59.9287937" lon="17.6409975">
        <ele>21.767</ele>
        <time>2013-04-20T19:35:32Z</time>
      </trkpt>
      <trkpt lat="59.9288657" lon="17.6409807">
        <ele>21.767</ele>
        <time>2013-04-20T19:35:33Z</time>
      </trkpt>
      <trkpt lat="59.9289397" lon="17.6409626">
        <ele>21.767</ele>
        <time>2013-04-20T19:35:34Z</time>
      </trkpt>
      <trkpt lat="59.9290149" lon="17.6409477">
        <ele>21.767</ele>
        <time>2013-04-20T19:35:35Z</time>
      </trkpt>
      <trkpt lat="59.9290896" lon="17.6409386">
        <ele>21.767</ele>
        <time>2013-04-20T19:35:36Z</time>
      </trkpt>
      <trkpt lat="59.9291647" lon="17.6409341">
        <ele>21.767</ele>
        <time>2013-04-20T19:35:37Z</time>
      </trkpt>
      <trkpt lat="59.9292414" lon="17.6409323">
        <ele>21.767</ele>
        <time>2013-04-20T19:35:38Z</time>
      </trkpt>
      <trkpt lat="59.9293181" lon="17.6409307">
        <ele>21.767</ele>
        <time>2013-04-20T19:35:39Z</time>
      </trkpt>
      <trkpt lat="59.9293918" lon="17.6409241">
        <ele>21.767</ele>
        <time>2013-04-20T19:35:40Z</time>
      </trkpt>
      <trkpt lat="59.9294634" lon="17.640917">
        <ele>21.767</ele>
        <time>2013-04-20T19:35:41Z</time>
      </trkpt>
      <trkpt lat="59.9295334" lon="17.6409112">
        <ele>21.767</ele>
        <time>2013-04-20T19:35:42Z</time>
      </trkpt>
      <trkpt lat="59.9296018" lon="17.6409017">
        <ele>21.767</ele>
        <time>2013-04-20T19:35:43Z</time>
      </trkpt>
      <trkpt lat="59.9296683" lon="17.6408871">
        <ele>21.767</ele>
        <time>2013-04-20T19:35:44Z</time>
      </trkpt>
      <trkpt lat="59.9297332" lon="17.6408714">
        <ele>21.767</ele>
        <time>2013-04-20T19:35:45Z</time>
      </trkpt>
      <trkpt lat="59.9297952" lon="17.6408594">
        <ele>21.767</ele>
        <time>2013-04-20T19:35:46Z</time>
      </trkpt>
      <trkpt lat="59.9298555" lon="17.64085">
        <ele>21.767</ele>
        <time>2013-04-20T19:35:47Z</time>
      </trkpt>
      <trkpt lat="59.9299164" lon="17.6408428">
        <ele>21.2864</ele>
        <time>2013-04-20T19:35:48Z</time>
      </trkpt>
      <trkpt lat="59.92998" lon="17.6408421">
        <ele>21.2864</ele>
        <time>2013-04-20T19:35:49Z</time>
      </trkpt>
      <trkpt lat="59.9300453" lon="17.6408459">
        <ele>21.2864</ele>
        <time>2013-04-20T19:35:50Z</time>
      </trkpt>
      <trkpt lat="59.9301116" lon="17.6408468">
        <ele>21.2864</ele>
        <time>2013-04-20T19:35:51Z</time>
      </trkpt>
      <trkpt lat="59.9301773" lon="17.640847">
        <ele>21.2864</ele>
        <time>2013-04-20T19:35:52Z</time>
      </trkpt>
      <trkpt lat="59.9302426" lon="17.6408489">
        <ele>21.2864</ele>
        <time>2013-04-20T19:35:53Z</time>
      </trkpt>
      <trkpt lat="59.9303069" lon="17.6408511">
        <ele>21.2864</ele>
        <time>2013-04-20T19:35:54Z</time>
      </trkpt>
      <trkpt lat="59.9303706" lon="17.6408553">
        <ele>20.8057</ele>
        <time>2013-04-20T19:35:55Z</time>
      </trkpt>
      <trkpt lat="59.9304336" lon="17.6408613">
        <ele>21.2864</ele>
        <time>2013-04-20T19:35:56Z</time>
      </trkpt>
      <trkpt lat="59.9304954" lon="17.6408659">
        <ele>21.2864</ele>
        <time>2013-04-20T19:35:57Z</time>
      </trkpt>
      <trkpt lat="59.9305565" lon="17.6408656">
        <ele>21.2864</ele>
        <time>2013-04-20T19:35:58Z</time>
      </trkpt>
      <trkpt lat="59.9306157" lon="17.6408594">
        <ele>21.2864</ele>
        <time>2013-04-20T19:35:59Z</time>
      </trkpt>
      <trkpt lat="59.9306732" lon="17.6408478">
        <ele>21.767</ele>
        <time>2013-04-20T19:36:00Z</time>
      </trkpt>
      <trkpt lat="59.9307295" lon="17.6408371">
        <ele>21.2864</ele>
        <time>2013-04-20T19:36:01Z</time>
      </trkpt>
      <trkpt lat="59.9307844" lon="17.640831">
        <ele>21.2864</ele>
        <time>2013-04-20T19:36:02Z</time>
      </trkpt>
      <trkpt lat="59.9308414" lon="17.6408325">
        <ele>20.8057</ele>
        <time>2013-04-20T19:36:03Z</time>
      </trkpt>
      <trkpt lat="59.930901" lon="17.6408428">
        <ele>20.8057</ele>
        <time>2013-04-20T19:36:04Z</time>
      </trkpt>
      <trkpt lat="59.9309619" lon="17.64086">
        <ele>20.8057</ele>
        <time>2013-04-20T19:36:05Z</time>
      </trkpt>
      <trkpt lat="59.9310222" lon="17.640889">
        <ele>21.2864</ele>
        <time>2013-04-20T19:36:06Z</time>
      </trkpt>
      <trkpt lat="59.9310805" lon="17.6409302">
        <ele>20.8057</ele>
        <time>2013-04-20T19:36:07Z</time>
      </trkpt>
      <trkpt lat="59.9311388" lon="17.6409749">
        <ele>21.2864</ele>
        <time>2013-04-20T19:36:08Z</time>
      </trkpt>
      <trkpt lat="59.9311958" lon="17.6410188">
        <ele>21.767</ele>
        <time>2013-04-20T19:36:09Z</time>
      </trkpt>
      <trkpt lat="59.9312491" lon="17.6410604">
        <ele>22.7283</ele>
        <time>2013-04-20T19:36:10Z</time>
      </trkpt>
      <trkpt lat="59.9312989" lon="17.6410985">
        <ele>22.7283</ele>
        <time>2013-04-20T19:36:11Z</time>
      </trkpt>
      <trkpt lat="59.931346" lon="17.6411349">
        <ele>23.209</ele>
        <time>2013-04-20T19:36:12Z</time>
      </trkpt>
      <trkpt lat="59.931388" lon="17.6411679">
        <ele>23.6896</ele>
        <time>2013-04-20T19:36:13Z</time>
      </trkpt>
      <trkpt lat="59.9314281" lon="17.6411971">
        <ele>23.6896</ele>
        <time>2013-04-20T19:36:14Z</time>
      </trkpt>
      <trkpt lat="59.9314702" lon="17.6412264">
        <ele>23.209</ele>
        <time>2013-04-20T19:36:15Z</time>
      </trkpt>
      <trkpt lat="59.9315133" lon="17.6412591">
        <ele>23.209</ele>
        <time>2013-04-20T19:36:16Z</time>
      </trkpt>
      <trkpt lat="59.9315563" lon="17.6412939">
        <ele>22.7283</ele>
        <time>2013-04-20T19:36:17Z</time>
      </trkpt>
      <trkpt lat="59.9315997" lon="17.6413282">
        <ele>22.7283</ele>
        <time>2013-04-20T19:36:18Z</time>
      </trkpt>
      <trkpt lat="59.9316445" lon="17.6413624">
        <ele>22.2476</ele>
        <time>2013-04-20T19:36:19Z</time>
      </trkpt>
      <trkpt lat="59.9316905" lon="17.6414007">
        <ele>21.767</ele>
        <time>2013-04-20T19:36:20Z</time>
      </trkpt>
      <trkpt lat="59.9317379" lon="17.6414399">
        <ele>21.2864</ele>
        <time>2013-04-20T19:36:21Z</time>
      </trkpt>
      <trkpt lat="59.9317868" lon="17.6414762">
        <ele>21.2864</ele>
        <time>2013-04-20T19:36:22Z</time>
      </trkpt>
      <trkpt lat="59.931837" lon="17.6415116">
        <ele>21.2864</ele>
        <time>2013-04-20T19:36:23Z</time>
      </trkpt>
      <trkpt lat="59.9318881" lon="17.6415451">
        <ele>21.2864</ele>
        <time>2013-04-20T19:36:24Z</time>
      </trkpt>
      <trkpt lat="59.9319389" lon="17.6415763">
        <ele>21.2864</ele>
        <time>2013-04-20T19:36:25Z</time>
      </trkpt>
      <trkpt lat="59.9319884" lon="17.6416052">
        <ele>21.767</ele>
        <time>2013-04-20T19:36:26Z</time>
      </trkpt>
      <trkpt lat="59.9320344" lon="17.64164">
        <ele>21.767</ele>
        <time>2013-04-20T19:36:27Z</time>
      </trkpt>
      <trkpt lat="59.9320777" lon="17.6416819">
        <ele>21.767</ele>
        <time>2013-04-20T19:36:28Z</time>
      </trkpt>
      <trkpt lat="59.932122" lon="17.6417292">
        <ele>21.2864</ele>
        <time>2013-04-20T19:36:29Z</time>
      </trkpt>
      <trkpt lat="59.9321706" lon="17.6417769">
        <ele>21.2864</ele>
        <time>2013-04-20T19:36:30Z</time>
      </trkpt>
      <trkpt lat="59.9322219" lon="17.6418245">
        <ele>21.2864</ele>
        <time>2013-04-20T19:36:31Z</time>
      </trkpt>
      <trkpt lat="59.9322752" lon="17.6418721">
        <ele>21.2864</ele>
        <time>2013-04-20T19:36:32Z</time>
      </trkpt>
      <trkpt lat="59.9323297" lon="17.6419196">
        <ele>21.2864</ele>
        <time>2013-04-20T19:36:33Z</time>
      </trkpt>
      <trkpt lat="59.932385" lon="17.6419674">
        <ele>21.2864</ele>
        <time>2013-04-20T19:36:34Z</time>
      </trkpt>
      <trkpt lat="59.9324394" lon="17.6420169">
        <ele>20.8057</ele>
        <time>2013-04-20T19:36:35Z</time>
      </trkpt>
      <trkpt lat="59.9324935" lon="17.6420692">
        <ele>21.2864</ele>
        <time>2013-04-20T19:36:36Z</time>
      </trkpt>
      <trkpt lat="59.9325467" lon="17.6421245">
        <ele>21.2864</ele>
        <time>2013-04-20T19:36:37Z</time>
      </trkpt>
      <trkpt lat="59.932598" lon="17.6421824">
        <ele>21.767</ele>
        <time>2013-04-20T19:36:38Z</time>
      </trkpt>
      <trkpt lat="59.9326483" lon="17.6422407">
        <ele>21.767</ele>
        <time>2013-04-20T19:36:39Z</time>
      </trkpt>
      <trkpt lat="59.9326973" lon="17.6423016">
        <ele>22.2476</ele>
        <time>2013-04-20T19:36:40Z</time>
      </trkpt>
      <trkpt lat="59.9327425" lon="17.6423678">
        <ele>22.2476</ele>
        <time>2013-04-20T19:36:41Z</time>
      </trkpt>
      <trkpt lat="59.9327819" lon="17.6424409">
        <ele>22.2476</ele>
        <time>2013-04-20T19:36:42Z</time>
      </trkpt>
      <trkpt lat="59.932819" lon="17.6425123">
        <ele>22.2476</ele>
        <time>2013-04-20T19:36:43Z</time>
      </trkpt>
      <trkpt lat="59.9328579" lon="17.6425834">
        <ele>22.2476</ele>
        <time>2013-04-20T19:36:44Z</time>
      </trkpt>
      <trkpt lat="59.9328994" lon="17.6426559">
        <ele>22.2476</ele>
        <time>2013-04-20T19:36:45Z</time>
      </trkpt>
      <trkpt lat="59.932943" lon="17.6427254">
        <ele>22.2476</ele>
        <time>2013-04-20T19:36:46Z</time>
      </trkpt>
      <trkpt lat="59.9329887" lon="17.6427896">
        <ele>22.2476</ele>
        <time>2013-04-20T19:36:47Z</time>
      </trkpt>
      <trkpt lat="59.9330362" lon="17.6428506">
        <ele>22.7283</ele>
        <time>2013-04-20T19:36:48Z</time>
      </trkpt>
      <trkpt lat="59.933083" lon="17.6429123">
        <ele>22.7283</ele>
        <time>2013-04-20T19:36:49Z</time>
      </trkpt>
      <trkpt lat="59.9331278" lon="17.6429748">
        <ele>23.209</ele>
        <time>2013-04-20T19:36:50Z</time>
      </trkpt>
      <trkpt lat="59.9331712" lon="17.6430381">
        <ele>23.209</ele>
        <time>2013-04-20T19:36:51Z</time>
      </trkpt>
      <trkpt lat="59.9332132" lon="17.6431016">
        <ele>23.209</ele>
        <time>2013-04-20T19:36:52Z</time>
      </trkpt>
      <trkpt lat="59.9332523" lon="17.6431628">
        <ele>23.6896</ele>
        <time>2013-04-20T19:36:53Z</time>
      </trkpt>
      <trkpt lat="59.9332864" lon="17.643221">
        <ele>23.6896</ele>
        <time>2013-04-20T19:36:54Z</time>
      </trkpt>
      <trkpt lat="59.9333201" lon="17.6432776">
        <ele>24.1703</ele>
        <time>2013-04-20T19:36:55Z</time>
      </trkpt>
      <trkpt lat="59.9333523" lon="17.6433358">
        <ele>24.1703</ele>
        <time>2013-04-20T19:36:56Z</time>
      </trkpt>
      <trkpt lat="59.9333813" lon="17.6433871">
        <ele>24.1703</ele>
        <time>2013-04-20T19:36:57Z</time>
      </trkpt>
      <trkpt lat="59.9334126" lon="17.6434323">
        <ele>23.6896</ele>
        <time>2013-04-20T19:36:58Z</time>
      </trkpt>
      <trkpt lat="59.9334451" lon="17.6434782">
        <ele>23.6896</ele>
        <time>2013-04-20T19:36:59Z</time>
      </trkpt>
      <trkpt lat="59.9334776" lon="17.6435183">
        <ele>23.209</ele>
        <time>2013-04-20T19:37:00Z</time>
      </trkpt>
      <trkpt lat="59.9335143" lon="17.6435611">
        <ele>23.6896</ele>
        <time>2013-04-20T19:37:01Z</time>
      </trkpt>
      <trkpt lat="59.9335517" lon="17.6435955">
        <ele>23.209</ele>
        <time>2013-04-20T19:37:02Z</time>
      </trkpt>
      <trkpt lat="59.9335884" lon="17.6436312">
        <ele>22.7283</ele>
        <time>2013-04-20T19:37:03Z</time>
      </trkpt>
      <trkpt lat="59.9336258" lon="17.6436736">
        <ele>22.2476</ele>
        <time>2013-04-20T19:37:04Z</time>
      </trkpt>
      <trkpt lat="59.9336646" lon="17.6437184">
        <ele>22.2476</ele>
        <time>2013-04-20T19:37:05Z</time>
      </trkpt>
      <trkpt lat="59.9337041" lon="17.6437675">
        <ele>22.2476</ele>
        <time>2013-04-20T19:37:06Z</time>
      </trkpt>
      <trkpt lat="59.9337436" lon="17.6438146">
        <ele>22.2476</ele>
        <time>2013-04-20T19:37:07Z</time>
      </trkpt>
      <trkpt lat="59.9337863" lon="17.6438564">
        <ele>22.7283</ele>
        <time>2013-04-20T19:37:08Z</time>
      </trkpt>
      <trkpt lat="59.9338324" lon="17.6438968">
        <ele>22.7283</ele>
        <time>2013-04-20T19:37:09Z</time>
      </trkpt>
      <trkpt lat="59.9338797" lon="17.6439406">
        <ele>23.209</ele>
        <time>2013-04-20T19:37:10Z</time>
      </trkpt>
      <trkpt lat="59.9339272" lon="17.6439913">
        <ele>23.209</ele>
        <time>2013-04-20T19:37:11Z</time>
      </trkpt>
      <trkpt lat="59.9339706" lon="17.6440427">
        <ele>23.209</ele>
        <time>2013-04-20T19:37:12Z</time>
      </trkpt>
      <trkpt lat="59.9340132" lon="17.6440964">
        <ele>23.6896</ele>
        <time>2013-04-20T19:37:13Z</time>
      </trkpt>
      <trkpt lat="59.9340546" lon="17.6441528">
        <ele>24.1703</ele>
        <time>2013-04-20T19:37:14Z</time>
      </trkpt>
      <trkpt lat="59.9340957" lon="17.6442107">
        <ele>24.1703</ele>
        <time>2013-04-20T19:37:15Z</time>
      </trkpt>
      <trkpt lat="59.934138" lon="17.6442673">
        <ele>24.651</ele>
        <time>2013-04-20T19:37:16Z</time>
      </trkpt>
      <trkpt lat="59.9341801" lon="17.6443219">
        <ele>25.1317</ele>
        <time>2013-04-20T19:37:17Z</time>
      </trkpt>
      <trkpt lat="59.9342225" lon="17.6443765">
        <ele>25.1317</ele>
        <time>2013-04-20T19:37:18Z</time>
      </trkpt>
      <trkpt lat="59.934266" lon="17.6444299">
        <ele>25.6123</ele>
        <time>2013-04-20T19:37:19Z</time>
      </trkpt>
      <trkpt lat="59.9343093" lon="17.6444866">
        <ele>25.6123</ele>
        <time>2013-04-20T19:37:20Z</time>
      </trkpt>
      <trkpt lat="59.9343497" lon="17.6445482">
        <ele>26.0929</ele>
        <time>2013-04-20T19:37:21Z</time>
      </trkpt>
      <trkpt lat="59.934386" lon="17.6446098">
        <ele>26.5736</ele>
        <time>2013-04-20T19:37:22Z</time>
      </trkpt>
      <trkpt lat="59.9344194" lon="17.644671">
        <ele>27.0543</ele>
        <time>2013-04-20T19:37:23Z</time>
      </trkpt>
      <trkpt lat="59.9344509" lon="17.6447324">
        <ele>27.5349</ele>
        <time>2013-04-20T19:37:24Z</time>
      </trkpt>
      <trkpt lat="59.9344846" lon="17.6447886">
        <ele>28.0155</ele>
        <time>2013-04-20T19:37:25Z</time>
      </trkpt>
      <trkpt lat="59.9345212" lon="17.6448409">
        <ele>28.4962</ele>
        <time>2013-04-20T19:37:26Z</time>
      </trkpt>
      <trkpt lat="59.9345583" lon="17.6448915">
        <ele>28.4962</ele>
        <time>2013-04-20T19:37:27Z</time>
      </trkpt>
      <trkpt lat="59.9345981" lon="17.6449385">
        <ele>28.0155</ele>
        <time>2013-04-20T19:37:28Z</time>
      </trkpt>
      <trkpt lat="59.9346411" lon="17.6449843">
        <ele>28.0155</ele>
        <time>2013-04-20T19:37:29Z</time>
      </trkpt>
      <trkpt lat="59.9346843" lon="17.6450299">
        <ele>28.0155</ele>
        <time>2013-04-20T19:37:30Z</time>
      </trkpt>
      <trkpt lat="59.9347273" lon="17.6450807">
        <ele>28.0155</ele>
        <time>2013-04-20T19:37:31Z</time>
      </trkpt>
      <trkpt lat="59.9347688" lon="17.6451418">
        <ele>28.0155</ele>
        <time>2013-04-20T19:37:32Z</time>
      </trkpt>
      <trkpt lat="59.9348087" lon="17.6451967">
        <ele>28.9769</ele>
        <time>2013-04-20T19:37:33Z</time>
      </trkpt>
      <trkpt lat="59.9348497" lon="17.6452473">
        <ele>28.9769</ele>
        <time>2013-04-20T19:37:34Z</time>
      </trkpt>
      <trkpt lat="59.9348891" lon="17.645299">
        <ele>28.4962</ele>
        <time>2013-04-20T19:37:35Z</time>
      </trkpt>
      <trkpt lat="59.93493" lon="17.6453489">
        <ele>28.4962</ele>
        <time>2013-04-20T19:37:36Z</time>
      </trkpt>
      <trkpt lat="59.9349724" lon="17.6453993">
        <ele>29.4575</ele>
        <time>2013-04-20T19:37:37Z</time>
      </trkpt>
      <trkpt lat="59.935012" lon="17.6454583">
        <ele>29.4575</ele>
        <time>2013-04-20T19:37:38Z</time>
      </trkpt>
      <trkpt lat="59.9350516" lon="17.6455236">
        <ele>29.9381</ele>
        <time>2013-04-20T19:37:39Z</time>
      </trkpt>
      <trkpt lat="59.9350869" lon="17.6455986">
        <ele>29.9381</ele>
        <time>2013-04-20T19:37:40Z</time>
      </trkpt>
      <trkpt lat="59.9351192" lon="17.6456796">
        <ele>30.4188</ele>
        <time>2013-04-20T19:37:41Z</time>
      </trkpt>
      <trkpt lat="59.9351518" lon="17.6457591">
        <ele>30.8995</ele>
        <time>2013-04-20T19:37:42Z</time>
      </trkpt>
      <trkpt lat="59.9351891" lon="17.6458317">
        <ele>30.8995</ele>
        <time>2013-04-20T19:37:43Z</time>
      </trkpt>
      <trkpt lat="59.9352316" lon="17.6458975">
        <ele>30.8995</ele>
        <time>2013-04-20T19:37:44Z</time>
      </trkpt>
      <trkpt lat="59.9352761" lon="17.6459623">
        <ele>31.3801</ele>
        <time>2013-04-20T19:37:45Z</time>
      </trkpt>
      <trkpt lat="59.9353222" lon="17.6460272">
        <ele>31.3801</ele>
        <time>2013-04-20T19:37:46Z</time>
      </trkpt>
      <trkpt lat="59.9353718" lon="17.6460871">
        <ele>31.8607</ele>
        <time>2013-04-20T19:37:47Z</time>
      </trkpt>
      <trkpt lat="59.9354218" lon="17.6461477">
        <ele>32.3416</ele>
        <time>2013-04-20T19:37:48Z</time>
      </trkpt>
      <trkpt lat="59.9354714" lon="17.6462136">
        <ele>32.3416</ele>
        <time>2013-04-20T19:37:49Z</time>
      </trkpt>
      <trkpt lat="59.9355227" lon="17.6462798">
        <ele>32.3416</ele>
        <time>2013-04-20T19:37:50Z</time>
      </trkpt>
      <trkpt lat="59.935574" lon="17.646347">
        <ele>32.3416</ele>
        <time>2013-04-20T19:37:51Z</time>
      </trkpt>
      <trkpt lat="59.9356242" lon="17.6464165">
        <ele>32.3416</ele>
        <time>2013-04-20T19:37:52Z</time>
      </trkpt>
      <trkpt lat="59.9356754" lon="17.6464855">
        <ele>32.8223</ele>
        <time>2013-04-20T19:37:53Z</time>
      </trkpt>
      <trkpt lat="59.9357264" lon="17.6465526">
        <ele>32.3416</ele>
        <time>2013-04-20T19:37:54Z</time>
      </trkpt>
      <trkpt lat="59.9357801" lon="17.6466184">
        <ele>32.8223</ele>
        <time>2013-04-20T19:37:55Z</time>
      </trkpt>
      <trkpt lat="59.9358325" lon="17.6466823">
        <ele>32.8223</ele>
        <time>2013-04-20T19:37:56Z</time>
      </trkpt>
      <trkpt lat="59.9358863" lon="17.6467475">
        <ele>33.3029</ele>
        <time>2013-04-20T19:37:57Z</time>
      </trkpt>
      <trkpt lat="59.9359412" lon="17.6468123">
        <ele>33.3029</ele>
        <time>2013-04-20T19:37:58Z</time>
      </trkpt>
      <trkpt lat="59.935995" lon="17.6468781">
        <ele>33.3029</ele>
        <time>2013-04-20T19:37:59Z</time>
      </trkpt>
      <trkpt lat="59.9360485" lon="17.6469469">
        <ele>33.3029</ele>
        <time>2013-04-20T19:38:00Z</time>
      </trkpt>
      <trkpt lat="59.9361029" lon="17.6470174">
        <ele>33.7834</ele>
        <time>2013-04-20T19:38:01Z</time>
      </trkpt>
      <trkpt lat="59.9361581" lon="17.6470891">
        <ele>33.7834</ele>
        <time>2013-04-20T19:38:02Z</time>
      </trkpt>
      <trkpt lat="59.9362125" lon="17.6471594">
        <ele>33.7834</ele>
        <time>2013-04-20T19:38:03Z</time>
      </trkpt>
      <trkpt lat="59.9362681" lon="17.6472268">
        <ele>34.2642</ele>
        <time>2013-04-20T19:38:04Z</time>
      </trkpt>
      <trkpt lat="59.9363241" lon="17.6472927">
        <ele>34.2642</ele>
        <time>2013-04-20T19:38:05Z</time>
      </trkpt>
      <trkpt lat="59.9363796" lon="17.6473605">
        <ele>34.2642</ele>
        <time>2013-04-20T19:38:06Z</time>
      </trkpt>
      <trkpt lat="59.9364352" lon="17.6474307">
        <ele>34.2642</ele>
        <time>2013-04-20T19:38:07Z</time>
      </trkpt>
      <trkpt lat="59.9364914" lon="17.6475029">
        <ele>34.2642</ele>
        <time>2013-04-20T19:38:08Z</time>
      </trkpt>
      <trkpt lat="59.9365483" lon="17.6475755">
        <ele>34.7449</ele>
        <time>2013-04-20T19:38:09Z</time>
      </trkpt>
      <trkpt lat="59.9366051" lon="17.6476474">
        <ele>34.7449</ele>
        <time>2013-04-20T19:38:10Z</time>
      </trkpt>
      <trkpt lat="59.9366606" lon="17.6477189">
        <ele>35.2255</ele>
        <time>2013-04-20T19:38:11Z</time>
      </trkpt>
      <trkpt lat="59.9367162" lon="17.6477894">
        <ele>35.2255</ele>
        <time>2013-04-20T19:38:12Z</time>
      </trkpt>
      <trkpt lat="59.9367724" lon="17.6478594">
        <ele>35.2255</ele>
        <time>2013-04-20T19:38:13Z</time>
      </trkpt>
      <trkpt lat="59.9368282" lon="17.6479293">
        <ele>35.2255</ele>
        <time>2013-04-20T19:38:14Z</time>
      </trkpt>
      <trkpt lat="59.9368849" lon="17.6479997">
        <ele>35.2255</ele>
        <time>2013-04-20T19:38:15Z</time>
      </trkpt>
      <trkpt lat="59.9369426" lon="17.6480721">
        <ele>35.2255</ele>
        <time>2013-04-20T19:38:16Z</time>
      </trkpt>
      <trkpt lat="59.9369989" lon="17.6481472">
        <ele>35.2255</ele>
        <time>2013-04-20T19:38:17Z</time>
      </trkpt>
      <trkpt lat="59.9370553" lon="17.6482214">
        <ele>35.2255</ele>
        <time>2013-04-20T19:38:18Z</time>
      </trkpt>
      <trkpt lat="59.9371109" lon="17.6482949">
        <ele>34.7449</ele>
        <time>2013-04-20T19:38:19Z</time>
      </trkpt>
      <trkpt lat="59.9371688" lon="17.6483713">
        <ele>34.7449</ele>
        <time>2013-04-20T19:38:20Z</time>
      </trkpt>
      <trkpt lat="59.9372289" lon="17.6484493">
        <ele>35.2255</ele>
        <time>2013-04-20T19:38:21Z</time>
      </trkpt>
      <trkpt lat="59.9372881" lon="17.6485304">
        <ele>35.2255</ele>
        <time>2013-04-20T19:38:22Z</time>
      </trkpt>
      <trkpt lat="59.9373464" lon="17.6486153">
        <ele>35.2255</ele>
        <time>2013-04-20T19:38:23Z</time>
      </trkpt>
      <trkpt lat="59.9374041" lon="17.6487032">
        <ele>35.2255</ele>
        <time>2013-04-20T19:38:24Z</time>
      </trkpt>
      <trkpt lat="59.9374626" lon="17.6487932">
        <ele>35.7061</ele>
        <time>2013-04-20T19:38:25Z</time>
      </trkpt>
      <trkpt lat="59.9375206" lon="17.6488854">
        <ele>35.7061</ele>
        <time>2013-04-20T19:38:26Z</time>
      </trkpt>
      <trkpt lat="59.9375795" lon="17.6489797">
        <ele>35.7061</ele>
        <time>2013-04-20T19:38:27Z</time>
      </trkpt>
      <trkpt lat="59.9376363" lon="17.6490786">
        <ele>35.7061</ele>
        <time>2013-04-20T19:38:28Z</time>
      </trkpt>
      <trkpt lat="59.9376915" lon="17.6491816">
        <ele>36.1868</ele>
        <time>2013-04-20T19:38:29Z</time>
      </trkpt>
      <trkpt lat="59.9377442" lon="17.6492864">
        <ele>36.1868</ele>
        <time>2013-04-20T19:38:30Z</time>
      </trkpt>
      <trkpt lat="59.9377931" lon="17.6493998">
        <ele>36.1868</ele>
        <time>2013-04-20T19:38:31Z</time>
      </trkpt>
      <trkpt lat="59.9378357" lon="17.6495244">
        <ele>36.1868</ele>
        <time>2013-04-20T19:38:32Z</time>
      </trkpt>
      <trkpt lat="59.937878" lon="17.6496505">
        <ele>36.1868</ele>
        <time>2013-04-20T19:38:33Z</time>
      </trkpt>
      <trkpt lat="59.9379233" lon="17.6497723">
        <ele>36.6675</ele>
        <time>2013-04-20T19:38:34Z</time>
      </trkpt>
      <trkpt lat="59.9379717" lon="17.6498917">
        <ele>36.6675</ele>
        <time>2013-04-20T19:38:35Z</time>
      </trkpt>
      <trkpt lat="59.93802" lon="17.6500127">
        <ele>36.6675</ele>
        <time>2013-04-20T19:38:36Z</time>
      </trkpt>
      <trkpt lat="59.9380675" lon="17.6501373">
        <ele>36.6675</ele>
        <time>2013-04-20T19:38:37Z</time>
      </trkpt>
      <trkpt lat="59.9381134" lon="17.6502653">
        <ele>37.1481</ele>
        <time>2013-04-20T19:38:38Z</time>
      </trkpt>
      <trkpt lat="59.938159" lon="17.6503948">
        <ele>37.1481</ele>
        <time>2013-04-20T19:38:39Z</time>
      </trkpt>
      <trkpt lat="59.9382051" lon="17.6505223">
        <ele>37.6287</ele>
        <time>2013-04-20T19:38:40Z</time>
      </trkpt>
      <trkpt lat="59.9382516" lon="17.6506472">
        <ele>37.1481</ele>
        <time>2013-04-20T19:38:41Z</time>
      </trkpt>
      <trkpt lat="59.9383003" lon="17.6507675">
        <ele>37.6287</ele>
        <time>2013-04-20T19:38:42Z</time>
      </trkpt>
      <trkpt lat="59.9383511" lon="17.6508832">
        <ele>37.6287</ele>
        <time>2013-04-20T19:38:43Z</time>
      </trkpt>
      <trkpt lat="59.9384033" lon="17.6509957">
        <ele>37.6287</ele>
        <time>2013-04-20T19:38:44Z</time>
      </trkpt>
      <trkpt lat="59.9384539" lon="17.6511108">
        <ele>37.6287</ele>
        <time>2013-04-20T19:38:45Z</time>
      </trkpt>
      <trkpt lat="59.9385001" lon="17.6512325">
        <ele>38.1094</ele>
        <time>2013-04-20T19:38:46Z</time>
      </trkpt>
      <trkpt lat="59.9385427" lon="17.6513579">
        <ele>38.1094</ele>
        <time>2013-04-20T19:38:47Z</time>
      </trkpt>
      <trkpt lat="59.9385832" lon="17.6514858">
        <ele>38.5901</ele>
        <time>2013-04-20T19:38:48Z</time>
      </trkpt>
      <trkpt lat="59.9386208" lon="17.6516158">
        <ele>37.6287</ele>
        <time>2013-04-20T19:38:49Z</time>
      </trkpt>
      <trkpt lat="59.9386593" lon="17.6517434">
        <ele>37.1481</ele>
        <time>2013-04-20T19:38:50Z</time>
      </trkpt>
      <trkpt lat="59.938698" lon="17.6518749">
        <ele>36.6675</ele>
        <time>2013-04-20T19:38:51Z</time>
      </trkpt>
      <trkpt lat="59.9387364" lon="17.6520069">
        <ele>36.6675</ele>
        <time>2013-04-20T19:38:52Z</time>
      </trkpt>
      <trkpt lat="59.9387725" lon="17.6521362">
        <ele>35.7061</ele>
        <time>2013-04-20T19:38:53Z</time>
      </trkpt>
      <trkpt lat="59.9388088" lon="17.652266">
        <ele>35.2255</ele>
        <time>2013-04-20T19:38:54Z</time>
      </trkpt>
      <trkpt lat="59.9388453" lon="17.6523949">
        <ele>34.7449</ele>
        <time>2013-04-20T19:38:55Z</time>
      </trkpt>
      <trkpt lat="59.9388813" lon="17.6525244">
        <ele>34.2642</ele>
        <time>2013-04-20T19:38:56Z</time>
      </trkpt>
      <trkpt lat="59.9389158" lon="17.6526545">
        <ele>33.7834</ele>
        <time>2013-04-20T19:38:57Z</time>
      </trkpt>
      <trkpt lat="59.9389491" lon="17.6527841">
        <ele>33.3029</ele>
        <time>2013-04-20T19:38:58Z</time>
      </trkpt>
      <trkpt lat="59.9389816" lon="17.652914">
        <ele>33.3029</ele>
        <time>2013-04-20T19:38:59Z</time>
      </trkpt>
      <trkpt lat="59.9390144" lon="17.6530456">
        <ele>32.8223</ele>
        <time>2013-04-20T19:39:00Z</time>
      </trkpt>
      <trkpt lat="59.9390467" lon="17.6531777">
        <ele>32.8223</ele>
        <time>2013-04-20T19:39:01Z</time>
      </trkpt>
      <trkpt lat="59.9390781" lon="17.6533097">
        <ele>32.8223</ele>
        <time>2013-04-20T19:39:02Z</time>
      </trkpt>
      <trkpt lat="59.939109" lon="17.6534412">
        <ele>32.8223</ele>
        <time>2013-04-20T19:39:03Z</time>
      </trkpt>
      <trkpt lat="59.9391395" lon="17.653572">
        <ele>32.8223</ele>
        <time>2013-04-20T19:39:04Z</time>
      </trkpt>
      <trkpt lat="59.9391689" lon="17.6537024">
        <ele>32.3416</ele>
        <time>2013-04-20T19:39:05Z</time>
      </trkpt>
      <trkpt lat="59.9391976" lon="17.6538333">
        <ele>32.3416</ele>
        <time>2013-04-20T19:39:06Z</time>
      </trkpt>
      <trkpt lat="59.9392259" lon="17.6539646">
        <ele>32.3416</ele>
        <time>2013-04-20T19:39:07Z</time>
      </trkpt>
      <trkpt lat="59.9392525" lon="17.6540956">
        <ele>32.3416</ele>
        <time>2013-04-20T19:39:08Z</time>
      </trkpt>
      <trkpt lat="59.9392739" lon="17.654242">
        <ele>32.3416</ele>
        <time>2013-04-20T19:39:09Z</time>
      </trkpt>
      <trkpt lat="59.9393027" lon="17.6544017">
        <ele>32.8223</ele>
        <time>2013-04-20T19:39:10Z</time>
      </trkpt>
      <trkpt lat="59.9393297" lon="17.6545342">
        <ele>32.8223</ele>
        <time>2013-04-20T19:39:11Z</time>
      </trkpt>
      <trkpt lat="59.9393552" lon="17.6546633">
        <ele>32.8223</ele>
        <time>2013-04-20T19:39:12Z</time>
      </trkpt>
      <trkpt lat="59.9393811" lon="17.6547912">
        <ele>32.8223</ele>
        <time>2013-04-20T19:39:13Z</time>
      </trkpt>
      <trkpt lat="59.9394072" lon="17.6549195">
        <ele>32.8223</ele>
        <time>2013-04-20T19:39:14Z</time>
      </trkpt>
      <trkpt lat="59.9394333" lon="17.6550476">
        <ele>32.8223</ele>
        <time>2013-04-20T19:39:15Z</time>
      </trkpt>
      <trkpt lat="59.9394592" lon="17.6551773">
        <ele>32.8223</ele>
        <time>2013-04-20T19:39:16Z</time>
      </trkpt>
      <trkpt lat="59.9394839" lon="17.6553073">
        <ele>32.8223</ele>
        <time>2013-04-20T19:39:17Z</time>
      </trkpt>
      <trkpt lat="59.9395084" lon="17.6554367">
        <ele>32.8223</ele>
        <time>2013-04-20T19:39:18Z</time>
      </trkpt>
      <trkpt lat="59.9395342" lon="17.6555658">
        <ele>32.8223</ele>
        <time>2013-04-20T19:39:19Z</time>
      </trkpt>
      <trkpt lat="59.9395611" lon="17.6556962">
        <ele>32.8223</ele>
        <time>2013-04-20T19:39:20Z</time>
      </trkpt>
      <trkpt lat="59.9395875" lon="17.6558278">
        <ele>32.8223</ele>
        <time>2013-04-20T19:39:21Z</time>
      </trkpt>
      <trkpt lat="59.9396143" lon="17.6559609">
        <ele>32.8223</ele>
        <time>2013-04-20T19:39:22Z</time>
      </trkpt>
      <trkpt lat="59.9396422" lon="17.6560944">
        <ele>33.3029</ele>
        <time>2013-04-20T19:39:23Z</time>
      </trkpt>
      <trkpt lat="59.9396709" lon="17.656229">
        <ele>33.3029</ele>
        <time>2013-04-20T19:39:24Z</time>
      </trkpt>
      <trkpt lat="59.9397002" lon="17.6563646">
        <ele>33.3029</ele>
        <time>2013-04-20T19:39:25Z</time>
      </trkpt>
      <trkpt lat="59.9397284" lon="17.6565023">
        <ele>33.3029</ele>
        <time>2013-04-20T19:39:26Z</time>
      </trkpt>
      <trkpt lat="59.9397558" lon="17.6566406">
        <ele>33.3029</ele>
        <time>2013-04-20T19:39:27Z</time>
      </trkpt>
      <trkpt lat="59.9397831" lon="17.6567794">
        <ele>33.7834</ele>
        <time>2013-04-20T19:39:28Z</time>
      </trkpt>
      <trkpt lat="59.9398108" lon="17.6569177">
        <ele>33.7834</ele>
        <time>2013-04-20T19:39:29Z</time>
      </trkpt>
      <trkpt lat="59.9398398" lon="17.6570561">
        <ele>33.7834</ele>
        <time>2013-04-20T19:39:30Z</time>
      </trkpt>
      <trkpt lat="59.9398688" lon="17.657196">
        <ele>33.7834</ele>
        <time>2013-04-20T19:39:31Z</time>
      </trkpt>
      <trkpt lat="59.9398966" lon="17.6573382">
        <ele>33.7834</ele>
        <time>2013-04-20T19:39:32Z</time>
      </trkpt>
      <trkpt lat="59.9399242" lon="17.6574811">
        <ele>33.7834</ele>
        <time>2013-04-20T19:39:33Z</time>
      </trkpt>
      <trkpt lat="59.939953" lon="17.6576238">
        <ele>33.7834</ele>
        <time>2013-04-20T19:39:34Z</time>
      </trkpt>
      <trkpt lat="59.9399828" lon="17.6577668">
        <ele>33.7834</ele>
        <time>2013-04-20T19:39:35Z</time>
      </trkpt>
      <trkpt lat="59.9400129" lon="17.6579103">
        <ele>33.7834</ele>
        <time>2013-04-20T19:39:36Z</time>
      </trkpt>
      <trkpt lat="59.9400437" lon="17.6580552">
        <ele>33.7834</ele>
        <time>2013-04-20T19:39:37Z</time>
      </trkpt>
      <trkpt lat="59.9400737" lon="17.6582017">
        <ele>33.3029</ele>
        <time>2013-04-20T19:39:38Z</time>
      </trkpt>
      <trkpt lat="59.9401045" lon="17.6583495">
        <ele>33.3029</ele>
        <time>2013-04-20T19:39:39Z</time>
      </trkpt>
      <trkpt lat="59.9401364" lon="17.6584987">
        <ele>33.7834</ele>
        <time>2013-04-20T19:39:40Z</time>
      </trkpt>
      <trkpt lat="59.9401697" lon="17.6586478">
        <ele>33.7834</ele>
        <time>2013-04-20T19:39:41Z</time>
      </trkpt>
      <trkpt lat="59.9402049" lon="17.6587969">
        <ele>33.7834</ele>
        <time>2013-04-20T19:39:42Z</time>
      </trkpt>
      <trkpt lat="59.9402403" lon="17.6589477">
        <ele>33.7834</ele>
        <time>2013-04-20T19:39:43Z</time>
      </trkpt>
      <trkpt lat="59.9402718" lon="17.6590984">
        <ele>33.7834</ele>
        <time>2013-04-20T19:39:44Z</time>
      </trkpt>
      <trkpt lat="59.9403001" lon="17.6592467">
        <ele>33.7834</ele>
        <time>2013-04-20T19:39:45Z</time>
      </trkpt>
      <trkpt lat="59.9403245" lon="17.6593915">
        <ele>34.2642</ele>
        <time>2013-04-20T19:39:46Z</time>
      </trkpt>
      <trkpt lat="59.9403469" lon="17.6595325">
        <ele>34.7449</ele>
        <time>2013-04-20T19:39:47Z</time>
      </trkpt>
      <trkpt lat="59.940369" lon="17.6596647">
        <ele>35.2255</ele>
        <time>2013-04-20T19:39:48Z</time>
      </trkpt>
      <trkpt lat="59.9403947" lon="17.6598025">
        <ele>35.7061</ele>
        <time>2013-04-20T19:39:49Z</time>
      </trkpt>
      <trkpt lat="59.9404164" lon="17.6599273">
        <ele>36.1868</ele>
        <time>2013-04-20T19:39:50Z</time>
      </trkpt>
      <trkpt lat="59.9404531" lon="17.6600429">
        <ele>36.6675</ele>
        <time>2013-04-20T19:39:51Z</time>
      </trkpt>
      <trkpt lat="59.9405053" lon="17.6601796">
        <ele>35.7061</ele>
        <time>2013-04-20T19:39:52Z</time>
      </trkpt>
      <trkpt lat="59.9405509" lon="17.6603138">
        <ele>36.1868</ele>
        <time>2013-04-20T19:39:53Z</time>
      </trkpt>
      <trkpt lat="59.9405475" lon="17.6604565">
        <ele>36.1868</ele>
        <time>2013-04-20T19:39:54Z</time>
      </trkpt>
      <trkpt lat="59.9405272" lon="17.660629">
        <ele>32.8223</ele>
        <time>2013-04-20T19:39:55Z</time>
      </trkpt>
      <trkpt lat="59.9404951" lon="17.6607681">
        <ele>32.3416</ele>
        <time>2013-04-20T19:39:56Z</time>
      </trkpt>
      <trkpt lat="59.9404536" lon="17.6609179">
        <ele>30.4188</ele>
        <time>2013-04-20T19:39:57Z</time>
      </trkpt>
      <trkpt lat="59.9404173" lon="17.6610694">
        <ele>29.9381</ele>
        <time>2013-04-20T19:39:58Z</time>
      </trkpt>
      <trkpt lat="59.9403945" lon="17.6612176">
        <ele>29.9381</ele>
        <time>2013-04-20T19:39:59Z</time>
      </trkpt>
      <trkpt lat="59.9403876" lon="17.6613346">
        <ele>29.4575</ele>
        <time>2013-04-20T19:40:00Z</time>
      </trkpt>
      <trkpt lat="59.9403841" lon="17.6614894">
        <ele>28.4962</ele>
        <time>2013-04-20T19:40:01Z</time>
      </trkpt>
      <trkpt lat="59.9403986" lon="17.6616336">
        <ele>28.0155</ele>
        <time>2013-04-20T19:40:02Z</time>
      </trkpt>
      <trkpt lat="59.9404225" lon="17.6617712">
        <ele>28.0155</ele>
        <time>2013-04-20T19:40:03Z</time>
      </trkpt>
      <trkpt lat="59.9404576" lon="17.6618973">
        <ele>28.0155</ele>
        <time>2013-04-20T19:40:04Z</time>
      </trkpt>
      <trkpt lat="59.9405047" lon="17.6620012">
        <ele>28.4962</ele>
        <time>2013-04-20T19:40:05Z</time>
      </trkpt>
      <trkpt lat="59.9405619" lon="17.6620834">
        <ele>28.4962</ele>
        <time>2013-04-20T19:40:06Z</time>
      </trkpt>
      <trkpt lat="59.9406252" lon="17.6621341">
        <ele>28.4962</ele>
        <time>2013-04-20T19:40:07Z</time>
      </trkpt>
      <trkpt lat="59.9406955" lon="17.6621677">
        <ele>28.4962</ele>
        <time>2013-04-20T19:40:08Z</time>
      </trkpt>
      <trkpt lat="59.9407651" lon="17.6621905">
        <ele>28.4962</ele>
        <time>2013-04-20T19:40:09Z</time>
      </trkpt>
      <trkpt lat="59.9408369" lon="17.6621973">
        <ele>28.0155</ele>
        <time>2013-04-20T19:40:10Z</time>
      </trkpt>
      <trkpt lat="59.9409157" lon="17.6622024">
        <ele>28.4962</ele>
        <time>2013-04-20T19:40:11Z</time>
      </trkpt>
      <trkpt lat="59.9409937" lon="17.6622339">
        <ele>28.4962</ele>
        <time>2013-04-20T19:40:12Z</time>
      </trkpt>
      <trkpt lat="59.9410675" lon="17.6622665">
        <ele>28.4962</ele>
        <time>2013-04-20T19:40:13Z</time>
      </trkpt>
      <trkpt lat="59.9411395" lon="17.662306">
        <ele>28.0155</ele>
        <time>2013-04-20T19:40:14Z</time>
      </trkpt>
      <trkpt lat="59.941211" lon="17.6623532">
        <ele>28.0155</ele>
        <time>2013-04-20T19:40:15Z</time>
      </trkpt>
      <trkpt lat="59.9412815" lon="17.662411">
        <ele>28.0155</ele>
        <time>2013-04-20T19:40:16Z</time>
      </trkpt>
      <trkpt lat="59.9413512" lon="17.6624816">
        <ele>28.4962</ele>
        <time>2013-04-20T19:40:17Z</time>
      </trkpt>
      <trkpt lat="59.9414176" lon="17.6625543">
        <ele>28.4962</ele>
        <time>2013-04-20T19:40:18Z</time>
      </trkpt>
      <trkpt lat="59.9414798" lon="17.6626309">
        <ele>28.4962</ele>
        <time>2013-04-20T19:40:19Z</time>
      </trkpt>
      <trkpt lat="59.9415371" lon="17.6627158">
        <ele>28.4962</ele>
        <time>2013-04-20T19:40:20Z</time>
      </trkpt>
      <trkpt lat="59.9415875" lon="17.6628054">
        <ele>28.4962</ele>
        <time>2013-04-20T19:40:21Z</time>
      </trkpt>
      <trkpt lat="59.9416398" lon="17.6628914">
        <ele>28.4962</ele>
        <time>2013-04-20T19:40:22Z</time>
      </trkpt>
      <trkpt lat="59.9416905" lon="17.6629766">
        <ele>28.4962</ele>
        <time>2013-04-20T19:40:23Z</time>
      </trkpt>
      <trkpt lat="59.9417396" lon="17.6630659">
        <ele>28.4962</ele>
        <time>2013-04-20T19:40:24Z</time>
      </trkpt>
      <trkpt lat="59.9417894" lon="17.6631554">
        <ele>28.4962</ele>
        <time>2013-04-20T19:40:25Z</time>
      </trkpt>
      <trkpt lat="59.9418403" lon="17.6632425">
        <ele>28.4962</ele>
        <time>2013-04-20T19:40:26Z</time>
      </trkpt>
      <trkpt lat="59.9418931" lon="17.6633286">
        <ele>28.4962</ele>
        <time>2013-04-20T19:40:27Z</time>
      </trkpt>
      <trkpt lat="59.941946" lon="17.6634138">
        <ele>28.4962</ele>
        <time>2013-04-20T19:40:28Z</time>
      </trkpt>
      <trkpt lat="59.9420008" lon="17.6634969">
        <ele>28.0155</ele>
        <time>2013-04-20T19:40:29Z</time>
      </trkpt>
      <trkpt lat="59.9420561" lon="17.6635793">
        <ele>28.0155</ele>
        <time>2013-04-20T19:40:30Z</time>
      </trkpt>
      <trkpt lat="59.9421118" lon="17.6636627">
        <ele>28.0155</ele>
        <time>2013-04-20T19:40:31Z</time>
      </trkpt>
      <trkpt lat="59.942168" lon="17.6637436">
        <ele>28.0155</ele>
        <time>2013-04-20T19:40:32Z</time>
      </trkpt>
      <trkpt lat="59.9422243" lon="17.6638238">
        <ele>28.0155</ele>
        <time>2013-04-20T19:40:33Z</time>
      </trkpt>
      <trkpt lat="59.9422823" lon="17.6639062">
        <ele>28.0155</ele>
        <time>2013-04-20T19:40:34Z</time>
      </trkpt>
      <trkpt lat="59.9423414" lon="17.663988">
        <ele>27.5349</ele>
        <time>2013-04-20T19:40:35Z</time>
      </trkpt>
      <trkpt lat="59.9424018" lon="17.6640693">
        <ele>27.5349</ele>
        <time>2013-04-20T19:40:36Z</time>
      </trkpt>
      <trkpt lat="59.9424643" lon="17.6641479">
        <ele>27.5349</ele>
        <time>2013-04-20T19:40:37Z</time>
      </trkpt>
      <trkpt lat="59.9425276" lon="17.6642241">
        <ele>27.5349</ele>
        <time>2013-04-20T19:40:38Z</time>
      </trkpt>
      <trkpt lat="59.9425921" lon="17.6643007">
        <ele>27.5349</ele>
        <time>2013-04-20T19:40:39Z</time>
      </trkpt>
      <trkpt lat="59.9426583" lon="17.664378">
        <ele>27.5349</ele>
        <time>2013-04-20T19:40:40Z</time>
      </trkpt>
      <trkpt lat="59.942725" lon="17.6644537">
        <ele>27.5349</ele>
        <time>2013-04-20T19:40:41Z</time>
      </trkpt>
      <trkpt lat="59.9427933" lon="17.6645288">
        <ele>27.5349</ele>
        <time>2013-04-20T19:40:42Z</time>
      </trkpt>
      <trkpt lat="59.9428623" lon="17.664605">
        <ele>27.5349</ele>
        <time>2013-04-20T19:40:43Z</time>
      </trkpt>
      <trkpt lat="59.9429314" lon="17.6646802">
        <ele>27.5349</ele>
        <time>2013-04-20T19:40:44Z</time>
      </trkpt>
      <trkpt lat="59.9430022" lon="17.6647522">
        <ele>27.5349</ele>
        <time>2013-04-20T19:40:45Z</time>
      </trkpt>
      <trkpt lat="59.9430748" lon="17.6648213">
        <ele>27.5349</ele>
        <time>2013-04-20T19:40:46Z</time>
      </trkpt>
      <trkpt lat="59.9431476" lon="17.6648871">
        <ele>27.5349</ele>
        <time>2013-04-20T19:40:47Z</time>
      </trkpt>
      <trkpt lat="59.943222" lon="17.6649513">
        <ele>27.5349</ele>
        <time>2013-04-20T19:40:48Z</time>
      </trkpt>
      <trkpt lat="59.9432966" lon="17.6650158">
        <ele>27.0543</ele>
        <time>2013-04-20T19:40:49Z</time>
      </trkpt>
      <trkpt lat="59.9433726" lon="17.6650774">
        <ele>27.0543</ele>
        <time>2013-04-20T19:40:50Z</time>
      </trkpt>
      <trkpt lat="59.9434493" lon="17.6651359">
        <ele>27.0543</ele>
        <time>2013-04-20T19:40:51Z</time>
      </trkpt>
      <trkpt lat="59.9435275" lon="17.6651943">
        <ele>27.0543</ele>
        <time>2013-04-20T19:40:52Z</time>
      </trkpt>
      <trkpt lat="59.9436068" lon="17.6652515">
        <ele>27.0543</ele>
        <time>2013-04-20T19:40:53Z</time>
      </trkpt>
      <trkpt lat="59.9436865" lon="17.6653068">
        <ele>27.0543</ele>
        <time>2013-04-20T19:40:54Z</time>
      </trkpt>
      <trkpt lat="59.9437677" lon="17.6653592">
        <ele>27.0543</ele>
        <time>2013-04-20T19:40:55Z</time>
      </trkpt>
      <trkpt lat="59.9438498" lon="17.6654088">
        <ele>27.0543</ele>
        <time>2013-04-20T19:40:56Z</time>
      </trkpt>
      <trkpt lat="59.9439334" lon="17.6654553">
        <ele>27.0543</ele>
        <time>2013-04-20T19:40:57Z</time>
      </trkpt>
      <trkpt lat="59.9440179" lon="17.6654994">
        <ele>27.0543</ele>
        <time>2013-04-20T19:40:58Z</time>
      </trkpt>
      <trkpt lat="59.9441029" lon="17.665542">
        <ele>27.0543</ele>
        <time>2013-04-20T19:40:59Z</time>
      </trkpt>
      <trkpt lat="59.9441885" lon="17.6655822">
        <ele>27.0543</ele>
        <time>2013-04-20T19:41:00Z</time>
      </trkpt>
      <trkpt lat="59.9442739" lon="17.6656203">
        <ele>26.5736</ele>
        <time>2013-04-20T19:41:01Z</time>
      </trkpt>
      <trkpt lat="59.9443595" lon="17.6656563">
        <ele>26.0929</ele>
        <time>2013-04-20T19:41:02Z</time>
      </trkpt>
      <trkpt lat="59.9444449" lon="17.6656913">
        <ele>25.6123</ele>
        <time>2013-04-20T19:41:03Z</time>
      </trkpt>
      <trkpt lat="59.94453" lon="17.665727">
        <ele>25.1317</ele>
        <time>2013-04-20T19:41:04Z</time>
      </trkpt>
      <trkpt lat="59.9446153" lon="17.6657626">
        <ele>25.1317</ele>
        <time>2013-04-20T19:41:05Z</time>
      </trkpt>
      <trkpt lat="59.9447006" lon="17.6657959">
        <ele>24.651</ele>
        <time>2013-04-20T19:41:06Z</time>
      </trkpt>
      <trkpt lat="59.9447864" lon="17.6658284">
        <ele>24.1703</ele>
        <time>2013-04-20T19:41:07Z</time>
      </trkpt>
      <trkpt lat="59.9448722" lon="17.6658625">
        <ele>24.1703</ele>
        <time>2013-04-20T19:41:08Z</time>
      </trkpt>
      <trkpt lat="59.9449578" lon="17.6658969">
        <ele>23.6896</ele>
        <time>2013-04-20T19:41:09Z</time>
      </trkpt>
      <trkpt lat="59.9450437" lon="17.6659314">
        <ele>23.6896</ele>
        <time>2013-04-20T19:41:10Z</time>
      </trkpt>
      <trkpt lat="59.9451292" lon="17.6659669">
        <ele>23.209</ele>
        <time>2013-04-20T19:41:11Z</time>
      </trkpt>
      <trkpt lat="59.9452148" lon="17.6660025">
        <ele>23.209</ele>
        <time>2013-04-20T19:41:12Z</time>
      </trkpt>
      <trkpt lat="59.9453006" lon="17.6660355">
        <ele>23.209</ele>
        <time>2013-04-20T19:41:13Z</time>
      </trkpt>
      <trkpt lat="59.9453866" lon="17.6660659">
        <ele>23.209</ele>
        <time>2013-04-20T19:41:14Z</time>
      </trkpt>
      <trkpt lat="59.9454722" lon="17.6660959">
        <ele>23.209</ele>
        <time>2013-04-20T19:41:15Z</time>
      </trkpt>
      <trkpt lat="59.9455572" lon="17.6661265">
        <ele>23.209</ele>
        <time>2013-04-20T19:41:16Z</time>
      </trkpt>
      <trkpt lat="59.9456419" lon="17.6661585">
        <ele>22.7283</ele>
        <time>2013-04-20T19:41:17Z</time>
      </trkpt>
      <trkpt lat="59.9457265" lon="17.6661911">
        <ele>23.209</ele>
        <time>2013-04-20T19:41:18Z</time>
      </trkpt>
      <trkpt lat="59.9458114" lon="17.6662231">
        <ele>23.209</ele>
        <time>2013-04-20T19:41:19Z</time>
      </trkpt>
      <trkpt lat="59.9458964" lon="17.6662537">
        <ele>23.209</ele>
        <time>2013-04-20T19:41:20Z</time>
      </trkpt>
      <trkpt lat="59.9459808" lon="17.6662849">
        <ele>23.6896</ele>
        <time>2013-04-20T19:41:21Z</time>
      </trkpt>
      <trkpt lat="59.9460647" lon="17.6663199">
        <ele>23.6896</ele>
        <time>2013-04-20T19:41:22Z</time>
      </trkpt>
      <trkpt lat="59.9461487" lon="17.666358">
        <ele>23.6896</ele>
        <time>2013-04-20T19:41:23Z</time>
      </trkpt>
      <trkpt lat="59.9462324" lon="17.6664002">
        <ele>23.6896</ele>
        <time>2013-04-20T19:41:24Z</time>
      </trkpt>
      <trkpt lat="59.946314" lon="17.6664518">
        <ele>23.6896</ele>
        <time>2013-04-20T19:41:25Z</time>
      </trkpt>
      <trkpt lat="59.9463951" lon="17.6665071">
        <ele>23.209</ele>
        <time>2013-04-20T19:41:26Z</time>
      </trkpt>
      <trkpt lat="59.946477" lon="17.6665527">
        <ele>23.209</ele>
        <time>2013-04-20T19:41:27Z</time>
      </trkpt>
      <trkpt lat="59.9465604" lon="17.6665844">
        <ele>23.6896</ele>
        <time>2013-04-20T19:41:28Z</time>
      </trkpt>
      <trkpt lat="59.9466445" lon="17.6666007">
        <ele>23.6896</ele>
        <time>2013-04-20T19:41:29Z</time>
      </trkpt>
      <trkpt lat="59.9467283" lon="17.6666098">
        <ele>23.6896</ele>
        <time>2013-04-20T19:41:30Z</time>
      </trkpt>
      <trkpt lat="59.9468117" lon="17.6666266">
        <ele>23.6896</ele>
        <time>2013-04-20T19:41:31Z</time>
      </trkpt>
      <trkpt lat="59.9468946" lon="17.6666532">
        <ele>23.6896</ele>
        <time>2013-04-20T19:41:32Z</time>
      </trkpt>
      <trkpt lat="59.9469774" lon="17.6666856">
        <ele>23.6896</ele>
        <time>2013-04-20T19:41:33Z</time>
      </trkpt>
      <trkpt lat="59.9470593" lon="17.6667225">
        <ele>23.6896</ele>
        <time>2013-04-20T19:41:34Z</time>
      </trkpt>
      <trkpt lat="59.9471411" lon="17.6667599">
        <ele>24.1703</ele>
        <time>2013-04-20T19:41:35Z</time>
      </trkpt>
      <trkpt lat="59.9472234" lon="17.6667955">
        <ele>24.1703</ele>
        <time>2013-04-20T19:41:36Z</time>
      </trkpt>
      <trkpt lat="59.9473055" lon="17.6668309">
        <ele>24.1703</ele>
        <time>2013-04-20T19:41:37Z</time>
      </trkpt>
      <trkpt lat="59.9473871" lon="17.6668684">
        <ele>24.1703</ele>
        <time>2013-04-20T19:41:38Z</time>
      </trkpt>
      <trkpt lat="59.9474679" lon="17.6669068">
        <ele>24.1703</ele>
        <time>2013-04-20T19:41:39Z</time>
      </trkpt>
      <trkpt lat="59.9475484" lon="17.6669463">
        <ele>24.651</ele>
        <time>2013-04-20T19:41:40Z</time>
      </trkpt>
      <trkpt lat="59.9476279" lon="17.6669883">
        <ele>24.1703</ele>
        <time>2013-04-20T19:41:41Z</time>
      </trkpt>
      <trkpt lat="59.9477068" lon="17.6670308">
        <ele>24.1703</ele>
        <time>2013-04-20T19:41:42Z</time>
      </trkpt>
      <trkpt lat="59.9477853" lon="17.6670703">
        <ele>24.1703</ele>
        <time>2013-04-20T19:41:43Z</time>
      </trkpt>
      <trkpt lat="59.9478638" lon="17.6671096">
        <ele>24.1703</ele>
        <time>2013-04-20T19:41:44Z</time>
      </trkpt>
      <trkpt lat="59.9479415" lon="17.6671511">
        <ele>23.6896</ele>
        <time>2013-04-20T19:41:45Z</time>
      </trkpt>
      <trkpt lat="59.9480185" lon="17.6671953">
        <ele>23.6896</ele>
        <time>2013-04-20T19:41:46Z</time>
      </trkpt>
      <trkpt lat="59.9480952" lon="17.6672385">
        <ele>23.6896</ele>
        <time>2013-04-20T19:41:47Z</time>
      </trkpt>
      <trkpt lat="59.9481716" lon="17.6672788">
        <ele>23.6896</ele>
        <time>2013-04-20T19:41:48Z</time>
      </trkpt>
      <trkpt lat="59.9482479" lon="17.6673197">
        <ele>23.6896</ele>
        <time>2013-04-20T19:41:49Z</time>
      </trkpt>
      <trkpt lat="59.9483238" lon="17.6673618">
        <ele>23.6896</ele>
        <time>2013-04-20T19:41:50Z</time>
      </trkpt>
      <trkpt lat="59.9483995" lon="17.6674031">
        <ele>23.6896</ele>
        <time>2013-04-20T19:41:51Z</time>
      </trkpt>
      <trkpt lat="59.9484753" lon="17.6674437">
        <ele>23.6896</ele>
        <time>2013-04-20T19:41:52Z</time>
      </trkpt>
      <trkpt lat="59.9485501" lon="17.6674851">
        <ele>23.6896</ele>
        <time>2013-04-20T19:41:53Z</time>
      </trkpt>
      <trkpt lat="59.9486247" lon="17.6675265">
        <ele>23.209</ele>
        <time>2013-04-20T19:41:54Z</time>
      </trkpt>
      <trkpt lat="59.9486996" lon="17.6675681">
        <ele>23.209</ele>
        <time>2013-04-20T19:41:55Z</time>
      </trkpt>
      <trkpt lat="59.9487744" lon="17.6676109">
        <ele>23.209</ele>
        <time>2013-04-20T19:41:56Z</time>
      </trkpt>
      <trkpt lat="59.9488485" lon="17.6676541">
        <ele>23.209</ele>
        <time>2013-04-20T19:41:57Z</time>
      </trkpt>
      <trkpt lat="59.9489226" lon="17.6676954">
        <ele>22.7283</ele>
        <time>2013-04-20T19:41:58Z</time>
      </trkpt>
      <trkpt lat="59.9489951" lon="17.6677369">
        <ele>22.2476</ele>
        <time>2013-04-20T19:41:59Z</time>
      </trkpt>
      <trkpt lat="59.9490701" lon="17.6677815">
        <ele>22.7283</ele>
        <time>2013-04-20T19:42:00Z</time>
      </trkpt>
      <trkpt lat="59.9491447" lon="17.6678252">
        <ele>22.7283</ele>
        <time>2013-04-20T19:42:01Z</time>
      </trkpt>
      <trkpt lat="59.9492204" lon="17.6678669">
        <ele>22.7283</ele>
        <time>2013-04-20T19:42:02Z</time>
      </trkpt>
      <trkpt lat="59.9492949" lon="17.6679089">
        <ele>22.7283</ele>
        <time>2013-04-20T19:42:03Z</time>
      </trkpt>
      <trkpt lat="59.9493691" lon="17.6679523">
        <ele>22.2476</ele>
        <time>2013-04-20T19:42:04Z</time>
      </trkpt>
      <trkpt lat="59.9494432" lon="17.667997">
        <ele>22.2476</ele>
        <time>2013-04-20T19:42:05Z</time>
      </trkpt>
      <trkpt lat="59.9495172" lon="17.6680414">
        <ele>21.767</ele>
        <time>2013-04-20T19:42:06Z</time>
      </trkpt>
      <trkpt lat="59.9495917" lon="17.6680849">
        <ele>21.767</ele>
        <time>2013-04-20T19:42:07Z</time>
      </trkpt>
      <trkpt lat="59.9496664" lon="17.6681269">
        <ele>21.767</ele>
        <time>2013-04-20T19:42:08Z</time>
      </trkpt>
      <trkpt lat="59.9497435" lon="17.6681662">
        <ele>22.2476</ele>
        <time>2013-04-20T19:42:09Z</time>
      </trkpt>
      <trkpt lat="59.9498207" lon="17.668202">
        <ele>22.7283</ele>
        <time>2013-04-20T19:42:10Z</time>
      </trkpt>
      <trkpt lat="59.9498968" lon="17.6682357">
        <ele>23.209</ele>
        <time>2013-04-20T19:42:11Z</time>
      </trkpt>
      <trkpt lat="59.9499725" lon="17.6682669">
        <ele>23.209</ele>
        <time>2013-04-20T19:42:12Z</time>
      </trkpt>
      <trkpt lat="59.9500487" lon="17.6682953">
        <ele>23.6896</ele>
        <time>2013-04-20T19:42:13Z</time>
      </trkpt>
      <trkpt lat="59.9501242" lon="17.6683202">
        <ele>24.1703</ele>
        <time>2013-04-20T19:42:14Z</time>
      </trkpt>
      <trkpt lat="59.9501995" lon="17.6683409">
        <ele>24.1703</ele>
        <time>2013-04-20T19:42:15Z</time>
      </trkpt>
      <trkpt lat="59.9502751" lon="17.6683582">
        <ele>24.1703</ele>
        <time>2013-04-20T19:42:16Z</time>
      </trkpt>
      <trkpt lat="59.9503512" lon="17.6683715">
        <ele>24.1703</ele>
        <time>2013-04-20T19:42:17Z</time>
      </trkpt>
      <trkpt lat="59.9504279" lon="17.6683807">
        <ele>24.651</ele>
        <time>2013-04-20T19:42:18Z</time>
      </trkpt>
      <trkpt lat="59.950506" lon="17.6683845">
        <ele>24.651</ele>
        <time>2013-04-20T19:42:19Z</time>
      </trkpt>
      <trkpt lat="59.9505842" lon="17.6683823">
        <ele>24.651</ele>
        <time>2013-04-20T19:42:20Z</time>
      </trkpt>
      <trkpt lat="59.9506631" lon="17.6683733">
        <ele>25.1317</ele>
        <time>2013-04-20T19:42:21Z</time>
      </trkpt>
      <trkpt lat="59.9507406" lon="17.6683614">
        <ele>25.1317</ele>
        <time>2013-04-20T19:42:22Z</time>
      </trkpt>
      <trkpt lat="59.9508195" lon="17.6683471">
        <ele>25.1317</ele>
        <time>2013-04-20T19:42:23Z</time>
      </trkpt>
      <trkpt lat="59.9508981" lon="17.668328">
        <ele>24.651</ele>
        <time>2013-04-20T19:42:24Z</time>
      </trkpt>
      <trkpt lat="59.9509765" lon="17.6683037">
        <ele>24.651</ele>
        <time>2013-04-20T19:42:25Z</time>
      </trkpt>
      <trkpt lat="59.9510563" lon="17.6682782">
        <ele>24.1703</ele>
        <time>2013-04-20T19:42:26Z</time>
      </trkpt>
      <trkpt lat="59.9511365" lon="17.6682517">
        <ele>24.1703</ele>
        <time>2013-04-20T19:42:27Z</time>
      </trkpt>
      <trkpt lat="59.9512166" lon="17.6682196">
        <ele>23.6896</ele>
        <time>2013-04-20T19:42:28Z</time>
      </trkpt>
      <trkpt lat="59.9512975" lon="17.6681881">
        <ele>23.6896</ele>
        <time>2013-04-20T19:42:29Z</time>
      </trkpt>
      <trkpt lat="59.9513788" lon="17.66816">
        <ele>23.209</ele>
        <time>2013-04-20T19:42:30Z</time>
      </trkpt>
      <trkpt lat="59.9514588" lon="17.6681346">
        <ele>23.209</ele>
        <time>2013-04-20T19:42:31Z</time>
      </trkpt>
      <trkpt lat="59.9515385" lon="17.6681226">
        <ele>22.7283</ele>
        <time>2013-04-20T19:42:32Z</time>
      </trkpt>
      <trkpt lat="59.9516187" lon="17.6681402">
        <ele>22.7283</ele>
        <time>2013-04-20T19:42:33Z</time>
      </trkpt>
      <trkpt lat="59.9516917" lon="17.6682024">
        <ele>22.7283</ele>
        <time>2013-04-20T19:42:34Z</time>
      </trkpt>
      <trkpt lat="59.9517507" lon="17.6683051">
        <ele>22.7283</ele>
        <time>2013-04-20T19:42:35Z</time>
      </trkpt>
      <trkpt lat="59.9517954" lon="17.6684347">
        <ele>22.7283</ele>
        <time>2013-04-20T19:42:36Z</time>
      </trkpt>
      <trkpt lat="59.9518259" lon="17.668575">
        <ele>22.2476</ele>
        <time>2013-04-20T19:42:37Z</time>
      </trkpt>
      <trkpt lat="59.9518498" lon="17.6687173">
        <ele>22.2476</ele>
        <time>2013-04-20T19:42:38Z</time>
      </trkpt>
      <trkpt lat="59.9518647" lon="17.6688599">
        <ele>22.2476</ele>
        <time>2013-04-20T19:42:39Z</time>
      </trkpt>
      <trkpt lat="59.9518689" lon="17.6690027">
        <ele>22.2476</ele>
        <time>2013-04-20T19:42:40Z</time>
      </trkpt>
      <trkpt lat="59.9518645" lon="17.6691406">
        <ele>22.2476</ele>
        <time>2013-04-20T19:42:41Z</time>
      </trkpt>
      <trkpt lat="59.9518566" lon="17.6692739">
        <ele>22.2476</ele>
        <time>2013-04-20T19:42:42Z</time>
      </trkpt>
      <trkpt lat="59.9518478" lon="17.6694044">
        <ele>21.767</ele>
        <time>2013-04-20T19:42:43Z</time>
      </trkpt>
      <trkpt lat="59.9518383" lon="17.6695346">
        <ele>21.767</ele>
        <time>2013-04-20T19:42:44Z</time>
      </trkpt>
      <trkpt lat="59.9518289" lon="17.6696683">
        <ele>21.767</ele>
        <time>2013-04-20T19:42:45Z</time>
      </trkpt>
      <trkpt lat="59.9518201" lon="17.6698058">
        <ele>21.767</ele>
        <time>2013-04-20T19:42:46Z</time>
      </trkpt>
      <trkpt lat="59.9518116" lon="17.669945">
        <ele>21.2864</ele>
        <time>2013-04-20T19:42:47Z</time>
      </trkpt>
      <trkpt lat="59.951803" lon="17.6700841">
        <ele>21.767</ele>
        <time>2013-04-20T19:42:48Z</time>
      </trkpt>
      <trkpt lat="59.9517929" lon="17.6702233">
        <ele>21.767</ele>
        <time>2013-04-20T19:42:49Z</time>
      </trkpt>
      <trkpt lat="59.9517815" lon="17.6703625">
        <ele>21.2864</ele>
        <time>2013-04-20T19:42:50Z</time>
      </trkpt>
      <trkpt lat="59.9517689" lon="17.6705023">
        <ele>21.2864</ele>
        <time>2013-04-20T19:42:51Z</time>
      </trkpt>
      <trkpt lat="59.9517577" lon="17.6706424">
        <ele>21.767</ele>
        <time>2013-04-20T19:42:52Z</time>
      </trkpt>
      <trkpt lat="59.9517505" lon="17.6707832">
        <ele>21.767</ele>
        <time>2013-04-20T19:42:53Z</time>
      </trkpt>
      <trkpt lat="59.9517493" lon="17.6709219">
        <ele>22.2476</ele>
        <time>2013-04-20T19:42:54Z</time>
      </trkpt>
      <trkpt lat="59.9517569" lon="17.671056">
        <ele>22.7283</ele>
        <time>2013-04-20T19:42:55Z</time>
      </trkpt>
      <trkpt lat="59.9517732" lon="17.6711833">
        <ele>23.209</ele>
        <time>2013-04-20T19:42:56Z</time>
      </trkpt>
      <trkpt lat="59.9517954" lon="17.6713012">
        <ele>23.209</ele>
        <time>2013-04-20T19:42:57Z</time>
      </trkpt>
      <trkpt lat="59.9518165" lon="17.6714142">
        <ele>24.1703</ele>
        <time>2013-04-20T19:42:58Z</time>
      </trkpt>
      <trkpt lat="59.9518079" lon="17.6715391">
        <ele>24.651</ele>
        <time>2013-04-20T19:42:59Z</time>
      </trkpt>
      <trkpt lat="59.9517989" lon="17.6716583">
        <ele>25.1317</ele>
        <time>2013-04-20T19:43:00Z</time>
      </trkpt>
      <trkpt lat="59.9517949" lon="17.6717627">
        <ele>25.1317</ele>
        <time>2013-04-20T19:43:01Z</time>
      </trkpt>
      <trkpt lat="59.9517912" lon="17.6718722">
        <ele>25.6123</ele>
        <time>2013-04-20T19:43:02Z</time>
      </trkpt>
      <trkpt lat="59.9517954" lon="17.6719814">
        <ele>26.0929</ele>
        <time>2013-04-20T19:43:03Z</time>
      </trkpt>
      <trkpt lat="59.9518054" lon="17.6720907">
        <ele>26.0929</ele>
        <time>2013-04-20T19:43:04Z</time>
      </trkpt>
      <trkpt lat="59.9518172" lon="17.6722042">
        <ele>26.5736</ele>
        <time>2013-04-20T19:43:05Z</time>
      </trkpt>
      <trkpt lat="59.9518276" lon="17.6723233">
        <ele>27.0543</ele>
        <time>2013-04-20T19:43:06Z</time>
      </trkpt>
      <trkpt lat="59.9518385" lon="17.6724409">
        <ele>27.0543</ele>
        <time>2013-04-20T19:43:07Z</time>
      </trkpt>
      <trkpt lat="59.9518505" lon="17.6725558">
        <ele>27.5349</ele>
        <time>2013-04-20T19:43:08Z</time>
      </trkpt>
      <trkpt lat="59.9518642" lon="17.67267">
        <ele>28.0155</ele>
        <time>2013-04-20T19:43:09Z</time>
      </trkpt>
      <trkpt lat="59.9518789" lon="17.6727808">
        <ele>28.4962</ele>
        <time>2013-04-20T19:43:10Z</time>
      </trkpt>
      <trkpt lat="59.9518929" lon="17.6728919">
        <ele>28.4962</ele>
        <time>2013-04-20T19:43:11Z</time>
      </trkpt>
      <trkpt lat="59.9519073" lon="17.6730045">
        <ele>28.9769</ele>
        <time>2013-04-20T19:43:12Z</time>
      </trkpt>
      <trkpt lat="59.9519229" lon="17.6731159">
        <ele>28.9769</ele>
        <time>2013-04-20T19:43:13Z</time>
      </trkpt>
      <trkpt lat="59.9519414" lon="17.6732275">
        <ele>29.4575</ele>
        <time>2013-04-20T19:43:14Z</time>
      </trkpt>
      <trkpt lat="59.951961" lon="17.6733403">
        <ele>29.4575</ele>
        <time>2013-04-20T19:43:15Z</time>
      </trkpt>
      <trkpt lat="59.9519799" lon="17.6734531">
        <ele>29.9381</ele>
        <time>2013-04-20T19:43:16Z</time>
      </trkpt>
      <trkpt lat="59.9519981" lon="17.6735665">
        <ele>29.9381</ele>
        <time>2013-04-20T19:43:17Z</time>
      </trkpt>
      <trkpt lat="59.9520186" lon="17.6736757">
        <ele>30.4188</ele>
        <time>2013-04-20T19:43:18Z</time>
      </trkpt>
      <trkpt lat="59.9520394" lon="17.673781">
        <ele>30.4188</ele>
        <time>2013-04-20T19:43:19Z</time>
      </trkpt>
      <trkpt lat="59.9520581" lon="17.6738861">
        <ele>30.8995</ele>
        <time>2013-04-20T19:43:20Z</time>
      </trkpt>
      <trkpt lat="59.9520757" lon="17.6739885">
        <ele>30.8995</ele>
        <time>2013-04-20T19:43:21Z</time>
      </trkpt>
      <trkpt lat="59.9520953" lon="17.6740869">
        <ele>31.3801</ele>
        <time>2013-04-20T19:43:22Z</time>
      </trkpt>
      <trkpt lat="59.9521161" lon="17.6741819">
        <ele>31.8607</ele>
        <time>2013-04-20T19:43:23Z</time>
      </trkpt>
      <trkpt lat="59.9521361" lon="17.674277">
        <ele>31.8607</ele>
        <time>2013-04-20T19:43:24Z</time>
      </trkpt>
      <trkpt lat="59.9521555" lon="17.6743734">
        <ele>31.8607</ele>
        <time>2013-04-20T19:43:25Z</time>
      </trkpt>
      <trkpt lat="59.9521748" lon="17.6744698">
        <ele>32.3416</ele>
        <time>2013-04-20T19:43:26Z</time>
      </trkpt>
      <trkpt lat="59.9521943" lon="17.6745653">
        <ele>32.8223</ele>
        <time>2013-04-20T19:43:27Z</time>
      </trkpt>
      <trkpt lat="59.9522117" lon="17.6746585">
        <ele>33.3029</ele>
        <time>2013-04-20T19:43:28Z</time>
      </trkpt>
      <trkpt lat="59.9522255" lon="17.6747475">
        <ele>33.7834</ele>
        <time>2013-04-20T19:43:29Z</time>
      </trkpt>
      <trkpt lat="59.9522371" lon="17.67483">
        <ele>34.2642</ele>
        <time>2013-04-20T19:43:30Z</time>
      </trkpt>
      <trkpt lat="59.9522493" lon="17.6749057">
        <ele>34.7449</ele>
        <time>2013-04-20T19:43:31Z</time>
      </trkpt>
      <trkpt lat="59.9522626" lon="17.674974">
        <ele>35.2255</ele>
        <time>2013-04-20T19:43:32Z</time>
      </trkpt>
      <trkpt lat="59.952276" lon="17.6750388">
        <ele>35.7061</ele>
        <time>2013-04-20T19:43:33Z</time>
      </trkpt>
      <trkpt lat="59.9522908" lon="17.6751029">
        <ele>36.1868</ele>
        <time>2013-04-20T19:43:34Z</time>
      </trkpt>
      <trkpt lat="59.9523062" lon="17.6751687">
        <ele>36.1868</ele>
        <time>2013-04-20T19:43:35Z</time>
      </trkpt>
      <trkpt lat="59.9523241" lon="17.6752341">
        <ele>35.7061</ele>
        <time>2013-04-20T19:43:36Z</time>
      </trkpt>
      <trkpt lat="59.9523455" lon="17.6752998">
        <ele>34.7449</ele>
        <time>2013-04-20T19:43:37Z</time>
      </trkpt>
      <trkpt lat="59.9523704" lon="17.6753671">
        <ele>34.7449</ele>
        <time>2013-04-20T19:43:38Z</time>
      </trkpt>
      <trkpt lat="59.9523969" lon="17.6754407">
        <ele>34.2642</ele>
        <time>2013-04-20T19:43:39Z</time>
      </trkpt>
      <trkpt lat="59.9524259" lon="17.6755164">
        <ele>34.2642</ele>
        <time>2013-04-20T19:43:40Z</time>
      </trkpt>
      <trkpt lat="59.9524588" lon="17.6755936">
        <ele>34.2642</ele>
        <time>2013-04-20T19:43:41Z</time>
      </trkpt>
      <trkpt lat="59.9524938" lon="17.6756767">
        <ele>34.2642</ele>
        <time>2013-04-20T19:43:42Z</time>
      </trkpt>
      <trkpt lat="59.952531" lon="17.6757659">
        <ele>33.7834</ele>
        <time>2013-04-20T19:43:43Z</time>
      </trkpt>
      <trkpt lat="59.9525693" lon="17.6758598">
        <ele>33.7834</ele>
        <time>2013-04-20T19:43:44Z</time>
      </trkpt>
      <trkpt lat="59.9526082" lon="17.6759593">
        <ele>33.7834</ele>
        <time>2013-04-20T19:43:45Z</time>
      </trkpt>
      <trkpt lat="59.9526461" lon="17.6760638">
        <ele>33.7834</ele>
        <time>2013-04-20T19:43:46Z</time>
      </trkpt>
      <trkpt lat="59.9526838" lon="17.6761719">
        <ele>33.7834</ele>
        <time>2013-04-20T19:43:47Z</time>
      </trkpt>
      <trkpt lat="59.9527221" lon="17.6762814">
        <ele>33.7834</ele>
        <time>2013-04-20T19:43:48Z</time>
      </trkpt>
      <trkpt lat="59.9527603" lon="17.6763901">
        <ele>33.7834</ele>
        <time>2013-04-20T19:43:49Z</time>
      </trkpt>
      <trkpt lat="59.9528003" lon="17.6764952">
        <ele>33.3029</ele>
        <time>2013-04-20T19:43:50Z</time>
      </trkpt>
      <trkpt lat="59.9528439" lon="17.6765982">
        <ele>33.3029</ele>
        <time>2013-04-20T19:43:51Z</time>
      </trkpt>
      <trkpt lat="59.9528896" lon="17.6767041">
        <ele>33.3029</ele>
        <time>2013-04-20T19:43:52Z</time>
      </trkpt>
      <trkpt lat="59.952934" lon="17.6768137">
        <ele>33.3029</ele>
        <time>2013-04-20T19:43:53Z</time>
      </trkpt>
      <trkpt lat="59.9529764" lon="17.6769247">
        <ele>33.3029</ele>
        <time>2013-04-20T19:43:54Z</time>
      </trkpt>
      <trkpt lat="59.9530164" lon="17.6770372">
        <ele>31.8607</ele>
        <time>2013-04-20T19:43:55Z</time>
      </trkpt>
      <trkpt lat="59.9530593" lon="17.677146">
        <ele>31.3801</ele>
        <time>2013-04-20T19:43:56Z</time>
      </trkpt>
      <trkpt lat="59.9531024" lon="17.6772537">
        <ele>31.3801</ele>
        <time>2013-04-20T19:43:57Z</time>
      </trkpt>
      <trkpt lat="59.9531428" lon="17.6773641">
        <ele>31.3801</ele>
        <time>2013-04-20T19:43:58Z</time>
      </trkpt>
      <trkpt lat="59.9531807" lon="17.6774765">
        <ele>30.8995</ele>
        <time>2013-04-20T19:43:59Z</time>
      </trkpt>
      <trkpt lat="59.95322" lon="17.6775897">
        <ele>30.8995</ele>
        <time>2013-04-20T19:44:00Z</time>
      </trkpt>
      <trkpt lat="59.9532586" lon="17.6777034">
        <ele>29.9381</ele>
        <time>2013-04-20T19:44:01Z</time>
      </trkpt>
      <trkpt lat="59.9532978" lon="17.6778179">
        <ele>29.9381</ele>
        <time>2013-04-20T19:44:02Z</time>
      </trkpt>
      <trkpt lat="59.9533349" lon="17.6779379">
        <ele>29.4575</ele>
        <time>2013-04-20T19:44:03Z</time>
      </trkpt>
      <trkpt lat="59.9533698" lon="17.6780603">
        <ele>28.9769</ele>
        <time>2013-04-20T19:44:04Z</time>
      </trkpt>
      <trkpt lat="59.9534052" lon="17.6781792">
        <ele>28.4962</ele>
        <time>2013-04-20T19:44:05Z</time>
      </trkpt>
      <trkpt lat="59.9534427" lon="17.6782964">
        <ele>28.0155</ele>
        <time>2013-04-20T19:44:06Z</time>
      </trkpt>
      <trkpt lat="59.9534795" lon="17.6784135">
        <ele>28.0155</ele>
        <time>2013-04-20T19:44:07Z</time>
      </trkpt>
      <trkpt lat="59.9535177" lon="17.6785316">
        <ele>26.0929</ele>
        <time>2013-04-20T19:44:08Z</time>
      </trkpt>
      <trkpt lat="59.9535618" lon="17.6786485">
        <ele>26.0929</ele>
        <time>2013-04-20T19:44:09Z</time>
      </trkpt>
      <trkpt lat="59.9536033" lon="17.6787697">
        <ele>25.6123</ele>
        <time>2013-04-20T19:44:10Z</time>
      </trkpt>
      <trkpt lat="59.9536422" lon="17.6788915">
        <ele>25.6123</ele>
        <time>2013-04-20T19:44:11Z</time>
      </trkpt>
      <trkpt lat="59.9536821" lon="17.6790139">
        <ele>25.1317</ele>
        <time>2013-04-20T19:44:12Z</time>
      </trkpt>
      <trkpt lat="59.9537235" lon="17.6791377">
        <ele>25.1317</ele>
        <time>2013-04-20T19:44:13Z</time>
      </trkpt>
      <trkpt lat="59.9537658" lon="17.6792624">
        <ele>25.1317</ele>
        <time>2013-04-20T19:44:14Z</time>
      </trkpt>
      <trkpt lat="59.9538077" lon="17.6793869">
        <ele>25.1317</ele>
        <time>2013-04-20T19:44:15Z</time>
      </trkpt>
      <trkpt lat="59.9538525" lon="17.6795121">
        <ele>25.6123</ele>
        <time>2013-04-20T19:44:16Z</time>
      </trkpt>
      <trkpt lat="59.953895" lon="17.679637">
        <ele>26.0929</ele>
        <time>2013-04-20T19:44:17Z</time>
      </trkpt>
      <trkpt lat="59.9539365" lon="17.6797666">
        <ele>26.0929</ele>
        <time>2013-04-20T19:44:18Z</time>
      </trkpt>
      <trkpt lat="59.9539784" lon="17.6798962">
        <ele>25.6123</ele>
        <time>2013-04-20T19:44:19Z</time>
      </trkpt>
      <trkpt lat="59.9540206" lon="17.6800241">
        <ele>25.6123</ele>
        <time>2013-04-20T19:44:20Z</time>
      </trkpt>
      <trkpt lat="59.9540616" lon="17.6801473">
        <ele>25.6123</ele>
        <time>2013-04-20T19:44:21Z</time>
      </trkpt>
      <trkpt lat="59.9541032" lon="17.6802664">
        <ele>25.6123</ele>
        <time>2013-04-20T19:44:22Z</time>
      </trkpt>
      <trkpt lat="59.954146" lon="17.6803815">
        <ele>26.0929</ele>
        <time>2013-04-20T19:44:23Z</time>
      </trkpt>
      <trkpt lat="59.954188" lon="17.6804963">
        <ele>26.0929</ele>
        <time>2013-04-20T19:44:24Z</time>
      </trkpt>
      <trkpt lat="59.9542294" lon="17.6806123">
        <ele>26.0929</ele>
        <time>2013-04-20T19:44:25Z</time>
      </trkpt>
      <trkpt lat="59.954269" lon="17.6807292">
        <ele>26.5736</ele>
        <time>2013-04-20T19:44:26Z</time>
      </trkpt>
      <trkpt lat="59.9543069" lon="17.6808473">
        <ele>26.5736</ele>
        <time>2013-04-20T19:44:27Z</time>
      </trkpt>
      <trkpt lat="59.9543456" lon="17.68096">
        <ele>26.0929</ele>
        <time>2013-04-20T19:44:28Z</time>
      </trkpt>
      <trkpt lat="59.954391" lon="17.6810549">
        <ele>26.0929</ele>
        <time>2013-04-20T19:44:29Z</time>
      </trkpt>
      <trkpt lat="59.9544425" lon="17.6811277">
        <ele>26.5736</ele>
        <time>2013-04-20T19:44:30Z</time>
      </trkpt>
      <trkpt lat="59.9544934" lon="17.6811948">
        <ele>26.5736</ele>
        <time>2013-04-20T19:44:31Z</time>
      </trkpt>
      <trkpt lat="59.9545404" lon="17.6812726">
        <ele>26.5736</ele>
        <time>2013-04-20T19:44:32Z</time>
      </trkpt>
      <trkpt lat="59.9545844" lon="17.681359">
        <ele>26.5736</ele>
        <time>2013-04-20T19:44:33Z</time>
      </trkpt>
      <trkpt lat="59.9546263" lon="17.6814525">
        <ele>26.5736</ele>
        <time>2013-04-20T19:44:34Z</time>
      </trkpt>
      <trkpt lat="59.9546648" lon="17.6815509">
        <ele>26.5736</ele>
        <time>2013-04-20T19:44:35Z</time>
      </trkpt>
      <trkpt lat="59.9547011" lon="17.6816501">
        <ele>27.0543</ele>
        <time>2013-04-20T19:44:36Z</time>
      </trkpt>
      <trkpt lat="59.9547372" lon="17.681748">
        <ele>27.0543</ele>
        <time>2013-04-20T19:44:37Z</time>
      </trkpt>
      <trkpt lat="59.9547735" lon="17.6818464">
        <ele>27.0543</ele>
        <time>2013-04-20T19:44:38Z</time>
      </trkpt>
      <trkpt lat="59.9548087" lon="17.681947">
        <ele>26.5736</ele>
        <time>2013-04-20T19:44:39Z</time>
      </trkpt>
      <trkpt lat="59.954844" lon="17.6820499">
        <ele>26.5736</ele>
        <time>2013-04-20T19:44:40Z</time>
      </trkpt>
      <trkpt lat="59.9548787" lon="17.6821523">
        <ele>26.5736</ele>
        <time>2013-04-20T19:44:41Z</time>
      </trkpt>
      <trkpt lat="59.9549123" lon="17.6822598">
        <ele>26.5736</ele>
        <time>2013-04-20T19:44:42Z</time>
      </trkpt>
      <trkpt lat="59.9549458" lon="17.6823675">
        <ele>26.5736</ele>
        <time>2013-04-20T19:44:43Z</time>
      </trkpt>
      <trkpt lat="59.9549779" lon="17.6824747">
        <ele>26.5736</ele>
        <time>2013-04-20T19:44:44Z</time>
      </trkpt>
      <trkpt lat="59.9550091" lon="17.6825835">
        <ele>26.0929</ele>
        <time>2013-04-20T19:44:45Z</time>
      </trkpt>
      <trkpt lat="59.9550401" lon="17.6826913">
        <ele>26.0929</ele>
        <time>2013-04-20T19:44:46Z</time>
      </trkpt>
      <trkpt lat="59.9550719" lon="17.6828011">
        <ele>26.0929</ele>
        <time>2013-04-20T19:44:47Z</time>
      </trkpt>
      <trkpt lat="59.9551034" lon="17.6829151">
        <ele>26.5736</ele>
        <time>2013-04-20T19:44:48Z</time>
      </trkpt>
      <trkpt lat="59.9551351" lon="17.6830278">
        <ele>27.0543</ele>
        <time>2013-04-20T19:44:49Z</time>
      </trkpt>
      <trkpt lat="59.9551665" lon="17.6831415">
        <ele>27.5349</ele>
        <time>2013-04-20T19:44:50Z</time>
      </trkpt>
      <trkpt lat="59.9551972" lon="17.6832555">
        <ele>28.0155</ele>
        <time>2013-04-20T19:44:51Z</time>
      </trkpt>
      <trkpt lat="59.955224" lon="17.6833697">
        <ele>28.0155</ele>
        <time>2013-04-20T19:44:52Z</time>
      </trkpt>
      <trkpt lat="59.9552521" lon="17.6834843">
        <ele>28.0155</ele>
        <time>2013-04-20T19:44:53Z</time>
      </trkpt>
      <trkpt lat="59.9552789" lon="17.6836004">
        <ele>28.0155</ele>
        <time>2013-04-20T19:44:54Z</time>
      </trkpt>
      <trkpt lat="59.9553046" lon="17.6837181">
        <ele>28.0155</ele>
        <time>2013-04-20T19:44:55Z</time>
      </trkpt>
      <trkpt lat="59.9553266" lon="17.6838356">
        <ele>28.0155</ele>
        <time>2013-04-20T19:44:56Z</time>
      </trkpt>
      <trkpt lat="59.9553512" lon="17.6839543">
        <ele>28.0155</ele>
        <time>2013-04-20T19:44:57Z</time>
      </trkpt>
      <trkpt lat="59.9553744" lon="17.6840738">
        <ele>28.0155</ele>
        <time>2013-04-20T19:44:58Z</time>
      </trkpt>
      <trkpt lat="59.9553975" lon="17.6841944">
        <ele>28.4962</ele>
        <time>2013-04-20T19:44:59Z</time>
      </trkpt>
      <trkpt lat="59.9554203" lon="17.684315">
        <ele>28.4962</ele>
        <time>2013-04-20T19:45:00Z</time>
      </trkpt>
      <trkpt lat="59.9554446" lon="17.684435">
        <ele>28.9769</ele>
        <time>2013-04-20T19:45:01Z</time>
      </trkpt>
      <trkpt lat="59.9554662" lon="17.6845564">
        <ele>28.9769</ele>
        <time>2013-04-20T19:45:02Z</time>
      </trkpt>
      <trkpt lat="59.9554858" lon="17.6846824">
        <ele>28.9769</ele>
        <time>2013-04-20T19:45:03Z</time>
      </trkpt>
      <trkpt lat="59.9555053" lon="17.6848084">
        <ele>28.9769</ele>
        <time>2013-04-20T19:45:04Z</time>
      </trkpt>
      <trkpt lat="59.9555263" lon="17.6849322">
        <ele>29.4575</ele>
        <time>2013-04-20T19:45:05Z</time>
      </trkpt>
      <trkpt lat="59.9555441" lon="17.6850544">
        <ele>28.4962</ele>
        <time>2013-04-20T19:45:06Z</time>
      </trkpt>
      <trkpt lat="59.9555622" lon="17.6851781">
        <ele>27.5349</ele>
        <time>2013-04-20T19:45:07Z</time>
      </trkpt>
      <trkpt lat="59.9555801" lon="17.6853018">
        <ele>26.5736</ele>
        <time>2013-04-20T19:45:08Z</time>
      </trkpt>
      <trkpt lat="59.9556008" lon="17.685427">
        <ele>27.0543</ele>
        <time>2013-04-20T19:45:09Z</time>
      </trkpt>
      <trkpt lat="59.9556192" lon="17.6855517">
        <ele>26.5736</ele>
        <time>2013-04-20T19:45:10Z</time>
      </trkpt>
      <trkpt lat="59.9556382" lon="17.6856789">
        <ele>26.5736</ele>
        <time>2013-04-20T19:45:11Z</time>
      </trkpt>
      <trkpt lat="59.9556581" lon="17.6858039">
        <ele>27.0543</ele>
        <time>2013-04-20T19:45:12Z</time>
      </trkpt>
      <trkpt lat="59.9556774" lon="17.6859255">
        <ele>26.5736</ele>
        <time>2013-04-20T19:45:13Z</time>
      </trkpt>
      <trkpt lat="59.9556966" lon="17.6860459">
        <ele>26.5736</ele>
        <time>2013-04-20T19:45:14Z</time>
      </trkpt>
      <trkpt lat="59.9557158" lon="17.6861651">
        <ele>26.5736</ele>
        <time>2013-04-20T19:45:15Z</time>
      </trkpt>
      <trkpt lat="59.955733" lon="17.6862903">
        <ele>26.5736</ele>
        <time>2013-04-20T19:45:16Z</time>
      </trkpt>
      <trkpt lat="59.9557499" lon="17.6864121">
        <ele>26.5736</ele>
        <time>2013-04-20T19:45:17Z</time>
      </trkpt>
      <trkpt lat="59.9557673" lon="17.686534">
        <ele>26.5736</ele>
        <time>2013-04-20T19:45:18Z</time>
      </trkpt>
      <trkpt lat="59.9557852" lon="17.6866521">
        <ele>26.5736</ele>
        <time>2013-04-20T19:45:19Z</time>
      </trkpt>
      <trkpt lat="59.9558041" lon="17.6867695">
        <ele>26.5736</ele>
        <time>2013-04-20T19:45:20Z</time>
      </trkpt>
      <trkpt lat="59.9558229" lon="17.6868857">
        <ele>26.5736</ele>
        <time>2013-04-20T19:45:21Z</time>
      </trkpt>
      <trkpt lat="59.9558396" lon="17.6870053">
        <ele>26.5736</ele>
        <time>2013-04-20T19:45:22Z</time>
      </trkpt>
      <trkpt lat="59.9558556" lon="17.6871253">
        <ele>26.5736</ele>
        <time>2013-04-20T19:45:23Z</time>
      </trkpt>
      <trkpt lat="59.9558738" lon="17.6872435">
        <ele>27.0543</ele>
        <time>2013-04-20T19:45:24Z</time>
      </trkpt>
      <trkpt lat="59.9558929" lon="17.6873615">
        <ele>27.0543</ele>
        <time>2013-04-20T19:45:25Z</time>
      </trkpt>
      <trkpt lat="59.955911" lon="17.6874852">
        <ele>27.0543</ele>
        <time>2013-04-20T19:45:26Z</time>
      </trkpt>
      <trkpt lat="59.9559292" lon="17.6876077">
        <ele>27.0543</ele>
        <time>2013-04-20T19:45:27Z</time>
      </trkpt>
      <trkpt lat="59.9559478" lon="17.6877289">
        <ele>26.5736</ele>
        <time>2013-04-20T19:45:28Z</time>
      </trkpt>
      <trkpt lat="59.9559669" lon="17.6878496">
        <ele>27.0543</ele>
        <time>2013-04-20T19:45:29Z</time>
      </trkpt>
      <trkpt lat="59.9559858" lon="17.6879703">
        <ele>26.5736</ele>
        <time>2013-04-20T19:45:30Z</time>
      </trkpt>
      <trkpt lat="59.9560053" lon="17.6880906">
        <ele>26.5736</ele>
        <time>2013-04-20T19:45:31Z</time>
      </trkpt>
      <trkpt lat="59.9560254" lon="17.6882115">
        <ele>27.0543</ele>
        <time>2013-04-20T19:45:32Z</time>
      </trkpt>
      <trkpt lat="59.956046" lon="17.6883288">
        <ele>27.5349</ele>
        <time>2013-04-20T19:45:33Z</time>
      </trkpt>
      <trkpt lat="59.9560673" lon="17.6884468">
        <ele>28.0155</ele>
        <time>2013-04-20T19:45:34Z</time>
      </trkpt>
      <trkpt lat="59.9560885" lon="17.6885671">
        <ele>28.0155</ele>
        <time>2013-04-20T19:45:35Z</time>
      </trkpt>
      <trkpt lat="59.9561094" lon="17.6886881">
        <ele>28.0155</ele>
        <time>2013-04-20T19:45:36Z</time>
      </trkpt>
      <trkpt lat="59.9561311" lon="17.6888091">
        <ele>28.4962</ele>
        <time>2013-04-20T19:45:37Z</time>
      </trkpt>
      <trkpt lat="59.9561535" lon="17.6889302">
        <ele>28.4962</ele>
        <time>2013-04-20T19:45:38Z</time>
      </trkpt>
      <trkpt lat="59.9561774" lon="17.6890496">
        <ele>28.9769</ele>
        <time>2013-04-20T19:45:39Z</time>
      </trkpt>
      <trkpt lat="59.9562014" lon="17.6891709">
        <ele>28.9769</ele>
        <time>2013-04-20T19:45:40Z</time>
      </trkpt>
      <trkpt lat="59.9562245" lon="17.6892918">
        <ele>29.4575</ele>
        <time>2013-04-20T19:45:41Z</time>
      </trkpt>
      <trkpt lat="59.9562476" lon="17.6894107">
        <ele>29.4575</ele>
        <time>2013-04-20T19:45:42Z</time>
      </trkpt>
      <trkpt lat="59.9562724" lon="17.6895249">
        <ele>29.9381</ele>
        <time>2013-04-20T19:45:43Z</time>
      </trkpt>
      <trkpt lat="59.956297" lon="17.6896399">
        <ele>29.4575</ele>
        <time>2013-04-20T19:45:44Z</time>
      </trkpt>
      <trkpt lat="59.9563219" lon="17.6897529">
        <ele>29.9381</ele>
        <time>2013-04-20T19:45:45Z</time>
      </trkpt>
      <trkpt lat="59.9563481" lon="17.6898665">
        <ele>28.9769</ele>
        <time>2013-04-20T19:45:46Z</time>
      </trkpt>
      <trkpt lat="59.9563753" lon="17.6899745">
        <ele>27.5349</ele>
        <time>2013-04-20T19:45:47Z</time>
      </trkpt>
      <trkpt lat="59.9564045" lon="17.6900751">
        <ele>27.0543</ele>
        <time>2013-04-20T19:45:48Z</time>
      </trkpt>
      <trkpt lat="59.9564353" lon="17.6901656">
        <ele>27.0543</ele>
        <time>2013-04-20T19:45:49Z</time>
      </trkpt>
      <trkpt lat="59.9564649" lon="17.6902547">
        <ele>25.6123</ele>
        <time>2013-04-20T19:45:50Z</time>
      </trkpt>
      <trkpt lat="59.9564957" lon="17.6903571">
        <ele>24.1703</ele>
        <time>2013-04-20T19:45:51Z</time>
      </trkpt>
      <trkpt lat="59.9565301" lon="17.6904592">
        <ele>23.6896</ele>
        <time>2013-04-20T19:45:52Z</time>
      </trkpt>
      <trkpt lat="59.9565668" lon="17.6905571">
        <ele>24.1703</ele>
        <time>2013-04-20T19:45:53Z</time>
      </trkpt>
      <trkpt lat="59.956606" lon="17.6906609">
        <ele>24.651</ele>
        <time>2013-04-20T19:45:54Z</time>
      </trkpt>
      <trkpt lat="59.9566457" lon="17.6907729">
        <ele>24.1703</ele>
        <time>2013-04-20T19:45:55Z</time>
      </trkpt>
      <trkpt lat="59.9566868" lon="17.6908861">
        <ele>24.1703</ele>
        <time>2013-04-20T19:45:56Z</time>
      </trkpt>
      <trkpt lat="59.956727" lon="17.6910026">
        <ele>23.6896</ele>
        <time>2013-04-20T19:45:57Z</time>
      </trkpt>
      <trkpt lat="59.9567667" lon="17.691123">
        <ele>23.6896</ele>
        <time>2013-04-20T19:45:58Z</time>
      </trkpt>
      <trkpt lat="59.9568066" lon="17.6912488">
        <ele>23.6896</ele>
        <time>2013-04-20T19:45:59Z</time>
      </trkpt>
      <trkpt lat="59.9568481" lon="17.6913782">
        <ele>24.1703</ele>
        <time>2013-04-20T19:46:00Z</time>
      </trkpt>
      <trkpt lat="59.9568917" lon="17.6915102">
        <ele>24.1703</ele>
        <time>2013-04-20T19:46:01Z</time>
      </trkpt>
      <trkpt lat="59.9569362" lon="17.6916425">
        <ele>24.1703</ele>
        <time>2013-04-20T19:46:02Z</time>
      </trkpt>
      <trkpt lat="59.9569813" lon="17.6917736">
        <ele>24.651</ele>
        <time>2013-04-20T19:46:03Z</time>
      </trkpt>
      <trkpt lat="59.9570264" lon="17.6919051">
        <ele>24.651</ele>
        <time>2013-04-20T19:46:04Z</time>
      </trkpt>
      <trkpt lat="59.9570714" lon="17.6920341">
        <ele>25.1317</ele>
        <time>2013-04-20T19:46:05Z</time>
      </trkpt>
      <trkpt lat="59.957115" lon="17.6921651">
        <ele>25.1317</ele>
        <time>2013-04-20T19:46:06Z</time>
      </trkpt>
      <trkpt lat="59.9571609" lon="17.6922952">
        <ele>25.1317</ele>
        <time>2013-04-20T19:46:07Z</time>
      </trkpt>
      <trkpt lat="59.9572087" lon="17.6924215">
        <ele>25.6123</ele>
        <time>2013-04-20T19:46:08Z</time>
      </trkpt>
      <trkpt lat="59.9572547" lon="17.6925485">
        <ele>26.0929</ele>
        <time>2013-04-20T19:46:09Z</time>
      </trkpt>
      <trkpt lat="59.9572991" lon="17.6926778">
        <ele>26.0929</ele>
        <time>2013-04-20T19:46:10Z</time>
      </trkpt>
      <trkpt lat="59.9573439" lon="17.6928185">
        <ele>26.0929</ele>
        <time>2013-04-20T19:46:11Z</time>
      </trkpt>
      <trkpt lat="59.9573899" lon="17.6929513">
        <ele>26.5736</ele>
        <time>2013-04-20T19:46:12Z</time>
      </trkpt>
      <trkpt lat="59.9574353" lon="17.6930836">
        <ele>26.5736</ele>
        <time>2013-04-20T19:46:13Z</time>
      </trkpt>
      <trkpt lat="59.9574791" lon="17.6932171">
        <ele>26.5736</ele>
        <time>2013-04-20T19:46:14Z</time>
      </trkpt>
      <trkpt lat="59.9575236" lon="17.6933486">
        <ele>26.5736</ele>
        <time>2013-04-20T19:46:15Z</time>
      </trkpt>
      <trkpt lat="59.9575687" lon="17.6934774">
        <ele>27.0543</ele>
        <time>2013-04-20T19:46:16Z</time>
      </trkpt>
      <trkpt lat="59.9576175" lon="17.6936109">
        <ele>27.0543</ele>
        <time>2013-04-20T19:46:17Z</time>
      </trkpt>
      <trkpt lat="59.9576655" lon="17.6937425">
        <ele>27.5349</ele>
        <time>2013-04-20T19:46:18Z</time>
      </trkpt>
      <trkpt lat="59.9577104" lon="17.6938702">
        <ele>27.5349</ele>
        <time>2013-04-20T19:46:19Z</time>
      </trkpt>
      <trkpt lat="59.9577473" lon="17.694013">
        <ele>27.5349</ele>
        <time>2013-04-20T19:46:20Z</time>
      </trkpt>
      <trkpt lat="59.9577892" lon="17.6941381">
        <ele>27.5349</ele>
        <time>2013-04-20T19:46:21Z</time>
      </trkpt>
      <trkpt lat="59.9578322" lon="17.6942582">
        <ele>28.0155</ele>
        <time>2013-04-20T19:46:22Z</time>
      </trkpt>
      <trkpt lat="59.9578799" lon="17.6943823">
        <ele>28.0155</ele>
        <time>2013-04-20T19:46:23Z</time>
      </trkpt>
      <trkpt lat="59.9579271" lon="17.6945098">
        <ele>28.4962</ele>
        <time>2013-04-20T19:46:24Z</time>
      </trkpt>
      <trkpt lat="59.9579691" lon="17.6946305">
        <ele>28.4962</ele>
        <time>2013-04-20T19:46:25Z</time>
      </trkpt>
      <trkpt lat="59.9580095" lon="17.6947503">
        <ele>28.9769</ele>
        <time>2013-04-20T19:46:26Z</time>
      </trkpt>
      <trkpt lat="59.9580513" lon="17.6948687">
        <ele>28.9769</ele>
        <time>2013-04-20T19:46:27Z</time>
      </trkpt>
      <trkpt lat="59.9580945" lon="17.6949857">
        <ele>29.4575</ele>
        <time>2013-04-20T19:46:28Z</time>
      </trkpt>
      <trkpt lat="59.9581384" lon="17.695105">
        <ele>29.4575</ele>
        <time>2013-04-20T19:46:29Z</time>
      </trkpt>
      <trkpt lat="59.9581835" lon="17.6952235">
        <ele>29.9381</ele>
        <time>2013-04-20T19:46:30Z</time>
      </trkpt>
      <trkpt lat="59.9582292" lon="17.695341">
        <ele>29.9381</ele>
        <time>2013-04-20T19:46:31Z</time>
      </trkpt>
      <trkpt lat="59.9582752" lon="17.6954586">
        <ele>29.9381</ele>
        <time>2013-04-20T19:46:32Z</time>
      </trkpt>
      <trkpt lat="59.9583211" lon="17.6955762">
        <ele>29.9381</ele>
        <time>2013-04-20T19:46:33Z</time>
      </trkpt>
      <trkpt lat="59.9583684" lon="17.6956933">
        <ele>29.9381</ele>
        <time>2013-04-20T19:46:34Z</time>
      </trkpt>
      <trkpt lat="59.9584167" lon="17.6958091">
        <ele>29.9381</ele>
        <time>2013-04-20T19:46:35Z</time>
      </trkpt>
      <trkpt lat="59.9584641" lon="17.6959227">
        <ele>29.9381</ele>
        <time>2013-04-20T19:46:36Z</time>
      </trkpt>
      <trkpt lat="59.9585104" lon="17.6960355">
        <ele>29.9381</ele>
        <time>2013-04-20T19:46:37Z</time>
      </trkpt>
      <trkpt lat="59.9585563" lon="17.6961523">
        <ele>30.4188</ele>
        <time>2013-04-20T19:46:38Z</time>
      </trkpt>
      <trkpt lat="59.9586006" lon="17.6962837">
        <ele>29.9381</ele>
        <time>2013-04-20T19:46:39Z</time>
      </trkpt>
      <trkpt lat="59.958644" lon="17.6964092">
        <ele>29.9381</ele>
        <time>2013-04-20T19:46:40Z</time>
      </trkpt>
      <trkpt lat="59.958688" lon="17.6965351">
        <ele>29.9381</ele>
        <time>2013-04-20T19:46:41Z</time>
      </trkpt>
      <trkpt lat="59.9587302" lon="17.6966641">
        <ele>30.4188</ele>
        <time>2013-04-20T19:46:42Z</time>
      </trkpt>
      <trkpt lat="59.9587685" lon="17.6967985">
        <ele>30.4188</ele>
        <time>2013-04-20T19:46:43Z</time>
      </trkpt>
      <trkpt lat="59.9588019" lon="17.6969366">
        <ele>31.3801</ele>
        <time>2013-04-20T19:46:44Z</time>
      </trkpt>
      <trkpt lat="59.9588315" lon="17.6970784">
        <ele>31.3801</ele>
        <time>2013-04-20T19:46:45Z</time>
      </trkpt>
      <trkpt lat="59.9588601" lon="17.6972214">
        <ele>31.8607</ele>
        <time>2013-04-20T19:46:46Z</time>
      </trkpt>
      <trkpt lat="59.9588876" lon="17.6973632">
        <ele>32.3416</ele>
        <time>2013-04-20T19:46:47Z</time>
      </trkpt>
      <trkpt lat="59.9589108" lon="17.6975013">
        <ele>32.8223</ele>
        <time>2013-04-20T19:46:48Z</time>
      </trkpt>
      <trkpt lat="59.9589298" lon="17.6976374">
        <ele>32.8223</ele>
        <time>2013-04-20T19:46:49Z</time>
      </trkpt>
      <trkpt lat="59.9589477" lon="17.6977679">
        <ele>32.8223</ele>
        <time>2013-04-20T19:46:50Z</time>
      </trkpt>
      <trkpt lat="59.9589609" lon="17.6978933">
        <ele>33.3029</ele>
        <time>2013-04-20T19:46:51Z</time>
      </trkpt>
      <trkpt lat="59.9589697" lon="17.69801">
        <ele>31.3801</ele>
        <time>2013-04-20T19:46:52Z</time>
      </trkpt>
      <trkpt lat="59.9589792" lon="17.6981216">
        <ele>28.9769</ele>
        <time>2013-04-20T19:46:53Z</time>
      </trkpt>
      <trkpt lat="59.9589845" lon="17.6982419">
        <ele>28.4962</ele>
        <time>2013-04-20T19:46:54Z</time>
      </trkpt>
      <trkpt lat="59.9589899" lon="17.698363">
        <ele>28.0155</ele>
        <time>2013-04-20T19:46:55Z</time>
      </trkpt>
      <trkpt lat="59.9589842" lon="17.6985057">
        <ele>27.0543</ele>
        <time>2013-04-20T19:46:56Z</time>
      </trkpt>
      <trkpt lat="59.9589837" lon="17.6986396">
        <ele>26.5736</ele>
        <time>2013-04-20T19:46:57Z</time>
      </trkpt>
      <trkpt lat="59.9589839" lon="17.6987775">
        <ele>26.0929</ele>
        <time>2013-04-20T19:46:58Z</time>
      </trkpt>
      <trkpt lat="59.9589849" lon="17.6989121">
        <ele>26.0929</ele>
        <time>2013-04-20T19:46:59Z</time>
      </trkpt>
      <trkpt lat="59.95898" lon="17.6990666">
        <ele>26.0929</ele>
        <time>2013-04-20T19:47:00Z</time>
      </trkpt>
      <trkpt lat="59.9589858" lon="17.6991982">
        <ele>26.0929</ele>
        <time>2013-04-20T19:47:01Z</time>
      </trkpt>
      <trkpt lat="59.9589937" lon="17.6993318">
        <ele>26.0929</ele>
        <time>2013-04-20T19:47:02Z</time>
      </trkpt>
      <trkpt lat="59.9590034" lon="17.6994629">
        <ele>26.0929</ele>
        <time>2013-04-20T19:47:03Z</time>
      </trkpt>
      <trkpt lat="59.9590148" lon="17.699593">
        <ele>25.6123</ele>
        <time>2013-04-20T19:47:04Z</time>
      </trkpt>
      <trkpt lat="59.9590259" lon="17.6997251">
        <ele>25.6123</ele>
        <time>2013-04-20T19:47:05Z</time>
      </trkpt>
      <trkpt lat="59.9590377" lon="17.6998586">
        <ele>26.0929</ele>
        <time>2013-04-20T19:47:06Z</time>
      </trkpt>
      <trkpt lat="59.9590498" lon="17.6999918">
        <ele>26.0929</ele>
        <time>2013-04-20T19:47:07Z</time>
      </trkpt>
      <trkpt lat="59.9590647" lon="17.7001245">
        <ele>26.0929</ele>
        <time>2013-04-20T19:47:08Z</time>
      </trkpt>
      <trkpt lat="59.9590808" lon="17.7002574">
        <ele>26.0929</ele>
        <time>2013-04-20T19:47:09Z</time>
      </trkpt>
      <trkpt lat="59.9590954" lon="17.7003906">
        <ele>26.5736</ele>
        <time>2013-04-20T19:47:10Z</time>
      </trkpt>
      <trkpt lat="59.9591077" lon="17.7005236">
        <ele>26.5736</ele>
        <time>2013-04-20T19:47:11Z</time>
      </trkpt>
      <trkpt lat="59.9591194" lon="17.7006548">
        <ele>26.5736</ele>
        <time>2013-04-20T19:47:12Z</time>
      </trkpt>
      <trkpt lat="59.9591326" lon="17.7007824">
        <ele>27.0543</ele>
        <time>2013-04-20T19:47:13Z</time>
      </trkpt>
      <trkpt lat="59.9591458" lon="17.7009075">
        <ele>27.5349</ele>
        <time>2013-04-20T19:47:14Z</time>
      </trkpt>
      <trkpt lat="59.9591595" lon="17.7010314">
        <ele>28.0155</ele>
        <time>2013-04-20T19:47:15Z</time>
      </trkpt>
      <trkpt lat="59.9591746" lon="17.7011522">
        <ele>28.9769</ele>
        <time>2013-04-20T19:47:16Z</time>
      </trkpt>
      <trkpt lat="59.9591893" lon="17.7012712">
        <ele>28.9769</ele>
        <time>2013-04-20T19:47:17Z</time>
      </trkpt>
      <trkpt lat="59.9592055" lon="17.7013868">
        <ele>28.9769</ele>
        <time>2013-04-20T19:47:18Z</time>
      </trkpt>
      <trkpt lat="59.9592279" lon="17.7014972">
        <ele>29.9381</ele>
        <time>2013-04-20T19:47:19Z</time>
      </trkpt>
      <trkpt lat="59.9592527" lon="17.7016042">
        <ele>30.4188</ele>
        <time>2013-04-20T19:47:20Z</time>
      </trkpt>
      <trkpt lat="59.9592771" lon="17.7017147">
        <ele>30.8995</ele>
        <time>2013-04-20T19:47:21Z</time>
      </trkpt>
      <trkpt lat="59.9593045" lon="17.7018259">
        <ele>30.8995</ele>
        <time>2013-04-20T19:47:22Z</time>
      </trkpt>
      <trkpt lat="59.959333" lon="17.7019405">
        <ele>30.8995</ele>
        <time>2013-04-20T19:47:23Z</time>
      </trkpt>
      <trkpt lat="59.9593647" lon="17.7020509">
        <ele>31.3801</ele>
        <time>2013-04-20T19:47:24Z</time>
      </trkpt>
      <trkpt lat="59.9593931" lon="17.702162">
        <ele>30.8995</ele>
        <time>2013-04-20T19:47:25Z</time>
      </trkpt>
      <trkpt lat="59.9594231" lon="17.7022783">
        <ele>30.8995</ele>
        <time>2013-04-20T19:47:26Z</time>
      </trkpt>
      <trkpt lat="59.9594547" lon="17.7023979">
        <ele>30.8995</ele>
        <time>2013-04-20T19:47:27Z</time>
      </trkpt>
      <trkpt lat="59.9594903" lon="17.7025041">
        <ele>30.8995</ele>
        <time>2013-04-20T19:47:28Z</time>
      </trkpt>
      <trkpt lat="59.9595203" lon="17.7026311">
        <ele>30.4188</ele>
        <time>2013-04-20T19:47:29Z</time>
      </trkpt>
      <trkpt lat="59.9595517" lon="17.7027362">
        <ele>30.4188</ele>
        <time>2013-04-20T19:47:30Z</time>
      </trkpt>
      <trkpt lat="59.9595837" lon="17.7028472">
        <ele>30.4188</ele>
        <time>2013-04-20T19:47:31Z</time>
      </trkpt>
      <trkpt lat="59.9596163" lon="17.7029505">
        <ele>30.4188</ele>
        <time>2013-04-20T19:47:32Z</time>
      </trkpt>
      <trkpt lat="59.9596506" lon="17.7030475">
        <ele>30.8995</ele>
        <time>2013-04-20T19:47:33Z</time>
      </trkpt>
      <trkpt lat="59.9596836" lon="17.7031448">
        <ele>30.8995</ele>
        <time>2013-04-20T19:47:34Z</time>
      </trkpt>
      <trkpt lat="59.9597141" lon="17.7032507">
        <ele>29.4575</ele>
        <time>2013-04-20T19:47:35Z</time>
      </trkpt>
      <trkpt lat="59.9597468" lon="17.703352">
        <ele>28.4962</ele>
        <time>2013-04-20T19:47:36Z</time>
      </trkpt>
      <trkpt lat="59.9597841" lon="17.7034426">
        <ele>28.4962</ele>
        <time>2013-04-20T19:47:37Z</time>
      </trkpt>
      <trkpt lat="59.9598169" lon="17.7035418">
        <ele>28.4962</ele>
        <time>2013-04-20T19:47:38Z</time>
      </trkpt>
      <trkpt lat="59.9598505" lon="17.7036516">
        <ele>28.4962</ele>
        <time>2013-04-20T19:47:39Z</time>
      </trkpt>
      <trkpt lat="59.9598868" lon="17.7037717">
        <ele>28.4962</ele>
        <time>2013-04-20T19:47:40Z</time>
      </trkpt>
      <trkpt lat="59.9599267" lon="17.7038948">
        <ele>28.9769</ele>
        <time>2013-04-20T19:47:41Z</time>
      </trkpt>
      <trkpt lat="59.9599677" lon="17.7040108">
        <ele>28.9769</ele>
        <time>2013-04-20T19:47:42Z</time>
      </trkpt>
      <trkpt lat="59.9600109" lon="17.7041188">
        <ele>28.9769</ele>
        <time>2013-04-20T19:47:43Z</time>
      </trkpt>
      <trkpt lat="59.9600614" lon="17.7042198">
        <ele>28.9769</ele>
        <time>2013-04-20T19:47:44Z</time>
      </trkpt>
      <trkpt lat="59.9601168" lon="17.704313">
        <ele>28.9769</ele>
        <time>2013-04-20T19:47:45Z</time>
      </trkpt>
      <trkpt lat="59.960178" lon="17.7043973">
        <ele>28.9769</ele>
        <time>2013-04-20T19:47:46Z</time>
      </trkpt>
      <trkpt lat="59.9602411" lon="17.7044788">
        <ele>28.9769</ele>
        <time>2013-04-20T19:47:47Z</time>
      </trkpt>
      <trkpt lat="59.9603079" lon="17.7045599">
        <ele>28.9769</ele>
        <time>2013-04-20T19:47:48Z</time>
      </trkpt>
      <trkpt lat="59.9603747" lon="17.7046394">
        <ele>29.4575</ele>
        <time>2013-04-20T19:47:49Z</time>
      </trkpt>
      <trkpt lat="59.9604398" lon="17.7047239">
        <ele>28.9769</ele>
        <time>2013-04-20T19:47:50Z</time>
      </trkpt>
      <trkpt lat="59.9605043" lon="17.7048088">
        <ele>28.4962</ele>
        <time>2013-04-20T19:47:51Z</time>
      </trkpt>
      <trkpt lat="59.9605695" lon="17.7048901">
        <ele>28.4962</ele>
        <time>2013-04-20T19:47:52Z</time>
      </trkpt>
      <trkpt lat="59.9606342" lon="17.7049698">
        <ele>28.4962</ele>
        <time>2013-04-20T19:47:53Z</time>
      </trkpt>
      <trkpt lat="59.9607011" lon="17.7050527">
        <ele>28.9769</ele>
        <time>2013-04-20T19:47:54Z</time>
      </trkpt>
      <trkpt lat="59.9607693" lon="17.7051382">
        <ele>29.4575</ele>
        <time>2013-04-20T19:47:55Z</time>
      </trkpt>
      <trkpt lat="59.9608321" lon="17.7052226">
        <ele>28.9769</ele>
        <time>2013-04-20T19:47:56Z</time>
      </trkpt>
      <trkpt lat="59.9608937" lon="17.7053098">
        <ele>28.4962</ele>
        <time>2013-04-20T19:47:57Z</time>
      </trkpt>
      <trkpt lat="59.9609534" lon="17.7054003">
        <ele>27.5349</ele>
        <time>2013-04-20T19:47:58Z</time>
      </trkpt>
      <trkpt lat="59.9610125" lon="17.7054939">
        <ele>27.5349</ele>
        <time>2013-04-20T19:47:59Z</time>
      </trkpt>
      <trkpt lat="59.9610704" lon="17.7055904">
        <ele>27.0543</ele>
        <time>2013-04-20T19:48:00Z</time>
      </trkpt>
      <trkpt lat="59.9611274" lon="17.7056887">
        <ele>27.0543</ele>
        <time>2013-04-20T19:48:01Z</time>
      </trkpt>
      <trkpt lat="59.9611849" lon="17.7057902">
        <ele>27.0543</ele>
        <time>2013-04-20T19:48:02Z</time>
      </trkpt>
      <trkpt lat="59.9612409" lon="17.7058949">
        <ele>27.0543</ele>
        <time>2013-04-20T19:48:03Z</time>
      </trkpt>
      <trkpt lat="59.9612953" lon="17.7060005">
        <ele>27.0543</ele>
        <time>2013-04-20T19:48:04Z</time>
      </trkpt>
      <trkpt lat="59.9613517" lon="17.7061051">
        <ele>27.5349</ele>
        <time>2013-04-20T19:48:05Z</time>
      </trkpt>
      <trkpt lat="59.9614098" lon="17.7062084">
        <ele>27.5349</ele>
        <time>2013-04-20T19:48:06Z</time>
      </trkpt>
      <trkpt lat="59.9614682" lon="17.7063078">
        <ele>28.0155</ele>
        <time>2013-04-20T19:48:07Z</time>
      </trkpt>
      <trkpt lat="59.9615273" lon="17.7064042">
        <ele>28.0155</ele>
        <time>2013-04-20T19:48:08Z</time>
      </trkpt>
      <trkpt lat="59.9615893" lon="17.7064947">
        <ele>28.4962</ele>
        <time>2013-04-20T19:48:09Z</time>
      </trkpt>
      <trkpt lat="59.9616554" lon="17.7065765">
        <ele>28.4962</ele>
        <time>2013-04-20T19:48:10Z</time>
      </trkpt>
      <trkpt lat="59.961725" lon="17.7066518">
        <ele>28.9769</ele>
        <time>2013-04-20T19:48:11Z</time>
      </trkpt>
      <trkpt lat="59.9617919" lon="17.7067212">
        <ele>28.0155</ele>
        <time>2013-04-20T19:48:12Z</time>
      </trkpt>
      <trkpt lat="59.9618617" lon="17.7067762">
        <ele>28.0155</ele>
        <time>2013-04-20T19:48:13Z</time>
      </trkpt>
      <trkpt lat="59.9619324" lon="17.7068269">
        <ele>28.4962</ele>
        <time>2013-04-20T19:48:14Z</time>
      </trkpt>
      <trkpt lat="59.9620028" lon="17.7068768">
        <ele>28.4962</ele>
        <time>2013-04-20T19:48:15Z</time>
      </trkpt>
      <trkpt lat="59.9620734" lon="17.7069212">
        <ele>28.4962</ele>
        <time>2013-04-20T19:48:16Z</time>
      </trkpt>
      <trkpt lat="59.9621443" lon="17.7069612">
        <ele>28.4962</ele>
        <time>2013-04-20T19:48:17Z</time>
      </trkpt>
      <trkpt lat="59.9622152" lon="17.7069998">
        <ele>28.4962</ele>
        <time>2013-04-20T19:48:18Z</time>
      </trkpt>
      <trkpt lat="59.9622846" lon="17.7070394">
        <ele>27.5349</ele>
        <time>2013-04-20T19:48:19Z</time>
      </trkpt>
      <trkpt lat="59.9623542" lon="17.7070753">
        <ele>26.5736</ele>
        <time>2013-04-20T19:48:20Z</time>
      </trkpt>
      <trkpt lat="59.962426" lon="17.7071086">
        <ele>27.0543</ele>
        <time>2013-04-20T19:48:21Z</time>
      </trkpt>
      <trkpt lat="59.9624968" lon="17.7071411">
        <ele>26.5736</ele>
        <time>2013-04-20T19:48:22Z</time>
      </trkpt>
      <trkpt lat="59.9625673" lon="17.7071667">
        <ele>26.0929</ele>
        <time>2013-04-20T19:48:23Z</time>
      </trkpt>
      <trkpt lat="59.9626388" lon="17.7071881">
        <ele>25.6123</ele>
        <time>2013-04-20T19:48:24Z</time>
      </trkpt>
      <trkpt lat="59.9627104" lon="17.7072045">
        <ele>25.1317</ele>
        <time>2013-04-20T19:48:25Z</time>
      </trkpt>
      <trkpt lat="59.9627845" lon="17.7072154">
        <ele>25.1317</ele>
        <time>2013-04-20T19:48:26Z</time>
      </trkpt>
      <trkpt lat="59.962858" lon="17.7072206">
        <ele>24.1703</ele>
        <time>2013-04-20T19:48:27Z</time>
      </trkpt>
      <trkpt lat="59.9629316" lon="17.7072214">
        <ele>23.6896</ele>
        <time>2013-04-20T19:48:28Z</time>
      </trkpt>
      <trkpt lat="59.9630081" lon="17.7072219">
        <ele>23.209</ele>
        <time>2013-04-20T19:48:29Z</time>
      </trkpt>
      <trkpt lat="59.9630844" lon="17.7072209">
        <ele>22.7283</ele>
        <time>2013-04-20T19:48:30Z</time>
      </trkpt>
      <trkpt lat="59.9631637" lon="17.7072168">
        <ele>22.7283</ele>
        <time>2013-04-20T19:48:31Z</time>
      </trkpt>
      <trkpt lat="59.9632591" lon="17.7071824">
        <ele>22.7283</ele>
        <time>2013-04-20T19:48:32Z</time>
      </trkpt>
      <trkpt lat="59.9633497" lon="17.7071751">
        <ele>22.2476</ele>
        <time>2013-04-20T19:48:33Z</time>
      </trkpt>
      <trkpt lat="59.9634358" lon="17.7071761">
        <ele>22.2476</ele>
        <time>2013-04-20T19:48:34Z</time>
      </trkpt>
      <trkpt lat="59.9635185" lon="17.7071807">
        <ele>22.2476</ele>
        <time>2013-04-20T19:48:35Z</time>
      </trkpt>
      <trkpt lat="59.9635994" lon="17.7071894">
        <ele>22.2476</ele>
        <time>2013-04-20T19:48:36Z</time>
      </trkpt>
      <trkpt lat="59.96368" lon="17.7072004">
        <ele>22.2476</ele>
        <time>2013-04-20T19:48:37Z</time>
      </trkpt>
      <trkpt lat="59.9637609" lon="17.7072121">
        <ele>22.7283</ele>
        <time>2013-04-20T19:48:38Z</time>
      </trkpt>
      <trkpt lat="59.9638405" lon="17.7072222">
        <ele>22.7283</ele>
        <time>2013-04-20T19:48:39Z</time>
      </trkpt>
      <trkpt lat="59.96392" lon="17.7072331">
        <ele>22.7283</ele>
        <time>2013-04-20T19:48:40Z</time>
      </trkpt>
      <trkpt lat="59.9639991" lon="17.707247">
        <ele>23.209</ele>
        <time>2013-04-20T19:48:41Z</time>
      </trkpt>
      <trkpt lat="59.964078" lon="17.707262">
        <ele>23.209</ele>
        <time>2013-04-20T19:48:42Z</time>
      </trkpt>
      <trkpt lat="59.9641567" lon="17.7072781">
        <ele>23.209</ele>
        <time>2013-04-20T19:48:43Z</time>
      </trkpt>
      <trkpt lat="59.9642355" lon="17.7072974">
        <ele>23.6896</ele>
        <time>2013-04-20T19:48:44Z</time>
      </trkpt>
      <trkpt lat="59.9643146" lon="17.707322">
        <ele>23.6896</ele>
        <time>2013-04-20T19:48:45Z</time>
      </trkpt>
      <trkpt lat="59.9643931" lon="17.7073475">
        <ele>23.6896</ele>
        <time>2013-04-20T19:48:46Z</time>
      </trkpt>
      <trkpt lat="59.9644717" lon="17.7073766">
        <ele>23.6896</ele>
        <time>2013-04-20T19:48:47Z</time>
      </trkpt>
      <trkpt lat="59.9645494" lon="17.7074134">
        <ele>23.6896</ele>
        <time>2013-04-20T19:48:48Z</time>
      </trkpt>
      <trkpt lat="59.9646255" lon="17.7074561">
        <ele>24.1703</ele>
        <time>2013-04-20T19:48:49Z</time>
      </trkpt>
      <trkpt lat="59.9647001" lon="17.707504">
        <ele>24.1703</ele>
        <time>2013-04-20T19:48:50Z</time>
      </trkpt>
      <trkpt lat="59.9647747" lon="17.7075555">
        <ele>24.1703</ele>
        <time>2013-04-20T19:48:51Z</time>
      </trkpt>
      <trkpt lat="59.9648491" lon="17.7076097">
        <ele>24.1703</ele>
        <time>2013-04-20T19:48:52Z</time>
      </trkpt>
      <trkpt lat="59.9649229" lon="17.7076666">
        <ele>24.1703</ele>
        <time>2013-04-20T19:48:53Z</time>
      </trkpt>
      <trkpt lat="59.9649969" lon="17.7077252">
        <ele>24.1703</ele>
        <time>2013-04-20T19:48:54Z</time>
      </trkpt>
      <trkpt lat="59.9650716" lon="17.7077848">
        <ele>24.1703</ele>
        <time>2013-04-20T19:48:55Z</time>
      </trkpt>
      <trkpt lat="59.9651462" lon="17.7078444">
        <ele>24.1703</ele>
        <time>2013-04-20T19:48:56Z</time>
      </trkpt>
      <trkpt lat="59.9652211" lon="17.7079037">
        <ele>24.1703</ele>
        <time>2013-04-20T19:48:57Z</time>
      </trkpt>
      <trkpt lat="59.9652958" lon="17.707966">
        <ele>24.1703</ele>
        <time>2013-04-20T19:48:58Z</time>
      </trkpt>
      <trkpt lat="59.9653695" lon="17.7080319">
        <ele>24.1703</ele>
        <time>2013-04-20T19:48:59Z</time>
      </trkpt>
      <trkpt lat="59.9654423" lon="17.7081012">
        <ele>24.1703</ele>
        <time>2013-04-20T19:49:00Z</time>
      </trkpt>
      <trkpt lat="59.9655135" lon="17.7081743">
        <ele>24.1703</ele>
        <time>2013-04-20T19:49:01Z</time>
      </trkpt>
      <trkpt lat="59.9655824" lon="17.7082552">
        <ele>24.651</ele>
        <time>2013-04-20T19:49:02Z</time>
      </trkpt>
      <trkpt lat="59.9656489" lon="17.7083445">
        <ele>24.651</ele>
        <time>2013-04-20T19:49:03Z</time>
      </trkpt>
      <trkpt lat="59.9657076" lon="17.7084378">
        <ele>23.6896</ele>
        <time>2013-04-20T19:49:04Z</time>
      </trkpt>
      <trkpt lat="59.9657641" lon="17.7085395">
        <ele>23.209</ele>
        <time>2013-04-20T19:49:05Z</time>
      </trkpt>
      <trkpt lat="59.9658163" lon="17.7086506">
        <ele>23.209</ele>
        <time>2013-04-20T19:49:06Z</time>
      </trkpt>
      <trkpt lat="59.9658646" lon="17.7087689">
        <ele>23.209</ele>
        <time>2013-04-20T19:49:07Z</time>
      </trkpt>
      <trkpt lat="59.9659101" lon="17.7088915">
        <ele>23.209</ele>
        <time>2013-04-20T19:49:08Z</time>
      </trkpt>
      <trkpt lat="59.9659525" lon="17.709017">
        <ele>23.209</ele>
        <time>2013-04-20T19:49:09Z</time>
      </trkpt>
      <trkpt lat="59.9659915" lon="17.7091449">
        <ele>23.209</ele>
        <time>2013-04-20T19:49:10Z</time>
      </trkpt>
      <trkpt lat="59.9660288" lon="17.7092729">
        <ele>23.209</ele>
        <time>2013-04-20T19:49:11Z</time>
      </trkpt>
      <trkpt lat="59.966067" lon="17.7093979">
        <ele>23.209</ele>
        <time>2013-04-20T19:49:12Z</time>
      </trkpt>
      <trkpt lat="59.9661025" lon="17.709523">
        <ele>23.209</ele>
        <time>2013-04-20T19:49:13Z</time>
      </trkpt>
      <trkpt lat="59.9661389" lon="17.7096494">
        <ele>23.6896</ele>
        <time>2013-04-20T19:49:14Z</time>
      </trkpt>
      <trkpt lat="59.9661728" lon="17.7097743">
        <ele>23.6896</ele>
        <time>2013-04-20T19:49:15Z</time>
      </trkpt>
      <trkpt lat="59.9662038" lon="17.7098992">
        <ele>23.6896</ele>
        <time>2013-04-20T19:49:16Z</time>
      </trkpt>
      <trkpt lat="59.9662371" lon="17.7100229">
        <ele>24.651</ele>
        <time>2013-04-20T19:49:17Z</time>
      </trkpt>
      <trkpt lat="59.9662687" lon="17.7101448">
        <ele>24.651</ele>
        <time>2013-04-20T19:49:18Z</time>
      </trkpt>
      <trkpt lat="59.9663022" lon="17.710266">
        <ele>24.651</ele>
        <time>2013-04-20T19:49:19Z</time>
      </trkpt>
      <trkpt lat="59.9663369" lon="17.7103841">
        <ele>25.1317</ele>
        <time>2013-04-20T19:49:20Z</time>
      </trkpt>
      <trkpt lat="59.9663702" lon="17.7104997">
        <ele>25.1317</ele>
        <time>2013-04-20T19:49:21Z</time>
      </trkpt>
      <trkpt lat="59.9664008" lon="17.7106159">
        <ele>25.1317</ele>
        <time>2013-04-20T19:49:22Z</time>
      </trkpt>
      <trkpt lat="59.9664314" lon="17.7107306">
        <ele>25.1317</ele>
        <time>2013-04-20T19:49:23Z</time>
      </trkpt>
      <trkpt lat="59.9664624" lon="17.7108429">
        <ele>25.1317</ele>
        <time>2013-04-20T19:49:24Z</time>
      </trkpt>
      <trkpt lat="59.9664925" lon="17.7109532">
        <ele>25.1317</ele>
        <time>2013-04-20T19:49:25Z</time>
      </trkpt>
      <trkpt lat="59.9665224" lon="17.711063">
        <ele>25.1317</ele>
        <time>2013-04-20T19:49:26Z</time>
      </trkpt>
      <trkpt lat="59.9665536" lon="17.711172">
        <ele>25.1317</ele>
        <time>2013-04-20T19:49:27Z</time>
      </trkpt>
      <trkpt lat="59.9665866" lon="17.7112785">
        <ele>25.6123</ele>
        <time>2013-04-20T19:49:28Z</time>
      </trkpt>
      <trkpt lat="59.9666199" lon="17.711384">
        <ele>25.6123</ele>
        <time>2013-04-20T19:49:29Z</time>
      </trkpt>
      <trkpt lat="59.9666525" lon="17.711489">
        <ele>25.6123</ele>
        <time>2013-04-20T19:49:30Z</time>
      </trkpt>
      <trkpt lat="59.9666857" lon="17.7115926">
        <ele>25.6123</ele>
        <time>2013-04-20T19:49:31Z</time>
      </trkpt>
      <trkpt lat="59.9667199" lon="17.711697">
        <ele>25.6123</ele>
        <time>2013-04-20T19:49:32Z</time>
      </trkpt>
      <trkpt lat="59.9667546" lon="17.7118019">
        <ele>26.0929</ele>
        <time>2013-04-20T19:49:33Z</time>
      </trkpt>
      <trkpt lat="59.9667902" lon="17.7119068">
        <ele>26.0929</ele>
        <time>2013-04-20T19:49:34Z</time>
      </trkpt>
      <trkpt lat="59.9668282" lon="17.7120105">
        <ele>26.5736</ele>
        <time>2013-04-20T19:49:35Z</time>
      </trkpt>
      <trkpt lat="59.9668664" lon="17.7121184">
        <ele>27.0543</ele>
        <time>2013-04-20T19:49:36Z</time>
      </trkpt>
      <trkpt lat="59.9669048" lon="17.7122235">
        <ele>27.0543</ele>
        <time>2013-04-20T19:49:37Z</time>
      </trkpt>
      <trkpt lat="59.9669435" lon="17.712328">
        <ele>27.0543</ele>
        <time>2013-04-20T19:49:38Z</time>
      </trkpt>
      <trkpt lat="59.9669807" lon="17.7124333">
        <ele>27.0543</ele>
        <time>2013-04-20T19:49:39Z</time>
      </trkpt>
      <trkpt lat="59.9670175" lon="17.7125388">
        <ele>27.0543</ele>
        <time>2013-04-20T19:49:40Z</time>
      </trkpt>
      <trkpt lat="59.9670534" lon="17.7126465">
        <ele>27.5349</ele>
        <time>2013-04-20T19:49:41Z</time>
      </trkpt>
      <trkpt lat="59.9670867" lon="17.7127588">
        <ele>27.5349</ele>
        <time>2013-04-20T19:49:42Z</time>
      </trkpt>
      <trkpt lat="59.9671187" lon="17.7128753">
        <ele>27.5349</ele>
        <time>2013-04-20T19:49:43Z</time>
      </trkpt>
      <trkpt lat="59.9671483" lon="17.7129969">
        <ele>26.5736</ele>
        <time>2013-04-20T19:49:44Z</time>
      </trkpt>
      <trkpt lat="59.9671767" lon="17.7131187">
        <ele>26.0929</ele>
        <time>2013-04-20T19:49:45Z</time>
      </trkpt>
      <trkpt lat="59.9672046" lon="17.7132409">
        <ele>25.6123</ele>
        <time>2013-04-20T19:49:46Z</time>
      </trkpt>
      <trkpt lat="59.9672307" lon="17.7133673">
        <ele>25.1317</ele>
        <time>2013-04-20T19:49:47Z</time>
      </trkpt>
      <trkpt lat="59.9672555" lon="17.7134973">
        <ele>24.1703</ele>
        <time>2013-04-20T19:49:48Z</time>
      </trkpt>
      <trkpt lat="59.9672793" lon="17.7136326">
        <ele>23.6896</ele>
        <time>2013-04-20T19:49:49Z</time>
      </trkpt>
      <trkpt lat="59.9673032" lon="17.7137745">
        <ele>23.6896</ele>
        <time>2013-04-20T19:49:50Z</time>
      </trkpt>
      <trkpt lat="59.9673262" lon="17.7139205">
        <ele>23.209</ele>
        <time>2013-04-20T19:49:51Z</time>
      </trkpt>
      <trkpt lat="59.967348" lon="17.7140728">
        <ele>22.7283</ele>
        <time>2013-04-20T19:49:52Z</time>
      </trkpt>
      <trkpt lat="59.9673698" lon="17.7142324">
        <ele>22.7283</ele>
        <time>2013-04-20T19:49:53Z</time>
      </trkpt>
      <trkpt lat="59.9673913" lon="17.7143957">
        <ele>22.2476</ele>
        <time>2013-04-20T19:49:54Z</time>
      </trkpt>
      <trkpt lat="59.9674145" lon="17.7145619">
        <ele>21.767</ele>
        <time>2013-04-20T19:49:55Z</time>
      </trkpt>
      <trkpt lat="59.9674381" lon="17.7147305">
        <ele>21.767</ele>
        <time>2013-04-20T19:49:56Z</time>
      </trkpt>
      <trkpt lat="59.9674579" lon="17.7149198">
        <ele>20.8057</ele>
        <time>2013-04-20T19:49:57Z</time>
      </trkpt>
      <trkpt lat="59.9674794" lon="17.7150612">
        <ele>20.8057</ele>
        <time>2013-04-20T19:49:58Z</time>
      </trkpt>
      <trkpt lat="59.9674917" lon="17.7152527">
        <ele>19.3638</ele>
        <time>2013-04-20T19:49:59Z</time>
      </trkpt>
      <trkpt lat="59.9674917" lon="17.7154508">
        <ele>18.8831</ele>
        <time>2013-04-20T19:50:00Z</time>
      </trkpt>
      <trkpt lat="59.9675242" lon="17.7156258">
        <ele>18.4023</ele>
        <time>2013-04-20T19:50:01Z</time>
      </trkpt>
      <trkpt lat="59.967547" lon="17.7157284">
        <ele>17.9218</ele>
        <time>2013-04-20T19:50:02Z</time>
      </trkpt>
      <trkpt lat="59.9675869" lon="17.7158401">
        <ele>17.4412</ele>
        <time>2013-04-20T19:50:03Z</time>
      </trkpt>
      <trkpt lat="59.9676202" lon="17.7159688">
        <ele>17.9218</ele>
        <time>2013-04-20T19:50:04Z</time>
      </trkpt>
      <trkpt lat="59.9676625" lon="17.71609">
        <ele>18.4023</ele>
        <time>2013-04-20T19:50:05Z</time>
      </trkpt>
      <trkpt lat="59.9677021" lon="17.7162038">
        <ele>18.8831</ele>
        <time>2013-04-20T19:50:06Z</time>
      </trkpt>
      <trkpt lat="59.9677428" lon="17.716311">
        <ele>19.3638</ele>
        <time>2013-04-20T19:50:07Z</time>
      </trkpt>
      <trkpt lat="59.9677886" lon="17.7164224">
        <ele>19.8444</ele>
        <time>2013-04-20T19:50:08Z</time>
      </trkpt>
      <trkpt lat="59.9678346" lon="17.7165125">
        <ele>19.8444</ele>
        <time>2013-04-20T19:50:09Z</time>
      </trkpt>
      <trkpt lat="59.96788" lon="17.7165956">
        <ele>20.325</ele>
        <time>2013-04-20T19:50:10Z</time>
      </trkpt>
      <trkpt lat="59.9679236" lon="17.7166696">
        <ele>20.8057</ele>
        <time>2013-04-20T19:50:11Z</time>
      </trkpt>
      <trkpt lat="59.9679702" lon="17.7167363">
        <ele>21.2864</ele>
        <time>2013-04-20T19:50:12Z</time>
      </trkpt>
      <trkpt lat="59.9680143" lon="17.7167982">
        <ele>21.2864</ele>
        <time>2013-04-20T19:50:13Z</time>
      </trkpt>
      <trkpt lat="59.9680563" lon="17.716852">
        <ele>21.767</ele>
        <time>2013-04-20T19:50:14Z</time>
      </trkpt>
      <trkpt lat="59.9680988" lon="17.7169007">
        <ele>21.767</ele>
        <time>2013-04-20T19:50:15Z</time>
      </trkpt>
      <trkpt lat="59.9681419" lon="17.7169477">
        <ele>22.2476</ele>
        <time>2013-04-20T19:50:16Z</time>
      </trkpt>
      <trkpt lat="59.9681854" lon="17.7169921">
        <ele>22.7283</ele>
        <time>2013-04-20T19:50:17Z</time>
      </trkpt>
      <trkpt lat="59.9682292" lon="17.7170352">
        <ele>22.7283</ele>
        <time>2013-04-20T19:50:18Z</time>
      </trkpt>
      <trkpt lat="59.9682739" lon="17.7170774">
        <ele>22.7283</ele>
        <time>2013-04-20T19:50:19Z</time>
      </trkpt>
      <trkpt lat="59.96832" lon="17.7171141">
        <ele>23.209</ele>
        <time>2013-04-20T19:50:20Z</time>
      </trkpt>
      <trkpt lat="59.968366" lon="17.7171498">
        <ele>23.209</ele>
        <time>2013-04-20T19:50:21Z</time>
      </trkpt>
      <trkpt lat="59.9684141" lon="17.7171803">
        <ele>23.209</ele>
        <time>2013-04-20T19:50:22Z</time>
      </trkpt>
      <trkpt lat="59.9684645" lon="17.7172078">
        <ele>23.209</ele>
        <time>2013-04-20T19:50:23Z</time>
      </trkpt>
      <trkpt lat="59.9685147" lon="17.7172384">
        <ele>23.6896</ele>
        <time>2013-04-20T19:50:24Z</time>
      </trkpt>
      <trkpt lat="59.9685671" lon="17.7172679">
        <ele>24.1703</ele>
        <time>2013-04-20T19:50:25Z</time>
      </trkpt>
      <trkpt lat="59.9686184" lon="17.7172943">
        <ele>23.6896</ele>
        <time>2013-04-20T19:50:26Z</time>
      </trkpt>
      <trkpt lat="59.9686712" lon="17.7173207">
        <ele>23.6896</ele>
        <time>2013-04-20T19:50:27Z</time>
      </trkpt>
      <trkpt lat="59.9687257" lon="17.7173449">
        <ele>23.6896</ele>
        <time>2013-04-20T19:50:28Z</time>
      </trkpt>
      <trkpt lat="59.968781" lon="17.7173656">
        <ele>23.6896</ele>
        <time>2013-04-20T19:50:29Z</time>
      </trkpt>
      <trkpt lat="59.9688383" lon="17.7173879">
        <ele>23.6896</ele>
        <time>2013-04-20T19:50:30Z</time>
      </trkpt>
      <trkpt lat="59.9688963" lon="17.7174069">
        <ele>23.6896</ele>
        <time>2013-04-20T19:50:31Z</time>
      </trkpt>
      <trkpt lat="59.9689561" lon="17.7174233">
        <ele>24.1703</ele>
        <time>2013-04-20T19:50:32Z</time>
      </trkpt>
      <trkpt lat="59.9690157" lon="17.7174469">
        <ele>24.1703</ele>
        <time>2013-04-20T19:50:33Z</time>
      </trkpt>
      <trkpt lat="59.9690762" lon="17.7174715">
        <ele>24.1703</ele>
        <time>2013-04-20T19:50:34Z</time>
      </trkpt>
      <trkpt lat="59.9691378" lon="17.7174944">
        <ele>24.651</ele>
        <time>2013-04-20T19:50:35Z</time>
      </trkpt>
      <trkpt lat="59.9691995" lon="17.717516">
        <ele>24.651</ele>
        <time>2013-04-20T19:50:36Z</time>
      </trkpt>
      <trkpt lat="59.9692621" lon="17.7175398">
        <ele>25.1317</ele>
        <time>2013-04-20T19:50:37Z</time>
      </trkpt>
      <trkpt lat="59.9693253" lon="17.7175684">
        <ele>25.1317</ele>
        <time>2013-04-20T19:50:38Z</time>
      </trkpt>
      <trkpt lat="59.9693893" lon="17.7176008">
        <ele>25.1317</ele>
        <time>2013-04-20T19:50:39Z</time>
      </trkpt>
      <trkpt lat="59.9694552" lon="17.7176365">
        <ele>25.1317</ele>
        <time>2013-04-20T19:50:40Z</time>
      </trkpt>
      <trkpt lat="59.9695223" lon="17.7176752">
        <ele>25.1317</ele>
        <time>2013-04-20T19:50:41Z</time>
      </trkpt>
      <trkpt lat="59.96959" lon="17.7177166">
        <ele>25.1317</ele>
        <time>2013-04-20T19:50:42Z</time>
      </trkpt>
      <trkpt lat="59.9696581" lon="17.7177604">
        <ele>25.1317</ele>
        <time>2013-04-20T19:50:43Z</time>
      </trkpt>
      <trkpt lat="59.9697263" lon="17.7178068">
        <ele>25.1317</ele>
        <time>2013-04-20T19:50:44Z</time>
      </trkpt>
      <trkpt lat="59.969794" lon="17.7178567">
        <ele>25.1317</ele>
        <time>2013-04-20T19:50:45Z</time>
      </trkpt>
      <trkpt lat="59.9698609" lon="17.7179109">
        <ele>25.1317</ele>
        <time>2013-04-20T19:50:46Z</time>
      </trkpt>
      <trkpt lat="59.9699279" lon="17.7179691">
        <ele>25.1317</ele>
        <time>2013-04-20T19:50:47Z</time>
      </trkpt>
      <trkpt lat="59.9699955" lon="17.7180273">
        <ele>25.1317</ele>
        <time>2013-04-20T19:50:48Z</time>
      </trkpt>
      <trkpt lat="59.9700636" lon="17.7180853">
        <ele>25.1317</ele>
        <time>2013-04-20T19:50:49Z</time>
      </trkpt>
      <trkpt lat="59.9701316" lon="17.7181453">
        <ele>25.6123</ele>
        <time>2013-04-20T19:50:50Z</time>
      </trkpt>
      <trkpt lat="59.9701994" lon="17.7182063">
        <ele>25.6123</ele>
        <time>2013-04-20T19:50:51Z</time>
      </trkpt>
      <trkpt lat="59.9702673" lon="17.7182678">
        <ele>25.6123</ele>
        <time>2013-04-20T19:50:52Z</time>
      </trkpt>
      <trkpt lat="59.9703351" lon="17.7183294">
        <ele>25.6123</ele>
        <time>2013-04-20T19:50:53Z</time>
      </trkpt>
      <trkpt lat="59.970403" lon="17.7183905">
        <ele>25.6123</ele>
        <time>2013-04-20T19:50:54Z</time>
      </trkpt>
      <trkpt lat="59.9704701" lon="17.7184524">
        <ele>25.6123</ele>
        <time>2013-04-20T19:50:55Z</time>
      </trkpt>
      <trkpt lat="59.9705371" lon="17.7185153">
        <ele>25.6123</ele>
        <time>2013-04-20T19:50:56Z</time>
      </trkpt>
      <trkpt lat="59.9706047" lon="17.7185775">
        <ele>25.6123</ele>
        <time>2013-04-20T19:50:57Z</time>
      </trkpt>
      <trkpt lat="59.9706726" lon="17.718638">
        <ele>25.6123</ele>
        <time>2013-04-20T19:50:58Z</time>
      </trkpt>
      <trkpt lat="59.9707405" lon="17.7186981">
        <ele>25.6123</ele>
        <time>2013-04-20T19:50:59Z</time>
      </trkpt>
      <trkpt lat="59.9708079" lon="17.7187588">
        <ele>25.6123</ele>
        <time>2013-04-20T19:51:00Z</time>
      </trkpt>
      <trkpt lat="59.9708757" lon="17.7188209">
        <ele>25.6123</ele>
        <time>2013-04-20T19:51:01Z</time>
      </trkpt>
      <trkpt lat="59.9709437" lon="17.7188831">
        <ele>25.6123</ele>
        <time>2013-04-20T19:51:02Z</time>
      </trkpt>
      <trkpt lat="59.9710119" lon="17.7189459">
        <ele>25.6123</ele>
        <time>2013-04-20T19:51:03Z</time>
      </trkpt>
      <trkpt lat="59.9710808" lon="17.7190079">
        <ele>25.6123</ele>
        <time>2013-04-20T19:51:04Z</time>
      </trkpt>
      <trkpt lat="59.9711502" lon="17.7190695">
        <ele>25.6123</ele>
        <time>2013-04-20T19:51:05Z</time>
      </trkpt>
      <trkpt lat="59.9712194" lon="17.7191322">
        <ele>25.6123</ele>
        <time>2013-04-20T19:51:06Z</time>
      </trkpt>
      <trkpt lat="59.9712897" lon="17.7191959">
        <ele>26.0929</ele>
        <time>2013-04-20T19:51:07Z</time>
      </trkpt>
      <trkpt lat="59.9713603" lon="17.7192602">
        <ele>26.0929</ele>
        <time>2013-04-20T19:51:08Z</time>
      </trkpt>
      <trkpt lat="59.9714316" lon="17.7193258">
        <ele>26.0929</ele>
        <time>2013-04-20T19:51:09Z</time>
      </trkpt>
      <trkpt lat="59.9715032" lon="17.7193918">
        <ele>26.0929</ele>
        <time>2013-04-20T19:51:10Z</time>
      </trkpt>
      <trkpt lat="59.9715757" lon="17.7194574">
        <ele>26.0929</ele>
        <time>2013-04-20T19:51:11Z</time>
      </trkpt>
      <trkpt lat="59.9716487" lon="17.7195239">
        <ele>26.0929</ele>
        <time>2013-04-20T19:51:12Z</time>
      </trkpt>
      <trkpt lat="59.9717221" lon="17.7195917">
        <ele>26.0929</ele>
        <time>2013-04-20T19:51:13Z</time>
      </trkpt>
      <trkpt lat="59.9717958" lon="17.7196599">
        <ele>26.0929</ele>
        <time>2013-04-20T19:51:14Z</time>
      </trkpt>
      <trkpt lat="59.9718694" lon="17.7197289">
        <ele>26.0929</ele>
        <time>2013-04-20T19:51:15Z</time>
      </trkpt>
      <trkpt lat="59.9719441" lon="17.7197963">
        <ele>26.5736</ele>
        <time>2013-04-20T19:51:16Z</time>
      </trkpt>
      <trkpt lat="59.972019" lon="17.7198619">
        <ele>26.5736</ele>
        <time>2013-04-20T19:51:17Z</time>
      </trkpt>
      <trkpt lat="59.9720937" lon="17.7199274">
        <ele>26.5736</ele>
        <time>2013-04-20T19:51:18Z</time>
      </trkpt>
      <trkpt lat="59.9721683" lon="17.7199941">
        <ele>26.5736</ele>
        <time>2013-04-20T19:51:19Z</time>
      </trkpt>
      <trkpt lat="59.9722429" lon="17.7200621">
        <ele>26.0929</ele>
        <time>2013-04-20T19:51:20Z</time>
      </trkpt>
      <trkpt lat="59.972318" lon="17.720131">
        <ele>26.5736</ele>
        <time>2013-04-20T19:51:21Z</time>
      </trkpt>
      <trkpt lat="59.9723932" lon="17.7202004">
        <ele>26.5736</ele>
        <time>2013-04-20T19:51:22Z</time>
      </trkpt>
      <trkpt lat="59.9724687" lon="17.7202706">
        <ele>26.5736</ele>
        <time>2013-04-20T19:51:23Z</time>
      </trkpt>
      <trkpt lat="59.9725439" lon="17.7203408">
        <ele>27.0543</ele>
        <time>2013-04-20T19:51:24Z</time>
      </trkpt>
      <trkpt lat="59.972619" lon="17.7204102">
        <ele>27.0543</ele>
        <time>2013-04-20T19:51:25Z</time>
      </trkpt>
      <trkpt lat="59.9726935" lon="17.7204795">
        <ele>27.0543</ele>
        <time>2013-04-20T19:51:26Z</time>
      </trkpt>
      <trkpt lat="59.9727677" lon="17.7205505">
        <ele>27.0543</ele>
        <time>2013-04-20T19:51:27Z</time>
      </trkpt>
      <trkpt lat="59.9728406" lon="17.7206288">
        <ele>27.0543</ele>
        <time>2013-04-20T19:51:28Z</time>
      </trkpt>
      <trkpt lat="59.9729086" lon="17.720712">
        <ele>26.5736</ele>
        <time>2013-04-20T19:51:29Z</time>
      </trkpt>
      <trkpt lat="59.973044" lon="17.7208829">
        <ele>26.0929</ele>
        <time>2013-04-20T19:51:31Z</time>
      </trkpt>
      <trkpt lat="59.9731096" lon="17.7209728">
        <ele>26.0929</ele>
        <time>2013-04-20T19:51:32Z</time>
      </trkpt>
      <trkpt lat="59.9731732" lon="17.7210679">
        <ele>25.6123</ele>
        <time>2013-04-20T19:51:33Z</time>
      </trkpt>
      <trkpt lat="59.9732353" lon="17.7211669">
        <ele>25.6123</ele>
        <time>2013-04-20T19:51:34Z</time>
      </trkpt>
      <trkpt lat="59.9732961" lon="17.7212686">
        <ele>25.1317</ele>
        <time>2013-04-20T19:51:35Z</time>
      </trkpt>
      <trkpt lat="59.9733548" lon="17.721375">
        <ele>25.1317</ele>
        <time>2013-04-20T19:51:36Z</time>
      </trkpt>
      <trkpt lat="59.9734106" lon="17.7214859">
        <ele>25.1317</ele>
        <time>2013-04-20T19:51:37Z</time>
      </trkpt>
      <trkpt lat="59.9734664" lon="17.7216">
        <ele>25.1317</ele>
        <time>2013-04-20T19:51:38Z</time>
      </trkpt>
      <trkpt lat="59.9735211" lon="17.7217162">
        <ele>25.6123</ele>
        <time>2013-04-20T19:51:39Z</time>
      </trkpt>
      <trkpt lat="59.9735741" lon="17.7218355">
        <ele>25.6123</ele>
        <time>2013-04-20T19:51:40Z</time>
      </trkpt>
      <trkpt lat="59.9736247" lon="17.7219583">
        <ele>25.6123</ele>
        <time>2013-04-20T19:51:41Z</time>
      </trkpt>
      <trkpt lat="59.9736731" lon="17.722084">
        <ele>25.6123</ele>
        <time>2013-04-20T19:51:42Z</time>
      </trkpt>
      <trkpt lat="59.9737201" lon="17.7222122">
        <ele>25.6123</ele>
        <time>2013-04-20T19:51:43Z</time>
      </trkpt>
      <trkpt lat="59.9737658" lon="17.7223419">
        <ele>26.0929</ele>
        <time>2013-04-20T19:51:44Z</time>
      </trkpt>
      <trkpt lat="59.9738096" lon="17.7224737">
        <ele>26.0929</ele>
        <time>2013-04-20T19:51:45Z</time>
      </trkpt>
      <trkpt lat="59.9738504" lon="17.7226085">
        <ele>26.0929</ele>
        <time>2013-04-20T19:51:46Z</time>
      </trkpt>
      <trkpt lat="59.9738886" lon="17.7227448">
        <ele>26.5736</ele>
        <time>2013-04-20T19:51:47Z</time>
      </trkpt>
      <trkpt lat="59.9739249" lon="17.7228819">
        <ele>26.5736</ele>
        <time>2013-04-20T19:51:48Z</time>
      </trkpt>
      <trkpt lat="59.97396" lon="17.7230185">
        <ele>26.5736</ele>
        <time>2013-04-20T19:51:49Z</time>
      </trkpt>
      <trkpt lat="59.9739927" lon="17.7231572">
        <ele>27.0543</ele>
        <time>2013-04-20T19:51:50Z</time>
      </trkpt>
      <trkpt lat="59.9740221" lon="17.7232986">
        <ele>27.5349</ele>
        <time>2013-04-20T19:51:51Z</time>
      </trkpt>
      <trkpt lat="59.9740471" lon="17.7234415">
        <ele>27.5349</ele>
        <time>2013-04-20T19:51:52Z</time>
      </trkpt>
      <trkpt lat="59.9740703" lon="17.7235851">
        <ele>27.5349</ele>
        <time>2013-04-20T19:51:53Z</time>
      </trkpt>
      <trkpt lat="59.974093" lon="17.7237284">
        <ele>28.0155</ele>
        <time>2013-04-20T19:51:54Z</time>
      </trkpt>
      <trkpt lat="59.9741155" lon="17.723871">
        <ele>28.0155</ele>
        <time>2013-04-20T19:51:55Z</time>
      </trkpt>
      <trkpt lat="59.9741377" lon="17.7240145">
        <ele>28.4962</ele>
        <time>2013-04-20T19:51:56Z</time>
      </trkpt>
      <trkpt lat="59.9741588" lon="17.7241584">
        <ele>28.4962</ele>
        <time>2013-04-20T19:51:57Z</time>
      </trkpt>
      <trkpt lat="59.9741793" lon="17.7243014">
        <ele>28.4962</ele>
        <time>2013-04-20T19:51:58Z</time>
      </trkpt>
      <trkpt lat="59.9742002" lon="17.7244434">
        <ele>28.9769</ele>
        <time>2013-04-20T19:51:59Z</time>
      </trkpt>
      <trkpt lat="59.9742202" lon="17.7245858">
        <ele>28.9769</ele>
        <time>2013-04-20T19:52:00Z</time>
      </trkpt>
      <trkpt lat="59.9742403" lon="17.7247284">
        <ele>28.9769</ele>
        <time>2013-04-20T19:52:01Z</time>
      </trkpt>
      <trkpt lat="59.974261" lon="17.7248702">
        <ele>28.9769</ele>
        <time>2013-04-20T19:52:02Z</time>
      </trkpt>
      <trkpt lat="59.9742817" lon="17.7250105">
        <ele>29.4575</ele>
        <time>2013-04-20T19:52:03Z</time>
      </trkpt>
      <trkpt lat="59.9743007" lon="17.7251506">
        <ele>29.4575</ele>
        <time>2013-04-20T19:52:04Z</time>
      </trkpt>
      <trkpt lat="59.9743179" lon="17.7252903">
        <ele>28.9769</ele>
        <time>2013-04-20T19:52:05Z</time>
      </trkpt>
      <trkpt lat="59.9743341" lon="17.7254291">
        <ele>28.9769</ele>
        <time>2013-04-20T19:52:06Z</time>
      </trkpt>
      <trkpt lat="59.9743489" lon="17.7255666">
        <ele>29.4575</ele>
        <time>2013-04-20T19:52:07Z</time>
      </trkpt>
      <trkpt lat="59.9743619" lon="17.7257041">
        <ele>29.4575</ele>
        <time>2013-04-20T19:52:08Z</time>
      </trkpt>
      <trkpt lat="59.974373" lon="17.7258414">
        <ele>29.4575</ele>
        <time>2013-04-20T19:52:09Z</time>
      </trkpt>
      <trkpt lat="59.9743817" lon="17.7259791">
        <ele>29.4575</ele>
        <time>2013-04-20T19:52:10Z</time>
      </trkpt>
      <trkpt lat="59.974389" lon="17.7261145">
        <ele>28.9769</ele>
        <time>2013-04-20T19:52:11Z</time>
      </trkpt>
      <trkpt lat="59.9743962" lon="17.7262497">
        <ele>28.9769</ele>
        <time>2013-04-20T19:52:12Z</time>
      </trkpt>
      <trkpt lat="59.9744031" lon="17.7263852">
        <ele>28.4962</ele>
        <time>2013-04-20T19:52:13Z</time>
      </trkpt>
      <trkpt lat="59.9744093" lon="17.7265204">
        <ele>28.4962</ele>
        <time>2013-04-20T19:52:14Z</time>
      </trkpt>
      <trkpt lat="59.9744154" lon="17.7266548">
        <ele>28.0155</ele>
        <time>2013-04-20T19:52:15Z</time>
      </trkpt>
      <trkpt lat="59.9744195" lon="17.7267901">
        <ele>28.0155</ele>
        <time>2013-04-20T19:52:16Z</time>
      </trkpt>
      <trkpt lat="59.97442" lon="17.7269278">
        <ele>27.5349</ele>
        <time>2013-04-20T19:52:17Z</time>
      </trkpt>
      <trkpt lat="59.9744219" lon="17.7270661">
        <ele>27.5349</ele>
        <time>2013-04-20T19:52:18Z</time>
      </trkpt>
      <trkpt lat="59.9744252" lon="17.7272059">
        <ele>27.0543</ele>
        <time>2013-04-20T19:52:19Z</time>
      </trkpt>
      <trkpt lat="59.9744284" lon="17.7273489">
        <ele>27.0543</ele>
        <time>2013-04-20T19:52:20Z</time>
      </trkpt>
      <trkpt lat="59.974431" lon="17.7274953">
        <ele>26.5736</ele>
        <time>2013-04-20T19:52:21Z</time>
      </trkpt>
      <trkpt lat="59.9744335" lon="17.7276437">
        <ele>26.0929</ele>
        <time>2013-04-20T19:52:22Z</time>
      </trkpt>
      <trkpt lat="59.9744371" lon="17.7277939">
        <ele>26.0929</ele>
        <time>2013-04-20T19:52:23Z</time>
      </trkpt>
      <trkpt lat="59.9744413" lon="17.7279458">
        <ele>25.6123</ele>
        <time>2013-04-20T19:52:24Z</time>
      </trkpt>
      <trkpt lat="59.9744448" lon="17.7280994">
        <ele>25.6123</ele>
        <time>2013-04-20T19:52:25Z</time>
      </trkpt>
      <trkpt lat="59.9744484" lon="17.7282528">
        <ele>25.6123</ele>
        <time>2013-04-20T19:52:26Z</time>
      </trkpt>
      <trkpt lat="59.9744526" lon="17.7284055">
        <ele>25.1317</ele>
        <time>2013-04-20T19:52:27Z</time>
      </trkpt>
      <trkpt lat="59.9744563" lon="17.7285591">
        <ele>25.1317</ele>
        <time>2013-04-20T19:52:28Z</time>
      </trkpt>
      <trkpt lat="59.9744594" lon="17.7287113">
        <ele>25.6123</ele>
        <time>2013-04-20T19:52:29Z</time>
      </trkpt>
      <trkpt lat="59.9744663" lon="17.7290117">
        <ele>26.0929</ele>
        <time>2013-04-20T19:52:31Z</time>
      </trkpt>
      <trkpt lat="59.9744708" lon="17.7291588">
        <ele>26.5736</ele>
        <time>2013-04-20T19:52:32Z</time>
      </trkpt>
      <trkpt lat="59.9744739" lon="17.7293048">
        <ele>27.0543</ele>
        <time>2013-04-20T19:52:33Z</time>
      </trkpt>
      <trkpt lat="59.9744743" lon="17.7294478">
        <ele>27.0543</ele>
        <time>2013-04-20T19:52:34Z</time>
      </trkpt>
      <trkpt lat="59.9744704" lon="17.7295857">
        <ele>27.0543</ele>
        <time>2013-04-20T19:52:35Z</time>
      </trkpt>
      <trkpt lat="59.9744626" lon="17.7297182">
        <ele>27.0543</ele>
        <time>2013-04-20T19:52:36Z</time>
      </trkpt>
      <trkpt lat="59.9744536" lon="17.7298488">
        <ele>27.0543</ele>
        <time>2013-04-20T19:52:37Z</time>
      </trkpt>
      <trkpt lat="59.9744429" lon="17.7299771">
        <ele>27.0543</ele>
        <time>2013-04-20T19:52:38Z</time>
      </trkpt>
      <trkpt lat="59.9744304" lon="17.7301024">
        <ele>27.0543</ele>
        <time>2013-04-20T19:52:39Z</time>
      </trkpt>
      <trkpt lat="59.9744191" lon="17.730228">
        <ele>27.5349</ele>
        <time>2013-04-20T19:52:40Z</time>
      </trkpt>
      <trkpt lat="59.9744085" lon="17.7303544">
        <ele>27.5349</ele>
        <time>2013-04-20T19:52:41Z</time>
      </trkpt>
      <trkpt lat="59.9743963" lon="17.7304802">
        <ele>27.5349</ele>
        <time>2013-04-20T19:52:42Z</time>
      </trkpt>
      <trkpt lat="59.9743848" lon="17.7306061">
        <ele>27.5349</ele>
        <time>2013-04-20T19:52:43Z</time>
      </trkpt>
      <trkpt lat="59.9743734" lon="17.7307325">
        <ele>27.5349</ele>
        <time>2013-04-20T19:52:44Z</time>
      </trkpt>
      <trkpt lat="59.9743636" lon="17.7308603">
        <ele>27.5349</ele>
        <time>2013-04-20T19:52:45Z</time>
      </trkpt>
      <trkpt lat="59.9743557" lon="17.730989">
        <ele>27.5349</ele>
        <time>2013-04-20T19:52:46Z</time>
      </trkpt>
      <trkpt lat="59.9743485" lon="17.731119">
        <ele>27.5349</ele>
        <time>2013-04-20T19:52:47Z</time>
      </trkpt>
      <trkpt lat="59.9743413" lon="17.7312498">
        <ele>27.5349</ele>
        <time>2013-04-20T19:52:48Z</time>
      </trkpt>
      <trkpt lat="59.9743341" lon="17.7313811">
        <ele>27.5349</ele>
        <time>2013-04-20T19:52:49Z</time>
      </trkpt>
      <trkpt lat="59.9743287" lon="17.7315132">
        <ele>27.5349</ele>
        <time>2013-04-20T19:52:50Z</time>
      </trkpt>
      <trkpt lat="59.9743249" lon="17.7316458">
        <ele>27.5349</ele>
        <time>2013-04-20T19:52:51Z</time>
      </trkpt>
      <trkpt lat="59.9743232" lon="17.7317795">
        <ele>27.5349</ele>
        <time>2013-04-20T19:52:52Z</time>
      </trkpt>
      <trkpt lat="59.9743232" lon="17.7319129">
        <ele>27.5349</ele>
        <time>2013-04-20T19:52:53Z</time>
      </trkpt>
      <trkpt lat="59.9743242" lon="17.7320457">
        <ele>27.5349</ele>
        <time>2013-04-20T19:52:54Z</time>
      </trkpt>
      <trkpt lat="59.9743251" lon="17.7321783">
        <ele>27.0543</ele>
        <time>2013-04-20T19:52:55Z</time>
      </trkpt>
      <trkpt lat="59.9743273" lon="17.7323094">
        <ele>27.5349</ele>
        <time>2013-04-20T19:52:56Z</time>
      </trkpt>
      <trkpt lat="59.9743302" lon="17.732441">
        <ele>27.5349</ele>
        <time>2013-04-20T19:52:57Z</time>
      </trkpt>
      <trkpt lat="59.9743335" lon="17.732574">
        <ele>27.0543</ele>
        <time>2013-04-20T19:52:58Z</time>
      </trkpt>
      <trkpt lat="59.9743362" lon="17.7327076">
        <ele>27.0543</ele>
        <time>2013-04-20T19:52:59Z</time>
      </trkpt>
      <trkpt lat="59.9743367" lon="17.7328419">
        <ele>27.0543</ele>
        <time>2013-04-20T19:53:00Z</time>
      </trkpt>
      <trkpt lat="59.974335" lon="17.732977">
        <ele>27.0543</ele>
        <time>2013-04-20T19:53:01Z</time>
      </trkpt>
      <trkpt lat="59.9743326" lon="17.7331122">
        <ele>27.0543</ele>
        <time>2013-04-20T19:53:02Z</time>
      </trkpt>
      <trkpt lat="59.9743295" lon="17.7332474">
        <ele>27.0543</ele>
        <time>2013-04-20T19:53:03Z</time>
      </trkpt>
      <trkpt lat="59.9743247" lon="17.7333821">
        <ele>26.5736</ele>
        <time>2013-04-20T19:53:04Z</time>
      </trkpt>
      <trkpt lat="59.9743183" lon="17.7335153">
        <ele>26.5736</ele>
        <time>2013-04-20T19:53:05Z</time>
      </trkpt>
      <trkpt lat="59.9743114" lon="17.7336477">
        <ele>26.5736</ele>
        <time>2013-04-20T19:53:06Z</time>
      </trkpt>
      <trkpt lat="59.974305" lon="17.7337793">
        <ele>26.5736</ele>
        <time>2013-04-20T19:53:07Z</time>
      </trkpt>
      <trkpt lat="59.974299" lon="17.7339095">
        <ele>26.5736</ele>
        <time>2013-04-20T19:53:08Z</time>
      </trkpt>
      <trkpt lat="59.9742933" lon="17.7340395">
        <ele>26.5736</ele>
        <time>2013-04-20T19:53:09Z</time>
      </trkpt>
      <trkpt lat="59.9742868" lon="17.7341697">
        <ele>26.5736</ele>
        <time>2013-04-20T19:53:10Z</time>
      </trkpt>
      <trkpt lat="59.9742802" lon="17.7343007">
        <ele>26.5736</ele>
        <time>2013-04-20T19:53:11Z</time>
      </trkpt>
      <trkpt lat="59.9742764" lon="17.7344323">
        <ele>26.5736</ele>
        <time>2013-04-20T19:53:12Z</time>
      </trkpt>
      <trkpt lat="59.9742754" lon="17.7345644">
        <ele>26.5736</ele>
        <time>2013-04-20T19:53:13Z</time>
      </trkpt>
      <trkpt lat="59.9742762" lon="17.7346969">
        <ele>26.0929</ele>
        <time>2013-04-20T19:53:14Z</time>
      </trkpt>
      <trkpt lat="59.9742785" lon="17.7348295">
        <ele>26.0929</ele>
        <time>2013-04-20T19:53:15Z</time>
      </trkpt>
      <trkpt lat="59.9742841" lon="17.7349616">
        <ele>26.0929</ele>
        <time>2013-04-20T19:53:16Z</time>
      </trkpt>
      <trkpt lat="59.9742924" lon="17.7350935">
        <ele>26.5736</ele>
        <time>2013-04-20T19:53:17Z</time>
      </trkpt>
      <trkpt lat="59.9743019" lon="17.7352242">
        <ele>26.5736</ele>
        <time>2013-04-20T19:53:18Z</time>
      </trkpt>
      <trkpt lat="59.9743128" lon="17.7353541">
        <ele>26.5736</ele>
        <time>2013-04-20T19:53:19Z</time>
      </trkpt>
      <trkpt lat="59.9743259" lon="17.7354806">
        <ele>26.5736</ele>
        <time>2013-04-20T19:53:20Z</time>
      </trkpt>
      <trkpt lat="59.9743406" lon="17.7356055">
        <ele>27.0543</ele>
        <time>2013-04-20T19:53:21Z</time>
      </trkpt>
      <trkpt lat="59.9743563" lon="17.7357303">
        <ele>26.5736</ele>
        <time>2013-04-20T19:53:22Z</time>
      </trkpt>
      <trkpt lat="59.9743749" lon="17.7358525">
        <ele>25.6123</ele>
        <time>2013-04-20T19:53:23Z</time>
      </trkpt>
      <trkpt lat="59.9743953" lon="17.7359729">
        <ele>25.1317</ele>
        <time>2013-04-20T19:53:24Z</time>
      </trkpt>
      <trkpt lat="59.9744167" lon="17.7360922">
        <ele>24.651</ele>
        <time>2013-04-20T19:53:25Z</time>
      </trkpt>
      <trkpt lat="59.9744403" lon="17.736208">
        <ele>24.651</ele>
        <time>2013-04-20T19:53:26Z</time>
      </trkpt>
      <trkpt lat="59.9744661" lon="17.7363215">
        <ele>24.651</ele>
        <time>2013-04-20T19:53:27Z</time>
      </trkpt>
      <trkpt lat="59.9744939" lon="17.7364333">
        <ele>24.651</ele>
        <time>2013-04-20T19:53:28Z</time>
      </trkpt>
      <trkpt lat="59.9745235" lon="17.7365442">
        <ele>24.651</ele>
        <time>2013-04-20T19:53:29Z</time>
      </trkpt>
      <trkpt lat="59.974554" lon="17.7366549">
        <ele>24.651</ele>
        <time>2013-04-20T19:53:30Z</time>
      </trkpt>
      <trkpt lat="59.9745852" lon="17.7367658">
        <ele>24.651</ele>
        <time>2013-04-20T19:53:31Z</time>
      </trkpt>
      <trkpt lat="59.9746188" lon="17.7368744">
        <ele>24.651</ele>
        <time>2013-04-20T19:53:32Z</time>
      </trkpt>
      <trkpt lat="59.9746542" lon="17.7369808">
        <ele>24.651</ele>
        <time>2013-04-20T19:53:33Z</time>
      </trkpt>
      <trkpt lat="59.9746906" lon="17.7370869">
        <ele>24.651</ele>
        <time>2013-04-20T19:53:34Z</time>
      </trkpt>
      <trkpt lat="59.9747298" lon="17.7371871">
        <ele>25.6123</ele>
        <time>2013-04-20T19:53:35Z</time>
      </trkpt>
      <trkpt lat="59.9747706" lon="17.737285">
        <ele>26.0929</ele>
        <time>2013-04-20T19:53:36Z</time>
      </trkpt>
      <trkpt lat="59.9748127" lon="17.7373821">
        <ele>26.0929</ele>
        <time>2013-04-20T19:53:37Z</time>
      </trkpt>
      <trkpt lat="59.974855" lon="17.7374765">
        <ele>26.5736</ele>
        <time>2013-04-20T19:53:38Z</time>
      </trkpt>
      <trkpt lat="59.9748981" lon="17.7375672">
        <ele>27.0543</ele>
        <time>2013-04-20T19:53:39Z</time>
      </trkpt>
      <trkpt lat="59.974942" lon="17.7376546">
        <ele>27.5349</ele>
        <time>2013-04-20T19:53:40Z</time>
      </trkpt>
      <trkpt lat="59.9749867" lon="17.7377389">
        <ele>27.5349</ele>
        <time>2013-04-20T19:53:41Z</time>
      </trkpt>
      <trkpt lat="59.9750316" lon="17.7378208">
        <ele>28.0155</ele>
        <time>2013-04-20T19:53:42Z</time>
      </trkpt>
      <trkpt lat="59.9750774" lon="17.7379003">
        <ele>28.0155</ele>
        <time>2013-04-20T19:53:43Z</time>
      </trkpt>
      <trkpt lat="59.9751233" lon="17.7379793">
        <ele>28.0155</ele>
        <time>2013-04-20T19:53:44Z</time>
      </trkpt>
      <trkpt lat="59.9751686" lon="17.7380596">
        <ele>28.0155</ele>
        <time>2013-04-20T19:53:45Z</time>
      </trkpt>
      <trkpt lat="59.9752146" lon="17.7381411">
        <ele>28.0155</ele>
        <time>2013-04-20T19:53:46Z</time>
      </trkpt>
      <trkpt lat="59.9752603" lon="17.7382218">
        <ele>28.0155</ele>
        <time>2013-04-20T19:53:47Z</time>
      </trkpt>
      <trkpt lat="59.9753059" lon="17.738297">
        <ele>28.0155</ele>
        <time>2013-04-20T19:53:48Z</time>
      </trkpt>
      <trkpt lat="59.9753516" lon="17.7383685">
        <ele>28.0155</ele>
        <time>2013-04-20T19:53:49Z</time>
      </trkpt>
      <trkpt lat="59.9753964" lon="17.73844">
        <ele>27.5349</ele>
        <time>2013-04-20T19:53:50Z</time>
      </trkpt>
      <trkpt lat="59.9754407" lon="17.7385136">
        <ele>27.5349</ele>
        <time>2013-04-20T19:53:51Z</time>
      </trkpt>
      <trkpt lat="59.9754845" lon="17.7385893">
        <ele>28.0155</ele>
        <time>2013-04-20T19:53:52Z</time>
      </trkpt>
      <trkpt lat="59.975528" lon="17.7386659">
        <ele>28.0155</ele>
        <time>2013-04-20T19:53:53Z</time>
      </trkpt>
      <trkpt lat="59.9755714" lon="17.7387434">
        <ele>28.0155</ele>
        <time>2013-04-20T19:53:54Z</time>
      </trkpt>
      <trkpt lat="59.9756139" lon="17.7388229">
        <ele>28.0155</ele>
        <time>2013-04-20T19:53:55Z</time>
      </trkpt>
      <trkpt lat="59.9756558" lon="17.7389024">
        <ele>28.0155</ele>
        <time>2013-04-20T19:53:56Z</time>
      </trkpt>
      <trkpt lat="59.9756976" lon="17.7389797">
        <ele>28.0155</ele>
        <time>2013-04-20T19:53:57Z</time>
      </trkpt>
      <trkpt lat="59.9757399" lon="17.7390535">
        <ele>28.0155</ele>
        <time>2013-04-20T19:53:58Z</time>
      </trkpt>
      <trkpt lat="59.9757813" lon="17.7391272">
        <ele>28.0155</ele>
        <time>2013-04-20T19:53:59Z</time>
      </trkpt>
      <trkpt lat="59.9758212" lon="17.7391997">
        <ele>28.0155</ele>
        <time>2013-04-20T19:54:00Z</time>
      </trkpt>
      <trkpt lat="59.97586" lon="17.7392669">
        <ele>28.4962</ele>
        <time>2013-04-20T19:54:01Z</time>
      </trkpt>
      <trkpt lat="59.9758978" lon="17.7393294">
        <ele>28.4962</ele>
        <time>2013-04-20T19:54:02Z</time>
      </trkpt>
      <trkpt lat="59.9759357" lon="17.739392">
        <ele>28.4962</ele>
        <time>2013-04-20T19:54:03Z</time>
      </trkpt>
      <trkpt lat="59.9759744" lon="17.7394572">
        <ele>28.4962</ele>
        <time>2013-04-20T19:54:04Z</time>
      </trkpt>
      <trkpt lat="59.976014" lon="17.739519">
        <ele>28.4962</ele>
        <time>2013-04-20T19:54:05Z</time>
      </trkpt>
      <trkpt lat="59.9760547" lon="17.7395732">
        <ele>28.9769</ele>
        <time>2013-04-20T19:54:06Z</time>
      </trkpt>
      <trkpt lat="59.9760948" lon="17.7396233">
        <ele>29.4575</ele>
        <time>2013-04-20T19:54:07Z</time>
      </trkpt>
      <trkpt lat="59.9761348" lon="17.7396682">
        <ele>29.4575</ele>
        <time>2013-04-20T19:54:08Z</time>
      </trkpt>
      <trkpt lat="59.9761745" lon="17.7397102">
        <ele>30.4188</ele>
        <time>2013-04-20T19:54:09Z</time>
      </trkpt>
      <trkpt lat="59.9762093" lon="17.7397512">
        <ele>30.4188</ele>
        <time>2013-04-20T19:54:10Z</time>
      </trkpt>
      <trkpt lat="59.9762419" lon="17.7397879">
        <ele>30.8995</ele>
        <time>2013-04-20T19:54:11Z</time>
      </trkpt>
      <trkpt lat="59.9762766" lon="17.7398152">
        <ele>31.3801</ele>
        <time>2013-04-20T19:54:12Z</time>
      </trkpt>
      <trkpt lat="59.9763116" lon="17.7398252">
        <ele>31.8607</ele>
        <time>2013-04-20T19:54:13Z</time>
      </trkpt>
      <trkpt lat="59.9763494" lon="17.7398271">
        <ele>32.3416</ele>
        <time>2013-04-20T19:54:14Z</time>
      </trkpt>
      <trkpt lat="59.9763895" lon="17.7398133">
        <ele>32.8223</ele>
        <time>2013-04-20T19:54:15Z</time>
      </trkpt>
      <trkpt lat="59.9764293" lon="17.7397809">
        <ele>32.8223</ele>
        <time>2013-04-20T19:54:16Z</time>
      </trkpt>
      <trkpt lat="59.9764693" lon="17.7397375">
        <ele>32.3416</ele>
        <time>2013-04-20T19:54:17Z</time>
      </trkpt>
      <trkpt lat="59.9765107" lon="17.739688">
        <ele>31.8607</ele>
        <time>2013-04-20T19:54:18Z</time>
      </trkpt>
      <trkpt lat="59.9765542" lon="17.7396365">
        <ele>31.3801</ele>
        <time>2013-04-20T19:54:19Z</time>
      </trkpt>
      <trkpt lat="59.9765996" lon="17.7395893">
        <ele>31.8607</ele>
        <time>2013-04-20T19:54:20Z</time>
      </trkpt>
      <trkpt lat="59.9766475" lon="17.7395474">
        <ele>31.8607</ele>
        <time>2013-04-20T19:54:21Z</time>
      </trkpt>
      <trkpt lat="59.976695" lon="17.7395175">
        <ele>31.8607</ele>
        <time>2013-04-20T19:54:22Z</time>
      </trkpt>
      <trkpt lat="59.9767402" lon="17.7394924">
        <ele>31.8607</ele>
        <time>2013-04-20T19:54:23Z</time>
      </trkpt>
      <trkpt lat="59.9767852" lon="17.7394696">
        <ele>31.3801</ele>
        <time>2013-04-20T19:54:24Z</time>
      </trkpt>
      <trkpt lat="59.9768293" lon="17.7394468">
        <ele>31.3801</ele>
        <time>2013-04-20T19:54:25Z</time>
      </trkpt>
      <trkpt lat="59.9768709" lon="17.7394263">
        <ele>31.3801</ele>
        <time>2013-04-20T19:54:26Z</time>
      </trkpt>
      <trkpt lat="59.976912" lon="17.7394077">
        <ele>31.8607</ele>
        <time>2013-04-20T19:54:27Z</time>
      </trkpt>
      <trkpt lat="59.9769521" lon="17.7393894">
        <ele>31.8607</ele>
        <time>2013-04-20T19:54:28Z</time>
      </trkpt>
      <trkpt lat="59.9769905" lon="17.7393708">
        <ele>31.3801</ele>
        <time>2013-04-20T19:54:29Z</time>
      </trkpt>
      <trkpt lat="59.9770273" lon="17.7393523">
        <ele>30.8995</ele>
        <time>2013-04-20T19:54:30Z</time>
      </trkpt>
      <trkpt lat="59.9770631" lon="17.7393305">
        <ele>30.8995</ele>
        <time>2013-04-20T19:54:31Z</time>
      </trkpt>
      <trkpt lat="59.9770996" lon="17.7393056">
        <ele>30.8995</ele>
        <time>2013-04-20T19:54:32Z</time>
      </trkpt>
      <trkpt lat="59.9771365" lon="17.739284">
        <ele>30.8995</ele>
        <time>2013-04-20T19:54:33Z</time>
      </trkpt>
      <trkpt lat="59.9771731" lon="17.7392664">
        <ele>30.8995</ele>
        <time>2013-04-20T19:54:34Z</time>
      </trkpt>
      <trkpt lat="59.9772104" lon="17.7392474">
        <ele>30.8995</ele>
        <time>2013-04-20T19:54:35Z</time>
      </trkpt>
      <trkpt lat="59.977248" lon="17.73923">
        <ele>30.4188</ele>
        <time>2013-04-20T19:54:36Z</time>
      </trkpt>
      <trkpt lat="59.9772852" lon="17.7392122">
        <ele>30.4188</ele>
        <time>2013-04-20T19:54:37Z</time>
      </trkpt>
      <trkpt lat="59.9773238" lon="17.7391967">
        <ele>30.8995</ele>
        <time>2013-04-20T19:54:38Z</time>
      </trkpt>
      <trkpt lat="59.9773622" lon="17.739178">
        <ele>30.8995</ele>
        <time>2013-04-20T19:54:39Z</time>
      </trkpt>
      <trkpt lat="59.9774013" lon="17.7391584">
        <ele>30.8995</ele>
        <time>2013-04-20T19:54:40Z</time>
      </trkpt>
      <trkpt lat="59.977441" lon="17.7391399">
        <ele>31.3801</ele>
        <time>2013-04-20T19:54:41Z</time>
      </trkpt>
      <trkpt lat="59.977478" lon="17.7391243">
        <ele>31.8607</ele>
        <time>2013-04-20T19:54:42Z</time>
      </trkpt>
      <trkpt lat="59.9775116" lon="17.7391104">
        <ele>31.8607</ele>
        <time>2013-04-20T19:54:43Z</time>
      </trkpt>
      <trkpt lat="59.9775453" lon="17.7390995">
        <ele>31.8607</ele>
        <time>2013-04-20T19:54:44Z</time>
      </trkpt>
      <trkpt lat="59.9775806" lon="17.7390901">
        <ele>32.3416</ele>
        <time>2013-04-20T19:54:45Z</time>
      </trkpt>
      <trkpt lat="59.9776176" lon="17.7390855">
        <ele>32.3416</ele>
        <time>2013-04-20T19:54:46Z</time>
      </trkpt>
      <trkpt lat="59.977654" lon="17.7390865">
        <ele>31.8607</ele>
        <time>2013-04-20T19:54:47Z</time>
      </trkpt>
      <trkpt lat="59.9776913" lon="17.7390878">
        <ele>31.8607</ele>
        <time>2013-04-20T19:54:48Z</time>
      </trkpt>
      <trkpt lat="59.9777291" lon="17.7390922">
        <ele>31.8607</ele>
        <time>2013-04-20T19:54:49Z</time>
      </trkpt>
      <trkpt lat="59.9777681" lon="17.7391066">
        <ele>31.8607</ele>
        <time>2013-04-20T19:54:50Z</time>
      </trkpt>
      <trkpt lat="59.9778111" lon="17.7391243">
        <ele>31.8607</ele>
        <time>2013-04-20T19:54:51Z</time>
      </trkpt>
      <trkpt lat="59.9778584" lon="17.7391389">
        <ele>32.3416</ele>
        <time>2013-04-20T19:54:52Z</time>
      </trkpt>
      <trkpt lat="59.9779041" lon="17.7391565">
        <ele>32.3416</ele>
        <time>2013-04-20T19:54:53Z</time>
      </trkpt>
      <trkpt lat="59.9779482" lon="17.7391802">
        <ele>32.3416</ele>
        <time>2013-04-20T19:54:54Z</time>
      </trkpt>
      <trkpt lat="59.97799" lon="17.7392045">
        <ele>32.8223</ele>
        <time>2013-04-20T19:54:55Z</time>
      </trkpt>
      <trkpt lat="59.9780285" lon="17.7392232">
        <ele>32.8223</ele>
        <time>2013-04-20T19:54:56Z</time>
      </trkpt>
      <trkpt lat="59.9780657" lon="17.7392383">
        <ele>33.3029</ele>
        <time>2013-04-20T19:54:57Z</time>
      </trkpt>
      <trkpt lat="59.9781034" lon="17.7392537">
        <ele>33.7834</ele>
        <time>2013-04-20T19:54:58Z</time>
      </trkpt>
      <trkpt lat="59.9781394" lon="17.7392622">
        <ele>33.7834</ele>
        <time>2013-04-20T19:54:59Z</time>
      </trkpt>
      <trkpt lat="59.9781749" lon="17.7392728">
        <ele>33.7834</ele>
        <time>2013-04-20T19:55:00Z</time>
      </trkpt>
      <trkpt lat="59.9782123" lon="17.7392802">
        <ele>34.2642</ele>
        <time>2013-04-20T19:55:01Z</time>
      </trkpt>
      <trkpt lat="59.9782506" lon="17.7392871">
        <ele>33.3029</ele>
        <time>2013-04-20T19:55:02Z</time>
      </trkpt>
      <trkpt lat="59.9782889" lon="17.7392968">
        <ele>31.8607</ele>
        <time>2013-04-20T19:55:03Z</time>
      </trkpt>
      <trkpt lat="59.9783296" lon="17.7393072">
        <ele>31.8607</ele>
        <time>2013-04-20T19:55:04Z</time>
      </trkpt>
      <trkpt lat="59.9783756" lon="17.739316">
        <ele>32.3416</ele>
        <time>2013-04-20T19:55:05Z</time>
      </trkpt>
      <trkpt lat="59.9784239" lon="17.7393303">
        <ele>31.8607</ele>
        <time>2013-04-20T19:55:06Z</time>
      </trkpt>
      <trkpt lat="59.9784709" lon="17.7393352">
        <ele>31.3801</ele>
        <time>2013-04-20T19:55:07Z</time>
      </trkpt>
      <trkpt lat="59.9785201" lon="17.7393355">
        <ele>31.8607</ele>
        <time>2013-04-20T19:55:08Z</time>
      </trkpt>
      <trkpt lat="59.9785625" lon="17.7393292">
        <ele>31.8607</ele>
        <time>2013-04-20T19:55:09Z</time>
      </trkpt>
      <trkpt lat="59.9786046" lon="17.7393217">
        <ele>31.8607</ele>
        <time>2013-04-20T19:55:10Z</time>
      </trkpt>
      <trkpt lat="59.9786527" lon="17.7393222">
        <ele>31.8607</ele>
        <time>2013-04-20T19:55:11Z</time>
      </trkpt>
    </trkseg>
  </trk>
</gpx>